<?xml version="1.0" encoding="UTF-8"?>
<gpx version="1.1" creator="https://www.youtrack.es" xsi:schemaLocation="http://www.topografix.com/GPX/1/1 http://www.topografix.com/GPX/1/1/gpx.xsd http://www.garmin.com/xmlschemas/GpxExtensions/v3 http://www.garmin.com/xmlschemas/GpxExtensionsv3.xsd http://www.garmin.com/xmlschemas/TrackPointExtension/v1 http://www.garmin.com/xmlschemas/TrackPointExtensionv1.xsd" xmlns:gpxtpx="http://www.garmin.com/xmlschemas/TrackPointExtension/v1" xmlns:gpxx="http://www.garmin.com/xmlschemas/GpxExtensions/v3" xmlns:xsi="http://www.w3.org/2001/XMLSchema-instance">
  <metadata>
    <link href="https://www.youtrack.es">
      <text>YouTrack.es</text>
    </link>
    <time>2026-05-08T16:26:49Z</time>
  </metadata>
  <trk>
    <src>https://www.youtrack.es</src>
    <link href="https://www.youtrack.es/ruta/24982-madeleine">
      <text>YouTrack.es</text>
    </link>
    <trkseg>
      <trkpt lat="45.2718170" lon="6.3512440">
        <ele>555.2</ele>
        <time>2021-08-19T07:29:30Z</time>
      </trkpt>
      <trkpt lat="45.2718400" lon="6.3512140">
        <ele>552.6</ele>
        <time>2021-08-19T07:29:31Z</time>
      </trkpt>
      <trkpt lat="45.2720180" lon="6.3509790">
        <ele>553.2</ele>
        <time>2021-08-19T07:29:38Z</time>
      </trkpt>
      <trkpt lat="45.2721920" lon="6.3507330">
        <ele>553.4</ele>
        <time>2021-08-19T07:29:45Z</time>
      </trkpt>
      <trkpt lat="45.2722670" lon="6.3506270">
        <ele>553.6</ele>
        <time>2021-08-19T07:29:48Z</time>
      </trkpt>
      <trkpt lat="45.2723410" lon="6.3505240">
        <ele>554.2</ele>
        <time>2021-08-19T07:29:51Z</time>
      </trkpt>
      <trkpt lat="45.2723670" lon="6.3504890">
        <ele>554.4</ele>
        <time>2021-08-19T07:29:53Z</time>
      </trkpt>
      <trkpt lat="45.2724700" lon="6.3503520">
        <ele>555.0</ele>
        <time>2021-08-19T07:29:56Z</time>
      </trkpt>
      <trkpt lat="45.2724930" lon="6.3503150">
        <ele>555.4</ele>
        <time>2021-08-19T07:29:57Z</time>
      </trkpt>
      <trkpt lat="45.2725150" lon="6.3502810">
        <ele>555.6</ele>
        <time>2021-08-19T07:29:58Z</time>
      </trkpt>
      <trkpt lat="45.2726360" lon="6.3501200">
        <ele>556.4</ele>
        <time>2021-08-19T07:30:03Z</time>
      </trkpt>
      <trkpt lat="45.2726620" lon="6.3500870">
        <ele>556.6</ele>
        <time>2021-08-19T07:30:04Z</time>
      </trkpt>
      <trkpt lat="45.2727100" lon="6.3500230">
        <ele>557.0</ele>
        <time>2021-08-19T07:30:06Z</time>
      </trkpt>
      <trkpt lat="45.2727830" lon="6.3499280">
        <ele>557.2</ele>
        <time>2021-08-19T07:30:09Z</time>
      </trkpt>
      <trkpt lat="45.2728380" lon="6.3498620">
        <ele>557.4</ele>
        <time>2021-08-19T07:30:11Z</time>
      </trkpt>
      <trkpt lat="45.2729280" lon="6.3497580">
        <ele>557.8</ele>
        <time>2021-08-19T07:30:14Z</time>
      </trkpt>
      <trkpt lat="45.2730270" lon="6.3496360">
        <ele>558.2</ele>
        <time>2021-08-19T07:30:18Z</time>
      </trkpt>
      <trkpt lat="45.2730550" lon="6.3496020">
        <ele>558.4</ele>
        <time>2021-08-19T07:30:19Z</time>
      </trkpt>
      <trkpt lat="45.2730850" lon="6.3495720">
        <ele>558.6</ele>
        <time>2021-08-19T07:30:20Z</time>
      </trkpt>
      <trkpt lat="45.2731960" lon="6.3494310">
        <ele>558.8</ele>
        <time>2021-08-19T07:30:24Z</time>
      </trkpt>
      <trkpt lat="45.2732270" lon="6.3493950">
        <ele>558.8</ele>
        <time>2021-08-19T07:30:25Z</time>
      </trkpt>
      <trkpt lat="45.2732570" lon="6.3493620">
        <ele>559.0</ele>
        <time>2021-08-19T07:30:26Z</time>
      </trkpt>
      <trkpt lat="45.2732790" lon="6.3493280">
        <ele>559.6</ele>
        <time>2021-08-19T07:30:27Z</time>
      </trkpt>
      <trkpt lat="45.2733310" lon="6.3492250">
        <ele>560.4</ele>
        <time>2021-08-19T07:30:30Z</time>
      </trkpt>
      <trkpt lat="45.2733530" lon="6.3492020">
        <ele>560.6</ele>
        <time>2021-08-19T07:30:31Z</time>
      </trkpt>
      <trkpt lat="45.2733840" lon="6.3491690">
        <ele>560.6</ele>
        <time>2021-08-19T07:30:32Z</time>
      </trkpt>
      <trkpt lat="45.2735010" lon="6.3490330">
        <ele>561.0</ele>
        <time>2021-08-19T07:30:36Z</time>
      </trkpt>
      <trkpt lat="45.2736840" lon="6.3488170">
        <ele>561.6</ele>
        <time>2021-08-19T07:30:42Z</time>
      </trkpt>
      <trkpt lat="45.2737760" lon="6.3487070">
        <ele>561.6</ele>
        <time>2021-08-19T07:30:45Z</time>
      </trkpt>
      <trkpt lat="45.2739320" lon="6.3485310">
        <ele>562.0</ele>
        <time>2021-08-19T07:30:50Z</time>
      </trkpt>
      <trkpt lat="45.2739910" lon="6.3484550">
        <ele>562.2</ele>
        <time>2021-08-19T07:30:52Z</time>
      </trkpt>
      <trkpt lat="45.2740500" lon="6.3483830">
        <ele>562.4</ele>
        <time>2021-08-19T07:30:54Z</time>
      </trkpt>
      <trkpt lat="45.2740710" lon="6.3483570">
        <ele>562.6</ele>
        <time>2021-08-19T07:30:55Z</time>
      </trkpt>
      <trkpt lat="45.2741590" lon="6.3482500">
        <ele>563.2</ele>
        <time>2021-08-19T07:30:58Z</time>
      </trkpt>
      <trkpt lat="45.2742370" lon="6.3481550">
        <ele>563.4</ele>
        <time>2021-08-19T07:31:01Z</time>
      </trkpt>
      <trkpt lat="45.2742660" lon="6.3481290">
        <ele>563.6</ele>
        <time>2021-08-19T07:31:02Z</time>
      </trkpt>
      <trkpt lat="45.2743190" lon="6.3480770">
        <ele>563.8</ele>
        <time>2021-08-19T07:31:04Z</time>
      </trkpt>
      <trkpt lat="45.2743700" lon="6.3480150">
        <ele>564.2</ele>
        <time>2021-08-19T07:31:06Z</time>
      </trkpt>
      <trkpt lat="45.2744230" lon="6.3479360">
        <ele>564.4</ele>
        <time>2021-08-19T07:31:09Z</time>
      </trkpt>
      <trkpt lat="45.2744300" lon="6.3479250">
        <ele>564.4</ele>
        <time>2021-08-19T07:31:10Z</time>
      </trkpt>
      <trkpt lat="45.2744360" lon="6.3479170">
        <ele>564.8</ele>
        <time>2021-08-19T07:31:12Z</time>
      </trkpt>
      <trkpt lat="45.2744350" lon="6.3479120">
        <ele>564.8</ele>
        <time>2021-08-19T07:31:13Z</time>
      </trkpt>
      <trkpt lat="45.2744640" lon="6.3478080">
        <ele>565.4</ele>
        <time>2021-08-19T07:31:24Z</time>
      </trkpt>
      <trkpt lat="45.2745530" lon="6.3477000">
        <ele>565.6</ele>
        <time>2021-08-19T07:31:30Z</time>
      </trkpt>
      <trkpt lat="45.2745760" lon="6.3476700">
        <ele>565.8</ele>
        <time>2021-08-19T07:31:34Z</time>
      </trkpt>
      <trkpt lat="45.2745790" lon="6.3476680">
        <ele>565.8</ele>
        <time>2021-08-19T07:31:35Z</time>
      </trkpt>
      <trkpt lat="45.2745420" lon="6.3475610">
        <ele>565.8</ele>
        <time>2021-08-19T07:31:40Z</time>
      </trkpt>
      <trkpt lat="45.2744350" lon="6.3473990">
        <ele>566.2</ele>
        <time>2021-08-19T07:31:47Z</time>
      </trkpt>
      <trkpt lat="45.2743790" lon="6.3473200">
        <ele>566.8</ele>
        <time>2021-08-19T07:31:50Z</time>
      </trkpt>
      <trkpt lat="45.2742920" lon="6.3471890">
        <ele>567.6</ele>
        <time>2021-08-19T07:31:55Z</time>
      </trkpt>
      <trkpt lat="45.2742550" lon="6.3471320">
        <ele>568.0</ele>
        <time>2021-08-19T07:31:57Z</time>
      </trkpt>
      <trkpt lat="45.2741260" lon="6.3469360">
        <ele>569.0</ele>
        <time>2021-08-19T07:32:04Z</time>
      </trkpt>
      <trkpt lat="45.2741050" lon="6.3469060">
        <ele>569.2</ele>
        <time>2021-08-19T07:32:05Z</time>
      </trkpt>
      <trkpt lat="45.2740360" lon="6.3467940">
        <ele>570.0</ele>
        <time>2021-08-19T07:32:09Z</time>
      </trkpt>
      <trkpt lat="45.2739620" lon="6.3466810">
        <ele>570.8</ele>
        <time>2021-08-19T07:32:13Z</time>
      </trkpt>
      <trkpt lat="45.2739240" lon="6.3466280">
        <ele>571.2</ele>
        <time>2021-08-19T07:32:15Z</time>
      </trkpt>
      <trkpt lat="45.2738640" lon="6.3465160">
        <ele>572.4</ele>
        <time>2021-08-19T07:32:19Z</time>
      </trkpt>
      <trkpt lat="45.2738350" lon="6.3464660">
        <ele>572.8</ele>
        <time>2021-08-19T07:32:21Z</time>
      </trkpt>
      <trkpt lat="45.2737940" lon="6.3463940">
        <ele>573.4</ele>
        <time>2021-08-19T07:32:24Z</time>
      </trkpt>
      <trkpt lat="45.2737600" lon="6.3463470">
        <ele>573.6</ele>
        <time>2021-08-19T07:32:26Z</time>
      </trkpt>
      <trkpt lat="45.2736980" lon="6.3462570">
        <ele>574.4</ele>
        <time>2021-08-19T07:32:30Z</time>
      </trkpt>
      <trkpt lat="45.2736440" lon="6.3461730">
        <ele>575.0</ele>
        <time>2021-08-19T07:32:34Z</time>
      </trkpt>
      <trkpt lat="45.2736150" lon="6.3461270">
        <ele>575.4</ele>
        <time>2021-08-19T07:32:37Z</time>
      </trkpt>
      <trkpt lat="45.2736130" lon="6.3461220">
        <ele>575.6</ele>
        <time>2021-08-19T07:32:38Z</time>
      </trkpt>
      <trkpt lat="45.2736310" lon="6.3461410">
        <ele>576.6</ele>
        <time>2021-08-19T07:36:53Z</time>
      </trkpt>
      <trkpt lat="45.2736450" lon="6.3461760">
        <ele>576.4</ele>
        <time>2021-08-19T07:36:54Z</time>
      </trkpt>
      <trkpt lat="45.2737310" lon="6.3463280">
        <ele>576.4</ele>
        <time>2021-08-19T07:36:57Z</time>
      </trkpt>
      <trkpt lat="45.2738460" lon="6.3465350">
        <ele>575.6</ele>
        <time>2021-08-19T07:37:01Z</time>
      </trkpt>
      <trkpt lat="45.2739080" lon="6.3466340">
        <ele>575.2</ele>
        <time>2021-08-19T07:37:03Z</time>
      </trkpt>
      <trkpt lat="45.2740780" lon="6.3468910">
        <ele>574.2</ele>
        <time>2021-08-19T07:37:07Z</time>
      </trkpt>
      <trkpt lat="45.2741180" lon="6.3469480">
        <ele>574.0</ele>
        <time>2021-08-19T07:37:08Z</time>
      </trkpt>
      <trkpt lat="45.2741640" lon="6.3470150">
        <ele>573.6</ele>
        <time>2021-08-19T07:37:09Z</time>
      </trkpt>
      <trkpt lat="45.2742500" lon="6.3471560">
        <ele>572.6</ele>
        <time>2021-08-19T07:37:11Z</time>
      </trkpt>
      <trkpt lat="45.2743390" lon="6.3472940">
        <ele>571.8</ele>
        <time>2021-08-19T07:37:13Z</time>
      </trkpt>
      <trkpt lat="45.2743700" lon="6.3473370">
        <ele>571.4</ele>
        <time>2021-08-19T07:37:14Z</time>
      </trkpt>
      <trkpt lat="45.2744110" lon="6.3473960">
        <ele>571.4</ele>
        <time>2021-08-19T07:37:15Z</time>
      </trkpt>
      <trkpt lat="45.2744710" lon="6.3474820">
        <ele>570.4</ele>
        <time>2021-08-19T07:37:17Z</time>
      </trkpt>
      <trkpt lat="45.2745160" lon="6.3475410">
        <ele>569.6</ele>
        <time>2021-08-19T07:37:19Z</time>
      </trkpt>
      <trkpt lat="45.2745330" lon="6.3475620">
        <ele>569.2</ele>
        <time>2021-08-19T07:37:20Z</time>
      </trkpt>
      <trkpt lat="45.2745420" lon="6.3475760">
        <ele>568.4</ele>
        <time>2021-08-19T07:37:22Z</time>
      </trkpt>
      <trkpt lat="45.2745420" lon="6.3475760">
        <ele>568.2</ele>
        <time>2021-08-19T07:37:23Z</time>
      </trkpt>
      <trkpt lat="45.2745650" lon="6.3476140">
        <ele>567.0</ele>
        <time>2021-08-19T07:37:43Z</time>
      </trkpt>
      <trkpt lat="45.2746020" lon="6.3476850">
        <ele>566.8</ele>
        <time>2021-08-19T07:37:45Z</time>
      </trkpt>
      <trkpt lat="45.2747910" lon="6.3479700">
        <ele>566.4</ele>
        <time>2021-08-19T07:37:51Z</time>
      </trkpt>
      <trkpt lat="45.2749370" lon="6.3481700">
        <ele>566.2</ele>
        <time>2021-08-19T07:37:55Z</time>
      </trkpt>
      <trkpt lat="45.2749840" lon="6.3482200">
        <ele>566.0</ele>
        <time>2021-08-19T07:37:56Z</time>
      </trkpt>
      <trkpt lat="45.2750390" lon="6.3482680">
        <ele>566.0</ele>
        <time>2021-08-19T07:37:57Z</time>
      </trkpt>
      <trkpt lat="45.2751540" lon="6.3483560">
        <ele>565.8</ele>
        <time>2021-08-19T07:37:59Z</time>
      </trkpt>
      <trkpt lat="45.2752780" lon="6.3484420">
        <ele>565.6</ele>
        <time>2021-08-19T07:38:01Z</time>
      </trkpt>
      <trkpt lat="45.2754410" lon="6.3485490">
        <ele>564.8</ele>
        <time>2021-08-19T07:38:04Z</time>
      </trkpt>
      <trkpt lat="45.2755430" lon="6.3486140">
        <ele>563.4</ele>
        <time>2021-08-19T07:38:06Z</time>
      </trkpt>
      <trkpt lat="45.2756420" lon="6.3486840">
        <ele>562.6</ele>
        <time>2021-08-19T07:38:08Z</time>
      </trkpt>
      <trkpt lat="45.2756940" lon="6.3487150">
        <ele>562.2</ele>
        <time>2021-08-19T07:38:09Z</time>
      </trkpt>
      <trkpt lat="45.2758080" lon="6.3487870">
        <ele>561.2</ele>
        <time>2021-08-19T07:38:11Z</time>
      </trkpt>
      <trkpt lat="45.2758660" lon="6.3488220">
        <ele>560.8</ele>
        <time>2021-08-19T07:38:12Z</time>
      </trkpt>
      <trkpt lat="45.2759870" lon="6.3488980">
        <ele>560.0</ele>
        <time>2021-08-19T07:38:14Z</time>
      </trkpt>
      <trkpt lat="45.2760410" lon="6.3489360">
        <ele>559.2</ele>
        <time>2021-08-19T07:38:15Z</time>
      </trkpt>
      <trkpt lat="45.2761040" lon="6.3489820">
        <ele>558.6</ele>
        <time>2021-08-19T07:38:16Z</time>
      </trkpt>
      <trkpt lat="45.2761590" lon="6.3490170">
        <ele>557.8</ele>
        <time>2021-08-19T07:38:17Z</time>
      </trkpt>
      <trkpt lat="45.2762030" lon="6.3490490">
        <ele>557.6</ele>
        <time>2021-08-19T07:38:18Z</time>
      </trkpt>
      <trkpt lat="45.2762580" lon="6.3490840">
        <ele>556.8</ele>
        <time>2021-08-19T07:38:19Z</time>
      </trkpt>
      <trkpt lat="45.2763130" lon="6.3491160">
        <ele>556.4</ele>
        <time>2021-08-19T07:38:20Z</time>
      </trkpt>
      <trkpt lat="45.2764820" lon="6.3492100">
        <ele>555.2</ele>
        <time>2021-08-19T07:38:23Z</time>
      </trkpt>
      <trkpt lat="45.2765370" lon="6.3492430">
        <ele>554.8</ele>
        <time>2021-08-19T07:38:24Z</time>
      </trkpt>
      <trkpt lat="45.2765930" lon="6.3492790">
        <ele>554.6</ele>
        <time>2021-08-19T07:38:25Z</time>
      </trkpt>
      <trkpt lat="45.2766470" lon="6.3493150">
        <ele>554.0</ele>
        <time>2021-08-19T07:38:26Z</time>
      </trkpt>
      <trkpt lat="45.2767030" lon="6.3493500">
        <ele>553.4</ele>
        <time>2021-08-19T07:38:27Z</time>
      </trkpt>
      <trkpt lat="45.2768200" lon="6.3494170">
        <ele>552.8</ele>
        <time>2021-08-19T07:38:29Z</time>
      </trkpt>
      <trkpt lat="45.2769210" lon="6.3494870">
        <ele>552.2</ele>
        <time>2021-08-19T07:38:31Z</time>
      </trkpt>
      <trkpt lat="45.2769630" lon="6.3495220">
        <ele>552.0</ele>
        <time>2021-08-19T07:38:32Z</time>
      </trkpt>
      <trkpt lat="45.2769980" lon="6.3495450">
        <ele>551.6</ele>
        <time>2021-08-19T07:38:33Z</time>
      </trkpt>
      <trkpt lat="45.2770540" lon="6.3495430">
        <ele>551.2</ele>
        <time>2021-08-19T07:38:35Z</time>
      </trkpt>
      <trkpt lat="45.2770830" lon="6.3494980">
        <ele>550.4</ele>
        <time>2021-08-19T07:38:37Z</time>
      </trkpt>
      <trkpt lat="45.2771250" lon="6.3494100">
        <ele>549.6</ele>
        <time>2021-08-19T07:38:40Z</time>
      </trkpt>
      <trkpt lat="45.2771430" lon="6.3493940">
        <ele>549.6</ele>
        <time>2021-08-19T07:38:41Z</time>
      </trkpt>
      <trkpt lat="45.2771580" lon="6.3493960">
        <ele>549.6</ele>
        <time>2021-08-19T07:38:42Z</time>
      </trkpt>
      <trkpt lat="45.2771680" lon="6.3493970">
        <ele>549.6</ele>
        <time>2021-08-19T07:38:43Z</time>
      </trkpt>
      <trkpt lat="45.2771750" lon="6.3493870">
        <ele>549.4</ele>
        <time>2021-08-19T07:38:44Z</time>
      </trkpt>
      <trkpt lat="45.2771810" lon="6.3493440">
        <ele>549.6</ele>
        <time>2021-08-19T07:38:46Z</time>
      </trkpt>
      <trkpt lat="45.2772190" lon="6.3491510">
        <ele>550.0</ele>
        <time>2021-08-19T07:38:52Z</time>
      </trkpt>
      <trkpt lat="45.2772340" lon="6.3489460">
        <ele>550.8</ele>
        <time>2021-08-19T07:38:58Z</time>
      </trkpt>
      <trkpt lat="45.2772220" lon="6.3487640">
        <ele>551.4</ele>
        <time>2021-08-19T07:39:03Z</time>
      </trkpt>
      <trkpt lat="45.2772270" lon="6.3487230">
        <ele>551.6</ele>
        <time>2021-08-19T07:39:04Z</time>
      </trkpt>
      <trkpt lat="45.2772680" lon="6.3484880">
        <ele>552.8</ele>
        <time>2021-08-19T07:39:10Z</time>
      </trkpt>
      <trkpt lat="45.2772770" lon="6.3484500">
        <ele>552.8</ele>
        <time>2021-08-19T07:39:11Z</time>
      </trkpt>
      <trkpt lat="45.2773430" lon="6.3482330">
        <ele>553.4</ele>
        <time>2021-08-19T07:39:18Z</time>
      </trkpt>
      <trkpt lat="45.2773490" lon="6.3482110">
        <ele>553.6</ele>
        <time>2021-08-19T07:39:19Z</time>
      </trkpt>
      <trkpt lat="45.2773500" lon="6.3481850">
        <ele>553.8</ele>
        <time>2021-08-19T07:39:21Z</time>
      </trkpt>
      <trkpt lat="45.2773520" lon="6.3481710">
        <ele>554.0</ele>
        <time>2021-08-19T07:39:22Z</time>
      </trkpt>
      <trkpt lat="45.2773790" lon="6.3480340">
        <ele>554.6</ele>
        <time>2021-08-19T07:39:27Z</time>
      </trkpt>
      <trkpt lat="45.2773880" lon="6.3479480">
        <ele>555.0</ele>
        <time>2021-08-19T07:39:30Z</time>
      </trkpt>
      <trkpt lat="45.2774090" lon="6.3477600">
        <ele>555.6</ele>
        <time>2021-08-19T07:39:36Z</time>
      </trkpt>
      <trkpt lat="45.2774330" lon="6.3477220">
        <ele>555.6</ele>
        <time>2021-08-19T07:39:38Z</time>
      </trkpt>
      <trkpt lat="45.2774480" lon="6.3477040">
        <ele>555.8</ele>
        <time>2021-08-19T07:39:39Z</time>
      </trkpt>
      <trkpt lat="45.2774630" lon="6.3476920">
        <ele>556.0</ele>
        <time>2021-08-19T07:39:40Z</time>
      </trkpt>
      <trkpt lat="45.2774770" lon="6.3476820">
        <ele>556.2</ele>
        <time>2021-08-19T07:39:41Z</time>
      </trkpt>
      <trkpt lat="45.2775560" lon="6.3476270">
        <ele>557.0</ele>
        <time>2021-08-19T07:39:46Z</time>
      </trkpt>
      <trkpt lat="45.2775560" lon="6.3476270">
        <ele>557.0</ele>
        <time>2021-08-19T07:39:47Z</time>
      </trkpt>
      <trkpt lat="45.2775600" lon="6.3476250">
        <ele>557.0</ele>
        <time>2021-08-19T07:39:48Z</time>
      </trkpt>
      <trkpt lat="45.2777500" lon="6.3475350">
        <ele>556.8</ele>
        <time>2021-08-19T07:40:13Z</time>
      </trkpt>
      <trkpt lat="45.2777680" lon="6.3475170">
        <ele>556.8</ele>
        <time>2021-08-19T07:40:14Z</time>
      </trkpt>
      <trkpt lat="45.2777960" lon="6.3474970">
        <ele>556.8</ele>
        <time>2021-08-19T07:40:15Z</time>
      </trkpt>
      <trkpt lat="45.2779520" lon="6.3474050">
        <ele>556.8</ele>
        <time>2021-08-19T07:40:20Z</time>
      </trkpt>
      <trkpt lat="45.2782480" lon="6.3472680">
        <ele>556.2</ele>
        <time>2021-08-19T07:40:27Z</time>
      </trkpt>
      <trkpt lat="45.2782960" lon="6.3472420">
        <ele>556.0</ele>
        <time>2021-08-19T07:40:28Z</time>
      </trkpt>
      <trkpt lat="45.2784030" lon="6.3471830">
        <ele>555.6</ele>
        <time>2021-08-19T07:40:30Z</time>
      </trkpt>
      <trkpt lat="45.2785490" lon="6.3471270">
        <ele>555.0</ele>
        <time>2021-08-19T07:40:33Z</time>
      </trkpt>
      <trkpt lat="45.2786730" lon="6.3471450">
        <ele>554.8</ele>
        <time>2021-08-19T07:40:35Z</time>
      </trkpt>
      <trkpt lat="45.2787730" lon="6.3472060">
        <ele>554.4</ele>
        <time>2021-08-19T07:40:37Z</time>
      </trkpt>
      <trkpt lat="45.2788820" lon="6.3472730">
        <ele>553.8</ele>
        <time>2021-08-19T07:40:39Z</time>
      </trkpt>
      <trkpt lat="45.2790100" lon="6.3473480">
        <ele>553.0</ele>
        <time>2021-08-19T07:40:42Z</time>
      </trkpt>
      <trkpt lat="45.2790600" lon="6.3473680">
        <ele>553.0</ele>
        <time>2021-08-19T07:40:43Z</time>
      </trkpt>
      <trkpt lat="45.2791120" lon="6.3473710">
        <ele>552.6</ele>
        <time>2021-08-19T07:40:44Z</time>
      </trkpt>
      <trkpt lat="45.2791620" lon="6.3473460">
        <ele>552.4</ele>
        <time>2021-08-19T07:40:45Z</time>
      </trkpt>
      <trkpt lat="45.2791980" lon="6.3472950">
        <ele>552.2</ele>
        <time>2021-08-19T07:40:46Z</time>
      </trkpt>
      <trkpt lat="45.2792170" lon="6.3472280">
        <ele>551.8</ele>
        <time>2021-08-19T07:40:47Z</time>
      </trkpt>
      <trkpt lat="45.2792200" lon="6.3470920">
        <ele>551.4</ele>
        <time>2021-08-19T07:40:49Z</time>
      </trkpt>
      <trkpt lat="45.2792200" lon="6.3470340">
        <ele>551.4</ele>
        <time>2021-08-19T07:40:50Z</time>
      </trkpt>
      <trkpt lat="45.2792560" lon="6.3468910">
        <ele>551.2</ele>
        <time>2021-08-19T07:40:53Z</time>
      </trkpt>
      <trkpt lat="45.2792830" lon="6.3467540">
        <ele>551.2</ele>
        <time>2021-08-19T07:40:58Z</time>
      </trkpt>
      <trkpt lat="45.2793240" lon="6.3465800">
        <ele>551.8</ele>
        <time>2021-08-19T07:41:04Z</time>
      </trkpt>
      <trkpt lat="45.2794090" lon="6.3462590">
        <ele>552.4</ele>
        <time>2021-08-19T07:41:11Z</time>
      </trkpt>
      <trkpt lat="45.2794340" lon="6.3461650">
        <ele>552.4</ele>
        <time>2021-08-19T07:41:13Z</time>
      </trkpt>
      <trkpt lat="45.2794680" lon="6.3460060">
        <ele>552.6</ele>
        <time>2021-08-19T07:41:16Z</time>
      </trkpt>
      <trkpt lat="45.2794790" lon="6.3459640">
        <ele>552.8</ele>
        <time>2021-08-19T07:41:17Z</time>
      </trkpt>
      <trkpt lat="45.2794950" lon="6.3459130">
        <ele>552.8</ele>
        <time>2021-08-19T07:41:18Z</time>
      </trkpt>
      <trkpt lat="45.2795170" lon="6.3458680">
        <ele>553.0</ele>
        <time>2021-08-19T07:41:19Z</time>
      </trkpt>
      <trkpt lat="45.2796480" lon="6.3457390">
        <ele>553.2</ele>
        <time>2021-08-19T07:41:23Z</time>
      </trkpt>
      <trkpt lat="45.2796850" lon="6.3457470">
        <ele>553.4</ele>
        <time>2021-08-19T07:41:24Z</time>
      </trkpt>
      <trkpt lat="45.2797240" lon="6.3457740">
        <ele>553.6</ele>
        <time>2021-08-19T07:41:25Z</time>
      </trkpt>
      <trkpt lat="45.2798000" lon="6.3458520">
        <ele>553.6</ele>
        <time>2021-08-19T07:41:27Z</time>
      </trkpt>
      <trkpt lat="45.2798380" lon="6.3458880">
        <ele>553.6</ele>
        <time>2021-08-19T07:41:28Z</time>
      </trkpt>
      <trkpt lat="45.2799270" lon="6.3459580">
        <ele>553.6</ele>
        <time>2021-08-19T07:41:30Z</time>
      </trkpt>
      <trkpt lat="45.2799760" lon="6.3459970">
        <ele>553.6</ele>
        <time>2021-08-19T07:41:31Z</time>
      </trkpt>
      <trkpt lat="45.2800740" lon="6.3460860">
        <ele>553.6</ele>
        <time>2021-08-19T07:41:33Z</time>
      </trkpt>
      <trkpt lat="45.2801240" lon="6.3461400">
        <ele>553.4</ele>
        <time>2021-08-19T07:41:34Z</time>
      </trkpt>
      <trkpt lat="45.2801790" lon="6.3461940">
        <ele>553.4</ele>
        <time>2021-08-19T07:41:35Z</time>
      </trkpt>
      <trkpt lat="45.2802920" lon="6.3463020">
        <ele>553.0</ele>
        <time>2021-08-19T07:41:37Z</time>
      </trkpt>
      <trkpt lat="45.2804820" lon="6.3464760">
        <ele>552.2</ele>
        <time>2021-08-19T07:41:40Z</time>
      </trkpt>
      <trkpt lat="45.2806650" lon="6.3466490">
        <ele>550.8</ele>
        <time>2021-08-19T07:41:43Z</time>
      </trkpt>
      <trkpt lat="45.2809400" lon="6.3469250">
        <ele>549.2</ele>
        <time>2021-08-19T07:41:47Z</time>
      </trkpt>
      <trkpt lat="45.2811560" lon="6.3471450">
        <ele>547.6</ele>
        <time>2021-08-19T07:41:50Z</time>
      </trkpt>
      <trkpt lat="45.2813890" lon="6.3473650">
        <ele>546.6</ele>
        <time>2021-08-19T07:41:53Z</time>
      </trkpt>
      <trkpt lat="45.2816150" lon="6.3475840">
        <ele>545.2</ele>
        <time>2021-08-19T07:41:56Z</time>
      </trkpt>
      <trkpt lat="45.2818560" lon="6.3478100">
        <ele>544.0</ele>
        <time>2021-08-19T07:41:59Z</time>
      </trkpt>
      <trkpt lat="45.2819310" lon="6.3478880">
        <ele>543.2</ele>
        <time>2021-08-19T07:42:00Z</time>
      </trkpt>
      <trkpt lat="45.2819900" lon="6.3479520">
        <ele>542.8</ele>
        <time>2021-08-19T07:42:01Z</time>
      </trkpt>
      <trkpt lat="45.2822190" lon="6.3481820">
        <ele>541.6</ele>
        <time>2021-08-19T07:42:04Z</time>
      </trkpt>
      <trkpt lat="45.2824530" lon="6.3484060">
        <ele>540.2</ele>
        <time>2021-08-19T07:42:07Z</time>
      </trkpt>
      <trkpt lat="45.2826940" lon="6.3486360">
        <ele>539.2</ele>
        <time>2021-08-19T07:42:10Z</time>
      </trkpt>
      <trkpt lat="45.2828520" lon="6.3487910">
        <ele>538.0</ele>
        <time>2021-08-19T07:42:12Z</time>
      </trkpt>
      <trkpt lat="45.2830290" lon="6.3489660">
        <ele>537.0</ele>
        <time>2021-08-19T07:42:14Z</time>
      </trkpt>
      <trkpt lat="45.2831100" lon="6.3490490">
        <ele>536.6</ele>
        <time>2021-08-19T07:42:15Z</time>
      </trkpt>
      <trkpt lat="45.2831730" lon="6.3491120">
        <ele>536.0</ele>
        <time>2021-08-19T07:42:16Z</time>
      </trkpt>
      <trkpt lat="45.2832540" lon="6.3491920">
        <ele>535.8</ele>
        <time>2021-08-19T07:42:17Z</time>
      </trkpt>
      <trkpt lat="45.2834270" lon="6.3493630">
        <ele>534.2</ele>
        <time>2021-08-19T07:42:19Z</time>
      </trkpt>
      <trkpt lat="45.2836620" lon="6.3495860">
        <ele>533.0</ele>
        <time>2021-08-19T07:42:22Z</time>
      </trkpt>
      <trkpt lat="45.2837360" lon="6.3496590">
        <ele>532.4</ele>
        <time>2021-08-19T07:42:23Z</time>
      </trkpt>
      <trkpt lat="45.2838820" lon="6.3498000">
        <ele>531.4</ele>
        <time>2021-08-19T07:42:25Z</time>
      </trkpt>
      <trkpt lat="45.2840900" lon="6.3500120">
        <ele>530.2</ele>
        <time>2021-08-19T07:42:28Z</time>
      </trkpt>
      <trkpt lat="45.2841610" lon="6.3500800">
        <ele>530.0</ele>
        <time>2021-08-19T07:42:29Z</time>
      </trkpt>
      <trkpt lat="45.2843540" lon="6.3502640">
        <ele>528.8</ele>
        <time>2021-08-19T07:42:32Z</time>
      </trkpt>
      <trkpt lat="45.2845660" lon="6.3504700">
        <ele>528.0</ele>
        <time>2021-08-19T07:42:35Z</time>
      </trkpt>
      <trkpt lat="45.2846190" lon="6.3505230">
        <ele>527.6</ele>
        <time>2021-08-19T07:42:36Z</time>
      </trkpt>
      <trkpt lat="45.2849390" lon="6.3508440">
        <ele>526.4</ele>
        <time>2021-08-19T07:42:41Z</time>
      </trkpt>
      <trkpt lat="45.2850840" lon="6.3509850">
        <ele>526.0</ele>
        <time>2021-08-19T07:42:43Z</time>
      </trkpt>
      <trkpt lat="45.2852000" lon="6.3511000">
        <ele>525.4</ele>
        <time>2021-08-19T07:42:45Z</time>
      </trkpt>
      <trkpt lat="45.2854700" lon="6.3513620">
        <ele>524.6</ele>
        <time>2021-08-19T07:42:49Z</time>
      </trkpt>
      <trkpt lat="45.2855210" lon="6.3514110">
        <ele>524.4</ele>
        <time>2021-08-19T07:42:50Z</time>
      </trkpt>
      <trkpt lat="45.2855950" lon="6.3514830">
        <ele>524.4</ele>
        <time>2021-08-19T07:42:51Z</time>
      </trkpt>
      <trkpt lat="45.2856560" lon="6.3515440">
        <ele>524.4</ele>
        <time>2021-08-19T07:42:52Z</time>
      </trkpt>
      <trkpt lat="45.2857170" lon="6.3516050">
        <ele>524.4</ele>
        <time>2021-08-19T07:42:53Z</time>
      </trkpt>
      <trkpt lat="45.2858400" lon="6.3517250">
        <ele>524.2</ele>
        <time>2021-08-19T07:42:55Z</time>
      </trkpt>
      <trkpt lat="45.2860770" lon="6.3519620">
        <ele>524.2</ele>
        <time>2021-08-19T07:42:59Z</time>
      </trkpt>
      <trkpt lat="45.2861230" lon="6.3520050">
        <ele>524.2</ele>
        <time>2021-08-19T07:43:00Z</time>
      </trkpt>
      <trkpt lat="45.2863050" lon="6.3521860">
        <ele>524.0</ele>
        <time>2021-08-19T07:43:03Z</time>
      </trkpt>
      <trkpt lat="45.2864030" lon="6.3522820">
        <ele>523.8</ele>
        <time>2021-08-19T07:43:05Z</time>
      </trkpt>
      <trkpt lat="45.2864560" lon="6.3523350">
        <ele>523.6</ele>
        <time>2021-08-19T07:43:06Z</time>
      </trkpt>
      <trkpt lat="45.2865750" lon="6.3524530">
        <ele>523.4</ele>
        <time>2021-08-19T07:43:08Z</time>
      </trkpt>
      <trkpt lat="45.2868320" lon="6.3527010">
        <ele>523.4</ele>
        <time>2021-08-19T07:43:13Z</time>
      </trkpt>
      <trkpt lat="45.2868910" lon="6.3527510">
        <ele>523.2</ele>
        <time>2021-08-19T07:43:14Z</time>
      </trkpt>
      <trkpt lat="45.2870710" lon="6.3528870">
        <ele>523.4</ele>
        <time>2021-08-19T07:43:17Z</time>
      </trkpt>
      <trkpt lat="45.2872070" lon="6.3529450">
        <ele>523.4</ele>
        <time>2021-08-19T07:43:19Z</time>
      </trkpt>
      <trkpt lat="45.2876300" lon="6.3529950">
        <ele>523.2</ele>
        <time>2021-08-19T07:43:25Z</time>
      </trkpt>
      <trkpt lat="45.2880670" lon="6.3529940">
        <ele>523.0</ele>
        <time>2021-08-19T07:43:31Z</time>
      </trkpt>
      <trkpt lat="45.2882130" lon="6.3529950">
        <ele>522.8</ele>
        <time>2021-08-19T07:43:33Z</time>
      </trkpt>
      <trkpt lat="45.2885240" lon="6.3530030">
        <ele>522.8</ele>
        <time>2021-08-19T07:43:37Z</time>
      </trkpt>
      <trkpt lat="45.2887300" lon="6.3530200">
        <ele>522.6</ele>
        <time>2021-08-19T07:43:40Z</time>
      </trkpt>
      <trkpt lat="45.2888950" lon="6.3530280">
        <ele>522.4</ele>
        <time>2021-08-19T07:43:42Z</time>
      </trkpt>
      <trkpt lat="45.2890230" lon="6.3530260">
        <ele>522.4</ele>
        <time>2021-08-19T07:43:44Z</time>
      </trkpt>
      <trkpt lat="45.2892590" lon="6.3530260">
        <ele>522.4</ele>
        <time>2021-08-19T07:43:47Z</time>
      </trkpt>
      <trkpt lat="45.2893310" lon="6.3530300">
        <ele>522.2</ele>
        <time>2021-08-19T07:43:48Z</time>
      </trkpt>
      <trkpt lat="45.2895310" lon="6.3530380">
        <ele>522.0</ele>
        <time>2021-08-19T07:43:51Z</time>
      </trkpt>
      <trkpt lat="45.2896000" lon="6.3530430">
        <ele>521.8</ele>
        <time>2021-08-19T07:43:52Z</time>
      </trkpt>
      <trkpt lat="45.2896730" lon="6.3530480">
        <ele>521.8</ele>
        <time>2021-08-19T07:43:53Z</time>
      </trkpt>
      <trkpt lat="45.2897440" lon="6.3530580">
        <ele>521.8</ele>
        <time>2021-08-19T07:43:54Z</time>
      </trkpt>
      <trkpt lat="45.2897990" lon="6.3530630">
        <ele>521.8</ele>
        <time>2021-08-19T07:43:55Z</time>
      </trkpt>
      <trkpt lat="45.2898660" lon="6.3530670">
        <ele>521.8</ele>
        <time>2021-08-19T07:43:56Z</time>
      </trkpt>
      <trkpt lat="45.2899500" lon="6.3530690">
        <ele>521.8</ele>
        <time>2021-08-19T07:43:57Z</time>
      </trkpt>
      <trkpt lat="45.2900200" lon="6.3530720">
        <ele>521.8</ele>
        <time>2021-08-19T07:43:58Z</time>
      </trkpt>
      <trkpt lat="45.2900900" lon="6.3530750">
        <ele>521.6</ele>
        <time>2021-08-19T07:43:59Z</time>
      </trkpt>
      <trkpt lat="45.2901600" lon="6.3530810">
        <ele>521.6</ele>
        <time>2021-08-19T07:44:00Z</time>
      </trkpt>
      <trkpt lat="45.2902150" lon="6.3530830">
        <ele>521.6</ele>
        <time>2021-08-19T07:44:01Z</time>
      </trkpt>
      <trkpt lat="45.2905030" lon="6.3530990">
        <ele>521.2</ele>
        <time>2021-08-19T07:44:05Z</time>
      </trkpt>
      <trkpt lat="45.2906390" lon="6.3530970">
        <ele>521.2</ele>
        <time>2021-08-19T07:44:07Z</time>
      </trkpt>
      <trkpt lat="45.2906930" lon="6.3531040">
        <ele>521.2</ele>
        <time>2021-08-19T07:44:08Z</time>
      </trkpt>
      <trkpt lat="45.2907620" lon="6.3531070">
        <ele>521.0</ele>
        <time>2021-08-19T07:44:09Z</time>
      </trkpt>
      <trkpt lat="45.2908320" lon="6.3531080">
        <ele>521.0</ele>
        <time>2021-08-19T07:44:10Z</time>
      </trkpt>
      <trkpt lat="45.2909840" lon="6.3531090">
        <ele>521.0</ele>
        <time>2021-08-19T07:44:12Z</time>
      </trkpt>
      <trkpt lat="45.2912550" lon="6.3531180">
        <ele>521.2</ele>
        <time>2021-08-19T07:44:16Z</time>
      </trkpt>
      <trkpt lat="45.2913130" lon="6.3531150">
        <ele>521.2</ele>
        <time>2021-08-19T07:44:17Z</time>
      </trkpt>
      <trkpt lat="45.2914640" lon="6.3531070">
        <ele>521.2</ele>
        <time>2021-08-19T07:44:19Z</time>
      </trkpt>
      <trkpt lat="45.2916900" lon="6.3530670">
        <ele>521.2</ele>
        <time>2021-08-19T07:44:23Z</time>
      </trkpt>
      <trkpt lat="45.2917990" lon="6.3530220">
        <ele>521.0</ele>
        <time>2021-08-19T07:44:27Z</time>
      </trkpt>
      <trkpt lat="45.2917990" lon="6.3530220">
        <ele>520.6</ele>
        <time>2021-08-19T07:44:29Z</time>
      </trkpt>
      <trkpt lat="45.2918370" lon="6.3529850">
        <ele>520.4</ele>
        <time>2021-08-19T07:48:54Z</time>
      </trkpt>
      <trkpt lat="45.2918610" lon="6.3529660">
        <ele>520.4</ele>
        <time>2021-08-19T07:48:55Z</time>
      </trkpt>
      <trkpt lat="45.2919940" lon="6.3528670">
        <ele>520.2</ele>
        <time>2021-08-19T07:48:59Z</time>
      </trkpt>
      <trkpt lat="45.2921700" lon="6.3527480">
        <ele>519.8</ele>
        <time>2021-08-19T07:49:03Z</time>
      </trkpt>
      <trkpt lat="45.2922750" lon="6.3526760">
        <ele>519.8</ele>
        <time>2021-08-19T07:49:05Z</time>
      </trkpt>
      <trkpt lat="45.2924190" lon="6.3525890">
        <ele>519.8</ele>
        <time>2021-08-19T07:49:08Z</time>
      </trkpt>
      <trkpt lat="45.2924810" lon="6.3525470">
        <ele>519.6</ele>
        <time>2021-08-19T07:49:09Z</time>
      </trkpt>
      <trkpt lat="45.2925330" lon="6.3525120">
        <ele>519.6</ele>
        <time>2021-08-19T07:49:10Z</time>
      </trkpt>
      <trkpt lat="45.2925830" lon="6.3524790">
        <ele>519.6</ele>
        <time>2021-08-19T07:49:11Z</time>
      </trkpt>
      <trkpt lat="45.2926370" lon="6.3524450">
        <ele>519.6</ele>
        <time>2021-08-19T07:49:12Z</time>
      </trkpt>
      <trkpt lat="45.2926900" lon="6.3524120">
        <ele>519.4</ele>
        <time>2021-08-19T07:49:13Z</time>
      </trkpt>
      <trkpt lat="45.2927450" lon="6.3523830">
        <ele>519.4</ele>
        <time>2021-08-19T07:49:14Z</time>
      </trkpt>
      <trkpt lat="45.2928030" lon="6.3523600">
        <ele>519.2</ele>
        <time>2021-08-19T07:49:15Z</time>
      </trkpt>
      <trkpt lat="45.2928630" lon="6.3523420">
        <ele>519.2</ele>
        <time>2021-08-19T07:49:16Z</time>
      </trkpt>
      <trkpt lat="45.2929220" lon="6.3523340">
        <ele>519.0</ele>
        <time>2021-08-19T07:49:17Z</time>
      </trkpt>
      <trkpt lat="45.2931640" lon="6.3523450">
        <ele>518.8</ele>
        <time>2021-08-19T07:49:21Z</time>
      </trkpt>
      <trkpt lat="45.2932700" lon="6.3523830">
        <ele>518.8</ele>
        <time>2021-08-19T07:49:23Z</time>
      </trkpt>
      <trkpt lat="45.2933290" lon="6.3524100">
        <ele>518.8</ele>
        <time>2021-08-19T07:49:24Z</time>
      </trkpt>
      <trkpt lat="45.2934900" lon="6.3525180">
        <ele>518.6</ele>
        <time>2021-08-19T07:49:27Z</time>
      </trkpt>
      <trkpt lat="45.2935370" lon="6.3525630">
        <ele>518.6</ele>
        <time>2021-08-19T07:49:28Z</time>
      </trkpt>
      <trkpt lat="45.2936720" lon="6.3527340">
        <ele>518.6</ele>
        <time>2021-08-19T07:49:31Z</time>
      </trkpt>
      <trkpt lat="45.2937350" lon="6.3528490">
        <ele>518.6</ele>
        <time>2021-08-19T07:49:33Z</time>
      </trkpt>
      <trkpt lat="45.2937720" lon="6.3529300">
        <ele>518.6</ele>
        <time>2021-08-19T07:49:34Z</time>
      </trkpt>
      <trkpt lat="45.2938230" lon="6.3530510">
        <ele>519.0</ele>
        <time>2021-08-19T07:49:36Z</time>
      </trkpt>
      <trkpt lat="45.2938670" lon="6.3532080">
        <ele>519.2</ele>
        <time>2021-08-19T07:49:38Z</time>
      </trkpt>
      <trkpt lat="45.2938940" lon="6.3533340">
        <ele>519.6</ele>
        <time>2021-08-19T07:49:40Z</time>
      </trkpt>
      <trkpt lat="45.2939220" lon="6.3534720">
        <ele>519.8</ele>
        <time>2021-08-19T07:49:42Z</time>
      </trkpt>
      <trkpt lat="45.2939590" lon="6.3536710">
        <ele>520.2</ele>
        <time>2021-08-19T07:49:45Z</time>
      </trkpt>
      <trkpt lat="45.2939810" lon="6.3538010">
        <ele>520.4</ele>
        <time>2021-08-19T07:49:47Z</time>
      </trkpt>
      <trkpt lat="45.2939920" lon="6.3538670">
        <ele>520.8</ele>
        <time>2021-08-19T07:49:48Z</time>
      </trkpt>
      <trkpt lat="45.2940310" lon="6.3541330">
        <ele>521.4</ele>
        <time>2021-08-19T07:49:52Z</time>
      </trkpt>
      <trkpt lat="45.2940710" lon="6.3544400">
        <ele>521.8</ele>
        <time>2021-08-19T07:49:57Z</time>
      </trkpt>
      <trkpt lat="45.2940600" lon="6.3546790">
        <ele>522.0</ele>
        <time>2021-08-19T07:50:02Z</time>
      </trkpt>
      <trkpt lat="45.2940450" lon="6.3547140">
        <ele>522.0</ele>
        <time>2021-08-19T07:50:03Z</time>
      </trkpt>
      <trkpt lat="45.2940070" lon="6.3547360">
        <ele>522.4</ele>
        <time>2021-08-19T07:50:05Z</time>
      </trkpt>
      <trkpt lat="45.2939830" lon="6.3547390">
        <ele>522.6</ele>
        <time>2021-08-19T07:50:06Z</time>
      </trkpt>
      <trkpt lat="45.2939430" lon="6.3547370">
        <ele>522.6</ele>
        <time>2021-08-19T07:50:09Z</time>
      </trkpt>
      <trkpt lat="45.2939430" lon="6.3547370">
        <ele>522.6</ele>
        <time>2021-08-19T07:50:10Z</time>
      </trkpt>
      <trkpt lat="45.2940610" lon="6.3547130">
        <ele>522.8</ele>
        <time>2021-08-19T07:50:44Z</time>
      </trkpt>
      <trkpt lat="45.2940720" lon="6.3547420">
        <ele>522.8</ele>
        <time>2021-08-19T07:50:45Z</time>
      </trkpt>
      <trkpt lat="45.2940830" lon="6.3547770">
        <ele>522.8</ele>
        <time>2021-08-19T07:50:46Z</time>
      </trkpt>
      <trkpt lat="45.2941890" lon="6.3550540">
        <ele>523.0</ele>
        <time>2021-08-19T07:50:53Z</time>
      </trkpt>
      <trkpt lat="45.2942410" lon="6.3553530">
        <ele>523.6</ele>
        <time>2021-08-19T07:50:59Z</time>
      </trkpt>
      <trkpt lat="45.2942520" lon="6.3554060">
        <ele>523.6</ele>
        <time>2021-08-19T07:51:00Z</time>
      </trkpt>
      <trkpt lat="45.2942980" lon="6.3557100">
        <ele>524.6</ele>
        <time>2021-08-19T07:51:07Z</time>
      </trkpt>
      <trkpt lat="45.2942990" lon="6.3557150">
        <ele>524.8</ele>
        <time>2021-08-19T07:51:08Z</time>
      </trkpt>
      <trkpt lat="45.2942990" lon="6.3557150">
        <ele>524.8</ele>
        <time>2021-08-19T07:51:09Z</time>
      </trkpt>
      <trkpt lat="45.2943070" lon="6.3556190">
        <ele>524.6</ele>
        <time>2021-08-19T07:51:59Z</time>
      </trkpt>
      <trkpt lat="45.2943360" lon="6.3556010">
        <ele>524.6</ele>
        <time>2021-08-19T07:52:00Z</time>
      </trkpt>
      <trkpt lat="45.2945150" lon="6.3555070">
        <ele>524.2</ele>
        <time>2021-08-19T07:52:06Z</time>
      </trkpt>
      <trkpt lat="45.2946950" lon="6.3554710">
        <ele>524.0</ele>
        <time>2021-08-19T07:52:11Z</time>
      </trkpt>
      <trkpt lat="45.2947740" lon="6.3554580">
        <ele>523.8</ele>
        <time>2021-08-19T07:52:13Z</time>
      </trkpt>
      <trkpt lat="45.2950510" lon="6.3554160">
        <ele>523.4</ele>
        <time>2021-08-19T07:52:19Z</time>
      </trkpt>
      <trkpt lat="45.2951510" lon="6.3553960">
        <ele>523.4</ele>
        <time>2021-08-19T07:52:21Z</time>
      </trkpt>
      <trkpt lat="45.2954650" lon="6.3553340">
        <ele>523.0</ele>
        <time>2021-08-19T07:52:27Z</time>
      </trkpt>
      <trkpt lat="45.2955750" lon="6.3553110">
        <ele>522.8</ele>
        <time>2021-08-19T07:52:29Z</time>
      </trkpt>
      <trkpt lat="45.2958900" lon="6.3552180">
        <ele>522.2</ele>
        <time>2021-08-19T07:52:34Z</time>
      </trkpt>
      <trkpt lat="45.2960960" lon="6.3551410">
        <ele>521.6</ele>
        <time>2021-08-19T07:52:37Z</time>
      </trkpt>
      <trkpt lat="45.2961660" lon="6.3551140">
        <ele>521.2</ele>
        <time>2021-08-19T07:52:38Z</time>
      </trkpt>
      <trkpt lat="45.2962350" lon="6.3550860">
        <ele>521.0</ele>
        <time>2021-08-19T07:52:39Z</time>
      </trkpt>
      <trkpt lat="45.2963010" lon="6.3550620">
        <ele>520.6</ele>
        <time>2021-08-19T07:52:40Z</time>
      </trkpt>
      <trkpt lat="45.2963770" lon="6.3550320">
        <ele>520.4</ele>
        <time>2021-08-19T07:52:41Z</time>
      </trkpt>
      <trkpt lat="45.2964290" lon="6.3550110">
        <ele>519.4</ele>
        <time>2021-08-19T07:52:42Z</time>
      </trkpt>
      <trkpt lat="45.2966500" lon="6.3549260">
        <ele>518.8</ele>
        <time>2021-08-19T07:52:45Z</time>
      </trkpt>
      <trkpt lat="45.2968410" lon="6.3548510">
        <ele>518.4</ele>
        <time>2021-08-19T07:52:48Z</time>
      </trkpt>
      <trkpt lat="45.2969090" lon="6.3548230">
        <ele>518.2</ele>
        <time>2021-08-19T07:52:49Z</time>
      </trkpt>
      <trkpt lat="45.2970420" lon="6.3547730">
        <ele>518.2</ele>
        <time>2021-08-19T07:52:51Z</time>
      </trkpt>
      <trkpt lat="45.2972410" lon="6.3546780">
        <ele>518.0</ele>
        <time>2021-08-19T07:52:54Z</time>
      </trkpt>
      <trkpt lat="45.2975700" lon="6.3545340">
        <ele>517.2</ele>
        <time>2021-08-19T07:52:59Z</time>
      </trkpt>
      <trkpt lat="45.2979010" lon="6.3543940">
        <ele>516.8</ele>
        <time>2021-08-19T07:53:04Z</time>
      </trkpt>
      <trkpt lat="45.2980360" lon="6.3543320">
        <ele>516.8</ele>
        <time>2021-08-19T07:53:06Z</time>
      </trkpt>
      <trkpt lat="45.2984580" lon="6.3541310">
        <ele>516.2</ele>
        <time>2021-08-19T07:53:12Z</time>
      </trkpt>
      <trkpt lat="45.2986000" lon="6.3540580">
        <ele>516.0</ele>
        <time>2021-08-19T07:53:14Z</time>
      </trkpt>
      <trkpt lat="45.2988150" lon="6.3539390">
        <ele>515.0</ele>
        <time>2021-08-19T07:53:17Z</time>
      </trkpt>
      <trkpt lat="45.2990320" lon="6.3538100">
        <ele>514.4</ele>
        <time>2021-08-19T07:53:20Z</time>
      </trkpt>
      <trkpt lat="45.2991770" lon="6.3537260">
        <ele>513.8</ele>
        <time>2021-08-19T07:53:22Z</time>
      </trkpt>
      <trkpt lat="45.2993980" lon="6.3535990">
        <ele>512.8</ele>
        <time>2021-08-19T07:53:25Z</time>
      </trkpt>
      <trkpt lat="45.2997460" lon="6.3533900">
        <ele>511.4</ele>
        <time>2021-08-19T07:53:30Z</time>
      </trkpt>
      <trkpt lat="45.2999030" lon="6.3532910">
        <ele>511.2</ele>
        <time>2021-08-19T07:53:32Z</time>
      </trkpt>
      <trkpt lat="45.3002430" lon="6.3530600">
        <ele>510.6</ele>
        <time>2021-08-19T07:53:37Z</time>
      </trkpt>
      <trkpt lat="45.3003070" lon="6.3530110">
        <ele>510.4</ele>
        <time>2021-08-19T07:53:38Z</time>
      </trkpt>
      <trkpt lat="45.3003580" lon="6.3529720">
        <ele>510.2</ele>
        <time>2021-08-19T07:53:39Z</time>
      </trkpt>
      <trkpt lat="45.3006230" lon="6.3527710">
        <ele>510.0</ele>
        <time>2021-08-19T07:53:43Z</time>
      </trkpt>
      <trkpt lat="45.3007370" lon="6.3526750">
        <ele>509.8</ele>
        <time>2021-08-19T07:53:45Z</time>
      </trkpt>
      <trkpt lat="45.3008780" lon="6.3525600">
        <ele>509.8</ele>
        <time>2021-08-19T07:53:47Z</time>
      </trkpt>
      <trkpt lat="45.3010740" lon="6.3524090">
        <ele>509.4</ele>
        <time>2021-08-19T07:53:50Z</time>
      </trkpt>
      <trkpt lat="45.3013330" lon="6.3521930">
        <ele>509.0</ele>
        <time>2021-08-19T07:53:54Z</time>
      </trkpt>
      <trkpt lat="45.3015920" lon="6.3519730">
        <ele>508.4</ele>
        <time>2021-08-19T07:53:58Z</time>
      </trkpt>
      <trkpt lat="45.3017220" lon="6.3518530">
        <ele>508.4</ele>
        <time>2021-08-19T07:54:00Z</time>
      </trkpt>
      <trkpt lat="45.3019720" lon="6.3516080">
        <ele>507.8</ele>
        <time>2021-08-19T07:54:04Z</time>
      </trkpt>
      <trkpt lat="45.3022560" lon="6.3512920">
        <ele>507.4</ele>
        <time>2021-08-19T07:54:09Z</time>
      </trkpt>
      <trkpt lat="45.3023080" lon="6.3512260">
        <ele>507.4</ele>
        <time>2021-08-19T07:54:10Z</time>
      </trkpt>
      <trkpt lat="45.3023950" lon="6.3510930">
        <ele>507.0</ele>
        <time>2021-08-19T07:54:12Z</time>
      </trkpt>
      <trkpt lat="45.3024340" lon="6.3510280">
        <ele>507.0</ele>
        <time>2021-08-19T07:54:13Z</time>
      </trkpt>
      <trkpt lat="45.3026180" lon="6.3508340">
        <ele>506.6</ele>
        <time>2021-08-19T07:54:16Z</time>
      </trkpt>
      <trkpt lat="45.3028070" lon="6.3506340">
        <ele>506.2</ele>
        <time>2021-08-19T07:54:19Z</time>
      </trkpt>
      <trkpt lat="45.3028700" lon="6.3505660">
        <ele>506.0</ele>
        <time>2021-08-19T07:54:20Z</time>
      </trkpt>
      <trkpt lat="45.3029330" lon="6.3504980">
        <ele>506.0</ele>
        <time>2021-08-19T07:54:21Z</time>
      </trkpt>
      <trkpt lat="45.3030570" lon="6.3503600">
        <ele>505.6</ele>
        <time>2021-08-19T07:54:23Z</time>
      </trkpt>
      <trkpt lat="45.3034230" lon="6.3499730">
        <ele>505.2</ele>
        <time>2021-08-19T07:54:29Z</time>
      </trkpt>
      <trkpt lat="45.3035440" lon="6.3498440">
        <ele>505.0</ele>
        <time>2021-08-19T07:54:31Z</time>
      </trkpt>
      <trkpt lat="45.3036050" lon="6.3497790">
        <ele>504.8</ele>
        <time>2021-08-19T07:54:32Z</time>
      </trkpt>
      <trkpt lat="45.3037260" lon="6.3496490">
        <ele>504.6</ele>
        <time>2021-08-19T07:54:34Z</time>
      </trkpt>
      <trkpt lat="45.3037860" lon="6.3495860">
        <ele>504.6</ele>
        <time>2021-08-19T07:54:35Z</time>
      </trkpt>
      <trkpt lat="45.3039570" lon="6.3494000">
        <ele>504.4</ele>
        <time>2021-08-19T07:54:38Z</time>
      </trkpt>
      <trkpt lat="45.3040720" lon="6.3492750">
        <ele>504.4</ele>
        <time>2021-08-19T07:54:40Z</time>
      </trkpt>
      <trkpt lat="45.3042340" lon="6.3490920">
        <ele>504.4</ele>
        <time>2021-08-19T07:54:43Z</time>
      </trkpt>
      <trkpt lat="45.3044480" lon="6.3488500">
        <ele>504.4</ele>
        <time>2021-08-19T07:54:47Z</time>
      </trkpt>
      <trkpt lat="45.3048120" lon="6.3484440">
        <ele>504.6</ele>
        <time>2021-08-19T07:54:54Z</time>
      </trkpt>
      <trkpt lat="45.3052320" lon="6.3479850">
        <ele>504.6</ele>
        <time>2021-08-19T07:55:02Z</time>
      </trkpt>
      <trkpt lat="45.3052850" lon="6.3479240">
        <ele>504.6</ele>
        <time>2021-08-19T07:55:03Z</time>
      </trkpt>
      <trkpt lat="45.3053790" lon="6.3478170">
        <ele>504.4</ele>
        <time>2021-08-19T07:55:05Z</time>
      </trkpt>
      <trkpt lat="45.3056110" lon="6.3475580">
        <ele>504.2</ele>
        <time>2021-08-19T07:55:09Z</time>
      </trkpt>
      <trkpt lat="45.3056550" lon="6.3475070">
        <ele>504.2</ele>
        <time>2021-08-19T07:55:10Z</time>
      </trkpt>
      <trkpt lat="45.3057230" lon="6.3474310">
        <ele>504.4</ele>
        <time>2021-08-19T07:55:11Z</time>
      </trkpt>
      <trkpt lat="45.3057780" lon="6.3473660">
        <ele>504.4</ele>
        <time>2021-08-19T07:55:12Z</time>
      </trkpt>
      <trkpt lat="45.3058950" lon="6.3472370">
        <ele>504.2</ele>
        <time>2021-08-19T07:55:14Z</time>
      </trkpt>
      <trkpt lat="45.3060670" lon="6.3470390">
        <ele>504.0</ele>
        <time>2021-08-19T07:55:17Z</time>
      </trkpt>
      <trkpt lat="45.3064740" lon="6.3465730">
        <ele>503.4</ele>
        <time>2021-08-19T07:55:24Z</time>
      </trkpt>
      <trkpt lat="45.3065340" lon="6.3465070">
        <ele>503.2</ele>
        <time>2021-08-19T07:55:25Z</time>
      </trkpt>
      <trkpt lat="45.3066380" lon="6.3463860">
        <ele>503.0</ele>
        <time>2021-08-19T07:55:27Z</time>
      </trkpt>
      <trkpt lat="45.3070040" lon="6.3459660">
        <ele>502.2</ele>
        <time>2021-08-19T07:55:33Z</time>
      </trkpt>
      <trkpt lat="45.3072420" lon="6.3456980">
        <ele>502.0</ele>
        <time>2021-08-19T07:55:37Z</time>
      </trkpt>
      <trkpt lat="45.3076620" lon="6.3452100">
        <ele>501.2</ele>
        <time>2021-08-19T07:55:44Z</time>
      </trkpt>
      <trkpt lat="45.3080850" lon="6.3447230">
        <ele>500.4</ele>
        <time>2021-08-19T07:55:51Z</time>
      </trkpt>
      <trkpt lat="45.3082100" lon="6.3445870">
        <ele>500.2</ele>
        <time>2021-08-19T07:55:53Z</time>
      </trkpt>
      <trkpt lat="45.3086510" lon="6.3441060">
        <ele>499.8</ele>
        <time>2021-08-19T07:56:00Z</time>
      </trkpt>
      <trkpt lat="45.3087790" lon="6.3439680">
        <ele>499.8</ele>
        <time>2021-08-19T07:56:02Z</time>
      </trkpt>
      <trkpt lat="45.3090760" lon="6.3436300">
        <ele>499.6</ele>
        <time>2021-08-19T07:56:07Z</time>
      </trkpt>
      <trkpt lat="45.3094460" lon="6.3432270">
        <ele>499.4</ele>
        <time>2021-08-19T07:56:13Z</time>
      </trkpt>
      <trkpt lat="45.3097390" lon="6.3428970">
        <ele>499.2</ele>
        <time>2021-08-19T07:56:18Z</time>
      </trkpt>
      <trkpt lat="45.3100970" lon="6.3424940">
        <ele>499.0</ele>
        <time>2021-08-19T07:56:24Z</time>
      </trkpt>
      <trkpt lat="45.3105220" lon="6.3420090">
        <ele>499.2</ele>
        <time>2021-08-19T07:56:31Z</time>
      </trkpt>
      <trkpt lat="45.3107000" lon="6.3418000">
        <ele>499.2</ele>
        <time>2021-08-19T07:56:34Z</time>
      </trkpt>
      <trkpt lat="45.3111130" lon="6.3413340">
        <ele>499.2</ele>
        <time>2021-08-19T07:56:41Z</time>
      </trkpt>
      <trkpt lat="45.3114640" lon="6.3409480">
        <ele>499.2</ele>
        <time>2021-08-19T07:56:47Z</time>
      </trkpt>
      <trkpt lat="45.3116370" lon="6.3407490">
        <ele>499.2</ele>
        <time>2021-08-19T07:56:50Z</time>
      </trkpt>
      <trkpt lat="45.3120930" lon="6.3402150">
        <ele>499.2</ele>
        <time>2021-08-19T07:56:58Z</time>
      </trkpt>
      <trkpt lat="45.3122660" lon="6.3399910">
        <ele>499.2</ele>
        <time>2021-08-19T07:57:01Z</time>
      </trkpt>
      <trkpt lat="45.3126550" lon="6.3394510">
        <ele>498.6</ele>
        <time>2021-08-19T07:57:08Z</time>
      </trkpt>
      <trkpt lat="45.3127120" lon="6.3393670">
        <ele>498.4</ele>
        <time>2021-08-19T07:57:09Z</time>
      </trkpt>
      <trkpt lat="45.3128330" lon="6.3391850">
        <ele>497.8</ele>
        <time>2021-08-19T07:57:11Z</time>
      </trkpt>
      <trkpt lat="45.3130370" lon="6.3388660">
        <ele>496.6</ele>
        <time>2021-08-19T07:57:15Z</time>
      </trkpt>
      <trkpt lat="45.3131980" lon="6.3386130">
        <ele>496.0</ele>
        <time>2021-08-19T07:57:18Z</time>
      </trkpt>
      <trkpt lat="45.3133660" lon="6.3383400">
        <ele>495.6</ele>
        <time>2021-08-19T07:57:21Z</time>
      </trkpt>
      <trkpt lat="45.3137150" lon="6.3377370">
        <ele>494.2</ele>
        <time>2021-08-19T07:57:28Z</time>
      </trkpt>
      <trkpt lat="45.3137650" lon="6.3376490">
        <ele>494.2</ele>
        <time>2021-08-19T07:57:29Z</time>
      </trkpt>
      <trkpt lat="45.3141050" lon="6.3370150">
        <ele>493.6</ele>
        <time>2021-08-19T07:57:36Z</time>
      </trkpt>
      <trkpt lat="45.3141520" lon="6.3369230">
        <ele>493.2</ele>
        <time>2021-08-19T07:57:37Z</time>
      </trkpt>
      <trkpt lat="45.3141970" lon="6.3368290">
        <ele>493.2</ele>
        <time>2021-08-19T07:57:38Z</time>
      </trkpt>
      <trkpt lat="45.3143270" lon="6.3365420">
        <ele>492.4</ele>
        <time>2021-08-19T07:57:41Z</time>
      </trkpt>
      <trkpt lat="45.3143720" lon="6.3364470">
        <ele>492.2</ele>
        <time>2021-08-19T07:57:42Z</time>
      </trkpt>
      <trkpt lat="45.3145780" lon="6.3359660">
        <ele>491.2</ele>
        <time>2021-08-19T07:57:47Z</time>
      </trkpt>
      <trkpt lat="45.3147280" lon="6.3355820">
        <ele>490.8</ele>
        <time>2021-08-19T07:57:51Z</time>
      </trkpt>
      <trkpt lat="45.3148390" lon="6.3352980">
        <ele>490.2</ele>
        <time>2021-08-19T07:57:54Z</time>
      </trkpt>
      <trkpt lat="45.3150340" lon="6.3348380">
        <ele>489.2</ele>
        <time>2021-08-19T07:57:59Z</time>
      </trkpt>
      <trkpt lat="45.3150710" lon="6.3347460">
        <ele>489.2</ele>
        <time>2021-08-19T07:58:00Z</time>
      </trkpt>
      <trkpt lat="45.3151830" lon="6.3344550">
        <ele>488.8</ele>
        <time>2021-08-19T07:58:03Z</time>
      </trkpt>
      <trkpt lat="45.3153740" lon="6.3339880">
        <ele>488.4</ele>
        <time>2021-08-19T07:58:08Z</time>
      </trkpt>
      <trkpt lat="45.3154880" lon="6.3337030">
        <ele>487.8</ele>
        <time>2021-08-19T07:58:11Z</time>
      </trkpt>
      <trkpt lat="45.3156750" lon="6.3332250">
        <ele>486.8</ele>
        <time>2021-08-19T07:58:16Z</time>
      </trkpt>
      <trkpt lat="45.3157100" lon="6.3331310">
        <ele>486.8</ele>
        <time>2021-08-19T07:58:17Z</time>
      </trkpt>
      <trkpt lat="45.3157830" lon="6.3329510">
        <ele>486.2</ele>
        <time>2021-08-19T07:58:19Z</time>
      </trkpt>
      <trkpt lat="45.3159260" lon="6.3325910">
        <ele>485.6</ele>
        <time>2021-08-19T07:58:23Z</time>
      </trkpt>
      <trkpt lat="45.3161070" lon="6.3321470">
        <ele>485.0</ele>
        <time>2021-08-19T07:58:28Z</time>
      </trkpt>
      <trkpt lat="45.3161430" lon="6.3320570">
        <ele>484.8</ele>
        <time>2021-08-19T07:58:29Z</time>
      </trkpt>
      <trkpt lat="45.3162150" lon="6.3318810">
        <ele>484.4</ele>
        <time>2021-08-19T07:58:31Z</time>
      </trkpt>
      <trkpt lat="45.3164620" lon="6.3312700">
        <ele>484.0</ele>
        <time>2021-08-19T07:58:38Z</time>
      </trkpt>
      <trkpt lat="45.3165300" lon="6.3310980">
        <ele>483.8</ele>
        <time>2021-08-19T07:58:40Z</time>
      </trkpt>
      <trkpt lat="45.3165950" lon="6.3309270">
        <ele>483.6</ele>
        <time>2021-08-19T07:58:42Z</time>
      </trkpt>
      <trkpt lat="45.3166290" lon="6.3308420">
        <ele>483.6</ele>
        <time>2021-08-19T07:58:43Z</time>
      </trkpt>
      <trkpt lat="45.3166640" lon="6.3307600">
        <ele>483.6</ele>
        <time>2021-08-19T07:58:44Z</time>
      </trkpt>
      <trkpt lat="45.3166980" lon="6.3306770">
        <ele>483.6</ele>
        <time>2021-08-19T07:58:45Z</time>
      </trkpt>
      <trkpt lat="45.3167340" lon="6.3305950">
        <ele>483.4</ele>
        <time>2021-08-19T07:58:46Z</time>
      </trkpt>
      <trkpt lat="45.3167700" lon="6.3305120">
        <ele>483.4</ele>
        <time>2021-08-19T07:58:47Z</time>
      </trkpt>
      <trkpt lat="45.3168050" lon="6.3304290">
        <ele>483.4</ele>
        <time>2021-08-19T07:58:48Z</time>
      </trkpt>
      <trkpt lat="45.3169070" lon="6.3301790">
        <ele>483.2</ele>
        <time>2021-08-19T07:58:51Z</time>
      </trkpt>
      <trkpt lat="45.3169780" lon="6.3300150">
        <ele>483.2</ele>
        <time>2021-08-19T07:58:53Z</time>
      </trkpt>
      <trkpt lat="45.3171230" lon="6.3297000">
        <ele>483.0</ele>
        <time>2021-08-19T07:58:57Z</time>
      </trkpt>
      <trkpt lat="45.3174700" lon="6.3290030">
        <ele>482.6</ele>
        <time>2021-08-19T07:59:06Z</time>
      </trkpt>
      <trkpt lat="45.3175100" lon="6.3289240">
        <ele>482.6</ele>
        <time>2021-08-19T07:59:07Z</time>
      </trkpt>
      <trkpt lat="45.3176770" lon="6.3286190">
        <ele>482.4</ele>
        <time>2021-08-19T07:59:11Z</time>
      </trkpt>
      <trkpt lat="45.3179330" lon="6.3281420">
        <ele>481.6</ele>
        <time>2021-08-19T07:59:17Z</time>
      </trkpt>
      <trkpt lat="45.3179670" lon="6.3280810">
        <ele>481.6</ele>
        <time>2021-08-19T07:59:18Z</time>
      </trkpt>
      <trkpt lat="45.3180500" lon="6.3279250">
        <ele>481.4</ele>
        <time>2021-08-19T07:59:20Z</time>
      </trkpt>
      <trkpt lat="45.3184000" lon="6.3272790">
        <ele>481.0</ele>
        <time>2021-08-19T07:59:28Z</time>
      </trkpt>
      <trkpt lat="45.3186890" lon="6.3267380">
        <ele>481.2</ele>
        <time>2021-08-19T07:59:35Z</time>
      </trkpt>
      <trkpt lat="45.3188100" lon="6.3265050">
        <ele>479.8</ele>
        <time>2021-08-19T07:59:38Z</time>
      </trkpt>
      <trkpt lat="45.3190380" lon="6.3260310">
        <ele>479.2</ele>
        <time>2021-08-19T07:59:44Z</time>
      </trkpt>
      <trkpt lat="45.3191490" lon="6.3257700">
        <ele>479.0</ele>
        <time>2021-08-19T07:59:47Z</time>
      </trkpt>
      <trkpt lat="45.3194410" lon="6.3250210">
        <ele>478.4</ele>
        <time>2021-08-19T07:59:56Z</time>
      </trkpt>
      <trkpt lat="45.3194740" lon="6.3249330">
        <ele>478.4</ele>
        <time>2021-08-19T07:59:57Z</time>
      </trkpt>
      <trkpt lat="45.3197370" lon="6.3242350">
        <ele>478.2</ele>
        <time>2021-08-19T08:00:05Z</time>
      </trkpt>
      <trkpt lat="45.3198630" lon="6.3238800">
        <ele>478.2</ele>
        <time>2021-08-19T08:00:09Z</time>
      </trkpt>
      <trkpt lat="45.3200070" lon="6.3232920">
        <ele>478.0</ele>
        <time>2021-08-19T08:00:15Z</time>
      </trkpt>
      <trkpt lat="45.3200520" lon="6.3228100">
        <ele>477.8</ele>
        <time>2021-08-19T08:00:20Z</time>
      </trkpt>
      <trkpt lat="45.3200710" lon="6.3225980">
        <ele>477.8</ele>
        <time>2021-08-19T08:00:22Z</time>
      </trkpt>
      <trkpt lat="45.3201220" lon="6.3223100">
        <ele>477.6</ele>
        <time>2021-08-19T08:00:25Z</time>
      </trkpt>
      <trkpt lat="45.3201720" lon="6.3221340">
        <ele>477.4</ele>
        <time>2021-08-19T08:00:27Z</time>
      </trkpt>
      <trkpt lat="45.3201920" lon="6.3220630">
        <ele>477.2</ele>
        <time>2021-08-19T08:00:28Z</time>
      </trkpt>
      <trkpt lat="45.3202520" lon="6.3218700">
        <ele>477.0</ele>
        <time>2021-08-19T08:00:30Z</time>
      </trkpt>
      <trkpt lat="45.3202730" lon="6.3218010">
        <ele>476.8</ele>
        <time>2021-08-19T08:00:31Z</time>
      </trkpt>
      <trkpt lat="45.3203100" lon="6.3216980">
        <ele>476.8</ele>
        <time>2021-08-19T08:00:32Z</time>
      </trkpt>
      <trkpt lat="45.3203340" lon="6.3216270">
        <ele>476.8</ele>
        <time>2021-08-19T08:00:33Z</time>
      </trkpt>
      <trkpt lat="45.3204130" lon="6.3214470">
        <ele>476.6</ele>
        <time>2021-08-19T08:00:35Z</time>
      </trkpt>
      <trkpt lat="45.3205000" lon="6.3213000">
        <ele>476.4</ele>
        <time>2021-08-19T08:00:37Z</time>
      </trkpt>
      <trkpt lat="45.3205470" lon="6.3212340">
        <ele>476.4</ele>
        <time>2021-08-19T08:00:38Z</time>
      </trkpt>
      <trkpt lat="45.3205840" lon="6.3211880">
        <ele>476.4</ele>
        <time>2021-08-19T08:00:39Z</time>
      </trkpt>
      <trkpt lat="45.3206400" lon="6.3211370">
        <ele>476.4</ele>
        <time>2021-08-19T08:00:40Z</time>
      </trkpt>
      <trkpt lat="45.3207780" lon="6.3210630">
        <ele>476.2</ele>
        <time>2021-08-19T08:00:42Z</time>
      </trkpt>
      <trkpt lat="45.3209000" lon="6.3210310">
        <ele>476.0</ele>
        <time>2021-08-19T08:00:44Z</time>
      </trkpt>
      <trkpt lat="45.3213150" lon="6.3209780">
        <ele>475.8</ele>
        <time>2021-08-19T08:00:50Z</time>
      </trkpt>
      <trkpt lat="45.3213850" lon="6.3209740">
        <ele>475.8</ele>
        <time>2021-08-19T08:00:51Z</time>
      </trkpt>
      <trkpt lat="45.3219350" lon="6.3209440">
        <ele>475.6</ele>
        <time>2021-08-19T08:00:59Z</time>
      </trkpt>
      <trkpt lat="45.3220020" lon="6.3209420">
        <ele>475.4</ele>
        <time>2021-08-19T08:01:00Z</time>
      </trkpt>
      <trkpt lat="45.3222740" lon="6.3208930">
        <ele>475.2</ele>
        <time>2021-08-19T08:01:04Z</time>
      </trkpt>
      <trkpt lat="45.3223930" lon="6.3208500">
        <ele>475.2</ele>
        <time>2021-08-19T08:01:06Z</time>
      </trkpt>
      <trkpt lat="45.3225930" lon="6.3207690">
        <ele>475.2</ele>
        <time>2021-08-19T08:01:09Z</time>
      </trkpt>
      <trkpt lat="45.3227320" lon="6.3207350">
        <ele>475.0</ele>
        <time>2021-08-19T08:01:11Z</time>
      </trkpt>
      <trkpt lat="45.3228130" lon="6.3207080">
        <ele>475.2</ele>
        <time>2021-08-19T08:01:12Z</time>
      </trkpt>
      <trkpt lat="45.3233680" lon="6.3205160">
        <ele>474.4</ele>
        <time>2021-08-19T08:01:20Z</time>
      </trkpt>
      <trkpt lat="45.3235050" lon="6.3204730">
        <ele>474.2</ele>
        <time>2021-08-19T08:01:22Z</time>
      </trkpt>
      <trkpt lat="45.3239880" lon="6.3203220">
        <ele>473.6</ele>
        <time>2021-08-19T08:01:29Z</time>
      </trkpt>
      <trkpt lat="45.3240600" lon="6.3203030">
        <ele>473.4</ele>
        <time>2021-08-19T08:01:30Z</time>
      </trkpt>
      <trkpt lat="45.3241320" lon="6.3202800">
        <ele>473.4</ele>
        <time>2021-08-19T08:01:31Z</time>
      </trkpt>
      <trkpt lat="45.3242040" lon="6.3202560">
        <ele>473.2</ele>
        <time>2021-08-19T08:01:32Z</time>
      </trkpt>
      <trkpt lat="45.3242750" lon="6.3202330">
        <ele>473.2</ele>
        <time>2021-08-19T08:01:33Z</time>
      </trkpt>
      <trkpt lat="45.3244220" lon="6.3201870">
        <ele>473.0</ele>
        <time>2021-08-19T08:01:35Z</time>
      </trkpt>
      <trkpt lat="45.3244960" lon="6.3201630">
        <ele>473.0</ele>
        <time>2021-08-19T08:01:36Z</time>
      </trkpt>
      <trkpt lat="45.3245680" lon="6.3201380">
        <ele>472.8</ele>
        <time>2021-08-19T08:01:37Z</time>
      </trkpt>
      <trkpt lat="45.3246410" lon="6.3201120">
        <ele>472.6</ele>
        <time>2021-08-19T08:01:38Z</time>
      </trkpt>
      <trkpt lat="45.3247160" lon="6.3200880">
        <ele>472.8</ele>
        <time>2021-08-19T08:01:39Z</time>
      </trkpt>
      <trkpt lat="45.3247910" lon="6.3200650">
        <ele>472.6</ele>
        <time>2021-08-19T08:01:40Z</time>
      </trkpt>
      <trkpt lat="45.3248680" lon="6.3200430">
        <ele>472.6</ele>
        <time>2021-08-19T08:01:41Z</time>
      </trkpt>
      <trkpt lat="45.3249440" lon="6.3200180">
        <ele>472.4</ele>
        <time>2021-08-19T08:01:42Z</time>
      </trkpt>
      <trkpt lat="45.3250200" lon="6.3199950">
        <ele>472.2</ele>
        <time>2021-08-19T08:01:43Z</time>
      </trkpt>
      <trkpt lat="45.3250940" lon="6.3199690">
        <ele>472.2</ele>
        <time>2021-08-19T08:01:44Z</time>
      </trkpt>
      <trkpt lat="45.3251690" lon="6.3199430">
        <ele>472.0</ele>
        <time>2021-08-19T08:01:45Z</time>
      </trkpt>
      <trkpt lat="45.3252460" lon="6.3199200">
        <ele>471.8</ele>
        <time>2021-08-19T08:01:46Z</time>
      </trkpt>
      <trkpt lat="45.3253230" lon="6.3198970">
        <ele>471.8</ele>
        <time>2021-08-19T08:01:47Z</time>
      </trkpt>
      <trkpt lat="45.3254030" lon="6.3198740">
        <ele>471.8</ele>
        <time>2021-08-19T08:01:48Z</time>
      </trkpt>
      <trkpt lat="45.3257140" lon="6.3197710">
        <ele>471.4</ele>
        <time>2021-08-19T08:01:52Z</time>
      </trkpt>
      <trkpt lat="45.3260300" lon="6.3196660">
        <ele>471.2</ele>
        <time>2021-08-19T08:01:56Z</time>
      </trkpt>
      <trkpt lat="45.3262570" lon="6.3195890">
        <ele>471.0</ele>
        <time>2021-08-19T08:01:59Z</time>
      </trkpt>
      <trkpt lat="45.3263340" lon="6.3195660">
        <ele>470.6</ele>
        <time>2021-08-19T08:02:00Z</time>
      </trkpt>
      <trkpt lat="45.3264130" lon="6.3195440">
        <ele>470.6</ele>
        <time>2021-08-19T08:02:01Z</time>
      </trkpt>
      <trkpt lat="45.3269360" lon="6.3193580">
        <ele>469.8</ele>
        <time>2021-08-19T08:02:08Z</time>
      </trkpt>
      <trkpt lat="45.3270110" lon="6.3193310">
        <ele>469.6</ele>
        <time>2021-08-19T08:02:09Z</time>
      </trkpt>
      <trkpt lat="45.3270820" lon="6.3193010">
        <ele>469.6</ele>
        <time>2021-08-19T08:02:10Z</time>
      </trkpt>
      <trkpt lat="45.3276470" lon="6.3189970">
        <ele>469.0</ele>
        <time>2021-08-19T08:02:18Z</time>
      </trkpt>
      <trkpt lat="45.3279320" lon="6.3188430">
        <ele>468.6</ele>
        <time>2021-08-19T08:02:22Z</time>
      </trkpt>
      <trkpt lat="45.3283520" lon="6.3186000">
        <ele>467.8</ele>
        <time>2021-08-19T08:02:28Z</time>
      </trkpt>
      <trkpt lat="45.3284770" lon="6.3185260">
        <ele>467.8</ele>
        <time>2021-08-19T08:02:30Z</time>
      </trkpt>
      <trkpt lat="45.3288390" lon="6.3183010">
        <ele>467.6</ele>
        <time>2021-08-19T08:02:35Z</time>
      </trkpt>
      <trkpt lat="45.3289760" lon="6.3182090">
        <ele>467.4</ele>
        <time>2021-08-19T08:02:37Z</time>
      </trkpt>
      <trkpt lat="45.3292470" lon="6.3180130">
        <ele>467.0</ele>
        <time>2021-08-19T08:02:41Z</time>
      </trkpt>
      <trkpt lat="45.3293830" lon="6.3179160">
        <ele>466.8</ele>
        <time>2021-08-19T08:02:43Z</time>
      </trkpt>
      <trkpt lat="45.3299120" lon="6.3175300">
        <ele>466.6</ele>
        <time>2021-08-19T08:02:51Z</time>
      </trkpt>
      <trkpt lat="45.3300580" lon="6.3174180">
        <ele>466.4</ele>
        <time>2021-08-19T08:02:53Z</time>
      </trkpt>
      <trkpt lat="45.3306020" lon="6.3170090">
        <ele>466.2</ele>
        <time>2021-08-19T08:03:01Z</time>
      </trkpt>
      <trkpt lat="45.3307260" lon="6.3169180">
        <ele>466.2</ele>
        <time>2021-08-19T08:03:03Z</time>
      </trkpt>
      <trkpt lat="45.3312120" lon="6.3165430">
        <ele>465.6</ele>
        <time>2021-08-19T08:03:10Z</time>
      </trkpt>
      <trkpt lat="45.3313990" lon="6.3163970">
        <ele>465.6</ele>
        <time>2021-08-19T08:03:13Z</time>
      </trkpt>
      <trkpt lat="45.3316740" lon="6.3161980">
        <ele>465.4</ele>
        <time>2021-08-19T08:03:17Z</time>
      </trkpt>
      <trkpt lat="45.3318910" lon="6.3160310">
        <ele>465.2</ele>
        <time>2021-08-19T08:03:20Z</time>
      </trkpt>
      <trkpt lat="45.3321510" lon="6.3158360">
        <ele>464.8</ele>
        <time>2021-08-19T08:03:24Z</time>
      </trkpt>
      <trkpt lat="45.3323020" lon="6.3157220">
        <ele>464.6</ele>
        <time>2021-08-19T08:03:26Z</time>
      </trkpt>
      <trkpt lat="45.3323720" lon="6.3156700">
        <ele>464.4</ele>
        <time>2021-08-19T08:03:27Z</time>
      </trkpt>
      <trkpt lat="45.3327140" lon="6.3154140">
        <ele>464.4</ele>
        <time>2021-08-19T08:03:32Z</time>
      </trkpt>
      <trkpt lat="45.3329860" lon="6.3152170">
        <ele>464.2</ele>
        <time>2021-08-19T08:03:36Z</time>
      </trkpt>
      <trkpt lat="45.3331760" lon="6.3150830">
        <ele>463.8</ele>
        <time>2021-08-19T08:03:39Z</time>
      </trkpt>
      <trkpt lat="45.3334000" lon="6.3149390">
        <ele>463.4</ele>
        <time>2021-08-19T08:03:42Z</time>
      </trkpt>
      <trkpt lat="45.3335900" lon="6.3148140">
        <ele>463.0</ele>
        <time>2021-08-19T08:03:45Z</time>
      </trkpt>
      <trkpt lat="45.3336590" lon="6.3147720">
        <ele>463.0</ele>
        <time>2021-08-19T08:03:46Z</time>
      </trkpt>
      <trkpt lat="45.3342070" lon="6.3144410">
        <ele>462.6</ele>
        <time>2021-08-19T08:03:54Z</time>
      </trkpt>
      <trkpt lat="45.3343460" lon="6.3143630">
        <ele>462.4</ele>
        <time>2021-08-19T08:03:56Z</time>
      </trkpt>
      <trkpt lat="45.3349030" lon="6.3140420">
        <ele>462.0</ele>
        <time>2021-08-19T08:04:04Z</time>
      </trkpt>
      <trkpt lat="45.3349730" lon="6.3140030">
        <ele>462.0</ele>
        <time>2021-08-19T08:04:05Z</time>
      </trkpt>
      <trkpt lat="45.3350430" lon="6.3139640">
        <ele>461.8</ele>
        <time>2021-08-19T08:04:06Z</time>
      </trkpt>
      <trkpt lat="45.3355810" lon="6.3136520">
        <ele>461.6</ele>
        <time>2021-08-19T08:04:14Z</time>
      </trkpt>
      <trkpt lat="45.3357120" lon="6.3135760">
        <ele>461.4</ele>
        <time>2021-08-19T08:04:16Z</time>
      </trkpt>
      <trkpt lat="45.3362380" lon="6.3132750">
        <ele>461.2</ele>
        <time>2021-08-19T08:04:24Z</time>
      </trkpt>
      <trkpt lat="45.3363530" lon="6.3132060">
        <ele>461.0</ele>
        <time>2021-08-19T08:04:26Z</time>
      </trkpt>
      <trkpt lat="45.3366140" lon="6.3130500">
        <ele>460.8</ele>
        <time>2021-08-19T08:04:30Z</time>
      </trkpt>
      <trkpt lat="45.3369410" lon="6.3128580">
        <ele>460.6</ele>
        <time>2021-08-19T08:04:35Z</time>
      </trkpt>
      <trkpt lat="45.3374840" lon="6.3125390">
        <ele>460.6</ele>
        <time>2021-08-19T08:04:43Z</time>
      </trkpt>
      <trkpt lat="45.3376230" lon="6.3124590">
        <ele>460.4</ele>
        <time>2021-08-19T08:04:45Z</time>
      </trkpt>
      <trkpt lat="45.3381080" lon="6.3121780">
        <ele>460.0</ele>
        <time>2021-08-19T08:04:52Z</time>
      </trkpt>
      <trkpt lat="45.3383100" lon="6.3120530">
        <ele>459.8</ele>
        <time>2021-08-19T08:04:55Z</time>
      </trkpt>
      <trkpt lat="45.3388510" lon="6.3117360">
        <ele>459.2</ele>
        <time>2021-08-19T08:05:03Z</time>
      </trkpt>
      <trkpt lat="45.3390520" lon="6.3116170">
        <ele>459.0</ele>
        <time>2021-08-19T08:05:06Z</time>
      </trkpt>
      <trkpt lat="45.3395130" lon="6.3113540">
        <ele>458.4</ele>
        <time>2021-08-19T08:05:13Z</time>
      </trkpt>
      <trkpt lat="45.3398360" lon="6.3111630">
        <ele>458.2</ele>
        <time>2021-08-19T08:05:18Z</time>
      </trkpt>
      <trkpt lat="45.3400950" lon="6.3110130">
        <ele>457.8</ele>
        <time>2021-08-19T08:05:22Z</time>
      </trkpt>
      <trkpt lat="45.3403510" lon="6.3108630">
        <ele>457.8</ele>
        <time>2021-08-19T08:05:26Z</time>
      </trkpt>
      <trkpt lat="45.3406670" lon="6.3106770">
        <ele>457.6</ele>
        <time>2021-08-19T08:05:31Z</time>
      </trkpt>
      <trkpt lat="45.3410450" lon="6.3104590">
        <ele>457.4</ele>
        <time>2021-08-19T08:05:37Z</time>
      </trkpt>
      <trkpt lat="45.3415830" lon="6.3101520">
        <ele>456.8</ele>
        <time>2021-08-19T08:05:45Z</time>
      </trkpt>
      <trkpt lat="45.3417770" lon="6.3100350">
        <ele>456.8</ele>
        <time>2021-08-19T08:05:48Z</time>
      </trkpt>
      <trkpt lat="45.3422970" lon="6.3097230">
        <ele>456.4</ele>
        <time>2021-08-19T08:05:56Z</time>
      </trkpt>
      <trkpt lat="45.3426230" lon="6.3095310">
        <ele>456.4</ele>
        <time>2021-08-19T08:06:01Z</time>
      </trkpt>
      <trkpt lat="45.3431440" lon="6.3092240">
        <ele>456.0</ele>
        <time>2021-08-19T08:06:09Z</time>
      </trkpt>
      <trkpt lat="45.3432080" lon="6.3091850">
        <ele>455.8</ele>
        <time>2021-08-19T08:06:10Z</time>
      </trkpt>
      <trkpt lat="45.3433350" lon="6.3091100">
        <ele>455.8</ele>
        <time>2021-08-19T08:06:12Z</time>
      </trkpt>
      <trkpt lat="45.3436560" lon="6.3089220">
        <ele>455.6</ele>
        <time>2021-08-19T08:06:17Z</time>
      </trkpt>
      <trkpt lat="45.3439760" lon="6.3087330">
        <ele>455.6</ele>
        <time>2021-08-19T08:06:22Z</time>
      </trkpt>
      <trkpt lat="45.3443020" lon="6.3085460">
        <ele>455.2</ele>
        <time>2021-08-19T08:06:27Z</time>
      </trkpt>
      <trkpt lat="45.3445610" lon="6.3083920">
        <ele>455.0</ele>
        <time>2021-08-19T08:06:31Z</time>
      </trkpt>
      <trkpt lat="45.3446950" lon="6.3083140">
        <ele>455.2</ele>
        <time>2021-08-19T08:06:33Z</time>
      </trkpt>
      <trkpt lat="45.3448300" lon="6.3082340">
        <ele>455.0</ele>
        <time>2021-08-19T08:06:35Z</time>
      </trkpt>
      <trkpt lat="45.3452340" lon="6.3080030">
        <ele>454.6</ele>
        <time>2021-08-19T08:06:41Z</time>
      </trkpt>
      <trkpt lat="45.3456320" lon="6.3077580">
        <ele>454.4</ele>
        <time>2021-08-19T08:06:47Z</time>
      </trkpt>
      <trkpt lat="45.3459110" lon="6.3075980">
        <ele>454.2</ele>
        <time>2021-08-19T08:06:51Z</time>
      </trkpt>
      <trkpt lat="45.3464600" lon="6.3072830">
        <ele>454.0</ele>
        <time>2021-08-19T08:06:59Z</time>
      </trkpt>
      <trkpt lat="45.3465280" lon="6.3072410">
        <ele>454.0</ele>
        <time>2021-08-19T08:07:00Z</time>
      </trkpt>
      <trkpt lat="45.3465940" lon="6.3072000">
        <ele>454.0</ele>
        <time>2021-08-19T08:07:01Z</time>
      </trkpt>
      <trkpt lat="45.3469890" lon="6.3069670">
        <ele>453.8</ele>
        <time>2021-08-19T08:07:07Z</time>
      </trkpt>
      <trkpt lat="45.3471340" lon="6.3068890">
        <ele>453.6</ele>
        <time>2021-08-19T08:07:09Z</time>
      </trkpt>
      <trkpt lat="45.3473150" lon="6.3067920">
        <ele>453.4</ele>
        <time>2021-08-19T08:07:12Z</time>
      </trkpt>
      <trkpt lat="45.3473800" lon="6.3067590">
        <ele>453.4</ele>
        <time>2021-08-19T08:07:13Z</time>
      </trkpt>
      <trkpt lat="45.3475110" lon="6.3066920">
        <ele>453.4</ele>
        <time>2021-08-19T08:07:15Z</time>
      </trkpt>
      <trkpt lat="45.3476430" lon="6.3066340">
        <ele>453.2</ele>
        <time>2021-08-19T08:07:17Z</time>
      </trkpt>
      <trkpt lat="45.3477690" lon="6.3065780">
        <ele>453.2</ele>
        <time>2021-08-19T08:07:19Z</time>
      </trkpt>
      <trkpt lat="45.3478280" lon="6.3065700">
        <ele>453.2</ele>
        <time>2021-08-19T08:07:20Z</time>
      </trkpt>
      <trkpt lat="45.3478810" lon="6.3065860">
        <ele>453.0</ele>
        <time>2021-08-19T08:07:21Z</time>
      </trkpt>
      <trkpt lat="45.3479300" lon="6.3066220">
        <ele>453.0</ele>
        <time>2021-08-19T08:07:22Z</time>
      </trkpt>
      <trkpt lat="45.3479810" lon="6.3066620">
        <ele>453.0</ele>
        <time>2021-08-19T08:07:23Z</time>
      </trkpt>
      <trkpt lat="45.3481090" lon="6.3066890">
        <ele>452.8</ele>
        <time>2021-08-19T08:07:25Z</time>
      </trkpt>
      <trkpt lat="45.3482380" lon="6.3066410">
        <ele>452.8</ele>
        <time>2021-08-19T08:07:27Z</time>
      </trkpt>
      <trkpt lat="45.3483720" lon="6.3066100">
        <ele>452.6</ele>
        <time>2021-08-19T08:07:29Z</time>
      </trkpt>
      <trkpt lat="45.3484370" lon="6.3065920">
        <ele>452.6</ele>
        <time>2021-08-19T08:07:30Z</time>
      </trkpt>
      <trkpt lat="45.3486130" lon="6.3064820">
        <ele>452.4</ele>
        <time>2021-08-19T08:07:33Z</time>
      </trkpt>
      <trkpt lat="45.3489410" lon="6.3062740">
        <ele>452.6</ele>
        <time>2021-08-19T08:07:39Z</time>
      </trkpt>
      <trkpt lat="45.3492610" lon="6.3061170">
        <ele>454.0</ele>
        <time>2021-08-19T08:07:45Z</time>
      </trkpt>
      <trkpt lat="45.3493160" lon="6.3061120">
        <ele>454.4</ele>
        <time>2021-08-19T08:07:46Z</time>
      </trkpt>
      <trkpt lat="45.3493690" lon="6.3061200">
        <ele>454.4</ele>
        <time>2021-08-19T08:07:47Z</time>
      </trkpt>
      <trkpt lat="45.3494640" lon="6.3061880">
        <ele>455.2</ele>
        <time>2021-08-19T08:07:49Z</time>
      </trkpt>
      <trkpt lat="45.3495920" lon="6.3063310">
        <ele>456.0</ele>
        <time>2021-08-19T08:07:52Z</time>
      </trkpt>
      <trkpt lat="45.3496340" lon="6.3063810">
        <ele>456.4</ele>
        <time>2021-08-19T08:07:53Z</time>
      </trkpt>
      <trkpt lat="45.3497760" lon="6.3065130">
        <ele>456.6</ele>
        <time>2021-08-19T08:07:56Z</time>
      </trkpt>
      <trkpt lat="45.3498830" lon="6.3065780">
        <ele>456.6</ele>
        <time>2021-08-19T08:07:58Z</time>
      </trkpt>
      <trkpt lat="45.3500010" lon="6.3066270">
        <ele>456.6</ele>
        <time>2021-08-19T08:08:00Z</time>
      </trkpt>
      <trkpt lat="45.3500660" lon="6.3066370">
        <ele>456.6</ele>
        <time>2021-08-19T08:08:01Z</time>
      </trkpt>
      <trkpt lat="45.3501340" lon="6.3066350">
        <ele>456.2</ele>
        <time>2021-08-19T08:08:02Z</time>
      </trkpt>
      <trkpt lat="45.3502750" lon="6.3065960">
        <ele>455.8</ele>
        <time>2021-08-19T08:08:04Z</time>
      </trkpt>
      <trkpt lat="45.3503430" lon="6.3065570">
        <ele>455.8</ele>
        <time>2021-08-19T08:08:05Z</time>
      </trkpt>
      <trkpt lat="45.3504090" lon="6.3065040">
        <ele>455.6</ele>
        <time>2021-08-19T08:08:06Z</time>
      </trkpt>
      <trkpt lat="45.3505760" lon="6.3062830">
        <ele>455.4</ele>
        <time>2021-08-19T08:08:09Z</time>
      </trkpt>
      <trkpt lat="45.3506310" lon="6.3062010">
        <ele>455.2</ele>
        <time>2021-08-19T08:08:10Z</time>
      </trkpt>
      <trkpt lat="45.3508010" lon="6.3059690">
        <ele>454.2</ele>
        <time>2021-08-19T08:08:13Z</time>
      </trkpt>
      <trkpt lat="45.3509790" lon="6.3057380">
        <ele>452.8</ele>
        <time>2021-08-19T08:08:16Z</time>
      </trkpt>
      <trkpt lat="45.3510410" lon="6.3056660">
        <ele>452.4</ele>
        <time>2021-08-19T08:08:17Z</time>
      </trkpt>
      <trkpt lat="45.3512310" lon="6.3054430">
        <ele>451.4</ele>
        <time>2021-08-19T08:08:20Z</time>
      </trkpt>
      <trkpt lat="45.3513650" lon="6.3053210">
        <ele>451.0</ele>
        <time>2021-08-19T08:08:22Z</time>
      </trkpt>
      <trkpt lat="45.3514380" lon="6.3052860">
        <ele>450.6</ele>
        <time>2021-08-19T08:08:23Z</time>
      </trkpt>
      <trkpt lat="45.3515120" lon="6.3052690">
        <ele>450.0</ele>
        <time>2021-08-19T08:08:24Z</time>
      </trkpt>
      <trkpt lat="45.3516490" lon="6.3052700">
        <ele>449.4</ele>
        <time>2021-08-19T08:08:26Z</time>
      </trkpt>
      <trkpt lat="45.3517750" lon="6.3051980">
        <ele>449.0</ele>
        <time>2021-08-19T08:08:28Z</time>
      </trkpt>
      <trkpt lat="45.3518000" lon="6.3051360">
        <ele>449.4</ele>
        <time>2021-08-19T08:08:29Z</time>
      </trkpt>
      <trkpt lat="45.3518170" lon="6.3050510">
        <ele>449.4</ele>
        <time>2021-08-19T08:08:30Z</time>
      </trkpt>
      <trkpt lat="45.3518570" lon="6.3047770">
        <ele>449.2</ele>
        <time>2021-08-19T08:08:33Z</time>
      </trkpt>
      <trkpt lat="45.3519290" lon="6.3046160">
        <ele>449.2</ele>
        <time>2021-08-19T08:08:35Z</time>
      </trkpt>
      <trkpt lat="45.3520280" lon="6.3044900">
        <ele>449.2</ele>
        <time>2021-08-19T08:08:37Z</time>
      </trkpt>
      <trkpt lat="45.3520810" lon="6.3044300">
        <ele>449.0</ele>
        <time>2021-08-19T08:08:38Z</time>
      </trkpt>
      <trkpt lat="45.3521860" lon="6.3043140">
        <ele>449.0</ele>
        <time>2021-08-19T08:08:40Z</time>
      </trkpt>
      <trkpt lat="45.3522940" lon="6.3042100">
        <ele>448.8</ele>
        <time>2021-08-19T08:08:42Z</time>
      </trkpt>
      <trkpt lat="45.3523430" lon="6.3041710">
        <ele>448.8</ele>
        <time>2021-08-19T08:08:43Z</time>
      </trkpt>
      <trkpt lat="45.3524050" lon="6.3041360">
        <ele>448.6</ele>
        <time>2021-08-19T08:08:44Z</time>
      </trkpt>
      <trkpt lat="45.3524670" lon="6.3041060">
        <ele>448.6</ele>
        <time>2021-08-19T08:08:45Z</time>
      </trkpt>
      <trkpt lat="45.3525870" lon="6.3040470">
        <ele>448.6</ele>
        <time>2021-08-19T08:08:47Z</time>
      </trkpt>
      <trkpt lat="45.3526410" lon="6.3040080">
        <ele>448.6</ele>
        <time>2021-08-19T08:08:48Z</time>
      </trkpt>
      <trkpt lat="45.3526880" lon="6.3039590">
        <ele>448.6</ele>
        <time>2021-08-19T08:08:49Z</time>
      </trkpt>
      <trkpt lat="45.3527310" lon="6.3039060">
        <ele>448.4</ele>
        <time>2021-08-19T08:08:50Z</time>
      </trkpt>
      <trkpt lat="45.3528120" lon="6.3037890">
        <ele>448.2</ele>
        <time>2021-08-19T08:08:52Z</time>
      </trkpt>
      <trkpt lat="45.3528750" lon="6.3036540">
        <ele>448.2</ele>
        <time>2021-08-19T08:08:54Z</time>
      </trkpt>
      <trkpt lat="45.3528980" lon="6.3035820">
        <ele>448.2</ele>
        <time>2021-08-19T08:08:55Z</time>
      </trkpt>
      <trkpt lat="45.3530220" lon="6.3032490">
        <ele>448.2</ele>
        <time>2021-08-19T08:09:00Z</time>
      </trkpt>
      <trkpt lat="45.3530890" lon="6.3031480">
        <ele>448.4</ele>
        <time>2021-08-19T08:09:02Z</time>
      </trkpt>
      <trkpt lat="45.3531290" lon="6.3031050">
        <ele>448.4</ele>
        <time>2021-08-19T08:09:03Z</time>
      </trkpt>
      <trkpt lat="45.3532140" lon="6.3030390">
        <ele>448.6</ele>
        <time>2021-08-19T08:09:05Z</time>
      </trkpt>
      <trkpt lat="45.3533010" lon="6.3030120">
        <ele>449.0</ele>
        <time>2021-08-19T08:09:07Z</time>
      </trkpt>
      <trkpt lat="45.3533830" lon="6.3030190">
        <ele>449.4</ele>
        <time>2021-08-19T08:09:09Z</time>
      </trkpt>
      <trkpt lat="45.3534660" lon="6.3030260">
        <ele>450.0</ele>
        <time>2021-08-19T08:09:11Z</time>
      </trkpt>
      <trkpt lat="45.3535030" lon="6.3030020">
        <ele>450.0</ele>
        <time>2021-08-19T08:09:12Z</time>
      </trkpt>
      <trkpt lat="45.3535350" lon="6.3029630">
        <ele>450.4</ele>
        <time>2021-08-19T08:09:13Z</time>
      </trkpt>
      <trkpt lat="45.3535940" lon="6.3028780">
        <ele>450.8</ele>
        <time>2021-08-19T08:09:15Z</time>
      </trkpt>
      <trkpt lat="45.3536300" lon="6.3028480">
        <ele>451.0</ele>
        <time>2021-08-19T08:09:16Z</time>
      </trkpt>
      <trkpt lat="45.3536690" lon="6.3028320">
        <ele>451.0</ele>
        <time>2021-08-19T08:09:17Z</time>
      </trkpt>
      <trkpt lat="45.3537480" lon="6.3028260">
        <ele>451.4</ele>
        <time>2021-08-19T08:09:19Z</time>
      </trkpt>
      <trkpt lat="45.3537900" lon="6.3028230">
        <ele>451.8</ele>
        <time>2021-08-19T08:09:20Z</time>
      </trkpt>
      <trkpt lat="45.3539120" lon="6.3027940">
        <ele>452.2</ele>
        <time>2021-08-19T08:09:23Z</time>
      </trkpt>
      <trkpt lat="45.3539510" lon="6.3027870">
        <ele>452.6</ele>
        <time>2021-08-19T08:09:24Z</time>
      </trkpt>
      <trkpt lat="45.3540730" lon="6.3027650">
        <ele>453.0</ele>
        <time>2021-08-19T08:09:27Z</time>
      </trkpt>
      <trkpt lat="45.3541140" lon="6.3027650">
        <ele>453.2</ele>
        <time>2021-08-19T08:09:28Z</time>
      </trkpt>
      <trkpt lat="45.3541570" lon="6.3027610">
        <ele>453.2</ele>
        <time>2021-08-19T08:09:29Z</time>
      </trkpt>
      <trkpt lat="45.3542410" lon="6.3027410">
        <ele>453.6</ele>
        <time>2021-08-19T08:09:31Z</time>
      </trkpt>
      <trkpt lat="45.3543680" lon="6.3027260">
        <ele>454.6</ele>
        <time>2021-08-19T08:09:34Z</time>
      </trkpt>
      <trkpt lat="45.3544080" lon="6.3027170">
        <ele>454.8</ele>
        <time>2021-08-19T08:09:35Z</time>
      </trkpt>
      <trkpt lat="45.3544490" lon="6.3027100">
        <ele>454.8</ele>
        <time>2021-08-19T08:09:36Z</time>
      </trkpt>
      <trkpt lat="45.3545700" lon="6.3026980">
        <ele>455.2</ele>
        <time>2021-08-19T08:09:39Z</time>
      </trkpt>
      <trkpt lat="45.3546850" lon="6.3026800">
        <ele>455.4</ele>
        <time>2021-08-19T08:09:42Z</time>
      </trkpt>
      <trkpt lat="45.3548030" lon="6.3026560">
        <ele>456.0</ele>
        <time>2021-08-19T08:09:45Z</time>
      </trkpt>
      <trkpt lat="45.3548430" lon="6.3026470">
        <ele>456.0</ele>
        <time>2021-08-19T08:09:46Z</time>
      </trkpt>
      <trkpt lat="45.3550950" lon="6.3025990">
        <ele>456.6</ele>
        <time>2021-08-19T08:09:52Z</time>
      </trkpt>
      <trkpt lat="45.3551380" lon="6.3025940">
        <ele>456.8</ele>
        <time>2021-08-19T08:09:53Z</time>
      </trkpt>
      <trkpt lat="45.3551760" lon="6.3025840">
        <ele>457.4</ele>
        <time>2021-08-19T08:09:54Z</time>
      </trkpt>
      <trkpt lat="45.3554440" lon="6.3025490">
        <ele>458.4</ele>
        <time>2021-08-19T08:10:00Z</time>
      </trkpt>
      <trkpt lat="45.3554900" lon="6.3025370">
        <ele>458.6</ele>
        <time>2021-08-19T08:10:01Z</time>
      </trkpt>
      <trkpt lat="45.3557410" lon="6.3024840">
        <ele>459.6</ele>
        <time>2021-08-19T08:10:07Z</time>
      </trkpt>
      <trkpt lat="45.3558230" lon="6.3024700">
        <ele>460.0</ele>
        <time>2021-08-19T08:10:09Z</time>
      </trkpt>
      <trkpt lat="45.3559030" lon="6.3024550">
        <ele>460.2</ele>
        <time>2021-08-19T08:10:11Z</time>
      </trkpt>
      <trkpt lat="45.3560590" lon="6.3024320">
        <ele>460.6</ele>
        <time>2021-08-19T08:10:15Z</time>
      </trkpt>
      <trkpt lat="45.3560980" lon="6.3024250">
        <ele>460.8</ele>
        <time>2021-08-19T08:10:16Z</time>
      </trkpt>
      <trkpt lat="45.3562640" lon="6.3023700">
        <ele>462.0</ele>
        <time>2021-08-19T08:10:20Z</time>
      </trkpt>
      <trkpt lat="45.3563420" lon="6.3023440">
        <ele>462.2</ele>
        <time>2021-08-19T08:10:22Z</time>
      </trkpt>
      <trkpt lat="45.3564180" lon="6.3023250">
        <ele>462.6</ele>
        <time>2021-08-19T08:10:24Z</time>
      </trkpt>
      <trkpt lat="45.3564540" lon="6.3023170">
        <ele>462.8</ele>
        <time>2021-08-19T08:10:25Z</time>
      </trkpt>
      <trkpt lat="45.3565240" lon="6.3023140">
        <ele>463.0</ele>
        <time>2021-08-19T08:10:27Z</time>
      </trkpt>
      <trkpt lat="45.3565560" lon="6.3023220">
        <ele>463.2</ele>
        <time>2021-08-19T08:10:28Z</time>
      </trkpt>
      <trkpt lat="45.3565840" lon="6.3023330">
        <ele>463.6</ele>
        <time>2021-08-19T08:10:29Z</time>
      </trkpt>
      <trkpt lat="45.3566100" lon="6.3023510">
        <ele>464.0</ele>
        <time>2021-08-19T08:10:30Z</time>
      </trkpt>
      <trkpt lat="45.3566300" lon="6.3023750">
        <ele>464.6</ele>
        <time>2021-08-19T08:10:31Z</time>
      </trkpt>
      <trkpt lat="45.3566610" lon="6.3024210">
        <ele>464.8</ele>
        <time>2021-08-19T08:10:33Z</time>
      </trkpt>
      <trkpt lat="45.3566820" lon="6.3024270">
        <ele>465.0</ele>
        <time>2021-08-19T08:10:34Z</time>
      </trkpt>
      <trkpt lat="45.3566980" lon="6.3024170">
        <ele>465.0</ele>
        <time>2021-08-19T08:10:35Z</time>
      </trkpt>
      <trkpt lat="45.3567190" lon="6.3023420">
        <ele>465.4</ele>
        <time>2021-08-19T08:10:38Z</time>
      </trkpt>
      <trkpt lat="45.3567210" lon="6.3022960">
        <ele>465.4</ele>
        <time>2021-08-19T08:10:39Z</time>
      </trkpt>
      <trkpt lat="45.3567200" lon="6.3022440">
        <ele>465.6</ele>
        <time>2021-08-19T08:10:40Z</time>
      </trkpt>
      <trkpt lat="45.3567110" lon="6.3020580">
        <ele>466.6</ele>
        <time>2021-08-19T08:10:44Z</time>
      </trkpt>
      <trkpt lat="45.3567340" lon="6.3019610">
        <ele>466.6</ele>
        <time>2021-08-19T08:10:46Z</time>
      </trkpt>
      <trkpt lat="45.3567530" lon="6.3019200">
        <ele>466.8</ele>
        <time>2021-08-19T08:10:47Z</time>
      </trkpt>
      <trkpt lat="45.3567730" lon="6.3018780">
        <ele>466.8</ele>
        <time>2021-08-19T08:10:48Z</time>
      </trkpt>
      <trkpt lat="45.3569100" lon="6.3016340">
        <ele>467.0</ele>
        <time>2021-08-19T08:10:54Z</time>
      </trkpt>
      <trkpt lat="45.3570500" lon="6.3014390">
        <ele>467.8</ele>
        <time>2021-08-19T08:10:59Z</time>
      </trkpt>
      <trkpt lat="45.3571490" lon="6.3013430">
        <ele>468.2</ele>
        <time>2021-08-19T08:11:02Z</time>
      </trkpt>
      <trkpt lat="45.3572540" lon="6.3012600">
        <ele>468.8</ele>
        <time>2021-08-19T08:11:05Z</time>
      </trkpt>
      <trkpt lat="45.3574130" lon="6.3011710">
        <ele>469.4</ele>
        <time>2021-08-19T08:11:09Z</time>
      </trkpt>
      <trkpt lat="45.3575760" lon="6.3010700">
        <ele>470.0</ele>
        <time>2021-08-19T08:11:13Z</time>
      </trkpt>
      <trkpt lat="45.3576920" lon="6.3009800">
        <ele>470.2</ele>
        <time>2021-08-19T08:11:16Z</time>
      </trkpt>
      <trkpt lat="45.3577290" lon="6.3009470">
        <ele>470.2</ele>
        <time>2021-08-19T08:11:17Z</time>
      </trkpt>
      <trkpt lat="45.3577670" lon="6.3009140">
        <ele>470.4</ele>
        <time>2021-08-19T08:11:18Z</time>
      </trkpt>
      <trkpt lat="45.3579520" lon="6.3007380">
        <ele>471.0</ele>
        <time>2021-08-19T08:11:23Z</time>
      </trkpt>
      <trkpt lat="45.3581060" lon="6.3005900">
        <ele>471.6</ele>
        <time>2021-08-19T08:11:27Z</time>
      </trkpt>
      <trkpt lat="45.3582220" lon="6.3004680">
        <ele>472.2</ele>
        <time>2021-08-19T08:11:30Z</time>
      </trkpt>
      <trkpt lat="45.3583430" lon="6.3003520">
        <ele>472.4</ele>
        <time>2021-08-19T08:11:33Z</time>
      </trkpt>
      <trkpt lat="45.3584270" lon="6.3002760">
        <ele>472.4</ele>
        <time>2021-08-19T08:11:35Z</time>
      </trkpt>
      <trkpt lat="45.3584670" lon="6.3002340">
        <ele>472.4</ele>
        <time>2021-08-19T08:11:36Z</time>
      </trkpt>
      <trkpt lat="45.3585080" lon="6.3001950">
        <ele>472.4</ele>
        <time>2021-08-19T08:11:37Z</time>
      </trkpt>
      <trkpt lat="45.3585490" lon="6.3001570">
        <ele>472.4</ele>
        <time>2021-08-19T08:11:38Z</time>
      </trkpt>
      <trkpt lat="45.3585870" lon="6.3001140">
        <ele>472.4</ele>
        <time>2021-08-19T08:11:39Z</time>
      </trkpt>
      <trkpt lat="45.3586250" lon="6.3000670">
        <ele>472.4</ele>
        <time>2021-08-19T08:11:40Z</time>
      </trkpt>
      <trkpt lat="45.3586600" lon="6.3000170">
        <ele>472.4</ele>
        <time>2021-08-19T08:11:41Z</time>
      </trkpt>
      <trkpt lat="45.3586960" lon="6.2999670">
        <ele>472.4</ele>
        <time>2021-08-19T08:11:42Z</time>
      </trkpt>
      <trkpt lat="45.3587900" lon="6.2998880">
        <ele>472.4</ele>
        <time>2021-08-19T08:11:44Z</time>
      </trkpt>
      <trkpt lat="45.3588960" lon="6.2998540">
        <ele>472.2</ele>
        <time>2021-08-19T08:11:46Z</time>
      </trkpt>
      <trkpt lat="45.3589480" lon="6.2998470">
        <ele>472.2</ele>
        <time>2021-08-19T08:11:47Z</time>
      </trkpt>
      <trkpt lat="45.3589970" lon="6.2998330">
        <ele>472.2</ele>
        <time>2021-08-19T08:11:48Z</time>
      </trkpt>
      <trkpt lat="45.3591290" lon="6.2997580">
        <ele>472.2</ele>
        <time>2021-08-19T08:11:51Z</time>
      </trkpt>
      <trkpt lat="45.3591720" lon="6.2997330">
        <ele>472.2</ele>
        <time>2021-08-19T08:11:52Z</time>
      </trkpt>
      <trkpt lat="45.3592560" lon="6.2996760">
        <ele>472.2</ele>
        <time>2021-08-19T08:11:54Z</time>
      </trkpt>
      <trkpt lat="45.3594600" lon="6.2995250">
        <ele>472.0</ele>
        <time>2021-08-19T08:11:59Z</time>
      </trkpt>
      <trkpt lat="45.3596140" lon="6.2994150">
        <ele>472.0</ele>
        <time>2021-08-19T08:12:04Z</time>
      </trkpt>
      <trkpt lat="45.3597290" lon="6.2994220">
        <ele>472.0</ele>
        <time>2021-08-19T08:12:08Z</time>
      </trkpt>
      <trkpt lat="45.3598130" lon="6.2995720">
        <ele>472.0</ele>
        <time>2021-08-19T08:12:12Z</time>
      </trkpt>
      <trkpt lat="45.3599110" lon="6.2998270">
        <ele>472.2</ele>
        <time>2021-08-19T08:12:17Z</time>
      </trkpt>
      <trkpt lat="45.3600340" lon="6.3000570">
        <ele>473.2</ele>
        <time>2021-08-19T08:12:22Z</time>
      </trkpt>
      <trkpt lat="45.3600570" lon="6.3001030">
        <ele>473.2</ele>
        <time>2021-08-19T08:12:23Z</time>
      </trkpt>
      <trkpt lat="45.3600810" lon="6.3001600">
        <ele>473.4</ele>
        <time>2021-08-19T08:12:24Z</time>
      </trkpt>
      <trkpt lat="45.3601160" lon="6.3002470">
        <ele>474.2</ele>
        <time>2021-08-19T08:12:26Z</time>
      </trkpt>
      <trkpt lat="45.3601380" lon="6.3002930">
        <ele>474.6</ele>
        <time>2021-08-19T08:12:27Z</time>
      </trkpt>
      <trkpt lat="45.3601610" lon="6.3003380">
        <ele>474.8</ele>
        <time>2021-08-19T08:12:28Z</time>
      </trkpt>
      <trkpt lat="45.3602020" lon="6.3004190">
        <ele>475.0</ele>
        <time>2021-08-19T08:12:30Z</time>
      </trkpt>
      <trkpt lat="45.3602180" lon="6.3004530">
        <ele>475.4</ele>
        <time>2021-08-19T08:12:31Z</time>
      </trkpt>
      <trkpt lat="45.3602720" lon="6.3005540">
        <ele>475.6</ele>
        <time>2021-08-19T08:12:34Z</time>
      </trkpt>
      <trkpt lat="45.3603290" lon="6.3006690">
        <ele>476.4</ele>
        <time>2021-08-19T08:12:37Z</time>
      </trkpt>
      <trkpt lat="45.3603510" lon="6.3007100">
        <ele>476.6</ele>
        <time>2021-08-19T08:12:38Z</time>
      </trkpt>
      <trkpt lat="45.3604550" lon="6.3009120">
        <ele>477.6</ele>
        <time>2021-08-19T08:12:43Z</time>
      </trkpt>
      <trkpt lat="45.3604760" lon="6.3009540">
        <ele>477.6</ele>
        <time>2021-08-19T08:12:44Z</time>
      </trkpt>
      <trkpt lat="45.3605310" lon="6.3010870">
        <ele>477.8</ele>
        <time>2021-08-19T08:12:47Z</time>
      </trkpt>
      <trkpt lat="45.3606200" lon="6.3012910">
        <ele>478.4</ele>
        <time>2021-08-19T08:12:52Z</time>
      </trkpt>
      <trkpt lat="45.3606400" lon="6.3013310">
        <ele>478.6</ele>
        <time>2021-08-19T08:12:53Z</time>
      </trkpt>
      <trkpt lat="45.3606590" lon="6.3013710">
        <ele>478.8</ele>
        <time>2021-08-19T08:12:54Z</time>
      </trkpt>
      <trkpt lat="45.3606770" lon="6.3014110">
        <ele>478.8</ele>
        <time>2021-08-19T08:12:55Z</time>
      </trkpt>
      <trkpt lat="45.3607140" lon="6.3014890">
        <ele>479.0</ele>
        <time>2021-08-19T08:12:57Z</time>
      </trkpt>
      <trkpt lat="45.3607490" lon="6.3015690">
        <ele>479.6</ele>
        <time>2021-08-19T08:12:59Z</time>
      </trkpt>
      <trkpt lat="45.3607680" lon="6.3016090">
        <ele>480.2</ele>
        <time>2021-08-19T08:13:00Z</time>
      </trkpt>
      <trkpt lat="45.3607840" lon="6.3016500">
        <ele>480.6</ele>
        <time>2021-08-19T08:13:01Z</time>
      </trkpt>
      <trkpt lat="45.3608020" lon="6.3016940">
        <ele>480.8</ele>
        <time>2021-08-19T08:13:02Z</time>
      </trkpt>
      <trkpt lat="45.3608210" lon="6.3017370">
        <ele>480.8</ele>
        <time>2021-08-19T08:13:03Z</time>
      </trkpt>
      <trkpt lat="45.3608800" lon="6.3018700">
        <ele>481.4</ele>
        <time>2021-08-19T08:13:06Z</time>
      </trkpt>
      <trkpt lat="45.3610410" lon="6.3022340">
        <ele>482.2</ele>
        <time>2021-08-19T08:13:14Z</time>
      </trkpt>
      <trkpt lat="45.3610610" lon="6.3022780">
        <ele>482.4</ele>
        <time>2021-08-19T08:13:15Z</time>
      </trkpt>
      <trkpt lat="45.3611440" lon="6.3024520">
        <ele>483.6</ele>
        <time>2021-08-19T08:13:19Z</time>
      </trkpt>
      <trkpt lat="45.3611800" lon="6.3025470">
        <ele>484.0</ele>
        <time>2021-08-19T08:13:21Z</time>
      </trkpt>
      <trkpt lat="45.3612910" lon="6.3027630">
        <ele>484.6</ele>
        <time>2021-08-19T08:13:26Z</time>
      </trkpt>
      <trkpt lat="45.3613660" lon="6.3029390">
        <ele>485.2</ele>
        <time>2021-08-19T08:13:30Z</time>
      </trkpt>
      <trkpt lat="45.3614460" lon="6.3030980">
        <ele>486.0</ele>
        <time>2021-08-19T08:13:34Z</time>
      </trkpt>
      <trkpt lat="45.3614890" lon="6.3031830">
        <ele>486.6</ele>
        <time>2021-08-19T08:13:36Z</time>
      </trkpt>
      <trkpt lat="45.3615300" lon="6.3032680">
        <ele>487.0</ele>
        <time>2021-08-19T08:13:38Z</time>
      </trkpt>
      <trkpt lat="45.3615500" lon="6.3033120">
        <ele>487.2</ele>
        <time>2021-08-19T08:13:39Z</time>
      </trkpt>
      <trkpt lat="45.3615700" lon="6.3033550">
        <ele>487.4</ele>
        <time>2021-08-19T08:13:40Z</time>
      </trkpt>
      <trkpt lat="45.3616080" lon="6.3034420">
        <ele>487.8</ele>
        <time>2021-08-19T08:13:42Z</time>
      </trkpt>
      <trkpt lat="45.3616510" lon="6.3035190">
        <ele>488.2</ele>
        <time>2021-08-19T08:13:44Z</time>
      </trkpt>
      <trkpt lat="45.3616740" lon="6.3035550">
        <ele>488.6</ele>
        <time>2021-08-19T08:13:45Z</time>
      </trkpt>
      <trkpt lat="45.3617180" lon="6.3036310">
        <ele>488.8</ele>
        <time>2021-08-19T08:13:47Z</time>
      </trkpt>
      <trkpt lat="45.3617870" lon="6.3037410">
        <ele>489.2</ele>
        <time>2021-08-19T08:13:50Z</time>
      </trkpt>
      <trkpt lat="45.3618830" lon="6.3038720">
        <ele>490.2</ele>
        <time>2021-08-19T08:13:54Z</time>
      </trkpt>
      <trkpt lat="45.3619070" lon="6.3039070">
        <ele>490.2</ele>
        <time>2021-08-19T08:13:55Z</time>
      </trkpt>
      <trkpt lat="45.3619300" lon="6.3039410">
        <ele>490.6</ele>
        <time>2021-08-19T08:13:56Z</time>
      </trkpt>
      <trkpt lat="45.3619530" lon="6.3039760">
        <ele>490.6</ele>
        <time>2021-08-19T08:13:57Z</time>
      </trkpt>
      <trkpt lat="45.3619770" lon="6.3040090">
        <ele>490.8</ele>
        <time>2021-08-19T08:13:58Z</time>
      </trkpt>
      <trkpt lat="45.3620030" lon="6.3040420">
        <ele>490.8</ele>
        <time>2021-08-19T08:13:59Z</time>
      </trkpt>
      <trkpt lat="45.3620260" lon="6.3040740">
        <ele>491.2</ele>
        <time>2021-08-19T08:14:00Z</time>
      </trkpt>
      <trkpt lat="45.3620500" lon="6.3041090">
        <ele>491.4</ele>
        <time>2021-08-19T08:14:01Z</time>
      </trkpt>
      <trkpt lat="45.3621710" lon="6.3042820">
        <ele>492.4</ele>
        <time>2021-08-19T08:14:06Z</time>
      </trkpt>
      <trkpt lat="45.3621960" lon="6.3043160">
        <ele>492.6</ele>
        <time>2021-08-19T08:14:07Z</time>
      </trkpt>
      <trkpt lat="45.3622210" lon="6.3043500">
        <ele>492.6</ele>
        <time>2021-08-19T08:14:08Z</time>
      </trkpt>
      <trkpt lat="45.3622930" lon="6.3044540">
        <ele>493.4</ele>
        <time>2021-08-19T08:14:11Z</time>
      </trkpt>
      <trkpt lat="45.3623430" lon="6.3045220">
        <ele>493.4</ele>
        <time>2021-08-19T08:14:13Z</time>
      </trkpt>
      <trkpt lat="45.3623930" lon="6.3045940">
        <ele>493.8</ele>
        <time>2021-08-19T08:14:15Z</time>
      </trkpt>
      <trkpt lat="45.3624170" lon="6.3046330">
        <ele>494.0</ele>
        <time>2021-08-19T08:14:16Z</time>
      </trkpt>
      <trkpt lat="45.3624400" lon="6.3046730">
        <ele>494.0</ele>
        <time>2021-08-19T08:14:17Z</time>
      </trkpt>
      <trkpt lat="45.3624640" lon="6.3047160">
        <ele>494.0</ele>
        <time>2021-08-19T08:14:18Z</time>
      </trkpt>
      <trkpt lat="45.3625360" lon="6.3048350">
        <ele>494.6</ele>
        <time>2021-08-19T08:14:21Z</time>
      </trkpt>
      <trkpt lat="45.3625570" lon="6.3048750">
        <ele>495.0</ele>
        <time>2021-08-19T08:14:22Z</time>
      </trkpt>
      <trkpt lat="45.3626260" lon="6.3049960">
        <ele>495.8</ele>
        <time>2021-08-19T08:14:25Z</time>
      </trkpt>
      <trkpt lat="45.3626720" lon="6.3050740">
        <ele>496.2</ele>
        <time>2021-08-19T08:14:27Z</time>
      </trkpt>
      <trkpt lat="45.3626940" lon="6.3051140">
        <ele>496.4</ele>
        <time>2021-08-19T08:14:28Z</time>
      </trkpt>
      <trkpt lat="45.3627160" lon="6.3051560">
        <ele>496.6</ele>
        <time>2021-08-19T08:14:29Z</time>
      </trkpt>
      <trkpt lat="45.3627370" lon="6.3051960">
        <ele>496.6</ele>
        <time>2021-08-19T08:14:30Z</time>
      </trkpt>
      <trkpt lat="45.3627780" lon="6.3052720">
        <ele>496.8</ele>
        <time>2021-08-19T08:14:32Z</time>
      </trkpt>
      <trkpt lat="45.3628180" lon="6.3053450">
        <ele>497.6</ele>
        <time>2021-08-19T08:14:34Z</time>
      </trkpt>
      <trkpt lat="45.3628550" lon="6.3054170">
        <ele>498.2</ele>
        <time>2021-08-19T08:14:36Z</time>
      </trkpt>
      <trkpt lat="45.3628890" lon="6.3054870">
        <ele>498.6</ele>
        <time>2021-08-19T08:14:38Z</time>
      </trkpt>
      <trkpt lat="45.3629550" lon="6.3056310">
        <ele>499.6</ele>
        <time>2021-08-19T08:14:42Z</time>
      </trkpt>
      <trkpt lat="45.3629710" lon="6.3056680">
        <ele>499.8</ele>
        <time>2021-08-19T08:14:43Z</time>
      </trkpt>
      <trkpt lat="45.3629870" lon="6.3057050">
        <ele>500.0</ele>
        <time>2021-08-19T08:14:44Z</time>
      </trkpt>
      <trkpt lat="45.3630180" lon="6.3057770">
        <ele>500.2</ele>
        <time>2021-08-19T08:14:46Z</time>
      </trkpt>
      <trkpt lat="45.3630650" lon="6.3058850">
        <ele>501.0</ele>
        <time>2021-08-19T08:14:49Z</time>
      </trkpt>
      <trkpt lat="45.3631580" lon="6.3061100">
        <ele>501.6</ele>
        <time>2021-08-19T08:14:55Z</time>
      </trkpt>
      <trkpt lat="45.3631840" lon="6.3061880">
        <ele>502.2</ele>
        <time>2021-08-19T08:14:57Z</time>
      </trkpt>
      <trkpt lat="45.3632680" lon="6.3064230">
        <ele>503.2</ele>
        <time>2021-08-19T08:15:03Z</time>
      </trkpt>
      <trkpt lat="45.3632810" lon="6.3064640">
        <ele>503.4</ele>
        <time>2021-08-19T08:15:04Z</time>
      </trkpt>
      <trkpt lat="45.3633190" lon="6.3065930">
        <ele>504.0</ele>
        <time>2021-08-19T08:15:07Z</time>
      </trkpt>
      <trkpt lat="45.3633320" lon="6.3066320">
        <ele>504.4</ele>
        <time>2021-08-19T08:15:08Z</time>
      </trkpt>
      <trkpt lat="45.3633670" lon="6.3067490">
        <ele>505.6</ele>
        <time>2021-08-19T08:15:11Z</time>
      </trkpt>
      <trkpt lat="45.3633950" lon="6.3068270">
        <ele>506.0</ele>
        <time>2021-08-19T08:15:13Z</time>
      </trkpt>
      <trkpt lat="45.3634200" lon="6.3069070">
        <ele>506.2</ele>
        <time>2021-08-19T08:15:15Z</time>
      </trkpt>
      <trkpt lat="45.3634720" lon="6.3070600">
        <ele>506.6</ele>
        <time>2021-08-19T08:15:19Z</time>
      </trkpt>
      <trkpt lat="45.3635010" lon="6.3071470">
        <ele>507.0</ele>
        <time>2021-08-19T08:15:21Z</time>
      </trkpt>
      <trkpt lat="45.3635280" lon="6.3072260">
        <ele>507.4</ele>
        <time>2021-08-19T08:15:23Z</time>
      </trkpt>
      <trkpt lat="45.3635420" lon="6.3072650">
        <ele>508.2</ele>
        <time>2021-08-19T08:15:24Z</time>
      </trkpt>
      <trkpt lat="45.3635920" lon="6.3074250">
        <ele>509.2</ele>
        <time>2021-08-19T08:15:28Z</time>
      </trkpt>
      <trkpt lat="45.3636160" lon="6.3075160">
        <ele>509.6</ele>
        <time>2021-08-19T08:15:30Z</time>
      </trkpt>
      <trkpt lat="45.3636740" lon="6.3077160">
        <ele>510.4</ele>
        <time>2021-08-19T08:15:35Z</time>
      </trkpt>
      <trkpt lat="45.3636990" lon="6.3077860">
        <ele>510.6</ele>
        <time>2021-08-19T08:15:37Z</time>
      </trkpt>
      <trkpt lat="45.3637480" lon="6.3079440">
        <ele>511.4</ele>
        <time>2021-08-19T08:15:41Z</time>
      </trkpt>
      <trkpt lat="45.3637970" lon="6.3080990">
        <ele>512.6</ele>
        <time>2021-08-19T08:15:45Z</time>
      </trkpt>
      <trkpt lat="45.3638100" lon="6.3081290">
        <ele>512.8</ele>
        <time>2021-08-19T08:15:46Z</time>
      </trkpt>
      <trkpt lat="45.3638560" lon="6.3082830">
        <ele>513.8</ele>
        <time>2021-08-19T08:15:50Z</time>
      </trkpt>
      <trkpt lat="45.3638720" lon="6.3083500">
        <ele>514.6</ele>
        <time>2021-08-19T08:15:52Z</time>
      </trkpt>
      <trkpt lat="45.3638850" lon="6.3083930">
        <ele>514.8</ele>
        <time>2021-08-19T08:15:53Z</time>
      </trkpt>
      <trkpt lat="45.3639480" lon="6.3085860">
        <ele>516.0</ele>
        <time>2021-08-19T08:15:58Z</time>
      </trkpt>
      <trkpt lat="45.3639680" lon="6.3086630">
        <ele>516.4</ele>
        <time>2021-08-19T08:16:00Z</time>
      </trkpt>
      <trkpt lat="45.3639930" lon="6.3087300">
        <ele>517.0</ele>
        <time>2021-08-19T08:16:02Z</time>
      </trkpt>
      <trkpt lat="45.3640330" lon="6.3089080">
        <ele>518.4</ele>
        <time>2021-08-19T08:16:07Z</time>
      </trkpt>
      <trkpt lat="45.3640430" lon="6.3089420">
        <ele>518.6</ele>
        <time>2021-08-19T08:16:08Z</time>
      </trkpt>
      <trkpt lat="45.3640680" lon="6.3091330">
        <ele>519.4</ele>
        <time>2021-08-19T08:16:13Z</time>
      </trkpt>
      <trkpt lat="45.3640740" lon="6.3091710">
        <ele>519.6</ele>
        <time>2021-08-19T08:16:14Z</time>
      </trkpt>
      <trkpt lat="45.3640820" lon="6.3092370">
        <ele>520.0</ele>
        <time>2021-08-19T08:16:16Z</time>
      </trkpt>
      <trkpt lat="45.3640910" lon="6.3093220">
        <ele>520.4</ele>
        <time>2021-08-19T08:16:18Z</time>
      </trkpt>
      <trkpt lat="45.3640980" lon="6.3093960">
        <ele>520.8</ele>
        <time>2021-08-19T08:16:20Z</time>
      </trkpt>
      <trkpt lat="45.3641000" lon="6.3094350">
        <ele>521.0</ele>
        <time>2021-08-19T08:16:21Z</time>
      </trkpt>
      <trkpt lat="45.3641070" lon="6.3095490">
        <ele>522.0</ele>
        <time>2021-08-19T08:16:24Z</time>
      </trkpt>
      <trkpt lat="45.3641280" lon="6.3097300">
        <ele>523.2</ele>
        <time>2021-08-19T08:16:29Z</time>
      </trkpt>
      <trkpt lat="45.3641370" lon="6.3098490">
        <ele>523.6</ele>
        <time>2021-08-19T08:16:32Z</time>
      </trkpt>
      <trkpt lat="45.3641450" lon="6.3099540">
        <ele>524.4</ele>
        <time>2021-08-19T08:16:35Z</time>
      </trkpt>
      <trkpt lat="45.3641620" lon="6.3101780">
        <ele>525.2</ele>
        <time>2021-08-19T08:16:41Z</time>
      </trkpt>
      <trkpt lat="45.3641650" lon="6.3102170">
        <ele>525.2</ele>
        <time>2021-08-19T08:16:42Z</time>
      </trkpt>
      <trkpt lat="45.3641660" lon="6.3102580">
        <ele>525.4</ele>
        <time>2021-08-19T08:16:43Z</time>
      </trkpt>
      <trkpt lat="45.3641660" lon="6.3102960">
        <ele>525.6</ele>
        <time>2021-08-19T08:16:44Z</time>
      </trkpt>
      <trkpt lat="45.3641670" lon="6.3103330">
        <ele>525.8</ele>
        <time>2021-08-19T08:16:45Z</time>
      </trkpt>
      <trkpt lat="45.3641730" lon="6.3104070">
        <ele>526.6</ele>
        <time>2021-08-19T08:16:47Z</time>
      </trkpt>
      <trkpt lat="45.3641770" lon="6.3104440">
        <ele>526.6</ele>
        <time>2021-08-19T08:16:48Z</time>
      </trkpt>
      <trkpt lat="45.3641790" lon="6.3104770">
        <ele>527.0</ele>
        <time>2021-08-19T08:16:49Z</time>
      </trkpt>
      <trkpt lat="45.3641790" lon="6.3105470">
        <ele>527.6</ele>
        <time>2021-08-19T08:16:51Z</time>
      </trkpt>
      <trkpt lat="45.3641850" lon="6.3106890">
        <ele>528.4</ele>
        <time>2021-08-19T08:16:55Z</time>
      </trkpt>
      <trkpt lat="45.3641870" lon="6.3107240">
        <ele>528.6</ele>
        <time>2021-08-19T08:16:56Z</time>
      </trkpt>
      <trkpt lat="45.3641900" lon="6.3108730">
        <ele>529.6</ele>
        <time>2021-08-19T08:17:00Z</time>
      </trkpt>
      <trkpt lat="45.3641900" lon="6.3110570">
        <ele>530.6</ele>
        <time>2021-08-19T08:17:05Z</time>
      </trkpt>
      <trkpt lat="45.3641890" lon="6.3110950">
        <ele>531.0</ele>
        <time>2021-08-19T08:17:06Z</time>
      </trkpt>
      <trkpt lat="45.3641830" lon="6.3112690">
        <ele>532.2</ele>
        <time>2021-08-19T08:17:11Z</time>
      </trkpt>
      <trkpt lat="45.3641790" lon="6.3114040">
        <ele>533.0</ele>
        <time>2021-08-19T08:17:15Z</time>
      </trkpt>
      <trkpt lat="45.3641790" lon="6.3114340">
        <ele>533.2</ele>
        <time>2021-08-19T08:17:16Z</time>
      </trkpt>
      <trkpt lat="45.3641710" lon="6.3115630">
        <ele>533.8</ele>
        <time>2021-08-19T08:17:20Z</time>
      </trkpt>
      <trkpt lat="45.3641690" lon="6.3115960">
        <ele>534.2</ele>
        <time>2021-08-19T08:17:21Z</time>
      </trkpt>
      <trkpt lat="45.3641660" lon="6.3116650">
        <ele>534.6</ele>
        <time>2021-08-19T08:17:23Z</time>
      </trkpt>
      <trkpt lat="45.3641540" lon="6.3117980">
        <ele>535.2</ele>
        <time>2021-08-19T08:17:27Z</time>
      </trkpt>
      <trkpt lat="45.3641500" lon="6.3118970">
        <ele>536.2</ele>
        <time>2021-08-19T08:17:30Z</time>
      </trkpt>
      <trkpt lat="45.3641430" lon="6.3119670">
        <ele>537.0</ele>
        <time>2021-08-19T08:17:32Z</time>
      </trkpt>
      <trkpt lat="45.3641420" lon="6.3120010">
        <ele>537.4</ele>
        <time>2021-08-19T08:17:33Z</time>
      </trkpt>
      <trkpt lat="45.3641270" lon="6.3121350">
        <ele>538.0</ele>
        <time>2021-08-19T08:17:37Z</time>
      </trkpt>
      <trkpt lat="45.3641260" lon="6.3122010">
        <ele>538.4</ele>
        <time>2021-08-19T08:17:39Z</time>
      </trkpt>
      <trkpt lat="45.3641130" lon="6.3123680">
        <ele>539.4</ele>
        <time>2021-08-19T08:17:44Z</time>
      </trkpt>
      <trkpt lat="45.3640970" lon="6.3125010">
        <ele>540.6</ele>
        <time>2021-08-19T08:17:48Z</time>
      </trkpt>
      <trkpt lat="45.3640780" lon="6.3127210">
        <ele>541.4</ele>
        <time>2021-08-19T08:17:55Z</time>
      </trkpt>
      <trkpt lat="45.3640760" lon="6.3127520">
        <ele>541.8</ele>
        <time>2021-08-19T08:17:56Z</time>
      </trkpt>
      <trkpt lat="45.3640710" lon="6.3128420">
        <ele>543.0</ele>
        <time>2021-08-19T08:17:59Z</time>
      </trkpt>
      <trkpt lat="45.3640510" lon="6.3129990">
        <ele>543.6</ele>
        <time>2021-08-19T08:18:04Z</time>
      </trkpt>
      <trkpt lat="45.3640470" lon="6.3130910">
        <ele>544.2</ele>
        <time>2021-08-19T08:18:07Z</time>
      </trkpt>
      <trkpt lat="45.3640380" lon="6.3132790">
        <ele>545.2</ele>
        <time>2021-08-19T08:18:13Z</time>
      </trkpt>
      <trkpt lat="45.3640300" lon="6.3134140">
        <ele>546.2</ele>
        <time>2021-08-19T08:18:17Z</time>
      </trkpt>
      <trkpt lat="45.3640270" lon="6.3135120">
        <ele>547.0</ele>
        <time>2021-08-19T08:18:20Z</time>
      </trkpt>
      <trkpt lat="45.3640270" lon="6.3135510">
        <ele>547.2</ele>
        <time>2021-08-19T08:18:21Z</time>
      </trkpt>
      <trkpt lat="45.3640260" lon="6.3135770">
        <ele>547.6</ele>
        <time>2021-08-19T08:18:22Z</time>
      </trkpt>
      <trkpt lat="45.3640210" lon="6.3136720">
        <ele>548.4</ele>
        <time>2021-08-19T08:18:25Z</time>
      </trkpt>
      <trkpt lat="45.3640180" lon="6.3138550">
        <ele>549.8</ele>
        <time>2021-08-19T08:18:31Z</time>
      </trkpt>
      <trkpt lat="45.3640310" lon="6.3140430">
        <ele>551.0</ele>
        <time>2021-08-19T08:18:37Z</time>
      </trkpt>
      <trkpt lat="45.3640390" lon="6.3141430">
        <ele>551.8</ele>
        <time>2021-08-19T08:18:40Z</time>
      </trkpt>
      <trkpt lat="45.3640410" lon="6.3141700">
        <ele>552.2</ele>
        <time>2021-08-19T08:18:41Z</time>
      </trkpt>
      <trkpt lat="45.3640830" lon="6.3144310">
        <ele>553.6</ele>
        <time>2021-08-19T08:18:49Z</time>
      </trkpt>
      <trkpt lat="45.3640910" lon="6.3144630">
        <ele>553.6</ele>
        <time>2021-08-19T08:18:50Z</time>
      </trkpt>
      <trkpt lat="45.3641120" lon="6.3145600">
        <ele>554.6</ele>
        <time>2021-08-19T08:18:53Z</time>
      </trkpt>
      <trkpt lat="45.3641380" lon="6.3146810">
        <ele>555.6</ele>
        <time>2021-08-19T08:18:57Z</time>
      </trkpt>
      <trkpt lat="45.3641630" lon="6.3148100">
        <ele>556.4</ele>
        <time>2021-08-19T08:19:01Z</time>
      </trkpt>
      <trkpt lat="45.3641680" lon="6.3148420">
        <ele>556.6</ele>
        <time>2021-08-19T08:19:02Z</time>
      </trkpt>
      <trkpt lat="45.3641980" lon="6.3150730">
        <ele>557.8</ele>
        <time>2021-08-19T08:19:09Z</time>
      </trkpt>
      <trkpt lat="45.3642050" lon="6.3151380">
        <ele>558.4</ele>
        <time>2021-08-19T08:19:11Z</time>
      </trkpt>
      <trkpt lat="45.3642230" lon="6.3152720">
        <ele>559.2</ele>
        <time>2021-08-19T08:19:15Z</time>
      </trkpt>
      <trkpt lat="45.3642310" lon="6.3154040">
        <ele>560.2</ele>
        <time>2021-08-19T08:19:19Z</time>
      </trkpt>
      <trkpt lat="45.3642370" lon="6.3154620">
        <ele>560.6</ele>
        <time>2021-08-19T08:19:21Z</time>
      </trkpt>
      <trkpt lat="45.3642510" lon="6.3155860">
        <ele>561.0</ele>
        <time>2021-08-19T08:19:25Z</time>
      </trkpt>
      <trkpt lat="45.3642560" lon="6.3156180">
        <ele>561.2</ele>
        <time>2021-08-19T08:19:26Z</time>
      </trkpt>
      <trkpt lat="45.3642720" lon="6.3157100">
        <ele>562.2</ele>
        <time>2021-08-19T08:19:29Z</time>
      </trkpt>
      <trkpt lat="45.3642840" lon="6.3158380">
        <ele>563.4</ele>
        <time>2021-08-19T08:19:33Z</time>
      </trkpt>
      <trkpt lat="45.3642870" lon="6.3158630">
        <ele>563.4</ele>
        <time>2021-08-19T08:19:34Z</time>
      </trkpt>
      <trkpt lat="45.3642910" lon="6.3158920">
        <ele>563.6</ele>
        <time>2021-08-19T08:19:35Z</time>
      </trkpt>
      <trkpt lat="45.3642950" lon="6.3159220">
        <ele>563.6</ele>
        <time>2021-08-19T08:19:36Z</time>
      </trkpt>
      <trkpt lat="45.3643080" lon="6.3160570">
        <ele>564.6</ele>
        <time>2021-08-19T08:19:40Z</time>
      </trkpt>
      <trkpt lat="45.3643270" lon="6.3161810">
        <ele>565.6</ele>
        <time>2021-08-19T08:19:44Z</time>
      </trkpt>
      <trkpt lat="45.3643310" lon="6.3162130">
        <ele>565.6</ele>
        <time>2021-08-19T08:19:45Z</time>
      </trkpt>
      <trkpt lat="45.3643580" lon="6.3163470">
        <ele>566.4</ele>
        <time>2021-08-19T08:19:49Z</time>
      </trkpt>
      <trkpt lat="45.3643680" lon="6.3163800">
        <ele>566.6</ele>
        <time>2021-08-19T08:19:50Z</time>
      </trkpt>
      <trkpt lat="45.3644090" lon="6.3164820">
        <ele>567.0</ele>
        <time>2021-08-19T08:19:53Z</time>
      </trkpt>
      <trkpt lat="45.3644240" lon="6.3165040">
        <ele>567.0</ele>
        <time>2021-08-19T08:19:54Z</time>
      </trkpt>
      <trkpt lat="45.3644420" lon="6.3165300">
        <ele>567.4</ele>
        <time>2021-08-19T08:19:55Z</time>
      </trkpt>
      <trkpt lat="45.3644580" lon="6.3165570">
        <ele>567.6</ele>
        <time>2021-08-19T08:19:56Z</time>
      </trkpt>
      <trkpt lat="45.3644760" lon="6.3165840">
        <ele>567.8</ele>
        <time>2021-08-19T08:19:57Z</time>
      </trkpt>
      <trkpt lat="45.3645010" lon="6.3166140">
        <ele>568.0</ele>
        <time>2021-08-19T08:19:58Z</time>
      </trkpt>
      <trkpt lat="45.3645210" lon="6.3166290">
        <ele>568.2</ele>
        <time>2021-08-19T08:19:59Z</time>
      </trkpt>
      <trkpt lat="45.3645480" lon="6.3166450">
        <ele>568.6</ele>
        <time>2021-08-19T08:20:00Z</time>
      </trkpt>
      <trkpt lat="45.3645750" lon="6.3166580">
        <ele>569.0</ele>
        <time>2021-08-19T08:20:01Z</time>
      </trkpt>
      <trkpt lat="45.3646290" lon="6.3166870">
        <ele>569.2</ele>
        <time>2021-08-19T08:20:03Z</time>
      </trkpt>
      <trkpt lat="45.3647690" lon="6.3167340">
        <ele>570.0</ele>
        <time>2021-08-19T08:20:08Z</time>
      </trkpt>
      <trkpt lat="45.3648390" lon="6.3167310">
        <ele>570.4</ele>
        <time>2021-08-19T08:20:11Z</time>
      </trkpt>
      <trkpt lat="45.3649010" lon="6.3167180">
        <ele>570.4</ele>
        <time>2021-08-19T08:20:13Z</time>
      </trkpt>
      <trkpt lat="45.3649860" lon="6.3166970">
        <ele>571.2</ele>
        <time>2021-08-19T08:20:16Z</time>
      </trkpt>
      <trkpt lat="45.3650140" lon="6.3166910">
        <ele>571.4</ele>
        <time>2021-08-19T08:20:17Z</time>
      </trkpt>
      <trkpt lat="45.3650420" lon="6.3166840">
        <ele>571.6</ele>
        <time>2021-08-19T08:20:18Z</time>
      </trkpt>
      <trkpt lat="45.3650650" lon="6.3166780">
        <ele>572.0</ele>
        <time>2021-08-19T08:20:19Z</time>
      </trkpt>
      <trkpt lat="45.3650980" lon="6.3166690">
        <ele>572.0</ele>
        <time>2021-08-19T08:20:20Z</time>
      </trkpt>
      <trkpt lat="45.3651200" lon="6.3166540">
        <ele>572.4</ele>
        <time>2021-08-19T08:20:21Z</time>
      </trkpt>
      <trkpt lat="45.3651370" lon="6.3166340">
        <ele>572.4</ele>
        <time>2021-08-19T08:20:22Z</time>
      </trkpt>
      <trkpt lat="45.3651570" lon="6.3166190">
        <ele>572.6</ele>
        <time>2021-08-19T08:20:23Z</time>
      </trkpt>
      <trkpt lat="45.3651760" lon="6.3166080">
        <ele>572.6</ele>
        <time>2021-08-19T08:20:24Z</time>
      </trkpt>
      <trkpt lat="45.3652050" lon="6.3165900">
        <ele>572.8</ele>
        <time>2021-08-19T08:20:25Z</time>
      </trkpt>
      <trkpt lat="45.3652450" lon="6.3165570">
        <ele>573.2</ele>
        <time>2021-08-19T08:20:27Z</time>
      </trkpt>
      <trkpt lat="45.3652650" lon="6.3165410">
        <ele>573.4</ele>
        <time>2021-08-19T08:20:28Z</time>
      </trkpt>
      <trkpt lat="45.3653030" lon="6.3165100">
        <ele>574.2</ele>
        <time>2021-08-19T08:20:30Z</time>
      </trkpt>
      <trkpt lat="45.3653430" lon="6.3164730">
        <ele>574.8</ele>
        <time>2021-08-19T08:20:32Z</time>
      </trkpt>
      <trkpt lat="45.3653850" lon="6.3164320">
        <ele>575.2</ele>
        <time>2021-08-19T08:20:34Z</time>
      </trkpt>
      <trkpt lat="45.3654600" lon="6.3163580">
        <ele>576.2</ele>
        <time>2021-08-19T08:20:38Z</time>
      </trkpt>
      <trkpt lat="45.3654740" lon="6.3163310">
        <ele>576.6</ele>
        <time>2021-08-19T08:20:39Z</time>
      </trkpt>
      <trkpt lat="45.3655610" lon="6.3162320">
        <ele>577.0</ele>
        <time>2021-08-19T08:20:44Z</time>
      </trkpt>
      <trkpt lat="45.3655800" lon="6.3162190">
        <ele>577.2</ele>
        <time>2021-08-19T08:20:45Z</time>
      </trkpt>
      <trkpt lat="45.3656970" lon="6.3161520">
        <ele>578.2</ele>
        <time>2021-08-19T08:20:50Z</time>
      </trkpt>
      <trkpt lat="45.3657680" lon="6.3161200">
        <ele>578.6</ele>
        <time>2021-08-19T08:20:53Z</time>
      </trkpt>
      <trkpt lat="45.3657980" lon="6.3161130">
        <ele>578.8</ele>
        <time>2021-08-19T08:20:54Z</time>
      </trkpt>
      <trkpt lat="45.3658400" lon="6.3161080">
        <ele>579.4</ele>
        <time>2021-08-19T08:20:56Z</time>
      </trkpt>
      <trkpt lat="45.3660100" lon="6.3161050">
        <ele>580.6</ele>
        <time>2021-08-19T08:21:02Z</time>
      </trkpt>
      <trkpt lat="45.3661190" lon="6.3160890">
        <ele>581.6</ele>
        <time>2021-08-19T08:21:06Z</time>
      </trkpt>
      <trkpt lat="45.3662620" lon="6.3160530">
        <ele>582.4</ele>
        <time>2021-08-19T08:21:11Z</time>
      </trkpt>
      <trkpt lat="45.3663170" lon="6.3160340">
        <ele>582.8</ele>
        <time>2021-08-19T08:21:13Z</time>
      </trkpt>
      <trkpt lat="45.3664760" lon="6.3159690">
        <ele>583.8</ele>
        <time>2021-08-19T08:21:19Z</time>
      </trkpt>
      <trkpt lat="45.3665020" lon="6.3159610">
        <ele>584.0</ele>
        <time>2021-08-19T08:21:20Z</time>
      </trkpt>
      <trkpt lat="45.3667000" lon="6.3158960">
        <ele>585.0</ele>
        <time>2021-08-19T08:21:27Z</time>
      </trkpt>
      <trkpt lat="45.3668610" lon="6.3158390">
        <ele>586.2</ele>
        <time>2021-08-19T08:21:33Z</time>
      </trkpt>
      <trkpt lat="45.3669670" lon="6.3157930">
        <ele>586.8</ele>
        <time>2021-08-19T08:21:37Z</time>
      </trkpt>
      <trkpt lat="45.3670180" lon="6.3157760">
        <ele>587.2</ele>
        <time>2021-08-19T08:21:39Z</time>
      </trkpt>
      <trkpt lat="45.3671440" lon="6.3157300">
        <ele>588.0</ele>
        <time>2021-08-19T08:21:44Z</time>
      </trkpt>
      <trkpt lat="45.3671950" lon="6.3157100">
        <ele>588.4</ele>
        <time>2021-08-19T08:21:46Z</time>
      </trkpt>
      <trkpt lat="45.3672920" lon="6.3156750">
        <ele>589.4</ele>
        <time>2021-08-19T08:21:50Z</time>
      </trkpt>
      <trkpt lat="45.3673170" lon="6.3156640">
        <ele>589.6</ele>
        <time>2021-08-19T08:21:51Z</time>
      </trkpt>
      <trkpt lat="45.3673430" lon="6.3156570">
        <ele>589.8</ele>
        <time>2021-08-19T08:21:52Z</time>
      </trkpt>
      <trkpt lat="45.3674470" lon="6.3156410">
        <ele>590.8</ele>
        <time>2021-08-19T08:21:56Z</time>
      </trkpt>
      <trkpt lat="45.3675470" lon="6.3156080">
        <ele>591.6</ele>
        <time>2021-08-19T08:22:00Z</time>
      </trkpt>
      <trkpt lat="45.3675750" lon="6.3155990">
        <ele>591.8</ele>
        <time>2021-08-19T08:22:01Z</time>
      </trkpt>
      <trkpt lat="45.3677030" lon="6.3155470">
        <ele>593.2</ele>
        <time>2021-08-19T08:22:06Z</time>
      </trkpt>
      <trkpt lat="45.3677550" lon="6.3155300">
        <ele>593.6</ele>
        <time>2021-08-19T08:22:08Z</time>
      </trkpt>
      <trkpt lat="45.3678790" lon="6.3155230">
        <ele>594.2</ele>
        <time>2021-08-19T08:22:13Z</time>
      </trkpt>
      <trkpt lat="45.3678970" lon="6.3155300">
        <ele>594.4</ele>
        <time>2021-08-19T08:22:14Z</time>
      </trkpt>
      <trkpt lat="45.3679730" lon="6.3156140">
        <ele>595.4</ele>
        <time>2021-08-19T08:22:18Z</time>
      </trkpt>
      <trkpt lat="45.3679780" lon="6.3156470">
        <ele>595.6</ele>
        <time>2021-08-19T08:22:19Z</time>
      </trkpt>
      <trkpt lat="45.3679800" lon="6.3156790">
        <ele>595.6</ele>
        <time>2021-08-19T08:22:20Z</time>
      </trkpt>
      <trkpt lat="45.3679560" lon="6.3157730">
        <ele>596.4</ele>
        <time>2021-08-19T08:22:23Z</time>
      </trkpt>
      <trkpt lat="45.3679420" lon="6.3157890">
        <ele>596.4</ele>
        <time>2021-08-19T08:22:24Z</time>
      </trkpt>
      <trkpt lat="45.3678040" lon="6.3158960">
        <ele>597.4</ele>
        <time>2021-08-19T08:22:30Z</time>
      </trkpt>
      <trkpt lat="45.3677550" lon="6.3159270">
        <ele>597.6</ele>
        <time>2021-08-19T08:22:32Z</time>
      </trkpt>
      <trkpt lat="45.3677080" lon="6.3159580">
        <ele>598.0</ele>
        <time>2021-08-19T08:22:34Z</time>
      </trkpt>
      <trkpt lat="45.3676870" lon="6.3159750">
        <ele>598.6</ele>
        <time>2021-08-19T08:22:35Z</time>
      </trkpt>
      <trkpt lat="45.3676430" lon="6.3160100">
        <ele>599.0</ele>
        <time>2021-08-19T08:22:37Z</time>
      </trkpt>
      <trkpt lat="45.3675950" lon="6.3160440">
        <ele>599.4</ele>
        <time>2021-08-19T08:22:39Z</time>
      </trkpt>
      <trkpt lat="45.3675520" lon="6.3160780">
        <ele>599.8</ele>
        <time>2021-08-19T08:22:41Z</time>
      </trkpt>
      <trkpt lat="45.3675140" lon="6.3161040">
        <ele>600.4</ele>
        <time>2021-08-19T08:22:43Z</time>
      </trkpt>
      <trkpt lat="45.3674880" lon="6.3161210">
        <ele>600.4</ele>
        <time>2021-08-19T08:22:44Z</time>
      </trkpt>
      <trkpt lat="45.3674670" lon="6.3161370">
        <ele>600.8</ele>
        <time>2021-08-19T08:22:45Z</time>
      </trkpt>
      <trkpt lat="45.3673960" lon="6.3161970">
        <ele>601.6</ele>
        <time>2021-08-19T08:22:48Z</time>
      </trkpt>
      <trkpt lat="45.3673700" lon="6.3162200">
        <ele>601.6</ele>
        <time>2021-08-19T08:22:49Z</time>
      </trkpt>
      <trkpt lat="45.3673150" lon="6.3162730">
        <ele>602.0</ele>
        <time>2021-08-19T08:22:51Z</time>
      </trkpt>
      <trkpt lat="45.3672680" lon="6.3163450">
        <ele>602.4</ele>
        <time>2021-08-19T08:22:53Z</time>
      </trkpt>
      <trkpt lat="45.3672470" lon="6.3164020">
        <ele>603.2</ele>
        <time>2021-08-19T08:22:56Z</time>
      </trkpt>
      <trkpt lat="45.3672470" lon="6.3164020">
        <ele>603.4</ele>
        <time>2021-08-19T08:22:57Z</time>
      </trkpt>
      <trkpt lat="45.3672680" lon="6.3164450">
        <ele>604.0</ele>
        <time>2021-08-19T08:23:44Z</time>
      </trkpt>
      <trkpt lat="45.3673050" lon="6.3164780">
        <ele>604.0</ele>
        <time>2021-08-19T08:23:46Z</time>
      </trkpt>
      <trkpt lat="45.3674360" lon="6.3165070">
        <ele>604.2</ele>
        <time>2021-08-19T08:23:51Z</time>
      </trkpt>
      <trkpt lat="45.3675490" lon="6.3164510">
        <ele>604.8</ele>
        <time>2021-08-19T08:23:55Z</time>
      </trkpt>
      <trkpt lat="45.3676050" lon="6.3164290">
        <ele>605.4</ele>
        <time>2021-08-19T08:23:57Z</time>
      </trkpt>
      <trkpt lat="45.3676320" lon="6.3164230">
        <ele>605.8</ele>
        <time>2021-08-19T08:23:58Z</time>
      </trkpt>
      <trkpt lat="45.3677840" lon="6.3164010">
        <ele>606.8</ele>
        <time>2021-08-19T08:24:04Z</time>
      </trkpt>
      <trkpt lat="45.3678080" lon="6.3164050">
        <ele>606.8</ele>
        <time>2021-08-19T08:24:05Z</time>
      </trkpt>
      <trkpt lat="45.3679180" lon="6.3164370">
        <ele>608.0</ele>
        <time>2021-08-19T08:24:10Z</time>
      </trkpt>
      <trkpt lat="45.3679940" lon="6.3164620">
        <ele>609.2</ele>
        <time>2021-08-19T08:24:14Z</time>
      </trkpt>
      <trkpt lat="45.3680320" lon="6.3164830">
        <ele>609.8</ele>
        <time>2021-08-19T08:24:16Z</time>
      </trkpt>
      <trkpt lat="45.3680580" lon="6.3164980">
        <ele>610.4</ele>
        <time>2021-08-19T08:24:18Z</time>
      </trkpt>
      <trkpt lat="45.3681270" lon="6.3165300">
        <ele>611.4</ele>
        <time>2021-08-19T08:24:22Z</time>
      </trkpt>
      <trkpt lat="45.3681540" lon="6.3165390">
        <ele>611.6</ele>
        <time>2021-08-19T08:24:23Z</time>
      </trkpt>
      <trkpt lat="45.3682530" lon="6.3165700">
        <ele>612.6</ele>
        <time>2021-08-19T08:24:28Z</time>
      </trkpt>
      <trkpt lat="45.3683220" lon="6.3166070">
        <ele>613.0</ele>
        <time>2021-08-19T08:24:31Z</time>
      </trkpt>
      <trkpt lat="45.3683630" lon="6.3166310">
        <ele>613.8</ele>
        <time>2021-08-19T08:24:33Z</time>
      </trkpt>
      <trkpt lat="45.3684300" lon="6.3166450">
        <ele>614.4</ele>
        <time>2021-08-19T08:24:36Z</time>
      </trkpt>
      <trkpt lat="45.3684700" lon="6.3166620">
        <ele>614.8</ele>
        <time>2021-08-19T08:24:38Z</time>
      </trkpt>
      <trkpt lat="45.3685770" lon="6.3167090">
        <ele>616.0</ele>
        <time>2021-08-19T08:24:43Z</time>
      </trkpt>
      <trkpt lat="45.3686230" lon="6.3167250">
        <ele>616.2</ele>
        <time>2021-08-19T08:24:45Z</time>
      </trkpt>
      <trkpt lat="45.3686700" lon="6.3167400">
        <ele>616.8</ele>
        <time>2021-08-19T08:24:47Z</time>
      </trkpt>
      <trkpt lat="45.3686920" lon="6.3167470">
        <ele>617.2</ele>
        <time>2021-08-19T08:24:48Z</time>
      </trkpt>
      <trkpt lat="45.3687360" lon="6.3167550">
        <ele>617.6</ele>
        <time>2021-08-19T08:24:50Z</time>
      </trkpt>
      <trkpt lat="45.3687590" lon="6.3167630">
        <ele>617.6</ele>
        <time>2021-08-19T08:24:51Z</time>
      </trkpt>
      <trkpt lat="45.3688370" lon="6.3167630">
        <ele>618.2</ele>
        <time>2021-08-19T08:24:55Z</time>
      </trkpt>
      <trkpt lat="45.3689750" lon="6.3167650">
        <ele>619.6</ele>
        <time>2021-08-19T08:25:01Z</time>
      </trkpt>
      <trkpt lat="45.3690620" lon="6.3167790">
        <ele>620.6</ele>
        <time>2021-08-19T08:25:05Z</time>
      </trkpt>
      <trkpt lat="45.3691000" lon="6.3168030">
        <ele>620.8</ele>
        <time>2021-08-19T08:25:07Z</time>
      </trkpt>
      <trkpt lat="45.3691230" lon="6.3168670">
        <ele>621.6</ele>
        <time>2021-08-19T08:25:09Z</time>
      </trkpt>
      <trkpt lat="45.3691220" lon="6.3168940">
        <ele>621.8</ele>
        <time>2021-08-19T08:25:10Z</time>
      </trkpt>
      <trkpt lat="45.3690840" lon="6.3169740">
        <ele>622.6</ele>
        <time>2021-08-19T08:25:13Z</time>
      </trkpt>
      <trkpt lat="45.3690340" lon="6.3169940">
        <ele>623.0</ele>
        <time>2021-08-19T08:25:15Z</time>
      </trkpt>
      <trkpt lat="45.3689180" lon="6.3170090">
        <ele>624.0</ele>
        <time>2021-08-19T08:25:19Z</time>
      </trkpt>
      <trkpt lat="45.3687450" lon="6.3171070">
        <ele>625.0</ele>
        <time>2021-08-19T08:25:25Z</time>
      </trkpt>
      <trkpt lat="45.3687250" lon="6.3171260">
        <ele>625.0</ele>
        <time>2021-08-19T08:25:26Z</time>
      </trkpt>
      <trkpt lat="45.3686290" lon="6.3172170">
        <ele>625.8</ele>
        <time>2021-08-19T08:25:30Z</time>
      </trkpt>
      <trkpt lat="45.3686080" lon="6.3172380">
        <ele>626.2</ele>
        <time>2021-08-19T08:25:31Z</time>
      </trkpt>
      <trkpt lat="45.3685850" lon="6.3172590">
        <ele>626.4</ele>
        <time>2021-08-19T08:25:32Z</time>
      </trkpt>
      <trkpt lat="45.3685400" lon="6.3173020">
        <ele>626.8</ele>
        <time>2021-08-19T08:25:34Z</time>
      </trkpt>
      <trkpt lat="45.3684510" lon="6.3173930">
        <ele>627.6</ele>
        <time>2021-08-19T08:25:38Z</time>
      </trkpt>
      <trkpt lat="45.3683870" lon="6.3174410">
        <ele>628.2</ele>
        <time>2021-08-19T08:25:41Z</time>
      </trkpt>
      <trkpt lat="45.3683180" lon="6.3174970">
        <ele>628.8</ele>
        <time>2021-08-19T08:25:44Z</time>
      </trkpt>
      <trkpt lat="45.3682100" lon="6.3175780">
        <ele>630.0</ele>
        <time>2021-08-19T08:25:49Z</time>
      </trkpt>
      <trkpt lat="45.3681940" lon="6.3175950">
        <ele>630.2</ele>
        <time>2021-08-19T08:25:50Z</time>
      </trkpt>
      <trkpt lat="45.3681250" lon="6.3176540">
        <ele>630.8</ele>
        <time>2021-08-19T08:25:53Z</time>
      </trkpt>
      <trkpt lat="45.3681050" lon="6.3176660">
        <ele>631.2</ele>
        <time>2021-08-19T08:25:54Z</time>
      </trkpt>
      <trkpt lat="45.3680380" lon="6.3177070">
        <ele>631.6</ele>
        <time>2021-08-19T08:25:57Z</time>
      </trkpt>
      <trkpt lat="45.3680150" lon="6.3177210">
        <ele>631.8</ele>
        <time>2021-08-19T08:25:58Z</time>
      </trkpt>
      <trkpt lat="45.3679940" lon="6.3177380">
        <ele>632.2</ele>
        <time>2021-08-19T08:25:59Z</time>
      </trkpt>
      <trkpt lat="45.3679780" lon="6.3177510">
        <ele>632.6</ele>
        <time>2021-08-19T08:26:00Z</time>
      </trkpt>
      <trkpt lat="45.3679560" lon="6.3177660">
        <ele>632.8</ele>
        <time>2021-08-19T08:26:01Z</time>
      </trkpt>
      <trkpt lat="45.3679290" lon="6.3177840">
        <ele>633.2</ele>
        <time>2021-08-19T08:26:02Z</time>
      </trkpt>
      <trkpt lat="45.3678890" lon="6.3178150">
        <ele>633.8</ele>
        <time>2021-08-19T08:26:04Z</time>
      </trkpt>
      <trkpt lat="45.3677920" lon="6.3178770">
        <ele>634.4</ele>
        <time>2021-08-19T08:26:08Z</time>
      </trkpt>
      <trkpt lat="45.3677730" lon="6.3178870">
        <ele>634.8</ele>
        <time>2021-08-19T08:26:09Z</time>
      </trkpt>
      <trkpt lat="45.3676820" lon="6.3179380">
        <ele>635.6</ele>
        <time>2021-08-19T08:26:13Z</time>
      </trkpt>
      <trkpt lat="45.3676340" lon="6.3179730">
        <ele>636.0</ele>
        <time>2021-08-19T08:26:15Z</time>
      </trkpt>
      <trkpt lat="45.3675960" lon="6.3180160">
        <ele>636.2</ele>
        <time>2021-08-19T08:26:17Z</time>
      </trkpt>
      <trkpt lat="45.3675640" lon="6.3181020">
        <ele>636.4</ele>
        <time>2021-08-19T08:26:20Z</time>
      </trkpt>
      <trkpt lat="45.3675690" lon="6.3181750">
        <ele>636.8</ele>
        <time>2021-08-19T08:26:22Z</time>
      </trkpt>
      <trkpt lat="45.3675830" lon="6.3182080">
        <ele>637.0</ele>
        <time>2021-08-19T08:26:23Z</time>
      </trkpt>
      <trkpt lat="45.3676550" lon="6.3182620">
        <ele>637.8</ele>
        <time>2021-08-19T08:26:26Z</time>
      </trkpt>
      <trkpt lat="45.3676880" lon="6.3182670">
        <ele>638.0</ele>
        <time>2021-08-19T08:26:27Z</time>
      </trkpt>
      <trkpt lat="45.3678230" lon="6.3182550">
        <ele>639.0</ele>
        <time>2021-08-19T08:26:32Z</time>
      </trkpt>
      <trkpt lat="45.3678490" lon="6.3182520">
        <ele>639.4</ele>
        <time>2021-08-19T08:26:33Z</time>
      </trkpt>
      <trkpt lat="45.3679190" lon="6.3182500">
        <ele>639.8</ele>
        <time>2021-08-19T08:26:36Z</time>
      </trkpt>
      <trkpt lat="45.3679690" lon="6.3182410">
        <ele>640.0</ele>
        <time>2021-08-19T08:26:38Z</time>
      </trkpt>
      <trkpt lat="45.3680400" lon="6.3182360">
        <ele>641.0</ele>
        <time>2021-08-19T08:26:41Z</time>
      </trkpt>
      <trkpt lat="45.3680680" lon="6.3182350">
        <ele>641.2</ele>
        <time>2021-08-19T08:26:42Z</time>
      </trkpt>
      <trkpt lat="45.3681340" lon="6.3182330">
        <ele>641.8</ele>
        <time>2021-08-19T08:26:45Z</time>
      </trkpt>
      <trkpt lat="45.3681570" lon="6.3182300">
        <ele>642.4</ele>
        <time>2021-08-19T08:26:46Z</time>
      </trkpt>
      <trkpt lat="45.3681820" lon="6.3182270">
        <ele>642.4</ele>
        <time>2021-08-19T08:26:47Z</time>
      </trkpt>
      <trkpt lat="45.3682380" lon="6.3182280">
        <ele>643.0</ele>
        <time>2021-08-19T08:26:49Z</time>
      </trkpt>
      <trkpt lat="45.3682880" lon="6.3182320">
        <ele>643.4</ele>
        <time>2021-08-19T08:26:51Z</time>
      </trkpt>
      <trkpt lat="45.3683410" lon="6.3182230">
        <ele>643.8</ele>
        <time>2021-08-19T08:26:53Z</time>
      </trkpt>
      <trkpt lat="45.3683860" lon="6.3182190">
        <ele>644.2</ele>
        <time>2021-08-19T08:26:55Z</time>
      </trkpt>
      <trkpt lat="45.3684130" lon="6.3182210">
        <ele>644.4</ele>
        <time>2021-08-19T08:26:56Z</time>
      </trkpt>
      <trkpt lat="45.3685370" lon="6.3182100">
        <ele>645.4</ele>
        <time>2021-08-19T08:27:01Z</time>
      </trkpt>
      <trkpt lat="45.3686050" lon="6.3182130">
        <ele>646.0</ele>
        <time>2021-08-19T08:27:04Z</time>
      </trkpt>
      <trkpt lat="45.3686570" lon="6.3182100">
        <ele>646.4</ele>
        <time>2021-08-19T08:27:06Z</time>
      </trkpt>
      <trkpt lat="45.3688490" lon="6.3181770">
        <ele>647.6</ele>
        <time>2021-08-19T08:27:14Z</time>
      </trkpt>
      <trkpt lat="45.3689480" lon="6.3181610">
        <ele>648.8</ele>
        <time>2021-08-19T08:27:18Z</time>
      </trkpt>
      <trkpt lat="45.3691070" lon="6.3181530">
        <ele>649.8</ele>
        <time>2021-08-19T08:27:25Z</time>
      </trkpt>
      <trkpt lat="45.3691340" lon="6.3181530">
        <ele>650.2</ele>
        <time>2021-08-19T08:27:26Z</time>
      </trkpt>
      <trkpt lat="45.3691790" lon="6.3181510">
        <ele>651.0</ele>
        <time>2021-08-19T08:27:28Z</time>
      </trkpt>
      <trkpt lat="45.3692730" lon="6.3181510">
        <ele>652.0</ele>
        <time>2021-08-19T08:27:32Z</time>
      </trkpt>
      <trkpt lat="45.3693640" lon="6.3181400">
        <ele>653.0</ele>
        <time>2021-08-19T08:27:36Z</time>
      </trkpt>
      <trkpt lat="45.3693880" lon="6.3181340">
        <ele>653.2</ele>
        <time>2021-08-19T08:27:37Z</time>
      </trkpt>
      <trkpt lat="45.3695690" lon="6.3181150">
        <ele>654.0</ele>
        <time>2021-08-19T08:27:44Z</time>
      </trkpt>
      <trkpt lat="45.3695930" lon="6.3181130">
        <ele>654.2</ele>
        <time>2021-08-19T08:27:45Z</time>
      </trkpt>
      <trkpt lat="45.3696200" lon="6.3181130">
        <ele>654.4</ele>
        <time>2021-08-19T08:27:46Z</time>
      </trkpt>
      <trkpt lat="45.3696870" lon="6.3181160">
        <ele>655.4</ele>
        <time>2021-08-19T08:27:49Z</time>
      </trkpt>
      <trkpt lat="45.3697390" lon="6.3181390">
        <ele>655.6</ele>
        <time>2021-08-19T08:27:51Z</time>
      </trkpt>
      <trkpt lat="45.3697690" lon="6.3181890">
        <ele>656.0</ele>
        <time>2021-08-19T08:27:53Z</time>
      </trkpt>
      <trkpt lat="45.3697740" lon="6.3182300">
        <ele>656.4</ele>
        <time>2021-08-19T08:27:54Z</time>
      </trkpt>
      <trkpt lat="45.3697610" lon="6.3182630">
        <ele>656.6</ele>
        <time>2021-08-19T08:27:55Z</time>
      </trkpt>
      <trkpt lat="45.3697390" lon="6.3182870">
        <ele>657.0</ele>
        <time>2021-08-19T08:27:56Z</time>
      </trkpt>
      <trkpt lat="45.3696680" lon="6.3183180">
        <ele>657.4</ele>
        <time>2021-08-19T08:27:59Z</time>
      </trkpt>
      <trkpt lat="45.3695910" lon="6.3183340">
        <ele>658.0</ele>
        <time>2021-08-19T08:28:02Z</time>
      </trkpt>
      <trkpt lat="45.3695240" lon="6.3183640">
        <ele>658.8</ele>
        <time>2021-08-19T08:28:05Z</time>
      </trkpt>
      <trkpt lat="45.3694450" lon="6.3184270">
        <ele>659.6</ele>
        <time>2021-08-19T08:28:09Z</time>
      </trkpt>
      <trkpt lat="45.3694030" lon="6.3184600">
        <ele>660.0</ele>
        <time>2021-08-19T08:28:11Z</time>
      </trkpt>
      <trkpt lat="45.3693680" lon="6.3184860">
        <ele>660.4</ele>
        <time>2021-08-19T08:28:13Z</time>
      </trkpt>
      <trkpt lat="45.3693480" lon="6.3185000">
        <ele>660.8</ele>
        <time>2021-08-19T08:28:14Z</time>
      </trkpt>
      <trkpt lat="45.3693090" lon="6.3185350">
        <ele>661.2</ele>
        <time>2021-08-19T08:28:16Z</time>
      </trkpt>
      <trkpt lat="45.3692940" lon="6.3185470">
        <ele>661.4</ele>
        <time>2021-08-19T08:28:17Z</time>
      </trkpt>
      <trkpt lat="45.3692530" lon="6.3185810">
        <ele>661.8</ele>
        <time>2021-08-19T08:28:19Z</time>
      </trkpt>
      <trkpt lat="45.3692340" lon="6.3185970">
        <ele>662.2</ele>
        <time>2021-08-19T08:28:20Z</time>
      </trkpt>
      <trkpt lat="45.3692190" lon="6.3186090">
        <ele>662.2</ele>
        <time>2021-08-19T08:28:21Z</time>
      </trkpt>
      <trkpt lat="45.3691450" lon="6.3186630">
        <ele>663.0</ele>
        <time>2021-08-19T08:28:25Z</time>
      </trkpt>
      <trkpt lat="45.3691230" lon="6.3186780">
        <ele>663.2</ele>
        <time>2021-08-19T08:28:26Z</time>
      </trkpt>
      <trkpt lat="45.3691070" lon="6.3186880">
        <ele>663.4</ele>
        <time>2021-08-19T08:28:27Z</time>
      </trkpt>
      <trkpt lat="45.3690680" lon="6.3187180">
        <ele>663.8</ele>
        <time>2021-08-19T08:28:29Z</time>
      </trkpt>
      <trkpt lat="45.3690160" lon="6.3187550">
        <ele>664.4</ele>
        <time>2021-08-19T08:28:32Z</time>
      </trkpt>
      <trkpt lat="45.3689510" lon="6.3188150">
        <ele>665.2</ele>
        <time>2021-08-19T08:28:36Z</time>
      </trkpt>
      <trkpt lat="45.3689320" lon="6.3188260">
        <ele>665.4</ele>
        <time>2021-08-19T08:28:37Z</time>
      </trkpt>
      <trkpt lat="45.3688400" lon="6.3188970">
        <ele>666.4</ele>
        <time>2021-08-19T08:28:42Z</time>
      </trkpt>
      <trkpt lat="45.3687750" lon="6.3189350">
        <ele>667.2</ele>
        <time>2021-08-19T08:28:45Z</time>
      </trkpt>
      <trkpt lat="45.3687220" lon="6.3189780">
        <ele>667.8</ele>
        <time>2021-08-19T08:28:48Z</time>
      </trkpt>
      <trkpt lat="45.3686080" lon="6.3190590">
        <ele>669.0</ele>
        <time>2021-08-19T08:28:54Z</time>
      </trkpt>
      <trkpt lat="45.3685060" lon="6.3191340">
        <ele>670.0</ele>
        <time>2021-08-19T08:28:59Z</time>
      </trkpt>
      <trkpt lat="45.3684130" lon="6.3192070">
        <ele>670.8</ele>
        <time>2021-08-19T08:29:04Z</time>
      </trkpt>
      <trkpt lat="45.3683820" lon="6.3192360">
        <ele>671.4</ele>
        <time>2021-08-19T08:29:06Z</time>
      </trkpt>
      <trkpt lat="45.3682940" lon="6.3193140">
        <ele>672.4</ele>
        <time>2021-08-19T08:29:11Z</time>
      </trkpt>
      <trkpt lat="45.3681930" lon="6.3193960">
        <ele>673.6</ele>
        <time>2021-08-19T08:29:17Z</time>
      </trkpt>
      <trkpt lat="45.3680850" lon="6.3194850">
        <ele>674.6</ele>
        <time>2021-08-19T08:29:23Z</time>
      </trkpt>
      <trkpt lat="45.3680280" lon="6.3195320">
        <ele>675.2</ele>
        <time>2021-08-19T08:29:26Z</time>
      </trkpt>
      <trkpt lat="45.3679650" lon="6.3195860">
        <ele>675.8</ele>
        <time>2021-08-19T08:29:29Z</time>
      </trkpt>
      <trkpt lat="45.3679270" lon="6.3196140">
        <ele>676.0</ele>
        <time>2021-08-19T08:29:31Z</time>
      </trkpt>
      <trkpt lat="45.3679020" lon="6.3196310">
        <ele>676.2</ele>
        <time>2021-08-19T08:29:32Z</time>
      </trkpt>
      <trkpt lat="45.3678800" lon="6.3196470">
        <ele>676.2</ele>
        <time>2021-08-19T08:29:33Z</time>
      </trkpt>
      <trkpt lat="45.3678570" lon="6.3196620">
        <ele>676.4</ele>
        <time>2021-08-19T08:29:34Z</time>
      </trkpt>
      <trkpt lat="45.3678390" lon="6.3196720">
        <ele>676.6</ele>
        <time>2021-08-19T08:29:35Z</time>
      </trkpt>
      <trkpt lat="45.3678170" lon="6.3196870">
        <ele>677.0</ele>
        <time>2021-08-19T08:29:36Z</time>
      </trkpt>
      <trkpt lat="45.3677900" lon="6.3197050">
        <ele>677.2</ele>
        <time>2021-08-19T08:29:37Z</time>
      </trkpt>
      <trkpt lat="45.3677300" lon="6.3197530">
        <ele>677.8</ele>
        <time>2021-08-19T08:29:40Z</time>
      </trkpt>
      <trkpt lat="45.3677110" lon="6.3197730">
        <ele>678.0</ele>
        <time>2021-08-19T08:29:41Z</time>
      </trkpt>
      <trkpt lat="45.3676880" lon="6.3197930">
        <ele>678.2</ele>
        <time>2021-08-19T08:29:42Z</time>
      </trkpt>
      <trkpt lat="45.3676250" lon="6.3198460">
        <ele>679.0</ele>
        <time>2021-08-19T08:29:45Z</time>
      </trkpt>
      <trkpt lat="45.3675330" lon="6.3199060">
        <ele>679.8</ele>
        <time>2021-08-19T08:29:49Z</time>
      </trkpt>
      <trkpt lat="45.3674900" lon="6.3199280">
        <ele>680.0</ele>
        <time>2021-08-19T08:29:51Z</time>
      </trkpt>
      <trkpt lat="45.3673780" lon="6.3199960">
        <ele>681.0</ele>
        <time>2021-08-19T08:29:56Z</time>
      </trkpt>
      <trkpt lat="45.3673540" lon="6.3200110">
        <ele>681.2</ele>
        <time>2021-08-19T08:29:57Z</time>
      </trkpt>
      <trkpt lat="45.3673110" lon="6.3200370">
        <ele>681.8</ele>
        <time>2021-08-19T08:29:59Z</time>
      </trkpt>
      <trkpt lat="45.3672880" lon="6.3200520">
        <ele>682.2</ele>
        <time>2021-08-19T08:30:00Z</time>
      </trkpt>
      <trkpt lat="45.3672640" lon="6.3200680">
        <ele>682.4</ele>
        <time>2021-08-19T08:30:01Z</time>
      </trkpt>
      <trkpt lat="45.3672080" lon="6.3201040">
        <ele>683.2</ele>
        <time>2021-08-19T08:30:04Z</time>
      </trkpt>
      <trkpt lat="45.3671870" lon="6.3201200">
        <ele>683.6</ele>
        <time>2021-08-19T08:30:05Z</time>
      </trkpt>
      <trkpt lat="45.3671660" lon="6.3201320">
        <ele>683.8</ele>
        <time>2021-08-19T08:30:06Z</time>
      </trkpt>
      <trkpt lat="45.3671030" lon="6.3201810">
        <ele>684.4</ele>
        <time>2021-08-19T08:30:09Z</time>
      </trkpt>
      <trkpt lat="45.3670660" lon="6.3202130">
        <ele>684.8</ele>
        <time>2021-08-19T08:30:11Z</time>
      </trkpt>
      <trkpt lat="45.3670260" lon="6.3202540">
        <ele>685.2</ele>
        <time>2021-08-19T08:30:13Z</time>
      </trkpt>
      <trkpt lat="45.3669970" lon="6.3203000">
        <ele>685.8</ele>
        <time>2021-08-19T08:30:15Z</time>
      </trkpt>
      <trkpt lat="45.3669530" lon="6.3204150">
        <ele>686.8</ele>
        <time>2021-08-19T08:30:19Z</time>
      </trkpt>
      <trkpt lat="45.3669520" lon="6.3204470">
        <ele>687.0</ele>
        <time>2021-08-19T08:30:20Z</time>
      </trkpt>
      <trkpt lat="45.3669720" lon="6.3205420">
        <ele>687.6</ele>
        <time>2021-08-19T08:30:23Z</time>
      </trkpt>
      <trkpt lat="45.3669880" lon="6.3205660">
        <ele>687.8</ele>
        <time>2021-08-19T08:30:24Z</time>
      </trkpt>
      <trkpt lat="45.3670090" lon="6.3205860">
        <ele>688.0</ele>
        <time>2021-08-19T08:30:25Z</time>
      </trkpt>
      <trkpt lat="45.3670380" lon="6.3206030">
        <ele>688.2</ele>
        <time>2021-08-19T08:30:26Z</time>
      </trkpt>
      <trkpt lat="45.3670860" lon="6.3206160">
        <ele>688.6</ele>
        <time>2021-08-19T08:30:28Z</time>
      </trkpt>
      <trkpt lat="45.3671100" lon="6.3206110">
        <ele>688.6</ele>
        <time>2021-08-19T08:30:29Z</time>
      </trkpt>
      <trkpt lat="45.3671280" lon="6.3205990">
        <ele>688.8</ele>
        <time>2021-08-19T08:30:30Z</time>
      </trkpt>
      <trkpt lat="45.3671560" lon="6.3205800">
        <ele>689.0</ele>
        <time>2021-08-19T08:30:31Z</time>
      </trkpt>
      <trkpt lat="45.3672660" lon="6.3205140">
        <ele>690.0</ele>
        <time>2021-08-19T08:30:36Z</time>
      </trkpt>
      <trkpt lat="45.3673340" lon="6.3204890">
        <ele>690.6</ele>
        <time>2021-08-19T08:30:39Z</time>
      </trkpt>
      <trkpt lat="45.3674300" lon="6.3204580">
        <ele>691.2</ele>
        <time>2021-08-19T08:30:43Z</time>
      </trkpt>
      <trkpt lat="45.3674790" lon="6.3204440">
        <ele>691.6</ele>
        <time>2021-08-19T08:30:45Z</time>
      </trkpt>
      <trkpt lat="45.3675020" lon="6.3204370">
        <ele>692.0</ele>
        <time>2021-08-19T08:30:46Z</time>
      </trkpt>
      <trkpt lat="45.3675230" lon="6.3204300">
        <ele>692.2</ele>
        <time>2021-08-19T08:30:47Z</time>
      </trkpt>
      <trkpt lat="45.3675690" lon="6.3204210">
        <ele>693.0</ele>
        <time>2021-08-19T08:30:49Z</time>
      </trkpt>
      <trkpt lat="45.3675940" lon="6.3204150">
        <ele>693.2</ele>
        <time>2021-08-19T08:30:50Z</time>
      </trkpt>
      <trkpt lat="45.3676230" lon="6.3204120">
        <ele>693.6</ele>
        <time>2021-08-19T08:30:51Z</time>
      </trkpt>
      <trkpt lat="45.3676470" lon="6.3204100">
        <ele>693.6</ele>
        <time>2021-08-19T08:30:52Z</time>
      </trkpt>
      <trkpt lat="45.3677120" lon="6.3203940">
        <ele>694.6</ele>
        <time>2021-08-19T08:30:55Z</time>
      </trkpt>
      <trkpt lat="45.3677730" lon="6.3203860">
        <ele>695.0</ele>
        <time>2021-08-19T08:30:58Z</time>
      </trkpt>
      <trkpt lat="45.3678170" lon="6.3203820">
        <ele>695.8</ele>
        <time>2021-08-19T08:31:00Z</time>
      </trkpt>
      <trkpt lat="45.3678980" lon="6.3203770">
        <ele>696.4</ele>
        <time>2021-08-19T08:31:04Z</time>
      </trkpt>
      <trkpt lat="45.3679480" lon="6.3203790">
        <ele>697.0</ele>
        <time>2021-08-19T08:31:06Z</time>
      </trkpt>
      <trkpt lat="45.3679690" lon="6.3203760">
        <ele>697.2</ele>
        <time>2021-08-19T08:31:07Z</time>
      </trkpt>
      <trkpt lat="45.3679850" lon="6.3203770">
        <ele>697.4</ele>
        <time>2021-08-19T08:31:08Z</time>
      </trkpt>
      <trkpt lat="45.3680060" lon="6.3203760">
        <ele>697.6</ele>
        <time>2021-08-19T08:31:09Z</time>
      </trkpt>
      <trkpt lat="45.3680700" lon="6.3203860">
        <ele>698.2</ele>
        <time>2021-08-19T08:31:12Z</time>
      </trkpt>
      <trkpt lat="45.3681140" lon="6.3203870">
        <ele>698.8</ele>
        <time>2021-08-19T08:31:14Z</time>
      </trkpt>
      <trkpt lat="45.3681360" lon="6.3203900">
        <ele>699.2</ele>
        <time>2021-08-19T08:31:15Z</time>
      </trkpt>
      <trkpt lat="45.3681820" lon="6.3203990">
        <ele>699.6</ele>
        <time>2021-08-19T08:31:17Z</time>
      </trkpt>
      <trkpt lat="45.3681990" lon="6.3204010">
        <ele>699.6</ele>
        <time>2021-08-19T08:31:18Z</time>
      </trkpt>
      <trkpt lat="45.3682210" lon="6.3204060">
        <ele>700.0</ele>
        <time>2021-08-19T08:31:19Z</time>
      </trkpt>
      <trkpt lat="45.3682490" lon="6.3204120">
        <ele>700.2</ele>
        <time>2021-08-19T08:31:20Z</time>
      </trkpt>
      <trkpt lat="45.3682710" lon="6.3204150">
        <ele>700.4</ele>
        <time>2021-08-19T08:31:21Z</time>
      </trkpt>
      <trkpt lat="45.3682880" lon="6.3204180">
        <ele>700.4</ele>
        <time>2021-08-19T08:31:22Z</time>
      </trkpt>
      <trkpt lat="45.3683090" lon="6.3204210">
        <ele>700.6</ele>
        <time>2021-08-19T08:31:23Z</time>
      </trkpt>
      <trkpt lat="45.3683300" lon="6.3204250">
        <ele>700.8</ele>
        <time>2021-08-19T08:31:24Z</time>
      </trkpt>
      <trkpt lat="45.3683540" lon="6.3204290">
        <ele>700.8</ele>
        <time>2021-08-19T08:31:25Z</time>
      </trkpt>
      <trkpt lat="45.3683970" lon="6.3204360">
        <ele>701.2</ele>
        <time>2021-08-19T08:31:27Z</time>
      </trkpt>
      <trkpt lat="45.3685060" lon="6.3204510">
        <ele>702.4</ele>
        <time>2021-08-19T08:31:32Z</time>
      </trkpt>
      <trkpt lat="45.3686090" lon="6.3204630">
        <ele>703.6</ele>
        <time>2021-08-19T08:31:37Z</time>
      </trkpt>
      <trkpt lat="45.3686730" lon="6.3204710">
        <ele>704.0</ele>
        <time>2021-08-19T08:31:40Z</time>
      </trkpt>
      <trkpt lat="45.3687370" lon="6.3204850">
        <ele>704.6</ele>
        <time>2021-08-19T08:31:43Z</time>
      </trkpt>
      <trkpt lat="45.3688040" lon="6.3204980">
        <ele>705.2</ele>
        <time>2021-08-19T08:31:46Z</time>
      </trkpt>
      <trkpt lat="45.3688210" lon="6.3204970">
        <ele>705.6</ele>
        <time>2021-08-19T08:31:47Z</time>
      </trkpt>
      <trkpt lat="45.3689090" lon="6.3205020">
        <ele>706.8</ele>
        <time>2021-08-19T08:31:51Z</time>
      </trkpt>
      <trkpt lat="45.3690360" lon="6.3205250">
        <ele>707.8</ele>
        <time>2021-08-19T08:31:57Z</time>
      </trkpt>
      <trkpt lat="45.3691470" lon="6.3205390">
        <ele>708.8</ele>
        <time>2021-08-19T08:32:02Z</time>
      </trkpt>
      <trkpt lat="45.3692490" lon="6.3205520">
        <ele>709.8</ele>
        <time>2021-08-19T08:32:07Z</time>
      </trkpt>
      <trkpt lat="45.3692660" lon="6.3205560">
        <ele>710.0</ele>
        <time>2021-08-19T08:32:08Z</time>
      </trkpt>
      <trkpt lat="45.3693450" lon="6.3205660">
        <ele>710.8</ele>
        <time>2021-08-19T08:32:12Z</time>
      </trkpt>
      <trkpt lat="45.3694240" lon="6.3205750">
        <ele>712.0</ele>
        <time>2021-08-19T08:32:16Z</time>
      </trkpt>
      <trkpt lat="45.3694800" lon="6.3205730">
        <ele>712.6</ele>
        <time>2021-08-19T08:32:19Z</time>
      </trkpt>
      <trkpt lat="45.3694990" lon="6.3205680">
        <ele>712.8</ele>
        <time>2021-08-19T08:32:20Z</time>
      </trkpt>
      <trkpt lat="45.3695400" lon="6.3205590">
        <ele>713.2</ele>
        <time>2021-08-19T08:32:22Z</time>
      </trkpt>
      <trkpt lat="45.3696190" lon="6.3205230">
        <ele>714.2</ele>
        <time>2021-08-19T08:32:26Z</time>
      </trkpt>
      <trkpt lat="45.3696340" lon="6.3205160">
        <ele>714.4</ele>
        <time>2021-08-19T08:32:27Z</time>
      </trkpt>
      <trkpt lat="45.3697300" lon="6.3204820">
        <ele>715.6</ele>
        <time>2021-08-19T08:32:32Z</time>
      </trkpt>
      <trkpt lat="45.3698070" lon="6.3204420">
        <ele>716.2</ele>
        <time>2021-08-19T08:32:36Z</time>
      </trkpt>
      <trkpt lat="45.3698490" lon="6.3204220">
        <ele>716.6</ele>
        <time>2021-08-19T08:32:38Z</time>
      </trkpt>
      <trkpt lat="45.3699380" lon="6.3203770">
        <ele>717.4</ele>
        <time>2021-08-19T08:32:43Z</time>
      </trkpt>
      <trkpt lat="45.3699560" lon="6.3203660">
        <ele>717.6</ele>
        <time>2021-08-19T08:32:44Z</time>
      </trkpt>
      <trkpt lat="45.3699930" lon="6.3203440">
        <ele>717.8</ele>
        <time>2021-08-19T08:32:46Z</time>
      </trkpt>
      <trkpt lat="45.3700490" lon="6.3203110">
        <ele>718.6</ele>
        <time>2021-08-19T08:32:49Z</time>
      </trkpt>
      <trkpt lat="45.3700930" lon="6.3202840">
        <ele>719.6</ele>
        <time>2021-08-19T08:32:52Z</time>
      </trkpt>
      <trkpt lat="45.3701090" lon="6.3202760">
        <ele>719.8</ele>
        <time>2021-08-19T08:32:53Z</time>
      </trkpt>
      <trkpt lat="45.3702410" lon="6.3202610">
        <ele>721.0</ele>
        <time>2021-08-19T08:33:00Z</time>
      </trkpt>
      <trkpt lat="45.3703400" lon="6.3202820">
        <ele>722.0</ele>
        <time>2021-08-19T08:33:05Z</time>
      </trkpt>
      <trkpt lat="45.3704150" lon="6.3203210">
        <ele>723.0</ele>
        <time>2021-08-19T08:33:09Z</time>
      </trkpt>
      <trkpt lat="45.3704270" lon="6.3203260">
        <ele>723.2</ele>
        <time>2021-08-19T08:33:10Z</time>
      </trkpt>
      <trkpt lat="45.3705110" lon="6.3203920">
        <ele>724.4</ele>
        <time>2021-08-19T08:33:15Z</time>
      </trkpt>
      <trkpt lat="45.3705410" lon="6.3204250">
        <ele>724.8</ele>
        <time>2021-08-19T08:33:17Z</time>
      </trkpt>
      <trkpt lat="45.3706210" lon="6.3205220">
        <ele>725.4</ele>
        <time>2021-08-19T08:33:22Z</time>
      </trkpt>
      <trkpt lat="45.3706770" lon="6.3206010">
        <ele>726.6</ele>
        <time>2021-08-19T08:33:26Z</time>
      </trkpt>
      <trkpt lat="45.3706880" lon="6.3206210">
        <ele>726.8</ele>
        <time>2021-08-19T08:33:27Z</time>
      </trkpt>
      <trkpt lat="45.3707510" lon="6.3207170">
        <ele>727.8</ele>
        <time>2021-08-19T08:33:32Z</time>
      </trkpt>
      <trkpt lat="45.3707820" lon="6.3207710">
        <ele>728.8</ele>
        <time>2021-08-19T08:33:35Z</time>
      </trkpt>
      <trkpt lat="45.3707950" lon="6.3207880">
        <ele>729.0</ele>
        <time>2021-08-19T08:33:36Z</time>
      </trkpt>
      <trkpt lat="45.3708810" lon="6.3208810">
        <ele>730.2</ele>
        <time>2021-08-19T08:33:41Z</time>
      </trkpt>
      <trkpt lat="45.3709270" lon="6.3209290">
        <ele>730.8</ele>
        <time>2021-08-19T08:33:44Z</time>
      </trkpt>
      <trkpt lat="45.3709430" lon="6.3209420">
        <ele>731.2</ele>
        <time>2021-08-19T08:33:45Z</time>
      </trkpt>
      <trkpt lat="45.3710250" lon="6.3209960">
        <ele>732.0</ele>
        <time>2021-08-19T08:33:49Z</time>
      </trkpt>
      <trkpt lat="45.3710380" lon="6.3210070">
        <ele>732.2</ele>
        <time>2021-08-19T08:33:50Z</time>
      </trkpt>
      <trkpt lat="45.3710550" lon="6.3210190">
        <ele>732.2</ele>
        <time>2021-08-19T08:33:51Z</time>
      </trkpt>
      <trkpt lat="45.3710950" lon="6.3210440">
        <ele>732.6</ele>
        <time>2021-08-19T08:33:53Z</time>
      </trkpt>
      <trkpt lat="45.3711580" lon="6.3211050">
        <ele>733.4</ele>
        <time>2021-08-19T08:33:57Z</time>
      </trkpt>
      <trkpt lat="45.3712200" lon="6.3211610">
        <ele>734.4</ele>
        <time>2021-08-19T08:34:01Z</time>
      </trkpt>
      <trkpt lat="45.3712360" lon="6.3211790">
        <ele>734.6</ele>
        <time>2021-08-19T08:34:02Z</time>
      </trkpt>
      <trkpt lat="45.3712800" lon="6.3212320">
        <ele>735.6</ele>
        <time>2021-08-19T08:34:05Z</time>
      </trkpt>
      <trkpt lat="45.3713560" lon="6.3213200">
        <ele>736.6</ele>
        <time>2021-08-19T08:34:10Z</time>
      </trkpt>
      <trkpt lat="45.3713720" lon="6.3213410">
        <ele>736.8</ele>
        <time>2021-08-19T08:34:11Z</time>
      </trkpt>
      <trkpt lat="45.3714100" lon="6.3213860">
        <ele>737.8</ele>
        <time>2021-08-19T08:34:14Z</time>
      </trkpt>
      <trkpt lat="45.3714670" lon="6.3214520">
        <ele>738.8</ele>
        <time>2021-08-19T08:34:18Z</time>
      </trkpt>
      <trkpt lat="45.3714820" lon="6.3214740">
        <ele>739.0</ele>
        <time>2021-08-19T08:34:19Z</time>
      </trkpt>
      <trkpt lat="45.3715220" lon="6.3215290">
        <ele>739.6</ele>
        <time>2021-08-19T08:34:22Z</time>
      </trkpt>
      <trkpt lat="45.3715340" lon="6.3215420">
        <ele>740.4</ele>
        <time>2021-08-19T08:34:23Z</time>
      </trkpt>
      <trkpt lat="45.3715490" lon="6.3215620">
        <ele>740.6</ele>
        <time>2021-08-19T08:34:24Z</time>
      </trkpt>
      <trkpt lat="45.3716090" lon="6.3216470">
        <ele>741.0</ele>
        <time>2021-08-19T08:34:28Z</time>
      </trkpt>
      <trkpt lat="45.3716360" lon="6.3216890">
        <ele>741.4</ele>
        <time>2021-08-19T08:34:30Z</time>
      </trkpt>
      <trkpt lat="45.3717100" lon="6.3217620">
        <ele>742.2</ele>
        <time>2021-08-19T08:34:34Z</time>
      </trkpt>
      <trkpt lat="45.3717460" lon="6.3218080">
        <ele>742.8</ele>
        <time>2021-08-19T08:34:37Z</time>
      </trkpt>
      <trkpt lat="45.3718110" lon="6.3218580">
        <ele>743.4</ele>
        <time>2021-08-19T08:34:41Z</time>
      </trkpt>
      <trkpt lat="45.3718550" lon="6.3218890">
        <ele>744.4</ele>
        <time>2021-08-19T08:34:44Z</time>
      </trkpt>
      <trkpt lat="45.3719070" lon="6.3219150">
        <ele>745.4</ele>
        <time>2021-08-19T08:34:47Z</time>
      </trkpt>
      <trkpt lat="45.3719230" lon="6.3219210">
        <ele>745.6</ele>
        <time>2021-08-19T08:34:48Z</time>
      </trkpt>
      <trkpt lat="45.3720290" lon="6.3219680">
        <ele>746.6</ele>
        <time>2021-08-19T08:34:54Z</time>
      </trkpt>
      <trkpt lat="45.3721580" lon="6.3219590">
        <ele>747.6</ele>
        <time>2021-08-19T08:35:00Z</time>
      </trkpt>
      <trkpt lat="45.3722570" lon="6.3219280">
        <ele>748.6</ele>
        <time>2021-08-19T08:35:05Z</time>
      </trkpt>
      <trkpt lat="45.3722760" lon="6.3219180">
        <ele>748.8</ele>
        <time>2021-08-19T08:35:06Z</time>
      </trkpt>
      <trkpt lat="45.3722970" lon="6.3219140">
        <ele>749.0</ele>
        <time>2021-08-19T08:35:07Z</time>
      </trkpt>
      <trkpt lat="45.3723140" lon="6.3219080">
        <ele>749.6</ele>
        <time>2021-08-19T08:35:08Z</time>
      </trkpt>
      <trkpt lat="45.3724040" lon="6.3218610">
        <ele>750.8</ele>
        <time>2021-08-19T08:35:13Z</time>
      </trkpt>
      <trkpt lat="45.3724220" lon="6.3218500">
        <ele>751.2</ele>
        <time>2021-08-19T08:35:14Z</time>
      </trkpt>
      <trkpt lat="45.3724980" lon="6.3218210">
        <ele>752.0</ele>
        <time>2021-08-19T08:35:18Z</time>
      </trkpt>
      <trkpt lat="45.3726370" lon="6.3217600">
        <ele>753.0</ele>
        <time>2021-08-19T08:35:24Z</time>
      </trkpt>
      <trkpt lat="45.3726610" lon="6.3217450">
        <ele>753.0</ele>
        <time>2021-08-19T08:35:25Z</time>
      </trkpt>
      <trkpt lat="45.3727850" lon="6.3217000">
        <ele>753.8</ele>
        <time>2021-08-19T08:35:30Z</time>
      </trkpt>
      <trkpt lat="45.3728070" lon="6.3216860">
        <ele>754.0</ele>
        <time>2021-08-19T08:35:31Z</time>
      </trkpt>
      <trkpt lat="45.3728300" lon="6.3216760">
        <ele>754.2</ele>
        <time>2021-08-19T08:35:32Z</time>
      </trkpt>
      <trkpt lat="45.3728710" lon="6.3216570">
        <ele>754.8</ele>
        <time>2021-08-19T08:35:34Z</time>
      </trkpt>
      <trkpt lat="45.3728910" lon="6.3216430">
        <ele>755.0</ele>
        <time>2021-08-19T08:35:35Z</time>
      </trkpt>
      <trkpt lat="45.3729380" lon="6.3216210">
        <ele>755.0</ele>
        <time>2021-08-19T08:35:37Z</time>
      </trkpt>
      <trkpt lat="45.3729550" lon="6.3216110">
        <ele>755.2</ele>
        <time>2021-08-19T08:35:38Z</time>
      </trkpt>
      <trkpt lat="45.3729730" lon="6.3215950">
        <ele>755.4</ele>
        <time>2021-08-19T08:35:39Z</time>
      </trkpt>
      <trkpt lat="45.3730140" lon="6.3215670">
        <ele>755.6</ele>
        <time>2021-08-19T08:35:41Z</time>
      </trkpt>
      <trkpt lat="45.3730280" lon="6.3215570">
        <ele>755.6</ele>
        <time>2021-08-19T08:35:42Z</time>
      </trkpt>
      <trkpt lat="45.3730460" lon="6.3215460">
        <ele>756.2</ele>
        <time>2021-08-19T08:35:43Z</time>
      </trkpt>
      <trkpt lat="45.3730870" lon="6.3215200">
        <ele>756.4</ele>
        <time>2021-08-19T08:35:45Z</time>
      </trkpt>
      <trkpt lat="45.3731060" lon="6.3215090">
        <ele>756.6</ele>
        <time>2021-08-19T08:35:46Z</time>
      </trkpt>
      <trkpt lat="45.3731410" lon="6.3214870">
        <ele>757.2</ele>
        <time>2021-08-19T08:35:48Z</time>
      </trkpt>
      <trkpt lat="45.3732200" lon="6.3214370">
        <ele>758.4</ele>
        <time>2021-08-19T08:35:52Z</time>
      </trkpt>
      <trkpt lat="45.3732990" lon="6.3213740">
        <ele>759.4</ele>
        <time>2021-08-19T08:35:56Z</time>
      </trkpt>
      <trkpt lat="45.3734320" lon="6.3212770">
        <ele>760.4</ele>
        <time>2021-08-19T08:36:03Z</time>
      </trkpt>
      <trkpt lat="45.3734920" lon="6.3212310">
        <ele>761.0</ele>
        <time>2021-08-19T08:36:06Z</time>
      </trkpt>
      <trkpt lat="45.3735530" lon="6.3211940">
        <ele>761.6</ele>
        <time>2021-08-19T08:36:09Z</time>
      </trkpt>
      <trkpt lat="45.3736600" lon="6.3211630">
        <ele>762.6</ele>
        <time>2021-08-19T08:36:14Z</time>
      </trkpt>
      <trkpt lat="45.3736990" lon="6.3211550">
        <ele>763.2</ele>
        <time>2021-08-19T08:36:16Z</time>
      </trkpt>
      <trkpt lat="45.3737570" lon="6.3211440">
        <ele>763.8</ele>
        <time>2021-08-19T08:36:19Z</time>
      </trkpt>
      <trkpt lat="45.3738350" lon="6.3211460">
        <ele>764.4</ele>
        <time>2021-08-19T08:36:23Z</time>
      </trkpt>
      <trkpt lat="45.3739000" lon="6.3211530">
        <ele>765.0</ele>
        <time>2021-08-19T08:36:26Z</time>
      </trkpt>
      <trkpt lat="45.3740040" lon="6.3211690">
        <ele>766.4</ele>
        <time>2021-08-19T08:36:31Z</time>
      </trkpt>
      <trkpt lat="45.3741100" lon="6.3211980">
        <ele>767.4</ele>
        <time>2021-08-19T08:36:36Z</time>
      </trkpt>
      <trkpt lat="45.3741370" lon="6.3212040">
        <ele>767.6</ele>
        <time>2021-08-19T08:36:37Z</time>
      </trkpt>
      <trkpt lat="45.3741590" lon="6.3212090">
        <ele>768.0</ele>
        <time>2021-08-19T08:36:38Z</time>
      </trkpt>
      <trkpt lat="45.3741980" lon="6.3212240">
        <ele>768.6</ele>
        <time>2021-08-19T08:36:40Z</time>
      </trkpt>
      <trkpt lat="45.3743060" lon="6.3212580">
        <ele>769.2</ele>
        <time>2021-08-19T08:36:45Z</time>
      </trkpt>
      <trkpt lat="45.3743270" lon="6.3212670">
        <ele>769.6</ele>
        <time>2021-08-19T08:36:46Z</time>
      </trkpt>
      <trkpt lat="45.3744010" lon="6.3213620">
        <ele>770.2</ele>
        <time>2021-08-19T08:36:51Z</time>
      </trkpt>
      <trkpt lat="45.3743940" lon="6.3214240">
        <ele>770.6</ele>
        <time>2021-08-19T08:36:53Z</time>
      </trkpt>
      <trkpt lat="45.3743530" lon="6.3214570">
        <ele>771.2</ele>
        <time>2021-08-19T08:36:55Z</time>
      </trkpt>
      <trkpt lat="45.3742970" lon="6.3214400">
        <ele>771.6</ele>
        <time>2021-08-19T08:36:57Z</time>
      </trkpt>
      <trkpt lat="45.3742770" lon="6.3214320">
        <ele>771.8</ele>
        <time>2021-08-19T08:36:58Z</time>
      </trkpt>
      <trkpt lat="45.3742540" lon="6.3214190">
        <ele>772.4</ele>
        <time>2021-08-19T08:36:59Z</time>
      </trkpt>
      <trkpt lat="45.3742300" lon="6.3214110">
        <ele>772.6</ele>
        <time>2021-08-19T08:37:00Z</time>
      </trkpt>
      <trkpt lat="45.3742080" lon="6.3214050">
        <ele>773.2</ele>
        <time>2021-08-19T08:37:01Z</time>
      </trkpt>
      <trkpt lat="45.3741860" lon="6.3213980">
        <ele>773.4</ele>
        <time>2021-08-19T08:37:02Z</time>
      </trkpt>
      <trkpt lat="45.3740930" lon="6.3213810">
        <ele>774.2</ele>
        <time>2021-08-19T08:37:06Z</time>
      </trkpt>
      <trkpt lat="45.3740030" lon="6.3213900">
        <ele>775.2</ele>
        <time>2021-08-19T08:37:10Z</time>
      </trkpt>
      <trkpt lat="45.3739810" lon="6.3213970">
        <ele>775.2</ele>
        <time>2021-08-19T08:37:11Z</time>
      </trkpt>
      <trkpt lat="45.3739610" lon="6.3214070">
        <ele>775.4</ele>
        <time>2021-08-19T08:37:12Z</time>
      </trkpt>
      <trkpt lat="45.3738810" lon="6.3214510">
        <ele>776.0</ele>
        <time>2021-08-19T08:37:16Z</time>
      </trkpt>
      <trkpt lat="45.3738610" lon="6.3214650">
        <ele>776.4</ele>
        <time>2021-08-19T08:37:17Z</time>
      </trkpt>
      <trkpt lat="45.3738120" lon="6.3215130">
        <ele>776.8</ele>
        <time>2021-08-19T08:37:20Z</time>
      </trkpt>
      <trkpt lat="45.3737650" lon="6.3215740">
        <ele>777.6</ele>
        <time>2021-08-19T08:37:23Z</time>
      </trkpt>
      <trkpt lat="45.3737080" lon="6.3216670">
        <ele>778.4</ele>
        <time>2021-08-19T08:37:28Z</time>
      </trkpt>
      <trkpt lat="45.3736880" lon="6.3217160">
        <ele>778.8</ele>
        <time>2021-08-19T08:37:30Z</time>
      </trkpt>
      <trkpt lat="45.3736450" lon="6.3218850">
        <ele>780.2</ele>
        <time>2021-08-19T08:37:36Z</time>
      </trkpt>
      <trkpt lat="45.3736370" lon="6.3219130">
        <ele>780.4</ele>
        <time>2021-08-19T08:37:37Z</time>
      </trkpt>
      <trkpt lat="45.3735850" lon="6.3220820">
        <ele>781.4</ele>
        <time>2021-08-19T08:37:43Z</time>
      </trkpt>
      <trkpt lat="45.3735710" lon="6.3221410">
        <ele>782.0</ele>
        <time>2021-08-19T08:37:45Z</time>
      </trkpt>
      <trkpt lat="45.3735300" lon="6.3222590">
        <ele>782.6</ele>
        <time>2021-08-19T08:37:49Z</time>
      </trkpt>
      <trkpt lat="45.3734970" lon="6.3223950">
        <ele>783.6</ele>
        <time>2021-08-19T08:37:54Z</time>
      </trkpt>
      <trkpt lat="45.3734870" lon="6.3224230">
        <ele>783.6</ele>
        <time>2021-08-19T08:37:55Z</time>
      </trkpt>
      <trkpt lat="45.3734390" lon="6.3225530">
        <ele>784.8</ele>
        <time>2021-08-19T08:38:00Z</time>
      </trkpt>
      <trkpt lat="45.3734290" lon="6.3225800">
        <ele>785.0</ele>
        <time>2021-08-19T08:38:01Z</time>
      </trkpt>
      <trkpt lat="45.3734050" lon="6.3226370">
        <ele>785.6</ele>
        <time>2021-08-19T08:38:03Z</time>
      </trkpt>
      <trkpt lat="45.3733800" lon="6.3226870">
        <ele>786.0</ele>
        <time>2021-08-19T08:38:05Z</time>
      </trkpt>
      <trkpt lat="45.3733330" lon="6.3227930">
        <ele>787.0</ele>
        <time>2021-08-19T08:38:09Z</time>
      </trkpt>
      <trkpt lat="45.3733050" lon="6.3228400">
        <ele>787.4</ele>
        <time>2021-08-19T08:38:11Z</time>
      </trkpt>
      <trkpt lat="45.3732410" lon="6.3229600">
        <ele>788.0</ele>
        <time>2021-08-19T08:38:16Z</time>
      </trkpt>
      <trkpt lat="45.3731880" lon="6.3230520">
        <ele>789.0</ele>
        <time>2021-08-19T08:38:20Z</time>
      </trkpt>
      <trkpt lat="45.3731760" lon="6.3230790">
        <ele>789.0</ele>
        <time>2021-08-19T08:38:21Z</time>
      </trkpt>
      <trkpt lat="45.3730780" lon="6.3232440">
        <ele>790.2</ele>
        <time>2021-08-19T08:38:28Z</time>
      </trkpt>
      <trkpt lat="45.3730030" lon="6.3233380">
        <ele>791.2</ele>
        <time>2021-08-19T08:38:33Z</time>
      </trkpt>
      <trkpt lat="45.3729910" lon="6.3233560">
        <ele>791.6</ele>
        <time>2021-08-19T08:38:34Z</time>
      </trkpt>
      <trkpt lat="45.3729290" lon="6.3234060">
        <ele>792.4</ele>
        <time>2021-08-19T08:38:38Z</time>
      </trkpt>
      <trkpt lat="45.3728790" lon="6.3234330">
        <ele>793.2</ele>
        <time>2021-08-19T08:38:41Z</time>
      </trkpt>
      <trkpt lat="45.3728600" lon="6.3234440">
        <ele>793.4</ele>
        <time>2021-08-19T08:38:42Z</time>
      </trkpt>
      <trkpt lat="45.3728470" lon="6.3234480">
        <ele>793.8</ele>
        <time>2021-08-19T08:38:43Z</time>
      </trkpt>
      <trkpt lat="45.3727960" lon="6.3234600">
        <ele>794.6</ele>
        <time>2021-08-19T08:38:46Z</time>
      </trkpt>
      <trkpt lat="45.3727830" lon="6.3234630">
        <ele>794.8</ele>
        <time>2021-08-19T08:38:47Z</time>
      </trkpt>
      <trkpt lat="45.3727270" lon="6.3234820">
        <ele>795.8</ele>
        <time>2021-08-19T08:38:50Z</time>
      </trkpt>
      <trkpt lat="45.3726730" lon="6.3235040">
        <ele>797.0</ele>
        <time>2021-08-19T08:38:54Z</time>
      </trkpt>
      <trkpt lat="45.3726600" lon="6.3235110">
        <ele>797.2</ele>
        <time>2021-08-19T08:38:55Z</time>
      </trkpt>
      <trkpt lat="45.3725890" lon="6.3235390">
        <ele>798.0</ele>
        <time>2021-08-19T08:38:59Z</time>
      </trkpt>
      <trkpt lat="45.3724650" lon="6.3235560">
        <ele>798.8</ele>
        <time>2021-08-19T08:39:04Z</time>
      </trkpt>
      <trkpt lat="45.3724450" lon="6.3235600">
        <ele>799.0</ele>
        <time>2021-08-19T08:39:05Z</time>
      </trkpt>
      <trkpt lat="45.3723480" lon="6.3235610">
        <ele>799.8</ele>
        <time>2021-08-19T08:39:10Z</time>
      </trkpt>
      <trkpt lat="45.3723330" lon="6.3235620">
        <ele>800.0</ele>
        <time>2021-08-19T08:39:11Z</time>
      </trkpt>
      <trkpt lat="45.3722490" lon="6.3235940">
        <ele>801.0</ele>
        <time>2021-08-19T08:39:15Z</time>
      </trkpt>
      <trkpt lat="45.3721040" lon="6.3236140">
        <ele>801.8</ele>
        <time>2021-08-19T08:39:20Z</time>
      </trkpt>
      <trkpt lat="45.3720800" lon="6.3236270">
        <ele>802.0</ele>
        <time>2021-08-19T08:39:21Z</time>
      </trkpt>
      <trkpt lat="45.3719500" lon="6.3237450">
        <ele>803.2</ele>
        <time>2021-08-19T08:39:27Z</time>
      </trkpt>
      <trkpt lat="45.3719440" lon="6.3238840">
        <ele>804.6</ele>
        <time>2021-08-19T08:39:32Z</time>
      </trkpt>
      <trkpt lat="45.3720480" lon="6.3239890">
        <ele>805.4</ele>
        <time>2021-08-19T08:39:38Z</time>
      </trkpt>
      <trkpt lat="45.3720910" lon="6.3239850">
        <ele>805.8</ele>
        <time>2021-08-19T08:39:40Z</time>
      </trkpt>
      <trkpt lat="45.3721750" lon="6.3239450">
        <ele>806.4</ele>
        <time>2021-08-19T08:39:44Z</time>
      </trkpt>
      <trkpt lat="45.3722430" lon="6.3239150">
        <ele>807.2</ele>
        <time>2021-08-19T08:39:47Z</time>
      </trkpt>
      <trkpt lat="45.3723090" lon="6.3238930">
        <ele>807.8</ele>
        <time>2021-08-19T08:39:50Z</time>
      </trkpt>
      <trkpt lat="45.3723310" lon="6.3238870">
        <ele>807.6</ele>
        <time>2021-08-19T08:39:51Z</time>
      </trkpt>
      <trkpt lat="45.3723560" lon="6.3238800">
        <ele>807.8</ele>
        <time>2021-08-19T08:39:52Z</time>
      </trkpt>
      <trkpt lat="45.3724110" lon="6.3238740">
        <ele>808.0</ele>
        <time>2021-08-19T08:39:54Z</time>
      </trkpt>
      <trkpt lat="45.3724360" lon="6.3238690">
        <ele>808.2</ele>
        <time>2021-08-19T08:39:55Z</time>
      </trkpt>
      <trkpt lat="45.3724610" lon="6.3238700">
        <ele>808.4</ele>
        <time>2021-08-19T08:39:56Z</time>
      </trkpt>
      <trkpt lat="45.3724820" lon="6.3238690">
        <ele>808.6</ele>
        <time>2021-08-19T08:39:57Z</time>
      </trkpt>
      <trkpt lat="45.3725390" lon="6.3238630">
        <ele>809.0</ele>
        <time>2021-08-19T08:39:59Z</time>
      </trkpt>
      <trkpt lat="45.3725620" lon="6.3238660">
        <ele>809.6</ele>
        <time>2021-08-19T08:40:00Z</time>
      </trkpt>
      <trkpt lat="45.3726230" lon="6.3238760">
        <ele>810.0</ele>
        <time>2021-08-19T08:40:02Z</time>
      </trkpt>
      <trkpt lat="45.3726590" lon="6.3238820">
        <ele>810.0</ele>
        <time>2021-08-19T08:40:03Z</time>
      </trkpt>
      <trkpt lat="45.3726900" lon="6.3238910">
        <ele>810.4</ele>
        <time>2021-08-19T08:40:04Z</time>
      </trkpt>
      <trkpt lat="45.3727450" lon="6.3239180">
        <ele>810.6</ele>
        <time>2021-08-19T08:40:06Z</time>
      </trkpt>
      <trkpt lat="45.3727750" lon="6.3239280">
        <ele>810.8</ele>
        <time>2021-08-19T08:40:07Z</time>
      </trkpt>
      <trkpt lat="45.3728470" lon="6.3239520">
        <ele>811.0</ele>
        <time>2021-08-19T08:40:09Z</time>
      </trkpt>
      <trkpt lat="45.3729650" lon="6.3240190">
        <ele>811.8</ele>
        <time>2021-08-19T08:40:13Z</time>
      </trkpt>
      <trkpt lat="45.3729890" lon="6.3240350">
        <ele>812.0</ele>
        <time>2021-08-19T08:40:14Z</time>
      </trkpt>
      <trkpt lat="45.3730300" lon="6.3240770">
        <ele>812.0</ele>
        <time>2021-08-19T08:40:16Z</time>
      </trkpt>
      <trkpt lat="45.3730510" lon="6.3241000">
        <ele>812.2</ele>
        <time>2021-08-19T08:40:17Z</time>
      </trkpt>
      <trkpt lat="45.3731180" lon="6.3241710">
        <ele>812.8</ele>
        <time>2021-08-19T08:40:20Z</time>
      </trkpt>
      <trkpt lat="45.3731990" lon="6.3242460">
        <ele>813.6</ele>
        <time>2021-08-19T08:40:24Z</time>
      </trkpt>
      <trkpt lat="45.3732230" lon="6.3242640">
        <ele>813.8</ele>
        <time>2021-08-19T08:40:25Z</time>
      </trkpt>
      <trkpt lat="45.3732480" lon="6.3242750">
        <ele>814.0</ele>
        <time>2021-08-19T08:40:26Z</time>
      </trkpt>
      <trkpt lat="45.3733410" lon="6.3242880">
        <ele>814.6</ele>
        <time>2021-08-19T08:40:29Z</time>
      </trkpt>
      <trkpt lat="45.3734230" lon="6.3242640">
        <ele>815.6</ele>
        <time>2021-08-19T08:40:32Z</time>
      </trkpt>
      <trkpt lat="45.3734480" lon="6.3242470">
        <ele>816.0</ele>
        <time>2021-08-19T08:40:33Z</time>
      </trkpt>
      <trkpt lat="45.3735100" lon="6.3242020">
        <ele>816.6</ele>
        <time>2021-08-19T08:40:36Z</time>
      </trkpt>
      <trkpt lat="45.3735850" lon="6.3241310">
        <ele>817.6</ele>
        <time>2021-08-19T08:40:40Z</time>
      </trkpt>
      <trkpt lat="45.3736070" lon="6.3241160">
        <ele>818.0</ele>
        <time>2021-08-19T08:40:41Z</time>
      </trkpt>
      <trkpt lat="45.3736310" lon="6.3241020">
        <ele>818.2</ele>
        <time>2021-08-19T08:40:42Z</time>
      </trkpt>
      <trkpt lat="45.3736730" lon="6.3240760">
        <ele>818.6</ele>
        <time>2021-08-19T08:40:44Z</time>
      </trkpt>
      <trkpt lat="45.3736930" lon="6.3240610">
        <ele>818.8</ele>
        <time>2021-08-19T08:40:45Z</time>
      </trkpt>
      <trkpt lat="45.3737270" lon="6.3240260">
        <ele>819.2</ele>
        <time>2021-08-19T08:40:47Z</time>
      </trkpt>
      <trkpt lat="45.3737400" lon="6.3240080">
        <ele>819.4</ele>
        <time>2021-08-19T08:40:48Z</time>
      </trkpt>
      <trkpt lat="45.3737730" lon="6.3239760">
        <ele>819.8</ele>
        <time>2021-08-19T08:40:50Z</time>
      </trkpt>
      <trkpt lat="45.3737900" lon="6.3239600">
        <ele>820.0</ele>
        <time>2021-08-19T08:40:51Z</time>
      </trkpt>
      <trkpt lat="45.3738080" lon="6.3239430">
        <ele>820.0</ele>
        <time>2021-08-19T08:40:52Z</time>
      </trkpt>
      <trkpt lat="45.3738460" lon="6.3239110">
        <ele>820.8</ele>
        <time>2021-08-19T08:40:54Z</time>
      </trkpt>
      <trkpt lat="45.3739340" lon="6.3238300">
        <ele>821.8</ele>
        <time>2021-08-19T08:40:59Z</time>
      </trkpt>
      <trkpt lat="45.3739720" lon="6.3237940">
        <ele>822.2</ele>
        <time>2021-08-19T08:41:01Z</time>
      </trkpt>
      <trkpt lat="45.3740290" lon="6.3237270">
        <ele>823.0</ele>
        <time>2021-08-19T08:41:05Z</time>
      </trkpt>
      <trkpt lat="45.3740450" lon="6.3237130">
        <ele>823.0</ele>
        <time>2021-08-19T08:41:06Z</time>
      </trkpt>
      <trkpt lat="45.3740640" lon="6.3236990">
        <ele>823.2</ele>
        <time>2021-08-19T08:41:07Z</time>
      </trkpt>
      <trkpt lat="45.3740960" lon="6.3236730">
        <ele>824.0</ele>
        <time>2021-08-19T08:41:09Z</time>
      </trkpt>
      <trkpt lat="45.3741150" lon="6.3236550">
        <ele>824.2</ele>
        <time>2021-08-19T08:41:10Z</time>
      </trkpt>
      <trkpt lat="45.3741540" lon="6.3236260">
        <ele>824.6</ele>
        <time>2021-08-19T08:41:12Z</time>
      </trkpt>
      <trkpt lat="45.3741910" lon="6.3236030">
        <ele>825.0</ele>
        <time>2021-08-19T08:41:14Z</time>
      </trkpt>
      <trkpt lat="45.3742880" lon="6.3235360">
        <ele>825.8</ele>
        <time>2021-08-19T08:41:19Z</time>
      </trkpt>
      <trkpt lat="45.3743060" lon="6.3235260">
        <ele>826.2</ele>
        <time>2021-08-19T08:41:20Z</time>
      </trkpt>
      <trkpt lat="45.3743220" lon="6.3235150">
        <ele>826.4</ele>
        <time>2021-08-19T08:41:21Z</time>
      </trkpt>
      <trkpt lat="45.3744540" lon="6.3234440">
        <ele>827.4</ele>
        <time>2021-08-19T08:41:28Z</time>
      </trkpt>
      <trkpt lat="45.3744860" lon="6.3234130">
        <ele>827.8</ele>
        <time>2021-08-19T08:41:30Z</time>
      </trkpt>
      <trkpt lat="45.3745180" lon="6.3233810">
        <ele>828.4</ele>
        <time>2021-08-19T08:41:32Z</time>
      </trkpt>
      <trkpt lat="45.3745910" lon="6.3233510">
        <ele>829.6</ele>
        <time>2021-08-19T08:41:36Z</time>
      </trkpt>
      <trkpt lat="45.3746290" lon="6.3233340">
        <ele>830.2</ele>
        <time>2021-08-19T08:41:38Z</time>
      </trkpt>
      <trkpt lat="45.3747040" lon="6.3232980">
        <ele>830.8</ele>
        <time>2021-08-19T08:41:42Z</time>
      </trkpt>
      <trkpt lat="45.3747580" lon="6.3232850">
        <ele>831.2</ele>
        <time>2021-08-19T08:41:45Z</time>
      </trkpt>
      <trkpt lat="45.3748530" lon="6.3232820">
        <ele>832.2</ele>
        <time>2021-08-19T08:41:50Z</time>
      </trkpt>
      <trkpt lat="45.3749080" lon="6.3232910">
        <ele>832.6</ele>
        <time>2021-08-19T08:41:53Z</time>
      </trkpt>
      <trkpt lat="45.3749520" lon="6.3233070">
        <ele>833.2</ele>
        <time>2021-08-19T08:41:55Z</time>
      </trkpt>
      <trkpt lat="45.3750150" lon="6.3233420">
        <ele>833.8</ele>
        <time>2021-08-19T08:41:58Z</time>
      </trkpt>
      <trkpt lat="45.3750570" lon="6.3233710">
        <ele>834.4</ele>
        <time>2021-08-19T08:42:00Z</time>
      </trkpt>
      <trkpt lat="45.3751810" lon="6.3234360">
        <ele>835.2</ele>
        <time>2021-08-19T08:42:06Z</time>
      </trkpt>
      <trkpt lat="45.3752260" lon="6.3234630">
        <ele>835.6</ele>
        <time>2021-08-19T08:42:08Z</time>
      </trkpt>
      <trkpt lat="45.3752880" lon="6.3234990">
        <ele>836.2</ele>
        <time>2021-08-19T08:42:11Z</time>
      </trkpt>
      <trkpt lat="45.3753100" lon="6.3235120">
        <ele>836.6</ele>
        <time>2021-08-19T08:42:12Z</time>
      </trkpt>
      <trkpt lat="45.3753310" lon="6.3235210">
        <ele>837.0</ele>
        <time>2021-08-19T08:42:13Z</time>
      </trkpt>
      <trkpt lat="45.3753980" lon="6.3235530">
        <ele>837.4</ele>
        <time>2021-08-19T08:42:16Z</time>
      </trkpt>
      <trkpt lat="45.3754440" lon="6.3235830">
        <ele>837.8</ele>
        <time>2021-08-19T08:42:18Z</time>
      </trkpt>
      <trkpt lat="45.3755580" lon="6.3236600">
        <ele>838.8</ele>
        <time>2021-08-19T08:42:23Z</time>
      </trkpt>
      <trkpt lat="45.3756490" lon="6.3237200">
        <ele>839.2</ele>
        <time>2021-08-19T08:42:27Z</time>
      </trkpt>
      <trkpt lat="45.3757110" lon="6.3237580">
        <ele>840.0</ele>
        <time>2021-08-19T08:42:30Z</time>
      </trkpt>
      <trkpt lat="45.3757540" lon="6.3237900">
        <ele>840.4</ele>
        <time>2021-08-19T08:42:32Z</time>
      </trkpt>
      <trkpt lat="45.3757720" lon="6.3238070">
        <ele>840.6</ele>
        <time>2021-08-19T08:42:33Z</time>
      </trkpt>
      <trkpt lat="45.3757920" lon="6.3238280">
        <ele>840.8</ele>
        <time>2021-08-19T08:42:34Z</time>
      </trkpt>
      <trkpt lat="45.3758200" lon="6.3238520">
        <ele>841.2</ele>
        <time>2021-08-19T08:42:36Z</time>
      </trkpt>
      <trkpt lat="45.3758420" lon="6.3238710">
        <ele>841.2</ele>
        <time>2021-08-19T08:42:37Z</time>
      </trkpt>
      <trkpt lat="45.3759080" lon="6.3239150">
        <ele>842.2</ele>
        <time>2021-08-19T08:42:41Z</time>
      </trkpt>
      <trkpt lat="45.3759710" lon="6.3239540">
        <ele>842.6</ele>
        <time>2021-08-19T08:42:44Z</time>
      </trkpt>
      <trkpt lat="45.3760330" lon="6.3239550">
        <ele>843.4</ele>
        <time>2021-08-19T08:42:47Z</time>
      </trkpt>
      <trkpt lat="45.3760520" lon="6.3239510">
        <ele>843.6</ele>
        <time>2021-08-19T08:42:48Z</time>
      </trkpt>
      <trkpt lat="45.3760710" lon="6.3239530">
        <ele>844.0</ele>
        <time>2021-08-19T08:42:49Z</time>
      </trkpt>
      <trkpt lat="45.3760890" lon="6.3239550">
        <ele>844.2</ele>
        <time>2021-08-19T08:42:50Z</time>
      </trkpt>
      <trkpt lat="45.3761190" lon="6.3239530">
        <ele>844.8</ele>
        <time>2021-08-19T08:42:52Z</time>
      </trkpt>
      <trkpt lat="45.3761310" lon="6.3239490">
        <ele>845.0</ele>
        <time>2021-08-19T08:42:53Z</time>
      </trkpt>
      <trkpt lat="45.3761520" lon="6.3239390">
        <ele>845.2</ele>
        <time>2021-08-19T08:42:55Z</time>
      </trkpt>
      <trkpt lat="45.3761760" lon="6.3239400">
        <ele>845.6</ele>
        <time>2021-08-19T08:42:57Z</time>
      </trkpt>
      <trkpt lat="45.3762020" lon="6.3239470">
        <ele>846.2</ele>
        <time>2021-08-19T08:42:58Z</time>
      </trkpt>
      <trkpt lat="45.3762850" lon="6.3239630">
        <ele>846.6</ele>
        <time>2021-08-19T08:43:01Z</time>
      </trkpt>
      <trkpt lat="45.3763500" lon="6.3239740">
        <ele>847.4</ele>
        <time>2021-08-19T08:43:04Z</time>
      </trkpt>
      <trkpt lat="45.3764550" lon="6.3240570">
        <ele>848.4</ele>
        <time>2021-08-19T08:43:08Z</time>
      </trkpt>
      <trkpt lat="45.3764850" lon="6.3240730">
        <ele>848.6</ele>
        <time>2021-08-19T08:43:09Z</time>
      </trkpt>
      <trkpt lat="45.3766110" lon="6.3241530">
        <ele>849.4</ele>
        <time>2021-08-19T08:43:14Z</time>
      </trkpt>
      <trkpt lat="45.3766250" lon="6.3241590">
        <ele>849.8</ele>
        <time>2021-08-19T08:43:15Z</time>
      </trkpt>
      <trkpt lat="45.3766960" lon="6.3241840">
        <ele>851.0</ele>
        <time>2021-08-19T08:43:20Z</time>
      </trkpt>
      <trkpt lat="45.3767140" lon="6.3241870">
        <ele>851.2</ele>
        <time>2021-08-19T08:43:21Z</time>
      </trkpt>
      <trkpt lat="45.3768220" lon="6.3242170">
        <ele>852.2</ele>
        <time>2021-08-19T08:43:26Z</time>
      </trkpt>
      <trkpt lat="45.3768810" lon="6.3242430">
        <ele>852.8</ele>
        <time>2021-08-19T08:43:29Z</time>
      </trkpt>
      <trkpt lat="45.3769220" lon="6.3242660">
        <ele>853.4</ele>
        <time>2021-08-19T08:43:31Z</time>
      </trkpt>
      <trkpt lat="45.3770050" lon="6.3242910">
        <ele>854.4</ele>
        <time>2021-08-19T08:43:35Z</time>
      </trkpt>
      <trkpt lat="45.3770450" lon="6.3243100">
        <ele>854.8</ele>
        <time>2021-08-19T08:43:37Z</time>
      </trkpt>
      <trkpt lat="45.3771260" lon="6.3243480">
        <ele>855.4</ele>
        <time>2021-08-19T08:43:41Z</time>
      </trkpt>
      <trkpt lat="45.3771740" lon="6.3243690">
        <ele>856.2</ele>
        <time>2021-08-19T08:43:44Z</time>
      </trkpt>
      <trkpt lat="45.3772070" lon="6.3243830">
        <ele>856.6</ele>
        <time>2021-08-19T08:43:46Z</time>
      </trkpt>
      <trkpt lat="45.3773150" lon="6.3244060">
        <ele>858.0</ele>
        <time>2021-08-19T08:43:52Z</time>
      </trkpt>
      <trkpt lat="45.3773520" lon="6.3244150">
        <ele>858.2</ele>
        <time>2021-08-19T08:43:54Z</time>
      </trkpt>
      <trkpt lat="45.3773930" lon="6.3244290">
        <ele>858.8</ele>
        <time>2021-08-19T08:43:56Z</time>
      </trkpt>
      <trkpt lat="45.3774030" lon="6.3244310">
        <ele>859.0</ele>
        <time>2021-08-19T08:43:57Z</time>
      </trkpt>
      <trkpt lat="45.3774460" lon="6.3244260">
        <ele>859.8</ele>
        <time>2021-08-19T08:44:00Z</time>
      </trkpt>
      <trkpt lat="45.3774590" lon="6.3244210">
        <ele>860.0</ele>
        <time>2021-08-19T08:44:01Z</time>
      </trkpt>
      <trkpt lat="45.3774760" lon="6.3244210">
        <ele>860.2</ele>
        <time>2021-08-19T08:44:02Z</time>
      </trkpt>
      <trkpt lat="45.3775080" lon="6.3244210">
        <ele>860.2</ele>
        <time>2021-08-19T08:44:04Z</time>
      </trkpt>
      <trkpt lat="45.3775280" lon="6.3244170">
        <ele>860.4</ele>
        <time>2021-08-19T08:44:05Z</time>
      </trkpt>
      <trkpt lat="45.3775600" lon="6.3244300">
        <ele>861.0</ele>
        <time>2021-08-19T08:44:07Z</time>
      </trkpt>
      <trkpt lat="45.3776650" lon="6.3244790">
        <ele>861.8</ele>
        <time>2021-08-19T08:44:12Z</time>
      </trkpt>
      <trkpt lat="45.3777070" lon="6.3245000">
        <ele>862.2</ele>
        <time>2021-08-19T08:44:14Z</time>
      </trkpt>
      <trkpt lat="45.3778150" lon="6.3245640">
        <ele>863.2</ele>
        <time>2021-08-19T08:44:19Z</time>
      </trkpt>
      <trkpt lat="45.3778370" lon="6.3245780">
        <ele>863.6</ele>
        <time>2021-08-19T08:44:20Z</time>
      </trkpt>
      <trkpt lat="45.3779570" lon="6.3246990">
        <ele>864.6</ele>
        <time>2021-08-19T08:44:25Z</time>
      </trkpt>
      <trkpt lat="45.3780950" lon="6.3248010">
        <ele>865.8</ele>
        <time>2021-08-19T08:44:31Z</time>
      </trkpt>
      <trkpt lat="45.3781980" lon="6.3248840">
        <ele>866.6</ele>
        <time>2021-08-19T08:44:35Z</time>
      </trkpt>
      <trkpt lat="45.3782410" lon="6.3249080">
        <ele>867.0</ele>
        <time>2021-08-19T08:44:37Z</time>
      </trkpt>
      <trkpt lat="45.3782910" lon="6.3249140">
        <ele>867.4</ele>
        <time>2021-08-19T08:44:39Z</time>
      </trkpt>
      <trkpt lat="45.3783370" lon="6.3249250">
        <ele>868.0</ele>
        <time>2021-08-19T08:44:41Z</time>
      </trkpt>
      <trkpt lat="45.3783540" lon="6.3249280">
        <ele>868.0</ele>
        <time>2021-08-19T08:44:42Z</time>
      </trkpt>
      <trkpt lat="45.3784470" lon="6.3249080">
        <ele>869.2</ele>
        <time>2021-08-19T08:44:47Z</time>
      </trkpt>
      <trkpt lat="45.3785530" lon="6.3249040">
        <ele>870.2</ele>
        <time>2021-08-19T08:44:52Z</time>
      </trkpt>
      <trkpt lat="45.3785740" lon="6.3249020">
        <ele>870.4</ele>
        <time>2021-08-19T08:44:53Z</time>
      </trkpt>
      <trkpt lat="45.3786990" lon="6.3248950">
        <ele>871.4</ele>
        <time>2021-08-19T08:44:59Z</time>
      </trkpt>
      <trkpt lat="45.3787440" lon="6.3248850">
        <ele>871.8</ele>
        <time>2021-08-19T08:45:01Z</time>
      </trkpt>
      <trkpt lat="45.3788130" lon="6.3248840">
        <ele>872.4</ele>
        <time>2021-08-19T08:45:04Z</time>
      </trkpt>
      <trkpt lat="45.3789410" lon="6.3249070">
        <ele>873.6</ele>
        <time>2021-08-19T08:45:10Z</time>
      </trkpt>
      <trkpt lat="45.3790750" lon="6.3249980">
        <ele>874.6</ele>
        <time>2021-08-19T08:45:16Z</time>
      </trkpt>
      <trkpt lat="45.3791160" lon="6.3250630">
        <ele>875.2</ele>
        <time>2021-08-19T08:45:19Z</time>
      </trkpt>
      <trkpt lat="45.3791700" lon="6.3251640">
        <ele>875.8</ele>
        <time>2021-08-19T08:45:23Z</time>
      </trkpt>
      <trkpt lat="45.3791970" lon="6.3252470">
        <ele>876.6</ele>
        <time>2021-08-19T08:45:26Z</time>
      </trkpt>
      <trkpt lat="45.3792110" lon="6.3253020">
        <ele>877.0</ele>
        <time>2021-08-19T08:45:28Z</time>
      </trkpt>
      <trkpt lat="45.3792470" lon="6.3254740">
        <ele>877.8</ele>
        <time>2021-08-19T08:45:34Z</time>
      </trkpt>
      <trkpt lat="45.3792480" lon="6.3255380">
        <ele>878.2</ele>
        <time>2021-08-19T08:45:36Z</time>
      </trkpt>
      <trkpt lat="45.3792450" lon="6.3256000">
        <ele>878.8</ele>
        <time>2021-08-19T08:45:38Z</time>
      </trkpt>
      <trkpt lat="45.3792350" lon="6.3257030">
        <ele>879.2</ele>
        <time>2021-08-19T08:45:41Z</time>
      </trkpt>
      <trkpt lat="45.3792220" lon="6.3257780">
        <ele>879.8</ele>
        <time>2021-08-19T08:45:43Z</time>
      </trkpt>
      <trkpt lat="45.3792080" lon="6.3259930">
        <ele>880.2</ele>
        <time>2021-08-19T08:45:48Z</time>
      </trkpt>
      <trkpt lat="45.3792100" lon="6.3260360">
        <ele>880.6</ele>
        <time>2021-08-19T08:45:49Z</time>
      </trkpt>
      <trkpt lat="45.3792360" lon="6.3262440">
        <ele>881.0</ele>
        <time>2021-08-19T08:45:54Z</time>
      </trkpt>
      <trkpt lat="45.3792400" lon="6.3262790">
        <ele>881.2</ele>
        <time>2021-08-19T08:45:55Z</time>
      </trkpt>
      <trkpt lat="45.3792460" lon="6.3263230">
        <ele>881.6</ele>
        <time>2021-08-19T08:45:56Z</time>
      </trkpt>
      <trkpt lat="45.3792880" lon="6.3266140">
        <ele>882.6</ele>
        <time>2021-08-19T08:46:02Z</time>
      </trkpt>
      <trkpt lat="45.3792930" lon="6.3266620">
        <ele>882.8</ele>
        <time>2021-08-19T08:46:03Z</time>
      </trkpt>
      <trkpt lat="45.3792980" lon="6.3267050">
        <ele>882.8</ele>
        <time>2021-08-19T08:46:04Z</time>
      </trkpt>
      <trkpt lat="45.3793050" lon="6.3267480">
        <ele>883.2</ele>
        <time>2021-08-19T08:46:05Z</time>
      </trkpt>
      <trkpt lat="45.3793140" lon="6.3267920">
        <ele>883.2</ele>
        <time>2021-08-19T08:46:06Z</time>
      </trkpt>
      <trkpt lat="45.3793250" lon="6.3268340">
        <ele>883.6</ele>
        <time>2021-08-19T08:46:07Z</time>
      </trkpt>
      <trkpt lat="45.3793400" lon="6.3268740">
        <ele>883.6</ele>
        <time>2021-08-19T08:46:08Z</time>
      </trkpt>
      <trkpt lat="45.3793560" lon="6.3269130">
        <ele>884.0</ele>
        <time>2021-08-19T08:46:09Z</time>
      </trkpt>
      <trkpt lat="45.3793740" lon="6.3269480">
        <ele>884.0</ele>
        <time>2021-08-19T08:46:10Z</time>
      </trkpt>
      <trkpt lat="45.3793920" lon="6.3269780">
        <ele>884.2</ele>
        <time>2021-08-19T08:46:11Z</time>
      </trkpt>
      <trkpt lat="45.3794070" lon="6.3270100">
        <ele>884.6</ele>
        <time>2021-08-19T08:46:12Z</time>
      </trkpt>
      <trkpt lat="45.3794250" lon="6.3270380">
        <ele>885.0</ele>
        <time>2021-08-19T08:46:13Z</time>
      </trkpt>
      <trkpt lat="45.3794410" lon="6.3270650">
        <ele>885.0</ele>
        <time>2021-08-19T08:46:14Z</time>
      </trkpt>
      <trkpt lat="45.3794760" lon="6.3271240">
        <ele>885.4</ele>
        <time>2021-08-19T08:46:16Z</time>
      </trkpt>
      <trkpt lat="45.3794920" lon="6.3271510">
        <ele>885.8</ele>
        <time>2021-08-19T08:46:17Z</time>
      </trkpt>
      <trkpt lat="45.3795280" lon="6.3272110">
        <ele>886.2</ele>
        <time>2021-08-19T08:46:19Z</time>
      </trkpt>
      <trkpt lat="45.3795470" lon="6.3272410">
        <ele>886.2</ele>
        <time>2021-08-19T08:46:20Z</time>
      </trkpt>
      <trkpt lat="45.3796020" lon="6.3273250">
        <ele>886.4</ele>
        <time>2021-08-19T08:46:23Z</time>
      </trkpt>
      <trkpt lat="45.3796390" lon="6.3273840">
        <ele>886.8</ele>
        <time>2021-08-19T08:46:25Z</time>
      </trkpt>
      <trkpt lat="45.3796560" lon="6.3274120">
        <ele>887.2</ele>
        <time>2021-08-19T08:46:26Z</time>
      </trkpt>
      <trkpt lat="45.3796870" lon="6.3274650">
        <ele>887.6</ele>
        <time>2021-08-19T08:46:28Z</time>
      </trkpt>
      <trkpt lat="45.3797190" lon="6.3275150">
        <ele>888.0</ele>
        <time>2021-08-19T08:46:30Z</time>
      </trkpt>
      <trkpt lat="45.3797360" lon="6.3275390">
        <ele>888.4</ele>
        <time>2021-08-19T08:46:31Z</time>
      </trkpt>
      <trkpt lat="45.3797510" lon="6.3275620">
        <ele>888.4</ele>
        <time>2021-08-19T08:46:32Z</time>
      </trkpt>
      <trkpt lat="45.3797740" lon="6.3276110">
        <ele>888.8</ele>
        <time>2021-08-19T08:46:34Z</time>
      </trkpt>
      <trkpt lat="45.3798070" lon="6.3276560">
        <ele>889.0</ele>
        <time>2021-08-19T08:46:36Z</time>
      </trkpt>
      <trkpt lat="45.3798480" lon="6.3276960">
        <ele>889.4</ele>
        <time>2021-08-19T08:46:38Z</time>
      </trkpt>
      <trkpt lat="45.3798910" lon="6.3277290">
        <ele>889.6</ele>
        <time>2021-08-19T08:46:40Z</time>
      </trkpt>
      <trkpt lat="45.3799290" lon="6.3277600">
        <ele>890.2</ele>
        <time>2021-08-19T08:46:42Z</time>
      </trkpt>
      <trkpt lat="45.3799470" lon="6.3277730">
        <ele>890.4</ele>
        <time>2021-08-19T08:46:43Z</time>
      </trkpt>
      <trkpt lat="45.3800840" lon="6.3278550">
        <ele>891.6</ele>
        <time>2021-08-19T08:46:49Z</time>
      </trkpt>
      <trkpt lat="45.3801410" lon="6.3278830">
        <ele>892.6</ele>
        <time>2021-08-19T08:46:52Z</time>
      </trkpt>
      <trkpt lat="45.3802250" lon="6.3279250">
        <ele>893.6</ele>
        <time>2021-08-19T08:46:57Z</time>
      </trkpt>
      <trkpt lat="45.3802590" lon="6.3279450">
        <ele>894.0</ele>
        <time>2021-08-19T08:46:58Z</time>
      </trkpt>
      <trkpt lat="45.3803560" lon="6.3280520">
        <ele>895.0</ele>
        <time>2021-08-19T08:47:03Z</time>
      </trkpt>
      <trkpt lat="45.3804040" lon="6.3280970">
        <ele>895.4</ele>
        <time>2021-08-19T08:47:05Z</time>
      </trkpt>
      <trkpt lat="45.3804800" lon="6.3281710">
        <ele>896.0</ele>
        <time>2021-08-19T08:47:09Z</time>
      </trkpt>
      <trkpt lat="45.3804990" lon="6.3281920">
        <ele>896.0</ele>
        <time>2021-08-19T08:47:10Z</time>
      </trkpt>
      <trkpt lat="45.3805590" lon="6.3282570">
        <ele>896.6</ele>
        <time>2021-08-19T08:47:13Z</time>
      </trkpt>
      <trkpt lat="45.3806320" lon="6.3283190">
        <ele>897.0</ele>
        <time>2021-08-19T08:47:17Z</time>
      </trkpt>
      <trkpt lat="45.3806690" lon="6.3283550">
        <ele>897.6</ele>
        <time>2021-08-19T08:47:19Z</time>
      </trkpt>
      <trkpt lat="45.3807010" lon="6.3283880">
        <ele>898.2</ele>
        <time>2021-08-19T08:47:21Z</time>
      </trkpt>
      <trkpt lat="45.3807210" lon="6.3284080">
        <ele>898.4</ele>
        <time>2021-08-19T08:47:22Z</time>
      </trkpt>
      <trkpt lat="45.3807440" lon="6.3284240">
        <ele>898.6</ele>
        <time>2021-08-19T08:47:23Z</time>
      </trkpt>
      <trkpt lat="45.3807680" lon="6.3284440">
        <ele>898.8</ele>
        <time>2021-08-19T08:47:24Z</time>
      </trkpt>
      <trkpt lat="45.3807870" lon="6.3284610">
        <ele>899.0</ele>
        <time>2021-08-19T08:47:25Z</time>
      </trkpt>
      <trkpt lat="45.3808060" lon="6.3284760">
        <ele>899.2</ele>
        <time>2021-08-19T08:47:26Z</time>
      </trkpt>
      <trkpt lat="45.3808390" lon="6.3285160">
        <ele>899.6</ele>
        <time>2021-08-19T08:47:28Z</time>
      </trkpt>
      <trkpt lat="45.3808560" lon="6.3285350">
        <ele>899.8</ele>
        <time>2021-08-19T08:47:29Z</time>
      </trkpt>
      <trkpt lat="45.3809020" lon="6.3285790">
        <ele>900.4</ele>
        <time>2021-08-19T08:47:31Z</time>
      </trkpt>
      <trkpt lat="45.3809330" lon="6.3286130">
        <ele>900.6</ele>
        <time>2021-08-19T08:47:33Z</time>
      </trkpt>
      <trkpt lat="45.3809710" lon="6.3286460">
        <ele>901.2</ele>
        <time>2021-08-19T08:47:35Z</time>
      </trkpt>
      <trkpt lat="45.3810190" lon="6.3286780">
        <ele>901.4</ele>
        <time>2021-08-19T08:47:37Z</time>
      </trkpt>
      <trkpt lat="45.3810460" lon="6.3287080">
        <ele>902.0</ele>
        <time>2021-08-19T08:47:39Z</time>
      </trkpt>
      <trkpt lat="45.3810710" lon="6.3287380">
        <ele>902.4</ele>
        <time>2021-08-19T08:47:41Z</time>
      </trkpt>
      <trkpt lat="45.3810940" lon="6.3287620">
        <ele>902.6</ele>
        <time>2021-08-19T08:47:42Z</time>
      </trkpt>
      <trkpt lat="45.3811140" lon="6.3287780">
        <ele>902.8</ele>
        <time>2021-08-19T08:47:43Z</time>
      </trkpt>
      <trkpt lat="45.3811290" lon="6.3287960">
        <ele>903.0</ele>
        <time>2021-08-19T08:47:44Z</time>
      </trkpt>
      <trkpt lat="45.3811480" lon="6.3288160">
        <ele>903.4</ele>
        <time>2021-08-19T08:47:45Z</time>
      </trkpt>
      <trkpt lat="45.3811820" lon="6.3288510">
        <ele>903.8</ele>
        <time>2021-08-19T08:47:47Z</time>
      </trkpt>
      <trkpt lat="45.3812000" lon="6.3288700">
        <ele>904.0</ele>
        <time>2021-08-19T08:47:48Z</time>
      </trkpt>
      <trkpt lat="45.3812390" lon="6.3289090">
        <ele>904.4</ele>
        <time>2021-08-19T08:47:50Z</time>
      </trkpt>
      <trkpt lat="45.3812540" lon="6.3289280">
        <ele>904.8</ele>
        <time>2021-08-19T08:47:51Z</time>
      </trkpt>
      <trkpt lat="45.3812990" lon="6.3289920">
        <ele>905.4</ele>
        <time>2021-08-19T08:47:54Z</time>
      </trkpt>
      <trkpt lat="45.3813380" lon="6.3290420">
        <ele>905.6</ele>
        <time>2021-08-19T08:47:56Z</time>
      </trkpt>
      <trkpt lat="45.3813540" lon="6.3290620">
        <ele>905.8</ele>
        <time>2021-08-19T08:47:57Z</time>
      </trkpt>
      <trkpt lat="45.3813700" lon="6.3290820">
        <ele>906.0</ele>
        <time>2021-08-19T08:47:58Z</time>
      </trkpt>
      <trkpt lat="45.3813860" lon="6.3291020">
        <ele>906.0</ele>
        <time>2021-08-19T08:47:59Z</time>
      </trkpt>
      <trkpt lat="45.3814600" lon="6.3291970">
        <ele>907.0</ele>
        <time>2021-08-19T08:48:03Z</time>
      </trkpt>
      <trkpt lat="45.3814830" lon="6.3292280">
        <ele>907.2</ele>
        <time>2021-08-19T08:48:04Z</time>
      </trkpt>
      <trkpt lat="45.3815740" lon="6.3293550">
        <ele>908.0</ele>
        <time>2021-08-19T08:48:09Z</time>
      </trkpt>
      <trkpt lat="45.3816120" lon="6.3293980">
        <ele>908.4</ele>
        <time>2021-08-19T08:48:11Z</time>
      </trkpt>
      <trkpt lat="45.3816280" lon="6.3294260">
        <ele>908.6</ele>
        <time>2021-08-19T08:48:12Z</time>
      </trkpt>
      <trkpt lat="45.3816640" lon="6.3294720">
        <ele>909.2</ele>
        <time>2021-08-19T08:48:14Z</time>
      </trkpt>
      <trkpt lat="45.3816950" lon="6.3295250">
        <ele>909.8</ele>
        <time>2021-08-19T08:48:16Z</time>
      </trkpt>
      <trkpt lat="45.3817680" lon="6.3295750">
        <ele>910.4</ele>
        <time>2021-08-19T08:48:19Z</time>
      </trkpt>
      <trkpt lat="45.3818390" lon="6.3296180">
        <ele>911.0</ele>
        <time>2021-08-19T08:48:23Z</time>
      </trkpt>
      <trkpt lat="45.3818630" lon="6.3296220">
        <ele>911.2</ele>
        <time>2021-08-19T08:48:24Z</time>
      </trkpt>
      <trkpt lat="45.3818880" lon="6.3296220">
        <ele>911.4</ele>
        <time>2021-08-19T08:48:25Z</time>
      </trkpt>
      <trkpt lat="45.3819410" lon="6.3296100">
        <ele>911.8</ele>
        <time>2021-08-19T08:48:27Z</time>
      </trkpt>
      <trkpt lat="45.3819700" lon="6.3296060">
        <ele>911.8</ele>
        <time>2021-08-19T08:48:28Z</time>
      </trkpt>
      <trkpt lat="45.3820010" lon="6.3296000">
        <ele>912.0</ele>
        <time>2021-08-19T08:48:29Z</time>
      </trkpt>
      <trkpt lat="45.3820290" lon="6.3295930">
        <ele>912.2</ele>
        <time>2021-08-19T08:48:30Z</time>
      </trkpt>
      <trkpt lat="45.3820570" lon="6.3295900">
        <ele>912.4</ele>
        <time>2021-08-19T08:48:31Z</time>
      </trkpt>
      <trkpt lat="45.3820830" lon="6.3295830">
        <ele>912.8</ele>
        <time>2021-08-19T08:48:32Z</time>
      </trkpt>
      <trkpt lat="45.3821090" lon="6.3295770">
        <ele>912.8</ele>
        <time>2021-08-19T08:48:33Z</time>
      </trkpt>
      <trkpt lat="45.3821350" lon="6.3295710">
        <ele>913.4</ele>
        <time>2021-08-19T08:48:34Z</time>
      </trkpt>
      <trkpt lat="45.3821820" lon="6.3295480">
        <ele>913.6</ele>
        <time>2021-08-19T08:48:36Z</time>
      </trkpt>
      <trkpt lat="45.3822040" lon="6.3295400">
        <ele>913.8</ele>
        <time>2021-08-19T08:48:37Z</time>
      </trkpt>
      <trkpt lat="45.3822250" lon="6.3295330">
        <ele>914.0</ele>
        <time>2021-08-19T08:48:38Z</time>
      </trkpt>
      <trkpt lat="45.3822890" lon="6.3295100">
        <ele>914.4</ele>
        <time>2021-08-19T08:48:41Z</time>
      </trkpt>
      <trkpt lat="45.3823550" lon="6.3294770">
        <ele>915.4</ele>
        <time>2021-08-19T08:48:44Z</time>
      </trkpt>
      <trkpt lat="45.3823760" lon="6.3294650">
        <ele>915.8</ele>
        <time>2021-08-19T08:48:45Z</time>
      </trkpt>
      <trkpt lat="45.3825060" lon="6.3293950">
        <ele>916.4</ele>
        <time>2021-08-19T08:48:51Z</time>
      </trkpt>
      <trkpt lat="45.3825500" lon="6.3293720">
        <ele>916.6</ele>
        <time>2021-08-19T08:48:53Z</time>
      </trkpt>
      <trkpt lat="45.3826160" lon="6.3293480">
        <ele>917.0</ele>
        <time>2021-08-19T08:48:56Z</time>
      </trkpt>
      <trkpt lat="45.3826580" lon="6.3293340">
        <ele>917.6</ele>
        <time>2021-08-19T08:48:58Z</time>
      </trkpt>
      <trkpt lat="45.3827010" lon="6.3293150">
        <ele>918.0</ele>
        <time>2021-08-19T08:49:00Z</time>
      </trkpt>
      <trkpt lat="45.3827700" lon="6.3292730">
        <ele>918.6</ele>
        <time>2021-08-19T08:49:03Z</time>
      </trkpt>
      <trkpt lat="45.3827890" lon="6.3292660">
        <ele>918.6</ele>
        <time>2021-08-19T08:49:04Z</time>
      </trkpt>
      <trkpt lat="45.3828170" lon="6.3292580">
        <ele>918.8</ele>
        <time>2021-08-19T08:49:05Z</time>
      </trkpt>
      <trkpt lat="45.3829290" lon="6.3292150">
        <ele>919.8</ele>
        <time>2021-08-19T08:49:10Z</time>
      </trkpt>
      <trkpt lat="45.3830350" lon="6.3291830">
        <ele>920.6</ele>
        <time>2021-08-19T08:49:15Z</time>
      </trkpt>
      <trkpt lat="45.3830550" lon="6.3291780">
        <ele>920.8</ele>
        <time>2021-08-19T08:49:16Z</time>
      </trkpt>
      <trkpt lat="45.3831630" lon="6.3291580">
        <ele>922.0</ele>
        <time>2021-08-19T08:49:21Z</time>
      </trkpt>
      <trkpt lat="45.3832310" lon="6.3291610">
        <ele>922.6</ele>
        <time>2021-08-19T08:49:24Z</time>
      </trkpt>
      <trkpt lat="45.3832740" lon="6.3291680">
        <ele>923.2</ele>
        <time>2021-08-19T08:49:26Z</time>
      </trkpt>
      <trkpt lat="45.3833820" lon="6.3291910">
        <ele>924.4</ele>
        <time>2021-08-19T08:49:32Z</time>
      </trkpt>
      <trkpt lat="45.3834250" lon="6.3291930">
        <ele>924.6</ele>
        <time>2021-08-19T08:49:34Z</time>
      </trkpt>
      <trkpt lat="45.3834930" lon="6.3291930">
        <ele>925.2</ele>
        <time>2021-08-19T08:49:37Z</time>
      </trkpt>
      <trkpt lat="45.3835950" lon="6.3292080">
        <ele>926.2</ele>
        <time>2021-08-19T08:49:41Z</time>
      </trkpt>
      <trkpt lat="45.3836160" lon="6.3292090">
        <ele>926.4</ele>
        <time>2021-08-19T08:49:42Z</time>
      </trkpt>
      <trkpt lat="45.3837070" lon="6.3292080">
        <ele>927.4</ele>
        <time>2021-08-19T08:49:46Z</time>
      </trkpt>
      <trkpt lat="45.3838150" lon="6.3291830">
        <ele>928.4</ele>
        <time>2021-08-19T08:49:51Z</time>
      </trkpt>
      <trkpt lat="45.3838820" lon="6.3291240">
        <ele>929.2</ele>
        <time>2021-08-19T08:49:55Z</time>
      </trkpt>
      <trkpt lat="45.3839300" lon="6.3290650">
        <ele>930.0</ele>
        <time>2021-08-19T08:49:58Z</time>
      </trkpt>
      <trkpt lat="45.3839420" lon="6.3290430">
        <ele>930.2</ele>
        <time>2021-08-19T08:49:59Z</time>
      </trkpt>
      <trkpt lat="45.3839950" lon="6.3289550">
        <ele>931.0</ele>
        <time>2021-08-19T08:50:03Z</time>
      </trkpt>
      <trkpt lat="45.3840470" lon="6.3288680">
        <ele>932.0</ele>
        <time>2021-08-19T08:50:07Z</time>
      </trkpt>
      <trkpt lat="45.3840570" lon="6.3288460">
        <ele>932.0</ele>
        <time>2021-08-19T08:50:08Z</time>
      </trkpt>
      <trkpt lat="45.3840830" lon="6.3288000">
        <ele>932.2</ele>
        <time>2021-08-19T08:50:10Z</time>
      </trkpt>
      <trkpt lat="45.3841340" lon="6.3287120">
        <ele>933.2</ele>
        <time>2021-08-19T08:50:14Z</time>
      </trkpt>
      <trkpt lat="45.3841560" lon="6.3286660">
        <ele>933.6</ele>
        <time>2021-08-19T08:50:16Z</time>
      </trkpt>
      <trkpt lat="45.3841950" lon="6.3285760">
        <ele>934.4</ele>
        <time>2021-08-19T08:50:20Z</time>
      </trkpt>
      <trkpt lat="45.3842440" lon="6.3284570">
        <ele>935.4</ele>
        <time>2021-08-19T08:50:25Z</time>
      </trkpt>
      <trkpt lat="45.3842870" lon="6.3283300">
        <ele>936.6</ele>
        <time>2021-08-19T08:50:30Z</time>
      </trkpt>
      <trkpt lat="45.3843110" lon="6.3282510">
        <ele>937.2</ele>
        <time>2021-08-19T08:50:33Z</time>
      </trkpt>
      <trkpt lat="45.3843190" lon="6.3282210">
        <ele>937.6</ele>
        <time>2021-08-19T08:50:34Z</time>
      </trkpt>
      <trkpt lat="45.3843270" lon="6.3281910">
        <ele>937.6</ele>
        <time>2021-08-19T08:50:35Z</time>
      </trkpt>
      <trkpt lat="45.3843500" lon="6.3279960">
        <ele>938.6</ele>
        <time>2021-08-19T08:50:41Z</time>
      </trkpt>
      <trkpt lat="45.3843480" lon="6.3279350">
        <ele>938.8</ele>
        <time>2021-08-19T08:50:43Z</time>
      </trkpt>
      <trkpt lat="45.3843470" lon="6.3278200">
        <ele>939.6</ele>
        <time>2021-08-19T08:50:47Z</time>
      </trkpt>
      <trkpt lat="45.3843670" lon="6.3276940">
        <ele>940.6</ele>
        <time>2021-08-19T08:50:51Z</time>
      </trkpt>
      <trkpt lat="45.3843820" lon="6.3276640">
        <ele>940.8</ele>
        <time>2021-08-19T08:50:52Z</time>
      </trkpt>
      <trkpt lat="45.3844220" lon="6.3276290">
        <ele>941.2</ele>
        <time>2021-08-19T08:50:54Z</time>
      </trkpt>
      <trkpt lat="45.3844670" lon="6.3276400">
        <ele>941.8</ele>
        <time>2021-08-19T08:50:56Z</time>
      </trkpt>
      <trkpt lat="45.3845010" lon="6.3277010">
        <ele>942.0</ele>
        <time>2021-08-19T08:50:58Z</time>
      </trkpt>
      <trkpt lat="45.3845070" lon="6.3277400">
        <ele>942.2</ele>
        <time>2021-08-19T08:50:59Z</time>
      </trkpt>
      <trkpt lat="45.3845070" lon="6.3277800">
        <ele>942.4</ele>
        <time>2021-08-19T08:51:00Z</time>
      </trkpt>
      <trkpt lat="45.3845050" lon="6.3278190">
        <ele>942.4</ele>
        <time>2021-08-19T08:51:01Z</time>
      </trkpt>
      <trkpt lat="45.3844990" lon="6.3278580">
        <ele>942.6</ele>
        <time>2021-08-19T08:51:02Z</time>
      </trkpt>
      <trkpt lat="45.3844930" lon="6.3278980">
        <ele>942.8</ele>
        <time>2021-08-19T08:51:03Z</time>
      </trkpt>
      <trkpt lat="45.3844840" lon="6.3279400">
        <ele>942.8</ele>
        <time>2021-08-19T08:51:04Z</time>
      </trkpt>
      <trkpt lat="45.3844750" lon="6.3279850">
        <ele>943.0</ele>
        <time>2021-08-19T08:51:05Z</time>
      </trkpt>
      <trkpt lat="45.3844660" lon="6.3280770">
        <ele>943.4</ele>
        <time>2021-08-19T08:51:07Z</time>
      </trkpt>
      <trkpt lat="45.3844610" lon="6.3281240">
        <ele>943.8</ele>
        <time>2021-08-19T08:51:08Z</time>
      </trkpt>
      <trkpt lat="45.3844500" lon="6.3282160">
        <ele>944.4</ele>
        <time>2021-08-19T08:51:10Z</time>
      </trkpt>
      <trkpt lat="45.3844450" lon="6.3282600">
        <ele>944.6</ele>
        <time>2021-08-19T08:51:11Z</time>
      </trkpt>
      <trkpt lat="45.3844390" lon="6.3283050">
        <ele>944.6</ele>
        <time>2021-08-19T08:51:12Z</time>
      </trkpt>
      <trkpt lat="45.3844300" lon="6.3283950">
        <ele>944.8</ele>
        <time>2021-08-19T08:51:14Z</time>
      </trkpt>
      <trkpt lat="45.3844230" lon="6.3284960">
        <ele>945.2</ele>
        <time>2021-08-19T08:51:16Z</time>
      </trkpt>
      <trkpt lat="45.3844220" lon="6.3285330">
        <ele>945.2</ele>
        <time>2021-08-19T08:51:17Z</time>
      </trkpt>
      <trkpt lat="45.3844200" lon="6.3285820">
        <ele>945.4</ele>
        <time>2021-08-19T08:51:18Z</time>
      </trkpt>
      <trkpt lat="45.3844210" lon="6.3286310">
        <ele>945.4</ele>
        <time>2021-08-19T08:51:19Z</time>
      </trkpt>
      <trkpt lat="45.3844160" lon="6.3287280">
        <ele>945.6</ele>
        <time>2021-08-19T08:51:21Z</time>
      </trkpt>
      <trkpt lat="45.3844130" lon="6.3287770">
        <ele>945.8</ele>
        <time>2021-08-19T08:51:22Z</time>
      </trkpt>
      <trkpt lat="45.3844090" lon="6.3288260">
        <ele>945.8</ele>
        <time>2021-08-19T08:51:23Z</time>
      </trkpt>
      <trkpt lat="45.3844040" lon="6.3288770">
        <ele>946.0</ele>
        <time>2021-08-19T08:51:24Z</time>
      </trkpt>
      <trkpt lat="45.3843980" lon="6.3289840">
        <ele>946.4</ele>
        <time>2021-08-19T08:51:26Z</time>
      </trkpt>
      <trkpt lat="45.3843870" lon="6.3290960">
        <ele>946.6</ele>
        <time>2021-08-19T08:51:28Z</time>
      </trkpt>
      <trkpt lat="45.3843560" lon="6.3292660">
        <ele>946.8</ele>
        <time>2021-08-19T08:51:31Z</time>
      </trkpt>
      <trkpt lat="45.3843300" lon="6.3293590">
        <ele>947.0</ele>
        <time>2021-08-19T08:51:33Z</time>
      </trkpt>
      <trkpt lat="45.3843170" lon="6.3294070">
        <ele>947.2</ele>
        <time>2021-08-19T08:51:34Z</time>
      </trkpt>
      <trkpt lat="45.3842940" lon="6.3295040">
        <ele>947.0</ele>
        <time>2021-08-19T08:51:36Z</time>
      </trkpt>
      <trkpt lat="45.3842850" lon="6.3295490">
        <ele>947.0</ele>
        <time>2021-08-19T08:51:37Z</time>
      </trkpt>
      <trkpt lat="45.3842620" lon="6.3296270">
        <ele>947.2</ele>
        <time>2021-08-19T08:51:39Z</time>
      </trkpt>
      <trkpt lat="45.3842370" lon="6.3297040">
        <ele>947.8</ele>
        <time>2021-08-19T08:51:41Z</time>
      </trkpt>
      <trkpt lat="45.3842230" lon="6.3297430">
        <ele>948.0</ele>
        <time>2021-08-19T08:51:42Z</time>
      </trkpt>
      <trkpt lat="45.3842140" lon="6.3297820">
        <ele>948.4</ele>
        <time>2021-08-19T08:51:43Z</time>
      </trkpt>
      <trkpt lat="45.3841960" lon="6.3298590">
        <ele>949.2</ele>
        <time>2021-08-19T08:51:45Z</time>
      </trkpt>
      <trkpt lat="45.3841880" lon="6.3298960">
        <ele>949.4</ele>
        <time>2021-08-19T08:51:46Z</time>
      </trkpt>
      <trkpt lat="45.3841780" lon="6.3299260">
        <ele>949.4</ele>
        <time>2021-08-19T08:51:47Z</time>
      </trkpt>
      <trkpt lat="45.3841680" lon="6.3299570">
        <ele>949.8</ele>
        <time>2021-08-19T08:51:48Z</time>
      </trkpt>
      <trkpt lat="45.3841610" lon="6.3299870">
        <ele>949.8</ele>
        <time>2021-08-19T08:51:49Z</time>
      </trkpt>
      <trkpt lat="45.3841450" lon="6.3300600">
        <ele>950.4</ele>
        <time>2021-08-19T08:51:51Z</time>
      </trkpt>
      <trkpt lat="45.3841370" lon="6.3300920">
        <ele>950.8</ele>
        <time>2021-08-19T08:51:52Z</time>
      </trkpt>
      <trkpt lat="45.3841120" lon="6.3301850">
        <ele>951.6</ele>
        <time>2021-08-19T08:51:55Z</time>
      </trkpt>
      <trkpt lat="45.3841040" lon="6.3302180">
        <ele>952.0</ele>
        <time>2021-08-19T08:51:56Z</time>
      </trkpt>
      <trkpt lat="45.3840730" lon="6.3303910">
        <ele>953.2</ele>
        <time>2021-08-19T08:52:01Z</time>
      </trkpt>
      <trkpt lat="45.3840670" lon="6.3304540">
        <ele>953.8</ele>
        <time>2021-08-19T08:52:03Z</time>
      </trkpt>
      <trkpt lat="45.3840480" lon="6.3305240">
        <ele>954.2</ele>
        <time>2021-08-19T08:52:05Z</time>
      </trkpt>
      <trkpt lat="45.3839600" lon="6.3306680">
        <ele>955.2</ele>
        <time>2021-08-19T08:52:10Z</time>
      </trkpt>
      <trkpt lat="45.3839290" lon="6.3306990">
        <ele>955.4</ele>
        <time>2021-08-19T08:52:11Z</time>
      </trkpt>
      <trkpt lat="45.3838570" lon="6.3307840">
        <ele>955.8</ele>
        <time>2021-08-19T08:52:14Z</time>
      </trkpt>
      <trkpt lat="45.3838380" lon="6.3308570">
        <ele>955.8</ele>
        <time>2021-08-19T08:52:16Z</time>
      </trkpt>
      <trkpt lat="45.3838600" lon="6.3309640">
        <ele>956.0</ele>
        <time>2021-08-19T08:52:19Z</time>
      </trkpt>
      <trkpt lat="45.3838840" lon="6.3309910">
        <ele>956.0</ele>
        <time>2021-08-19T08:52:20Z</time>
      </trkpt>
      <trkpt lat="45.3839490" lon="6.3310270">
        <ele>956.6</ele>
        <time>2021-08-19T08:52:23Z</time>
      </trkpt>
      <trkpt lat="45.3840170" lon="6.3310270">
        <ele>957.2</ele>
        <time>2021-08-19T08:52:26Z</time>
      </trkpt>
      <trkpt lat="45.3840350" lon="6.3310190">
        <ele>957.6</ele>
        <time>2021-08-19T08:52:27Z</time>
      </trkpt>
      <trkpt lat="45.3840960" lon="6.3309470">
        <ele>958.6</ele>
        <time>2021-08-19T08:52:31Z</time>
      </trkpt>
      <trkpt lat="45.3841070" lon="6.3309250">
        <ele>958.6</ele>
        <time>2021-08-19T08:52:32Z</time>
      </trkpt>
      <trkpt lat="45.3841870" lon="6.3307760">
        <ele>959.2</ele>
        <time>2021-08-19T08:52:37Z</time>
      </trkpt>
      <trkpt lat="45.3841940" lon="6.3307330">
        <ele>959.4</ele>
        <time>2021-08-19T08:52:38Z</time>
      </trkpt>
      <trkpt lat="45.3841980" lon="6.3306990">
        <ele>959.8</ele>
        <time>2021-08-19T08:52:39Z</time>
      </trkpt>
      <trkpt lat="45.3842330" lon="6.3305760">
        <ele>960.8</ele>
        <time>2021-08-19T08:52:43Z</time>
      </trkpt>
      <trkpt lat="45.3842410" lon="6.3305450">
        <ele>961.0</ele>
        <time>2021-08-19T08:52:44Z</time>
      </trkpt>
      <trkpt lat="45.3842730" lon="6.3304540">
        <ele>961.4</ele>
        <time>2021-08-19T08:52:47Z</time>
      </trkpt>
      <trkpt lat="45.3843190" lon="6.3303340">
        <ele>962.0</ele>
        <time>2021-08-19T08:52:51Z</time>
      </trkpt>
      <trkpt lat="45.3843310" lon="6.3303090">
        <ele>962.2</ele>
        <time>2021-08-19T08:52:52Z</time>
      </trkpt>
      <trkpt lat="45.3843450" lon="6.3302840">
        <ele>962.6</ele>
        <time>2021-08-19T08:52:53Z</time>
      </trkpt>
      <trkpt lat="45.3843770" lon="6.3302380">
        <ele>963.0</ele>
        <time>2021-08-19T08:52:55Z</time>
      </trkpt>
      <trkpt lat="45.3843950" lon="6.3302180">
        <ele>963.2</ele>
        <time>2021-08-19T08:52:56Z</time>
      </trkpt>
      <trkpt lat="45.3844130" lon="6.3302000">
        <ele>963.6</ele>
        <time>2021-08-19T08:52:57Z</time>
      </trkpt>
      <trkpt lat="45.3844690" lon="6.3301410">
        <ele>964.2</ele>
        <time>2021-08-19T08:53:00Z</time>
      </trkpt>
      <trkpt lat="45.3844890" lon="6.3301190">
        <ele>964.4</ele>
        <time>2021-08-19T08:53:01Z</time>
      </trkpt>
      <trkpt lat="45.3845470" lon="6.3300470">
        <ele>965.4</ele>
        <time>2021-08-19T08:53:04Z</time>
      </trkpt>
      <trkpt lat="45.3845660" lon="6.3300240">
        <ele>965.8</ele>
        <time>2021-08-19T08:53:05Z</time>
      </trkpt>
      <trkpt lat="45.3846250" lon="6.3299520">
        <ele>966.6</ele>
        <time>2021-08-19T08:53:08Z</time>
      </trkpt>
      <trkpt lat="45.3846420" lon="6.3299290">
        <ele>966.8</ele>
        <time>2021-08-19T08:53:09Z</time>
      </trkpt>
      <trkpt lat="45.3846600" lon="6.3299060">
        <ele>967.2</ele>
        <time>2021-08-19T08:53:10Z</time>
      </trkpt>
      <trkpt lat="45.3847190" lon="6.3298440">
        <ele>967.6</ele>
        <time>2021-08-19T08:53:13Z</time>
      </trkpt>
      <trkpt lat="45.3847780" lon="6.3297870">
        <ele>968.0</ele>
        <time>2021-08-19T08:53:16Z</time>
      </trkpt>
      <trkpt lat="45.3847990" lon="6.3297680">
        <ele>968.2</ele>
        <time>2021-08-19T08:53:17Z</time>
      </trkpt>
      <trkpt lat="45.3848810" lon="6.3297050">
        <ele>969.2</ele>
        <time>2021-08-19T08:53:21Z</time>
      </trkpt>
      <trkpt lat="45.3849030" lon="6.3296890">
        <ele>969.4</ele>
        <time>2021-08-19T08:53:22Z</time>
      </trkpt>
      <trkpt lat="45.3849240" lon="6.3296790">
        <ele>969.6</ele>
        <time>2021-08-19T08:53:23Z</time>
      </trkpt>
      <trkpt lat="45.3849480" lon="6.3296670">
        <ele>969.6</ele>
        <time>2021-08-19T08:53:24Z</time>
      </trkpt>
      <trkpt lat="45.3849640" lon="6.3296570">
        <ele>970.0</ele>
        <time>2021-08-19T08:53:25Z</time>
      </trkpt>
      <trkpt lat="45.3849860" lon="6.3296460">
        <ele>970.2</ele>
        <time>2021-08-19T08:53:26Z</time>
      </trkpt>
      <trkpt lat="45.3850080" lon="6.3296340">
        <ele>970.2</ele>
        <time>2021-08-19T08:53:27Z</time>
      </trkpt>
      <trkpt lat="45.3850310" lon="6.3296220">
        <ele>970.4</ele>
        <time>2021-08-19T08:53:28Z</time>
      </trkpt>
      <trkpt lat="45.3850740" lon="6.3295970">
        <ele>970.8</ele>
        <time>2021-08-19T08:53:30Z</time>
      </trkpt>
      <trkpt lat="45.3850920" lon="6.3295810">
        <ele>971.0</ele>
        <time>2021-08-19T08:53:31Z</time>
      </trkpt>
      <trkpt lat="45.3851160" lon="6.3295670">
        <ele>971.2</ele>
        <time>2021-08-19T08:53:32Z</time>
      </trkpt>
      <trkpt lat="45.3851340" lon="6.3295600">
        <ele>971.4</ele>
        <time>2021-08-19T08:53:33Z</time>
      </trkpt>
      <trkpt lat="45.3851530" lon="6.3295510">
        <ele>971.6</ele>
        <time>2021-08-19T08:53:34Z</time>
      </trkpt>
      <trkpt lat="45.3851970" lon="6.3295300">
        <ele>972.6</ele>
        <time>2021-08-19T08:53:36Z</time>
      </trkpt>
      <trkpt lat="45.3852220" lon="6.3295210">
        <ele>972.8</ele>
        <time>2021-08-19T08:53:37Z</time>
      </trkpt>
      <trkpt lat="45.3853250" lon="6.3294550">
        <ele>973.6</ele>
        <time>2021-08-19T08:53:42Z</time>
      </trkpt>
      <trkpt lat="45.3853870" lon="6.3294220">
        <ele>974.0</ele>
        <time>2021-08-19T08:53:45Z</time>
      </trkpt>
      <trkpt lat="45.3854570" lon="6.3294540">
        <ele>974.6</ele>
        <time>2021-08-19T08:53:48Z</time>
      </trkpt>
      <trkpt lat="45.3855010" lon="6.3295000">
        <ele>975.0</ele>
        <time>2021-08-19T08:53:50Z</time>
      </trkpt>
      <trkpt lat="45.3855050" lon="6.3296290">
        <ele>975.2</ele>
        <time>2021-08-19T08:53:54Z</time>
      </trkpt>
      <trkpt lat="45.3854750" lon="6.3296800">
        <ele>975.6</ele>
        <time>2021-08-19T08:53:56Z</time>
      </trkpt>
      <trkpt lat="45.3853950" lon="6.3297550">
        <ele>976.6</ele>
        <time>2021-08-19T08:54:00Z</time>
      </trkpt>
      <trkpt lat="45.3853720" lon="6.3297690">
        <ele>976.8</ele>
        <time>2021-08-19T08:54:01Z</time>
      </trkpt>
      <trkpt lat="45.3853270" lon="6.3298020">
        <ele>977.0</ele>
        <time>2021-08-19T08:54:03Z</time>
      </trkpt>
      <trkpt lat="45.3853040" lon="6.3298210">
        <ele>977.4</ele>
        <time>2021-08-19T08:54:04Z</time>
      </trkpt>
      <trkpt lat="45.3852820" lon="6.3298410">
        <ele>977.6</ele>
        <time>2021-08-19T08:54:05Z</time>
      </trkpt>
      <trkpt lat="45.3852610" lon="6.3298620">
        <ele>977.8</ele>
        <time>2021-08-19T08:54:06Z</time>
      </trkpt>
      <trkpt lat="45.3852410" lon="6.3298830">
        <ele>978.0</ele>
        <time>2021-08-19T08:54:07Z</time>
      </trkpt>
      <trkpt lat="45.3852220" lon="6.3299030">
        <ele>978.2</ele>
        <time>2021-08-19T08:54:08Z</time>
      </trkpt>
      <trkpt lat="45.3851470" lon="6.3299790">
        <ele>979.0</ele>
        <time>2021-08-19T08:54:12Z</time>
      </trkpt>
      <trkpt lat="45.3851130" lon="6.3300110">
        <ele>979.2</ele>
        <time>2021-08-19T08:54:14Z</time>
      </trkpt>
      <trkpt lat="45.3851020" lon="6.3300280">
        <ele>979.4</ele>
        <time>2021-08-19T08:54:15Z</time>
      </trkpt>
      <trkpt lat="45.3850820" lon="6.3300500">
        <ele>979.4</ele>
        <time>2021-08-19T08:54:16Z</time>
      </trkpt>
      <trkpt lat="45.3850450" lon="6.3300780">
        <ele>979.8</ele>
        <time>2021-08-19T08:54:18Z</time>
      </trkpt>
      <trkpt lat="45.3850330" lon="6.3300880">
        <ele>980.0</ele>
        <time>2021-08-19T08:54:19Z</time>
      </trkpt>
      <trkpt lat="45.3850180" lon="6.3301010">
        <ele>980.0</ele>
        <time>2021-08-19T08:54:20Z</time>
      </trkpt>
      <trkpt lat="45.3849840" lon="6.3301280">
        <ele>980.6</ele>
        <time>2021-08-19T08:54:22Z</time>
      </trkpt>
      <trkpt lat="45.3849660" lon="6.3301380">
        <ele>981.0</ele>
        <time>2021-08-19T08:54:23Z</time>
      </trkpt>
      <trkpt lat="45.3849330" lon="6.3301630">
        <ele>981.4</ele>
        <time>2021-08-19T08:54:25Z</time>
      </trkpt>
      <trkpt lat="45.3848530" lon="6.3302210">
        <ele>982.4</ele>
        <time>2021-08-19T08:54:29Z</time>
      </trkpt>
      <trkpt lat="45.3847550" lon="6.3303000">
        <ele>983.4</ele>
        <time>2021-08-19T08:54:33Z</time>
      </trkpt>
      <trkpt lat="45.3846450" lon="6.3304450">
        <ele>984.2</ele>
        <time>2021-08-19T08:54:39Z</time>
      </trkpt>
      <trkpt lat="45.3846310" lon="6.3304830">
        <ele>984.4</ele>
        <time>2021-08-19T08:54:40Z</time>
      </trkpt>
      <trkpt lat="45.3846250" lon="6.3306480">
        <ele>985.4</ele>
        <time>2021-08-19T08:54:45Z</time>
      </trkpt>
      <trkpt lat="45.3846320" lon="6.3306800">
        <ele>985.4</ele>
        <time>2021-08-19T08:54:46Z</time>
      </trkpt>
      <trkpt lat="45.3846760" lon="6.3307960">
        <ele>986.4</ele>
        <time>2021-08-19T08:54:50Z</time>
      </trkpt>
      <trkpt lat="45.3846890" lon="6.3308230">
        <ele>986.8</ele>
        <time>2021-08-19T08:54:51Z</time>
      </trkpt>
      <trkpt lat="45.3847360" lon="6.3309410">
        <ele>987.6</ele>
        <time>2021-08-19T08:54:55Z</time>
      </trkpt>
      <trkpt lat="45.3847560" lon="6.3309980">
        <ele>987.8</ele>
        <time>2021-08-19T08:54:57Z</time>
      </trkpt>
      <trkpt lat="45.3847650" lon="6.3310270">
        <ele>988.0</ele>
        <time>2021-08-19T08:54:58Z</time>
      </trkpt>
      <trkpt lat="45.3847650" lon="6.3311790">
        <ele>989.0</ele>
        <time>2021-08-19T08:55:03Z</time>
      </trkpt>
      <trkpt lat="45.3847640" lon="6.3312090">
        <ele>989.2</ele>
        <time>2021-08-19T08:55:04Z</time>
      </trkpt>
      <trkpt lat="45.3847230" lon="6.3313610">
        <ele>990.0</ele>
        <time>2021-08-19T08:55:09Z</time>
      </trkpt>
      <trkpt lat="45.3846850" lon="6.3314480">
        <ele>990.6</ele>
        <time>2021-08-19T08:55:12Z</time>
      </trkpt>
      <trkpt lat="45.3846620" lon="6.3315050">
        <ele>991.2</ele>
        <time>2021-08-19T08:55:14Z</time>
      </trkpt>
      <trkpt lat="45.3846030" lon="6.3316160">
        <ele>992.0</ele>
        <time>2021-08-19T08:55:18Z</time>
      </trkpt>
      <trkpt lat="45.3845910" lon="6.3316430">
        <ele>992.2</ele>
        <time>2021-08-19T08:55:19Z</time>
      </trkpt>
      <trkpt lat="45.3845660" lon="6.3316910">
        <ele>992.6</ele>
        <time>2021-08-19T08:55:21Z</time>
      </trkpt>
      <trkpt lat="45.3845560" lon="6.3317180">
        <ele>992.6</ele>
        <time>2021-08-19T08:55:22Z</time>
      </trkpt>
      <trkpt lat="45.3845480" lon="6.3317800">
        <ele>993.0</ele>
        <time>2021-08-19T08:55:24Z</time>
      </trkpt>
      <trkpt lat="45.3845510" lon="6.3318130">
        <ele>993.2</ele>
        <time>2021-08-19T08:55:25Z</time>
      </trkpt>
      <trkpt lat="45.3845580" lon="6.3318450">
        <ele>993.2</ele>
        <time>2021-08-19T08:55:26Z</time>
      </trkpt>
      <trkpt lat="45.3845720" lon="6.3318710">
        <ele>993.4</ele>
        <time>2021-08-19T08:55:27Z</time>
      </trkpt>
      <trkpt lat="45.3846130" lon="6.3319080">
        <ele>994.0</ele>
        <time>2021-08-19T08:55:29Z</time>
      </trkpt>
      <trkpt lat="45.3846790" lon="6.3319250">
        <ele>994.8</ele>
        <time>2021-08-19T08:55:32Z</time>
      </trkpt>
      <trkpt lat="45.3847140" lon="6.3318880">
        <ele>995.2</ele>
        <time>2021-08-19T08:55:34Z</time>
      </trkpt>
      <trkpt lat="45.3847500" lon="6.3318350">
        <ele>995.4</ele>
        <time>2021-08-19T08:55:36Z</time>
      </trkpt>
      <trkpt lat="45.3847930" lon="6.3317490">
        <ele>995.8</ele>
        <time>2021-08-19T08:55:39Z</time>
      </trkpt>
      <trkpt lat="45.3848160" lon="6.3316840">
        <ele>996.0</ele>
        <time>2021-08-19T08:55:41Z</time>
      </trkpt>
      <trkpt lat="45.3848690" lon="6.3315580">
        <ele>996.2</ele>
        <time>2021-08-19T08:55:45Z</time>
      </trkpt>
      <trkpt lat="45.3848820" lon="6.3315290">
        <ele>996.2</ele>
        <time>2021-08-19T08:55:46Z</time>
      </trkpt>
      <trkpt lat="45.3848940" lon="6.3315030">
        <ele>996.6</ele>
        <time>2021-08-19T08:55:47Z</time>
      </trkpt>
      <trkpt lat="45.3849520" lon="6.3313930">
        <ele>997.6</ele>
        <time>2021-08-19T08:55:51Z</time>
      </trkpt>
      <trkpt lat="45.3849670" lon="6.3313670">
        <ele>997.6</ele>
        <time>2021-08-19T08:55:52Z</time>
      </trkpt>
      <trkpt lat="45.3849930" lon="6.3313160">
        <ele>998.0</ele>
        <time>2021-08-19T08:55:54Z</time>
      </trkpt>
      <trkpt lat="45.3850290" lon="6.3312420">
        <ele>998.8</ele>
        <time>2021-08-19T08:55:57Z</time>
      </trkpt>
      <trkpt lat="45.3850570" lon="6.3312090">
        <ele>999.2</ele>
        <time>2021-08-19T08:55:59Z</time>
      </trkpt>
      <trkpt lat="45.3850860" lon="6.3311390">
        <ele>1000.0</ele>
        <time>2021-08-19T08:56:02Z</time>
      </trkpt>
      <trkpt lat="45.3851540" lon="6.3310170">
        <ele>1000.6</ele>
        <time>2021-08-19T08:56:07Z</time>
      </trkpt>
      <trkpt lat="45.3851670" lon="6.3309970">
        <ele>1000.8</ele>
        <time>2021-08-19T08:56:08Z</time>
      </trkpt>
      <trkpt lat="45.3852160" lon="6.3308930">
        <ele>1002.0</ele>
        <time>2021-08-19T08:56:13Z</time>
      </trkpt>
      <trkpt lat="45.3852220" lon="6.3308710">
        <ele>1002.2</ele>
        <time>2021-08-19T08:56:14Z</time>
      </trkpt>
      <trkpt lat="45.3852580" lon="6.3308000">
        <ele>1003.0</ele>
        <time>2021-08-19T08:56:17Z</time>
      </trkpt>
      <trkpt lat="45.3852680" lon="6.3307710">
        <ele>1003.0</ele>
        <time>2021-08-19T08:56:18Z</time>
      </trkpt>
      <trkpt lat="45.3852850" lon="6.3307510">
        <ele>1003.4</ele>
        <time>2021-08-19T08:56:19Z</time>
      </trkpt>
      <trkpt lat="45.3853020" lon="6.3307350">
        <ele>1003.6</ele>
        <time>2021-08-19T08:56:20Z</time>
      </trkpt>
      <trkpt lat="45.3853540" lon="6.3306590">
        <ele>1004.0</ele>
        <time>2021-08-19T08:56:24Z</time>
      </trkpt>
      <trkpt lat="45.3854160" lon="6.3306060">
        <ele>1004.8</ele>
        <time>2021-08-19T08:56:27Z</time>
      </trkpt>
      <trkpt lat="45.3854350" lon="6.3305910">
        <ele>1005.0</ele>
        <time>2021-08-19T08:56:28Z</time>
      </trkpt>
      <trkpt lat="45.3854540" lon="6.3305810">
        <ele>1005.2</ele>
        <time>2021-08-19T08:56:29Z</time>
      </trkpt>
      <trkpt lat="45.3854750" lon="6.3305650">
        <ele>1005.6</ele>
        <time>2021-08-19T08:56:30Z</time>
      </trkpt>
      <trkpt lat="45.3855200" lon="6.3305270">
        <ele>1006.0</ele>
        <time>2021-08-19T08:56:32Z</time>
      </trkpt>
      <trkpt lat="45.3855340" lon="6.3305150">
        <ele>1006.2</ele>
        <time>2021-08-19T08:56:33Z</time>
      </trkpt>
      <trkpt lat="45.3855470" lon="6.3305060">
        <ele>1006.6</ele>
        <time>2021-08-19T08:56:34Z</time>
      </trkpt>
      <trkpt lat="45.3855630" lon="6.3304990">
        <ele>1006.6</ele>
        <time>2021-08-19T08:56:35Z</time>
      </trkpt>
      <trkpt lat="45.3856280" lon="6.3305250">
        <ele>1007.4</ele>
        <time>2021-08-19T08:56:38Z</time>
      </trkpt>
      <trkpt lat="45.3856600" lon="6.3305400">
        <ele>1007.8</ele>
        <time>2021-08-19T08:56:40Z</time>
      </trkpt>
      <trkpt lat="45.3856770" lon="6.3305500">
        <ele>1008.0</ele>
        <time>2021-08-19T08:56:41Z</time>
      </trkpt>
      <trkpt lat="45.3856960" lon="6.3305610">
        <ele>1008.2</ele>
        <time>2021-08-19T08:56:42Z</time>
      </trkpt>
      <trkpt lat="45.3857130" lon="6.3305720">
        <ele>1008.4</ele>
        <time>2021-08-19T08:56:43Z</time>
      </trkpt>
      <trkpt lat="45.3857300" lon="6.3305860">
        <ele>1008.6</ele>
        <time>2021-08-19T08:56:44Z</time>
      </trkpt>
      <trkpt lat="45.3857470" lon="6.3305970">
        <ele>1009.0</ele>
        <time>2021-08-19T08:56:45Z</time>
      </trkpt>
      <trkpt lat="45.3857650" lon="6.3306060">
        <ele>1009.0</ele>
        <time>2021-08-19T08:56:46Z</time>
      </trkpt>
      <trkpt lat="45.3857950" lon="6.3306270">
        <ele>1009.6</ele>
        <time>2021-08-19T08:56:48Z</time>
      </trkpt>
      <trkpt lat="45.3858520" lon="6.3306620">
        <ele>1010.4</ele>
        <time>2021-08-19T08:56:52Z</time>
      </trkpt>
      <trkpt lat="45.3858630" lon="6.3306800">
        <ele>1010.6</ele>
        <time>2021-08-19T08:56:53Z</time>
      </trkpt>
      <trkpt lat="45.3858740" lon="6.3306910">
        <ele>1010.8</ele>
        <time>2021-08-19T08:56:54Z</time>
      </trkpt>
      <trkpt lat="45.3858850" lon="6.3307040">
        <ele>1011.0</ele>
        <time>2021-08-19T08:56:55Z</time>
      </trkpt>
      <trkpt lat="45.3858970" lon="6.3307180">
        <ele>1011.0</ele>
        <time>2021-08-19T08:56:56Z</time>
      </trkpt>
      <trkpt lat="45.3859240" lon="6.3307340">
        <ele>1011.6</ele>
        <time>2021-08-19T08:56:58Z</time>
      </trkpt>
      <trkpt lat="45.3859720" lon="6.3307610">
        <ele>1012.2</ele>
        <time>2021-08-19T08:57:01Z</time>
      </trkpt>
      <trkpt lat="45.3860160" lon="6.3308030">
        <ele>1012.8</ele>
        <time>2021-08-19T08:57:04Z</time>
      </trkpt>
      <trkpt lat="45.3860660" lon="6.3308260">
        <ele>1013.4</ele>
        <time>2021-08-19T08:57:07Z</time>
      </trkpt>
      <trkpt lat="45.3861190" lon="6.3308400">
        <ele>1014.0</ele>
        <time>2021-08-19T08:57:10Z</time>
      </trkpt>
      <trkpt lat="45.3862010" lon="6.3308560">
        <ele>1014.8</ele>
        <time>2021-08-19T08:57:14Z</time>
      </trkpt>
      <trkpt lat="45.3862210" lon="6.3308740">
        <ele>1015.2</ele>
        <time>2021-08-19T08:57:15Z</time>
      </trkpt>
      <trkpt lat="45.3862770" lon="6.3309110">
        <ele>1015.6</ele>
        <time>2021-08-19T08:57:18Z</time>
      </trkpt>
      <trkpt lat="45.3863150" lon="6.3309260">
        <ele>1016.0</ele>
        <time>2021-08-19T08:57:20Z</time>
      </trkpt>
      <trkpt lat="45.3863330" lon="6.3309310">
        <ele>1016.2</ele>
        <time>2021-08-19T08:57:21Z</time>
      </trkpt>
      <trkpt lat="45.3864360" lon="6.3309660">
        <ele>1017.0</ele>
        <time>2021-08-19T08:57:26Z</time>
      </trkpt>
      <trkpt lat="45.3864580" lon="6.3309760">
        <ele>1017.2</ele>
        <time>2021-08-19T08:57:27Z</time>
      </trkpt>
      <trkpt lat="45.3865490" lon="6.3310410">
        <ele>1018.2</ele>
        <time>2021-08-19T08:57:32Z</time>
      </trkpt>
      <trkpt lat="45.3866110" lon="6.3310890">
        <ele>1019.0</ele>
        <time>2021-08-19T08:57:35Z</time>
      </trkpt>
      <trkpt lat="45.3866620" lon="6.3311340">
        <ele>1019.6</ele>
        <time>2021-08-19T08:57:38Z</time>
      </trkpt>
      <trkpt lat="45.3867430" lon="6.3312090">
        <ele>1021.0</ele>
        <time>2021-08-19T08:57:43Z</time>
      </trkpt>
      <trkpt lat="45.3867970" lon="6.3312670">
        <ele>1021.4</ele>
        <time>2021-08-19T08:57:46Z</time>
      </trkpt>
      <trkpt lat="45.3868390" lon="6.3313190">
        <ele>1022.0</ele>
        <time>2021-08-19T08:57:49Z</time>
      </trkpt>
      <trkpt lat="45.3869460" lon="6.3314150">
        <ele>1023.0</ele>
        <time>2021-08-19T08:57:55Z</time>
      </trkpt>
      <trkpt lat="45.3870400" lon="6.3314740">
        <ele>1024.0</ele>
        <time>2021-08-19T08:58:00Z</time>
      </trkpt>
      <trkpt lat="45.3870770" lon="6.3314990">
        <ele>1024.2</ele>
        <time>2021-08-19T08:58:02Z</time>
      </trkpt>
      <trkpt lat="45.3871460" lon="6.3315330">
        <ele>1025.0</ele>
        <time>2021-08-19T08:58:06Z</time>
      </trkpt>
      <trkpt lat="45.3872700" lon="6.3316250">
        <ele>1026.4</ele>
        <time>2021-08-19T08:58:12Z</time>
      </trkpt>
      <trkpt lat="45.3873600" lon="6.3317130">
        <ele>1027.2</ele>
        <time>2021-08-19T08:58:17Z</time>
      </trkpt>
      <trkpt lat="45.3873760" lon="6.3317320">
        <ele>1027.4</ele>
        <time>2021-08-19T08:58:18Z</time>
      </trkpt>
      <trkpt lat="45.3873880" lon="6.3317530">
        <ele>1027.8</ele>
        <time>2021-08-19T08:58:19Z</time>
      </trkpt>
      <trkpt lat="45.3874300" lon="6.3318260">
        <ele>1028.4</ele>
        <time>2021-08-19T08:58:23Z</time>
      </trkpt>
      <trkpt lat="45.3874620" lon="6.3318700">
        <ele>1028.6</ele>
        <time>2021-08-19T08:58:25Z</time>
      </trkpt>
      <trkpt lat="45.3874940" lon="6.3319370">
        <ele>1029.2</ele>
        <time>2021-08-19T08:58:28Z</time>
      </trkpt>
      <trkpt lat="45.3875550" lon="6.3320010">
        <ele>1030.2</ele>
        <time>2021-08-19T08:58:32Z</time>
      </trkpt>
      <trkpt lat="45.3875640" lon="6.3320190">
        <ele>1030.4</ele>
        <time>2021-08-19T08:58:33Z</time>
      </trkpt>
      <trkpt lat="45.3876320" lon="6.3321060">
        <ele>1031.4</ele>
        <time>2021-08-19T08:58:38Z</time>
      </trkpt>
      <trkpt lat="45.3876610" lon="6.3321390">
        <ele>1031.6</ele>
        <time>2021-08-19T08:58:40Z</time>
      </trkpt>
      <trkpt lat="45.3877090" lon="6.3321940">
        <ele>1032.6</ele>
        <time>2021-08-19T08:58:43Z</time>
      </trkpt>
      <trkpt lat="45.3877590" lon="6.3322460">
        <ele>1033.2</ele>
        <time>2021-08-19T08:58:46Z</time>
      </trkpt>
      <trkpt lat="45.3877970" lon="6.3322750">
        <ele>1033.6</ele>
        <time>2021-08-19T08:58:48Z</time>
      </trkpt>
      <trkpt lat="45.3878060" lon="6.3323010">
        <ele>1033.8</ele>
        <time>2021-08-19T08:58:49Z</time>
      </trkpt>
      <trkpt lat="45.3878390" lon="6.3323800">
        <ele>1034.2</ele>
        <time>2021-08-19T08:58:52Z</time>
      </trkpt>
      <trkpt lat="45.3878520" lon="6.3324100">
        <ele>1034.2</ele>
        <time>2021-08-19T08:58:53Z</time>
      </trkpt>
      <trkpt lat="45.3878540" lon="6.3324340">
        <ele>1034.4</ele>
        <time>2021-08-19T08:58:54Z</time>
      </trkpt>
      <trkpt lat="45.3878490" lon="6.3324610">
        <ele>1034.8</ele>
        <time>2021-08-19T08:58:55Z</time>
      </trkpt>
      <trkpt lat="45.3878530" lon="6.3325090">
        <ele>1035.4</ele>
        <time>2021-08-19T08:58:57Z</time>
      </trkpt>
      <trkpt lat="45.3878980" lon="6.3326380">
        <ele>1035.8</ele>
        <time>2021-08-19T08:59:01Z</time>
      </trkpt>
      <trkpt lat="45.3878900" lon="6.3326660">
        <ele>1036.0</ele>
        <time>2021-08-19T08:59:02Z</time>
      </trkpt>
      <trkpt lat="45.3878590" lon="6.3327170">
        <ele>1036.8</ele>
        <time>2021-08-19T08:59:04Z</time>
      </trkpt>
      <trkpt lat="45.3878360" lon="6.3327360">
        <ele>1037.0</ele>
        <time>2021-08-19T08:59:05Z</time>
      </trkpt>
      <trkpt lat="45.3878160" lon="6.3327480">
        <ele>1037.2</ele>
        <time>2021-08-19T08:59:06Z</time>
      </trkpt>
      <trkpt lat="45.3877940" lon="6.3328070">
        <ele>1038.0</ele>
        <time>2021-08-19T08:59:09Z</time>
      </trkpt>
      <trkpt lat="45.3877940" lon="6.3328300">
        <ele>1038.6</ele>
        <time>2021-08-19T08:59:10Z</time>
      </trkpt>
      <trkpt lat="45.3877530" lon="6.3329230">
        <ele>1039.4</ele>
        <time>2021-08-19T08:59:14Z</time>
      </trkpt>
      <trkpt lat="45.3877410" lon="6.3329500">
        <ele>1039.6</ele>
        <time>2021-08-19T08:59:15Z</time>
      </trkpt>
      <trkpt lat="45.3877300" lon="6.3329740">
        <ele>1039.8</ele>
        <time>2021-08-19T08:59:16Z</time>
      </trkpt>
      <trkpt lat="45.3877200" lon="6.3329990">
        <ele>1040.2</ele>
        <time>2021-08-19T08:59:17Z</time>
      </trkpt>
      <trkpt lat="45.3876950" lon="6.3330510">
        <ele>1040.4</ele>
        <time>2021-08-19T08:59:19Z</time>
      </trkpt>
      <trkpt lat="45.3876810" lon="6.3330740">
        <ele>1040.6</ele>
        <time>2021-08-19T08:59:20Z</time>
      </trkpt>
      <trkpt lat="45.3876700" lon="6.3330970">
        <ele>1040.8</ele>
        <time>2021-08-19T08:59:21Z</time>
      </trkpt>
      <trkpt lat="45.3876600" lon="6.3331210">
        <ele>1041.0</ele>
        <time>2021-08-19T08:59:22Z</time>
      </trkpt>
      <trkpt lat="45.3876520" lon="6.3331480">
        <ele>1041.2</ele>
        <time>2021-08-19T08:59:23Z</time>
      </trkpt>
      <trkpt lat="45.3876330" lon="6.3332020">
        <ele>1041.6</ele>
        <time>2021-08-19T08:59:25Z</time>
      </trkpt>
      <trkpt lat="45.3876380" lon="6.3332620">
        <ele>1042.0</ele>
        <time>2021-08-19T08:59:27Z</time>
      </trkpt>
      <trkpt lat="45.3876350" lon="6.3332930">
        <ele>1042.2</ele>
        <time>2021-08-19T08:59:28Z</time>
      </trkpt>
      <trkpt lat="45.3876300" lon="6.3333210">
        <ele>1042.4</ele>
        <time>2021-08-19T08:59:29Z</time>
      </trkpt>
      <trkpt lat="45.3876110" lon="6.3334820">
        <ele>1043.2</ele>
        <time>2021-08-19T08:59:34Z</time>
      </trkpt>
      <trkpt lat="45.3876050" lon="6.3335140">
        <ele>1043.2</ele>
        <time>2021-08-19T08:59:35Z</time>
      </trkpt>
      <trkpt lat="45.3875820" lon="6.3336970">
        <ele>1044.0</ele>
        <time>2021-08-19T08:59:41Z</time>
      </trkpt>
      <trkpt lat="45.3875830" lon="6.3337520">
        <ele>1044.4</ele>
        <time>2021-08-19T08:59:43Z</time>
      </trkpt>
      <trkpt lat="45.3875190" lon="6.3338640">
        <ele>1045.2</ele>
        <time>2021-08-19T08:59:48Z</time>
      </trkpt>
      <trkpt lat="45.3875090" lon="6.3338870">
        <ele>1045.8</ele>
        <time>2021-08-19T08:59:49Z</time>
      </trkpt>
      <trkpt lat="45.3874770" lon="6.3339520">
        <ele>1046.6</ele>
        <time>2021-08-19T08:59:52Z</time>
      </trkpt>
      <trkpt lat="45.3874610" lon="6.3339710">
        <ele>1046.8</ele>
        <time>2021-08-19T08:59:53Z</time>
      </trkpt>
      <trkpt lat="45.3874310" lon="6.3340500">
        <ele>1047.2</ele>
        <time>2021-08-19T08:59:56Z</time>
      </trkpt>
      <trkpt lat="45.3874010" lon="6.3340900">
        <ele>1047.8</ele>
        <time>2021-08-19T08:59:58Z</time>
      </trkpt>
      <trkpt lat="45.3873220" lon="6.3342310">
        <ele>1048.8</ele>
        <time>2021-08-19T09:00:04Z</time>
      </trkpt>
      <trkpt lat="45.3873120" lon="6.3342890">
        <ele>1049.4</ele>
        <time>2021-08-19T09:00:06Z</time>
      </trkpt>
      <trkpt lat="45.3873070" lon="6.3343520">
        <ele>1050.0</ele>
        <time>2021-08-19T09:00:08Z</time>
      </trkpt>
      <trkpt lat="45.3873250" lon="6.3344670">
        <ele>1050.6</ele>
        <time>2021-08-19T09:00:12Z</time>
      </trkpt>
      <trkpt lat="45.3873380" lon="6.3345200">
        <ele>1050.8</ele>
        <time>2021-08-19T09:00:14Z</time>
      </trkpt>
      <trkpt lat="45.3874000" lon="6.3346700">
        <ele>1051.8</ele>
        <time>2021-08-19T09:00:20Z</time>
      </trkpt>
      <trkpt lat="45.3874110" lon="6.3346940">
        <ele>1052.0</ele>
        <time>2021-08-19T09:00:21Z</time>
      </trkpt>
      <trkpt lat="45.3874700" lon="6.3348260">
        <ele>1053.2</ele>
        <time>2021-08-19T09:00:27Z</time>
      </trkpt>
      <trkpt lat="45.3874790" lon="6.3348510">
        <ele>1053.4</ele>
        <time>2021-08-19T09:00:28Z</time>
      </trkpt>
      <trkpt lat="45.3875130" lon="6.3349890">
        <ele>1054.2</ele>
        <time>2021-08-19T09:00:33Z</time>
      </trkpt>
      <trkpt lat="45.3875260" lon="6.3350810">
        <ele>1054.6</ele>
        <time>2021-08-19T09:00:36Z</time>
      </trkpt>
      <trkpt lat="45.3875310" lon="6.3351790">
        <ele>1055.2</ele>
        <time>2021-08-19T09:00:39Z</time>
      </trkpt>
      <trkpt lat="45.3875360" lon="6.3353090">
        <ele>1055.8</ele>
        <time>2021-08-19T09:00:43Z</time>
      </trkpt>
      <trkpt lat="45.3875400" lon="6.3354320">
        <ele>1056.2</ele>
        <time>2021-08-19T09:00:47Z</time>
      </trkpt>
      <trkpt lat="45.3875380" lon="6.3355250">
        <ele>1057.0</ele>
        <time>2021-08-19T09:00:50Z</time>
      </trkpt>
      <trkpt lat="45.3875360" lon="6.3355530">
        <ele>1057.4</ele>
        <time>2021-08-19T09:00:51Z</time>
      </trkpt>
      <trkpt lat="45.3875230" lon="6.3357000">
        <ele>1058.0</ele>
        <time>2021-08-19T09:00:56Z</time>
      </trkpt>
      <trkpt lat="45.3875230" lon="6.3357310">
        <ele>1058.6</ele>
        <time>2021-08-19T09:00:57Z</time>
      </trkpt>
      <trkpt lat="45.3875130" lon="6.3359120">
        <ele>1059.6</ele>
        <time>2021-08-19T09:01:03Z</time>
      </trkpt>
      <trkpt lat="45.3875200" lon="6.3360000">
        <ele>1060.6</ele>
        <time>2021-08-19T09:01:06Z</time>
      </trkpt>
      <trkpt lat="45.3875270" lon="6.3360870">
        <ele>1061.0</ele>
        <time>2021-08-19T09:01:09Z</time>
      </trkpt>
      <trkpt lat="45.3875390" lon="6.3361500">
        <ele>1061.6</ele>
        <time>2021-08-19T09:01:12Z</time>
      </trkpt>
      <trkpt lat="45.3875480" lon="6.3362530">
        <ele>1062.6</ele>
        <time>2021-08-19T09:01:16Z</time>
      </trkpt>
      <trkpt lat="45.3875510" lon="6.3362820">
        <ele>1063.2</ele>
        <time>2021-08-19T09:01:17Z</time>
      </trkpt>
      <trkpt lat="45.3875520" lon="6.3363100">
        <ele>1063.2</ele>
        <time>2021-08-19T09:01:18Z</time>
      </trkpt>
      <trkpt lat="45.3875660" lon="6.3364070">
        <ele>1064.2</ele>
        <time>2021-08-19T09:01:22Z</time>
      </trkpt>
      <trkpt lat="45.3875990" lon="6.3365190">
        <ele>1065.4</ele>
        <time>2021-08-19T09:01:27Z</time>
      </trkpt>
      <trkpt lat="45.3876110" lon="6.3365390">
        <ele>1065.6</ele>
        <time>2021-08-19T09:01:28Z</time>
      </trkpt>
      <trkpt lat="45.3876470" lon="6.3365960">
        <ele>1066.4</ele>
        <time>2021-08-19T09:01:31Z</time>
      </trkpt>
      <trkpt lat="45.3876840" lon="6.3366540">
        <ele>1067.6</ele>
        <time>2021-08-19T09:01:34Z</time>
      </trkpt>
      <trkpt lat="45.3877480" lon="6.3367150">
        <ele>1068.4</ele>
        <time>2021-08-19T09:01:38Z</time>
      </trkpt>
      <trkpt lat="45.3877870" lon="6.3367510">
        <ele>1068.6</ele>
        <time>2021-08-19T09:01:40Z</time>
      </trkpt>
      <trkpt lat="45.3878790" lon="6.3368110">
        <ele>1069.6</ele>
        <time>2021-08-19T09:01:44Z</time>
      </trkpt>
      <trkpt lat="45.3879030" lon="6.3368280">
        <ele>1070.2</ele>
        <time>2021-08-19T09:01:45Z</time>
      </trkpt>
      <trkpt lat="45.3879500" lon="6.3368570">
        <ele>1070.8</ele>
        <time>2021-08-19T09:01:47Z</time>
      </trkpt>
      <trkpt lat="45.3880700" lon="6.3369700">
        <ele>1071.6</ele>
        <time>2021-08-19T09:01:54Z</time>
      </trkpt>
      <trkpt lat="45.3880940" lon="6.3369820">
        <ele>1071.8</ele>
        <time>2021-08-19T09:01:55Z</time>
      </trkpt>
      <trkpt lat="45.3881970" lon="6.3370580">
        <ele>1072.8</ele>
        <time>2021-08-19T09:02:01Z</time>
      </trkpt>
      <trkpt lat="45.3882160" lon="6.3370680">
        <ele>1073.2</ele>
        <time>2021-08-19T09:02:02Z</time>
      </trkpt>
      <trkpt lat="45.3882760" lon="6.3371140">
        <ele>1074.0</ele>
        <time>2021-08-19T09:02:06Z</time>
      </trkpt>
      <trkpt lat="45.3883360" lon="6.3371570">
        <ele>1075.0</ele>
        <time>2021-08-19T09:02:10Z</time>
      </trkpt>
      <trkpt lat="45.3883650" lon="6.3371870">
        <ele>1075.2</ele>
        <time>2021-08-19T09:02:12Z</time>
      </trkpt>
      <trkpt lat="45.3884570" lon="6.3372590">
        <ele>1076.4</ele>
        <time>2021-08-19T09:02:17Z</time>
      </trkpt>
      <trkpt lat="45.3885850" lon="6.3373230">
        <ele>1077.2</ele>
        <time>2021-08-19T09:02:23Z</time>
      </trkpt>
      <trkpt lat="45.3886100" lon="6.3373270">
        <ele>1077.4</ele>
        <time>2021-08-19T09:02:24Z</time>
      </trkpt>
      <trkpt lat="45.3886320" lon="6.3373270">
        <ele>1077.6</ele>
        <time>2021-08-19T09:02:25Z</time>
      </trkpt>
      <trkpt lat="45.3887080" lon="6.3373200">
        <ele>1078.0</ele>
        <time>2021-08-19T09:02:28Z</time>
      </trkpt>
      <trkpt lat="45.3887680" lon="6.3373050">
        <ele>1078.4</ele>
        <time>2021-08-19T09:02:31Z</time>
      </trkpt>
      <trkpt lat="45.3888060" lon="6.3372960">
        <ele>1078.4</ele>
        <time>2021-08-19T09:02:33Z</time>
      </trkpt>
      <trkpt lat="45.3888470" lon="6.3372790">
        <ele>1078.8</ele>
        <time>2021-08-19T09:02:35Z</time>
      </trkpt>
      <trkpt lat="45.3888680" lon="6.3372760">
        <ele>1079.2</ele>
        <time>2021-08-19T09:02:36Z</time>
      </trkpt>
      <trkpt lat="45.3889270" lon="6.3372450">
        <ele>1080.0</ele>
        <time>2021-08-19T09:02:39Z</time>
      </trkpt>
      <trkpt lat="45.3889440" lon="6.3372360">
        <ele>1080.2</ele>
        <time>2021-08-19T09:02:40Z</time>
      </trkpt>
      <trkpt lat="45.3889600" lon="6.3372270">
        <ele>1080.2</ele>
        <time>2021-08-19T09:02:41Z</time>
      </trkpt>
      <trkpt lat="45.3889770" lon="6.3372200">
        <ele>1080.8</ele>
        <time>2021-08-19T09:02:42Z</time>
      </trkpt>
      <trkpt lat="45.3890330" lon="6.3371920">
        <ele>1081.6</ele>
        <time>2021-08-19T09:02:45Z</time>
      </trkpt>
      <trkpt lat="45.3891140" lon="6.3371480">
        <ele>1082.6</ele>
        <time>2021-08-19T09:02:49Z</time>
      </trkpt>
      <trkpt lat="45.3891480" lon="6.3371290">
        <ele>1083.2</ele>
        <time>2021-08-19T09:02:51Z</time>
      </trkpt>
      <trkpt lat="45.3891800" lon="6.3371100">
        <ele>1083.6</ele>
        <time>2021-08-19T09:02:53Z</time>
      </trkpt>
      <trkpt lat="45.3892280" lon="6.3370910">
        <ele>1084.4</ele>
        <time>2021-08-19T09:02:56Z</time>
      </trkpt>
      <trkpt lat="45.3892450" lon="6.3370810">
        <ele>1084.8</ele>
        <time>2021-08-19T09:02:57Z</time>
      </trkpt>
      <trkpt lat="45.3893420" lon="6.3370450">
        <ele>1086.2</ele>
        <time>2021-08-19T09:03:04Z</time>
      </trkpt>
      <trkpt lat="45.3893570" lon="6.3370050">
        <ele>1086.6</ele>
        <time>2021-08-19T09:03:06Z</time>
      </trkpt>
      <trkpt lat="45.3893860" lon="6.3369870">
        <ele>1087.2</ele>
        <time>2021-08-19T09:03:09Z</time>
      </trkpt>
      <trkpt lat="45.3894420" lon="6.3369690">
        <ele>1088.2</ele>
        <time>2021-08-19T09:03:12Z</time>
      </trkpt>
      <trkpt lat="45.3894830" lon="6.3369680">
        <ele>1088.4</ele>
        <time>2021-08-19T09:03:14Z</time>
      </trkpt>
      <trkpt lat="45.3894980" lon="6.3369570">
        <ele>1088.6</ele>
        <time>2021-08-19T09:03:15Z</time>
      </trkpt>
      <trkpt lat="45.3895810" lon="6.3369050">
        <ele>1089.0</ele>
        <time>2021-08-19T09:03:18Z</time>
      </trkpt>
      <trkpt lat="45.3895970" lon="6.3368990">
        <ele>1089.6</ele>
        <time>2021-08-19T09:03:19Z</time>
      </trkpt>
      <trkpt lat="45.3896110" lon="6.3368900">
        <ele>1089.6</ele>
        <time>2021-08-19T09:03:20Z</time>
      </trkpt>
      <trkpt lat="45.3897180" lon="6.3368790">
        <ele>1090.6</ele>
        <time>2021-08-19T09:03:25Z</time>
      </trkpt>
      <trkpt lat="45.3897950" lon="6.3368540">
        <ele>1091.8</ele>
        <time>2021-08-19T09:03:28Z</time>
      </trkpt>
      <trkpt lat="45.3898920" lon="6.3368420">
        <ele>1092.6</ele>
        <time>2021-08-19T09:03:33Z</time>
      </trkpt>
      <trkpt lat="45.3899800" lon="6.3368380">
        <ele>1093.6</ele>
        <time>2021-08-19T09:03:38Z</time>
      </trkpt>
      <trkpt lat="45.3900110" lon="6.3368320">
        <ele>1094.2</ele>
        <time>2021-08-19T09:03:40Z</time>
      </trkpt>
      <trkpt lat="45.3900620" lon="6.3368290">
        <ele>1094.6</ele>
        <time>2021-08-19T09:03:43Z</time>
      </trkpt>
      <trkpt lat="45.3900780" lon="6.3368260">
        <ele>1094.8</ele>
        <time>2021-08-19T09:03:44Z</time>
      </trkpt>
      <trkpt lat="45.3901260" lon="6.3367980">
        <ele>1095.4</ele>
        <time>2021-08-19T09:03:47Z</time>
      </trkpt>
      <trkpt lat="45.3901760" lon="6.3367670">
        <ele>1095.8</ele>
        <time>2021-08-19T09:03:50Z</time>
      </trkpt>
      <trkpt lat="45.3902400" lon="6.3367310">
        <ele>1097.0</ele>
        <time>2021-08-19T09:03:54Z</time>
      </trkpt>
      <trkpt lat="45.3903270" lon="6.3366440">
        <ele>1098.0</ele>
        <time>2021-08-19T09:04:00Z</time>
      </trkpt>
      <trkpt lat="45.3903420" lon="6.3366350">
        <ele>1098.4</ele>
        <time>2021-08-19T09:04:01Z</time>
      </trkpt>
      <trkpt lat="45.3903960" lon="6.3365700">
        <ele>1099.0</ele>
        <time>2021-08-19T09:04:05Z</time>
      </trkpt>
      <trkpt lat="45.3904260" lon="6.3365400">
        <ele>1099.4</ele>
        <time>2021-08-19T09:04:07Z</time>
      </trkpt>
      <trkpt lat="45.3904690" lon="6.3364980">
        <ele>1100.2</ele>
        <time>2021-08-19T09:04:10Z</time>
      </trkpt>
      <trkpt lat="45.3905360" lon="6.3364550">
        <ele>1101.2</ele>
        <time>2021-08-19T09:04:14Z</time>
      </trkpt>
      <trkpt lat="45.3905710" lon="6.3364430">
        <ele>1101.6</ele>
        <time>2021-08-19T09:04:16Z</time>
      </trkpt>
      <trkpt lat="45.3906200" lon="6.3364220">
        <ele>1102.4</ele>
        <time>2021-08-19T09:04:19Z</time>
      </trkpt>
      <trkpt lat="45.3907010" lon="6.3363740">
        <ele>1103.4</ele>
        <time>2021-08-19T09:04:24Z</time>
      </trkpt>
      <trkpt lat="45.3907820" lon="6.3362990">
        <ele>1104.6</ele>
        <time>2021-08-19T09:04:29Z</time>
      </trkpt>
      <trkpt lat="45.3907950" lon="6.3362750">
        <ele>1104.8</ele>
        <time>2021-08-19T09:04:30Z</time>
      </trkpt>
      <trkpt lat="45.3908490" lon="6.3361860">
        <ele>1105.8</ele>
        <time>2021-08-19T09:04:34Z</time>
      </trkpt>
      <trkpt lat="45.3909170" lon="6.3361440">
        <ele>1106.2</ele>
        <time>2021-08-19T09:04:38Z</time>
      </trkpt>
      <trkpt lat="45.3909750" lon="6.3361360">
        <ele>1107.0</ele>
        <time>2021-08-19T09:04:42Z</time>
      </trkpt>
      <trkpt lat="45.3910020" lon="6.3361340">
        <ele>1107.6</ele>
        <time>2021-08-19T09:04:44Z</time>
      </trkpt>
      <trkpt lat="45.3910170" lon="6.3361290">
        <ele>1107.8</ele>
        <time>2021-08-19T09:04:45Z</time>
      </trkpt>
      <trkpt lat="45.3910360" lon="6.3361270">
        <ele>1108.0</ele>
        <time>2021-08-19T09:04:46Z</time>
      </trkpt>
      <trkpt lat="45.3911010" lon="6.3361450">
        <ele>1109.0</ele>
        <time>2021-08-19T09:04:50Z</time>
      </trkpt>
      <trkpt lat="45.3911140" lon="6.3361580">
        <ele>1109.2</ele>
        <time>2021-08-19T09:04:51Z</time>
      </trkpt>
      <trkpt lat="45.3911700" lon="6.3361850">
        <ele>1110.6</ele>
        <time>2021-08-19T09:04:55Z</time>
      </trkpt>
      <trkpt lat="45.3912090" lon="6.3362120">
        <ele>1111.0</ele>
        <time>2021-08-19T09:04:58Z</time>
      </trkpt>
      <trkpt lat="45.3912230" lon="6.3362210">
        <ele>1111.2</ele>
        <time>2021-08-19T09:04:59Z</time>
      </trkpt>
      <trkpt lat="45.3912390" lon="6.3362310">
        <ele>1111.6</ele>
        <time>2021-08-19T09:05:00Z</time>
      </trkpt>
      <trkpt lat="45.3912540" lon="6.3362390">
        <ele>1111.6</ele>
        <time>2021-08-19T09:05:01Z</time>
      </trkpt>
      <trkpt lat="45.3913160" lon="6.3362800">
        <ele>1112.2</ele>
        <time>2021-08-19T09:05:05Z</time>
      </trkpt>
      <trkpt lat="45.3913300" lon="6.3362860">
        <ele>1112.6</ele>
        <time>2021-08-19T09:05:06Z</time>
      </trkpt>
      <trkpt lat="45.3913450" lon="6.3362880">
        <ele>1112.8</ele>
        <time>2021-08-19T09:05:07Z</time>
      </trkpt>
      <trkpt lat="45.3914320" lon="6.3362810">
        <ele>1113.8</ele>
        <time>2021-08-19T09:05:12Z</time>
      </trkpt>
      <trkpt lat="45.3914710" lon="6.3362670">
        <ele>1114.2</ele>
        <time>2021-08-19T09:05:14Z</time>
      </trkpt>
      <trkpt lat="45.3915180" lon="6.3362510">
        <ele>1115.0</ele>
        <time>2021-08-19T09:05:17Z</time>
      </trkpt>
      <trkpt lat="45.3915670" lon="6.3362160">
        <ele>1115.4</ele>
        <time>2021-08-19T09:05:20Z</time>
      </trkpt>
      <trkpt lat="45.3916270" lon="6.3361660">
        <ele>1115.8</ele>
        <time>2021-08-19T09:05:24Z</time>
      </trkpt>
      <trkpt lat="45.3916440" lon="6.3361540">
        <ele>1116.2</ele>
        <time>2021-08-19T09:05:25Z</time>
      </trkpt>
      <trkpt lat="45.3916880" lon="6.3361400">
        <ele>1116.8</ele>
        <time>2021-08-19T09:05:27Z</time>
      </trkpt>
      <trkpt lat="45.3917400" lon="6.3361120">
        <ele>1117.4</ele>
        <time>2021-08-19T09:05:30Z</time>
      </trkpt>
      <trkpt lat="45.3917700" lon="6.3360810">
        <ele>1117.8</ele>
        <time>2021-08-19T09:05:32Z</time>
      </trkpt>
      <trkpt lat="45.3918140" lon="6.3360260">
        <ele>1118.4</ele>
        <time>2021-08-19T09:05:35Z</time>
      </trkpt>
      <trkpt lat="45.3918860" lon="6.3359830">
        <ele>1119.4</ele>
        <time>2021-08-19T09:05:39Z</time>
      </trkpt>
      <trkpt lat="45.3919020" lon="6.3359670">
        <ele>1119.6</ele>
        <time>2021-08-19T09:05:40Z</time>
      </trkpt>
      <trkpt lat="45.3919970" lon="6.3358900">
        <ele>1120.4</ele>
        <time>2021-08-19T09:05:46Z</time>
      </trkpt>
      <trkpt lat="45.3920180" lon="6.3358820">
        <ele>1120.6</ele>
        <time>2021-08-19T09:05:47Z</time>
      </trkpt>
      <trkpt lat="45.3920880" lon="6.3358710">
        <ele>1121.6</ele>
        <time>2021-08-19T09:05:51Z</time>
      </trkpt>
      <trkpt lat="45.3921060" lon="6.3358680">
        <ele>1121.6</ele>
        <time>2021-08-19T09:05:52Z</time>
      </trkpt>
      <trkpt lat="45.3922020" lon="6.3358460">
        <ele>1122.8</ele>
        <time>2021-08-19T09:05:57Z</time>
      </trkpt>
      <trkpt lat="45.3922200" lon="6.3358450">
        <ele>1123.0</ele>
        <time>2021-08-19T09:05:58Z</time>
      </trkpt>
      <trkpt lat="45.3922940" lon="6.3358590">
        <ele>1123.6</ele>
        <time>2021-08-19T09:06:02Z</time>
      </trkpt>
      <trkpt lat="45.3923270" lon="6.3358660">
        <ele>1124.2</ele>
        <time>2021-08-19T09:06:04Z</time>
      </trkpt>
      <trkpt lat="45.3923600" lon="6.3358770">
        <ele>1124.8</ele>
        <time>2021-08-19T09:06:06Z</time>
      </trkpt>
      <trkpt lat="45.3924220" lon="6.3358710">
        <ele>1125.2</ele>
        <time>2021-08-19T09:06:09Z</time>
      </trkpt>
      <trkpt lat="45.3924830" lon="6.3358580">
        <ele>1126.0</ele>
        <time>2021-08-19T09:06:12Z</time>
      </trkpt>
      <trkpt lat="45.3925420" lon="6.3358110">
        <ele>1126.6</ele>
        <time>2021-08-19T09:06:15Z</time>
      </trkpt>
      <trkpt lat="45.3926090" lon="6.3357310">
        <ele>1127.2</ele>
        <time>2021-08-19T09:06:19Z</time>
      </trkpt>
      <trkpt lat="45.3926190" lon="6.3357030">
        <ele>1127.0</ele>
        <time>2021-08-19T09:06:20Z</time>
      </trkpt>
      <trkpt lat="45.3926450" lon="6.3356200">
        <ele>1127.8</ele>
        <time>2021-08-19T09:06:23Z</time>
      </trkpt>
      <trkpt lat="45.3926580" lon="6.3355700">
        <ele>1128.2</ele>
        <time>2021-08-19T09:06:25Z</time>
      </trkpt>
      <trkpt lat="45.3926280" lon="6.3353700">
        <ele>1129.4</ele>
        <time>2021-08-19T09:06:32Z</time>
      </trkpt>
      <trkpt lat="45.3926360" lon="6.3352870">
        <ele>1129.6</ele>
        <time>2021-08-19T09:06:35Z</time>
      </trkpt>
      <trkpt lat="45.3926600" lon="6.3352070">
        <ele>1130.4</ele>
        <time>2021-08-19T09:06:38Z</time>
      </trkpt>
      <trkpt lat="45.3926670" lon="6.3351780">
        <ele>1130.4</ele>
        <time>2021-08-19T09:06:39Z</time>
      </trkpt>
      <trkpt lat="45.3926740" lon="6.3351500">
        <ele>1130.8</ele>
        <time>2021-08-19T09:06:40Z</time>
      </trkpt>
      <trkpt lat="45.3926790" lon="6.3351210">
        <ele>1131.0</ele>
        <time>2021-08-19T09:06:41Z</time>
      </trkpt>
      <trkpt lat="45.3926800" lon="6.3350270">
        <ele>1131.6</ele>
        <time>2021-08-19T09:06:44Z</time>
      </trkpt>
      <trkpt lat="45.3926550" lon="6.3349210">
        <ele>1132.0</ele>
        <time>2021-08-19T09:06:47Z</time>
      </trkpt>
      <trkpt lat="45.3926260" lon="6.3347570">
        <ele>1132.6</ele>
        <time>2021-08-19T09:06:52Z</time>
      </trkpt>
      <trkpt lat="45.3926370" lon="6.3347190">
        <ele>1133.0</ele>
        <time>2021-08-19T09:06:53Z</time>
      </trkpt>
      <trkpt lat="45.3926460" lon="6.3346870">
        <ele>1133.2</ele>
        <time>2021-08-19T09:06:54Z</time>
      </trkpt>
      <trkpt lat="45.3927280" lon="6.3345720">
        <ele>1133.8</ele>
        <time>2021-08-19T09:06:59Z</time>
      </trkpt>
      <trkpt lat="45.3927520" lon="6.3345630">
        <ele>1133.8</ele>
        <time>2021-08-19T09:07:00Z</time>
      </trkpt>
      <trkpt lat="45.3927790" lon="6.3345580">
        <ele>1134.2</ele>
        <time>2021-08-19T09:07:01Z</time>
      </trkpt>
      <trkpt lat="45.3928860" lon="6.3345590">
        <ele>1134.6</ele>
        <time>2021-08-19T09:07:05Z</time>
      </trkpt>
      <trkpt lat="45.3929280" lon="6.3345860">
        <ele>1135.2</ele>
        <time>2021-08-19T09:07:07Z</time>
      </trkpt>
      <trkpt lat="45.3929780" lon="6.3346030">
        <ele>1135.4</ele>
        <time>2021-08-19T09:07:09Z</time>
      </trkpt>
      <trkpt lat="45.3930030" lon="6.3346110">
        <ele>1135.6</ele>
        <time>2021-08-19T09:07:10Z</time>
      </trkpt>
      <trkpt lat="45.3930810" lon="6.3346530">
        <ele>1136.2</ele>
        <time>2021-08-19T09:07:13Z</time>
      </trkpt>
      <trkpt lat="45.3931050" lon="6.3346670">
        <ele>1136.4</ele>
        <time>2021-08-19T09:07:14Z</time>
      </trkpt>
      <trkpt lat="45.3931490" lon="6.3347020">
        <ele>1136.8</ele>
        <time>2021-08-19T09:07:16Z</time>
      </trkpt>
      <trkpt lat="45.3931950" lon="6.3347420">
        <ele>1137.2</ele>
        <time>2021-08-19T09:07:18Z</time>
      </trkpt>
      <trkpt lat="45.3932230" lon="6.3347630">
        <ele>1137.6</ele>
        <time>2021-08-19T09:07:19Z</time>
      </trkpt>
      <trkpt lat="45.3932480" lon="6.3347820">
        <ele>1137.6</ele>
        <time>2021-08-19T09:07:20Z</time>
      </trkpt>
      <trkpt lat="45.3934400" lon="6.3348560">
        <ele>1138.6</ele>
        <time>2021-08-19T09:07:27Z</time>
      </trkpt>
      <trkpt lat="45.3935510" lon="6.3348550">
        <ele>1139.8</ele>
        <time>2021-08-19T09:07:31Z</time>
      </trkpt>
      <trkpt lat="45.3936330" lon="6.3348800">
        <ele>1140.8</ele>
        <time>2021-08-19T09:07:34Z</time>
      </trkpt>
      <trkpt lat="45.3936540" lon="6.3348980">
        <ele>1140.8</ele>
        <time>2021-08-19T09:07:35Z</time>
      </trkpt>
      <trkpt lat="45.3936750" lon="6.3349560">
        <ele>1141.2</ele>
        <time>2021-08-19T09:07:37Z</time>
      </trkpt>
      <trkpt lat="45.3936690" lon="6.3350200">
        <ele>1141.4</ele>
        <time>2021-08-19T09:07:39Z</time>
      </trkpt>
      <trkpt lat="45.3936560" lon="6.3350440">
        <ele>1141.6</ele>
        <time>2021-08-19T09:07:40Z</time>
      </trkpt>
      <trkpt lat="45.3936360" lon="6.3350590">
        <ele>1141.8</ele>
        <time>2021-08-19T09:07:41Z</time>
      </trkpt>
      <trkpt lat="45.3936120" lon="6.3350680">
        <ele>1142.0</ele>
        <time>2021-08-19T09:07:42Z</time>
      </trkpt>
      <trkpt lat="45.3935060" lon="6.3350740">
        <ele>1142.8</ele>
        <time>2021-08-19T09:07:46Z</time>
      </trkpt>
      <trkpt lat="45.3934330" lon="6.3350550">
        <ele>1143.4</ele>
        <time>2021-08-19T09:07:49Z</time>
      </trkpt>
      <trkpt lat="45.3933320" lon="6.3350330">
        <ele>1144.2</ele>
        <time>2021-08-19T09:07:53Z</time>
      </trkpt>
      <trkpt lat="45.3933080" lon="6.3350300">
        <ele>1144.4</ele>
        <time>2021-08-19T09:07:54Z</time>
      </trkpt>
      <trkpt lat="45.3932200" lon="6.3350110">
        <ele>1145.0</ele>
        <time>2021-08-19T09:07:58Z</time>
      </trkpt>
      <trkpt lat="45.3931990" lon="6.3350100">
        <ele>1145.0</ele>
        <time>2021-08-19T09:07:59Z</time>
      </trkpt>
      <trkpt lat="45.3931280" lon="6.3350040">
        <ele>1145.2</ele>
        <time>2021-08-19T09:08:02Z</time>
      </trkpt>
      <trkpt lat="45.3930260" lon="6.3350850">
        <ele>1145.4</ele>
        <time>2021-08-19T09:08:07Z</time>
      </trkpt>
      <trkpt lat="45.3930060" lon="6.3351810">
        <ele>1146.2</ele>
        <time>2021-08-19T09:08:10Z</time>
      </trkpt>
      <trkpt lat="45.3930180" lon="6.3352460">
        <ele>1146.8</ele>
        <time>2021-08-19T09:08:12Z</time>
      </trkpt>
      <trkpt lat="45.3930500" lon="6.3353170">
        <ele>1147.4</ele>
        <time>2021-08-19T09:08:15Z</time>
      </trkpt>
      <trkpt lat="45.3930710" lon="6.3353600">
        <ele>1147.8</ele>
        <time>2021-08-19T09:08:17Z</time>
      </trkpt>
      <trkpt lat="45.3931150" lon="6.3354080">
        <ele>1148.6</ele>
        <time>2021-08-19T09:08:20Z</time>
      </trkpt>
      <trkpt lat="45.3931650" lon="6.3354310">
        <ele>1149.6</ele>
        <time>2021-08-19T09:08:23Z</time>
      </trkpt>
      <trkpt lat="45.3931970" lon="6.3354380">
        <ele>1149.8</ele>
        <time>2021-08-19T09:08:25Z</time>
      </trkpt>
      <trkpt lat="45.3932510" lon="6.3354220">
        <ele>1150.0</ele>
        <time>2021-08-19T09:08:28Z</time>
      </trkpt>
      <trkpt lat="45.3932720" lon="6.3354190">
        <ele>1150.4</ele>
        <time>2021-08-19T09:08:29Z</time>
      </trkpt>
      <trkpt lat="45.3932940" lon="6.3354150">
        <ele>1150.4</ele>
        <time>2021-08-19T09:08:30Z</time>
      </trkpt>
      <trkpt lat="45.3933160" lon="6.3354090">
        <ele>1150.6</ele>
        <time>2021-08-19T09:08:31Z</time>
      </trkpt>
      <trkpt lat="45.3933370" lon="6.3354040">
        <ele>1150.8</ele>
        <time>2021-08-19T09:08:32Z</time>
      </trkpt>
      <trkpt lat="45.3933570" lon="6.3353960">
        <ele>1151.4</ele>
        <time>2021-08-19T09:08:33Z</time>
      </trkpt>
      <trkpt lat="45.3933990" lon="6.3353730">
        <ele>1152.0</ele>
        <time>2021-08-19T09:08:35Z</time>
      </trkpt>
      <trkpt lat="45.3934200" lon="6.3353660">
        <ele>1152.0</ele>
        <time>2021-08-19T09:08:36Z</time>
      </trkpt>
      <trkpt lat="45.3934420" lon="6.3353600">
        <ele>1152.2</ele>
        <time>2021-08-19T09:08:37Z</time>
      </trkpt>
      <trkpt lat="45.3936030" lon="6.3353240">
        <ele>1153.2</ele>
        <time>2021-08-19T09:08:45Z</time>
      </trkpt>
      <trkpt lat="45.3936210" lon="6.3353260">
        <ele>1153.6</ele>
        <time>2021-08-19T09:08:46Z</time>
      </trkpt>
      <trkpt lat="45.3936970" lon="6.3353500">
        <ele>1154.4</ele>
        <time>2021-08-19T09:08:50Z</time>
      </trkpt>
      <trkpt lat="45.3937670" lon="6.3353800">
        <ele>1154.8</ele>
        <time>2021-08-19T09:08:53Z</time>
      </trkpt>
      <trkpt lat="45.3938130" lon="6.3353940">
        <ele>1155.4</ele>
        <time>2021-08-19T09:08:55Z</time>
      </trkpt>
      <trkpt lat="45.3938950" lon="6.3354460">
        <ele>1156.0</ele>
        <time>2021-08-19T09:08:59Z</time>
      </trkpt>
      <trkpt lat="45.3939320" lon="6.3354650">
        <ele>1156.6</ele>
        <time>2021-08-19T09:09:01Z</time>
      </trkpt>
      <trkpt lat="45.3940340" lon="6.3355000">
        <ele>1157.6</ele>
        <time>2021-08-19T09:09:06Z</time>
      </trkpt>
      <trkpt lat="45.3940830" lon="6.3355190">
        <ele>1158.0</ele>
        <time>2021-08-19T09:09:08Z</time>
      </trkpt>
      <trkpt lat="45.3941740" lon="6.3355680">
        <ele>1158.6</ele>
        <time>2021-08-19T09:09:13Z</time>
      </trkpt>
      <trkpt lat="45.3942390" lon="6.3356210">
        <ele>1159.4</ele>
        <time>2021-08-19T09:09:16Z</time>
      </trkpt>
      <trkpt lat="45.3942910" lon="6.3356550">
        <ele>1159.8</ele>
        <time>2021-08-19T09:09:18Z</time>
      </trkpt>
      <trkpt lat="45.3944150" lon="6.3357160">
        <ele>1160.8</ele>
        <time>2021-08-19T09:09:23Z</time>
      </trkpt>
      <trkpt lat="45.3944660" lon="6.3357360">
        <ele>1160.8</ele>
        <time>2021-08-19T09:09:25Z</time>
      </trkpt>
      <trkpt lat="45.3945350" lon="6.3357560">
        <ele>1161.2</ele>
        <time>2021-08-19T09:09:28Z</time>
      </trkpt>
      <trkpt lat="45.3945550" lon="6.3357680">
        <ele>1161.4</ele>
        <time>2021-08-19T09:09:29Z</time>
      </trkpt>
      <trkpt lat="45.3945780" lon="6.3357800">
        <ele>1161.4</ele>
        <time>2021-08-19T09:09:30Z</time>
      </trkpt>
      <trkpt lat="45.3946200" lon="6.3357950">
        <ele>1161.8</ele>
        <time>2021-08-19T09:09:32Z</time>
      </trkpt>
      <trkpt lat="45.3946850" lon="6.3358140">
        <ele>1162.8</ele>
        <time>2021-08-19T09:09:35Z</time>
      </trkpt>
      <trkpt lat="45.3946990" lon="6.3358160">
        <ele>1163.0</ele>
        <time>2021-08-19T09:09:36Z</time>
      </trkpt>
      <trkpt lat="45.3947740" lon="6.3358370">
        <ele>1164.0</ele>
        <time>2021-08-19T09:09:39Z</time>
      </trkpt>
      <trkpt lat="45.3948170" lon="6.3358470">
        <ele>1164.4</ele>
        <time>2021-08-19T09:09:41Z</time>
      </trkpt>
      <trkpt lat="45.3949240" lon="6.3358710">
        <ele>1165.0</ele>
        <time>2021-08-19T09:09:45Z</time>
      </trkpt>
      <trkpt lat="45.3950030" lon="6.3359060">
        <ele>1165.8</ele>
        <time>2021-08-19T09:09:48Z</time>
      </trkpt>
      <trkpt lat="45.3950480" lon="6.3359380">
        <ele>1166.2</ele>
        <time>2021-08-19T09:09:50Z</time>
      </trkpt>
      <trkpt lat="45.3951880" lon="6.3360040">
        <ele>1167.2</ele>
        <time>2021-08-19T09:09:55Z</time>
      </trkpt>
      <trkpt lat="45.3952270" lon="6.3360240">
        <ele>1167.2</ele>
        <time>2021-08-19T09:09:56Z</time>
      </trkpt>
      <trkpt lat="45.3954230" lon="6.3361240">
        <ele>1168.4</ele>
        <time>2021-08-19T09:10:03Z</time>
      </trkpt>
      <trkpt lat="45.3954430" lon="6.3361300">
        <ele>1168.4</ele>
        <time>2021-08-19T09:10:04Z</time>
      </trkpt>
      <trkpt lat="45.3955200" lon="6.3361530">
        <ele>1169.2</ele>
        <time>2021-08-19T09:10:07Z</time>
      </trkpt>
      <trkpt lat="45.3955730" lon="6.3361690">
        <ele>1169.6</ele>
        <time>2021-08-19T09:10:09Z</time>
      </trkpt>
      <trkpt lat="45.3956380" lon="6.3361910">
        <ele>1170.2</ele>
        <time>2021-08-19T09:10:12Z</time>
      </trkpt>
      <trkpt lat="45.3957370" lon="6.3362180">
        <ele>1170.8</ele>
        <time>2021-08-19T09:10:16Z</time>
      </trkpt>
      <trkpt lat="45.3958630" lon="6.3362310">
        <ele>1171.6</ele>
        <time>2021-08-19T09:10:21Z</time>
      </trkpt>
      <trkpt lat="45.3959750" lon="6.3362360">
        <ele>1173.0</ele>
        <time>2021-08-19T09:10:26Z</time>
      </trkpt>
      <trkpt lat="45.3960690" lon="6.3362500">
        <ele>1173.8</ele>
        <time>2021-08-19T09:10:30Z</time>
      </trkpt>
      <trkpt lat="45.3960910" lon="6.3362520">
        <ele>1174.0</ele>
        <time>2021-08-19T09:10:31Z</time>
      </trkpt>
      <trkpt lat="45.3961940" lon="6.3362400">
        <ele>1175.2</ele>
        <time>2021-08-19T09:10:36Z</time>
      </trkpt>
      <trkpt lat="45.3962570" lon="6.3362110">
        <ele>1175.4</ele>
        <time>2021-08-19T09:10:39Z</time>
      </trkpt>
      <trkpt lat="45.3963260" lon="6.3361790">
        <ele>1176.2</ele>
        <time>2021-08-19T09:10:42Z</time>
      </trkpt>
      <trkpt lat="45.3964130" lon="6.3361120">
        <ele>1177.0</ele>
        <time>2021-08-19T09:10:46Z</time>
      </trkpt>
      <trkpt lat="45.3964570" lon="6.3360830">
        <ele>1177.4</ele>
        <time>2021-08-19T09:10:48Z</time>
      </trkpt>
      <trkpt lat="45.3965850" lon="6.3359990">
        <ele>1178.2</ele>
        <time>2021-08-19T09:10:54Z</time>
      </trkpt>
      <trkpt lat="45.3966330" lon="6.3359790">
        <ele>1178.6</ele>
        <time>2021-08-19T09:10:56Z</time>
      </trkpt>
      <trkpt lat="45.3967560" lon="6.3359550">
        <ele>1179.6</ele>
        <time>2021-08-19T09:11:01Z</time>
      </trkpt>
      <trkpt lat="45.3967810" lon="6.3359560">
        <ele>1179.8</ele>
        <time>2021-08-19T09:11:02Z</time>
      </trkpt>
      <trkpt lat="45.3968540" lon="6.3359640">
        <ele>1180.6</ele>
        <time>2021-08-19T09:11:05Z</time>
      </trkpt>
      <trkpt lat="45.3970150" lon="6.3359720">
        <ele>1181.6</ele>
        <time>2021-08-19T09:11:12Z</time>
      </trkpt>
      <trkpt lat="45.3970390" lon="6.3359750">
        <ele>1181.8</ele>
        <time>2021-08-19T09:11:13Z</time>
      </trkpt>
      <trkpt lat="45.3971520" lon="6.3359900">
        <ele>1182.8</ele>
        <time>2021-08-19T09:11:18Z</time>
      </trkpt>
      <trkpt lat="45.3972610" lon="6.3360360">
        <ele>1183.8</ele>
        <time>2021-08-19T09:11:23Z</time>
      </trkpt>
      <trkpt lat="45.3972790" lon="6.3360450">
        <ele>1184.0</ele>
        <time>2021-08-19T09:11:24Z</time>
      </trkpt>
      <trkpt lat="45.3974010" lon="6.3361300">
        <ele>1184.8</ele>
        <time>2021-08-19T09:11:30Z</time>
      </trkpt>
      <trkpt lat="45.3974240" lon="6.3361440">
        <ele>1185.0</ele>
        <time>2021-08-19T09:11:31Z</time>
      </trkpt>
      <trkpt lat="45.3974420" lon="6.3361550">
        <ele>1185.0</ele>
        <time>2021-08-19T09:11:32Z</time>
      </trkpt>
      <trkpt lat="45.3975680" lon="6.3362180">
        <ele>1186.0</ele>
        <time>2021-08-19T09:11:38Z</time>
      </trkpt>
      <trkpt lat="45.3976750" lon="6.3362720">
        <ele>1187.0</ele>
        <time>2021-08-19T09:11:43Z</time>
      </trkpt>
      <trkpt lat="45.3977780" lon="6.3363170">
        <ele>1188.2</ele>
        <time>2021-08-19T09:11:48Z</time>
      </trkpt>
      <trkpt lat="45.3978610" lon="6.3363620">
        <ele>1189.2</ele>
        <time>2021-08-19T09:11:52Z</time>
      </trkpt>
      <trkpt lat="45.3979020" lon="6.3363800">
        <ele>1189.4</ele>
        <time>2021-08-19T09:11:54Z</time>
      </trkpt>
      <trkpt lat="45.3980310" lon="6.3364180">
        <ele>1190.6</ele>
        <time>2021-08-19T09:12:00Z</time>
      </trkpt>
      <trkpt lat="45.3980530" lon="6.3364230">
        <ele>1190.8</ele>
        <time>2021-08-19T09:12:01Z</time>
      </trkpt>
      <trkpt lat="45.3981160" lon="6.3364390">
        <ele>1191.6</ele>
        <time>2021-08-19T09:12:04Z</time>
      </trkpt>
      <trkpt lat="45.3981940" lon="6.3364720">
        <ele>1192.2</ele>
        <time>2021-08-19T09:12:08Z</time>
      </trkpt>
      <trkpt lat="45.3982560" lon="6.3364940">
        <ele>1192.8</ele>
        <time>2021-08-19T09:12:11Z</time>
      </trkpt>
      <trkpt lat="45.3983220" lon="6.3365270">
        <ele>1193.4</ele>
        <time>2021-08-19T09:12:14Z</time>
      </trkpt>
      <trkpt lat="45.3983800" lon="6.3365760">
        <ele>1194.0</ele>
        <time>2021-08-19T09:12:17Z</time>
      </trkpt>
      <trkpt lat="45.3985310" lon="6.3366880">
        <ele>1194.8</ele>
        <time>2021-08-19T09:12:24Z</time>
      </trkpt>
      <trkpt lat="45.3985490" lon="6.3367020">
        <ele>1195.0</ele>
        <time>2021-08-19T09:12:25Z</time>
      </trkpt>
      <trkpt lat="45.3986280" lon="6.3367440">
        <ele>1196.2</ele>
        <time>2021-08-19T09:12:29Z</time>
      </trkpt>
      <trkpt lat="45.3987460" lon="6.3367980">
        <ele>1197.2</ele>
        <time>2021-08-19T09:12:34Z</time>
      </trkpt>
      <trkpt lat="45.3987950" lon="6.3368160">
        <ele>1197.4</ele>
        <time>2021-08-19T09:12:36Z</time>
      </trkpt>
      <trkpt lat="45.3989070" lon="6.3368570">
        <ele>1198.4</ele>
        <time>2021-08-19T09:12:41Z</time>
      </trkpt>
      <trkpt lat="45.3989380" lon="6.3368820">
        <ele>1198.8</ele>
        <time>2021-08-19T09:12:43Z</time>
      </trkpt>
      <trkpt lat="45.3990050" lon="6.3369240">
        <ele>1199.4</ele>
        <time>2021-08-19T09:12:46Z</time>
      </trkpt>
      <trkpt lat="45.3991060" lon="6.3369790">
        <ele>1200.2</ele>
        <time>2021-08-19T09:12:50Z</time>
      </trkpt>
      <trkpt lat="45.3991450" lon="6.3370140">
        <ele>1200.4</ele>
        <time>2021-08-19T09:12:52Z</time>
      </trkpt>
      <trkpt lat="45.3991680" lon="6.3370300">
        <ele>1200.6</ele>
        <time>2021-08-19T09:12:53Z</time>
      </trkpt>
      <trkpt lat="45.3992460" lon="6.3371090">
        <ele>1201.6</ele>
        <time>2021-08-19T09:12:57Z</time>
      </trkpt>
      <trkpt lat="45.3992650" lon="6.3371280">
        <ele>1201.8</ele>
        <time>2021-08-19T09:12:58Z</time>
      </trkpt>
      <trkpt lat="45.3993030" lon="6.3371660">
        <ele>1202.0</ele>
        <time>2021-08-19T09:13:00Z</time>
      </trkpt>
      <trkpt lat="45.3993740" lon="6.3372470">
        <ele>1202.6</ele>
        <time>2021-08-19T09:13:04Z</time>
      </trkpt>
      <trkpt lat="45.3994300" lon="6.3373050">
        <ele>1203.2</ele>
        <time>2021-08-19T09:13:07Z</time>
      </trkpt>
      <trkpt lat="45.3994890" lon="6.3373680">
        <ele>1203.6</ele>
        <time>2021-08-19T09:13:10Z</time>
      </trkpt>
      <trkpt lat="45.3995620" lon="6.3374660">
        <ele>1204.8</ele>
        <time>2021-08-19T09:13:14Z</time>
      </trkpt>
      <trkpt lat="45.3995800" lon="6.3374900">
        <ele>1205.0</ele>
        <time>2021-08-19T09:13:15Z</time>
      </trkpt>
      <trkpt lat="45.3996890" lon="6.3376160">
        <ele>1206.0</ele>
        <time>2021-08-19T09:13:21Z</time>
      </trkpt>
      <trkpt lat="45.3997070" lon="6.3376360">
        <ele>1206.2</ele>
        <time>2021-08-19T09:13:22Z</time>
      </trkpt>
      <trkpt lat="45.3997620" lon="6.3377690">
        <ele>1207.0</ele>
        <time>2021-08-19T09:13:27Z</time>
      </trkpt>
      <trkpt lat="45.3997110" lon="6.3378150">
        <ele>1207.4</ele>
        <time>2021-08-19T09:13:30Z</time>
      </trkpt>
      <trkpt lat="45.3996890" lon="6.3378080">
        <ele>1207.4</ele>
        <time>2021-08-19T09:13:31Z</time>
      </trkpt>
      <trkpt lat="45.3996340" lon="6.3377440">
        <ele>1208.0</ele>
        <time>2021-08-19T09:13:34Z</time>
      </trkpt>
      <trkpt lat="45.3995770" lon="6.3376840">
        <ele>1208.8</ele>
        <time>2021-08-19T09:13:37Z</time>
      </trkpt>
      <trkpt lat="45.3995570" lon="6.3376660">
        <ele>1209.2</ele>
        <time>2021-08-19T09:13:38Z</time>
      </trkpt>
      <trkpt lat="45.3994100" lon="6.3375390">
        <ele>1210.4</ele>
        <time>2021-08-19T09:13:45Z</time>
      </trkpt>
      <trkpt lat="45.3993830" lon="6.3375280">
        <ele>1210.4</ele>
        <time>2021-08-19T09:13:46Z</time>
      </trkpt>
      <trkpt lat="45.3992050" lon="6.3374900">
        <ele>1211.6</ele>
        <time>2021-08-19T09:13:53Z</time>
      </trkpt>
      <trkpt lat="45.3991810" lon="6.3374870">
        <ele>1211.6</ele>
        <time>2021-08-19T09:13:54Z</time>
      </trkpt>
      <trkpt lat="45.3990260" lon="6.3374730">
        <ele>1212.6</ele>
        <time>2021-08-19T09:14:00Z</time>
      </trkpt>
      <trkpt lat="45.3989720" lon="6.3374670">
        <ele>1213.0</ele>
        <time>2021-08-19T09:14:02Z</time>
      </trkpt>
      <trkpt lat="45.3988670" lon="6.3374620">
        <ele>1213.6</ele>
        <time>2021-08-19T09:14:06Z</time>
      </trkpt>
      <trkpt lat="45.3987430" lon="6.3374330">
        <ele>1214.2</ele>
        <time>2021-08-19T09:14:11Z</time>
      </trkpt>
      <trkpt lat="45.3987150" lon="6.3374280">
        <ele>1214.4</ele>
        <time>2021-08-19T09:14:12Z</time>
      </trkpt>
      <trkpt lat="45.3986820" lon="6.3374190">
        <ele>1214.4</ele>
        <time>2021-08-19T09:14:13Z</time>
      </trkpt>
      <trkpt lat="45.3986310" lon="6.3374090">
        <ele>1215.0</ele>
        <time>2021-08-19T09:14:15Z</time>
      </trkpt>
      <trkpt lat="45.3986040" lon="6.3374030">
        <ele>1215.4</ele>
        <time>2021-08-19T09:14:16Z</time>
      </trkpt>
      <trkpt lat="45.3985780" lon="6.3374010">
        <ele>1215.4</ele>
        <time>2021-08-19T09:14:17Z</time>
      </trkpt>
      <trkpt lat="45.3985510" lon="6.3373970">
        <ele>1215.6</ele>
        <time>2021-08-19T09:14:18Z</time>
      </trkpt>
      <trkpt lat="45.3985240" lon="6.3373980">
        <ele>1215.8</ele>
        <time>2021-08-19T09:14:19Z</time>
      </trkpt>
      <trkpt lat="45.3985000" lon="6.3374030">
        <ele>1216.0</ele>
        <time>2021-08-19T09:14:20Z</time>
      </trkpt>
      <trkpt lat="45.3984550" lon="6.3374380">
        <ele>1216.2</ele>
        <time>2021-08-19T09:14:22Z</time>
      </trkpt>
      <trkpt lat="45.3984390" lon="6.3374660">
        <ele>1216.6</ele>
        <time>2021-08-19T09:14:23Z</time>
      </trkpt>
      <trkpt lat="45.3984310" lon="6.3375040">
        <ele>1216.8</ele>
        <time>2021-08-19T09:14:24Z</time>
      </trkpt>
      <trkpt lat="45.3984440" lon="6.3376330">
        <ele>1217.2</ele>
        <time>2021-08-19T09:14:28Z</time>
      </trkpt>
      <trkpt lat="45.3984580" lon="6.3376600">
        <ele>1217.4</ele>
        <time>2021-08-19T09:14:29Z</time>
      </trkpt>
      <trkpt lat="45.3984790" lon="6.3376870">
        <ele>1217.6</ele>
        <time>2021-08-19T09:14:30Z</time>
      </trkpt>
      <trkpt lat="45.3985730" lon="6.3377300">
        <ele>1218.6</ele>
        <time>2021-08-19T09:14:34Z</time>
      </trkpt>
      <trkpt lat="45.3986960" lon="6.3377550">
        <ele>1219.4</ele>
        <time>2021-08-19T09:14:39Z</time>
      </trkpt>
      <trkpt lat="45.3987450" lon="6.3377730">
        <ele>1219.8</ele>
        <time>2021-08-19T09:14:41Z</time>
      </trkpt>
      <trkpt lat="45.3987650" lon="6.3377810">
        <ele>1220.0</ele>
        <time>2021-08-19T09:14:42Z</time>
      </trkpt>
      <trkpt lat="45.3988370" lon="6.3378190">
        <ele>1220.2</ele>
        <time>2021-08-19T09:14:45Z</time>
      </trkpt>
      <trkpt lat="45.3988910" lon="6.3378660">
        <ele>1221.0</ele>
        <time>2021-08-19T09:14:48Z</time>
      </trkpt>
      <trkpt lat="45.3989330" lon="6.3379020">
        <ele>1221.6</ele>
        <time>2021-08-19T09:14:50Z</time>
      </trkpt>
      <trkpt lat="45.3990040" lon="6.3379870">
        <ele>1222.2</ele>
        <time>2021-08-19T09:14:54Z</time>
      </trkpt>
      <trkpt lat="45.3990590" lon="6.3380580">
        <ele>1223.2</ele>
        <time>2021-08-19T09:14:58Z</time>
      </trkpt>
      <trkpt lat="45.3991470" lon="6.3381750">
        <ele>1224.4</ele>
        <time>2021-08-19T09:15:04Z</time>
      </trkpt>
      <trkpt lat="45.3991760" lon="6.3382290">
        <ele>1224.6</ele>
        <time>2021-08-19T09:15:06Z</time>
      </trkpt>
      <trkpt lat="45.3991920" lon="6.3382500">
        <ele>1224.8</ele>
        <time>2021-08-19T09:15:07Z</time>
      </trkpt>
      <trkpt lat="45.3992050" lon="6.3382680">
        <ele>1225.0</ele>
        <time>2021-08-19T09:15:08Z</time>
      </trkpt>
      <trkpt lat="45.3992380" lon="6.3383160">
        <ele>1225.4</ele>
        <time>2021-08-19T09:15:10Z</time>
      </trkpt>
      <trkpt lat="45.3993380" lon="6.3384550">
        <ele>1226.4</ele>
        <time>2021-08-19T09:15:16Z</time>
      </trkpt>
      <trkpt lat="45.3993540" lon="6.3384790">
        <ele>1226.4</ele>
        <time>2021-08-19T09:15:17Z</time>
      </trkpt>
      <trkpt lat="45.3994630" lon="6.3386530">
        <ele>1228.2</ele>
        <time>2021-08-19T09:15:24Z</time>
      </trkpt>
      <trkpt lat="45.3994780" lon="6.3386780">
        <ele>1228.6</ele>
        <time>2021-08-19T09:15:25Z</time>
      </trkpt>
      <trkpt lat="45.3995310" lon="6.3387500">
        <ele>1229.4</ele>
        <time>2021-08-19T09:15:28Z</time>
      </trkpt>
      <trkpt lat="45.3995950" lon="6.3388370">
        <ele>1230.2</ele>
        <time>2021-08-19T09:15:32Z</time>
      </trkpt>
      <trkpt lat="45.3996260" lon="6.3388800">
        <ele>1230.6</ele>
        <time>2021-08-19T09:15:34Z</time>
      </trkpt>
      <trkpt lat="45.3997220" lon="6.3390150">
        <ele>1231.6</ele>
        <time>2021-08-19T09:15:40Z</time>
      </trkpt>
      <trkpt lat="45.3997370" lon="6.3390380">
        <ele>1231.8</ele>
        <time>2021-08-19T09:15:41Z</time>
      </trkpt>
      <trkpt lat="45.3997890" lon="6.3391260">
        <ele>1232.6</ele>
        <time>2021-08-19T09:15:45Z</time>
      </trkpt>
      <trkpt lat="45.3998940" lon="6.3392360">
        <ele>1233.6</ele>
        <time>2021-08-19T09:15:51Z</time>
      </trkpt>
      <trkpt lat="45.3999140" lon="6.3392540">
        <ele>1233.8</ele>
        <time>2021-08-19T09:15:52Z</time>
      </trkpt>
      <trkpt lat="45.3999920" lon="6.3393220">
        <ele>1234.6</ele>
        <time>2021-08-19T09:15:56Z</time>
      </trkpt>
      <trkpt lat="45.4000120" lon="6.3393350">
        <ele>1234.8</ele>
        <time>2021-08-19T09:15:57Z</time>
      </trkpt>
      <trkpt lat="45.4001060" lon="6.3393710">
        <ele>1235.8</ele>
        <time>2021-08-19T09:16:01Z</time>
      </trkpt>
      <trkpt lat="45.4001980" lon="6.3393940">
        <ele>1236.8</ele>
        <time>2021-08-19T09:16:05Z</time>
      </trkpt>
      <trkpt lat="45.4002690" lon="6.3393840">
        <ele>1237.4</ele>
        <time>2021-08-19T09:16:08Z</time>
      </trkpt>
      <trkpt lat="45.4003390" lon="6.3393650">
        <ele>1238.0</ele>
        <time>2021-08-19T09:16:11Z</time>
      </trkpt>
      <trkpt lat="45.4004660" lon="6.3393200">
        <ele>1239.0</ele>
        <time>2021-08-19T09:16:17Z</time>
      </trkpt>
      <trkpt lat="45.4004850" lon="6.3393100">
        <ele>1239.2</ele>
        <time>2021-08-19T09:16:18Z</time>
      </trkpt>
      <trkpt lat="45.4005730" lon="6.3392780">
        <ele>1240.0</ele>
        <time>2021-08-19T09:16:22Z</time>
      </trkpt>
      <trkpt lat="45.4006440" lon="6.3392740">
        <ele>1240.6</ele>
        <time>2021-08-19T09:16:25Z</time>
      </trkpt>
      <trkpt lat="45.4007050" lon="6.3392810">
        <ele>1241.0</ele>
        <time>2021-08-19T09:16:28Z</time>
      </trkpt>
      <trkpt lat="45.4007480" lon="6.3392870">
        <ele>1241.4</ele>
        <time>2021-08-19T09:16:30Z</time>
      </trkpt>
      <trkpt lat="45.4007890" lon="6.3392950">
        <ele>1242.2</ele>
        <time>2021-08-19T09:16:32Z</time>
      </trkpt>
      <trkpt lat="45.4009130" lon="6.3393300">
        <ele>1243.2</ele>
        <time>2021-08-19T09:16:37Z</time>
      </trkpt>
      <trkpt lat="45.4009610" lon="6.3393420">
        <ele>1243.8</ele>
        <time>2021-08-19T09:16:39Z</time>
      </trkpt>
      <trkpt lat="45.4010340" lon="6.3393750">
        <ele>1244.4</ele>
        <time>2021-08-19T09:16:42Z</time>
      </trkpt>
      <trkpt lat="45.4011220" lon="6.3394410">
        <ele>1245.4</ele>
        <time>2021-08-19T09:16:46Z</time>
      </trkpt>
      <trkpt lat="45.4012700" lon="6.3395170">
        <ele>1246.8</ele>
        <time>2021-08-19T09:16:53Z</time>
      </trkpt>
      <trkpt lat="45.4012890" lon="6.3395270">
        <ele>1246.8</ele>
        <time>2021-08-19T09:16:54Z</time>
      </trkpt>
      <trkpt lat="45.4014230" lon="6.3395630">
        <ele>1247.8</ele>
        <time>2021-08-19T09:17:00Z</time>
      </trkpt>
      <trkpt lat="45.4014870" lon="6.3395750">
        <ele>1248.4</ele>
        <time>2021-08-19T09:17:03Z</time>
      </trkpt>
      <trkpt lat="45.4015430" lon="6.3395820">
        <ele>1249.0</ele>
        <time>2021-08-19T09:17:06Z</time>
      </trkpt>
      <trkpt lat="45.4016600" lon="6.3396270">
        <ele>1250.2</ele>
        <time>2021-08-19T09:17:12Z</time>
      </trkpt>
      <trkpt lat="45.4016790" lon="6.3396420">
        <ele>1250.4</ele>
        <time>2021-08-19T09:17:13Z</time>
      </trkpt>
      <trkpt lat="45.4017290" lon="6.3396910">
        <ele>1251.2</ele>
        <time>2021-08-19T09:17:16Z</time>
      </trkpt>
      <trkpt lat="45.4017750" lon="6.3397400">
        <ele>1251.8</ele>
        <time>2021-08-19T09:17:19Z</time>
      </trkpt>
      <trkpt lat="45.4018180" lon="6.3397940">
        <ele>1252.2</ele>
        <time>2021-08-19T09:17:22Z</time>
      </trkpt>
      <trkpt lat="45.4018300" lon="6.3398140">
        <ele>1252.4</ele>
        <time>2021-08-19T09:17:23Z</time>
      </trkpt>
      <trkpt lat="45.4018440" lon="6.3398350">
        <ele>1252.6</ele>
        <time>2021-08-19T09:17:24Z</time>
      </trkpt>
      <trkpt lat="45.4018560" lon="6.3398580">
        <ele>1252.8</ele>
        <time>2021-08-19T09:17:25Z</time>
      </trkpt>
      <trkpt lat="45.4018740" lon="6.3399110">
        <ele>1253.2</ele>
        <time>2021-08-19T09:17:27Z</time>
      </trkpt>
      <trkpt lat="45.4018850" lon="6.3399360">
        <ele>1253.2</ele>
        <time>2021-08-19T09:17:28Z</time>
      </trkpt>
      <trkpt lat="45.4018940" lon="6.3399630">
        <ele>1253.4</ele>
        <time>2021-08-19T09:17:29Z</time>
      </trkpt>
      <trkpt lat="45.4019550" lon="6.3401630">
        <ele>1254.8</ele>
        <time>2021-08-19T09:17:36Z</time>
      </trkpt>
      <trkpt lat="45.4019650" lon="6.3402390">
        <ele>1255.8</ele>
        <time>2021-08-19T09:17:39Z</time>
      </trkpt>
      <trkpt lat="45.4019810" lon="6.3402950">
        <ele>1256.2</ele>
        <time>2021-08-19T09:17:41Z</time>
      </trkpt>
      <trkpt lat="45.4019880" lon="6.3403450">
        <ele>1256.6</ele>
        <time>2021-08-19T09:17:43Z</time>
      </trkpt>
      <trkpt lat="45.4019880" lon="6.3403730">
        <ele>1256.8</ele>
        <time>2021-08-19T09:17:44Z</time>
      </trkpt>
      <trkpt lat="45.4019850" lon="6.3404340">
        <ele>1257.4</ele>
        <time>2021-08-19T09:17:46Z</time>
      </trkpt>
      <trkpt lat="45.4019780" lon="6.3405490">
        <ele>1257.8</ele>
        <time>2021-08-19T09:17:50Z</time>
      </trkpt>
      <trkpt lat="45.4019700" lon="6.3406140">
        <ele>1258.0</ele>
        <time>2021-08-19T09:17:52Z</time>
      </trkpt>
      <trkpt lat="45.4019700" lon="6.3407110">
        <ele>1258.8</ele>
        <time>2021-08-19T09:17:55Z</time>
      </trkpt>
      <trkpt lat="45.4019720" lon="6.3407450">
        <ele>1259.4</ele>
        <time>2021-08-19T09:17:56Z</time>
      </trkpt>
      <trkpt lat="45.4019740" lon="6.3407770">
        <ele>1259.6</ele>
        <time>2021-08-19T09:17:57Z</time>
      </trkpt>
      <trkpt lat="45.4019760" lon="6.3408100">
        <ele>1259.6</ele>
        <time>2021-08-19T09:17:58Z</time>
      </trkpt>
      <trkpt lat="45.4019780" lon="6.3408420">
        <ele>1260.0</ele>
        <time>2021-08-19T09:17:59Z</time>
      </trkpt>
      <trkpt lat="45.4019800" lon="6.3408820">
        <ele>1260.2</ele>
        <time>2021-08-19T09:18:00Z</time>
      </trkpt>
      <trkpt lat="45.4019860" lon="6.3409180">
        <ele>1260.4</ele>
        <time>2021-08-19T09:18:01Z</time>
      </trkpt>
      <trkpt lat="45.4020000" lon="6.3410380">
        <ele>1261.2</ele>
        <time>2021-08-19T09:18:05Z</time>
      </trkpt>
      <trkpt lat="45.4020060" lon="6.3411020">
        <ele>1261.4</ele>
        <time>2021-08-19T09:18:07Z</time>
      </trkpt>
      <trkpt lat="45.4020150" lon="6.3411650">
        <ele>1262.0</ele>
        <time>2021-08-19T09:18:09Z</time>
      </trkpt>
      <trkpt lat="45.4020200" lon="6.3412050">
        <ele>1262.0</ele>
        <time>2021-08-19T09:18:10Z</time>
      </trkpt>
      <trkpt lat="45.4020230" lon="6.3412320">
        <ele>1262.4</ele>
        <time>2021-08-19T09:18:11Z</time>
      </trkpt>
      <trkpt lat="45.4020230" lon="6.3412650">
        <ele>1262.6</ele>
        <time>2021-08-19T09:18:12Z</time>
      </trkpt>
      <trkpt lat="45.4020410" lon="6.3414600">
        <ele>1263.8</ele>
        <time>2021-08-19T09:18:18Z</time>
      </trkpt>
      <trkpt lat="45.4020560" lon="6.3415440">
        <ele>1264.0</ele>
        <time>2021-08-19T09:18:21Z</time>
      </trkpt>
      <trkpt lat="45.4020580" lon="6.3415720">
        <ele>1264.2</ele>
        <time>2021-08-19T09:18:22Z</time>
      </trkpt>
      <trkpt lat="45.4020650" lon="6.3416770">
        <ele>1264.8</ele>
        <time>2021-08-19T09:18:26Z</time>
      </trkpt>
      <trkpt lat="45.4020680" lon="6.3417060">
        <ele>1265.0</ele>
        <time>2021-08-19T09:18:27Z</time>
      </trkpt>
      <trkpt lat="45.4020720" lon="6.3417420">
        <ele>1265.2</ele>
        <time>2021-08-19T09:18:28Z</time>
      </trkpt>
      <trkpt lat="45.4020780" lon="6.3418010">
        <ele>1265.4</ele>
        <time>2021-08-19T09:18:30Z</time>
      </trkpt>
      <trkpt lat="45.4020870" lon="6.3418930">
        <ele>1265.8</ele>
        <time>2021-08-19T09:18:33Z</time>
      </trkpt>
      <trkpt lat="45.4021240" lon="6.3420330">
        <ele>1267.0</ele>
        <time>2021-08-19T09:18:38Z</time>
      </trkpt>
      <trkpt lat="45.4021890" lon="6.3421630">
        <ele>1268.2</ele>
        <time>2021-08-19T09:18:43Z</time>
      </trkpt>
      <trkpt lat="45.4022360" lon="6.3422250">
        <ele>1268.6</ele>
        <time>2021-08-19T09:18:46Z</time>
      </trkpt>
      <trkpt lat="45.4023050" lon="6.3423040">
        <ele>1269.2</ele>
        <time>2021-08-19T09:18:50Z</time>
      </trkpt>
      <trkpt lat="45.4024140" lon="6.3424180">
        <ele>1270.4</ele>
        <time>2021-08-19T09:18:56Z</time>
      </trkpt>
      <trkpt lat="45.4024860" lon="6.3424830">
        <ele>1271.0</ele>
        <time>2021-08-19T09:19:00Z</time>
      </trkpt>
      <trkpt lat="45.4025030" lon="6.3425010">
        <ele>1271.6</ele>
        <time>2021-08-19T09:19:01Z</time>
      </trkpt>
      <trkpt lat="45.4025520" lon="6.3425570">
        <ele>1272.0</ele>
        <time>2021-08-19T09:19:04Z</time>
      </trkpt>
      <trkpt lat="45.4025860" lon="6.3426250">
        <ele>1272.6</ele>
        <time>2021-08-19T09:19:07Z</time>
      </trkpt>
      <trkpt lat="45.4026420" lon="6.3427720">
        <ele>1273.6</ele>
        <time>2021-08-19T09:19:12Z</time>
      </trkpt>
      <trkpt lat="45.4026770" lon="6.3429390">
        <ele>1274.8</ele>
        <time>2021-08-19T09:19:18Z</time>
      </trkpt>
      <trkpt lat="45.4026880" lon="6.3429580">
        <ele>1274.8</ele>
        <time>2021-08-19T09:19:19Z</time>
      </trkpt>
      <trkpt lat="45.4027340" lon="6.3430270">
        <ele>1275.8</ele>
        <time>2021-08-19T09:19:22Z</time>
      </trkpt>
      <trkpt lat="45.4028010" lon="6.3430770">
        <ele>1276.4</ele>
        <time>2021-08-19T09:19:25Z</time>
      </trkpt>
      <trkpt lat="45.4028240" lon="6.3430880">
        <ele>1276.6</ele>
        <time>2021-08-19T09:19:26Z</time>
      </trkpt>
      <trkpt lat="45.4028490" lon="6.3431000">
        <ele>1276.8</ele>
        <time>2021-08-19T09:19:27Z</time>
      </trkpt>
      <trkpt lat="45.4029620" lon="6.3431240">
        <ele>1277.8</ele>
        <time>2021-08-19T09:19:33Z</time>
      </trkpt>
      <trkpt lat="45.4030100" lon="6.3431220">
        <ele>1278.2</ele>
        <time>2021-08-19T09:19:35Z</time>
      </trkpt>
      <trkpt lat="45.4030860" lon="6.3431270">
        <ele>1278.8</ele>
        <time>2021-08-19T09:19:39Z</time>
      </trkpt>
      <trkpt lat="45.4031870" lon="6.3431210">
        <ele>1279.8</ele>
        <time>2021-08-19T09:19:44Z</time>
      </trkpt>
      <trkpt lat="45.4032070" lon="6.3431160">
        <ele>1280.0</ele>
        <time>2021-08-19T09:19:45Z</time>
      </trkpt>
      <trkpt lat="45.4033020" lon="6.3431140">
        <ele>1281.0</ele>
        <time>2021-08-19T09:19:50Z</time>
      </trkpt>
      <trkpt lat="45.4034020" lon="6.3431050">
        <ele>1281.8</ele>
        <time>2021-08-19T09:19:55Z</time>
      </trkpt>
      <trkpt lat="45.4034190" lon="6.3431050">
        <ele>1282.0</ele>
        <time>2021-08-19T09:19:56Z</time>
      </trkpt>
      <trkpt lat="45.4035330" lon="6.3431010">
        <ele>1283.2</ele>
        <time>2021-08-19T09:20:02Z</time>
      </trkpt>
      <trkpt lat="45.4035780" lon="6.3431030">
        <ele>1283.6</ele>
        <time>2021-08-19T09:20:04Z</time>
      </trkpt>
      <trkpt lat="45.4036320" lon="6.3430940">
        <ele>1284.2</ele>
        <time>2021-08-19T09:20:07Z</time>
      </trkpt>
      <trkpt lat="45.4037420" lon="6.3430640">
        <ele>1285.0</ele>
        <time>2021-08-19T09:20:12Z</time>
      </trkpt>
      <trkpt lat="45.4037600" lon="6.3430590">
        <ele>1285.2</ele>
        <time>2021-08-19T09:20:13Z</time>
      </trkpt>
      <trkpt lat="45.4037990" lon="6.3430450">
        <ele>1285.6</ele>
        <time>2021-08-19T09:20:15Z</time>
      </trkpt>
      <trkpt lat="45.4038400" lon="6.3429900">
        <ele>1286.0</ele>
        <time>2021-08-19T09:20:18Z</time>
      </trkpt>
      <trkpt lat="45.4038540" lon="6.3429650">
        <ele>1286.4</ele>
        <time>2021-08-19T09:20:19Z</time>
      </trkpt>
      <trkpt lat="45.4039030" lon="6.3428470">
        <ele>1287.4</ele>
        <time>2021-08-19T09:20:24Z</time>
      </trkpt>
      <trkpt lat="45.4039130" lon="6.3428210">
        <ele>1287.6</ele>
        <time>2021-08-19T09:20:25Z</time>
      </trkpt>
      <trkpt lat="45.4039780" lon="6.3426970">
        <ele>1288.6</ele>
        <time>2021-08-19T09:20:31Z</time>
      </trkpt>
      <trkpt lat="45.4040120" lon="6.3426700">
        <ele>1289.2</ele>
        <time>2021-08-19T09:20:33Z</time>
      </trkpt>
      <trkpt lat="45.4040360" lon="6.3426600">
        <ele>1289.6</ele>
        <time>2021-08-19T09:20:34Z</time>
      </trkpt>
      <trkpt lat="45.4041260" lon="6.3426790">
        <ele>1290.4</ele>
        <time>2021-08-19T09:20:39Z</time>
      </trkpt>
      <trkpt lat="45.4042100" lon="6.3427840">
        <ele>1291.8</ele>
        <time>2021-08-19T09:20:45Z</time>
      </trkpt>
      <trkpt lat="45.4042520" lon="6.3428450">
        <ele>1292.4</ele>
        <time>2021-08-19T09:20:48Z</time>
      </trkpt>
      <trkpt lat="45.4042740" lon="6.3428900">
        <ele>1292.8</ele>
        <time>2021-08-19T09:20:50Z</time>
      </trkpt>
      <trkpt lat="45.4043330" lon="6.3429960">
        <ele>1294.0</ele>
        <time>2021-08-19T09:20:55Z</time>
      </trkpt>
      <trkpt lat="45.4043900" lon="6.3431060">
        <ele>1295.0</ele>
        <time>2021-08-19T09:21:00Z</time>
      </trkpt>
      <trkpt lat="45.4044370" lon="6.3431770">
        <ele>1295.6</ele>
        <time>2021-08-19T09:21:03Z</time>
      </trkpt>
      <trkpt lat="45.4044940" lon="6.3432510">
        <ele>1296.2</ele>
        <time>2021-08-19T09:21:07Z</time>
      </trkpt>
      <trkpt lat="45.4045480" lon="6.3432840">
        <ele>1296.6</ele>
        <time>2021-08-19T09:21:10Z</time>
      </trkpt>
      <trkpt lat="45.4046240" lon="6.3433140">
        <ele>1297.4</ele>
        <time>2021-08-19T09:21:14Z</time>
      </trkpt>
      <trkpt lat="45.4046980" lon="6.3433510">
        <ele>1298.4</ele>
        <time>2021-08-19T09:21:18Z</time>
      </trkpt>
      <trkpt lat="45.4047130" lon="6.3433570">
        <ele>1298.8</ele>
        <time>2021-08-19T09:21:19Z</time>
      </trkpt>
      <trkpt lat="45.4047840" lon="6.3433620">
        <ele>1299.8</ele>
        <time>2021-08-19T09:21:23Z</time>
      </trkpt>
      <trkpt lat="45.4048220" lon="6.3433700">
        <ele>1300.2</ele>
        <time>2021-08-19T09:21:25Z</time>
      </trkpt>
      <trkpt lat="45.4048930" lon="6.3433900">
        <ele>1300.8</ele>
        <time>2021-08-19T09:21:29Z</time>
      </trkpt>
      <trkpt lat="45.4049490" lon="6.3434070">
        <ele>1301.6</ele>
        <time>2021-08-19T09:21:32Z</time>
      </trkpt>
      <trkpt lat="45.4049870" lon="6.3434100">
        <ele>1302.0</ele>
        <time>2021-08-19T09:21:34Z</time>
      </trkpt>
      <trkpt lat="45.4050740" lon="6.3434210">
        <ele>1302.8</ele>
        <time>2021-08-19T09:21:38Z</time>
      </trkpt>
      <trkpt lat="45.4050920" lon="6.3434220">
        <ele>1303.0</ele>
        <time>2021-08-19T09:21:39Z</time>
      </trkpt>
      <trkpt lat="45.4051840" lon="6.3434340">
        <ele>1303.6</ele>
        <time>2021-08-19T09:21:44Z</time>
      </trkpt>
      <trkpt lat="45.4052280" lon="6.3434340">
        <ele>1304.2</ele>
        <time>2021-08-19T09:21:46Z</time>
      </trkpt>
      <trkpt lat="45.4052510" lon="6.3434350">
        <ele>1304.4</ele>
        <time>2021-08-19T09:21:47Z</time>
      </trkpt>
      <trkpt lat="45.4053350" lon="6.3434570">
        <ele>1305.2</ele>
        <time>2021-08-19T09:21:51Z</time>
      </trkpt>
      <trkpt lat="45.4053850" lon="6.3434650">
        <ele>1306.0</ele>
        <time>2021-08-19T09:21:54Z</time>
      </trkpt>
      <trkpt lat="45.4054030" lon="6.3434680">
        <ele>1306.2</ele>
        <time>2021-08-19T09:21:55Z</time>
      </trkpt>
      <trkpt lat="45.4054940" lon="6.3434950">
        <ele>1307.4</ele>
        <time>2021-08-19T09:22:00Z</time>
      </trkpt>
      <trkpt lat="45.4055170" lon="6.3435040">
        <ele>1307.4</ele>
        <time>2021-08-19T09:22:01Z</time>
      </trkpt>
      <trkpt lat="45.4056020" lon="6.3435660">
        <ele>1308.6</ele>
        <time>2021-08-19T09:22:06Z</time>
      </trkpt>
      <trkpt lat="45.4056320" lon="6.3435850">
        <ele>1308.8</ele>
        <time>2021-08-19T09:22:08Z</time>
      </trkpt>
      <trkpt lat="45.4056980" lon="6.3436210">
        <ele>1309.8</ele>
        <time>2021-08-19T09:22:12Z</time>
      </trkpt>
      <trkpt lat="45.4057800" lon="6.3436780">
        <ele>1310.8</ele>
        <time>2021-08-19T09:22:17Z</time>
      </trkpt>
      <trkpt lat="45.4058800" lon="6.3437510">
        <ele>1312.2</ele>
        <time>2021-08-19T09:22:23Z</time>
      </trkpt>
      <trkpt lat="45.4059180" lon="6.3437700">
        <ele>1312.4</ele>
        <time>2021-08-19T09:22:25Z</time>
      </trkpt>
      <trkpt lat="45.4059510" lon="6.3437840">
        <ele>1312.6</ele>
        <time>2021-08-19T09:22:27Z</time>
      </trkpt>
      <trkpt lat="45.4060020" lon="6.3438050">
        <ele>1313.2</ele>
        <time>2021-08-19T09:22:30Z</time>
      </trkpt>
      <trkpt lat="45.4060870" lon="6.3438670">
        <ele>1314.2</ele>
        <time>2021-08-19T09:22:35Z</time>
      </trkpt>
      <trkpt lat="45.4061040" lon="6.3438770">
        <ele>1314.4</ele>
        <time>2021-08-19T09:22:36Z</time>
      </trkpt>
      <trkpt lat="45.4062190" lon="6.3439420">
        <ele>1315.6</ele>
        <time>2021-08-19T09:22:43Z</time>
      </trkpt>
      <trkpt lat="45.4062860" lon="6.3439790">
        <ele>1316.6</ele>
        <time>2021-08-19T09:22:47Z</time>
      </trkpt>
      <trkpt lat="45.4063220" lon="6.3440080">
        <ele>1317.2</ele>
        <time>2021-08-19T09:22:49Z</time>
      </trkpt>
      <trkpt lat="45.4063840" lon="6.3440560">
        <ele>1318.2</ele>
        <time>2021-08-19T09:22:53Z</time>
      </trkpt>
      <trkpt lat="45.4064040" lon="6.3440690">
        <ele>1318.6</ele>
        <time>2021-08-19T09:22:54Z</time>
      </trkpt>
      <trkpt lat="45.4064960" lon="6.3441400">
        <ele>1319.4</ele>
        <time>2021-08-19T09:23:00Z</time>
      </trkpt>
      <trkpt lat="45.4065300" lon="6.3441600">
        <ele>1319.8</ele>
        <time>2021-08-19T09:23:02Z</time>
      </trkpt>
      <trkpt lat="45.4065930" lon="6.3442070">
        <ele>1320.6</ele>
        <time>2021-08-19T09:23:06Z</time>
      </trkpt>
      <trkpt lat="45.4066860" lon="6.3442900">
        <ele>1321.8</ele>
        <time>2021-08-19T09:23:12Z</time>
      </trkpt>
      <trkpt lat="45.4067010" lon="6.3443040">
        <ele>1321.8</ele>
        <time>2021-08-19T09:23:13Z</time>
      </trkpt>
      <trkpt lat="45.4067850" lon="6.3443590">
        <ele>1322.6</ele>
        <time>2021-08-19T09:23:18Z</time>
      </trkpt>
      <trkpt lat="45.4068560" lon="6.3444100">
        <ele>1323.6</ele>
        <time>2021-08-19T09:23:22Z</time>
      </trkpt>
      <trkpt lat="45.4068740" lon="6.3444200">
        <ele>1323.8</ele>
        <time>2021-08-19T09:23:23Z</time>
      </trkpt>
      <trkpt lat="45.4068940" lon="6.3444330">
        <ele>1323.8</ele>
        <time>2021-08-19T09:23:24Z</time>
      </trkpt>
      <trkpt lat="45.4069910" lon="6.3444980">
        <ele>1325.0</ele>
        <time>2021-08-19T09:23:30Z</time>
      </trkpt>
      <trkpt lat="45.4070420" lon="6.3445230">
        <ele>1325.6</ele>
        <time>2021-08-19T09:23:33Z</time>
      </trkpt>
      <trkpt lat="45.4070760" lon="6.3445440">
        <ele>1326.0</ele>
        <time>2021-08-19T09:23:35Z</time>
      </trkpt>
      <trkpt lat="45.4071660" lon="6.3445830">
        <ele>1327.0</ele>
        <time>2021-08-19T09:23:40Z</time>
      </trkpt>
      <trkpt lat="45.4071830" lon="6.3445930">
        <ele>1327.4</ele>
        <time>2021-08-19T09:23:41Z</time>
      </trkpt>
      <trkpt lat="45.4072720" lon="6.3446310">
        <ele>1328.0</ele>
        <time>2021-08-19T09:23:46Z</time>
      </trkpt>
      <trkpt lat="45.4073270" lon="6.3446460">
        <ele>1328.8</ele>
        <time>2021-08-19T09:23:49Z</time>
      </trkpt>
      <trkpt lat="45.4073670" lon="6.3446510">
        <ele>1329.4</ele>
        <time>2021-08-19T09:23:51Z</time>
      </trkpt>
      <trkpt lat="45.4074630" lon="6.3446760">
        <ele>1330.6</ele>
        <time>2021-08-19T09:23:56Z</time>
      </trkpt>
      <trkpt lat="45.4075420" lon="6.3446950">
        <ele>1331.6</ele>
        <time>2021-08-19T09:24:00Z</time>
      </trkpt>
      <trkpt lat="45.4075610" lon="6.3446980">
        <ele>1331.6</ele>
        <time>2021-08-19T09:24:01Z</time>
      </trkpt>
      <trkpt lat="45.4077020" lon="6.3447120">
        <ele>1332.6</ele>
        <time>2021-08-19T09:24:08Z</time>
      </trkpt>
      <trkpt lat="45.4077380" lon="6.3447250">
        <ele>1333.4</ele>
        <time>2021-08-19T09:24:10Z</time>
      </trkpt>
      <trkpt lat="45.4077760" lon="6.3447350">
        <ele>1333.8</ele>
        <time>2021-08-19T09:24:12Z</time>
      </trkpt>
      <trkpt lat="45.4079040" lon="6.3447640">
        <ele>1334.8</ele>
        <time>2021-08-19T09:24:18Z</time>
      </trkpt>
      <trkpt lat="45.4079910" lon="6.3447820">
        <ele>1336.0</ele>
        <time>2021-08-19T09:24:22Z</time>
      </trkpt>
      <trkpt lat="45.4080820" lon="6.3448040">
        <ele>1337.2</ele>
        <time>2021-08-19T09:24:26Z</time>
      </trkpt>
      <trkpt lat="45.4081050" lon="6.3448100">
        <ele>1337.2</ele>
        <time>2021-08-19T09:24:27Z</time>
      </trkpt>
      <trkpt lat="45.4082030" lon="6.3448830">
        <ele>1338.4</ele>
        <time>2021-08-19T09:24:32Z</time>
      </trkpt>
      <trkpt lat="45.4082240" lon="6.3449170">
        <ele>1338.6</ele>
        <time>2021-08-19T09:24:33Z</time>
      </trkpt>
      <trkpt lat="45.4082480" lon="6.3450090">
        <ele>1339.4</ele>
        <time>2021-08-19T09:24:36Z</time>
      </trkpt>
      <trkpt lat="45.4082430" lon="6.3450800">
        <ele>1339.6</ele>
        <time>2021-08-19T09:24:38Z</time>
      </trkpt>
      <trkpt lat="45.4082070" lon="6.3451770">
        <ele>1340.4</ele>
        <time>2021-08-19T09:24:41Z</time>
      </trkpt>
      <trkpt lat="45.4081840" lon="6.3452020">
        <ele>1340.4</ele>
        <time>2021-08-19T09:24:42Z</time>
      </trkpt>
      <trkpt lat="45.4081650" lon="6.3452140">
        <ele>1340.6</ele>
        <time>2021-08-19T09:24:43Z</time>
      </trkpt>
      <trkpt lat="45.4081420" lon="6.3452290">
        <ele>1340.8</ele>
        <time>2021-08-19T09:24:44Z</time>
      </trkpt>
      <trkpt lat="45.4081200" lon="6.3452410">
        <ele>1341.0</ele>
        <time>2021-08-19T09:24:45Z</time>
      </trkpt>
      <trkpt lat="45.4080970" lon="6.3452490">
        <ele>1341.2</ele>
        <time>2021-08-19T09:24:46Z</time>
      </trkpt>
      <trkpt lat="45.4080730" lon="6.3452570">
        <ele>1341.4</ele>
        <time>2021-08-19T09:24:47Z</time>
      </trkpt>
      <trkpt lat="45.4080500" lon="6.3452640">
        <ele>1341.6</ele>
        <time>2021-08-19T09:24:48Z</time>
      </trkpt>
      <trkpt lat="45.4080050" lon="6.3452780">
        <ele>1342.0</ele>
        <time>2021-08-19T09:24:50Z</time>
      </trkpt>
      <trkpt lat="45.4079820" lon="6.3452840">
        <ele>1342.2</ele>
        <time>2021-08-19T09:24:51Z</time>
      </trkpt>
      <trkpt lat="45.4079360" lon="6.3452920">
        <ele>1342.8</ele>
        <time>2021-08-19T09:24:53Z</time>
      </trkpt>
      <trkpt lat="45.4079140" lon="6.3452970">
        <ele>1342.8</ele>
        <time>2021-08-19T09:24:54Z</time>
      </trkpt>
      <trkpt lat="45.4078930" lon="6.3452990">
        <ele>1343.2</ele>
        <time>2021-08-19T09:24:55Z</time>
      </trkpt>
      <trkpt lat="45.4078710" lon="6.3453030">
        <ele>1343.2</ele>
        <time>2021-08-19T09:24:56Z</time>
      </trkpt>
      <trkpt lat="45.4078040" lon="6.3453130">
        <ele>1343.6</ele>
        <time>2021-08-19T09:24:59Z</time>
      </trkpt>
      <trkpt lat="45.4077610" lon="6.3453190">
        <ele>1344.0</ele>
        <time>2021-08-19T09:25:01Z</time>
      </trkpt>
      <trkpt lat="45.4077390" lon="6.3453230">
        <ele>1344.0</ele>
        <time>2021-08-19T09:25:02Z</time>
      </trkpt>
      <trkpt lat="45.4077170" lon="6.3453300">
        <ele>1344.0</ele>
        <time>2021-08-19T09:25:03Z</time>
      </trkpt>
      <trkpt lat="45.4076950" lon="6.3453360">
        <ele>1344.2</ele>
        <time>2021-08-19T09:25:04Z</time>
      </trkpt>
      <trkpt lat="45.4076050" lon="6.3453470">
        <ele>1344.6</ele>
        <time>2021-08-19T09:25:08Z</time>
      </trkpt>
      <trkpt lat="45.4075380" lon="6.3453610">
        <ele>1345.4</ele>
        <time>2021-08-19T09:25:11Z</time>
      </trkpt>
      <trkpt lat="45.4074920" lon="6.3453640">
        <ele>1345.8</ele>
        <time>2021-08-19T09:25:13Z</time>
      </trkpt>
      <trkpt lat="45.4073820" lon="6.3453830">
        <ele>1346.6</ele>
        <time>2021-08-19T09:25:18Z</time>
      </trkpt>
      <trkpt lat="45.4073600" lon="6.3453860">
        <ele>1347.0</ele>
        <time>2021-08-19T09:25:19Z</time>
      </trkpt>
      <trkpt lat="45.4072380" lon="6.3454160">
        <ele>1348.2</ele>
        <time>2021-08-19T09:25:25Z</time>
      </trkpt>
      <trkpt lat="45.4072190" lon="6.3454180">
        <ele>1348.6</ele>
        <time>2021-08-19T09:25:26Z</time>
      </trkpt>
      <trkpt lat="45.4071400" lon="6.3454300">
        <ele>1349.4</ele>
        <time>2021-08-19T09:25:30Z</time>
      </trkpt>
      <trkpt lat="45.4070280" lon="6.3454420">
        <ele>1350.0</ele>
        <time>2021-08-19T09:25:35Z</time>
      </trkpt>
      <trkpt lat="45.4070060" lon="6.3454450">
        <ele>1350.4</ele>
        <time>2021-08-19T09:25:36Z</time>
      </trkpt>
      <trkpt lat="45.4069320" lon="6.3454500">
        <ele>1351.2</ele>
        <time>2021-08-19T09:25:39Z</time>
      </trkpt>
      <trkpt lat="45.4068850" lon="6.3454590">
        <ele>1351.6</ele>
        <time>2021-08-19T09:25:41Z</time>
      </trkpt>
      <trkpt lat="45.4068560" lon="6.3454700">
        <ele>1351.6</ele>
        <time>2021-08-19T09:25:42Z</time>
      </trkpt>
      <trkpt lat="45.4067940" lon="6.3455070">
        <ele>1352.4</ele>
        <time>2021-08-19T09:25:45Z</time>
      </trkpt>
      <trkpt lat="45.4067780" lon="6.3455310">
        <ele>1352.6</ele>
        <time>2021-08-19T09:25:46Z</time>
      </trkpt>
      <trkpt lat="45.4067650" lon="6.3455590">
        <ele>1352.8</ele>
        <time>2021-08-19T09:25:47Z</time>
      </trkpt>
      <trkpt lat="45.4067530" lon="6.3455900">
        <ele>1353.0</ele>
        <time>2021-08-19T09:25:48Z</time>
      </trkpt>
      <trkpt lat="45.4067360" lon="6.3456860">
        <ele>1353.6</ele>
        <time>2021-08-19T09:25:51Z</time>
      </trkpt>
      <trkpt lat="45.4067410" lon="6.3457210">
        <ele>1353.6</ele>
        <time>2021-08-19T09:25:52Z</time>
      </trkpt>
      <trkpt lat="45.4067540" lon="6.3457530">
        <ele>1353.8</ele>
        <time>2021-08-19T09:25:53Z</time>
      </trkpt>
      <trkpt lat="45.4067730" lon="6.3457840">
        <ele>1353.8</ele>
        <time>2021-08-19T09:25:54Z</time>
      </trkpt>
      <trkpt lat="45.4068310" lon="6.3458400">
        <ele>1354.2</ele>
        <time>2021-08-19T09:25:56Z</time>
      </trkpt>
      <trkpt lat="45.4068890" lon="6.3458600">
        <ele>1354.4</ele>
        <time>2021-08-19T09:25:58Z</time>
      </trkpt>
      <trkpt lat="45.4069600" lon="6.3458420">
        <ele>1354.6</ele>
        <time>2021-08-19T09:26:00Z</time>
      </trkpt>
      <trkpt lat="45.4070200" lon="6.3458150">
        <ele>1354.8</ele>
        <time>2021-08-19T09:26:02Z</time>
      </trkpt>
      <trkpt lat="45.4070600" lon="6.3457930">
        <ele>1354.8</ele>
        <time>2021-08-19T09:26:03Z</time>
      </trkpt>
      <trkpt lat="45.4071230" lon="6.3457700">
        <ele>1355.0</ele>
        <time>2021-08-19T09:26:05Z</time>
      </trkpt>
      <trkpt lat="45.4071590" lon="6.3457610">
        <ele>1355.2</ele>
        <time>2021-08-19T09:26:06Z</time>
      </trkpt>
      <trkpt lat="45.4071930" lon="6.3457540">
        <ele>1355.4</ele>
        <time>2021-08-19T09:26:07Z</time>
      </trkpt>
      <trkpt lat="45.4072660" lon="6.3457560">
        <ele>1355.6</ele>
        <time>2021-08-19T09:26:09Z</time>
      </trkpt>
      <trkpt lat="45.4073380" lon="6.3457590">
        <ele>1355.6</ele>
        <time>2021-08-19T09:26:11Z</time>
      </trkpt>
      <trkpt lat="45.4074580" lon="6.3457590">
        <ele>1355.6</ele>
        <time>2021-08-19T09:26:14Z</time>
      </trkpt>
      <trkpt lat="45.4075530" lon="6.3457540">
        <ele>1355.8</ele>
        <time>2021-08-19T09:26:16Z</time>
      </trkpt>
      <trkpt lat="45.4075900" lon="6.3457510">
        <ele>1356.0</ele>
        <time>2021-08-19T09:26:17Z</time>
      </trkpt>
      <trkpt lat="45.4076950" lon="6.3457390">
        <ele>1356.0</ele>
        <time>2021-08-19T09:26:19Z</time>
      </trkpt>
      <trkpt lat="45.4077330" lon="6.3457320">
        <ele>1356.2</ele>
        <time>2021-08-19T09:26:20Z</time>
      </trkpt>
      <trkpt lat="45.4077820" lon="6.3457280">
        <ele>1356.2</ele>
        <time>2021-08-19T09:26:21Z</time>
      </trkpt>
      <trkpt lat="45.4078330" lon="6.3457210">
        <ele>1356.2</ele>
        <time>2021-08-19T09:26:22Z</time>
      </trkpt>
      <trkpt lat="45.4079320" lon="6.3457090">
        <ele>1356.2</ele>
        <time>2021-08-19T09:26:24Z</time>
      </trkpt>
      <trkpt lat="45.4079840" lon="6.3457130">
        <ele>1356.2</ele>
        <time>2021-08-19T09:26:25Z</time>
      </trkpt>
      <trkpt lat="45.4080370" lon="6.3457230">
        <ele>1356.2</ele>
        <time>2021-08-19T09:26:26Z</time>
      </trkpt>
      <trkpt lat="45.4080890" lon="6.3457370">
        <ele>1356.2</ele>
        <time>2021-08-19T09:26:27Z</time>
      </trkpt>
      <trkpt lat="45.4081410" lon="6.3457540">
        <ele>1356.2</ele>
        <time>2021-08-19T09:26:28Z</time>
      </trkpt>
      <trkpt lat="45.4081910" lon="6.3457750">
        <ele>1356.2</ele>
        <time>2021-08-19T09:26:29Z</time>
      </trkpt>
      <trkpt lat="45.4082410" lon="6.3457980">
        <ele>1356.4</ele>
        <time>2021-08-19T09:26:30Z</time>
      </trkpt>
      <trkpt lat="45.4082920" lon="6.3458270">
        <ele>1356.4</ele>
        <time>2021-08-19T09:26:31Z</time>
      </trkpt>
      <trkpt lat="45.4083900" lon="6.3458930">
        <ele>1356.6</ele>
        <time>2021-08-19T09:26:33Z</time>
      </trkpt>
      <trkpt lat="45.4086940" lon="6.3461130">
        <ele>1356.8</ele>
        <time>2021-08-19T09:26:39Z</time>
      </trkpt>
      <trkpt lat="45.4087430" lon="6.3461490">
        <ele>1356.8</ele>
        <time>2021-08-19T09:26:40Z</time>
      </trkpt>
      <trkpt lat="45.4087800" lon="6.3461760">
        <ele>1357.0</ele>
        <time>2021-08-19T09:26:41Z</time>
      </trkpt>
      <trkpt lat="45.4089050" lon="6.3462620">
        <ele>1357.2</ele>
        <time>2021-08-19T09:26:44Z</time>
      </trkpt>
      <trkpt lat="45.4089440" lon="6.3462850">
        <ele>1357.4</ele>
        <time>2021-08-19T09:26:45Z</time>
      </trkpt>
      <trkpt lat="45.4089810" lon="6.3463100">
        <ele>1357.6</ele>
        <time>2021-08-19T09:26:46Z</time>
      </trkpt>
      <trkpt lat="45.4090590" lon="6.3463650">
        <ele>1357.8</ele>
        <time>2021-08-19T09:26:48Z</time>
      </trkpt>
      <trkpt lat="45.4090830" lon="6.3463840">
        <ele>1358.2</ele>
        <time>2021-08-19T09:26:49Z</time>
      </trkpt>
      <trkpt lat="45.4091710" lon="6.3464350">
        <ele>1358.8</ele>
        <time>2021-08-19T09:26:52Z</time>
      </trkpt>
      <trkpt lat="45.4091980" lon="6.3464580">
        <ele>1359.4</ele>
        <time>2021-08-19T09:26:53Z</time>
      </trkpt>
      <trkpt lat="45.4093080" lon="6.3465320">
        <ele>1360.4</ele>
        <time>2021-08-19T09:26:57Z</time>
      </trkpt>
      <trkpt lat="45.4093340" lon="6.3465500">
        <ele>1360.8</ele>
        <time>2021-08-19T09:26:58Z</time>
      </trkpt>
      <trkpt lat="45.4094280" lon="6.3466310">
        <ele>1361.6</ele>
        <time>2021-08-19T09:27:02Z</time>
      </trkpt>
      <trkpt lat="45.4094920" lon="6.3466910">
        <ele>1362.2</ele>
        <time>2021-08-19T09:27:05Z</time>
      </trkpt>
      <trkpt lat="45.4095300" lon="6.3467330">
        <ele>1362.6</ele>
        <time>2021-08-19T09:27:07Z</time>
      </trkpt>
      <trkpt lat="45.4095500" lon="6.3467570">
        <ele>1363.0</ele>
        <time>2021-08-19T09:27:08Z</time>
      </trkpt>
      <trkpt lat="45.4096170" lon="6.3468460">
        <ele>1363.8</ele>
        <time>2021-08-19T09:27:12Z</time>
      </trkpt>
      <trkpt lat="45.4096460" lon="6.3468980">
        <ele>1364.4</ele>
        <time>2021-08-19T09:27:14Z</time>
      </trkpt>
      <trkpt lat="45.4096770" lon="6.3469470">
        <ele>1364.6</ele>
        <time>2021-08-19T09:27:16Z</time>
      </trkpt>
      <trkpt lat="45.4096940" lon="6.3469720">
        <ele>1364.8</ele>
        <time>2021-08-19T09:27:17Z</time>
      </trkpt>
      <trkpt lat="45.4097250" lon="6.3470240">
        <ele>1365.2</ele>
        <time>2021-08-19T09:27:19Z</time>
      </trkpt>
      <trkpt lat="45.4097770" lon="6.3471030">
        <ele>1365.8</ele>
        <time>2021-08-19T09:27:22Z</time>
      </trkpt>
      <trkpt lat="45.4097990" lon="6.3471290">
        <ele>1366.0</ele>
        <time>2021-08-19T09:27:23Z</time>
      </trkpt>
      <trkpt lat="45.4098650" lon="6.3471730">
        <ele>1366.8</ele>
        <time>2021-08-19T09:27:26Z</time>
      </trkpt>
      <trkpt lat="45.4098890" lon="6.3471850">
        <ele>1366.8</ele>
        <time>2021-08-19T09:27:27Z</time>
      </trkpt>
      <trkpt lat="45.4099120" lon="6.3471930">
        <ele>1367.0</ele>
        <time>2021-08-19T09:27:28Z</time>
      </trkpt>
      <trkpt lat="45.4099400" lon="6.3472010">
        <ele>1367.2</ele>
        <time>2021-08-19T09:27:29Z</time>
      </trkpt>
      <trkpt lat="45.4099720" lon="6.3472060">
        <ele>1367.4</ele>
        <time>2021-08-19T09:27:30Z</time>
      </trkpt>
      <trkpt lat="45.4099940" lon="6.3472070">
        <ele>1367.6</ele>
        <time>2021-08-19T09:27:31Z</time>
      </trkpt>
      <trkpt lat="45.4100180" lon="6.3472070">
        <ele>1367.8</ele>
        <time>2021-08-19T09:27:32Z</time>
      </trkpt>
      <trkpt lat="45.4100420" lon="6.3472030">
        <ele>1367.8</ele>
        <time>2021-08-19T09:27:33Z</time>
      </trkpt>
      <trkpt lat="45.4101420" lon="6.3471690">
        <ele>1368.2</ele>
        <time>2021-08-19T09:27:37Z</time>
      </trkpt>
      <trkpt lat="45.4101830" lon="6.3471490">
        <ele>1369.0</ele>
        <time>2021-08-19T09:27:39Z</time>
      </trkpt>
      <trkpt lat="45.4102250" lon="6.3471260">
        <ele>1369.4</ele>
        <time>2021-08-19T09:27:41Z</time>
      </trkpt>
      <trkpt lat="45.4102660" lon="6.3470970">
        <ele>1369.8</ele>
        <time>2021-08-19T09:27:43Z</time>
      </trkpt>
      <trkpt lat="45.4102860" lon="6.3470870">
        <ele>1370.0</ele>
        <time>2021-08-19T09:27:44Z</time>
      </trkpt>
      <trkpt lat="45.4103090" lon="6.3470800">
        <ele>1370.2</ele>
        <time>2021-08-19T09:27:45Z</time>
      </trkpt>
      <trkpt lat="45.4104230" lon="6.3470630">
        <ele>1371.0</ele>
        <time>2021-08-19T09:27:50Z</time>
      </trkpt>
      <trkpt lat="45.4104830" lon="6.3470890">
        <ele>1371.8</ele>
        <time>2021-08-19T09:27:53Z</time>
      </trkpt>
      <trkpt lat="45.4105030" lon="6.3471030">
        <ele>1372.0</ele>
        <time>2021-08-19T09:27:54Z</time>
      </trkpt>
      <trkpt lat="45.4105640" lon="6.3471500">
        <ele>1372.8</ele>
        <time>2021-08-19T09:27:57Z</time>
      </trkpt>
      <trkpt lat="45.4105860" lon="6.3471700">
        <ele>1373.2</ele>
        <time>2021-08-19T09:27:58Z</time>
      </trkpt>
      <trkpt lat="45.4106630" lon="6.3472560">
        <ele>1374.0</ele>
        <time>2021-08-19T09:28:02Z</time>
      </trkpt>
      <trkpt lat="45.4106910" lon="6.3473160">
        <ele>1374.2</ele>
        <time>2021-08-19T09:28:04Z</time>
      </trkpt>
      <trkpt lat="45.4107260" lon="6.3474110">
        <ele>1374.6</ele>
        <time>2021-08-19T09:28:07Z</time>
      </trkpt>
      <trkpt lat="45.4107420" lon="6.3474860">
        <ele>1375.0</ele>
        <time>2021-08-19T09:28:09Z</time>
      </trkpt>
      <trkpt lat="45.4107460" lon="6.3475840">
        <ele>1375.2</ele>
        <time>2021-08-19T09:28:12Z</time>
      </trkpt>
      <trkpt lat="45.4107570" lon="6.3477540">
        <ele>1376.4</ele>
        <time>2021-08-19T09:28:17Z</time>
      </trkpt>
      <trkpt lat="45.4107640" lon="6.3477860">
        <ele>1376.4</ele>
        <time>2021-08-19T09:28:18Z</time>
      </trkpt>
      <trkpt lat="45.4108170" lon="6.3479350">
        <ele>1377.6</ele>
        <time>2021-08-19T09:28:23Z</time>
      </trkpt>
      <trkpt lat="45.4108320" lon="6.3479590">
        <ele>1377.6</ele>
        <time>2021-08-19T09:28:24Z</time>
      </trkpt>
      <trkpt lat="45.4108490" lon="6.3479830">
        <ele>1377.8</ele>
        <time>2021-08-19T09:28:25Z</time>
      </trkpt>
      <trkpt lat="45.4108860" lon="6.3480300">
        <ele>1378.2</ele>
        <time>2021-08-19T09:28:27Z</time>
      </trkpt>
      <trkpt lat="45.4109030" lon="6.3480520">
        <ele>1378.6</ele>
        <time>2021-08-19T09:28:28Z</time>
      </trkpt>
      <trkpt lat="45.4110270" lon="6.3481610">
        <ele>1379.6</ele>
        <time>2021-08-19T09:28:34Z</time>
      </trkpt>
      <trkpt lat="45.4110510" lon="6.3481810">
        <ele>1379.8</ele>
        <time>2021-08-19T09:28:35Z</time>
      </trkpt>
      <trkpt lat="45.4111140" lon="6.3482310">
        <ele>1380.6</ele>
        <time>2021-08-19T09:28:38Z</time>
      </trkpt>
      <trkpt lat="45.4111360" lon="6.3482480">
        <ele>1380.8</ele>
        <time>2021-08-19T09:28:39Z</time>
      </trkpt>
      <trkpt lat="45.4112440" lon="6.3483210">
        <ele>1381.4</ele>
        <time>2021-08-19T09:28:44Z</time>
      </trkpt>
      <trkpt lat="45.4112700" lon="6.3483410">
        <ele>1382.0</ele>
        <time>2021-08-19T09:28:45Z</time>
      </trkpt>
      <trkpt lat="45.4113330" lon="6.3483830">
        <ele>1382.8</ele>
        <time>2021-08-19T09:28:48Z</time>
      </trkpt>
      <trkpt lat="45.4113590" lon="6.3483990">
        <ele>1383.0</ele>
        <time>2021-08-19T09:28:49Z</time>
      </trkpt>
      <trkpt lat="45.4114340" lon="6.3484550">
        <ele>1383.6</ele>
        <time>2021-08-19T09:28:53Z</time>
      </trkpt>
      <trkpt lat="45.4114580" lon="6.3484700">
        <ele>1383.8</ele>
        <time>2021-08-19T09:28:54Z</time>
      </trkpt>
      <trkpt lat="45.4114730" lon="6.3484820">
        <ele>1384.4</ele>
        <time>2021-08-19T09:28:55Z</time>
      </trkpt>
      <trkpt lat="45.4115080" lon="6.3485120">
        <ele>1384.8</ele>
        <time>2021-08-19T09:28:57Z</time>
      </trkpt>
      <trkpt lat="45.4115270" lon="6.3485260">
        <ele>1385.0</ele>
        <time>2021-08-19T09:28:58Z</time>
      </trkpt>
      <trkpt lat="45.4115470" lon="6.3485420">
        <ele>1385.2</ele>
        <time>2021-08-19T09:28:59Z</time>
      </trkpt>
      <trkpt lat="45.4115650" lon="6.3485540">
        <ele>1385.6</ele>
        <time>2021-08-19T09:29:00Z</time>
      </trkpt>
      <trkpt lat="45.4116220" lon="6.3485920">
        <ele>1386.0</ele>
        <time>2021-08-19T09:29:03Z</time>
      </trkpt>
      <trkpt lat="45.4116420" lon="6.3486040">
        <ele>1386.2</ele>
        <time>2021-08-19T09:29:04Z</time>
      </trkpt>
      <trkpt lat="45.4116760" lon="6.3486270">
        <ele>1386.4</ele>
        <time>2021-08-19T09:29:06Z</time>
      </trkpt>
      <trkpt lat="45.4117340" lon="6.3486590">
        <ele>1387.2</ele>
        <time>2021-08-19T09:29:09Z</time>
      </trkpt>
      <trkpt lat="45.4117520" lon="6.3486710">
        <ele>1387.6</ele>
        <time>2021-08-19T09:29:10Z</time>
      </trkpt>
      <trkpt lat="45.4117720" lon="6.3486850">
        <ele>1387.6</ele>
        <time>2021-08-19T09:29:11Z</time>
      </trkpt>
      <trkpt lat="45.4118490" lon="6.3487420">
        <ele>1388.4</ele>
        <time>2021-08-19T09:29:15Z</time>
      </trkpt>
      <trkpt lat="45.4118830" lon="6.3487650">
        <ele>1388.8</ele>
        <time>2021-08-19T09:29:17Z</time>
      </trkpt>
      <trkpt lat="45.4119290" lon="6.3488010">
        <ele>1389.2</ele>
        <time>2021-08-19T09:29:20Z</time>
      </trkpt>
      <trkpt lat="45.4119490" lon="6.3488120">
        <ele>1389.4</ele>
        <time>2021-08-19T09:29:21Z</time>
      </trkpt>
      <trkpt lat="45.4119900" lon="6.3488340">
        <ele>1390.0</ele>
        <time>2021-08-19T09:29:23Z</time>
      </trkpt>
      <trkpt lat="45.4120560" lon="6.3488690">
        <ele>1390.8</ele>
        <time>2021-08-19T09:29:26Z</time>
      </trkpt>
      <trkpt lat="45.4120750" lon="6.3488760">
        <ele>1391.0</ele>
        <time>2021-08-19T09:29:27Z</time>
      </trkpt>
      <trkpt lat="45.4121210" lon="6.3488950">
        <ele>1391.4</ele>
        <time>2021-08-19T09:29:30Z</time>
      </trkpt>
      <trkpt lat="45.4121680" lon="6.3489160">
        <ele>1392.0</ele>
        <time>2021-08-19T09:29:33Z</time>
      </trkpt>
      <trkpt lat="45.4122280" lon="6.3489440">
        <ele>1392.8</ele>
        <time>2021-08-19T09:29:37Z</time>
      </trkpt>
      <trkpt lat="45.4122440" lon="6.3489530">
        <ele>1393.2</ele>
        <time>2021-08-19T09:29:38Z</time>
      </trkpt>
      <trkpt lat="45.4123620" lon="6.3490490">
        <ele>1394.2</ele>
        <time>2021-08-19T09:29:44Z</time>
      </trkpt>
      <trkpt lat="45.4123950" lon="6.3490920">
        <ele>1394.6</ele>
        <time>2021-08-19T09:29:46Z</time>
      </trkpt>
      <trkpt lat="45.4124090" lon="6.3491180">
        <ele>1395.0</ele>
        <time>2021-08-19T09:29:47Z</time>
      </trkpt>
      <trkpt lat="45.4124210" lon="6.3491430">
        <ele>1395.2</ele>
        <time>2021-08-19T09:29:48Z</time>
      </trkpt>
      <trkpt lat="45.4124310" lon="6.3491700">
        <ele>1395.6</ele>
        <time>2021-08-19T09:29:49Z</time>
      </trkpt>
      <trkpt lat="45.4124540" lon="6.3492260">
        <ele>1395.8</ele>
        <time>2021-08-19T09:29:51Z</time>
      </trkpt>
      <trkpt lat="45.4124740" lon="6.3492850">
        <ele>1396.2</ele>
        <time>2021-08-19T09:29:53Z</time>
      </trkpt>
      <trkpt lat="45.4124880" lon="6.3493380">
        <ele>1396.6</ele>
        <time>2021-08-19T09:29:55Z</time>
      </trkpt>
      <trkpt lat="45.4125060" lon="6.3494290">
        <ele>1396.8</ele>
        <time>2021-08-19T09:29:58Z</time>
      </trkpt>
      <trkpt lat="45.4125270" lon="6.3495090">
        <ele>1397.4</ele>
        <time>2021-08-19T09:30:01Z</time>
      </trkpt>
      <trkpt lat="45.4125840" lon="6.3496020">
        <ele>1398.4</ele>
        <time>2021-08-19T09:30:05Z</time>
      </trkpt>
      <trkpt lat="45.4126020" lon="6.3496230">
        <ele>1398.6</ele>
        <time>2021-08-19T09:30:06Z</time>
      </trkpt>
      <trkpt lat="45.4126220" lon="6.3496460">
        <ele>1398.8</ele>
        <time>2021-08-19T09:30:07Z</time>
      </trkpt>
      <trkpt lat="45.4126440" lon="6.3496630">
        <ele>1399.0</ele>
        <time>2021-08-19T09:30:08Z</time>
      </trkpt>
      <trkpt lat="45.4126640" lon="6.3496780">
        <ele>1399.0</ele>
        <time>2021-08-19T09:30:09Z</time>
      </trkpt>
      <trkpt lat="45.4127140" lon="6.3497050">
        <ele>1399.8</ele>
        <time>2021-08-19T09:30:12Z</time>
      </trkpt>
      <trkpt lat="45.4127490" lon="6.3497190">
        <ele>1400.4</ele>
        <time>2021-08-19T09:30:14Z</time>
      </trkpt>
      <trkpt lat="45.4127980" lon="6.3497460">
        <ele>1401.0</ele>
        <time>2021-08-19T09:30:17Z</time>
      </trkpt>
      <trkpt lat="45.4128270" lon="6.3497660">
        <ele>1401.4</ele>
        <time>2021-08-19T09:30:19Z</time>
      </trkpt>
      <trkpt lat="45.4128950" lon="6.3498160">
        <ele>1402.2</ele>
        <time>2021-08-19T09:30:23Z</time>
      </trkpt>
      <trkpt lat="45.4129550" lon="6.3498540">
        <ele>1402.8</ele>
        <time>2021-08-19T09:30:27Z</time>
      </trkpt>
      <trkpt lat="45.4129860" lon="6.3498790">
        <ele>1403.4</ele>
        <time>2021-08-19T09:30:29Z</time>
      </trkpt>
      <trkpt lat="45.4130850" lon="6.3499520">
        <ele>1404.4</ele>
        <time>2021-08-19T09:30:34Z</time>
      </trkpt>
      <trkpt lat="45.4131090" lon="6.3499700">
        <ele>1404.6</ele>
        <time>2021-08-19T09:30:35Z</time>
      </trkpt>
      <trkpt lat="45.4131250" lon="6.3499860">
        <ele>1404.8</ele>
        <time>2021-08-19T09:30:36Z</time>
      </trkpt>
      <trkpt lat="45.4131710" lon="6.3500510">
        <ele>1405.2</ele>
        <time>2021-08-19T09:30:39Z</time>
      </trkpt>
      <trkpt lat="45.4131800" lon="6.3500650">
        <ele>1405.6</ele>
        <time>2021-08-19T09:30:40Z</time>
      </trkpt>
      <trkpt lat="45.4132820" lon="6.3501830">
        <ele>1406.4</ele>
        <time>2021-08-19T09:30:45Z</time>
      </trkpt>
      <trkpt lat="45.4133000" lon="6.3502110">
        <ele>1406.6</ele>
        <time>2021-08-19T09:30:46Z</time>
      </trkpt>
      <trkpt lat="45.4133360" lon="6.3502670">
        <ele>1406.8</ele>
        <time>2021-08-19T09:30:48Z</time>
      </trkpt>
      <trkpt lat="45.4133440" lon="6.3503280">
        <ele>1407.2</ele>
        <time>2021-08-19T09:30:50Z</time>
      </trkpt>
      <trkpt lat="45.4133640" lon="6.3503870">
        <ele>1407.8</ele>
        <time>2021-08-19T09:30:52Z</time>
      </trkpt>
      <trkpt lat="45.4133790" lon="6.3504660">
        <ele>1408.4</ele>
        <time>2021-08-19T09:30:55Z</time>
      </trkpt>
      <trkpt lat="45.4133980" lon="6.3505450">
        <ele>1408.8</ele>
        <time>2021-08-19T09:30:58Z</time>
      </trkpt>
      <trkpt lat="45.4134250" lon="6.3506870">
        <ele>1409.8</ele>
        <time>2021-08-19T09:31:03Z</time>
      </trkpt>
      <trkpt lat="45.4134360" lon="6.3507440">
        <ele>1410.2</ele>
        <time>2021-08-19T09:31:05Z</time>
      </trkpt>
      <trkpt lat="45.4134610" lon="6.3508520">
        <ele>1411.0</ele>
        <time>2021-08-19T09:31:09Z</time>
      </trkpt>
      <trkpt lat="45.4134880" lon="6.3509890">
        <ele>1411.8</ele>
        <time>2021-08-19T09:31:14Z</time>
      </trkpt>
      <trkpt lat="45.4134900" lon="6.3510190">
        <ele>1411.8</ele>
        <time>2021-08-19T09:31:15Z</time>
      </trkpt>
      <trkpt lat="45.4135030" lon="6.3511430">
        <ele>1412.8</ele>
        <time>2021-08-19T09:31:19Z</time>
      </trkpt>
      <trkpt lat="45.4135070" lon="6.3512080">
        <ele>1413.4</ele>
        <time>2021-08-19T09:31:21Z</time>
      </trkpt>
      <trkpt lat="45.4135250" lon="6.3512930">
        <ele>1413.8</ele>
        <time>2021-08-19T09:31:24Z</time>
      </trkpt>
      <trkpt lat="45.4135300" lon="6.3513220">
        <ele>1414.2</ele>
        <time>2021-08-19T09:31:25Z</time>
      </trkpt>
      <trkpt lat="45.4135590" lon="6.3514470">
        <ele>1415.2</ele>
        <time>2021-08-19T09:31:29Z</time>
      </trkpt>
      <trkpt lat="45.4135990" lon="6.3516010">
        <ele>1416.2</ele>
        <time>2021-08-19T09:31:34Z</time>
      </trkpt>
      <trkpt lat="45.4136080" lon="6.3516300">
        <ele>1416.6</ele>
        <time>2021-08-19T09:31:35Z</time>
      </trkpt>
      <trkpt lat="45.4136250" lon="6.3516910">
        <ele>1417.0</ele>
        <time>2021-08-19T09:31:37Z</time>
      </trkpt>
      <trkpt lat="45.4136520" lon="6.3517820">
        <ele>1417.8</ele>
        <time>2021-08-19T09:31:40Z</time>
      </trkpt>
      <trkpt lat="45.4136950" lon="6.3519240">
        <ele>1418.6</ele>
        <time>2021-08-19T09:31:45Z</time>
      </trkpt>
      <trkpt lat="45.4137270" lon="6.3520050">
        <ele>1419.2</ele>
        <time>2021-08-19T09:31:48Z</time>
      </trkpt>
      <trkpt lat="45.4137500" lon="6.3520630">
        <ele>1419.6</ele>
        <time>2021-08-19T09:31:50Z</time>
      </trkpt>
      <trkpt lat="45.4137630" lon="6.3520910">
        <ele>1419.6</ele>
        <time>2021-08-19T09:31:51Z</time>
      </trkpt>
      <trkpt lat="45.4138350" lon="6.3521990">
        <ele>1420.8</ele>
        <time>2021-08-19T09:31:56Z</time>
      </trkpt>
      <trkpt lat="45.4139400" lon="6.3522620">
        <ele>1421.4</ele>
        <time>2021-08-19T09:32:01Z</time>
      </trkpt>
      <trkpt lat="45.4139600" lon="6.3522680">
        <ele>1421.6</ele>
        <time>2021-08-19T09:32:02Z</time>
      </trkpt>
      <trkpt lat="45.4140620" lon="6.3522840">
        <ele>1422.8</ele>
        <time>2021-08-19T09:32:07Z</time>
      </trkpt>
      <trkpt lat="45.4141090" lon="6.3523110">
        <ele>1423.4</ele>
        <time>2021-08-19T09:32:10Z</time>
      </trkpt>
      <trkpt lat="45.4140960" lon="6.3524240">
        <ele>1424.0</ele>
        <time>2021-08-19T09:32:14Z</time>
      </trkpt>
      <trkpt lat="45.4140830" lon="6.3524530">
        <ele>1424.4</ele>
        <time>2021-08-19T09:32:15Z</time>
      </trkpt>
      <trkpt lat="45.4140310" lon="6.3525280">
        <ele>1425.2</ele>
        <time>2021-08-19T09:32:18Z</time>
      </trkpt>
      <trkpt lat="45.4139550" lon="6.3525580">
        <ele>1425.6</ele>
        <time>2021-08-19T09:32:21Z</time>
      </trkpt>
      <trkpt lat="45.4138500" lon="6.3525210">
        <ele>1426.2</ele>
        <time>2021-08-19T09:32:25Z</time>
      </trkpt>
      <trkpt lat="45.4137990" lon="6.3524830">
        <ele>1426.4</ele>
        <time>2021-08-19T09:32:27Z</time>
      </trkpt>
      <trkpt lat="45.4137040" lon="6.3523850">
        <ele>1427.0</ele>
        <time>2021-08-19T09:32:31Z</time>
      </trkpt>
      <trkpt lat="45.4136800" lon="6.3523590">
        <ele>1427.2</ele>
        <time>2021-08-19T09:32:32Z</time>
      </trkpt>
      <trkpt lat="45.4136560" lon="6.3523370">
        <ele>1427.2</ele>
        <time>2021-08-19T09:32:33Z</time>
      </trkpt>
      <trkpt lat="45.4136330" lon="6.3523150">
        <ele>1427.4</ele>
        <time>2021-08-19T09:32:34Z</time>
      </trkpt>
      <trkpt lat="45.4136090" lon="6.3522900">
        <ele>1427.6</ele>
        <time>2021-08-19T09:32:35Z</time>
      </trkpt>
      <trkpt lat="45.4135880" lon="6.3522650">
        <ele>1427.8</ele>
        <time>2021-08-19T09:32:36Z</time>
      </trkpt>
      <trkpt lat="45.4135530" lon="6.3522130">
        <ele>1427.8</ele>
        <time>2021-08-19T09:32:38Z</time>
      </trkpt>
      <trkpt lat="45.4135340" lon="6.3521880">
        <ele>1428.0</ele>
        <time>2021-08-19T09:32:39Z</time>
      </trkpt>
      <trkpt lat="45.4134610" lon="6.3520740">
        <ele>1429.2</ele>
        <time>2021-08-19T09:32:43Z</time>
      </trkpt>
      <trkpt lat="45.4134430" lon="6.3520440">
        <ele>1429.6</ele>
        <time>2021-08-19T09:32:44Z</time>
      </trkpt>
      <trkpt lat="45.4134270" lon="6.3520130">
        <ele>1429.8</ele>
        <time>2021-08-19T09:32:45Z</time>
      </trkpt>
      <trkpt lat="45.4134110" lon="6.3519820">
        <ele>1430.0</ele>
        <time>2021-08-19T09:32:46Z</time>
      </trkpt>
      <trkpt lat="45.4133890" lon="6.3519510">
        <ele>1430.2</ele>
        <time>2021-08-19T09:32:47Z</time>
      </trkpt>
      <trkpt lat="45.4133710" lon="6.3519190">
        <ele>1430.2</ele>
        <time>2021-08-19T09:32:48Z</time>
      </trkpt>
      <trkpt lat="45.4133560" lon="6.3518840">
        <ele>1430.4</ele>
        <time>2021-08-19T09:32:49Z</time>
      </trkpt>
      <trkpt lat="45.4133310" lon="6.3518220">
        <ele>1430.8</ele>
        <time>2021-08-19T09:32:51Z</time>
      </trkpt>
      <trkpt lat="45.4132920" lon="6.3517320">
        <ele>1431.6</ele>
        <time>2021-08-19T09:32:54Z</time>
      </trkpt>
      <trkpt lat="45.4132510" lon="6.3516380">
        <ele>1432.0</ele>
        <time>2021-08-19T09:32:57Z</time>
      </trkpt>
      <trkpt lat="45.4132160" lon="6.3515510">
        <ele>1432.4</ele>
        <time>2021-08-19T09:33:00Z</time>
      </trkpt>
      <trkpt lat="45.4131710" lon="6.3514600">
        <ele>1432.8</ele>
        <time>2021-08-19T09:33:03Z</time>
      </trkpt>
      <trkpt lat="45.4130950" lon="6.3513080">
        <ele>1433.4</ele>
        <time>2021-08-19T09:33:07Z</time>
      </trkpt>
      <trkpt lat="45.4130630" lon="6.3512320">
        <ele>1433.6</ele>
        <time>2021-08-19T09:33:09Z</time>
      </trkpt>
      <trkpt lat="45.4129520" lon="6.3510660">
        <ele>1434.4</ele>
        <time>2021-08-19T09:33:14Z</time>
      </trkpt>
      <trkpt lat="45.4129260" lon="6.3510450">
        <ele>1434.6</ele>
        <time>2021-08-19T09:33:15Z</time>
      </trkpt>
      <trkpt lat="45.4128650" lon="6.3510230">
        <ele>1435.0</ele>
        <time>2021-08-19T09:33:17Z</time>
      </trkpt>
      <trkpt lat="45.4128020" lon="6.3510160">
        <ele>1435.4</ele>
        <time>2021-08-19T09:33:19Z</time>
      </trkpt>
      <trkpt lat="45.4127740" lon="6.3510290">
        <ele>1435.6</ele>
        <time>2021-08-19T09:33:20Z</time>
      </trkpt>
      <trkpt lat="45.4127470" lon="6.3510510">
        <ele>1435.6</ele>
        <time>2021-08-19T09:33:21Z</time>
      </trkpt>
      <trkpt lat="45.4127270" lon="6.3510800">
        <ele>1435.8</ele>
        <time>2021-08-19T09:33:22Z</time>
      </trkpt>
      <trkpt lat="45.4127120" lon="6.3511140">
        <ele>1436.0</ele>
        <time>2021-08-19T09:33:23Z</time>
      </trkpt>
      <trkpt lat="45.4126990" lon="6.3511480">
        <ele>1436.2</ele>
        <time>2021-08-19T09:33:24Z</time>
      </trkpt>
      <trkpt lat="45.4126920" lon="6.3511830">
        <ele>1436.2</ele>
        <time>2021-08-19T09:33:25Z</time>
      </trkpt>
      <trkpt lat="45.4127090" lon="6.3512890">
        <ele>1436.6</ele>
        <time>2021-08-19T09:33:28Z</time>
      </trkpt>
      <trkpt lat="45.4127430" lon="6.3513560">
        <ele>1437.0</ele>
        <time>2021-08-19T09:33:30Z</time>
      </trkpt>
      <trkpt lat="45.4128240" lon="6.3514600">
        <ele>1438.2</ele>
        <time>2021-08-19T09:33:34Z</time>
      </trkpt>
      <trkpt lat="45.4128410" lon="6.3514870">
        <ele>1438.4</ele>
        <time>2021-08-19T09:33:35Z</time>
      </trkpt>
      <trkpt lat="45.4128570" lon="6.3515120">
        <ele>1438.6</ele>
        <time>2021-08-19T09:33:36Z</time>
      </trkpt>
      <trkpt lat="45.4128710" lon="6.3515390">
        <ele>1438.8</ele>
        <time>2021-08-19T09:33:37Z</time>
      </trkpt>
      <trkpt lat="45.4128840" lon="6.3515670">
        <ele>1439.0</ele>
        <time>2021-08-19T09:33:38Z</time>
      </trkpt>
      <trkpt lat="45.4128980" lon="6.3515940">
        <ele>1439.2</ele>
        <time>2021-08-19T09:33:39Z</time>
      </trkpt>
      <trkpt lat="45.4129460" lon="6.3517010">
        <ele>1440.4</ele>
        <time>2021-08-19T09:33:43Z</time>
      </trkpt>
      <trkpt lat="45.4129570" lon="6.3517290">
        <ele>1440.6</ele>
        <time>2021-08-19T09:33:44Z</time>
      </trkpt>
      <trkpt lat="45.4129660" lon="6.3517560">
        <ele>1440.8</ele>
        <time>2021-08-19T09:33:45Z</time>
      </trkpt>
      <trkpt lat="45.4129760" lon="6.3517840">
        <ele>1440.8</ele>
        <time>2021-08-19T09:33:46Z</time>
      </trkpt>
      <trkpt lat="45.4129860" lon="6.3518120">
        <ele>1441.2</ele>
        <time>2021-08-19T09:33:47Z</time>
      </trkpt>
      <trkpt lat="45.4129950" lon="6.3518400">
        <ele>1441.6</ele>
        <time>2021-08-19T09:33:48Z</time>
      </trkpt>
      <trkpt lat="45.4130280" lon="6.3519650">
        <ele>1442.6</ele>
        <time>2021-08-19T09:33:52Z</time>
      </trkpt>
      <trkpt lat="45.4130460" lon="6.3520250">
        <ele>1443.0</ele>
        <time>2021-08-19T09:33:54Z</time>
      </trkpt>
      <trkpt lat="45.4130850" lon="6.3521480">
        <ele>1443.8</ele>
        <time>2021-08-19T09:33:58Z</time>
      </trkpt>
      <trkpt lat="45.4131110" lon="6.3522370">
        <ele>1444.2</ele>
        <time>2021-08-19T09:34:01Z</time>
      </trkpt>
      <trkpt lat="45.4131290" lon="6.3522980">
        <ele>1444.8</ele>
        <time>2021-08-19T09:34:03Z</time>
      </trkpt>
      <trkpt lat="45.4131810" lon="6.3524490">
        <ele>1445.8</ele>
        <time>2021-08-19T09:34:08Z</time>
      </trkpt>
      <trkpt lat="45.4131900" lon="6.3524800">
        <ele>1446.0</ele>
        <time>2021-08-19T09:34:09Z</time>
      </trkpt>
      <trkpt lat="45.4132450" lon="6.3526540">
        <ele>1447.0</ele>
        <time>2021-08-19T09:34:15Z</time>
      </trkpt>
      <trkpt lat="45.4132800" lon="6.3527700">
        <ele>1448.2</ele>
        <time>2021-08-19T09:34:19Z</time>
      </trkpt>
      <trkpt lat="45.4133250" lon="6.3529430">
        <ele>1449.4</ele>
        <time>2021-08-19T09:34:25Z</time>
      </trkpt>
      <trkpt lat="45.4133370" lon="6.3529710">
        <ele>1449.4</ele>
        <time>2021-08-19T09:34:26Z</time>
      </trkpt>
      <trkpt lat="45.4133770" lon="6.3531550">
        <ele>1450.4</ele>
        <time>2021-08-19T09:34:32Z</time>
      </trkpt>
      <trkpt lat="45.4133840" lon="6.3531830">
        <ele>1450.6</ele>
        <time>2021-08-19T09:34:33Z</time>
      </trkpt>
      <trkpt lat="45.4134110" lon="6.3533010">
        <ele>1451.6</ele>
        <time>2021-08-19T09:34:37Z</time>
      </trkpt>
      <trkpt lat="45.4134440" lon="6.3534220">
        <ele>1452.0</ele>
        <time>2021-08-19T09:34:41Z</time>
      </trkpt>
      <trkpt lat="45.4134930" lon="6.3535360">
        <ele>1453.0</ele>
        <time>2021-08-19T09:34:45Z</time>
      </trkpt>
      <trkpt lat="45.4135500" lon="6.3536380">
        <ele>1454.0</ele>
        <time>2021-08-19T09:34:49Z</time>
      </trkpt>
      <trkpt lat="45.4135810" lon="6.3536880">
        <ele>1454.4</ele>
        <time>2021-08-19T09:34:51Z</time>
      </trkpt>
      <trkpt lat="45.4136330" lon="6.3537930">
        <ele>1455.0</ele>
        <time>2021-08-19T09:34:55Z</time>
      </trkpt>
      <trkpt lat="45.4136890" lon="6.3538990">
        <ele>1455.8</ele>
        <time>2021-08-19T09:34:59Z</time>
      </trkpt>
      <trkpt lat="45.4137140" lon="6.3539520">
        <ele>1456.0</ele>
        <time>2021-08-19T09:35:01Z</time>
      </trkpt>
      <trkpt lat="45.4137840" lon="6.3540800">
        <ele>1457.0</ele>
        <time>2021-08-19T09:35:06Z</time>
      </trkpt>
      <trkpt lat="45.4137910" lon="6.3541090">
        <ele>1457.2</ele>
        <time>2021-08-19T09:35:07Z</time>
      </trkpt>
      <trkpt lat="45.4138070" lon="6.3541660">
        <ele>1458.0</ele>
        <time>2021-08-19T09:35:09Z</time>
      </trkpt>
      <trkpt lat="45.4138130" lon="6.3541940">
        <ele>1458.0</ele>
        <time>2021-08-19T09:35:10Z</time>
      </trkpt>
      <trkpt lat="45.4138590" lon="6.3543520">
        <ele>1459.2</ele>
        <time>2021-08-19T09:35:16Z</time>
      </trkpt>
      <trkpt lat="45.4138810" lon="6.3544480">
        <ele>1459.8</ele>
        <time>2021-08-19T09:35:19Z</time>
      </trkpt>
      <trkpt lat="45.4138930" lon="6.3545050">
        <ele>1460.2</ele>
        <time>2021-08-19T09:35:21Z</time>
      </trkpt>
      <trkpt lat="45.4139320" lon="6.3546180">
        <ele>1461.0</ele>
        <time>2021-08-19T09:35:25Z</time>
      </trkpt>
      <trkpt lat="45.4139420" lon="6.3546470">
        <ele>1461.4</ele>
        <time>2021-08-19T09:35:26Z</time>
      </trkpt>
      <trkpt lat="45.4139770" lon="6.3547310">
        <ele>1462.0</ele>
        <time>2021-08-19T09:35:29Z</time>
      </trkpt>
      <trkpt lat="45.4139980" lon="6.3547830">
        <ele>1462.4</ele>
        <time>2021-08-19T09:35:31Z</time>
      </trkpt>
      <trkpt lat="45.4140360" lon="6.3548910">
        <ele>1463.2</ele>
        <time>2021-08-19T09:35:35Z</time>
      </trkpt>
      <trkpt lat="45.4140480" lon="6.3549160">
        <ele>1463.8</ele>
        <time>2021-08-19T09:35:36Z</time>
      </trkpt>
      <trkpt lat="45.4141020" lon="6.3550600">
        <ele>1464.6</ele>
        <time>2021-08-19T09:35:41Z</time>
      </trkpt>
      <trkpt lat="45.4141610" lon="6.3551660">
        <ele>1465.6</ele>
        <time>2021-08-19T09:35:45Z</time>
      </trkpt>
      <trkpt lat="45.4141710" lon="6.3551870">
        <ele>1465.8</ele>
        <time>2021-08-19T09:35:46Z</time>
      </trkpt>
      <trkpt lat="45.4142470" lon="6.3553220">
        <ele>1466.6</ele>
        <time>2021-08-19T09:35:51Z</time>
      </trkpt>
      <trkpt lat="45.4142870" lon="6.3553950">
        <ele>1467.0</ele>
        <time>2021-08-19T09:35:54Z</time>
      </trkpt>
      <trkpt lat="45.4143330" lon="6.3555010">
        <ele>1468.0</ele>
        <time>2021-08-19T09:35:58Z</time>
      </trkpt>
      <trkpt lat="45.4143690" lon="6.3555800">
        <ele>1468.6</ele>
        <time>2021-08-19T09:36:01Z</time>
      </trkpt>
      <trkpt lat="45.4144000" lon="6.3556650">
        <ele>1469.2</ele>
        <time>2021-08-19T09:36:04Z</time>
      </trkpt>
      <trkpt lat="45.4144400" lon="6.3557850">
        <ele>1470.2</ele>
        <time>2021-08-19T09:36:08Z</time>
      </trkpt>
      <trkpt lat="45.4144440" lon="6.3558160">
        <ele>1470.4</ele>
        <time>2021-08-19T09:36:09Z</time>
      </trkpt>
      <trkpt lat="45.4144890" lon="6.3559970">
        <ele>1471.4</ele>
        <time>2021-08-19T09:36:15Z</time>
      </trkpt>
      <trkpt lat="45.4145100" lon="6.3560860">
        <ele>1472.4</ele>
        <time>2021-08-19T09:36:18Z</time>
      </trkpt>
      <trkpt lat="45.4145190" lon="6.3561150">
        <ele>1472.4</ele>
        <time>2021-08-19T09:36:19Z</time>
      </trkpt>
      <trkpt lat="45.4145920" lon="6.3562770">
        <ele>1473.4</ele>
        <time>2021-08-19T09:36:25Z</time>
      </trkpt>
      <trkpt lat="45.4146070" lon="6.3563040">
        <ele>1473.6</ele>
        <time>2021-08-19T09:36:26Z</time>
      </trkpt>
      <trkpt lat="45.4146860" lon="6.3564200">
        <ele>1474.4</ele>
        <time>2021-08-19T09:36:31Z</time>
      </trkpt>
      <trkpt lat="45.4147440" lon="6.3564750">
        <ele>1475.2</ele>
        <time>2021-08-19T09:36:34Z</time>
      </trkpt>
      <trkpt lat="45.4147800" lon="6.3565080">
        <ele>1475.6</ele>
        <time>2021-08-19T09:36:36Z</time>
      </trkpt>
      <trkpt lat="45.4148920" lon="6.3565700">
        <ele>1476.6</ele>
        <time>2021-08-19T09:36:41Z</time>
      </trkpt>
      <trkpt lat="45.4149680" lon="6.3565890">
        <ele>1477.0</ele>
        <time>2021-08-19T09:36:44Z</time>
      </trkpt>
      <trkpt lat="45.4150340" lon="6.3566110">
        <ele>1477.8</ele>
        <time>2021-08-19T09:36:47Z</time>
      </trkpt>
      <trkpt lat="45.4150570" lon="6.3566160">
        <ele>1478.0</ele>
        <time>2021-08-19T09:36:48Z</time>
      </trkpt>
      <trkpt lat="45.4151260" lon="6.3566370">
        <ele>1478.6</ele>
        <time>2021-08-19T09:36:51Z</time>
      </trkpt>
      <trkpt lat="45.4151730" lon="6.3566560">
        <ele>1479.0</ele>
        <time>2021-08-19T09:36:53Z</time>
      </trkpt>
      <trkpt lat="45.4152100" lon="6.3566750">
        <ele>1479.2</ele>
        <time>2021-08-19T09:36:55Z</time>
      </trkpt>
      <trkpt lat="45.4152360" lon="6.3566890">
        <ele>1479.4</ele>
        <time>2021-08-19T09:36:56Z</time>
      </trkpt>
      <trkpt lat="45.4152770" lon="6.3567260">
        <ele>1479.6</ele>
        <time>2021-08-19T09:36:58Z</time>
      </trkpt>
      <trkpt lat="45.4153290" lon="6.3567760">
        <ele>1480.0</ele>
        <time>2021-08-19T09:37:01Z</time>
      </trkpt>
      <trkpt lat="45.4153470" lon="6.3568040">
        <ele>1480.2</ele>
        <time>2021-08-19T09:37:02Z</time>
      </trkpt>
      <trkpt lat="45.4154290" lon="6.3569620">
        <ele>1481.0</ele>
        <time>2021-08-19T09:37:08Z</time>
      </trkpt>
      <trkpt lat="45.4154630" lon="6.3570800">
        <ele>1482.0</ele>
        <time>2021-08-19T09:37:12Z</time>
      </trkpt>
      <trkpt lat="45.4154710" lon="6.3571120">
        <ele>1482.2</ele>
        <time>2021-08-19T09:37:13Z</time>
      </trkpt>
      <trkpt lat="45.4155090" lon="6.3572650">
        <ele>1483.2</ele>
        <time>2021-08-19T09:37:18Z</time>
      </trkpt>
      <trkpt lat="45.4155350" lon="6.3573540">
        <ele>1483.6</ele>
        <time>2021-08-19T09:37:21Z</time>
      </trkpt>
      <trkpt lat="45.4155600" lon="6.3574380">
        <ele>1484.4</ele>
        <time>2021-08-19T09:37:24Z</time>
      </trkpt>
      <trkpt lat="45.4155810" lon="6.3575250">
        <ele>1485.2</ele>
        <time>2021-08-19T09:37:27Z</time>
      </trkpt>
      <trkpt lat="45.4155880" lon="6.3575540">
        <ele>1485.2</ele>
        <time>2021-08-19T09:37:28Z</time>
      </trkpt>
      <trkpt lat="45.4155950" lon="6.3575840">
        <ele>1485.4</ele>
        <time>2021-08-19T09:37:29Z</time>
      </trkpt>
      <trkpt lat="45.4156220" lon="6.3577000">
        <ele>1486.0</ele>
        <time>2021-08-19T09:37:33Z</time>
      </trkpt>
      <trkpt lat="45.4156470" lon="6.3577860">
        <ele>1486.6</ele>
        <time>2021-08-19T09:37:36Z</time>
      </trkpt>
      <trkpt lat="45.4156940" lon="6.3579200">
        <ele>1487.6</ele>
        <time>2021-08-19T09:37:41Z</time>
      </trkpt>
      <trkpt lat="45.4157270" lon="6.3580690">
        <ele>1488.4</ele>
        <time>2021-08-19T09:37:46Z</time>
      </trkpt>
      <trkpt lat="45.4157360" lon="6.3580960">
        <ele>1488.6</ele>
        <time>2021-08-19T09:37:47Z</time>
      </trkpt>
      <trkpt lat="45.4157770" lon="6.3582030">
        <ele>1489.8</ele>
        <time>2021-08-19T09:37:51Z</time>
      </trkpt>
      <trkpt lat="45.4157930" lon="6.3582660">
        <ele>1490.2</ele>
        <time>2021-08-19T09:37:53Z</time>
      </trkpt>
      <trkpt lat="45.4158140" lon="6.3583140">
        <ele>1490.8</ele>
        <time>2021-08-19T09:37:55Z</time>
      </trkpt>
      <trkpt lat="45.4158720" lon="6.3584700">
        <ele>1492.0</ele>
        <time>2021-08-19T09:38:01Z</time>
      </trkpt>
      <trkpt lat="45.4158820" lon="6.3584970">
        <ele>1492.2</ele>
        <time>2021-08-19T09:38:02Z</time>
      </trkpt>
      <trkpt lat="45.4159090" lon="6.3585800">
        <ele>1493.2</ele>
        <time>2021-08-19T09:38:05Z</time>
      </trkpt>
      <trkpt lat="45.4159310" lon="6.3586590">
        <ele>1494.2</ele>
        <time>2021-08-19T09:38:08Z</time>
      </trkpt>
      <trkpt lat="45.4159390" lon="6.3586870">
        <ele>1494.2</ele>
        <time>2021-08-19T09:38:09Z</time>
      </trkpt>
      <trkpt lat="45.4159460" lon="6.3587130">
        <ele>1494.4</ele>
        <time>2021-08-19T09:38:10Z</time>
      </trkpt>
      <trkpt lat="45.4159760" lon="6.3588290">
        <ele>1495.2</ele>
        <time>2021-08-19T09:38:14Z</time>
      </trkpt>
      <trkpt lat="45.4160030" lon="6.3589410">
        <ele>1496.0</ele>
        <time>2021-08-19T09:38:18Z</time>
      </trkpt>
      <trkpt lat="45.4160130" lon="6.3589960">
        <ele>1496.2</ele>
        <time>2021-08-19T09:38:20Z</time>
      </trkpt>
      <trkpt lat="45.4160250" lon="6.3590880">
        <ele>1497.0</ele>
        <time>2021-08-19T09:38:23Z</time>
      </trkpt>
      <trkpt lat="45.4160330" lon="6.3591500">
        <ele>1497.2</ele>
        <time>2021-08-19T09:38:25Z</time>
      </trkpt>
      <trkpt lat="45.4160400" lon="6.3592100">
        <ele>1497.8</ele>
        <time>2021-08-19T09:38:27Z</time>
      </trkpt>
      <trkpt lat="45.4160440" lon="6.3592400">
        <ele>1497.8</ele>
        <time>2021-08-19T09:38:28Z</time>
      </trkpt>
      <trkpt lat="45.4160510" lon="6.3593020">
        <ele>1498.2</ele>
        <time>2021-08-19T09:38:30Z</time>
      </trkpt>
      <trkpt lat="45.4160520" lon="6.3593340">
        <ele>1498.6</ele>
        <time>2021-08-19T09:38:31Z</time>
      </trkpt>
      <trkpt lat="45.4160670" lon="6.3594560">
        <ele>1499.6</ele>
        <time>2021-08-19T09:38:35Z</time>
      </trkpt>
      <trkpt lat="45.4160730" lon="6.3595720">
        <ele>1500.2</ele>
        <time>2021-08-19T09:38:39Z</time>
      </trkpt>
      <trkpt lat="45.4160630" lon="6.3596900">
        <ele>1500.8</ele>
        <time>2021-08-19T09:38:43Z</time>
      </trkpt>
      <trkpt lat="45.4160460" lon="6.3597630">
        <ele>1502.0</ele>
        <time>2021-08-19T09:38:46Z</time>
      </trkpt>
      <trkpt lat="45.4160390" lon="6.3597890">
        <ele>1502.2</ele>
        <time>2021-08-19T09:38:47Z</time>
      </trkpt>
      <trkpt lat="45.4159830" lon="6.3599490">
        <ele>1503.0</ele>
        <time>2021-08-19T09:38:53Z</time>
      </trkpt>
      <trkpt lat="45.4159540" lon="6.3600610">
        <ele>1503.8</ele>
        <time>2021-08-19T09:38:57Z</time>
      </trkpt>
      <trkpt lat="45.4159410" lon="6.3601190">
        <ele>1504.4</ele>
        <time>2021-08-19T09:38:59Z</time>
      </trkpt>
      <trkpt lat="45.4158990" lon="6.3603540">
        <ele>1505.4</ele>
        <time>2021-08-19T09:39:06Z</time>
      </trkpt>
      <trkpt lat="45.4158990" lon="6.3603540">
        <ele>1505.6</ele>
        <time>2021-08-19T09:39:07Z</time>
      </trkpt>
      <trkpt lat="45.4158980" lon="6.3603860">
        <ele>1505.6</ele>
        <time>2021-08-19T09:39:08Z</time>
      </trkpt>
      <trkpt lat="45.4158970" lon="6.3605070">
        <ele>1506.6</ele>
        <time>2021-08-19T09:39:12Z</time>
      </trkpt>
      <trkpt lat="45.4158990" lon="6.3606260">
        <ele>1507.0</ele>
        <time>2021-08-19T09:39:16Z</time>
      </trkpt>
      <trkpt lat="45.4159020" lon="6.3607120">
        <ele>1507.6</ele>
        <time>2021-08-19T09:39:18Z</time>
      </trkpt>
      <trkpt lat="45.4159150" lon="6.3608680">
        <ele>1508.6</ele>
        <time>2021-08-19T09:39:23Z</time>
      </trkpt>
      <trkpt lat="45.4159310" lon="6.3609280">
        <ele>1509.2</ele>
        <time>2021-08-19T09:39:25Z</time>
      </trkpt>
      <trkpt lat="45.4159510" lon="6.3609830">
        <ele>1509.6</ele>
        <time>2021-08-19T09:39:27Z</time>
      </trkpt>
      <trkpt lat="45.4159990" lon="6.3610480">
        <ele>1509.8</ele>
        <time>2021-08-19T09:39:30Z</time>
      </trkpt>
      <trkpt lat="45.4160420" lon="6.3610710">
        <ele>1510.2</ele>
        <time>2021-08-19T09:39:32Z</time>
      </trkpt>
      <trkpt lat="45.4160640" lon="6.3610790">
        <ele>1510.6</ele>
        <time>2021-08-19T09:39:34Z</time>
      </trkpt>
      <trkpt lat="45.4161750" lon="6.3610480">
        <ele>1511.2</ele>
        <time>2021-08-19T09:39:38Z</time>
      </trkpt>
      <trkpt lat="45.4161920" lon="6.3610310">
        <ele>1511.6</ele>
        <time>2021-08-19T09:39:40Z</time>
      </trkpt>
      <trkpt lat="45.4162270" lon="6.3609910">
        <ele>1511.6</ele>
        <time>2021-08-19T09:39:41Z</time>
      </trkpt>
      <trkpt lat="45.4162520" lon="6.3609410">
        <ele>1512.2</ele>
        <time>2021-08-19T09:39:44Z</time>
      </trkpt>
      <trkpt lat="45.4162840" lon="6.3608350">
        <ele>1512.4</ele>
        <time>2021-08-19T09:39:47Z</time>
      </trkpt>
      <trkpt lat="45.4162910" lon="6.3608080">
        <ele>1512.6</ele>
        <time>2021-08-19T09:39:48Z</time>
      </trkpt>
      <trkpt lat="45.4163030" lon="6.3607550">
        <ele>1512.8</ele>
        <time>2021-08-19T09:39:50Z</time>
      </trkpt>
      <trkpt lat="45.4163070" lon="6.3607280">
        <ele>1512.8</ele>
        <time>2021-08-19T09:39:51Z</time>
      </trkpt>
      <trkpt lat="45.4163160" lon="6.3607040">
        <ele>1513.2</ele>
        <time>2021-08-19T09:39:52Z</time>
      </trkpt>
      <trkpt lat="45.4163280" lon="6.3606820">
        <ele>1513.4</ele>
        <time>2021-08-19T09:39:53Z</time>
      </trkpt>
      <trkpt lat="45.4163700" lon="6.3606190">
        <ele>1514.2</ele>
        <time>2021-08-19T09:39:56Z</time>
      </trkpt>
      <trkpt lat="45.4163700" lon="6.3606190">
        <ele>1514.8</ele>
        <time>2021-08-19T09:39:57Z</time>
      </trkpt>
      <trkpt lat="45.4164970" lon="6.3604900">
        <ele>1515.8</ele>
        <time>2021-08-19T09:40:04Z</time>
      </trkpt>
      <trkpt lat="45.4165150" lon="6.3604770">
        <ele>1515.8</ele>
        <time>2021-08-19T09:40:05Z</time>
      </trkpt>
      <trkpt lat="45.4165310" lon="6.3604640">
        <ele>1515.8</ele>
        <time>2021-08-19T09:40:06Z</time>
      </trkpt>
      <trkpt lat="45.4165630" lon="6.3604280">
        <ele>1516.4</ele>
        <time>2021-08-19T09:40:09Z</time>
      </trkpt>
      <trkpt lat="45.4166280" lon="6.3603810">
        <ele>1517.0</ele>
        <time>2021-08-19T09:40:12Z</time>
      </trkpt>
      <trkpt lat="45.4166990" lon="6.3603310">
        <ele>1517.4</ele>
        <time>2021-08-19T09:40:17Z</time>
      </trkpt>
      <trkpt lat="45.4167340" lon="6.3603120">
        <ele>1517.8</ele>
        <time>2021-08-19T09:40:19Z</time>
      </trkpt>
      <trkpt lat="45.4168470" lon="6.3602200">
        <ele>1519.0</ele>
        <time>2021-08-19T09:40:25Z</time>
      </trkpt>
      <trkpt lat="45.4168910" lon="6.3601670">
        <ele>1519.6</ele>
        <time>2021-08-19T09:40:28Z</time>
      </trkpt>
      <trkpt lat="45.4168910" lon="6.3601670">
        <ele>1520.0</ele>
        <time>2021-08-19T09:40:29Z</time>
      </trkpt>
      <trkpt lat="45.4170310" lon="6.3600180">
        <ele>1521.2</ele>
        <time>2021-08-19T09:40:37Z</time>
      </trkpt>
      <trkpt lat="45.4170620" lon="6.3599910">
        <ele>1521.6</ele>
        <time>2021-08-19T09:40:39Z</time>
      </trkpt>
      <trkpt lat="45.4170980" lon="6.3599570">
        <ele>1522.0</ele>
        <time>2021-08-19T09:40:42Z</time>
      </trkpt>
      <trkpt lat="45.4171420" lon="6.3599190">
        <ele>1522.2</ele>
        <time>2021-08-19T09:40:44Z</time>
      </trkpt>
      <trkpt lat="45.4172130" lon="6.3598980">
        <ele>1523.0</ele>
        <time>2021-08-19T09:40:48Z</time>
      </trkpt>
      <trkpt lat="45.4172480" lon="6.3599080">
        <ele>1523.2</ele>
        <time>2021-08-19T09:40:50Z</time>
      </trkpt>
      <trkpt lat="45.4172810" lon="6.3599220">
        <ele>1523.8</ele>
        <time>2021-08-19T09:40:52Z</time>
      </trkpt>
      <trkpt lat="45.4173120" lon="6.3599500">
        <ele>1524.2</ele>
        <time>2021-08-19T09:40:54Z</time>
      </trkpt>
      <trkpt lat="45.4173420" lon="6.3599800">
        <ele>1524.8</ele>
        <time>2021-08-19T09:40:56Z</time>
      </trkpt>
      <trkpt lat="45.4173760" lon="6.3600360">
        <ele>1525.4</ele>
        <time>2021-08-19T09:40:59Z</time>
      </trkpt>
      <trkpt lat="45.4173930" lon="6.3600830">
        <ele>1526.2</ele>
        <time>2021-08-19T09:41:02Z</time>
      </trkpt>
      <trkpt lat="45.4174080" lon="6.3601290">
        <ele>1526.6</ele>
        <time>2021-08-19T09:41:03Z</time>
      </trkpt>
      <trkpt lat="45.4174100" lon="6.3602320">
        <ele>1527.6</ele>
        <time>2021-08-19T09:41:07Z</time>
      </trkpt>
      <trkpt lat="45.4174080" lon="6.3602600">
        <ele>1528.2</ele>
        <time>2021-08-19T09:41:09Z</time>
      </trkpt>
      <trkpt lat="45.4173830" lon="6.3603940">
        <ele>1528.8</ele>
        <time>2021-08-19T09:41:13Z</time>
      </trkpt>
      <trkpt lat="45.4173630" lon="6.3604680">
        <ele>1529.4</ele>
        <time>2021-08-19T09:41:16Z</time>
      </trkpt>
      <trkpt lat="45.4173430" lon="6.3605100">
        <ele>1529.8</ele>
        <time>2021-08-19T09:41:18Z</time>
      </trkpt>
      <trkpt lat="45.4173300" lon="6.3605300">
        <ele>1529.8</ele>
        <time>2021-08-19T09:41:19Z</time>
      </trkpt>
      <trkpt lat="45.4172590" lon="6.3606130">
        <ele>1531.0</ele>
        <time>2021-08-19T09:41:24Z</time>
      </trkpt>
      <trkpt lat="45.4172240" lon="6.3606320">
        <ele>1531.4</ele>
        <time>2021-08-19T09:41:26Z</time>
      </trkpt>
      <trkpt lat="45.4172060" lon="6.3606390">
        <ele>1531.6</ele>
        <time>2021-08-19T09:41:27Z</time>
      </trkpt>
      <trkpt lat="45.4171340" lon="6.3606860">
        <ele>1532.2</ele>
        <time>2021-08-19T09:41:31Z</time>
      </trkpt>
      <trkpt lat="45.4170290" lon="6.3607930">
        <ele>1533.2</ele>
        <time>2021-08-19T09:41:37Z</time>
      </trkpt>
      <trkpt lat="45.4169790" lon="6.3608970">
        <ele>1534.0</ele>
        <time>2021-08-19T09:41:41Z</time>
      </trkpt>
      <trkpt lat="45.4169560" lon="6.3609490">
        <ele>1534.6</ele>
        <time>2021-08-19T09:41:43Z</time>
      </trkpt>
      <trkpt lat="45.4169440" lon="6.3609750">
        <ele>1534.6</ele>
        <time>2021-08-19T09:41:44Z</time>
      </trkpt>
      <trkpt lat="45.4169350" lon="6.3610000">
        <ele>1534.8</ele>
        <time>2021-08-19T09:41:45Z</time>
      </trkpt>
      <trkpt lat="45.4169070" lon="6.3610790">
        <ele>1535.6</ele>
        <time>2021-08-19T09:41:49Z</time>
      </trkpt>
      <trkpt lat="45.4168610" lon="6.3612100">
        <ele>1536.6</ele>
        <time>2021-08-19T09:41:54Z</time>
      </trkpt>
      <trkpt lat="45.4168400" lon="6.3612630">
        <ele>1536.8</ele>
        <time>2021-08-19T09:41:55Z</time>
      </trkpt>
      <trkpt lat="45.4167910" lon="6.3614170">
        <ele>1537.8</ele>
        <time>2021-08-19T09:42:00Z</time>
      </trkpt>
      <trkpt lat="45.4167790" lon="6.3615430">
        <ele>1538.8</ele>
        <time>2021-08-19T09:42:04Z</time>
      </trkpt>
      <trkpt lat="45.4167750" lon="6.3615780">
        <ele>1539.2</ele>
        <time>2021-08-19T09:42:05Z</time>
      </trkpt>
      <trkpt lat="45.4167740" lon="6.3616780">
        <ele>1539.6</ele>
        <time>2021-08-19T09:42:08Z</time>
      </trkpt>
      <trkpt lat="45.4167730" lon="6.3617120">
        <ele>1539.8</ele>
        <time>2021-08-19T09:42:09Z</time>
      </trkpt>
      <trkpt lat="45.4167730" lon="6.3617470">
        <ele>1539.8</ele>
        <time>2021-08-19T09:42:10Z</time>
      </trkpt>
      <trkpt lat="45.4167750" lon="6.3617830">
        <ele>1540.0</ele>
        <time>2021-08-19T09:42:11Z</time>
      </trkpt>
      <trkpt lat="45.4167750" lon="6.3618170">
        <ele>1540.2</ele>
        <time>2021-08-19T09:42:12Z</time>
      </trkpt>
      <trkpt lat="45.4167760" lon="6.3619540">
        <ele>1541.0</ele>
        <time>2021-08-19T09:42:16Z</time>
      </trkpt>
      <trkpt lat="45.4167760" lon="6.3620630">
        <ele>1541.4</ele>
        <time>2021-08-19T09:42:19Z</time>
      </trkpt>
      <trkpt lat="45.4167690" lon="6.3621290">
        <ele>1542.0</ele>
        <time>2021-08-19T09:42:21Z</time>
      </trkpt>
      <trkpt lat="45.4167640" lon="6.3621610">
        <ele>1542.2</ele>
        <time>2021-08-19T09:42:22Z</time>
      </trkpt>
      <trkpt lat="45.4167500" lon="6.3622250">
        <ele>1542.4</ele>
        <time>2021-08-19T09:42:24Z</time>
      </trkpt>
      <trkpt lat="45.4166970" lon="6.3622960">
        <ele>1543.0</ele>
        <time>2021-08-19T09:42:27Z</time>
      </trkpt>
      <trkpt lat="45.4166780" lon="6.3623170">
        <ele>1543.2</ele>
        <time>2021-08-19T09:42:28Z</time>
      </trkpt>
      <trkpt lat="45.4166180" lon="6.3623610">
        <ele>1544.4</ele>
        <time>2021-08-19T09:42:31Z</time>
      </trkpt>
      <trkpt lat="45.4165450" lon="6.3623610">
        <ele>1544.8</ele>
        <time>2021-08-19T09:42:34Z</time>
      </trkpt>
      <trkpt lat="45.4165240" lon="6.3623570">
        <ele>1545.0</ele>
        <time>2021-08-19T09:42:35Z</time>
      </trkpt>
      <trkpt lat="45.4164800" lon="6.3623390">
        <ele>1545.6</ele>
        <time>2021-08-19T09:42:37Z</time>
      </trkpt>
      <trkpt lat="45.4163720" lon="6.3622800">
        <ele>1546.2</ele>
        <time>2021-08-19T09:42:42Z</time>
      </trkpt>
      <trkpt lat="45.4163480" lon="6.3622790">
        <ele>1546.4</ele>
        <time>2021-08-19T09:42:43Z</time>
      </trkpt>
      <trkpt lat="45.4163250" lon="6.3622790">
        <ele>1546.8</ele>
        <time>2021-08-19T09:42:44Z</time>
      </trkpt>
      <trkpt lat="45.4162570" lon="6.3622870">
        <ele>1547.4</ele>
        <time>2021-08-19T09:42:47Z</time>
      </trkpt>
      <trkpt lat="45.4162140" lon="6.3623150">
        <ele>1547.8</ele>
        <time>2021-08-19T09:42:49Z</time>
      </trkpt>
      <trkpt lat="45.4161930" lon="6.3623320">
        <ele>1548.2</ele>
        <time>2021-08-19T09:42:50Z</time>
      </trkpt>
      <trkpt lat="45.4161730" lon="6.3623510">
        <ele>1548.4</ele>
        <time>2021-08-19T09:42:51Z</time>
      </trkpt>
      <trkpt lat="45.4161160" lon="6.3624190">
        <ele>1549.0</ele>
        <time>2021-08-19T09:42:54Z</time>
      </trkpt>
      <trkpt lat="45.4160500" lon="6.3624880">
        <ele>1549.4</ele>
        <time>2021-08-19T09:42:57Z</time>
      </trkpt>
      <trkpt lat="45.4160180" lon="6.3625480">
        <ele>1549.8</ele>
        <time>2021-08-19T09:42:59Z</time>
      </trkpt>
      <trkpt lat="45.4160110" lon="6.3625790">
        <ele>1550.0</ele>
        <time>2021-08-19T09:43:00Z</time>
      </trkpt>
      <trkpt lat="45.4160020" lon="6.3626500">
        <ele>1550.0</ele>
        <time>2021-08-19T09:43:02Z</time>
      </trkpt>
      <trkpt lat="45.4160100" lon="6.3627250">
        <ele>1550.6</ele>
        <time>2021-08-19T09:43:04Z</time>
      </trkpt>
      <trkpt lat="45.4160210" lon="6.3627600">
        <ele>1551.0</ele>
        <time>2021-08-19T09:43:05Z</time>
      </trkpt>
      <trkpt lat="45.4160360" lon="6.3627910">
        <ele>1551.2</ele>
        <time>2021-08-19T09:43:06Z</time>
      </trkpt>
      <trkpt lat="45.4160560" lon="6.3628210">
        <ele>1551.4</ele>
        <time>2021-08-19T09:43:07Z</time>
      </trkpt>
      <trkpt lat="45.4160810" lon="6.3628440">
        <ele>1551.6</ele>
        <time>2021-08-19T09:43:08Z</time>
      </trkpt>
      <trkpt lat="45.4161340" lon="6.3628720">
        <ele>1551.8</ele>
        <time>2021-08-19T09:43:10Z</time>
      </trkpt>
      <trkpt lat="45.4161580" lon="6.3628840">
        <ele>1551.8</ele>
        <time>2021-08-19T09:43:11Z</time>
      </trkpt>
      <trkpt lat="45.4161830" lon="6.3628970">
        <ele>1552.2</ele>
        <time>2021-08-19T09:43:12Z</time>
      </trkpt>
      <trkpt lat="45.4162080" lon="6.3629100">
        <ele>1552.4</ele>
        <time>2021-08-19T09:43:13Z</time>
      </trkpt>
      <trkpt lat="45.4162980" lon="6.3629660">
        <ele>1552.8</ele>
        <time>2021-08-19T09:43:17Z</time>
      </trkpt>
      <trkpt lat="45.4163200" lon="6.3629830">
        <ele>1553.0</ele>
        <time>2021-08-19T09:43:18Z</time>
      </trkpt>
      <trkpt lat="45.4163410" lon="6.3630040">
        <ele>1553.4</ele>
        <time>2021-08-19T09:43:19Z</time>
      </trkpt>
      <trkpt lat="45.4164050" lon="6.3630670">
        <ele>1554.4</ele>
        <time>2021-08-19T09:43:22Z</time>
      </trkpt>
      <trkpt lat="45.4164450" lon="6.3631020">
        <ele>1554.8</ele>
        <time>2021-08-19T09:43:24Z</time>
      </trkpt>
      <trkpt lat="45.4164700" lon="6.3631250">
        <ele>1554.8</ele>
        <time>2021-08-19T09:43:25Z</time>
      </trkpt>
      <trkpt lat="45.4164880" lon="6.3631450">
        <ele>1555.0</ele>
        <time>2021-08-19T09:43:26Z</time>
      </trkpt>
      <trkpt lat="45.4165070" lon="6.3631640">
        <ele>1555.4</ele>
        <time>2021-08-19T09:43:27Z</time>
      </trkpt>
      <trkpt lat="45.4165260" lon="6.3631840">
        <ele>1555.6</ele>
        <time>2021-08-19T09:43:28Z</time>
      </trkpt>
      <trkpt lat="45.4165450" lon="6.3632060">
        <ele>1555.8</ele>
        <time>2021-08-19T09:43:29Z</time>
      </trkpt>
      <trkpt lat="45.4165830" lon="6.3632490">
        <ele>1556.4</ele>
        <time>2021-08-19T09:43:31Z</time>
      </trkpt>
      <trkpt lat="45.4166060" lon="6.3632690">
        <ele>1556.6</ele>
        <time>2021-08-19T09:43:32Z</time>
      </trkpt>
      <trkpt lat="45.4166290" lon="6.3632890">
        <ele>1557.0</ele>
        <time>2021-08-19T09:43:33Z</time>
      </trkpt>
      <trkpt lat="45.4166520" lon="6.3633100">
        <ele>1557.2</ele>
        <time>2021-08-19T09:43:34Z</time>
      </trkpt>
      <trkpt lat="45.4166760" lon="6.3633290">
        <ele>1557.6</ele>
        <time>2021-08-19T09:43:35Z</time>
      </trkpt>
      <trkpt lat="45.4166990" lon="6.3633480">
        <ele>1557.8</ele>
        <time>2021-08-19T09:43:36Z</time>
      </trkpt>
      <trkpt lat="45.4167900" lon="6.3634250">
        <ele>1558.6</ele>
        <time>2021-08-19T09:43:40Z</time>
      </trkpt>
      <trkpt lat="45.4168630" lon="6.3634660">
        <ele>1558.8</ele>
        <time>2021-08-19T09:43:43Z</time>
      </trkpt>
      <trkpt lat="45.4169090" lon="6.3634740">
        <ele>1559.2</ele>
        <time>2021-08-19T09:43:45Z</time>
      </trkpt>
      <trkpt lat="45.4169320" lon="6.3634770">
        <ele>1559.4</ele>
        <time>2021-08-19T09:43:46Z</time>
      </trkpt>
      <trkpt lat="45.4169550" lon="6.3634800">
        <ele>1559.4</ele>
        <time>2021-08-19T09:43:47Z</time>
      </trkpt>
      <trkpt lat="45.4169790" lon="6.3634800">
        <ele>1559.6</ele>
        <time>2021-08-19T09:43:48Z</time>
      </trkpt>
      <trkpt lat="45.4170210" lon="6.3634970">
        <ele>1560.0</ele>
        <time>2021-08-19T09:43:50Z</time>
      </trkpt>
      <trkpt lat="45.4170620" lon="6.3635290">
        <ele>1560.4</ele>
        <time>2021-08-19T09:43:52Z</time>
      </trkpt>
      <trkpt lat="45.4170810" lon="6.3635480">
        <ele>1560.6</ele>
        <time>2021-08-19T09:43:53Z</time>
      </trkpt>
      <trkpt lat="45.4171000" lon="6.3635670">
        <ele>1561.0</ele>
        <time>2021-08-19T09:43:54Z</time>
      </trkpt>
      <trkpt lat="45.4171520" lon="6.3636340">
        <ele>1561.8</ele>
        <time>2021-08-19T09:43:57Z</time>
      </trkpt>
      <trkpt lat="45.4171890" lon="6.3636760">
        <ele>1562.2</ele>
        <time>2021-08-19T09:43:59Z</time>
      </trkpt>
      <trkpt lat="45.4172620" lon="6.3637590">
        <ele>1563.0</ele>
        <time>2021-08-19T09:44:03Z</time>
      </trkpt>
      <trkpt lat="45.4173000" lon="6.3637940">
        <ele>1563.6</ele>
        <time>2021-08-19T09:44:06Z</time>
      </trkpt>
      <trkpt lat="45.4173430" lon="6.3638290">
        <ele>1563.8</ele>
        <time>2021-08-19T09:44:07Z</time>
      </trkpt>
      <trkpt lat="45.4173850" lon="6.3638620">
        <ele>1564.0</ele>
        <time>2021-08-19T09:44:09Z</time>
      </trkpt>
      <trkpt lat="45.4174050" lon="6.3638760">
        <ele>1564.2</ele>
        <time>2021-08-19T09:44:10Z</time>
      </trkpt>
      <trkpt lat="45.4174670" lon="6.3639120">
        <ele>1564.6</ele>
        <time>2021-08-19T09:44:13Z</time>
      </trkpt>
      <trkpt lat="45.4175010" lon="6.3639560">
        <ele>1565.0</ele>
        <time>2021-08-19T09:44:15Z</time>
      </trkpt>
      <trkpt lat="45.4175520" lon="6.3640750">
        <ele>1566.0</ele>
        <time>2021-08-19T09:44:19Z</time>
      </trkpt>
      <trkpt lat="45.4176320" lon="6.3642090">
        <ele>1567.0</ele>
        <time>2021-08-19T09:44:24Z</time>
      </trkpt>
      <trkpt lat="45.4177790" lon="6.3643520">
        <ele>1568.0</ele>
        <time>2021-08-19T09:44:31Z</time>
      </trkpt>
      <trkpt lat="45.4178400" lon="6.3644060">
        <ele>1568.8</ele>
        <time>2021-08-19T09:44:34Z</time>
      </trkpt>
      <trkpt lat="45.4178770" lon="6.3644390">
        <ele>1569.2</ele>
        <time>2021-08-19T09:44:36Z</time>
      </trkpt>
      <trkpt lat="45.4179840" lon="6.3645310">
        <ele>1569.8</ele>
        <time>2021-08-19T09:44:41Z</time>
      </trkpt>
      <trkpt lat="45.4180060" lon="6.3645500">
        <ele>1570.2</ele>
        <time>2021-08-19T09:44:42Z</time>
      </trkpt>
      <trkpt lat="45.4180490" lon="6.3645780">
        <ele>1570.6</ele>
        <time>2021-08-19T09:44:44Z</time>
      </trkpt>
      <trkpt lat="45.4180700" lon="6.3645920">
        <ele>1570.8</ele>
        <time>2021-08-19T09:44:45Z</time>
      </trkpt>
      <trkpt lat="45.4180860" lon="6.3646060">
        <ele>1571.0</ele>
        <time>2021-08-19T09:44:46Z</time>
      </trkpt>
      <trkpt lat="45.4181090" lon="6.3646280">
        <ele>1571.4</ele>
        <time>2021-08-19T09:44:47Z</time>
      </trkpt>
      <trkpt lat="45.4181310" lon="6.3646460">
        <ele>1571.6</ele>
        <time>2021-08-19T09:44:48Z</time>
      </trkpt>
      <trkpt lat="45.4181510" lon="6.3646620">
        <ele>1571.8</ele>
        <time>2021-08-19T09:44:49Z</time>
      </trkpt>
      <trkpt lat="45.4182180" lon="6.3647120">
        <ele>1572.0</ele>
        <time>2021-08-19T09:44:52Z</time>
      </trkpt>
      <trkpt lat="45.4182380" lon="6.3647300">
        <ele>1572.2</ele>
        <time>2021-08-19T09:44:53Z</time>
      </trkpt>
      <trkpt lat="45.4182810" lon="6.3647620">
        <ele>1572.8</ele>
        <time>2021-08-19T09:44:55Z</time>
      </trkpt>
      <trkpt lat="45.4183040" lon="6.3647740">
        <ele>1573.0</ele>
        <time>2021-08-19T09:44:56Z</time>
      </trkpt>
      <trkpt lat="45.4183600" lon="6.3648300">
        <ele>1573.2</ele>
        <time>2021-08-19T09:44:59Z</time>
      </trkpt>
      <trkpt lat="45.4184090" lon="6.3648990">
        <ele>1573.6</ele>
        <time>2021-08-19T09:45:02Z</time>
      </trkpt>
      <trkpt lat="45.4184510" lon="6.3649340">
        <ele>1574.4</ele>
        <time>2021-08-19T09:45:04Z</time>
      </trkpt>
      <trkpt lat="45.4184740" lon="6.3649460">
        <ele>1574.6</ele>
        <time>2021-08-19T09:45:05Z</time>
      </trkpt>
      <trkpt lat="45.4184970" lon="6.3649570">
        <ele>1575.2</ele>
        <time>2021-08-19T09:45:06Z</time>
      </trkpt>
      <trkpt lat="45.4185190" lon="6.3649670">
        <ele>1575.2</ele>
        <time>2021-08-19T09:45:07Z</time>
      </trkpt>
      <trkpt lat="45.4185430" lon="6.3649770">
        <ele>1575.6</ele>
        <time>2021-08-19T09:45:08Z</time>
      </trkpt>
      <trkpt lat="45.4185980" lon="6.3649940">
        <ele>1575.8</ele>
        <time>2021-08-19T09:45:10Z</time>
      </trkpt>
      <trkpt lat="45.4186860" lon="6.3650110">
        <ele>1576.6</ele>
        <time>2021-08-19T09:45:14Z</time>
      </trkpt>
      <trkpt lat="45.4187070" lon="6.3650150">
        <ele>1576.8</ele>
        <time>2021-08-19T09:45:15Z</time>
      </trkpt>
      <trkpt lat="45.4187510" lon="6.3650230">
        <ele>1577.4</ele>
        <time>2021-08-19T09:45:17Z</time>
      </trkpt>
      <trkpt lat="45.4188190" lon="6.3650270">
        <ele>1577.8</ele>
        <time>2021-08-19T09:45:20Z</time>
      </trkpt>
      <trkpt lat="45.4188420" lon="6.3650250">
        <ele>1578.0</ele>
        <time>2021-08-19T09:45:21Z</time>
      </trkpt>
      <trkpt lat="45.4189520" lon="6.3650310">
        <ele>1579.4</ele>
        <time>2021-08-19T09:45:26Z</time>
      </trkpt>
      <trkpt lat="45.4189970" lon="6.3650290">
        <ele>1580.0</ele>
        <time>2021-08-19T09:45:28Z</time>
      </trkpt>
      <trkpt lat="45.4190460" lon="6.3650440">
        <ele>1580.6</ele>
        <time>2021-08-19T09:45:30Z</time>
      </trkpt>
      <trkpt lat="45.4191420" lon="6.3650540">
        <ele>1581.4</ele>
        <time>2021-08-19T09:45:34Z</time>
      </trkpt>
      <trkpt lat="45.4191660" lon="6.3650540">
        <ele>1581.6</ele>
        <time>2021-08-19T09:45:35Z</time>
      </trkpt>
      <trkpt lat="45.4192370" lon="6.3650570">
        <ele>1582.0</ele>
        <time>2021-08-19T09:45:38Z</time>
      </trkpt>
      <trkpt lat="45.4192950" lon="6.3650640">
        <ele>1582.8</ele>
        <time>2021-08-19T09:45:41Z</time>
      </trkpt>
      <trkpt lat="45.4193850" lon="6.3650860">
        <ele>1583.8</ele>
        <time>2021-08-19T09:45:45Z</time>
      </trkpt>
      <trkpt lat="45.4194110" lon="6.3650910">
        <ele>1584.0</ele>
        <time>2021-08-19T09:45:46Z</time>
      </trkpt>
      <trkpt lat="45.4194360" lon="6.3650950">
        <ele>1584.4</ele>
        <time>2021-08-19T09:45:47Z</time>
      </trkpt>
      <trkpt lat="45.4195090" lon="6.3651150">
        <ele>1584.6</ele>
        <time>2021-08-19T09:45:50Z</time>
      </trkpt>
      <trkpt lat="45.4195570" lon="6.3651360">
        <ele>1585.2</ele>
        <time>2021-08-19T09:45:52Z</time>
      </trkpt>
      <trkpt lat="45.4195990" lon="6.3651710">
        <ele>1585.6</ele>
        <time>2021-08-19T09:45:54Z</time>
      </trkpt>
      <trkpt lat="45.4196750" lon="6.3652490">
        <ele>1586.2</ele>
        <time>2021-08-19T09:45:58Z</time>
      </trkpt>
      <trkpt lat="45.4197200" lon="6.3653310">
        <ele>1587.2</ele>
        <time>2021-08-19T09:46:01Z</time>
      </trkpt>
      <trkpt lat="45.4197500" lon="6.3653780">
        <ele>1587.4</ele>
        <time>2021-08-19T09:46:03Z</time>
      </trkpt>
      <trkpt lat="45.4198170" lon="6.3655160">
        <ele>1588.2</ele>
        <time>2021-08-19T09:46:08Z</time>
      </trkpt>
      <trkpt lat="45.4198300" lon="6.3655380">
        <ele>1588.8</ele>
        <time>2021-08-19T09:46:09Z</time>
      </trkpt>
      <trkpt lat="45.4199030" lon="6.3656700">
        <ele>1589.8</ele>
        <time>2021-08-19T09:46:14Z</time>
      </trkpt>
      <trkpt lat="45.4199590" lon="6.3657750">
        <ele>1590.6</ele>
        <time>2021-08-19T09:46:18Z</time>
      </trkpt>
      <trkpt lat="45.4199720" lon="6.3658040">
        <ele>1590.8</ele>
        <time>2021-08-19T09:46:19Z</time>
      </trkpt>
      <trkpt lat="45.4200190" lon="6.3658790">
        <ele>1591.4</ele>
        <time>2021-08-19T09:46:22Z</time>
      </trkpt>
      <trkpt lat="45.4200720" lon="6.3659440">
        <ele>1592.0</ele>
        <time>2021-08-19T09:46:25Z</time>
      </trkpt>
      <trkpt lat="45.4201720" lon="6.3660290">
        <ele>1593.2</ele>
        <time>2021-08-19T09:46:30Z</time>
      </trkpt>
      <trkpt lat="45.4202170" lon="6.3660460">
        <ele>1593.6</ele>
        <time>2021-08-19T09:46:32Z</time>
      </trkpt>
      <trkpt lat="45.4202420" lon="6.3660520">
        <ele>1593.8</ele>
        <time>2021-08-19T09:46:33Z</time>
      </trkpt>
      <trkpt lat="45.4202660" lon="6.3660560">
        <ele>1594.0</ele>
        <time>2021-08-19T09:46:34Z</time>
      </trkpt>
      <trkpt lat="45.4203190" lon="6.3660540">
        <ele>1594.2</ele>
        <time>2021-08-19T09:46:36Z</time>
      </trkpt>
      <trkpt lat="45.4204590" lon="6.3660310">
        <ele>1595.2</ele>
        <time>2021-08-19T09:46:41Z</time>
      </trkpt>
      <trkpt lat="45.4204880" lon="6.3660250">
        <ele>1595.4</ele>
        <time>2021-08-19T09:46:42Z</time>
      </trkpt>
      <trkpt lat="45.4205150" lon="6.3660180">
        <ele>1595.6</ele>
        <time>2021-08-19T09:46:43Z</time>
      </trkpt>
      <trkpt lat="45.4205650" lon="6.3659980">
        <ele>1596.0</ele>
        <time>2021-08-19T09:46:45Z</time>
      </trkpt>
      <trkpt lat="45.4206170" lon="6.3659870">
        <ele>1596.4</ele>
        <time>2021-08-19T09:46:47Z</time>
      </trkpt>
      <trkpt lat="45.4206690" lon="6.3659690">
        <ele>1596.8</ele>
        <time>2021-08-19T09:46:49Z</time>
      </trkpt>
      <trkpt lat="45.4207250" lon="6.3659520">
        <ele>1597.0</ele>
        <time>2021-08-19T09:46:51Z</time>
      </trkpt>
      <trkpt lat="45.4207730" lon="6.3659360">
        <ele>1597.4</ele>
        <time>2021-08-19T09:46:53Z</time>
      </trkpt>
      <trkpt lat="45.4208180" lon="6.3659150">
        <ele>1597.8</ele>
        <time>2021-08-19T09:46:55Z</time>
      </trkpt>
      <trkpt lat="45.4208440" lon="6.3659030">
        <ele>1598.0</ele>
        <time>2021-08-19T09:46:56Z</time>
      </trkpt>
      <trkpt lat="45.4209120" lon="6.3658800">
        <ele>1598.6</ele>
        <time>2021-08-19T09:46:59Z</time>
      </trkpt>
      <trkpt lat="45.4209350" lon="6.3658740">
        <ele>1599.0</ele>
        <time>2021-08-19T09:47:00Z</time>
      </trkpt>
      <trkpt lat="45.4209990" lon="6.3658490">
        <ele>1599.8</ele>
        <time>2021-08-19T09:47:03Z</time>
      </trkpt>
      <trkpt lat="45.4210220" lon="6.3658420">
        <ele>1600.0</ele>
        <time>2021-08-19T09:47:04Z</time>
      </trkpt>
      <trkpt lat="45.4210460" lon="6.3658350">
        <ele>1600.2</ele>
        <time>2021-08-19T09:47:05Z</time>
      </trkpt>
      <trkpt lat="45.4210950" lon="6.3658210">
        <ele>1600.6</ele>
        <time>2021-08-19T09:47:07Z</time>
      </trkpt>
      <trkpt lat="45.4211160" lon="6.3658140">
        <ele>1601.0</ele>
        <time>2021-08-19T09:47:08Z</time>
      </trkpt>
      <trkpt lat="45.4211870" lon="6.3658210">
        <ele>1601.4</ele>
        <time>2021-08-19T09:47:11Z</time>
      </trkpt>
      <trkpt lat="45.4212550" lon="6.3658480">
        <ele>1601.8</ele>
        <time>2021-08-19T09:47:14Z</time>
      </trkpt>
      <trkpt lat="45.4213200" lon="6.3658890">
        <ele>1602.2</ele>
        <time>2021-08-19T09:47:17Z</time>
      </trkpt>
      <trkpt lat="45.4213890" lon="6.3659700">
        <ele>1603.2</ele>
        <time>2021-08-19T09:47:21Z</time>
      </trkpt>
      <trkpt lat="45.4214490" lon="6.3660680">
        <ele>1604.2</ele>
        <time>2021-08-19T09:47:25Z</time>
      </trkpt>
      <trkpt lat="45.4214680" lon="6.3660910">
        <ele>1604.4</ele>
        <time>2021-08-19T09:47:26Z</time>
      </trkpt>
      <trkpt lat="45.4215260" lon="6.3661510">
        <ele>1604.8</ele>
        <time>2021-08-19T09:47:29Z</time>
      </trkpt>
      <trkpt lat="45.4215710" lon="6.3661770">
        <ele>1605.6</ele>
        <time>2021-08-19T09:47:31Z</time>
      </trkpt>
      <trkpt lat="45.4216200" lon="6.3661910">
        <ele>1606.4</ele>
        <time>2021-08-19T09:47:33Z</time>
      </trkpt>
      <trkpt lat="45.4216700" lon="6.3661760">
        <ele>1606.8</ele>
        <time>2021-08-19T09:47:35Z</time>
      </trkpt>
      <trkpt lat="45.4217320" lon="6.3661160">
        <ele>1607.0</ele>
        <time>2021-08-19T09:47:38Z</time>
      </trkpt>
      <trkpt lat="45.4217450" lon="6.3660860">
        <ele>1607.4</ele>
        <time>2021-08-19T09:47:39Z</time>
      </trkpt>
      <trkpt lat="45.4217580" lon="6.3660480">
        <ele>1607.4</ele>
        <time>2021-08-19T09:47:40Z</time>
      </trkpt>
      <trkpt lat="45.4217660" lon="6.3660220">
        <ele>1607.6</ele>
        <time>2021-08-19T09:47:41Z</time>
      </trkpt>
      <trkpt lat="45.4217740" lon="6.3659890">
        <ele>1607.8</ele>
        <time>2021-08-19T09:47:42Z</time>
      </trkpt>
      <trkpt lat="45.4217820" lon="6.3659560">
        <ele>1608.0</ele>
        <time>2021-08-19T09:47:43Z</time>
      </trkpt>
      <trkpt lat="45.4217880" lon="6.3659230">
        <ele>1608.2</ele>
        <time>2021-08-19T09:47:44Z</time>
      </trkpt>
      <trkpt lat="45.4218050" lon="6.3658120">
        <ele>1608.8</ele>
        <time>2021-08-19T09:47:47Z</time>
      </trkpt>
      <trkpt lat="45.4218110" lon="6.3656190">
        <ele>1609.0</ele>
        <time>2021-08-19T09:47:52Z</time>
      </trkpt>
      <trkpt lat="45.4218230" lon="6.3654730">
        <ele>1609.8</ele>
        <time>2021-08-19T09:47:56Z</time>
      </trkpt>
      <trkpt lat="45.4218190" lon="6.3653610">
        <ele>1610.2</ele>
        <time>2021-08-19T09:47:59Z</time>
      </trkpt>
      <trkpt lat="45.4218080" lon="6.3652290">
        <ele>1611.4</ele>
        <time>2021-08-19T09:48:03Z</time>
      </trkpt>
      <trkpt lat="45.4218020" lon="6.3651860">
        <ele>1611.6</ele>
        <time>2021-08-19T09:48:04Z</time>
      </trkpt>
      <trkpt lat="45.4217870" lon="6.3650900">
        <ele>1612.6</ele>
        <time>2021-08-19T09:48:07Z</time>
      </trkpt>
      <trkpt lat="45.4217870" lon="6.3650900">
        <ele>1612.8</ele>
        <time>2021-08-19T09:48:08Z</time>
      </trkpt>
      <trkpt lat="45.4217710" lon="6.3649800">
        <ele>1613.0</ele>
        <time>2021-08-19T09:48:10Z</time>
      </trkpt>
      <trkpt lat="45.4217640" lon="6.3649200">
        <ele>1613.4</ele>
        <time>2021-08-19T09:48:12Z</time>
      </trkpt>
      <trkpt lat="45.4217610" lon="6.3648870">
        <ele>1613.4</ele>
        <time>2021-08-19T09:48:13Z</time>
      </trkpt>
      <trkpt lat="45.4217570" lon="6.3648140">
        <ele>1613.6</ele>
        <time>2021-08-19T09:48:15Z</time>
      </trkpt>
      <trkpt lat="45.4217590" lon="6.3647890">
        <ele>1613.8</ele>
        <time>2021-08-19T09:48:16Z</time>
      </trkpt>
      <trkpt lat="45.4217590" lon="6.3647490">
        <ele>1614.0</ele>
        <time>2021-08-19T09:48:17Z</time>
      </trkpt>
      <trkpt lat="45.4217610" lon="6.3646870">
        <ele>1614.8</ele>
        <time>2021-08-19T09:48:19Z</time>
      </trkpt>
      <trkpt lat="45.4217690" lon="6.3646220">
        <ele>1615.0</ele>
        <time>2021-08-19T09:48:21Z</time>
      </trkpt>
      <trkpt lat="45.4217730" lon="6.3645890">
        <ele>1615.2</ele>
        <time>2021-08-19T09:48:22Z</time>
      </trkpt>
      <trkpt lat="45.4217970" lon="6.3645190">
        <ele>1615.6</ele>
        <time>2021-08-19T09:48:24Z</time>
      </trkpt>
      <trkpt lat="45.4218090" lon="6.3644960">
        <ele>1616.0</ele>
        <time>2021-08-19T09:48:25Z</time>
      </trkpt>
      <trkpt lat="45.4218500" lon="6.3644100">
        <ele>1617.0</ele>
        <time>2021-08-19T09:48:28Z</time>
      </trkpt>
      <trkpt lat="45.4218990" lon="6.3643260">
        <ele>1617.6</ele>
        <time>2021-08-19T09:48:31Z</time>
      </trkpt>
      <trkpt lat="45.4219160" lon="6.3642970">
        <ele>1617.6</ele>
        <time>2021-08-19T09:48:32Z</time>
      </trkpt>
      <trkpt lat="45.4219480" lon="6.3642380">
        <ele>1618.2</ele>
        <time>2021-08-19T09:48:34Z</time>
      </trkpt>
      <trkpt lat="45.4219810" lon="6.3641810">
        <ele>1618.6</ele>
        <time>2021-08-19T09:48:36Z</time>
      </trkpt>
      <trkpt lat="45.4220450" lon="6.3640730">
        <ele>1619.2</ele>
        <time>2021-08-19T09:48:40Z</time>
      </trkpt>
      <trkpt lat="45.4220610" lon="6.3640470">
        <ele>1619.4</ele>
        <time>2021-08-19T09:48:41Z</time>
      </trkpt>
      <trkpt lat="45.4221140" lon="6.3639720">
        <ele>1619.8</ele>
        <time>2021-08-19T09:48:44Z</time>
      </trkpt>
      <trkpt lat="45.4221480" lon="6.3639200">
        <ele>1620.0</ele>
        <time>2021-08-19T09:48:46Z</time>
      </trkpt>
      <trkpt lat="45.4221670" lon="6.3638970">
        <ele>1620.2</ele>
        <time>2021-08-19T09:48:47Z</time>
      </trkpt>
      <trkpt lat="45.4221880" lon="6.3638670">
        <ele>1620.6</ele>
        <time>2021-08-19T09:48:48Z</time>
      </trkpt>
      <trkpt lat="45.4222500" lon="6.3637740">
        <ele>1621.6</ele>
        <time>2021-08-19T09:48:52Z</time>
      </trkpt>
      <trkpt lat="45.4223290" lon="6.3636580">
        <ele>1622.8</ele>
        <time>2021-08-19T09:48:57Z</time>
      </trkpt>
      <trkpt lat="45.4223790" lon="6.3635920">
        <ele>1623.6</ele>
        <time>2021-08-19T09:49:00Z</time>
      </trkpt>
      <trkpt lat="45.4223950" lon="6.3635700">
        <ele>1624.0</ele>
        <time>2021-08-19T09:49:01Z</time>
      </trkpt>
      <trkpt lat="45.4224600" lon="6.3634820">
        <ele>1625.0</ele>
        <time>2021-08-19T09:49:05Z</time>
      </trkpt>
      <trkpt lat="45.4225330" lon="6.3633900">
        <ele>1626.0</ele>
        <time>2021-08-19T09:49:09Z</time>
      </trkpt>
      <trkpt lat="45.4225460" lon="6.3633710">
        <ele>1626.2</ele>
        <time>2021-08-19T09:49:10Z</time>
      </trkpt>
      <trkpt lat="45.4226460" lon="6.3632240">
        <ele>1627.4</ele>
        <time>2021-08-19T09:49:16Z</time>
      </trkpt>
      <trkpt lat="45.4226610" lon="6.3632020">
        <ele>1627.6</ele>
        <time>2021-08-19T09:49:17Z</time>
      </trkpt>
      <trkpt lat="45.4227080" lon="6.3631360">
        <ele>1628.4</ele>
        <time>2021-08-19T09:49:20Z</time>
      </trkpt>
      <trkpt lat="45.4227750" lon="6.3630560">
        <ele>1629.4</ele>
        <time>2021-08-19T09:49:24Z</time>
      </trkpt>
      <trkpt lat="45.4227910" lon="6.3630350">
        <ele>1629.6</ele>
        <time>2021-08-19T09:49:25Z</time>
      </trkpt>
      <trkpt lat="45.4228260" lon="6.3629930">
        <ele>1629.8</ele>
        <time>2021-08-19T09:49:27Z</time>
      </trkpt>
      <trkpt lat="45.4228850" lon="6.3629390">
        <ele>1630.4</ele>
        <time>2021-08-19T09:49:30Z</time>
      </trkpt>
      <trkpt lat="45.4229650" lon="6.3628820">
        <ele>1631.2</ele>
        <time>2021-08-19T09:49:34Z</time>
      </trkpt>
      <trkpt lat="45.4229850" lon="6.3628690">
        <ele>1631.6</ele>
        <time>2021-08-19T09:49:35Z</time>
      </trkpt>
      <trkpt lat="45.4230840" lon="6.3628190">
        <ele>1632.6</ele>
        <time>2021-08-19T09:49:40Z</time>
      </trkpt>
      <trkpt lat="45.4231250" lon="6.3627970">
        <ele>1632.8</ele>
        <time>2021-08-19T09:49:42Z</time>
      </trkpt>
      <trkpt lat="45.4232310" lon="6.3627630">
        <ele>1634.0</ele>
        <time>2021-08-19T09:49:47Z</time>
      </trkpt>
      <trkpt lat="45.4233170" lon="6.3627280">
        <ele>1634.6</ele>
        <time>2021-08-19T09:49:51Z</time>
      </trkpt>
      <trkpt lat="45.4233840" lon="6.3626960">
        <ele>1635.0</ele>
        <time>2021-08-19T09:49:54Z</time>
      </trkpt>
      <trkpt lat="45.4234860" lon="6.3626160">
        <ele>1636.0</ele>
        <time>2021-08-19T09:49:59Z</time>
      </trkpt>
      <trkpt lat="45.4235520" lon="6.3624450">
        <ele>1637.2</ele>
        <time>2021-08-19T09:50:05Z</time>
      </trkpt>
      <trkpt lat="45.4235330" lon="6.3622840">
        <ele>1637.8</ele>
        <time>2021-08-19T09:50:10Z</time>
      </trkpt>
      <trkpt lat="45.4235070" lon="6.3622230">
        <ele>1638.0</ele>
        <time>2021-08-19T09:50:12Z</time>
      </trkpt>
      <trkpt lat="45.4234910" lon="6.3621950">
        <ele>1638.2</ele>
        <time>2021-08-19T09:50:13Z</time>
      </trkpt>
      <trkpt lat="45.4234330" lon="6.3621290">
        <ele>1639.2</ele>
        <time>2021-08-19T09:50:17Z</time>
      </trkpt>
      <trkpt lat="45.4234130" lon="6.3621130">
        <ele>1639.4</ele>
        <time>2021-08-19T09:50:18Z</time>
      </trkpt>
      <trkpt lat="45.4233230" lon="6.3620350">
        <ele>1639.8</ele>
        <time>2021-08-19T09:50:23Z</time>
      </trkpt>
      <trkpt lat="45.4233080" lon="6.3620180">
        <ele>1640.2</ele>
        <time>2021-08-19T09:50:24Z</time>
      </trkpt>
      <trkpt lat="45.4232920" lon="6.3620000">
        <ele>1640.6</ele>
        <time>2021-08-19T09:50:25Z</time>
      </trkpt>
      <trkpt lat="45.4232350" lon="6.3619300">
        <ele>1641.2</ele>
        <time>2021-08-19T09:50:28Z</time>
      </trkpt>
      <trkpt lat="45.4232090" lon="6.3618700">
        <ele>1641.8</ele>
        <time>2021-08-19T09:50:30Z</time>
      </trkpt>
      <trkpt lat="45.4231970" lon="6.3618360">
        <ele>1642.0</ele>
        <time>2021-08-19T09:50:31Z</time>
      </trkpt>
      <trkpt lat="45.4231840" lon="6.3618000">
        <ele>1642.0</ele>
        <time>2021-08-19T09:50:32Z</time>
      </trkpt>
      <trkpt lat="45.4231720" lon="6.3617290">
        <ele>1642.8</ele>
        <time>2021-08-19T09:50:34Z</time>
      </trkpt>
      <trkpt lat="45.4231630" lon="6.3616210">
        <ele>1643.4</ele>
        <time>2021-08-19T09:50:37Z</time>
      </trkpt>
      <trkpt lat="45.4231650" lon="6.3615840">
        <ele>1643.6</ele>
        <time>2021-08-19T09:50:38Z</time>
      </trkpt>
      <trkpt lat="45.4231670" lon="6.3615480">
        <ele>1643.8</ele>
        <time>2021-08-19T09:50:39Z</time>
      </trkpt>
      <trkpt lat="45.4231710" lon="6.3615150">
        <ele>1643.8</ele>
        <time>2021-08-19T09:50:40Z</time>
      </trkpt>
      <trkpt lat="45.4231740" lon="6.3614830">
        <ele>1644.0</ele>
        <time>2021-08-19T09:50:41Z</time>
      </trkpt>
      <trkpt lat="45.4231810" lon="6.3614530">
        <ele>1644.0</ele>
        <time>2021-08-19T09:50:42Z</time>
      </trkpt>
      <trkpt lat="45.4231880" lon="6.3614220">
        <ele>1644.2</ele>
        <time>2021-08-19T09:50:43Z</time>
      </trkpt>
      <trkpt lat="45.4231930" lon="6.3613920">
        <ele>1644.4</ele>
        <time>2021-08-19T09:50:44Z</time>
      </trkpt>
      <trkpt lat="45.4232090" lon="6.3613290">
        <ele>1645.4</ele>
        <time>2021-08-19T09:50:46Z</time>
      </trkpt>
      <trkpt lat="45.4232600" lon="6.3611400">
        <ele>1646.6</ele>
        <time>2021-08-19T09:50:52Z</time>
      </trkpt>
      <trkpt lat="45.4232640" lon="6.3611050">
        <ele>1647.0</ele>
        <time>2021-08-19T09:50:53Z</time>
      </trkpt>
      <trkpt lat="45.4232700" lon="6.3610700">
        <ele>1647.0</ele>
        <time>2021-08-19T09:50:54Z</time>
      </trkpt>
      <trkpt lat="45.4232740" lon="6.3610360">
        <ele>1647.4</ele>
        <time>2021-08-19T09:50:55Z</time>
      </trkpt>
      <trkpt lat="45.4232750" lon="6.3610010">
        <ele>1647.6</ele>
        <time>2021-08-19T09:50:56Z</time>
      </trkpt>
      <trkpt lat="45.4232750" lon="6.3609320">
        <ele>1648.2</ele>
        <time>2021-08-19T09:50:58Z</time>
      </trkpt>
      <trkpt lat="45.4232690" lon="6.3608960">
        <ele>1648.4</ele>
        <time>2021-08-19T09:50:59Z</time>
      </trkpt>
      <trkpt lat="45.4232640" lon="6.3608600">
        <ele>1648.6</ele>
        <time>2021-08-19T09:51:00Z</time>
      </trkpt>
      <trkpt lat="45.4232620" lon="6.3608250">
        <ele>1648.8</ele>
        <time>2021-08-19T09:51:01Z</time>
      </trkpt>
      <trkpt lat="45.4232570" lon="6.3607910">
        <ele>1649.0</ele>
        <time>2021-08-19T09:51:02Z</time>
      </trkpt>
      <trkpt lat="45.4232470" lon="6.3607250">
        <ele>1649.2</ele>
        <time>2021-08-19T09:51:04Z</time>
      </trkpt>
      <trkpt lat="45.4232400" lon="6.3606630">
        <ele>1649.8</ele>
        <time>2021-08-19T09:51:06Z</time>
      </trkpt>
      <trkpt lat="45.4232280" lon="6.3606000">
        <ele>1650.4</ele>
        <time>2021-08-19T09:51:08Z</time>
      </trkpt>
      <trkpt lat="45.4232190" lon="6.3605690">
        <ele>1650.6</ele>
        <time>2021-08-19T09:51:09Z</time>
      </trkpt>
      <trkpt lat="45.4231990" lon="6.3605050">
        <ele>1651.2</ele>
        <time>2021-08-19T09:51:11Z</time>
      </trkpt>
      <trkpt lat="45.4231830" lon="6.3604410">
        <ele>1651.4</ele>
        <time>2021-08-19T09:51:13Z</time>
      </trkpt>
      <trkpt lat="45.4231440" lon="6.3603220">
        <ele>1652.2</ele>
        <time>2021-08-19T09:51:17Z</time>
      </trkpt>
      <trkpt lat="45.4231150" lon="6.3602330">
        <ele>1653.0</ele>
        <time>2021-08-19T09:51:20Z</time>
      </trkpt>
      <trkpt lat="45.4230950" lon="6.3601740">
        <ele>1653.2</ele>
        <time>2021-08-19T09:51:22Z</time>
      </trkpt>
      <trkpt lat="45.4230510" lon="6.3600270">
        <ele>1653.8</ele>
        <time>2021-08-19T09:51:26Z</time>
      </trkpt>
      <trkpt lat="45.4230310" lon="6.3599590">
        <ele>1654.2</ele>
        <time>2021-08-19T09:51:28Z</time>
      </trkpt>
      <trkpt lat="45.4230220" lon="6.3599250">
        <ele>1654.4</ele>
        <time>2021-08-19T09:51:29Z</time>
      </trkpt>
      <trkpt lat="45.4230150" lon="6.3597760">
        <ele>1655.2</ele>
        <time>2021-08-19T09:51:33Z</time>
      </trkpt>
      <trkpt lat="45.4230210" lon="6.3597360">
        <ele>1655.2</ele>
        <time>2021-08-19T09:51:34Z</time>
      </trkpt>
      <trkpt lat="45.4230320" lon="6.3597000">
        <ele>1655.4</ele>
        <time>2021-08-19T09:51:35Z</time>
      </trkpt>
      <trkpt lat="45.4230660" lon="6.3596400">
        <ele>1655.8</ele>
        <time>2021-08-19T09:51:37Z</time>
      </trkpt>
      <trkpt lat="45.4231120" lon="6.3595990">
        <ele>1656.0</ele>
        <time>2021-08-19T09:51:39Z</time>
      </trkpt>
      <trkpt lat="45.4231860" lon="6.3595980">
        <ele>1656.6</ele>
        <time>2021-08-19T09:51:42Z</time>
      </trkpt>
      <trkpt lat="45.4232090" lon="6.3596150">
        <ele>1656.6</ele>
        <time>2021-08-19T09:51:43Z</time>
      </trkpt>
      <trkpt lat="45.4232770" lon="6.3597640">
        <ele>1657.8</ele>
        <time>2021-08-19T09:51:48Z</time>
      </trkpt>
      <trkpt lat="45.4232980" lon="6.3600100">
        <ele>1658.4</ele>
        <time>2021-08-19T09:51:54Z</time>
      </trkpt>
      <trkpt lat="45.4233030" lon="6.3600520">
        <ele>1658.8</ele>
        <time>2021-08-19T09:51:55Z</time>
      </trkpt>
      <trkpt lat="45.4233580" lon="6.3602040">
        <ele>1660.0</ele>
        <time>2021-08-19T09:51:59Z</time>
      </trkpt>
      <trkpt lat="45.4233750" lon="6.3602390">
        <ele>1660.2</ele>
        <time>2021-08-19T09:52:00Z</time>
      </trkpt>
      <trkpt lat="45.4234500" lon="6.3603550">
        <ele>1661.0</ele>
        <time>2021-08-19T09:52:04Z</time>
      </trkpt>
      <trkpt lat="45.4234710" lon="6.3603800">
        <ele>1661.2</ele>
        <time>2021-08-19T09:52:05Z</time>
      </trkpt>
      <trkpt lat="45.4235130" lon="6.3604190">
        <ele>1662.0</ele>
        <time>2021-08-19T09:52:07Z</time>
      </trkpt>
      <trkpt lat="45.4235340" lon="6.3604390">
        <ele>1662.2</ele>
        <time>2021-08-19T09:52:08Z</time>
      </trkpt>
      <trkpt lat="45.4236200" lon="6.3605170">
        <ele>1662.8</ele>
        <time>2021-08-19T09:52:12Z</time>
      </trkpt>
      <trkpt lat="45.4236410" lon="6.3605360">
        <ele>1663.0</ele>
        <time>2021-08-19T09:52:13Z</time>
      </trkpt>
      <trkpt lat="45.4236830" lon="6.3605730">
        <ele>1663.4</ele>
        <time>2021-08-19T09:52:15Z</time>
      </trkpt>
      <trkpt lat="45.4237730" lon="6.3606420">
        <ele>1664.0</ele>
        <time>2021-08-19T09:52:19Z</time>
      </trkpt>
      <trkpt lat="45.4237930" lon="6.3606590">
        <ele>1664.0</ele>
        <time>2021-08-19T09:52:20Z</time>
      </trkpt>
      <trkpt lat="45.4238140" lon="6.3606760">
        <ele>1664.4</ele>
        <time>2021-08-19T09:52:21Z</time>
      </trkpt>
      <trkpt lat="45.4238340" lon="6.3606920">
        <ele>1664.4</ele>
        <time>2021-08-19T09:52:22Z</time>
      </trkpt>
      <trkpt lat="45.4238940" lon="6.3607440">
        <ele>1665.2</ele>
        <time>2021-08-19T09:52:25Z</time>
      </trkpt>
      <trkpt lat="45.4239150" lon="6.3607610">
        <ele>1665.4</ele>
        <time>2021-08-19T09:52:26Z</time>
      </trkpt>
      <trkpt lat="45.4239360" lon="6.3607780">
        <ele>1665.6</ele>
        <time>2021-08-19T09:52:27Z</time>
      </trkpt>
      <trkpt lat="45.4240010" lon="6.3608310">
        <ele>1666.4</ele>
        <time>2021-08-19T09:52:30Z</time>
      </trkpt>
      <trkpt lat="45.4240220" lon="6.3608480">
        <ele>1666.6</ele>
        <time>2021-08-19T09:52:31Z</time>
      </trkpt>
      <trkpt lat="45.4240420" lon="6.3608670">
        <ele>1666.8</ele>
        <time>2021-08-19T09:52:32Z</time>
      </trkpt>
      <trkpt lat="45.4241100" lon="6.3609260">
        <ele>1667.6</ele>
        <time>2021-08-19T09:52:35Z</time>
      </trkpt>
      <trkpt lat="45.4241320" lon="6.3609430">
        <ele>1667.6</ele>
        <time>2021-08-19T09:52:36Z</time>
      </trkpt>
      <trkpt lat="45.4241930" lon="6.3609980">
        <ele>1668.4</ele>
        <time>2021-08-19T09:52:39Z</time>
      </trkpt>
      <trkpt lat="45.4242330" lon="6.3610360">
        <ele>1669.0</ele>
        <time>2021-08-19T09:52:41Z</time>
      </trkpt>
      <trkpt lat="45.4243150" lon="6.3611070">
        <ele>1669.8</ele>
        <time>2021-08-19T09:52:45Z</time>
      </trkpt>
      <trkpt lat="45.4243320" lon="6.3611280">
        <ele>1670.2</ele>
        <time>2021-08-19T09:52:46Z</time>
      </trkpt>
      <trkpt lat="45.4244160" lon="6.3612110">
        <ele>1671.2</ele>
        <time>2021-08-19T09:52:50Z</time>
      </trkpt>
      <trkpt lat="45.4244700" lon="6.3612760">
        <ele>1671.8</ele>
        <time>2021-08-19T09:52:53Z</time>
      </trkpt>
      <trkpt lat="45.4245320" lon="6.3613380">
        <ele>1672.2</ele>
        <time>2021-08-19T09:52:56Z</time>
      </trkpt>
      <trkpt lat="45.4246030" lon="6.3614290">
        <ele>1673.2</ele>
        <time>2021-08-19T09:53:00Z</time>
      </trkpt>
      <trkpt lat="45.4246200" lon="6.3614540">
        <ele>1673.6</ele>
        <time>2021-08-19T09:53:01Z</time>
      </trkpt>
      <trkpt lat="45.4246520" lon="6.3614990">
        <ele>1673.8</ele>
        <time>2021-08-19T09:53:03Z</time>
      </trkpt>
      <trkpt lat="45.4247410" lon="6.3616310">
        <ele>1674.8</ele>
        <time>2021-08-19T09:53:08Z</time>
      </trkpt>
      <trkpt lat="45.4247930" lon="6.3617040">
        <ele>1675.8</ele>
        <time>2021-08-19T09:53:11Z</time>
      </trkpt>
      <trkpt lat="45.4248280" lon="6.3617570">
        <ele>1676.2</ele>
        <time>2021-08-19T09:53:13Z</time>
      </trkpt>
      <trkpt lat="45.4248440" lon="6.3617820">
        <ele>1676.4</ele>
        <time>2021-08-19T09:53:14Z</time>
      </trkpt>
      <trkpt lat="45.4248600" lon="6.3618060">
        <ele>1676.8</ele>
        <time>2021-08-19T09:53:16Z</time>
      </trkpt>
      <trkpt lat="45.4249020" lon="6.3618770">
        <ele>1677.2</ele>
        <time>2021-08-19T09:53:18Z</time>
      </trkpt>
      <trkpt lat="45.4249200" lon="6.3619090">
        <ele>1677.4</ele>
        <time>2021-08-19T09:53:19Z</time>
      </trkpt>
      <trkpt lat="45.4249360" lon="6.3619350">
        <ele>1677.6</ele>
        <time>2021-08-19T09:53:20Z</time>
      </trkpt>
      <trkpt lat="45.4249540" lon="6.3619600">
        <ele>1678.0</ele>
        <time>2021-08-19T09:53:21Z</time>
      </trkpt>
      <trkpt lat="45.4249710" lon="6.3619810">
        <ele>1678.4</ele>
        <time>2021-08-19T09:53:22Z</time>
      </trkpt>
      <trkpt lat="45.4249870" lon="6.3620010">
        <ele>1678.4</ele>
        <time>2021-08-19T09:53:23Z</time>
      </trkpt>
      <trkpt lat="45.4250150" lon="6.3620440">
        <ele>1678.8</ele>
        <time>2021-08-19T09:53:25Z</time>
      </trkpt>
      <trkpt lat="45.4250300" lon="6.3620710">
        <ele>1679.0</ele>
        <time>2021-08-19T09:53:26Z</time>
      </trkpt>
      <trkpt lat="45.4250450" lon="6.3621000">
        <ele>1679.0</ele>
        <time>2021-08-19T09:53:27Z</time>
      </trkpt>
      <trkpt lat="45.4250930" lon="6.3621840">
        <ele>1679.4</ele>
        <time>2021-08-19T09:53:30Z</time>
      </trkpt>
      <trkpt lat="45.4251320" lon="6.3622360">
        <ele>1679.8</ele>
        <time>2021-08-19T09:53:32Z</time>
      </trkpt>
      <trkpt lat="45.4251680" lon="6.3622870">
        <ele>1680.2</ele>
        <time>2021-08-19T09:53:34Z</time>
      </trkpt>
      <trkpt lat="45.4252650" lon="6.3624400">
        <ele>1681.4</ele>
        <time>2021-08-19T09:53:40Z</time>
      </trkpt>
      <trkpt lat="45.4253160" lon="6.3625180">
        <ele>1681.8</ele>
        <time>2021-08-19T09:53:43Z</time>
      </trkpt>
      <trkpt lat="45.4253310" lon="6.3625430">
        <ele>1682.2</ele>
        <time>2021-08-19T09:53:44Z</time>
      </trkpt>
      <trkpt lat="45.4253470" lon="6.3625670">
        <ele>1682.4</ele>
        <time>2021-08-19T09:53:45Z</time>
      </trkpt>
      <trkpt lat="45.4253810" lon="6.3626150">
        <ele>1683.0</ele>
        <time>2021-08-19T09:53:47Z</time>
      </trkpt>
      <trkpt lat="45.4253960" lon="6.3626380">
        <ele>1683.4</ele>
        <time>2021-08-19T09:53:48Z</time>
      </trkpt>
      <trkpt lat="45.4254110" lon="6.3626610">
        <ele>1683.8</ele>
        <time>2021-08-19T09:53:49Z</time>
      </trkpt>
      <trkpt lat="45.4254430" lon="6.3627080">
        <ele>1684.8</ele>
        <time>2021-08-19T09:53:51Z</time>
      </trkpt>
      <trkpt lat="45.4255160" lon="6.3628880">
        <ele>1685.4</ele>
        <time>2021-08-19T09:53:57Z</time>
      </trkpt>
      <trkpt lat="45.4255230" lon="6.3629560">
        <ele>1685.8</ele>
        <time>2021-08-19T09:53:59Z</time>
      </trkpt>
      <trkpt lat="45.4255200" lon="6.3630190">
        <ele>1686.4</ele>
        <time>2021-08-19T09:54:01Z</time>
      </trkpt>
      <trkpt lat="45.4255160" lon="6.3630500">
        <ele>1686.6</ele>
        <time>2021-08-19T09:54:02Z</time>
      </trkpt>
      <trkpt lat="45.4255120" lon="6.3630800">
        <ele>1686.6</ele>
        <time>2021-08-19T09:54:03Z</time>
      </trkpt>
      <trkpt lat="45.4255070" lon="6.3631100">
        <ele>1687.2</ele>
        <time>2021-08-19T09:54:04Z</time>
      </trkpt>
      <trkpt lat="45.4254670" lon="6.3632570">
        <ele>1688.0</ele>
        <time>2021-08-19T09:54:09Z</time>
      </trkpt>
      <trkpt lat="45.4254500" lon="6.3633210">
        <ele>1688.4</ele>
        <time>2021-08-19T09:54:11Z</time>
      </trkpt>
      <trkpt lat="45.4254220" lon="6.3634460">
        <ele>1689.4</ele>
        <time>2021-08-19T09:54:15Z</time>
      </trkpt>
      <trkpt lat="45.4253820" lon="6.3636210">
        <ele>1690.4</ele>
        <time>2021-08-19T09:54:20Z</time>
      </trkpt>
      <trkpt lat="45.4253650" lon="6.3636860">
        <ele>1690.6</ele>
        <time>2021-08-19T09:54:22Z</time>
      </trkpt>
      <trkpt lat="45.4253560" lon="6.3637190">
        <ele>1691.0</ele>
        <time>2021-08-19T09:54:23Z</time>
      </trkpt>
      <trkpt lat="45.4253480" lon="6.3637510">
        <ele>1691.4</ele>
        <time>2021-08-19T09:54:24Z</time>
      </trkpt>
      <trkpt lat="45.4253400" lon="6.3637830">
        <ele>1691.4</ele>
        <time>2021-08-19T09:54:25Z</time>
      </trkpt>
      <trkpt lat="45.4252920" lon="6.3639400">
        <ele>1692.0</ele>
        <time>2021-08-19T09:54:30Z</time>
      </trkpt>
      <trkpt lat="45.4252830" lon="6.3639700">
        <ele>1692.4</ele>
        <time>2021-08-19T09:54:31Z</time>
      </trkpt>
      <trkpt lat="45.4252660" lon="6.3640310">
        <ele>1692.6</ele>
        <time>2021-08-19T09:54:33Z</time>
      </trkpt>
      <trkpt lat="45.4252370" lon="6.3641210">
        <ele>1693.4</ele>
        <time>2021-08-19T09:54:36Z</time>
      </trkpt>
      <trkpt lat="45.4252260" lon="6.3641530">
        <ele>1694.0</ele>
        <time>2021-08-19T09:54:37Z</time>
      </trkpt>
      <trkpt lat="45.4251800" lon="6.3643070">
        <ele>1694.8</ele>
        <time>2021-08-19T09:54:42Z</time>
      </trkpt>
      <trkpt lat="45.4251590" lon="6.3643710">
        <ele>1695.0</ele>
        <time>2021-08-19T09:54:44Z</time>
      </trkpt>
      <trkpt lat="45.4251240" lon="6.3645010">
        <ele>1695.8</ele>
        <time>2021-08-19T09:54:48Z</time>
      </trkpt>
      <trkpt lat="45.4250750" lon="6.3646600">
        <ele>1696.8</ele>
        <time>2021-08-19T09:54:53Z</time>
      </trkpt>
      <trkpt lat="45.4250620" lon="6.3646900">
        <ele>1697.0</ele>
        <time>2021-08-19T09:54:54Z</time>
      </trkpt>
      <trkpt lat="45.4250150" lon="6.3647680">
        <ele>1697.4</ele>
        <time>2021-08-19T09:54:57Z</time>
      </trkpt>
      <trkpt lat="45.4249980" lon="6.3647920">
        <ele>1697.6</ele>
        <time>2021-08-19T09:54:58Z</time>
      </trkpt>
      <trkpt lat="45.4249810" lon="6.3648140">
        <ele>1697.6</ele>
        <time>2021-08-19T09:54:59Z</time>
      </trkpt>
      <trkpt lat="45.4249620" lon="6.3648350">
        <ele>1698.0</ele>
        <time>2021-08-19T09:55:00Z</time>
      </trkpt>
      <trkpt lat="45.4249010" lon="6.3648950">
        <ele>1699.0</ele>
        <time>2021-08-19T09:55:03Z</time>
      </trkpt>
      <trkpt lat="45.4248820" lon="6.3649170">
        <ele>1699.2</ele>
        <time>2021-08-19T09:55:04Z</time>
      </trkpt>
      <trkpt lat="45.4248460" lon="6.3649630">
        <ele>1699.8</ele>
        <time>2021-08-19T09:55:06Z</time>
      </trkpt>
      <trkpt lat="45.4248300" lon="6.3649870">
        <ele>1700.0</ele>
        <time>2021-08-19T09:55:07Z</time>
      </trkpt>
      <trkpt lat="45.4248100" lon="6.3650440">
        <ele>1700.4</ele>
        <time>2021-08-19T09:55:09Z</time>
      </trkpt>
      <trkpt lat="45.4248010" lon="6.3650720">
        <ele>1700.4</ele>
        <time>2021-08-19T09:55:10Z</time>
      </trkpt>
      <trkpt lat="45.4247890" lon="6.3652100">
        <ele>1701.4</ele>
        <time>2021-08-19T09:55:14Z</time>
      </trkpt>
      <trkpt lat="45.4247940" lon="6.3652820">
        <ele>1701.8</ele>
        <time>2021-08-19T09:55:16Z</time>
      </trkpt>
      <trkpt lat="45.4248260" lon="6.3654950">
        <ele>1702.6</ele>
        <time>2021-08-19T09:55:22Z</time>
      </trkpt>
      <trkpt lat="45.4248480" lon="6.3656030">
        <ele>1703.8</ele>
        <time>2021-08-19T09:55:25Z</time>
      </trkpt>
      <trkpt lat="45.4248720" lon="6.3658050">
        <ele>1705.0</ele>
        <time>2021-08-19T09:55:31Z</time>
      </trkpt>
      <trkpt lat="45.4248540" lon="6.3658920">
        <ele>1705.4</ele>
        <time>2021-08-19T09:55:34Z</time>
      </trkpt>
      <trkpt lat="45.4247880" lon="6.3659740">
        <ele>1706.2</ele>
        <time>2021-08-19T09:55:38Z</time>
      </trkpt>
      <trkpt lat="45.4247650" lon="6.3659840">
        <ele>1706.2</ele>
        <time>2021-08-19T09:55:39Z</time>
      </trkpt>
      <trkpt lat="45.4246830" lon="6.3660040">
        <ele>1707.2</ele>
        <time>2021-08-19T09:55:42Z</time>
      </trkpt>
      <trkpt lat="45.4245480" lon="6.3660080">
        <ele>1708.2</ele>
        <time>2021-08-19T09:55:47Z</time>
      </trkpt>
      <trkpt lat="45.4245160" lon="6.3660080">
        <ele>1708.2</ele>
        <time>2021-08-19T09:55:48Z</time>
      </trkpt>
      <trkpt lat="45.4243790" lon="6.3660270">
        <ele>1709.4</ele>
        <time>2021-08-19T09:55:52Z</time>
      </trkpt>
      <trkpt lat="45.4243220" lon="6.3660500">
        <ele>1709.8</ele>
        <time>2021-08-19T09:55:54Z</time>
      </trkpt>
      <trkpt lat="45.4242570" lon="6.3660890">
        <ele>1710.6</ele>
        <time>2021-08-19T09:55:56Z</time>
      </trkpt>
      <trkpt lat="45.4241620" lon="6.3661990">
        <ele>1711.2</ele>
        <time>2021-08-19T09:56:00Z</time>
      </trkpt>
      <trkpt lat="45.4241270" lon="6.3662750">
        <ele>1711.6</ele>
        <time>2021-08-19T09:56:02Z</time>
      </trkpt>
      <trkpt lat="45.4241050" lon="6.3663950">
        <ele>1712.2</ele>
        <time>2021-08-19T09:56:05Z</time>
      </trkpt>
      <trkpt lat="45.4241010" lon="6.3664780">
        <ele>1713.0</ele>
        <time>2021-08-19T09:56:07Z</time>
      </trkpt>
      <trkpt lat="45.4241130" lon="6.3666050">
        <ele>1713.6</ele>
        <time>2021-08-19T09:56:10Z</time>
      </trkpt>
      <trkpt lat="45.4241200" lon="6.3666470">
        <ele>1714.0</ele>
        <time>2021-08-19T09:56:11Z</time>
      </trkpt>
      <trkpt lat="45.4241310" lon="6.3666890">
        <ele>1714.2</ele>
        <time>2021-08-19T09:56:12Z</time>
      </trkpt>
      <trkpt lat="45.4241620" lon="6.3668090">
        <ele>1715.0</ele>
        <time>2021-08-19T09:56:15Z</time>
      </trkpt>
      <trkpt lat="45.4241740" lon="6.3668450">
        <ele>1715.2</ele>
        <time>2021-08-19T09:56:16Z</time>
      </trkpt>
      <trkpt lat="45.4242090" lon="6.3669480">
        <ele>1715.8</ele>
        <time>2021-08-19T09:56:19Z</time>
      </trkpt>
      <trkpt lat="45.4242330" lon="6.3670180">
        <ele>1716.2</ele>
        <time>2021-08-19T09:56:21Z</time>
      </trkpt>
      <trkpt lat="45.4242460" lon="6.3670530">
        <ele>1716.4</ele>
        <time>2021-08-19T09:56:22Z</time>
      </trkpt>
      <trkpt lat="45.4242710" lon="6.3671220">
        <ele>1716.8</ele>
        <time>2021-08-19T09:56:24Z</time>
      </trkpt>
      <trkpt lat="45.4243120" lon="6.3672190">
        <ele>1717.4</ele>
        <time>2021-08-19T09:56:27Z</time>
      </trkpt>
      <trkpt lat="45.4243280" lon="6.3672490">
        <ele>1717.4</ele>
        <time>2021-08-19T09:56:28Z</time>
      </trkpt>
      <trkpt lat="45.4244250" lon="6.3673860">
        <ele>1718.2</ele>
        <time>2021-08-19T09:56:33Z</time>
      </trkpt>
      <trkpt lat="45.4244440" lon="6.3674140">
        <ele>1718.6</ele>
        <time>2021-08-19T09:56:34Z</time>
      </trkpt>
      <trkpt lat="45.4245240" lon="6.3675350">
        <ele>1719.4</ele>
        <time>2021-08-19T09:56:38Z</time>
      </trkpt>
      <trkpt lat="45.4245440" lon="6.3675660">
        <ele>1719.6</ele>
        <time>2021-08-19T09:56:39Z</time>
      </trkpt>
      <trkpt lat="45.4246220" lon="6.3676970">
        <ele>1720.6</ele>
        <time>2021-08-19T09:56:43Z</time>
      </trkpt>
      <trkpt lat="45.4246400" lon="6.3677300">
        <ele>1720.8</ele>
        <time>2021-08-19T09:56:44Z</time>
      </trkpt>
      <trkpt lat="45.4247140" lon="6.3678970">
        <ele>1721.8</ele>
        <time>2021-08-19T09:56:49Z</time>
      </trkpt>
      <trkpt lat="45.4247390" lon="6.3679660">
        <ele>1722.2</ele>
        <time>2021-08-19T09:56:51Z</time>
      </trkpt>
      <trkpt lat="45.4247800" lon="6.3680660">
        <ele>1723.0</ele>
        <time>2021-08-19T09:56:54Z</time>
      </trkpt>
      <trkpt lat="45.4248150" lon="6.3681780">
        <ele>1724.0</ele>
        <time>2021-08-19T09:56:57Z</time>
      </trkpt>
      <trkpt lat="45.4248300" lon="6.3682120">
        <ele>1724.2</ele>
        <time>2021-08-19T09:56:58Z</time>
      </trkpt>
      <trkpt lat="45.4248580" lon="6.3682810">
        <ele>1724.8</ele>
        <time>2021-08-19T09:57:00Z</time>
      </trkpt>
      <trkpt lat="45.4248990" lon="6.3683880">
        <ele>1725.4</ele>
        <time>2021-08-19T09:57:03Z</time>
      </trkpt>
      <trkpt lat="45.4249900" lon="6.3685880">
        <ele>1726.0</ele>
        <time>2021-08-19T09:57:09Z</time>
      </trkpt>
      <trkpt lat="45.4250260" lon="6.3686530">
        <ele>1726.4</ele>
        <time>2021-08-19T09:57:11Z</time>
      </trkpt>
      <trkpt lat="45.4251100" lon="6.3688100">
        <ele>1727.4</ele>
        <time>2021-08-19T09:57:16Z</time>
      </trkpt>
      <trkpt lat="45.4251440" lon="6.3688710">
        <ele>1727.8</ele>
        <time>2021-08-19T09:57:18Z</time>
      </trkpt>
      <trkpt lat="45.4251810" lon="6.3689740">
        <ele>1728.8</ele>
        <time>2021-08-19T09:57:21Z</time>
      </trkpt>
      <trkpt lat="45.4251840" lon="6.3690490">
        <ele>1729.6</ele>
        <time>2021-08-19T09:57:23Z</time>
      </trkpt>
      <trkpt lat="45.4251740" lon="6.3690860">
        <ele>1729.8</ele>
        <time>2021-08-19T09:57:24Z</time>
      </trkpt>
      <trkpt lat="45.4251600" lon="6.3691210">
        <ele>1730.0</ele>
        <time>2021-08-19T09:57:25Z</time>
      </trkpt>
      <trkpt lat="45.4251310" lon="6.3691810">
        <ele>1730.4</ele>
        <time>2021-08-19T09:57:27Z</time>
      </trkpt>
      <trkpt lat="45.4251140" lon="6.3692080">
        <ele>1730.4</ele>
        <time>2021-08-19T09:57:28Z</time>
      </trkpt>
      <trkpt lat="45.4250960" lon="6.3692340">
        <ele>1730.8</ele>
        <time>2021-08-19T09:57:29Z</time>
      </trkpt>
      <trkpt lat="45.4250350" lon="6.3693100">
        <ele>1731.2</ele>
        <time>2021-08-19T09:57:32Z</time>
      </trkpt>
      <trkpt lat="45.4250170" lon="6.3693340">
        <ele>1731.4</ele>
        <time>2021-08-19T09:57:33Z</time>
      </trkpt>
      <trkpt lat="45.4249990" lon="6.3693610">
        <ele>1731.8</ele>
        <time>2021-08-19T09:57:34Z</time>
      </trkpt>
      <trkpt lat="45.4249630" lon="6.3694160">
        <ele>1732.4</ele>
        <time>2021-08-19T09:57:36Z</time>
      </trkpt>
      <trkpt lat="45.4249020" lon="6.3695500">
        <ele>1733.4</ele>
        <time>2021-08-19T09:57:40Z</time>
      </trkpt>
      <trkpt lat="45.4248690" lon="6.3697090">
        <ele>1734.2</ele>
        <time>2021-08-19T09:57:44Z</time>
      </trkpt>
      <trkpt lat="45.4248570" lon="6.3698660">
        <ele>1735.0</ele>
        <time>2021-08-19T09:57:48Z</time>
      </trkpt>
      <trkpt lat="45.4248500" lon="6.3699810">
        <ele>1735.4</ele>
        <time>2021-08-19T09:57:51Z</time>
      </trkpt>
      <trkpt lat="45.4248510" lon="6.3701980">
        <ele>1736.4</ele>
        <time>2021-08-19T09:57:57Z</time>
      </trkpt>
      <trkpt lat="45.4248540" lon="6.3702340">
        <ele>1736.8</ele>
        <time>2021-08-19T09:57:58Z</time>
      </trkpt>
      <trkpt lat="45.4248660" lon="6.3703430">
        <ele>1737.6</ele>
        <time>2021-08-19T09:58:01Z</time>
      </trkpt>
      <trkpt lat="45.4248720" lon="6.3703780">
        <ele>1737.6</ele>
        <time>2021-08-19T09:58:02Z</time>
      </trkpt>
      <trkpt lat="45.4248810" lon="6.3704120">
        <ele>1737.8</ele>
        <time>2021-08-19T09:58:03Z</time>
      </trkpt>
      <trkpt lat="45.4248890" lon="6.3704450">
        <ele>1737.8</ele>
        <time>2021-08-19T09:58:04Z</time>
      </trkpt>
      <trkpt lat="45.4248980" lon="6.3704800">
        <ele>1738.2</ele>
        <time>2021-08-19T09:58:05Z</time>
      </trkpt>
      <trkpt lat="45.4249060" lon="6.3705160">
        <ele>1738.4</ele>
        <time>2021-08-19T09:58:06Z</time>
      </trkpt>
      <trkpt lat="45.4249140" lon="6.3705540">
        <ele>1738.6</ele>
        <time>2021-08-19T09:58:07Z</time>
      </trkpt>
      <trkpt lat="45.4249340" lon="6.3706280">
        <ele>1739.2</ele>
        <time>2021-08-19T09:58:09Z</time>
      </trkpt>
      <trkpt lat="45.4249430" lon="6.3706660">
        <ele>1739.6</ele>
        <time>2021-08-19T09:58:10Z</time>
      </trkpt>
      <trkpt lat="45.4249530" lon="6.3707030">
        <ele>1739.8</ele>
        <time>2021-08-19T09:58:11Z</time>
      </trkpt>
      <trkpt lat="45.4249720" lon="6.3707710">
        <ele>1740.2</ele>
        <time>2021-08-19T09:58:13Z</time>
      </trkpt>
      <trkpt lat="45.4249820" lon="6.3708060">
        <ele>1740.4</ele>
        <time>2021-08-19T09:58:14Z</time>
      </trkpt>
      <trkpt lat="45.4249970" lon="6.3708750">
        <ele>1741.0</ele>
        <time>2021-08-19T09:58:16Z</time>
      </trkpt>
      <trkpt lat="45.4250120" lon="6.3709440">
        <ele>1741.4</ele>
        <time>2021-08-19T09:58:18Z</time>
      </trkpt>
      <trkpt lat="45.4250440" lon="6.3710820">
        <ele>1742.2</ele>
        <time>2021-08-19T09:58:22Z</time>
      </trkpt>
      <trkpt lat="45.4250850" lon="6.3712640">
        <ele>1743.2</ele>
        <time>2021-08-19T09:58:27Z</time>
      </trkpt>
      <trkpt lat="45.4250940" lon="6.3712990">
        <ele>1743.4</ele>
        <time>2021-08-19T09:58:28Z</time>
      </trkpt>
      <trkpt lat="45.4251260" lon="6.3714470">
        <ele>1744.6</ele>
        <time>2021-08-19T09:58:32Z</time>
      </trkpt>
      <trkpt lat="45.4251720" lon="6.3716220">
        <ele>1745.8</ele>
        <time>2021-08-19T09:58:37Z</time>
      </trkpt>
      <trkpt lat="45.4252200" lon="6.3717560">
        <ele>1746.4</ele>
        <time>2021-08-19T09:58:41Z</time>
      </trkpt>
      <trkpt lat="45.4252600" lon="6.3718510">
        <ele>1747.0</ele>
        <time>2021-08-19T09:58:44Z</time>
      </trkpt>
      <trkpt lat="45.4252940" lon="6.3719110">
        <ele>1747.2</ele>
        <time>2021-08-19T09:58:46Z</time>
      </trkpt>
      <trkpt lat="45.4253760" lon="6.3720690">
        <ele>1747.8</ele>
        <time>2021-08-19T09:58:51Z</time>
      </trkpt>
      <trkpt lat="45.4253920" lon="6.3720990">
        <ele>1748.0</ele>
        <time>2021-08-19T09:58:52Z</time>
      </trkpt>
      <trkpt lat="45.4254480" lon="6.3722270">
        <ele>1748.8</ele>
        <time>2021-08-19T09:58:56Z</time>
      </trkpt>
      <trkpt lat="45.4254610" lon="6.3722620">
        <ele>1749.0</ele>
        <time>2021-08-19T09:58:57Z</time>
      </trkpt>
      <trkpt lat="45.4254730" lon="6.3722960">
        <ele>1749.0</ele>
        <time>2021-08-19T09:58:58Z</time>
      </trkpt>
      <trkpt lat="45.4254850" lon="6.3723290">
        <ele>1749.2</ele>
        <time>2021-08-19T09:58:59Z</time>
      </trkpt>
      <trkpt lat="45.4254970" lon="6.3723620">
        <ele>1749.2</ele>
        <time>2021-08-19T09:59:00Z</time>
      </trkpt>
      <trkpt lat="45.4255410" lon="6.3724600">
        <ele>1750.0</ele>
        <time>2021-08-19T09:59:03Z</time>
      </trkpt>
      <trkpt lat="45.4255670" lon="6.3725260">
        <ele>1750.4</ele>
        <time>2021-08-19T09:59:05Z</time>
      </trkpt>
      <trkpt lat="45.4256030" lon="6.3726260">
        <ele>1751.0</ele>
        <time>2021-08-19T09:59:08Z</time>
      </trkpt>
      <trkpt lat="45.4256790" lon="6.3727770">
        <ele>1752.2</ele>
        <time>2021-08-19T09:59:13Z</time>
      </trkpt>
      <trkpt lat="45.4258030" lon="6.3729790">
        <ele>1753.2</ele>
        <time>2021-08-19T09:59:20Z</time>
      </trkpt>
      <trkpt lat="45.4258200" lon="6.3730100">
        <ele>1753.4</ele>
        <time>2021-08-19T09:59:21Z</time>
      </trkpt>
      <trkpt lat="45.4258680" lon="6.3731500">
        <ele>1754.2</ele>
        <time>2021-08-19T09:59:25Z</time>
      </trkpt>
      <trkpt lat="45.4258670" lon="6.3732340">
        <ele>1754.6</ele>
        <time>2021-08-19T09:59:27Z</time>
      </trkpt>
      <trkpt lat="45.4258320" lon="6.3733920">
        <ele>1755.4</ele>
        <time>2021-08-19T09:59:31Z</time>
      </trkpt>
      <trkpt lat="45.4258020" lon="6.3734640">
        <ele>1755.8</ele>
        <time>2021-08-19T09:59:33Z</time>
      </trkpt>
      <trkpt lat="45.4257860" lon="6.3735010">
        <ele>1755.8</ele>
        <time>2021-08-19T09:59:34Z</time>
      </trkpt>
      <trkpt lat="45.4257660" lon="6.3735370">
        <ele>1756.0</ele>
        <time>2021-08-19T09:59:35Z</time>
      </trkpt>
      <trkpt lat="45.4257470" lon="6.3735720">
        <ele>1756.0</ele>
        <time>2021-08-19T09:59:36Z</time>
      </trkpt>
      <trkpt lat="45.4257140" lon="6.3736460">
        <ele>1756.4</ele>
        <time>2021-08-19T09:59:38Z</time>
      </trkpt>
      <trkpt lat="45.4256860" lon="6.3737260">
        <ele>1756.8</ele>
        <time>2021-08-19T09:59:40Z</time>
      </trkpt>
      <trkpt lat="45.4256760" lon="6.3737680">
        <ele>1757.0</ele>
        <time>2021-08-19T09:59:41Z</time>
      </trkpt>
      <trkpt lat="45.4256700" lon="6.3738120">
        <ele>1757.4</ele>
        <time>2021-08-19T09:59:42Z</time>
      </trkpt>
      <trkpt lat="45.4256700" lon="6.3738560">
        <ele>1757.6</ele>
        <time>2021-08-19T09:59:43Z</time>
      </trkpt>
      <trkpt lat="45.4256840" lon="6.3739420">
        <ele>1758.2</ele>
        <time>2021-08-19T09:59:45Z</time>
      </trkpt>
      <trkpt lat="45.4257190" lon="6.3740130">
        <ele>1758.4</ele>
        <time>2021-08-19T09:59:47Z</time>
      </trkpt>
      <trkpt lat="45.4257390" lon="6.3740440">
        <ele>1758.6</ele>
        <time>2021-08-19T09:59:48Z</time>
      </trkpt>
      <trkpt lat="45.4257860" lon="6.3740860">
        <ele>1759.2</ele>
        <time>2021-08-19T09:59:50Z</time>
      </trkpt>
      <trkpt lat="45.4258640" lon="6.3741070">
        <ele>1759.6</ele>
        <time>2021-08-19T09:59:53Z</time>
      </trkpt>
      <trkpt lat="45.4259180" lon="6.3740860">
        <ele>1759.8</ele>
        <time>2021-08-19T09:59:55Z</time>
      </trkpt>
      <trkpt lat="45.4260100" lon="6.3739850">
        <ele>1760.6</ele>
        <time>2021-08-19T09:59:59Z</time>
      </trkpt>
      <trkpt lat="45.4260280" lon="6.3739520">
        <ele>1760.8</ele>
        <time>2021-08-19T10:00:00Z</time>
      </trkpt>
      <trkpt lat="45.4260450" lon="6.3739190">
        <ele>1761.0</ele>
        <time>2021-08-19T10:00:01Z</time>
      </trkpt>
      <trkpt lat="45.4261130" lon="6.3737340">
        <ele>1761.8</ele>
        <time>2021-08-19T10:00:06Z</time>
      </trkpt>
      <trkpt lat="45.4261520" lon="6.3736280">
        <ele>1762.4</ele>
        <time>2021-08-19T10:00:09Z</time>
      </trkpt>
      <trkpt lat="45.4261910" lon="6.3735190">
        <ele>1762.8</ele>
        <time>2021-08-19T10:00:12Z</time>
      </trkpt>
      <trkpt lat="45.4262320" lon="6.3733720">
        <ele>1763.6</ele>
        <time>2021-08-19T10:00:16Z</time>
      </trkpt>
      <trkpt lat="45.4262490" lon="6.3733070">
        <ele>1763.6</ele>
        <time>2021-08-19T10:00:18Z</time>
      </trkpt>
      <trkpt lat="45.4262830" lon="6.3731790">
        <ele>1765.0</ele>
        <time>2021-08-19T10:00:22Z</time>
      </trkpt>
      <trkpt lat="45.4262890" lon="6.3731470">
        <ele>1765.0</ele>
        <time>2021-08-19T10:00:23Z</time>
      </trkpt>
      <trkpt lat="45.4262970" lon="6.3730830">
        <ele>1766.0</ele>
        <time>2021-08-19T10:00:25Z</time>
      </trkpt>
      <trkpt lat="45.4263010" lon="6.3729250">
        <ele>1766.8</ele>
        <time>2021-08-19T10:00:30Z</time>
      </trkpt>
      <trkpt lat="45.4262990" lon="6.3728950">
        <ele>1767.0</ele>
        <time>2021-08-19T10:00:31Z</time>
      </trkpt>
      <trkpt lat="45.4262740" lon="6.3726570">
        <ele>1768.4</ele>
        <time>2021-08-19T10:00:38Z</time>
      </trkpt>
      <trkpt lat="45.4262720" lon="6.3726250">
        <ele>1768.6</ele>
        <time>2021-08-19T10:00:39Z</time>
      </trkpt>
      <trkpt lat="45.4262470" lon="6.3724520">
        <ele>1769.6</ele>
        <time>2021-08-19T10:00:44Z</time>
      </trkpt>
      <trkpt lat="45.4262190" lon="6.3723200">
        <ele>1770.6</ele>
        <time>2021-08-19T10:00:48Z</time>
      </trkpt>
      <trkpt lat="45.4262140" lon="6.3722880">
        <ele>1770.6</ele>
        <time>2021-08-19T10:00:49Z</time>
      </trkpt>
      <trkpt lat="45.4262100" lon="6.3722550">
        <ele>1770.8</ele>
        <time>2021-08-19T10:00:50Z</time>
      </trkpt>
      <trkpt lat="45.4261840" lon="6.3721390">
        <ele>1771.6</ele>
        <time>2021-08-19T10:00:54Z</time>
      </trkpt>
      <trkpt lat="45.4261780" lon="6.3721080">
        <ele>1771.8</ele>
        <time>2021-08-19T10:00:55Z</time>
      </trkpt>
      <trkpt lat="45.4261720" lon="6.3720760">
        <ele>1772.0</ele>
        <time>2021-08-19T10:00:56Z</time>
      </trkpt>
      <trkpt lat="45.4261540" lon="6.3720150">
        <ele>1772.6</ele>
        <time>2021-08-19T10:00:58Z</time>
      </trkpt>
      <trkpt lat="45.4261350" lon="6.3719550">
        <ele>1773.0</ele>
        <time>2021-08-19T10:01:00Z</time>
      </trkpt>
      <trkpt lat="45.4260700" lon="6.3717530">
        <ele>1774.0</ele>
        <time>2021-08-19T10:01:07Z</time>
      </trkpt>
      <trkpt lat="45.4260540" lon="6.3716980">
        <ele>1774.4</ele>
        <time>2021-08-19T10:01:09Z</time>
      </trkpt>
      <trkpt lat="45.4260240" lon="6.3715830">
        <ele>1774.8</ele>
        <time>2021-08-19T10:01:13Z</time>
      </trkpt>
      <trkpt lat="45.4260050" lon="6.3714900">
        <ele>1775.6</ele>
        <time>2021-08-19T10:01:16Z</time>
      </trkpt>
      <trkpt lat="45.4259930" lon="6.3714310">
        <ele>1776.0</ele>
        <time>2021-08-19T10:01:18Z</time>
      </trkpt>
      <trkpt lat="45.4259820" lon="6.3713690">
        <ele>1776.2</ele>
        <time>2021-08-19T10:01:20Z</time>
      </trkpt>
      <trkpt lat="45.4259640" lon="6.3712350">
        <ele>1777.0</ele>
        <time>2021-08-19T10:01:24Z</time>
      </trkpt>
      <trkpt lat="45.4259560" lon="6.3711020">
        <ele>1777.8</ele>
        <time>2021-08-19T10:01:28Z</time>
      </trkpt>
      <trkpt lat="45.4259570" lon="6.3710690">
        <ele>1778.2</ele>
        <time>2021-08-19T10:01:29Z</time>
      </trkpt>
      <trkpt lat="45.4259680" lon="6.3709110">
        <ele>1779.4</ele>
        <time>2021-08-19T10:01:34Z</time>
      </trkpt>
      <trkpt lat="45.4259890" lon="6.3708150">
        <ele>1779.6</ele>
        <time>2021-08-19T10:01:37Z</time>
      </trkpt>
      <trkpt lat="45.4260130" lon="6.3707210">
        <ele>1780.4</ele>
        <time>2021-08-19T10:01:40Z</time>
      </trkpt>
      <trkpt lat="45.4260220" lon="6.3706880">
        <ele>1780.8</ele>
        <time>2021-08-19T10:01:41Z</time>
      </trkpt>
      <trkpt lat="45.4260790" lon="6.3705430">
        <ele>1781.4</ele>
        <time>2021-08-19T10:01:46Z</time>
      </trkpt>
      <trkpt lat="45.4261090" lon="6.3704930">
        <ele>1782.0</ele>
        <time>2021-08-19T10:01:48Z</time>
      </trkpt>
      <trkpt lat="45.4261260" lon="6.3704670">
        <ele>1782.2</ele>
        <time>2021-08-19T10:01:49Z</time>
      </trkpt>
      <trkpt lat="45.4261420" lon="6.3704410">
        <ele>1782.8</ele>
        <time>2021-08-19T10:01:50Z</time>
      </trkpt>
      <trkpt lat="45.4261950" lon="6.3703770">
        <ele>1783.4</ele>
        <time>2021-08-19T10:01:53Z</time>
      </trkpt>
      <trkpt lat="45.4262270" lon="6.3703320">
        <ele>1783.8</ele>
        <time>2021-08-19T10:01:55Z</time>
      </trkpt>
      <trkpt lat="45.4262580" lon="6.3702850">
        <ele>1784.4</ele>
        <time>2021-08-19T10:01:57Z</time>
      </trkpt>
      <trkpt lat="45.4263100" lon="6.3701870">
        <ele>1785.0</ele>
        <time>2021-08-19T10:02:01Z</time>
      </trkpt>
      <trkpt lat="45.4263630" lon="6.3700750">
        <ele>1786.0</ele>
        <time>2021-08-19T10:02:05Z</time>
      </trkpt>
      <trkpt lat="45.4263760" lon="6.3700460">
        <ele>1786.2</ele>
        <time>2021-08-19T10:02:06Z</time>
      </trkpt>
      <trkpt lat="45.4264230" lon="6.3699250">
        <ele>1787.2</ele>
        <time>2021-08-19T10:02:10Z</time>
      </trkpt>
      <trkpt lat="45.4264740" lon="6.3697730">
        <ele>1787.6</ele>
        <time>2021-08-19T10:02:15Z</time>
      </trkpt>
      <trkpt lat="45.4265030" lon="6.3696850">
        <ele>1788.4</ele>
        <time>2021-08-19T10:02:18Z</time>
      </trkpt>
      <trkpt lat="45.4265850" lon="6.3695270">
        <ele>1789.6</ele>
        <time>2021-08-19T10:02:24Z</time>
      </trkpt>
      <trkpt lat="45.4266140" lon="6.3694800">
        <ele>1790.2</ele>
        <time>2021-08-19T10:02:26Z</time>
      </trkpt>
      <trkpt lat="45.4266300" lon="6.3694580">
        <ele>1790.4</ele>
        <time>2021-08-19T10:02:27Z</time>
      </trkpt>
      <trkpt lat="45.4266480" lon="6.3694350">
        <ele>1790.8</ele>
        <time>2021-08-19T10:02:28Z</time>
      </trkpt>
      <trkpt lat="45.4267060" lon="6.3693680">
        <ele>1791.2</ele>
        <time>2021-08-19T10:02:31Z</time>
      </trkpt>
      <trkpt lat="45.4267840" lon="6.3692900">
        <ele>1792.2</ele>
        <time>2021-08-19T10:02:35Z</time>
      </trkpt>
      <trkpt lat="45.4268040" lon="6.3692750">
        <ele>1792.4</ele>
        <time>2021-08-19T10:02:36Z</time>
      </trkpt>
      <trkpt lat="45.4268870" lon="6.3692210">
        <ele>1793.2</ele>
        <time>2021-08-19T10:02:40Z</time>
      </trkpt>
      <trkpt lat="45.4270130" lon="6.3691530">
        <ele>1794.6</ele>
        <time>2021-08-19T10:02:46Z</time>
      </trkpt>
      <trkpt lat="45.4270500" lon="6.3691290">
        <ele>1794.8</ele>
        <time>2021-08-19T10:02:48Z</time>
      </trkpt>
      <trkpt lat="45.4271880" lon="6.3690320">
        <ele>1795.8</ele>
        <time>2021-08-19T10:02:55Z</time>
      </trkpt>
      <trkpt lat="45.4272470" lon="6.3689830">
        <ele>1796.8</ele>
        <time>2021-08-19T10:02:58Z</time>
      </trkpt>
      <trkpt lat="45.4272660" lon="6.3689660">
        <ele>1797.2</ele>
        <time>2021-08-19T10:02:59Z</time>
      </trkpt>
      <trkpt lat="45.4273230" lon="6.3689040">
        <ele>1798.0</ele>
        <time>2021-08-19T10:03:02Z</time>
      </trkpt>
      <trkpt lat="45.4273920" lon="6.3688080">
        <ele>1798.4</ele>
        <time>2021-08-19T10:03:06Z</time>
      </trkpt>
      <trkpt lat="45.4274310" lon="6.3687230">
        <ele>1799.2</ele>
        <time>2021-08-19T10:03:09Z</time>
      </trkpt>
      <trkpt lat="45.4274660" lon="6.3686010">
        <ele>1800.0</ele>
        <time>2021-08-19T10:03:13Z</time>
      </trkpt>
      <trkpt lat="45.4274720" lon="6.3685380">
        <ele>1800.4</ele>
        <time>2021-08-19T10:03:15Z</time>
      </trkpt>
      <trkpt lat="45.4274740" lon="6.3685050">
        <ele>1800.4</ele>
        <time>2021-08-19T10:03:16Z</time>
      </trkpt>
      <trkpt lat="45.4274820" lon="6.3684010">
        <ele>1801.0</ele>
        <time>2021-08-19T10:03:19Z</time>
      </trkpt>
      <trkpt lat="45.4274840" lon="6.3683650">
        <ele>1801.2</ele>
        <time>2021-08-19T10:03:20Z</time>
      </trkpt>
      <trkpt lat="45.4274870" lon="6.3683310">
        <ele>1801.4</ele>
        <time>2021-08-19T10:03:21Z</time>
      </trkpt>
      <trkpt lat="45.4274920" lon="6.3682960">
        <ele>1801.6</ele>
        <time>2021-08-19T10:03:22Z</time>
      </trkpt>
      <trkpt lat="45.4275080" lon="6.3682280">
        <ele>1801.8</ele>
        <time>2021-08-19T10:03:24Z</time>
      </trkpt>
      <trkpt lat="45.4275180" lon="6.3681970">
        <ele>1802.0</ele>
        <time>2021-08-19T10:03:25Z</time>
      </trkpt>
      <trkpt lat="45.4275620" lon="6.3681200">
        <ele>1802.8</ele>
        <time>2021-08-19T10:03:28Z</time>
      </trkpt>
      <trkpt lat="45.4276450" lon="6.3680420">
        <ele>1803.8</ele>
        <time>2021-08-19T10:03:32Z</time>
      </trkpt>
      <trkpt lat="45.4276670" lon="6.3680250">
        <ele>1804.2</ele>
        <time>2021-08-19T10:03:33Z</time>
      </trkpt>
      <trkpt lat="45.4277090" lon="6.3679870">
        <ele>1804.6</ele>
        <time>2021-08-19T10:03:35Z</time>
      </trkpt>
      <trkpt lat="45.4277740" lon="6.3679320">
        <ele>1805.2</ele>
        <time>2021-08-19T10:03:38Z</time>
      </trkpt>
      <trkpt lat="45.4278130" lon="6.3678990">
        <ele>1805.4</ele>
        <time>2021-08-19T10:03:40Z</time>
      </trkpt>
      <trkpt lat="45.4278550" lon="6.3678670">
        <ele>1806.0</ele>
        <time>2021-08-19T10:03:42Z</time>
      </trkpt>
      <trkpt lat="45.4278760" lon="6.3678500">
        <ele>1806.2</ele>
        <time>2021-08-19T10:03:43Z</time>
      </trkpt>
      <trkpt lat="45.4278960" lon="6.3678340">
        <ele>1806.6</ele>
        <time>2021-08-19T10:03:44Z</time>
      </trkpt>
      <trkpt lat="45.4279810" lon="6.3677680">
        <ele>1807.0</ele>
        <time>2021-08-19T10:03:48Z</time>
      </trkpt>
      <trkpt lat="45.4280030" lon="6.3677540">
        <ele>1807.0</ele>
        <time>2021-08-19T10:03:49Z</time>
      </trkpt>
      <trkpt lat="45.4280250" lon="6.3677410">
        <ele>1807.2</ele>
        <time>2021-08-19T10:03:50Z</time>
      </trkpt>
      <trkpt lat="45.4280440" lon="6.3677240">
        <ele>1807.2</ele>
        <time>2021-08-19T10:03:51Z</time>
      </trkpt>
      <trkpt lat="45.4280800" lon="6.3676880">
        <ele>1807.6</ele>
        <time>2021-08-19T10:03:53Z</time>
      </trkpt>
      <trkpt lat="45.4280970" lon="6.3676700">
        <ele>1807.6</ele>
        <time>2021-08-19T10:03:54Z</time>
      </trkpt>
      <trkpt lat="45.4281140" lon="6.3676500">
        <ele>1808.2</ele>
        <time>2021-08-19T10:03:55Z</time>
      </trkpt>
      <trkpt lat="45.4281360" lon="6.3676330">
        <ele>1808.4</ele>
        <time>2021-08-19T10:03:56Z</time>
      </trkpt>
      <trkpt lat="45.4281940" lon="6.3675800">
        <ele>1809.4</ele>
        <time>2021-08-19T10:03:59Z</time>
      </trkpt>
      <trkpt lat="45.4282570" lon="6.3675350">
        <ele>1810.2</ele>
        <time>2021-08-19T10:04:02Z</time>
      </trkpt>
      <trkpt lat="45.4282770" lon="6.3675210">
        <ele>1810.4</ele>
        <time>2021-08-19T10:04:03Z</time>
      </trkpt>
      <trkpt lat="45.4283930" lon="6.3674220">
        <ele>1811.6</ele>
        <time>2021-08-19T10:04:09Z</time>
      </trkpt>
      <trkpt lat="45.4284320" lon="6.3673880">
        <ele>1812.0</ele>
        <time>2021-08-19T10:04:11Z</time>
      </trkpt>
      <trkpt lat="45.4284660" lon="6.3673510">
        <ele>1812.6</ele>
        <time>2021-08-19T10:04:13Z</time>
      </trkpt>
      <trkpt lat="45.4285830" lon="6.3672560">
        <ele>1813.6</ele>
        <time>2021-08-19T10:04:19Z</time>
      </trkpt>
      <trkpt lat="45.4286300" lon="6.3672250">
        <ele>1814.4</ele>
        <time>2021-08-19T10:04:21Z</time>
      </trkpt>
      <trkpt lat="45.4286780" lon="6.3671820">
        <ele>1814.6</ele>
        <time>2021-08-19T10:04:23Z</time>
      </trkpt>
      <trkpt lat="45.4288030" lon="6.3670790">
        <ele>1815.6</ele>
        <time>2021-08-19T10:04:29Z</time>
      </trkpt>
      <trkpt lat="45.4288680" lon="6.3670130">
        <ele>1816.8</ele>
        <time>2021-08-19T10:04:33Z</time>
      </trkpt>
      <trkpt lat="45.4289250" lon="6.3669650">
        <ele>1817.4</ele>
        <time>2021-08-19T10:04:36Z</time>
      </trkpt>
      <trkpt lat="45.4289460" lon="6.3669500">
        <ele>1817.6</ele>
        <time>2021-08-19T10:04:37Z</time>
      </trkpt>
      <trkpt lat="45.4290070" lon="6.3669040">
        <ele>1817.6</ele>
        <time>2021-08-19T10:04:40Z</time>
      </trkpt>
      <trkpt lat="45.4291050" lon="6.3668250">
        <ele>1818.8</ele>
        <time>2021-08-19T10:04:45Z</time>
      </trkpt>
      <trkpt lat="45.4291240" lon="6.3668080">
        <ele>1819.0</ele>
        <time>2021-08-19T10:04:46Z</time>
      </trkpt>
      <trkpt lat="45.4292190" lon="6.3667230">
        <ele>1819.8</ele>
        <time>2021-08-19T10:04:51Z</time>
      </trkpt>
      <trkpt lat="45.4292800" lon="6.3666740">
        <ele>1821.0</ele>
        <time>2021-08-19T10:04:54Z</time>
      </trkpt>
      <trkpt lat="45.4293000" lon="6.3666590">
        <ele>1821.0</ele>
        <time>2021-08-19T10:04:55Z</time>
      </trkpt>
      <trkpt lat="45.4293990" lon="6.3665760">
        <ele>1821.8</ele>
        <time>2021-08-19T10:05:00Z</time>
      </trkpt>
      <trkpt lat="45.4294380" lon="6.3665400">
        <ele>1822.2</ele>
        <time>2021-08-19T10:05:02Z</time>
      </trkpt>
      <trkpt lat="45.4294990" lon="6.3664880">
        <ele>1823.4</ele>
        <time>2021-08-19T10:05:05Z</time>
      </trkpt>
      <trkpt lat="45.4296590" lon="6.3663480">
        <ele>1824.4</ele>
        <time>2021-08-19T10:05:13Z</time>
      </trkpt>
      <trkpt lat="45.4297190" lon="6.3662990">
        <ele>1825.0</ele>
        <time>2021-08-19T10:05:16Z</time>
      </trkpt>
      <trkpt lat="45.4297620" lon="6.3662700">
        <ele>1825.4</ele>
        <time>2021-08-19T10:05:18Z</time>
      </trkpt>
      <trkpt lat="45.4298190" lon="6.3662120">
        <ele>1826.2</ele>
        <time>2021-08-19T10:05:21Z</time>
      </trkpt>
      <trkpt lat="45.4298390" lon="6.3661950">
        <ele>1826.4</ele>
        <time>2021-08-19T10:05:22Z</time>
      </trkpt>
      <trkpt lat="45.4298610" lon="6.3661790">
        <ele>1826.6</ele>
        <time>2021-08-19T10:05:23Z</time>
      </trkpt>
      <trkpt lat="45.4298810" lon="6.3661620">
        <ele>1826.8</ele>
        <time>2021-08-19T10:05:24Z</time>
      </trkpt>
      <trkpt lat="45.4299210" lon="6.3661260">
        <ele>1827.0</ele>
        <time>2021-08-19T10:05:26Z</time>
      </trkpt>
      <trkpt lat="45.4299820" lon="6.3660770">
        <ele>1827.8</ele>
        <time>2021-08-19T10:05:29Z</time>
      </trkpt>
      <trkpt lat="45.4300020" lon="6.3660610">
        <ele>1828.0</ele>
        <time>2021-08-19T10:05:30Z</time>
      </trkpt>
      <trkpt lat="45.4300410" lon="6.3660300">
        <ele>1828.4</ele>
        <time>2021-08-19T10:05:32Z</time>
      </trkpt>
      <trkpt lat="45.4300620" lon="6.3660130">
        <ele>1828.4</ele>
        <time>2021-08-19T10:05:33Z</time>
      </trkpt>
      <trkpt lat="45.4301010" lon="6.3659780">
        <ele>1828.6</ele>
        <time>2021-08-19T10:05:35Z</time>
      </trkpt>
      <trkpt lat="45.4301390" lon="6.3659450">
        <ele>1828.8</ele>
        <time>2021-08-19T10:05:37Z</time>
      </trkpt>
      <trkpt lat="45.4301590" lon="6.3659270">
        <ele>1829.4</ele>
        <time>2021-08-19T10:05:38Z</time>
      </trkpt>
      <trkpt lat="45.4301970" lon="6.3658910">
        <ele>1830.0</ele>
        <time>2021-08-19T10:05:40Z</time>
      </trkpt>
      <trkpt lat="45.4302180" lon="6.3658730">
        <ele>1830.2</ele>
        <time>2021-08-19T10:05:41Z</time>
      </trkpt>
      <trkpt lat="45.4303170" lon="6.3657800">
        <ele>1831.2</ele>
        <time>2021-08-19T10:05:46Z</time>
      </trkpt>
      <trkpt lat="45.4303400" lon="6.3657640">
        <ele>1831.6</ele>
        <time>2021-08-19T10:05:47Z</time>
      </trkpt>
      <trkpt lat="45.4304370" lon="6.3656800">
        <ele>1832.8</ele>
        <time>2021-08-19T10:05:52Z</time>
      </trkpt>
      <trkpt lat="45.4305010" lon="6.3656300">
        <ele>1833.2</ele>
        <time>2021-08-19T10:05:55Z</time>
      </trkpt>
      <trkpt lat="45.4305420" lon="6.3655920">
        <ele>1833.4</ele>
        <time>2021-08-19T10:05:57Z</time>
      </trkpt>
      <trkpt lat="45.4305640" lon="6.3655760">
        <ele>1833.8</ele>
        <time>2021-08-19T10:05:58Z</time>
      </trkpt>
      <trkpt lat="45.4305850" lon="6.3655610">
        <ele>1834.0</ele>
        <time>2021-08-19T10:05:59Z</time>
      </trkpt>
      <trkpt lat="45.4306690" lon="6.3654900">
        <ele>1835.2</ele>
        <time>2021-08-19T10:06:03Z</time>
      </trkpt>
      <trkpt lat="45.4306890" lon="6.3654710">
        <ele>1835.4</ele>
        <time>2021-08-19T10:06:04Z</time>
      </trkpt>
      <trkpt lat="45.4307310" lon="6.3654350">
        <ele>1835.8</ele>
        <time>2021-08-19T10:06:06Z</time>
      </trkpt>
      <trkpt lat="45.4308130" lon="6.3653660">
        <ele>1836.4</ele>
        <time>2021-08-19T10:06:10Z</time>
      </trkpt>
      <trkpt lat="45.4308300" lon="6.3653460">
        <ele>1836.6</ele>
        <time>2021-08-19T10:06:11Z</time>
      </trkpt>
      <trkpt lat="45.4309020" lon="6.3652110">
        <ele>1837.6</ele>
        <time>2021-08-19T10:06:16Z</time>
      </trkpt>
      <trkpt lat="45.4309140" lon="6.3651430">
        <ele>1837.8</ele>
        <time>2021-08-19T10:06:18Z</time>
      </trkpt>
      <trkpt lat="45.4309300" lon="6.3650400">
        <ele>1838.2</ele>
        <time>2021-08-19T10:06:21Z</time>
      </trkpt>
      <trkpt lat="45.4309430" lon="6.3649700">
        <ele>1838.6</ele>
        <time>2021-08-19T10:06:23Z</time>
      </trkpt>
      <trkpt lat="45.4309850" lon="6.3647660">
        <ele>1839.6</ele>
        <time>2021-08-19T10:06:29Z</time>
      </trkpt>
      <trkpt lat="45.4309930" lon="6.3647340">
        <ele>1839.8</ele>
        <time>2021-08-19T10:06:30Z</time>
      </trkpt>
      <trkpt lat="45.4310200" lon="6.3645980">
        <ele>1840.6</ele>
        <time>2021-08-19T10:06:34Z</time>
      </trkpt>
      <trkpt lat="45.4310460" lon="6.3644650">
        <ele>1841.6</ele>
        <time>2021-08-19T10:06:38Z</time>
      </trkpt>
      <trkpt lat="45.4310500" lon="6.3644320">
        <ele>1841.6</ele>
        <time>2021-08-19T10:06:39Z</time>
      </trkpt>
      <trkpt lat="45.4310630" lon="6.3643640">
        <ele>1842.2</ele>
        <time>2021-08-19T10:06:41Z</time>
      </trkpt>
      <trkpt lat="45.4310810" lon="6.3642240">
        <ele>1842.8</ele>
        <time>2021-08-19T10:06:45Z</time>
      </trkpt>
      <trkpt lat="45.4310870" lon="6.3641150">
        <ele>1843.4</ele>
        <time>2021-08-19T10:06:48Z</time>
      </trkpt>
      <trkpt lat="45.4310850" lon="6.3640450">
        <ele>1843.8</ele>
        <time>2021-08-19T10:06:50Z</time>
      </trkpt>
      <trkpt lat="45.4310470" lon="6.3638350">
        <ele>1844.8</ele>
        <time>2021-08-19T10:06:56Z</time>
      </trkpt>
      <trkpt lat="45.4309980" lon="6.3637120">
        <ele>1845.6</ele>
        <time>2021-08-19T10:07:00Z</time>
      </trkpt>
      <trkpt lat="45.4309860" lon="6.3636800">
        <ele>1845.8</ele>
        <time>2021-08-19T10:07:01Z</time>
      </trkpt>
      <trkpt lat="45.4309740" lon="6.3636490">
        <ele>1846.0</ele>
        <time>2021-08-19T10:07:02Z</time>
      </trkpt>
      <trkpt lat="45.4308960" lon="6.3634670">
        <ele>1847.0</ele>
        <time>2021-08-19T10:07:08Z</time>
      </trkpt>
      <trkpt lat="45.4308730" lon="6.3633970">
        <ele>1848.0</ele>
        <time>2021-08-19T10:07:10Z</time>
      </trkpt>
      <trkpt lat="45.4308650" lon="6.3633710">
        <ele>1848.0</ele>
        <time>2021-08-19T10:07:11Z</time>
      </trkpt>
      <trkpt lat="45.4308340" lon="6.3632760">
        <ele>1849.0</ele>
        <time>2021-08-19T10:07:14Z</time>
      </trkpt>
      <trkpt lat="45.4308230" lon="6.3632370">
        <ele>1849.2</ele>
        <time>2021-08-19T10:07:15Z</time>
      </trkpt>
      <trkpt lat="45.4307670" lon="6.3630840">
        <ele>1850.4</ele>
        <time>2021-08-19T10:07:20Z</time>
      </trkpt>
      <trkpt lat="45.4307020" lon="6.3629280">
        <ele>1851.6</ele>
        <time>2021-08-19T10:07:25Z</time>
      </trkpt>
      <trkpt lat="45.4306250" lon="6.3627450">
        <ele>1852.6</ele>
        <time>2021-08-19T10:07:31Z</time>
      </trkpt>
      <trkpt lat="45.4306040" lon="6.3626810">
        <ele>1853.0</ele>
        <time>2021-08-19T10:07:33Z</time>
      </trkpt>
      <trkpt lat="45.4305700" lon="6.3625900">
        <ele>1853.6</ele>
        <time>2021-08-19T10:07:36Z</time>
      </trkpt>
      <trkpt lat="45.4305070" lon="6.3624470">
        <ele>1854.2</ele>
        <time>2021-08-19T10:07:41Z</time>
      </trkpt>
      <trkpt lat="45.4304900" lon="6.3623020">
        <ele>1854.8</ele>
        <time>2021-08-19T10:07:45Z</time>
      </trkpt>
      <trkpt lat="45.4304970" lon="6.3622320">
        <ele>1855.2</ele>
        <time>2021-08-19T10:07:47Z</time>
      </trkpt>
      <trkpt lat="45.4305260" lon="6.3621760">
        <ele>1855.4</ele>
        <time>2021-08-19T10:07:49Z</time>
      </trkpt>
      <trkpt lat="45.4305680" lon="6.3621550">
        <ele>1855.6</ele>
        <time>2021-08-19T10:07:51Z</time>
      </trkpt>
      <trkpt lat="45.4305900" lon="6.3621580">
        <ele>1856.0</ele>
        <time>2021-08-19T10:07:52Z</time>
      </trkpt>
      <trkpt lat="45.4306350" lon="6.3621880">
        <ele>1856.4</ele>
        <time>2021-08-19T10:07:54Z</time>
      </trkpt>
      <trkpt lat="45.4306480" lon="6.3622120">
        <ele>1856.8</ele>
        <time>2021-08-19T10:07:55Z</time>
      </trkpt>
      <trkpt lat="45.4306610" lon="6.3622410">
        <ele>1857.0</ele>
        <time>2021-08-19T10:07:56Z</time>
      </trkpt>
      <trkpt lat="45.4307330" lon="6.3624430">
        <ele>1858.0</ele>
        <time>2021-08-19T10:08:02Z</time>
      </trkpt>
      <trkpt lat="45.4307570" lon="6.3625080">
        <ele>1858.4</ele>
        <time>2021-08-19T10:08:04Z</time>
      </trkpt>
      <trkpt lat="45.4308060" lon="6.3626280">
        <ele>1859.0</ele>
        <time>2021-08-19T10:08:08Z</time>
      </trkpt>
      <trkpt lat="45.4308550" lon="6.3627020">
        <ele>1859.8</ele>
        <time>2021-08-19T10:08:11Z</time>
      </trkpt>
      <trkpt lat="45.4308900" lon="6.3627450">
        <ele>1860.2</ele>
        <time>2021-08-19T10:08:13Z</time>
      </trkpt>
      <trkpt lat="45.4309810" lon="6.3628450">
        <ele>1861.0</ele>
        <time>2021-08-19T10:08:18Z</time>
      </trkpt>
      <trkpt lat="45.4310310" lon="6.3628950">
        <ele>1861.2</ele>
        <time>2021-08-19T10:08:21Z</time>
      </trkpt>
      <trkpt lat="45.4310770" lon="6.3629470">
        <ele>1862.2</ele>
        <time>2021-08-19T10:08:24Z</time>
      </trkpt>
      <trkpt lat="45.4311310" lon="6.3630000">
        <ele>1863.2</ele>
        <time>2021-08-19T10:08:27Z</time>
      </trkpt>
      <trkpt lat="45.4311520" lon="6.3630170">
        <ele>1863.4</ele>
        <time>2021-08-19T10:08:28Z</time>
      </trkpt>
      <trkpt lat="45.4312700" lon="6.3631190">
        <ele>1864.6</ele>
        <time>2021-08-19T10:08:34Z</time>
      </trkpt>
      <trkpt lat="45.4312880" lon="6.3631350">
        <ele>1864.8</ele>
        <time>2021-08-19T10:08:35Z</time>
      </trkpt>
      <trkpt lat="45.4313810" lon="6.3632180">
        <ele>1865.4</ele>
        <time>2021-08-19T10:08:40Z</time>
      </trkpt>
      <trkpt lat="45.4314410" lon="6.3632720">
        <ele>1866.6</ele>
        <time>2021-08-19T10:08:43Z</time>
      </trkpt>
      <trkpt lat="45.4314590" lon="6.3632890">
        <ele>1866.6</ele>
        <time>2021-08-19T10:08:44Z</time>
      </trkpt>
      <trkpt lat="45.4315370" lon="6.3633620">
        <ele>1867.6</ele>
        <time>2021-08-19T10:08:48Z</time>
      </trkpt>
      <trkpt lat="45.4315740" lon="6.3634030">
        <ele>1867.8</ele>
        <time>2021-08-19T10:08:50Z</time>
      </trkpt>
      <trkpt lat="45.4316270" lon="6.3634680">
        <ele>1868.6</ele>
        <time>2021-08-19T10:08:53Z</time>
      </trkpt>
      <trkpt lat="45.4316430" lon="6.3634920">
        <ele>1868.8</ele>
        <time>2021-08-19T10:08:54Z</time>
      </trkpt>
      <trkpt lat="45.4317090" lon="6.3636290">
        <ele>1869.8</ele>
        <time>2021-08-19T10:08:59Z</time>
      </trkpt>
      <trkpt lat="45.4317190" lon="6.3636590">
        <ele>1870.0</ele>
        <time>2021-08-19T10:09:00Z</time>
      </trkpt>
      <trkpt lat="45.4317500" lon="6.3637470">
        <ele>1870.6</ele>
        <time>2021-08-19T10:09:03Z</time>
      </trkpt>
      <trkpt lat="45.4317590" lon="6.3637760">
        <ele>1870.6</ele>
        <time>2021-08-19T10:09:04Z</time>
      </trkpt>
      <trkpt lat="45.4317880" lon="6.3638630">
        <ele>1871.0</ele>
        <time>2021-08-19T10:09:07Z</time>
      </trkpt>
      <trkpt lat="45.4317960" lon="6.3638950">
        <ele>1871.2</ele>
        <time>2021-08-19T10:09:08Z</time>
      </trkpt>
      <trkpt lat="45.4318110" lon="6.3639560">
        <ele>1871.6</ele>
        <time>2021-08-19T10:09:10Z</time>
      </trkpt>
      <trkpt lat="45.4318190" lon="6.3639850">
        <ele>1871.8</ele>
        <time>2021-08-19T10:09:11Z</time>
      </trkpt>
      <trkpt lat="45.4318330" lon="6.3640490">
        <ele>1872.2</ele>
        <time>2021-08-19T10:09:13Z</time>
      </trkpt>
      <trkpt lat="45.4318490" lon="6.3641440">
        <ele>1872.8</ele>
        <time>2021-08-19T10:09:16Z</time>
      </trkpt>
      <trkpt lat="45.4318590" lon="6.3642420">
        <ele>1873.2</ele>
        <time>2021-08-19T10:09:19Z</time>
      </trkpt>
      <trkpt lat="45.4318680" lon="6.3643070">
        <ele>1873.8</ele>
        <time>2021-08-19T10:09:21Z</time>
      </trkpt>
      <trkpt lat="45.4318810" lon="6.3645060">
        <ele>1875.0</ele>
        <time>2021-08-19T10:09:27Z</time>
      </trkpt>
      <trkpt lat="45.4319010" lon="6.3646640">
        <ele>1876.2</ele>
        <time>2021-08-19T10:09:32Z</time>
      </trkpt>
      <trkpt lat="45.4319320" lon="6.3648570">
        <ele>1877.4</ele>
        <time>2021-08-19T10:09:38Z</time>
      </trkpt>
      <trkpt lat="45.4319380" lon="6.3648890">
        <ele>1877.6</ele>
        <time>2021-08-19T10:09:39Z</time>
      </trkpt>
      <trkpt lat="45.4319520" lon="6.3649910">
        <ele>1878.0</ele>
        <time>2021-08-19T10:09:42Z</time>
      </trkpt>
      <trkpt lat="45.4319570" lon="6.3650240">
        <ele>1878.4</ele>
        <time>2021-08-19T10:09:43Z</time>
      </trkpt>
      <trkpt lat="45.4319910" lon="6.3652560">
        <ele>1879.6</ele>
        <time>2021-08-19T10:09:50Z</time>
      </trkpt>
      <trkpt lat="45.4320010" lon="6.3653200">
        <ele>1880.0</ele>
        <time>2021-08-19T10:09:52Z</time>
      </trkpt>
      <trkpt lat="45.4320120" lon="6.3653840">
        <ele>1880.4</ele>
        <time>2021-08-19T10:09:54Z</time>
      </trkpt>
      <trkpt lat="45.4320230" lon="6.3654560">
        <ele>1880.8</ele>
        <time>2021-08-19T10:09:56Z</time>
      </trkpt>
      <trkpt lat="45.4320500" lon="6.3655720">
        <ele>1881.4</ele>
        <time>2021-08-19T10:10:00Z</time>
      </trkpt>
      <trkpt lat="45.4320560" lon="6.3656050">
        <ele>1881.8</ele>
        <time>2021-08-19T10:10:01Z</time>
      </trkpt>
      <trkpt lat="45.4320610" lon="6.3656390">
        <ele>1881.8</ele>
        <time>2021-08-19T10:10:02Z</time>
      </trkpt>
      <trkpt lat="45.4320680" lon="6.3656710">
        <ele>1882.2</ele>
        <time>2021-08-19T10:10:03Z</time>
      </trkpt>
      <trkpt lat="45.4320940" lon="6.3657910">
        <ele>1883.0</ele>
        <time>2021-08-19T10:10:07Z</time>
      </trkpt>
      <trkpt lat="45.4321380" lon="6.3659430">
        <ele>1884.2</ele>
        <time>2021-08-19T10:10:12Z</time>
      </trkpt>
      <trkpt lat="45.4322020" lon="6.3661100">
        <ele>1885.2</ele>
        <time>2021-08-19T10:10:18Z</time>
      </trkpt>
      <trkpt lat="45.4322370" lon="6.3661850">
        <ele>1886.0</ele>
        <time>2021-08-19T10:10:21Z</time>
      </trkpt>
      <trkpt lat="45.4322580" lon="6.3662410">
        <ele>1886.4</ele>
        <time>2021-08-19T10:10:23Z</time>
      </trkpt>
      <trkpt lat="45.4323140" lon="6.3664200">
        <ele>1887.4</ele>
        <time>2021-08-19T10:10:29Z</time>
      </trkpt>
      <trkpt lat="45.4323170" lon="6.3665210">
        <ele>1888.0</ele>
        <time>2021-08-19T10:10:32Z</time>
      </trkpt>
      <trkpt lat="45.4322980" lon="6.3666840">
        <ele>1888.4</ele>
        <time>2021-08-19T10:10:37Z</time>
      </trkpt>
      <trkpt lat="45.4322780" lon="6.3668090">
        <ele>1889.2</ele>
        <time>2021-08-19T10:10:41Z</time>
      </trkpt>
      <trkpt lat="45.4322680" lon="6.3668510">
        <ele>1889.4</ele>
        <time>2021-08-19T10:10:42Z</time>
      </trkpt>
      <trkpt lat="45.4322600" lon="6.3668860">
        <ele>1889.6</ele>
        <time>2021-08-19T10:10:43Z</time>
      </trkpt>
      <trkpt lat="45.4322520" lon="6.3669860">
        <ele>1890.0</ele>
        <time>2021-08-19T10:10:46Z</time>
      </trkpt>
      <trkpt lat="45.4322500" lon="6.3670300">
        <ele>1890.2</ele>
        <time>2021-08-19T10:10:47Z</time>
      </trkpt>
      <trkpt lat="45.4322470" lon="6.3670670">
        <ele>1890.4</ele>
        <time>2021-08-19T10:10:48Z</time>
      </trkpt>
      <trkpt lat="45.4322450" lon="6.3671010">
        <ele>1890.4</ele>
        <time>2021-08-19T10:10:49Z</time>
      </trkpt>
      <trkpt lat="45.4322450" lon="6.3671280">
        <ele>1890.6</ele>
        <time>2021-08-19T10:10:50Z</time>
      </trkpt>
      <trkpt lat="45.4322460" lon="6.3671680">
        <ele>1891.0</ele>
        <time>2021-08-19T10:10:51Z</time>
      </trkpt>
      <trkpt lat="45.4322500" lon="6.3672030">
        <ele>1891.4</ele>
        <time>2021-08-19T10:10:52Z</time>
      </trkpt>
      <trkpt lat="45.4322520" lon="6.3672390">
        <ele>1891.4</ele>
        <time>2021-08-19T10:10:53Z</time>
      </trkpt>
      <trkpt lat="45.4322550" lon="6.3672720">
        <ele>1891.8</ele>
        <time>2021-08-19T10:10:54Z</time>
      </trkpt>
      <trkpt lat="45.4322580" lon="6.3673050">
        <ele>1892.0</ele>
        <time>2021-08-19T10:10:55Z</time>
      </trkpt>
      <trkpt lat="45.4322710" lon="6.3673680">
        <ele>1892.4</ele>
        <time>2021-08-19T10:10:57Z</time>
      </trkpt>
      <trkpt lat="45.4322780" lon="6.3674000">
        <ele>1892.4</ele>
        <time>2021-08-19T10:10:58Z</time>
      </trkpt>
      <trkpt lat="45.4322840" lon="6.3674310">
        <ele>1892.6</ele>
        <time>2021-08-19T10:10:59Z</time>
      </trkpt>
      <trkpt lat="45.4323040" lon="6.3675250">
        <ele>1893.2</ele>
        <time>2021-08-19T10:11:02Z</time>
      </trkpt>
      <trkpt lat="45.4323190" lon="6.3675870">
        <ele>1893.2</ele>
        <time>2021-08-19T10:11:04Z</time>
      </trkpt>
      <trkpt lat="45.4323280" lon="6.3676150">
        <ele>1893.8</ele>
        <time>2021-08-19T10:11:05Z</time>
      </trkpt>
      <trkpt lat="45.4323470" lon="6.3676740">
        <ele>1894.0</ele>
        <time>2021-08-19T10:11:07Z</time>
      </trkpt>
      <trkpt lat="45.4323580" lon="6.3677020">
        <ele>1894.2</ele>
        <time>2021-08-19T10:11:08Z</time>
      </trkpt>
      <trkpt lat="45.4323940" lon="6.3677850">
        <ele>1894.8</ele>
        <time>2021-08-19T10:11:11Z</time>
      </trkpt>
      <trkpt lat="45.4324210" lon="6.3678330">
        <ele>1895.2</ele>
        <time>2021-08-19T10:11:13Z</time>
      </trkpt>
      <trkpt lat="45.4324320" lon="6.3678520">
        <ele>1895.6</ele>
        <time>2021-08-19T10:11:14Z</time>
      </trkpt>
      <trkpt lat="45.4324590" lon="6.3679070">
        <ele>1896.0</ele>
        <time>2021-08-19T10:11:16Z</time>
      </trkpt>
      <trkpt lat="45.4325130" lon="6.3679970">
        <ele>1897.0</ele>
        <time>2021-08-19T10:11:20Z</time>
      </trkpt>
      <trkpt lat="45.4325300" lon="6.3680280">
        <ele>1897.4</ele>
        <time>2021-08-19T10:11:21Z</time>
      </trkpt>
      <trkpt lat="45.4325440" lon="6.3680520">
        <ele>1897.6</ele>
        <time>2021-08-19T10:11:22Z</time>
      </trkpt>
      <trkpt lat="45.4325550" lon="6.3680710">
        <ele>1898.0</ele>
        <time>2021-08-19T10:11:23Z</time>
      </trkpt>
      <trkpt lat="45.4325990" lon="6.3681500">
        <ele>1898.6</ele>
        <time>2021-08-19T10:11:26Z</time>
      </trkpt>
      <trkpt lat="45.4326550" lon="6.3682730">
        <ele>1899.6</ele>
        <time>2021-08-19T10:11:31Z</time>
      </trkpt>
      <trkpt lat="45.4326680" lon="6.3682970">
        <ele>1899.8</ele>
        <time>2021-08-19T10:11:32Z</time>
      </trkpt>
      <trkpt lat="45.4327290" lon="6.3684270">
        <ele>1901.0</ele>
        <time>2021-08-19T10:11:37Z</time>
      </trkpt>
      <trkpt lat="45.4327420" lon="6.3684530">
        <ele>1901.0</ele>
        <time>2021-08-19T10:11:38Z</time>
      </trkpt>
      <trkpt lat="45.4327550" lon="6.3684820">
        <ele>1901.2</ele>
        <time>2021-08-19T10:11:39Z</time>
      </trkpt>
      <trkpt lat="45.4327800" lon="6.3685300">
        <ele>1901.6</ele>
        <time>2021-08-19T10:11:41Z</time>
      </trkpt>
      <trkpt lat="45.4327890" lon="6.3685520">
        <ele>1901.8</ele>
        <time>2021-08-19T10:11:42Z</time>
      </trkpt>
      <trkpt lat="45.4328580" lon="6.3687130">
        <ele>1903.0</ele>
        <time>2021-08-19T10:11:48Z</time>
      </trkpt>
      <trkpt lat="45.4328920" lon="6.3688010">
        <ele>1903.6</ele>
        <time>2021-08-19T10:11:51Z</time>
      </trkpt>
      <trkpt lat="45.4329220" lon="6.3688830">
        <ele>1904.0</ele>
        <time>2021-08-19T10:11:54Z</time>
      </trkpt>
      <trkpt lat="45.4329360" lon="6.3690030">
        <ele>1904.6</ele>
        <time>2021-08-19T10:11:58Z</time>
      </trkpt>
      <trkpt lat="45.4329350" lon="6.3690350">
        <ele>1905.0</ele>
        <time>2021-08-19T10:11:59Z</time>
      </trkpt>
      <trkpt lat="45.4329180" lon="6.3691820">
        <ele>1906.0</ele>
        <time>2021-08-19T10:12:04Z</time>
      </trkpt>
      <trkpt lat="45.4329010" lon="6.3692310">
        <ele>1906.4</ele>
        <time>2021-08-19T10:12:06Z</time>
      </trkpt>
      <trkpt lat="45.4328640" lon="6.3692960">
        <ele>1907.2</ele>
        <time>2021-08-19T10:12:09Z</time>
      </trkpt>
      <trkpt lat="45.4327960" lon="6.3693700">
        <ele>1908.2</ele>
        <time>2021-08-19T10:12:13Z</time>
      </trkpt>
      <trkpt lat="45.4327210" lon="6.3694510">
        <ele>1909.2</ele>
        <time>2021-08-19T10:12:17Z</time>
      </trkpt>
      <trkpt lat="45.4327060" lon="6.3694670">
        <ele>1909.4</ele>
        <time>2021-08-19T10:12:18Z</time>
      </trkpt>
      <trkpt lat="45.4326850" lon="6.3694900">
        <ele>1909.6</ele>
        <time>2021-08-19T10:12:19Z</time>
      </trkpt>
      <trkpt lat="45.4326710" lon="6.3695080">
        <ele>1909.6</ele>
        <time>2021-08-19T10:12:20Z</time>
      </trkpt>
      <trkpt lat="45.4326160" lon="6.3695820">
        <ele>1910.2</ele>
        <time>2021-08-19T10:12:23Z</time>
      </trkpt>
      <trkpt lat="45.4325340" lon="6.3697630">
        <ele>1911.0</ele>
        <time>2021-08-19T10:12:30Z</time>
      </trkpt>
      <trkpt lat="45.4325230" lon="6.3698020">
        <ele>1911.2</ele>
        <time>2021-08-19T10:12:31Z</time>
      </trkpt>
      <trkpt lat="45.4325110" lon="6.3698680">
        <ele>1912.0</ele>
        <time>2021-08-19T10:12:33Z</time>
      </trkpt>
      <trkpt lat="45.4325060" lon="6.3699000">
        <ele>1912.2</ele>
        <time>2021-08-19T10:12:34Z</time>
      </trkpt>
      <trkpt lat="45.4324720" lon="6.3700230">
        <ele>1913.2</ele>
        <time>2021-08-19T10:12:38Z</time>
      </trkpt>
      <trkpt lat="45.4324490" lon="6.3701160">
        <ele>1913.8</ele>
        <time>2021-08-19T10:12:41Z</time>
      </trkpt>
      <trkpt lat="45.4324250" lon="6.3701970">
        <ele>1914.2</ele>
        <time>2021-08-19T10:12:44Z</time>
      </trkpt>
      <trkpt lat="45.4324160" lon="6.3702270">
        <ele>1914.6</ele>
        <time>2021-08-19T10:12:45Z</time>
      </trkpt>
      <trkpt lat="45.4323970" lon="6.3702940">
        <ele>1915.2</ele>
        <time>2021-08-19T10:12:47Z</time>
      </trkpt>
      <trkpt lat="45.4323900" lon="6.3703240">
        <ele>1915.2</ele>
        <time>2021-08-19T10:12:48Z</time>
      </trkpt>
      <trkpt lat="45.4323830" lon="6.3703490">
        <ele>1915.6</ele>
        <time>2021-08-19T10:12:49Z</time>
      </trkpt>
      <trkpt lat="45.4323620" lon="6.3704510">
        <ele>1916.2</ele>
        <time>2021-08-19T10:12:52Z</time>
      </trkpt>
      <trkpt lat="45.4323460" lon="6.3705100">
        <ele>1916.6</ele>
        <time>2021-08-19T10:12:54Z</time>
      </trkpt>
      <trkpt lat="45.4323140" lon="6.3706780">
        <ele>1917.8</ele>
        <time>2021-08-19T10:12:59Z</time>
      </trkpt>
      <trkpt lat="45.4323080" lon="6.3707430">
        <ele>1918.0</ele>
        <time>2021-08-19T10:13:01Z</time>
      </trkpt>
      <trkpt lat="45.4323090" lon="6.3709230">
        <ele>1918.6</ele>
        <time>2021-08-19T10:13:06Z</time>
      </trkpt>
      <trkpt lat="45.4323130" lon="6.3709550">
        <ele>1918.8</ele>
        <time>2021-08-19T10:13:07Z</time>
      </trkpt>
      <trkpt lat="45.4323170" lon="6.3709880">
        <ele>1919.0</ele>
        <time>2021-08-19T10:13:08Z</time>
      </trkpt>
      <trkpt lat="45.4323220" lon="6.3710210">
        <ele>1919.2</ele>
        <time>2021-08-19T10:13:09Z</time>
      </trkpt>
      <trkpt lat="45.4323370" lon="6.3710910">
        <ele>1919.6</ele>
        <time>2021-08-19T10:13:11Z</time>
      </trkpt>
      <trkpt lat="45.4323440" lon="6.3711240">
        <ele>1920.0</ele>
        <time>2021-08-19T10:13:12Z</time>
      </trkpt>
      <trkpt lat="45.4323570" lon="6.3711900">
        <ele>1920.4</ele>
        <time>2021-08-19T10:13:14Z</time>
      </trkpt>
      <trkpt lat="45.4323770" lon="6.3712760">
        <ele>1920.8</ele>
        <time>2021-08-19T10:13:17Z</time>
      </trkpt>
      <trkpt lat="45.4324140" lon="6.3713880">
        <ele>1921.8</ele>
        <time>2021-08-19T10:13:21Z</time>
      </trkpt>
      <trkpt lat="45.4324350" lon="6.3714380">
        <ele>1921.8</ele>
        <time>2021-08-19T10:13:23Z</time>
      </trkpt>
      <trkpt lat="45.4324550" lon="6.3714990">
        <ele>1922.2</ele>
        <time>2021-08-19T10:13:25Z</time>
      </trkpt>
      <trkpt lat="45.4325120" lon="6.3716510">
        <ele>1923.2</ele>
        <time>2021-08-19T10:13:30Z</time>
      </trkpt>
      <trkpt lat="45.4325700" lon="6.3718020">
        <ele>1924.2</ele>
        <time>2021-08-19T10:13:35Z</time>
      </trkpt>
      <trkpt lat="45.4326510" lon="6.3719420">
        <ele>1925.2</ele>
        <time>2021-08-19T10:13:41Z</time>
      </trkpt>
      <trkpt lat="45.4327250" lon="6.3720410">
        <ele>1926.2</ele>
        <time>2021-08-19T10:13:45Z</time>
      </trkpt>
      <trkpt lat="45.4328000" lon="6.3721290">
        <ele>1927.2</ele>
        <time>2021-08-19T10:13:49Z</time>
      </trkpt>
      <trkpt lat="45.4328590" lon="6.3721950">
        <ele>1927.8</ele>
        <time>2021-08-19T10:13:52Z</time>
      </trkpt>
      <trkpt lat="45.4328790" lon="6.3722190">
        <ele>1928.0</ele>
        <time>2021-08-19T10:13:53Z</time>
      </trkpt>
      <trkpt lat="45.4328960" lon="6.3722440">
        <ele>1928.0</ele>
        <time>2021-08-19T10:13:54Z</time>
      </trkpt>
      <trkpt lat="45.4329120" lon="6.3722690">
        <ele>1928.2</ele>
        <time>2021-08-19T10:13:55Z</time>
      </trkpt>
      <trkpt lat="45.4329710" lon="6.3723250">
        <ele>1928.6</ele>
        <time>2021-08-19T10:13:58Z</time>
      </trkpt>
      <trkpt lat="45.4330290" lon="6.3723960">
        <ele>1929.4</ele>
        <time>2021-08-19T10:14:01Z</time>
      </trkpt>
      <trkpt lat="45.4330650" lon="6.3724470">
        <ele>1930.0</ele>
        <time>2021-08-19T10:14:03Z</time>
      </trkpt>
      <trkpt lat="45.4330990" lon="6.3725000">
        <ele>1930.2</ele>
        <time>2021-08-19T10:14:05Z</time>
      </trkpt>
      <trkpt lat="45.4331150" lon="6.3725290">
        <ele>1930.4</ele>
        <time>2021-08-19T10:14:06Z</time>
      </trkpt>
      <trkpt lat="45.4331430" lon="6.3725860">
        <ele>1931.2</ele>
        <time>2021-08-19T10:14:08Z</time>
      </trkpt>
      <trkpt lat="45.4331530" lon="6.3726090">
        <ele>1931.2</ele>
        <time>2021-08-19T10:14:09Z</time>
      </trkpt>
      <trkpt lat="45.4331650" lon="6.3726390">
        <ele>1931.6</ele>
        <time>2021-08-19T10:14:10Z</time>
      </trkpt>
      <trkpt lat="45.4332310" lon="6.3728870">
        <ele>1932.8</ele>
        <time>2021-08-19T10:14:17Z</time>
      </trkpt>
      <trkpt lat="45.4332410" lon="6.3729210">
        <ele>1933.0</ele>
        <time>2021-08-19T10:14:18Z</time>
      </trkpt>
      <trkpt lat="45.4332560" lon="6.3729810">
        <ele>1933.6</ele>
        <time>2021-08-19T10:14:20Z</time>
      </trkpt>
      <trkpt lat="45.4332670" lon="6.3730190">
        <ele>1933.8</ele>
        <time>2021-08-19T10:14:21Z</time>
      </trkpt>
      <trkpt lat="45.4333070" lon="6.3731830">
        <ele>1934.8</ele>
        <time>2021-08-19T10:14:26Z</time>
      </trkpt>
      <trkpt lat="45.4333130" lon="6.3732160">
        <ele>1935.0</ele>
        <time>2021-08-19T10:14:27Z</time>
      </trkpt>
      <trkpt lat="45.4333360" lon="6.3733050">
        <ele>1935.6</ele>
        <time>2021-08-19T10:14:30Z</time>
      </trkpt>
      <trkpt lat="45.4333460" lon="6.3733440">
        <ele>1936.2</ele>
        <time>2021-08-19T10:14:31Z</time>
      </trkpt>
      <trkpt lat="45.4333790" lon="6.3734740">
        <ele>1937.2</ele>
        <time>2021-08-19T10:14:35Z</time>
      </trkpt>
      <trkpt lat="45.4333860" lon="6.3735060">
        <ele>1937.2</ele>
        <time>2021-08-19T10:14:36Z</time>
      </trkpt>
      <trkpt lat="45.4333990" lon="6.3735640">
        <ele>1937.4</ele>
        <time>2021-08-19T10:14:38Z</time>
      </trkpt>
      <trkpt lat="45.4334220" lon="6.3736330">
        <ele>1938.0</ele>
        <time>2021-08-19T10:14:40Z</time>
      </trkpt>
      <trkpt lat="45.4334370" lon="6.3736920">
        <ele>1938.4</ele>
        <time>2021-08-19T10:14:42Z</time>
      </trkpt>
      <trkpt lat="45.4334610" lon="6.3737940">
        <ele>1939.2</ele>
        <time>2021-08-19T10:14:45Z</time>
      </trkpt>
      <trkpt lat="45.4334990" lon="6.3739180">
        <ele>1939.8</ele>
        <time>2021-08-19T10:14:49Z</time>
      </trkpt>
      <trkpt lat="45.4335210" lon="6.3739860">
        <ele>1940.6</ele>
        <time>2021-08-19T10:14:51Z</time>
      </trkpt>
      <trkpt lat="45.4335880" lon="6.3741660">
        <ele>1942.0</ele>
        <time>2021-08-19T10:14:57Z</time>
      </trkpt>
      <trkpt lat="45.4337240" lon="6.3743520">
        <ele>1943.0</ele>
        <time>2021-08-19T10:15:05Z</time>
      </trkpt>
      <trkpt lat="45.4338440" lon="6.3744810">
        <ele>1944.0</ele>
        <time>2021-08-19T10:15:11Z</time>
      </trkpt>
      <trkpt lat="45.4339110" lon="6.3745530">
        <ele>1944.6</ele>
        <time>2021-08-19T10:15:14Z</time>
      </trkpt>
      <trkpt lat="45.4339740" lon="6.3746080">
        <ele>1945.0</ele>
        <time>2021-08-19T10:15:17Z</time>
      </trkpt>
      <trkpt lat="45.4340660" lon="6.3746930">
        <ele>1946.0</ele>
        <time>2021-08-19T10:15:21Z</time>
      </trkpt>
      <trkpt lat="45.4340830" lon="6.3747110">
        <ele>1946.2</ele>
        <time>2021-08-19T10:15:22Z</time>
      </trkpt>
      <trkpt lat="45.4341440" lon="6.3747840">
        <ele>1947.0</ele>
        <time>2021-08-19T10:15:25Z</time>
      </trkpt>
      <trkpt lat="45.4341850" lon="6.3748250">
        <ele>1947.6</ele>
        <time>2021-08-19T10:15:27Z</time>
      </trkpt>
      <trkpt lat="45.4342680" lon="6.3749080">
        <ele>1948.8</ele>
        <time>2021-08-19T10:15:31Z</time>
      </trkpt>
      <trkpt lat="45.4343890" lon="6.3750260">
        <ele>1949.4</ele>
        <time>2021-08-19T10:15:36Z</time>
      </trkpt>
      <trkpt lat="45.4344880" lon="6.3751310">
        <ele>1949.8</ele>
        <time>2021-08-19T10:15:40Z</time>
      </trkpt>
      <trkpt lat="45.4345730" lon="6.3752200">
        <ele>1950.2</ele>
        <time>2021-08-19T10:15:44Z</time>
      </trkpt>
      <trkpt lat="45.4346410" lon="6.3752920">
        <ele>1950.6</ele>
        <time>2021-08-19T10:15:47Z</time>
      </trkpt>
      <trkpt lat="45.4347520" lon="6.3754010">
        <ele>1951.6</ele>
        <time>2021-08-19T10:15:52Z</time>
      </trkpt>
      <trkpt lat="45.4348220" lon="6.3754560">
        <ele>1952.2</ele>
        <time>2021-08-19T10:15:55Z</time>
      </trkpt>
      <trkpt lat="45.4349200" lon="6.3755350">
        <ele>1952.8</ele>
        <time>2021-08-19T10:15:59Z</time>
      </trkpt>
      <trkpt lat="45.4349960" lon="6.3755990">
        <ele>1953.0</ele>
        <time>2021-08-19T10:16:02Z</time>
      </trkpt>
      <trkpt lat="45.4350500" lon="6.3756770">
        <ele>1953.2</ele>
        <time>2021-08-19T10:16:07Z</time>
      </trkpt>
      <trkpt lat="45.4350500" lon="6.3756770">
        <ele>1953.2</ele>
        <time>2021-08-19T10:16:08Z</time>
      </trkpt>
      <trkpt lat="45.4350110" lon="6.3757200">
        <ele>1954.8</ele>
        <time>2021-08-19T10:21:38Z</time>
      </trkpt>
      <trkpt lat="45.4350130" lon="6.3757180">
        <ele>1954.8</ele>
        <time>2021-08-19T10:21:39Z</time>
      </trkpt>
      <trkpt lat="45.4349880" lon="6.3756920">
        <ele>1978.6</ele>
        <time>2021-08-19T10:31:04Z</time>
      </trkpt>
      <trkpt lat="45.4349880" lon="6.3756920">
        <ele>1992.8</ele>
        <time>2021-08-19T10:31:05Z</time>
      </trkpt>
      <trkpt lat="45.4350040" lon="6.3756290">
        <ele>1994.8</ele>
        <time>2021-08-19T10:31:52Z</time>
      </trkpt>
      <trkpt lat="45.4349980" lon="6.3756100">
        <ele>1994.8</ele>
        <time>2021-08-19T10:31:53Z</time>
      </trkpt>
      <trkpt lat="45.4349860" lon="6.3755890">
        <ele>1994.8</ele>
        <time>2021-08-19T10:31:54Z</time>
      </trkpt>
      <trkpt lat="45.4349680" lon="6.3755680">
        <ele>1994.8</ele>
        <time>2021-08-19T10:31:55Z</time>
      </trkpt>
      <trkpt lat="45.4349090" lon="6.3754830">
        <ele>1994.6</ele>
        <time>2021-08-19T10:31:59Z</time>
      </trkpt>
      <trkpt lat="45.4348820" lon="6.3754720">
        <ele>1994.6</ele>
        <time>2021-08-19T10:32:00Z</time>
      </trkpt>
      <trkpt lat="45.4348140" lon="6.3754740">
        <ele>1994.4</ele>
        <time>2021-08-19T10:32:05Z</time>
      </trkpt>
      <trkpt lat="45.4348140" lon="6.3754740">
        <ele>1994.2</ele>
        <time>2021-08-19T10:32:07Z</time>
      </trkpt>
      <trkpt lat="45.4347750" lon="6.3754340">
        <ele>1992.8</ele>
        <time>2021-08-19T10:34:35Z</time>
      </trkpt>
      <trkpt lat="45.4347600" lon="6.3754170">
        <ele>1992.8</ele>
        <time>2021-08-19T10:34:36Z</time>
      </trkpt>
      <trkpt lat="45.4347480" lon="6.3754010">
        <ele>1992.8</ele>
        <time>2021-08-19T10:34:37Z</time>
      </trkpt>
      <trkpt lat="45.4347400" lon="6.3753860">
        <ele>1992.8</ele>
        <time>2021-08-19T10:34:40Z</time>
      </trkpt>
      <trkpt lat="45.4347080" lon="6.3753450">
        <ele>1992.4</ele>
        <time>2021-08-19T10:36:14Z</time>
      </trkpt>
      <trkpt lat="45.4346820" lon="6.3753180">
        <ele>1992.4</ele>
        <time>2021-08-19T10:36:15Z</time>
      </trkpt>
      <trkpt lat="45.4345890" lon="6.3752140">
        <ele>1992.0</ele>
        <time>2021-08-19T10:36:18Z</time>
      </trkpt>
      <trkpt lat="45.4345530" lon="6.3751710">
        <ele>1992.0</ele>
        <time>2021-08-19T10:36:19Z</time>
      </trkpt>
      <trkpt lat="45.4344710" lon="6.3750780">
        <ele>1991.8</ele>
        <time>2021-08-19T10:36:21Z</time>
      </trkpt>
      <trkpt lat="45.4344260" lon="6.3750290">
        <ele>1991.6</ele>
        <time>2021-08-19T10:36:22Z</time>
      </trkpt>
      <trkpt lat="45.4343870" lon="6.3749840">
        <ele>1991.2</ele>
        <time>2021-08-19T10:36:23Z</time>
      </trkpt>
      <trkpt lat="45.4343590" lon="6.3749500">
        <ele>1991.0</ele>
        <time>2021-08-19T10:36:24Z</time>
      </trkpt>
      <trkpt lat="45.4343370" lon="6.3749280">
        <ele>1990.8</ele>
        <time>2021-08-19T10:36:26Z</time>
      </trkpt>
      <trkpt lat="45.4343370" lon="6.3749280">
        <ele>1990.6</ele>
        <time>2021-08-19T10:36:27Z</time>
      </trkpt>
      <trkpt lat="45.4343370" lon="6.3749280">
        <ele>1990.6</ele>
        <time>2021-08-19T10:36:28Z</time>
      </trkpt>
      <trkpt lat="45.4343240" lon="6.3749140">
        <ele>1990.0</ele>
        <time>2021-08-19T10:38:07Z</time>
      </trkpt>
      <trkpt lat="45.4343000" lon="6.3748950">
        <ele>1990.0</ele>
        <time>2021-08-19T10:38:08Z</time>
      </trkpt>
      <trkpt lat="45.4342790" lon="6.3748760">
        <ele>1990.0</ele>
        <time>2021-08-19T10:38:09Z</time>
      </trkpt>
      <trkpt lat="45.4340990" lon="6.3746970">
        <ele>1989.4</ele>
        <time>2021-08-19T10:38:14Z</time>
      </trkpt>
      <trkpt lat="45.4338610" lon="6.3744510">
        <ele>1988.6</ele>
        <time>2021-08-19T10:38:19Z</time>
      </trkpt>
      <trkpt lat="45.4337370" lon="6.3743210">
        <ele>1988.4</ele>
        <time>2021-08-19T10:38:21Z</time>
      </trkpt>
      <trkpt lat="45.4336800" lon="6.3742550">
        <ele>1988.2</ele>
        <time>2021-08-19T10:38:22Z</time>
      </trkpt>
      <trkpt lat="45.4335870" lon="6.3740950">
        <ele>1987.2</ele>
        <time>2021-08-19T10:38:24Z</time>
      </trkpt>
      <trkpt lat="45.4334710" lon="6.3737200">
        <ele>1985.6</ele>
        <time>2021-08-19T10:38:27Z</time>
      </trkpt>
      <trkpt lat="45.4334450" lon="6.3736230">
        <ele>1984.4</ele>
        <time>2021-08-19T10:38:28Z</time>
      </trkpt>
      <trkpt lat="45.4333850" lon="6.3733840">
        <ele>1983.2</ele>
        <time>2021-08-19T10:38:30Z</time>
      </trkpt>
      <trkpt lat="45.4333190" lon="6.3731230">
        <ele>1981.8</ele>
        <time>2021-08-19T10:38:32Z</time>
      </trkpt>
      <trkpt lat="45.4332950" lon="6.3730250">
        <ele>1981.2</ele>
        <time>2021-08-19T10:38:33Z</time>
      </trkpt>
      <trkpt lat="45.4332640" lon="6.3729010">
        <ele>1980.4</ele>
        <time>2021-08-19T10:38:34Z</time>
      </trkpt>
      <trkpt lat="45.4332350" lon="6.3727850">
        <ele>1979.4</ele>
        <time>2021-08-19T10:38:35Z</time>
      </trkpt>
      <trkpt lat="45.4331550" lon="6.3725470">
        <ele>1977.6</ele>
        <time>2021-08-19T10:38:37Z</time>
      </trkpt>
      <trkpt lat="45.4331130" lon="6.3724690">
        <ele>1976.8</ele>
        <time>2021-08-19T10:38:38Z</time>
      </trkpt>
      <trkpt lat="45.4330530" lon="6.3723740">
        <ele>1976.6</ele>
        <time>2021-08-19T10:38:39Z</time>
      </trkpt>
      <trkpt lat="45.4329010" lon="6.3721780">
        <ele>1975.4</ele>
        <time>2021-08-19T10:38:41Z</time>
      </trkpt>
      <trkpt lat="45.4327770" lon="6.3720240">
        <ele>1974.4</ele>
        <time>2021-08-19T10:38:43Z</time>
      </trkpt>
      <trkpt lat="45.4326330" lon="6.3718260">
        <ele>1972.8</ele>
        <time>2021-08-19T10:38:45Z</time>
      </trkpt>
      <trkpt lat="45.4325280" lon="6.3716140">
        <ele>1971.8</ele>
        <time>2021-08-19T10:38:47Z</time>
      </trkpt>
      <trkpt lat="45.4324860" lon="6.3715030">
        <ele>1971.6</ele>
        <time>2021-08-19T10:38:48Z</time>
      </trkpt>
      <trkpt lat="45.4324140" lon="6.3712810">
        <ele>1970.2</ele>
        <time>2021-08-19T10:38:50Z</time>
      </trkpt>
      <trkpt lat="45.4323840" lon="6.3711720">
        <ele>1968.2</ele>
        <time>2021-08-19T10:38:51Z</time>
      </trkpt>
      <trkpt lat="45.4323640" lon="6.3710820">
        <ele>1967.4</ele>
        <time>2021-08-19T10:38:52Z</time>
      </trkpt>
      <trkpt lat="45.4323450" lon="6.3709670">
        <ele>1967.0</ele>
        <time>2021-08-19T10:38:53Z</time>
      </trkpt>
      <trkpt lat="45.4323280" lon="6.3707130">
        <ele>1965.8</ele>
        <time>2021-08-19T10:38:55Z</time>
      </trkpt>
      <trkpt lat="45.4323360" lon="6.3705990">
        <ele>1965.2</ele>
        <time>2021-08-19T10:38:56Z</time>
      </trkpt>
      <trkpt lat="45.4323540" lon="6.3704860">
        <ele>1965.0</ele>
        <time>2021-08-19T10:38:57Z</time>
      </trkpt>
      <trkpt lat="45.4323810" lon="6.3703760">
        <ele>1964.0</ele>
        <time>2021-08-19T10:38:58Z</time>
      </trkpt>
      <trkpt lat="45.4324050" lon="6.3702890">
        <ele>1962.8</ele>
        <time>2021-08-19T10:38:59Z</time>
      </trkpt>
      <trkpt lat="45.4324300" lon="6.3701840">
        <ele>1962.2</ele>
        <time>2021-08-19T10:39:00Z</time>
      </trkpt>
      <trkpt lat="45.4324630" lon="6.3700560">
        <ele>1960.4</ele>
        <time>2021-08-19T10:39:01Z</time>
      </trkpt>
      <trkpt lat="45.4325140" lon="6.3698650">
        <ele>1958.6</ele>
        <time>2021-08-19T10:39:03Z</time>
      </trkpt>
      <trkpt lat="45.4326260" lon="6.3695780">
        <ele>1957.2</ele>
        <time>2021-08-19T10:39:06Z</time>
      </trkpt>
      <trkpt lat="45.4327270" lon="6.3694530">
        <ele>1956.0</ele>
        <time>2021-08-19T10:39:08Z</time>
      </trkpt>
      <trkpt lat="45.4327950" lon="6.3693810">
        <ele>1955.8</ele>
        <time>2021-08-19T10:39:09Z</time>
      </trkpt>
      <trkpt lat="45.4328480" lon="6.3693220">
        <ele>1955.2</ele>
        <time>2021-08-19T10:39:10Z</time>
      </trkpt>
      <trkpt lat="45.4328950" lon="6.3692540">
        <ele>1954.8</ele>
        <time>2021-08-19T10:39:11Z</time>
      </trkpt>
      <trkpt lat="45.4329320" lon="6.3691730">
        <ele>1954.2</ele>
        <time>2021-08-19T10:39:12Z</time>
      </trkpt>
      <trkpt lat="45.4329570" lon="6.3690800">
        <ele>1953.4</ele>
        <time>2021-08-19T10:39:13Z</time>
      </trkpt>
      <trkpt lat="45.4329490" lon="6.3688710">
        <ele>1952.2</ele>
        <time>2021-08-19T10:39:15Z</time>
      </trkpt>
      <trkpt lat="45.4329180" lon="6.3687680">
        <ele>1952.0</ele>
        <time>2021-08-19T10:39:16Z</time>
      </trkpt>
      <trkpt lat="45.4328790" lon="6.3686630">
        <ele>1951.0</ele>
        <time>2021-08-19T10:39:17Z</time>
      </trkpt>
      <trkpt lat="45.4327800" lon="6.3684440">
        <ele>1949.8</ele>
        <time>2021-08-19T10:39:19Z</time>
      </trkpt>
      <trkpt lat="45.4327250" lon="6.3683320">
        <ele>1948.4</ele>
        <time>2021-08-19T10:39:20Z</time>
      </trkpt>
      <trkpt lat="45.4326090" lon="6.3681120">
        <ele>1947.0</ele>
        <time>2021-08-19T10:39:22Z</time>
      </trkpt>
      <trkpt lat="45.4325560" lon="6.3680130">
        <ele>1946.8</ele>
        <time>2021-08-19T10:39:23Z</time>
      </trkpt>
      <trkpt lat="45.4325040" lon="6.3679220">
        <ele>1945.8</ele>
        <time>2021-08-19T10:39:24Z</time>
      </trkpt>
      <trkpt lat="45.4324560" lon="6.3678360">
        <ele>1945.2</ele>
        <time>2021-08-19T10:39:25Z</time>
      </trkpt>
      <trkpt lat="45.4324210" lon="6.3677650">
        <ele>1943.8</ele>
        <time>2021-08-19T10:39:26Z</time>
      </trkpt>
      <trkpt lat="45.4323730" lon="6.3676500">
        <ele>1943.6</ele>
        <time>2021-08-19T10:39:27Z</time>
      </trkpt>
      <trkpt lat="45.4323380" lon="6.3675440">
        <ele>1942.4</ele>
        <time>2021-08-19T10:39:28Z</time>
      </trkpt>
      <trkpt lat="45.4323100" lon="6.3674350">
        <ele>1941.4</ele>
        <time>2021-08-19T10:39:29Z</time>
      </trkpt>
      <trkpt lat="45.4322880" lon="6.3673280">
        <ele>1940.8</ele>
        <time>2021-08-19T10:39:30Z</time>
      </trkpt>
      <trkpt lat="45.4322590" lon="6.3670070">
        <ele>1939.2</ele>
        <time>2021-08-19T10:39:33Z</time>
      </trkpt>
      <trkpt lat="45.4323070" lon="6.3666920">
        <ele>1937.6</ele>
        <time>2021-08-19T10:39:36Z</time>
      </trkpt>
      <trkpt lat="45.4323380" lon="6.3664610">
        <ele>1936.0</ele>
        <time>2021-08-19T10:39:38Z</time>
      </trkpt>
      <trkpt lat="45.4323040" lon="6.3662560">
        <ele>1934.4</ele>
        <time>2021-08-19T10:39:40Z</time>
      </trkpt>
      <trkpt lat="45.4322650" lon="6.3661550">
        <ele>1934.0</ele>
        <time>2021-08-19T10:39:41Z</time>
      </trkpt>
      <trkpt lat="45.4322230" lon="6.3660490">
        <ele>1933.8</ele>
        <time>2021-08-19T10:39:42Z</time>
      </trkpt>
      <trkpt lat="45.4321830" lon="6.3659360">
        <ele>1933.2</ele>
        <time>2021-08-19T10:39:43Z</time>
      </trkpt>
      <trkpt lat="45.4321170" lon="6.3656970">
        <ele>1932.4</ele>
        <time>2021-08-19T10:39:45Z</time>
      </trkpt>
      <trkpt lat="45.4320970" lon="6.3656010">
        <ele>1932.0</ele>
        <time>2021-08-19T10:39:46Z</time>
      </trkpt>
      <trkpt lat="45.4320700" lon="6.3654560">
        <ele>1930.2</ele>
        <time>2021-08-19T10:39:47Z</time>
      </trkpt>
      <trkpt lat="45.4320270" lon="6.3652040">
        <ele>1928.8</ele>
        <time>2021-08-19T10:39:49Z</time>
      </trkpt>
      <trkpt lat="45.4320060" lon="6.3650790">
        <ele>1927.8</ele>
        <time>2021-08-19T10:39:50Z</time>
      </trkpt>
      <trkpt lat="45.4319910" lon="6.3649790">
        <ele>1927.0</ele>
        <time>2021-08-19T10:39:51Z</time>
      </trkpt>
      <trkpt lat="45.4319730" lon="6.3648530">
        <ele>1926.0</ele>
        <time>2021-08-19T10:39:52Z</time>
      </trkpt>
      <trkpt lat="45.4319490" lon="6.3647030">
        <ele>1925.0</ele>
        <time>2021-08-19T10:39:53Z</time>
      </trkpt>
      <trkpt lat="45.4319330" lon="6.3645840">
        <ele>1923.8</ele>
        <time>2021-08-19T10:39:54Z</time>
      </trkpt>
      <trkpt lat="45.4318980" lon="6.3642470">
        <ele>1922.4</ele>
        <time>2021-08-19T10:39:57Z</time>
      </trkpt>
      <trkpt lat="45.4318530" lon="6.3639810">
        <ele>1921.4</ele>
        <time>2021-08-19T10:39:59Z</time>
      </trkpt>
      <trkpt lat="45.4318250" lon="6.3638670">
        <ele>1921.0</ele>
        <time>2021-08-19T10:40:00Z</time>
      </trkpt>
      <trkpt lat="45.4317940" lon="6.3637590">
        <ele>1919.6</ele>
        <time>2021-08-19T10:40:01Z</time>
      </trkpt>
      <trkpt lat="45.4317670" lon="6.3636760">
        <ele>1919.0</ele>
        <time>2021-08-19T10:40:02Z</time>
      </trkpt>
      <trkpt lat="45.4317200" lon="6.3635540">
        <ele>1918.0</ele>
        <time>2021-08-19T10:40:03Z</time>
      </trkpt>
      <trkpt lat="45.4316050" lon="6.3633720">
        <ele>1917.0</ele>
        <time>2021-08-19T10:40:05Z</time>
      </trkpt>
      <trkpt lat="45.4315330" lon="6.3632920">
        <ele>1916.4</ele>
        <time>2021-08-19T10:40:06Z</time>
      </trkpt>
      <trkpt lat="45.4313760" lon="6.3631410">
        <ele>1915.0</ele>
        <time>2021-08-19T10:40:08Z</time>
      </trkpt>
      <trkpt lat="45.4312950" lon="6.3630670">
        <ele>1913.8</ele>
        <time>2021-08-19T10:40:09Z</time>
      </trkpt>
      <trkpt lat="45.4312140" lon="6.3629940">
        <ele>1912.4</ele>
        <time>2021-08-19T10:40:10Z</time>
      </trkpt>
      <trkpt lat="45.4310580" lon="6.3628570">
        <ele>1910.8</ele>
        <time>2021-08-19T10:40:12Z</time>
      </trkpt>
      <trkpt lat="45.4309890" lon="6.3627900">
        <ele>1909.6</ele>
        <time>2021-08-19T10:40:13Z</time>
      </trkpt>
      <trkpt lat="45.4309250" lon="6.3627140">
        <ele>1909.2</ele>
        <time>2021-08-19T10:40:14Z</time>
      </trkpt>
      <trkpt lat="45.4308810" lon="6.3626450">
        <ele>1907.8</ele>
        <time>2021-08-19T10:40:15Z</time>
      </trkpt>
      <trkpt lat="45.4307760" lon="6.3624670">
        <ele>1906.8</ele>
        <time>2021-08-19T10:40:17Z</time>
      </trkpt>
      <trkpt lat="45.4307250" lon="6.3623590">
        <ele>1906.4</ele>
        <time>2021-08-19T10:40:18Z</time>
      </trkpt>
      <trkpt lat="45.4306660" lon="6.3622140">
        <ele>1905.2</ele>
        <time>2021-08-19T10:40:20Z</time>
      </trkpt>
      <trkpt lat="45.4305620" lon="6.3621270">
        <ele>1903.4</ele>
        <time>2021-08-19T10:40:22Z</time>
      </trkpt>
      <trkpt lat="45.4304820" lon="6.3621830">
        <ele>1902.6</ele>
        <time>2021-08-19T10:40:24Z</time>
      </trkpt>
      <trkpt lat="45.4304580" lon="6.3622510">
        <ele>1902.2</ele>
        <time>2021-08-19T10:40:25Z</time>
      </trkpt>
      <trkpt lat="45.4304500" lon="6.3623320">
        <ele>1901.4</ele>
        <time>2021-08-19T10:40:26Z</time>
      </trkpt>
      <trkpt lat="45.4304650" lon="6.3624190">
        <ele>1900.8</ele>
        <time>2021-08-19T10:40:27Z</time>
      </trkpt>
      <trkpt lat="45.4304940" lon="6.3625030">
        <ele>1900.6</ele>
        <time>2021-08-19T10:40:28Z</time>
      </trkpt>
      <trkpt lat="45.4305610" lon="6.3626850">
        <ele>1899.8</ele>
        <time>2021-08-19T10:40:30Z</time>
      </trkpt>
      <trkpt lat="45.4306000" lon="6.3627810">
        <ele>1899.2</ele>
        <time>2021-08-19T10:40:31Z</time>
      </trkpt>
      <trkpt lat="45.4306850" lon="6.3629890">
        <ele>1897.4</ele>
        <time>2021-08-19T10:40:33Z</time>
      </trkpt>
      <trkpt lat="45.4308120" lon="6.3633220">
        <ele>1896.0</ele>
        <time>2021-08-19T10:40:36Z</time>
      </trkpt>
      <trkpt lat="45.4308980" lon="6.3635470">
        <ele>1895.0</ele>
        <time>2021-08-19T10:40:38Z</time>
      </trkpt>
      <trkpt lat="45.4309410" lon="6.3636560">
        <ele>1894.8</ele>
        <time>2021-08-19T10:40:39Z</time>
      </trkpt>
      <trkpt lat="45.4309830" lon="6.3637590">
        <ele>1893.4</ele>
        <time>2021-08-19T10:40:40Z</time>
      </trkpt>
      <trkpt lat="45.4310190" lon="6.3638620">
        <ele>1892.6</ele>
        <time>2021-08-19T10:40:41Z</time>
      </trkpt>
      <trkpt lat="45.4310440" lon="6.3639670">
        <ele>1891.6</ele>
        <time>2021-08-19T10:40:42Z</time>
      </trkpt>
      <trkpt lat="45.4310550" lon="6.3640760">
        <ele>1890.6</ele>
        <time>2021-08-19T10:40:43Z</time>
      </trkpt>
      <trkpt lat="45.4310550" lon="6.3641900">
        <ele>1890.2</ele>
        <time>2021-08-19T10:40:44Z</time>
      </trkpt>
      <trkpt lat="45.4310410" lon="6.3643100">
        <ele>1889.6</ele>
        <time>2021-08-19T10:40:45Z</time>
      </trkpt>
      <trkpt lat="45.4310200" lon="6.3644330">
        <ele>1889.2</ele>
        <time>2021-08-19T10:40:46Z</time>
      </trkpt>
      <trkpt lat="45.4309960" lon="6.3645620">
        <ele>1888.6</ele>
        <time>2021-08-19T10:40:47Z</time>
      </trkpt>
      <trkpt lat="45.4309750" lon="6.3646930">
        <ele>1888.2</ele>
        <time>2021-08-19T10:40:48Z</time>
      </trkpt>
      <trkpt lat="45.4309550" lon="6.3648220">
        <ele>1887.4</ele>
        <time>2021-08-19T10:40:49Z</time>
      </trkpt>
      <trkpt lat="45.4309340" lon="6.3649450">
        <ele>1886.8</ele>
        <time>2021-08-19T10:40:50Z</time>
      </trkpt>
      <trkpt lat="45.4309090" lon="6.3650600">
        <ele>1886.4</ele>
        <time>2021-08-19T10:40:51Z</time>
      </trkpt>
      <trkpt lat="45.4308850" lon="6.3651660">
        <ele>1885.2</ele>
        <time>2021-08-19T10:40:52Z</time>
      </trkpt>
      <trkpt lat="45.4308550" lon="6.3652640">
        <ele>1884.6</ele>
        <time>2021-08-19T10:40:53Z</time>
      </trkpt>
      <trkpt lat="45.4308130" lon="6.3653540">
        <ele>1884.0</ele>
        <time>2021-08-19T10:40:54Z</time>
      </trkpt>
      <trkpt lat="45.4307530" lon="6.3654300">
        <ele>1883.8</ele>
        <time>2021-08-19T10:40:55Z</time>
      </trkpt>
      <trkpt lat="45.4306800" lon="6.3654950">
        <ele>1882.2</ele>
        <time>2021-08-19T10:40:56Z</time>
      </trkpt>
      <trkpt lat="45.4305990" lon="6.3655590">
        <ele>1881.8</ele>
        <time>2021-08-19T10:40:57Z</time>
      </trkpt>
      <trkpt lat="45.4305160" lon="6.3656280">
        <ele>1880.8</ele>
        <time>2021-08-19T10:40:58Z</time>
      </trkpt>
      <trkpt lat="45.4303520" lon="6.3657680">
        <ele>1879.4</ele>
        <time>2021-08-19T10:41:00Z</time>
      </trkpt>
      <trkpt lat="45.4302700" lon="6.3658350">
        <ele>1878.2</ele>
        <time>2021-08-19T10:41:01Z</time>
      </trkpt>
      <trkpt lat="45.4301100" lon="6.3659690">
        <ele>1877.0</ele>
        <time>2021-08-19T10:41:03Z</time>
      </trkpt>
      <trkpt lat="45.4300180" lon="6.3660480">
        <ele>1876.0</ele>
        <time>2021-08-19T10:41:04Z</time>
      </trkpt>
      <trkpt lat="45.4299550" lon="6.3660990">
        <ele>1874.4</ele>
        <time>2021-08-19T10:41:05Z</time>
      </trkpt>
      <trkpt lat="45.4298750" lon="6.3661640">
        <ele>1873.4</ele>
        <time>2021-08-19T10:41:06Z</time>
      </trkpt>
      <trkpt lat="45.4296880" lon="6.3663160">
        <ele>1872.2</ele>
        <time>2021-08-19T10:41:08Z</time>
      </trkpt>
      <trkpt lat="45.4294590" lon="6.3665080">
        <ele>1871.2</ele>
        <time>2021-08-19T10:41:11Z</time>
      </trkpt>
      <trkpt lat="45.4293660" lon="6.3665830">
        <ele>1870.4</ele>
        <time>2021-08-19T10:41:12Z</time>
      </trkpt>
      <trkpt lat="45.4292870" lon="6.3666470">
        <ele>1870.2</ele>
        <time>2021-08-19T10:41:13Z</time>
      </trkpt>
      <trkpt lat="45.4292240" lon="6.3666990">
        <ele>1868.6</ele>
        <time>2021-08-19T10:41:14Z</time>
      </trkpt>
      <trkpt lat="45.4291460" lon="6.3667620">
        <ele>1867.2</ele>
        <time>2021-08-19T10:41:15Z</time>
      </trkpt>
      <trkpt lat="45.4289680" lon="6.3669110">
        <ele>1865.6</ele>
        <time>2021-08-19T10:41:17Z</time>
      </trkpt>
      <trkpt lat="45.4288240" lon="6.3670310">
        <ele>1863.4</ele>
        <time>2021-08-19T10:41:19Z</time>
      </trkpt>
      <trkpt lat="45.4287430" lon="6.3670990">
        <ele>1862.8</ele>
        <time>2021-08-19T10:41:20Z</time>
      </trkpt>
      <trkpt lat="45.4286620" lon="6.3671650">
        <ele>1861.8</ele>
        <time>2021-08-19T10:41:21Z</time>
      </trkpt>
      <trkpt lat="45.4284920" lon="6.3672930">
        <ele>1860.4</ele>
        <time>2021-08-19T10:41:23Z</time>
      </trkpt>
      <trkpt lat="45.4283550" lon="6.3674060">
        <ele>1859.4</ele>
        <time>2021-08-19T10:41:25Z</time>
      </trkpt>
      <trkpt lat="45.4282810" lon="6.3674740">
        <ele>1858.0</ele>
        <time>2021-08-19T10:41:26Z</time>
      </trkpt>
      <trkpt lat="45.4281170" lon="6.3676110">
        <ele>1856.6</ele>
        <time>2021-08-19T10:41:28Z</time>
      </trkpt>
      <trkpt lat="45.4279670" lon="6.3677320">
        <ele>1855.0</ele>
        <time>2021-08-19T10:41:30Z</time>
      </trkpt>
      <trkpt lat="45.4279070" lon="6.3677810">
        <ele>1853.6</ele>
        <time>2021-08-19T10:41:31Z</time>
      </trkpt>
      <trkpt lat="45.4278180" lon="6.3678550">
        <ele>1853.0</ele>
        <time>2021-08-19T10:41:32Z</time>
      </trkpt>
      <trkpt lat="45.4277440" lon="6.3679130">
        <ele>1852.4</ele>
        <time>2021-08-19T10:41:33Z</time>
      </trkpt>
      <trkpt lat="45.4276190" lon="6.3680130">
        <ele>1851.0</ele>
        <time>2021-08-19T10:41:35Z</time>
      </trkpt>
      <trkpt lat="45.4275620" lon="6.3680740">
        <ele>1850.4</ele>
        <time>2021-08-19T10:41:36Z</time>
      </trkpt>
      <trkpt lat="45.4275140" lon="6.3681440">
        <ele>1848.8</ele>
        <time>2021-08-19T10:41:37Z</time>
      </trkpt>
      <trkpt lat="45.4274780" lon="6.3682300">
        <ele>1848.0</ele>
        <time>2021-08-19T10:41:38Z</time>
      </trkpt>
      <trkpt lat="45.4274490" lon="6.3683460">
        <ele>1847.8</ele>
        <time>2021-08-19T10:41:39Z</time>
      </trkpt>
      <trkpt lat="45.4274420" lon="6.3684450">
        <ele>1847.2</ele>
        <time>2021-08-19T10:41:40Z</time>
      </trkpt>
      <trkpt lat="45.4274370" lon="6.3685430">
        <ele>1847.0</ele>
        <time>2021-08-19T10:41:41Z</time>
      </trkpt>
      <trkpt lat="45.4274210" lon="6.3686370">
        <ele>1846.4</ele>
        <time>2021-08-19T10:41:42Z</time>
      </trkpt>
      <trkpt lat="45.4273920" lon="6.3687300">
        <ele>1846.2</ele>
        <time>2021-08-19T10:41:43Z</time>
      </trkpt>
      <trkpt lat="45.4273490" lon="6.3688210">
        <ele>1845.6</ele>
        <time>2021-08-19T10:41:44Z</time>
      </trkpt>
      <trkpt lat="45.4272920" lon="6.3689040">
        <ele>1845.0</ele>
        <time>2021-08-19T10:41:45Z</time>
      </trkpt>
      <trkpt lat="45.4272220" lon="6.3689780">
        <ele>1844.4</ele>
        <time>2021-08-19T10:41:46Z</time>
      </trkpt>
      <trkpt lat="45.4271450" lon="6.3690420">
        <ele>1843.4</ele>
        <time>2021-08-19T10:41:47Z</time>
      </trkpt>
      <trkpt lat="45.4269900" lon="6.3691410">
        <ele>1841.6</ele>
        <time>2021-08-19T10:41:49Z</time>
      </trkpt>
      <trkpt lat="45.4268390" lon="6.3692300">
        <ele>1840.6</ele>
        <time>2021-08-19T10:41:51Z</time>
      </trkpt>
      <trkpt lat="45.4267680" lon="6.3692820">
        <ele>1840.4</ele>
        <time>2021-08-19T10:41:52Z</time>
      </trkpt>
      <trkpt lat="45.4266390" lon="6.3694180">
        <ele>1839.2</ele>
        <time>2021-08-19T10:41:54Z</time>
      </trkpt>
      <trkpt lat="45.4265830" lon="6.3695020">
        <ele>1838.4</ele>
        <time>2021-08-19T10:41:55Z</time>
      </trkpt>
      <trkpt lat="45.4265330" lon="6.3695920">
        <ele>1837.6</ele>
        <time>2021-08-19T10:41:56Z</time>
      </trkpt>
      <trkpt lat="45.4264880" lon="6.3696870">
        <ele>1837.2</ele>
        <time>2021-08-19T10:41:57Z</time>
      </trkpt>
      <trkpt lat="45.4264480" lon="6.3697860">
        <ele>1835.8</ele>
        <time>2021-08-19T10:41:58Z</time>
      </trkpt>
      <trkpt lat="45.4263680" lon="6.3700020">
        <ele>1833.8</ele>
        <time>2021-08-19T10:42:00Z</time>
      </trkpt>
      <trkpt lat="45.4262760" lon="6.3702060">
        <ele>1832.8</ele>
        <time>2021-08-19T10:42:02Z</time>
      </trkpt>
      <trkpt lat="45.4261730" lon="6.3703860">
        <ele>1831.4</ele>
        <time>2021-08-19T10:42:04Z</time>
      </trkpt>
      <trkpt lat="45.4261200" lon="6.3704650">
        <ele>1830.0</ele>
        <time>2021-08-19T10:42:05Z</time>
      </trkpt>
      <trkpt lat="45.4260270" lon="6.3706280">
        <ele>1828.8</ele>
        <time>2021-08-19T10:42:07Z</time>
      </trkpt>
      <trkpt lat="45.4259900" lon="6.3707210">
        <ele>1828.4</ele>
        <time>2021-08-19T10:42:08Z</time>
      </trkpt>
      <trkpt lat="45.4259620" lon="6.3708220">
        <ele>1827.8</ele>
        <time>2021-08-19T10:42:09Z</time>
      </trkpt>
      <trkpt lat="45.4259430" lon="6.3709250">
        <ele>1827.6</ele>
        <time>2021-08-19T10:42:10Z</time>
      </trkpt>
      <trkpt lat="45.4259350" lon="6.3710140">
        <ele>1827.2</ele>
        <time>2021-08-19T10:42:11Z</time>
      </trkpt>
      <trkpt lat="45.4259420" lon="6.3712660">
        <ele>1826.2</ele>
        <time>2021-08-19T10:42:13Z</time>
      </trkpt>
      <trkpt lat="45.4259690" lon="6.3714640">
        <ele>1825.0</ele>
        <time>2021-08-19T10:42:15Z</time>
      </trkpt>
      <trkpt lat="45.4259930" lon="6.3715900">
        <ele>1824.4</ele>
        <time>2021-08-19T10:42:16Z</time>
      </trkpt>
      <trkpt lat="45.4260210" lon="6.3716900">
        <ele>1824.0</ele>
        <time>2021-08-19T10:42:17Z</time>
      </trkpt>
      <trkpt lat="45.4260500" lon="6.3717940">
        <ele>1823.0</ele>
        <time>2021-08-19T10:42:18Z</time>
      </trkpt>
      <trkpt lat="45.4261090" lon="6.3719810">
        <ele>1821.8</ele>
        <time>2021-08-19T10:42:20Z</time>
      </trkpt>
      <trkpt lat="45.4261750" lon="6.3722110">
        <ele>1820.6</ele>
        <time>2021-08-19T10:42:22Z</time>
      </trkpt>
      <trkpt lat="45.4261980" lon="6.3723280">
        <ele>1820.0</ele>
        <time>2021-08-19T10:42:23Z</time>
      </trkpt>
      <trkpt lat="45.4262410" lon="6.3725720">
        <ele>1819.2</ele>
        <time>2021-08-19T10:42:25Z</time>
      </trkpt>
      <trkpt lat="45.4262730" lon="6.3728140">
        <ele>1817.4</ele>
        <time>2021-08-19T10:42:27Z</time>
      </trkpt>
      <trkpt lat="45.4262830" lon="6.3729290">
        <ele>1816.4</ele>
        <time>2021-08-19T10:42:28Z</time>
      </trkpt>
      <trkpt lat="45.4262830" lon="6.3730410">
        <ele>1814.2</ele>
        <time>2021-08-19T10:42:29Z</time>
      </trkpt>
      <trkpt lat="45.4262720" lon="6.3731510">
        <ele>1812.6</ele>
        <time>2021-08-19T10:42:30Z</time>
      </trkpt>
      <trkpt lat="45.4262470" lon="6.3732650">
        <ele>1811.8</ele>
        <time>2021-08-19T10:42:31Z</time>
      </trkpt>
      <trkpt lat="45.4262150" lon="6.3733770">
        <ele>1810.8</ele>
        <time>2021-08-19T10:42:32Z</time>
      </trkpt>
      <trkpt lat="45.4261430" lon="6.3735890">
        <ele>1808.6</ele>
        <time>2021-08-19T10:42:34Z</time>
      </trkpt>
      <trkpt lat="45.4260780" lon="6.3737620">
        <ele>1807.4</ele>
        <time>2021-08-19T10:42:36Z</time>
      </trkpt>
      <trkpt lat="45.4259990" lon="6.3739490">
        <ele>1806.6</ele>
        <time>2021-08-19T10:42:38Z</time>
      </trkpt>
      <trkpt lat="45.4259010" lon="6.3740580">
        <ele>1806.2</ele>
        <time>2021-08-19T10:42:40Z</time>
      </trkpt>
      <trkpt lat="45.4258450" lon="6.3740710">
        <ele>1805.4</ele>
        <time>2021-08-19T10:42:41Z</time>
      </trkpt>
      <trkpt lat="45.4257900" lon="6.3740520">
        <ele>1805.0</ele>
        <time>2021-08-19T10:42:42Z</time>
      </trkpt>
      <trkpt lat="45.4257410" lon="6.3740010">
        <ele>1804.6</ele>
        <time>2021-08-19T10:42:43Z</time>
      </trkpt>
      <trkpt lat="45.4257040" lon="6.3739270">
        <ele>1804.4</ele>
        <time>2021-08-19T10:42:44Z</time>
      </trkpt>
      <trkpt lat="45.4256880" lon="6.3738350">
        <ele>1804.0</ele>
        <time>2021-08-19T10:42:45Z</time>
      </trkpt>
      <trkpt lat="45.4256980" lon="6.3737410">
        <ele>1803.0</ele>
        <time>2021-08-19T10:42:46Z</time>
      </trkpt>
      <trkpt lat="45.4257310" lon="6.3736540">
        <ele>1802.8</ele>
        <time>2021-08-19T10:42:47Z</time>
      </trkpt>
      <trkpt lat="45.4258530" lon="6.3733970">
        <ele>1801.2</ele>
        <time>2021-08-19T10:42:50Z</time>
      </trkpt>
      <trkpt lat="45.4258860" lon="6.3731890">
        <ele>1800.0</ele>
        <time>2021-08-19T10:42:53Z</time>
      </trkpt>
      <trkpt lat="45.4258360" lon="6.3729860">
        <ele>1799.2</ele>
        <time>2021-08-19T10:42:55Z</time>
      </trkpt>
      <trkpt lat="45.4257980" lon="6.3729130">
        <ele>1798.8</ele>
        <time>2021-08-19T10:42:56Z</time>
      </trkpt>
      <trkpt lat="45.4256790" lon="6.3727110">
        <ele>1798.2</ele>
        <time>2021-08-19T10:42:58Z</time>
      </trkpt>
      <trkpt lat="45.4256310" lon="6.3726120">
        <ele>1797.6</ele>
        <time>2021-08-19T10:42:59Z</time>
      </trkpt>
      <trkpt lat="45.4255880" lon="6.3725070">
        <ele>1796.4</ele>
        <time>2021-08-19T10:43:00Z</time>
      </trkpt>
      <trkpt lat="45.4255080" lon="6.3722810">
        <ele>1795.2</ele>
        <time>2021-08-19T10:43:02Z</time>
      </trkpt>
      <trkpt lat="45.4253580" lon="6.3719460">
        <ele>1793.8</ele>
        <time>2021-08-19T10:43:05Z</time>
      </trkpt>
      <trkpt lat="45.4252460" lon="6.3717190">
        <ele>1793.2</ele>
        <time>2021-08-19T10:43:07Z</time>
      </trkpt>
      <trkpt lat="45.4251640" lon="6.3714600">
        <ele>1792.6</ele>
        <time>2021-08-19T10:43:09Z</time>
      </trkpt>
      <trkpt lat="45.4251070" lon="6.3712150">
        <ele>1790.6</ele>
        <time>2021-08-19T10:43:11Z</time>
      </trkpt>
      <trkpt lat="45.4250400" lon="6.3709190">
        <ele>1788.8</ele>
        <time>2021-08-19T10:43:13Z</time>
      </trkpt>
      <trkpt lat="45.4249510" lon="6.3705730">
        <ele>1787.2</ele>
        <time>2021-08-19T10:43:16Z</time>
      </trkpt>
      <trkpt lat="45.4248930" lon="6.3703170">
        <ele>1784.6</ele>
        <time>2021-08-19T10:43:18Z</time>
      </trkpt>
      <trkpt lat="45.4248780" lon="6.3700670">
        <ele>1783.6</ele>
        <time>2021-08-19T10:43:20Z</time>
      </trkpt>
      <trkpt lat="45.4248770" lon="6.3699600">
        <ele>1783.4</ele>
        <time>2021-08-19T10:43:21Z</time>
      </trkpt>
      <trkpt lat="45.4248820" lon="6.3698000">
        <ele>1782.4</ele>
        <time>2021-08-19T10:43:22Z</time>
      </trkpt>
      <trkpt lat="45.4248950" lon="6.3696730">
        <ele>1781.4</ele>
        <time>2021-08-19T10:43:23Z</time>
      </trkpt>
      <trkpt lat="45.4249190" lon="6.3695560">
        <ele>1781.2</ele>
        <time>2021-08-19T10:43:24Z</time>
      </trkpt>
      <trkpt lat="45.4249550" lon="6.3694510">
        <ele>1780.0</ele>
        <time>2021-08-19T10:43:25Z</time>
      </trkpt>
      <trkpt lat="45.4249920" lon="6.3693810">
        <ele>1779.4</ele>
        <time>2021-08-19T10:43:26Z</time>
      </trkpt>
      <trkpt lat="45.4250510" lon="6.3692910">
        <ele>1778.6</ele>
        <time>2021-08-19T10:43:27Z</time>
      </trkpt>
      <trkpt lat="45.4251420" lon="6.3691650">
        <ele>1777.4</ele>
        <time>2021-08-19T10:43:29Z</time>
      </trkpt>
      <trkpt lat="45.4252000" lon="6.3689960">
        <ele>1776.4</ele>
        <time>2021-08-19T10:43:31Z</time>
      </trkpt>
      <trkpt lat="45.4251950" lon="6.3689040">
        <ele>1776.0</ele>
        <time>2021-08-19T10:43:32Z</time>
      </trkpt>
      <trkpt lat="45.4251630" lon="6.3687990">
        <ele>1776.0</ele>
        <time>2021-08-19T10:43:33Z</time>
      </trkpt>
      <trkpt lat="45.4251210" lon="6.3687160">
        <ele>1775.2</ele>
        <time>2021-08-19T10:43:34Z</time>
      </trkpt>
      <trkpt lat="45.4249910" lon="6.3684700">
        <ele>1774.2</ele>
        <time>2021-08-19T10:43:37Z</time>
      </trkpt>
      <trkpt lat="45.4249350" lon="6.3683520">
        <ele>1773.2</ele>
        <time>2021-08-19T10:43:38Z</time>
      </trkpt>
      <trkpt lat="45.4248910" lon="6.3682450">
        <ele>1772.8</ele>
        <time>2021-08-19T10:43:39Z</time>
      </trkpt>
      <trkpt lat="45.4247690" lon="6.3679170">
        <ele>1771.4</ele>
        <time>2021-08-19T10:43:42Z</time>
      </trkpt>
      <trkpt lat="45.4247130" lon="6.3677760">
        <ele>1770.6</ele>
        <time>2021-08-19T10:43:43Z</time>
      </trkpt>
      <trkpt lat="45.4246590" lon="6.3676610">
        <ele>1769.8</ele>
        <time>2021-08-19T10:43:44Z</time>
      </trkpt>
      <trkpt lat="45.4245980" lon="6.3675530">
        <ele>1768.0</ele>
        <time>2021-08-19T10:43:45Z</time>
      </trkpt>
      <trkpt lat="45.4245470" lon="6.3674740">
        <ele>1767.0</ele>
        <time>2021-08-19T10:43:46Z</time>
      </trkpt>
      <trkpt lat="45.4244830" lon="6.3673810">
        <ele>1765.8</ele>
        <time>2021-08-19T10:43:47Z</time>
      </trkpt>
      <trkpt lat="45.4243540" lon="6.3671740">
        <ele>1764.4</ele>
        <time>2021-08-19T10:43:49Z</time>
      </trkpt>
      <trkpt lat="45.4243050" lon="6.3670620">
        <ele>1763.4</ele>
        <time>2021-08-19T10:43:50Z</time>
      </trkpt>
      <trkpt lat="45.4242600" lon="6.3669420">
        <ele>1763.0</ele>
        <time>2021-08-19T10:43:51Z</time>
      </trkpt>
      <trkpt lat="45.4241790" lon="6.3667010">
        <ele>1762.2</ele>
        <time>2021-08-19T10:43:53Z</time>
      </trkpt>
      <trkpt lat="45.4241530" lon="6.3665840">
        <ele>1761.4</ele>
        <time>2021-08-19T10:43:54Z</time>
      </trkpt>
      <trkpt lat="45.4241390" lon="6.3664650">
        <ele>1761.2</ele>
        <time>2021-08-19T10:43:55Z</time>
      </trkpt>
      <trkpt lat="45.4241410" lon="6.3663530">
        <ele>1760.8</ele>
        <time>2021-08-19T10:43:56Z</time>
      </trkpt>
      <trkpt lat="45.4241550" lon="6.3662730">
        <ele>1760.0</ele>
        <time>2021-08-19T10:43:57Z</time>
      </trkpt>
      <trkpt lat="45.4241950" lon="6.3661640">
        <ele>1758.6</ele>
        <time>2021-08-19T10:43:58Z</time>
      </trkpt>
      <trkpt lat="45.4242490" lon="6.3660980">
        <ele>1757.8</ele>
        <time>2021-08-19T10:43:59Z</time>
      </trkpt>
      <trkpt lat="45.4243180" lon="6.3660550">
        <ele>1757.4</ele>
        <time>2021-08-19T10:44:00Z</time>
      </trkpt>
      <trkpt lat="45.4243950" lon="6.3660310">
        <ele>1756.8</ele>
        <time>2021-08-19T10:44:01Z</time>
      </trkpt>
      <trkpt lat="45.4245510" lon="6.3660170">
        <ele>1756.0</ele>
        <time>2021-08-19T10:44:03Z</time>
      </trkpt>
      <trkpt lat="45.4246230" lon="6.3660180">
        <ele>1755.8</ele>
        <time>2021-08-19T10:44:04Z</time>
      </trkpt>
      <trkpt lat="45.4247550" lon="6.3660060">
        <ele>1755.0</ele>
        <time>2021-08-19T10:44:06Z</time>
      </trkpt>
      <trkpt lat="45.4248130" lon="6.3659730">
        <ele>1754.2</ele>
        <time>2021-08-19T10:44:07Z</time>
      </trkpt>
      <trkpt lat="45.4248610" lon="6.3659110">
        <ele>1753.4</ele>
        <time>2021-08-19T10:44:08Z</time>
      </trkpt>
      <trkpt lat="45.4248900" lon="6.3658180">
        <ele>1753.0</ele>
        <time>2021-08-19T10:44:09Z</time>
      </trkpt>
      <trkpt lat="45.4248960" lon="6.3657160">
        <ele>1752.4</ele>
        <time>2021-08-19T10:44:10Z</time>
      </trkpt>
      <trkpt lat="45.4248640" lon="6.3655020">
        <ele>1751.6</ele>
        <time>2021-08-19T10:44:12Z</time>
      </trkpt>
      <trkpt lat="45.4248470" lon="6.3653910">
        <ele>1751.2</ele>
        <time>2021-08-19T10:44:13Z</time>
      </trkpt>
      <trkpt lat="45.4248200" lon="6.3651680">
        <ele>1750.6</ele>
        <time>2021-08-19T10:44:15Z</time>
      </trkpt>
      <trkpt lat="45.4248270" lon="6.3650630">
        <ele>1749.2</ele>
        <time>2021-08-19T10:44:16Z</time>
      </trkpt>
      <trkpt lat="45.4248490" lon="6.3649860">
        <ele>1747.6</ele>
        <time>2021-08-19T10:44:17Z</time>
      </trkpt>
      <trkpt lat="45.4249650" lon="6.3648170">
        <ele>1746.4</ele>
        <time>2021-08-19T10:44:19Z</time>
      </trkpt>
      <trkpt lat="45.4250260" lon="6.3647440">
        <ele>1746.0</ele>
        <time>2021-08-19T10:44:20Z</time>
      </trkpt>
      <trkpt lat="45.4250680" lon="6.3646740">
        <ele>1745.6</ele>
        <time>2021-08-19T10:44:21Z</time>
      </trkpt>
      <trkpt lat="45.4251130" lon="6.3645720">
        <ele>1745.2</ele>
        <time>2021-08-19T10:44:22Z</time>
      </trkpt>
      <trkpt lat="45.4251930" lon="6.3643210">
        <ele>1743.8</ele>
        <time>2021-08-19T10:44:24Z</time>
      </trkpt>
      <trkpt lat="45.4252300" lon="6.3642070">
        <ele>1742.8</ele>
        <time>2021-08-19T10:44:25Z</time>
      </trkpt>
      <trkpt lat="45.4252900" lon="6.3640040">
        <ele>1742.0</ele>
        <time>2021-08-19T10:44:27Z</time>
      </trkpt>
      <trkpt lat="45.4253320" lon="6.3638640">
        <ele>1741.2</ele>
        <time>2021-08-19T10:44:28Z</time>
      </trkpt>
      <trkpt lat="45.4253680" lon="6.3637460">
        <ele>1740.6</ele>
        <time>2021-08-19T10:44:29Z</time>
      </trkpt>
      <trkpt lat="45.4253980" lon="6.3636290">
        <ele>1739.6</ele>
        <time>2021-08-19T10:44:30Z</time>
      </trkpt>
      <trkpt lat="45.4254480" lon="6.3634240">
        <ele>1737.6</ele>
        <time>2021-08-19T10:44:32Z</time>
      </trkpt>
      <trkpt lat="45.4254800" lon="6.3632900">
        <ele>1737.2</ele>
        <time>2021-08-19T10:44:33Z</time>
      </trkpt>
      <trkpt lat="45.4255330" lon="6.3630790">
        <ele>1736.2</ele>
        <time>2021-08-19T10:44:35Z</time>
      </trkpt>
      <trkpt lat="45.4255470" lon="6.3629950">
        <ele>1735.6</ele>
        <time>2021-08-19T10:44:36Z</time>
      </trkpt>
      <trkpt lat="45.4255480" lon="6.3628690">
        <ele>1734.6</ele>
        <time>2021-08-19T10:44:37Z</time>
      </trkpt>
      <trkpt lat="45.4255260" lon="6.3627730">
        <ele>1734.2</ele>
        <time>2021-08-19T10:44:38Z</time>
      </trkpt>
      <trkpt lat="45.4254850" lon="6.3626820">
        <ele>1733.4</ele>
        <time>2021-08-19T10:44:39Z</time>
      </trkpt>
      <trkpt lat="45.4254320" lon="6.3625970">
        <ele>1732.8</ele>
        <time>2021-08-19T10:44:40Z</time>
      </trkpt>
      <trkpt lat="45.4253860" lon="6.3625260">
        <ele>1731.8</ele>
        <time>2021-08-19T10:44:41Z</time>
      </trkpt>
      <trkpt lat="45.4252520" lon="6.3623160">
        <ele>1730.6</ele>
        <time>2021-08-19T10:44:43Z</time>
      </trkpt>
      <trkpt lat="45.4251170" lon="6.3621110">
        <ele>1728.8</ele>
        <time>2021-08-19T10:44:45Z</time>
      </trkpt>
      <trkpt lat="45.4250600" lon="6.3620290">
        <ele>1727.6</ele>
        <time>2021-08-19T10:44:46Z</time>
      </trkpt>
      <trkpt lat="45.4249010" lon="6.3617940">
        <ele>1726.0</ele>
        <time>2021-08-19T10:44:48Z</time>
      </trkpt>
      <trkpt lat="45.4248300" lon="6.3616870">
        <ele>1725.6</ele>
        <time>2021-08-19T10:44:49Z</time>
      </trkpt>
      <trkpt lat="45.4247610" lon="6.3615830">
        <ele>1724.6</ele>
        <time>2021-08-19T10:44:50Z</time>
      </trkpt>
      <trkpt lat="45.4247080" lon="6.3615050">
        <ele>1723.8</ele>
        <time>2021-08-19T10:44:51Z</time>
      </trkpt>
      <trkpt lat="45.4246430" lon="6.3614120">
        <ele>1722.6</ele>
        <time>2021-08-19T10:44:52Z</time>
      </trkpt>
      <trkpt lat="45.4244880" lon="6.3612210">
        <ele>1721.2</ele>
        <time>2021-08-19T10:44:54Z</time>
      </trkpt>
      <trkpt lat="45.4243290" lon="6.3610530">
        <ele>1720.0</ele>
        <time>2021-08-19T10:44:56Z</time>
      </trkpt>
      <trkpt lat="45.4242600" lon="6.3609850">
        <ele>1719.2</ele>
        <time>2021-08-19T10:44:57Z</time>
      </trkpt>
      <trkpt lat="45.4241690" lon="6.3609050">
        <ele>1719.0</ele>
        <time>2021-08-19T10:44:58Z</time>
      </trkpt>
      <trkpt lat="45.4239760" lon="6.3607480">
        <ele>1717.2</ele>
        <time>2021-08-19T10:45:00Z</time>
      </trkpt>
      <trkpt lat="45.4239100" lon="6.3606940">
        <ele>1715.4</ele>
        <time>2021-08-19T10:45:01Z</time>
      </trkpt>
      <trkpt lat="45.4238280" lon="6.3606290">
        <ele>1715.0</ele>
        <time>2021-08-19T10:45:02Z</time>
      </trkpt>
      <trkpt lat="45.4237340" lon="6.3605490">
        <ele>1713.8</ele>
        <time>2021-08-19T10:45:03Z</time>
      </trkpt>
      <trkpt lat="45.4235370" lon="6.3603690">
        <ele>1712.2</ele>
        <time>2021-08-19T10:45:06Z</time>
      </trkpt>
      <trkpt lat="45.4234600" lon="6.3602760">
        <ele>1711.0</ele>
        <time>2021-08-19T10:45:07Z</time>
      </trkpt>
      <trkpt lat="45.4234070" lon="6.3601850">
        <ele>1709.2</ele>
        <time>2021-08-19T10:45:08Z</time>
      </trkpt>
      <trkpt lat="45.4233630" lon="6.3600900">
        <ele>1708.6</ele>
        <time>2021-08-19T10:45:09Z</time>
      </trkpt>
      <trkpt lat="45.4233360" lon="6.3599930">
        <ele>1707.8</ele>
        <time>2021-08-19T10:45:10Z</time>
      </trkpt>
      <trkpt lat="45.4233280" lon="6.3599160">
        <ele>1707.6</ele>
        <time>2021-08-19T10:45:11Z</time>
      </trkpt>
      <trkpt lat="45.4233240" lon="6.3598020">
        <ele>1706.8</ele>
        <time>2021-08-19T10:45:12Z</time>
      </trkpt>
      <trkpt lat="45.4233150" lon="6.3597110">
        <ele>1705.8</ele>
        <time>2021-08-19T10:45:13Z</time>
      </trkpt>
      <trkpt lat="45.4232570" lon="6.3595600">
        <ele>1704.6</ele>
        <time>2021-08-19T10:45:15Z</time>
      </trkpt>
      <trkpt lat="45.4232100" lon="6.3595160">
        <ele>1704.4</ele>
        <time>2021-08-19T10:45:16Z</time>
      </trkpt>
      <trkpt lat="45.4231680" lon="6.3595040">
        <ele>1704.0</ele>
        <time>2021-08-19T10:45:17Z</time>
      </trkpt>
      <trkpt lat="45.4231040" lon="6.3595180">
        <ele>1703.6</ele>
        <time>2021-08-19T10:45:18Z</time>
      </trkpt>
      <trkpt lat="45.4230540" lon="6.3595600">
        <ele>1702.8</ele>
        <time>2021-08-19T10:45:19Z</time>
      </trkpt>
      <trkpt lat="45.4230130" lon="6.3596200">
        <ele>1702.4</ele>
        <time>2021-08-19T10:45:20Z</time>
      </trkpt>
      <trkpt lat="45.4229860" lon="6.3596930">
        <ele>1702.0</ele>
        <time>2021-08-19T10:45:21Z</time>
      </trkpt>
      <trkpt lat="45.4229720" lon="6.3597770">
        <ele>1701.6</ele>
        <time>2021-08-19T10:45:22Z</time>
      </trkpt>
      <trkpt lat="45.4229720" lon="6.3598670">
        <ele>1701.4</ele>
        <time>2021-08-19T10:45:23Z</time>
      </trkpt>
      <trkpt lat="45.4229880" lon="6.3599550">
        <ele>1701.0</ele>
        <time>2021-08-19T10:45:24Z</time>
      </trkpt>
      <trkpt lat="45.4230140" lon="6.3600480">
        <ele>1700.8</ele>
        <time>2021-08-19T10:45:25Z</time>
      </trkpt>
      <trkpt lat="45.4230640" lon="6.3602330">
        <ele>1700.4</ele>
        <time>2021-08-19T10:45:27Z</time>
      </trkpt>
      <trkpt lat="45.4231310" lon="6.3604690">
        <ele>1699.2</ele>
        <time>2021-08-19T10:45:29Z</time>
      </trkpt>
      <trkpt lat="45.4231590" lon="6.3605750">
        <ele>1698.4</ele>
        <time>2021-08-19T10:45:30Z</time>
      </trkpt>
      <trkpt lat="45.4231820" lon="6.3606570">
        <ele>1698.0</ele>
        <time>2021-08-19T10:45:31Z</time>
      </trkpt>
      <trkpt lat="45.4232190" lon="6.3608810">
        <ele>1696.4</ele>
        <time>2021-08-19T10:45:33Z</time>
      </trkpt>
      <trkpt lat="45.4232230" lon="6.3609780">
        <ele>1696.4</ele>
        <time>2021-08-19T10:45:34Z</time>
      </trkpt>
      <trkpt lat="45.4232170" lon="6.3610790">
        <ele>1695.6</ele>
        <time>2021-08-19T10:45:35Z</time>
      </trkpt>
      <trkpt lat="45.4231980" lon="6.3611800">
        <ele>1695.4</ele>
        <time>2021-08-19T10:45:36Z</time>
      </trkpt>
      <trkpt lat="45.4231690" lon="6.3612790">
        <ele>1695.2</ele>
        <time>2021-08-19T10:45:37Z</time>
      </trkpt>
      <trkpt lat="45.4231170" lon="6.3614680">
        <ele>1693.8</ele>
        <time>2021-08-19T10:45:39Z</time>
      </trkpt>
      <trkpt lat="45.4230960" lon="6.3616340">
        <ele>1692.0</ele>
        <time>2021-08-19T10:45:41Z</time>
      </trkpt>
      <trkpt lat="45.4231150" lon="6.3618250">
        <ele>1691.2</ele>
        <time>2021-08-19T10:45:43Z</time>
      </trkpt>
      <trkpt lat="45.4231530" lon="6.3619090">
        <ele>1690.4</ele>
        <time>2021-08-19T10:45:44Z</time>
      </trkpt>
      <trkpt lat="45.4232130" lon="6.3619970">
        <ele>1690.2</ele>
        <time>2021-08-19T10:45:45Z</time>
      </trkpt>
      <trkpt lat="45.4232740" lon="6.3620610">
        <ele>1689.0</ele>
        <time>2021-08-19T10:45:46Z</time>
      </trkpt>
      <trkpt lat="45.4233360" lon="6.3621190">
        <ele>1688.4</ele>
        <time>2021-08-19T10:45:47Z</time>
      </trkpt>
      <trkpt lat="45.4233950" lon="6.3621750">
        <ele>1687.2</ele>
        <time>2021-08-19T10:45:48Z</time>
      </trkpt>
      <trkpt lat="45.4234480" lon="6.3622340">
        <ele>1686.6</ele>
        <time>2021-08-19T10:45:49Z</time>
      </trkpt>
      <trkpt lat="45.4234820" lon="6.3622890">
        <ele>1686.0</ele>
        <time>2021-08-19T10:45:50Z</time>
      </trkpt>
      <trkpt lat="45.4235080" lon="6.3623680">
        <ele>1685.6</ele>
        <time>2021-08-19T10:45:51Z</time>
      </trkpt>
      <trkpt lat="45.4234970" lon="6.3625420">
        <ele>1684.6</ele>
        <time>2021-08-19T10:45:53Z</time>
      </trkpt>
      <trkpt lat="45.4234030" lon="6.3626680">
        <ele>1683.6</ele>
        <time>2021-08-19T10:45:55Z</time>
      </trkpt>
      <trkpt lat="45.4233380" lon="6.3627040">
        <ele>1682.8</ele>
        <time>2021-08-19T10:45:56Z</time>
      </trkpt>
      <trkpt lat="45.4231950" lon="6.3627610">
        <ele>1681.4</ele>
        <time>2021-08-19T10:45:58Z</time>
      </trkpt>
      <trkpt lat="45.4231200" lon="6.3627950">
        <ele>1681.0</ele>
        <time>2021-08-19T10:45:59Z</time>
      </trkpt>
      <trkpt lat="45.4230340" lon="6.3628350">
        <ele>1680.6</ele>
        <time>2021-08-19T10:46:00Z</time>
      </trkpt>
      <trkpt lat="45.4229650" lon="6.3628720">
        <ele>1680.2</ele>
        <time>2021-08-19T10:46:01Z</time>
      </trkpt>
      <trkpt lat="45.4228980" lon="6.3629210">
        <ele>1679.6</ele>
        <time>2021-08-19T10:46:02Z</time>
      </trkpt>
      <trkpt lat="45.4228300" lon="6.3629820">
        <ele>1679.2</ele>
        <time>2021-08-19T10:46:03Z</time>
      </trkpt>
      <trkpt lat="45.4227620" lon="6.3630510">
        <ele>1678.6</ele>
        <time>2021-08-19T10:46:04Z</time>
      </trkpt>
      <trkpt lat="45.4226920" lon="6.3631290">
        <ele>1677.8</ele>
        <time>2021-08-19T10:46:05Z</time>
      </trkpt>
      <trkpt lat="45.4226250" lon="6.3632200">
        <ele>1675.6</ele>
        <time>2021-08-19T10:46:06Z</time>
      </trkpt>
      <trkpt lat="45.4225000" lon="6.3634030">
        <ele>1674.2</ele>
        <time>2021-08-19T10:46:08Z</time>
      </trkpt>
      <trkpt lat="45.4223720" lon="6.3635730">
        <ele>1672.8</ele>
        <time>2021-08-19T10:46:10Z</time>
      </trkpt>
      <trkpt lat="45.4222580" lon="6.3637280">
        <ele>1671.4</ele>
        <time>2021-08-19T10:46:12Z</time>
      </trkpt>
      <trkpt lat="45.4221380" lon="6.3639150">
        <ele>1670.0</ele>
        <time>2021-08-19T10:46:14Z</time>
      </trkpt>
      <trkpt lat="45.4220820" lon="6.3640050">
        <ele>1668.4</ele>
        <time>2021-08-19T10:46:15Z</time>
      </trkpt>
      <trkpt lat="45.4219710" lon="6.3641680">
        <ele>1666.8</ele>
        <time>2021-08-19T10:46:17Z</time>
      </trkpt>
      <trkpt lat="45.4219060" lon="6.3642690">
        <ele>1666.4</ele>
        <time>2021-08-19T10:46:18Z</time>
      </trkpt>
      <trkpt lat="45.4218670" lon="6.3643340">
        <ele>1665.4</ele>
        <time>2021-08-19T10:46:19Z</time>
      </trkpt>
      <trkpt lat="45.4218130" lon="6.3644260">
        <ele>1664.6</ele>
        <time>2021-08-19T10:46:20Z</time>
      </trkpt>
      <trkpt lat="45.4217810" lon="6.3644890">
        <ele>1663.8</ele>
        <time>2021-08-19T10:46:21Z</time>
      </trkpt>
      <trkpt lat="45.4217270" lon="6.3646770">
        <ele>1663.2</ele>
        <time>2021-08-19T10:46:23Z</time>
      </trkpt>
      <trkpt lat="45.4217170" lon="6.3647870">
        <ele>1662.8</ele>
        <time>2021-08-19T10:46:24Z</time>
      </trkpt>
      <trkpt lat="45.4217200" lon="6.3649060">
        <ele>1662.4</ele>
        <time>2021-08-19T10:46:25Z</time>
      </trkpt>
      <trkpt lat="45.4217350" lon="6.3650290">
        <ele>1661.8</ele>
        <time>2021-08-19T10:46:26Z</time>
      </trkpt>
      <trkpt lat="45.4217710" lon="6.3652950">
        <ele>1660.6</ele>
        <time>2021-08-19T10:46:28Z</time>
      </trkpt>
      <trkpt lat="45.4217850" lon="6.3655330">
        <ele>1658.8</ele>
        <time>2021-08-19T10:46:30Z</time>
      </trkpt>
      <trkpt lat="45.4217800" lon="6.3656480">
        <ele>1658.2</ele>
        <time>2021-08-19T10:46:31Z</time>
      </trkpt>
      <trkpt lat="45.4217740" lon="6.3657340">
        <ele>1657.2</ele>
        <time>2021-08-19T10:46:32Z</time>
      </trkpt>
      <trkpt lat="45.4217580" lon="6.3659370">
        <ele>1655.8</ele>
        <time>2021-08-19T10:46:34Z</time>
      </trkpt>
      <trkpt lat="45.4217090" lon="6.3661020">
        <ele>1654.2</ele>
        <time>2021-08-19T10:46:36Z</time>
      </trkpt>
      <trkpt lat="45.4215990" lon="6.3661700">
        <ele>1652.8</ele>
        <time>2021-08-19T10:46:38Z</time>
      </trkpt>
      <trkpt lat="45.4214810" lon="6.3661110">
        <ele>1652.0</ele>
        <time>2021-08-19T10:46:40Z</time>
      </trkpt>
      <trkpt lat="45.4214290" lon="6.3660380">
        <ele>1651.2</ele>
        <time>2021-08-19T10:46:41Z</time>
      </trkpt>
      <trkpt lat="45.4213570" lon="6.3659450">
        <ele>1650.8</ele>
        <time>2021-08-19T10:46:42Z</time>
      </trkpt>
      <trkpt lat="45.4212980" lon="6.3658970">
        <ele>1650.4</ele>
        <time>2021-08-19T10:46:43Z</time>
      </trkpt>
      <trkpt lat="45.4212200" lon="6.3658640">
        <ele>1649.2</ele>
        <time>2021-08-19T10:46:44Z</time>
      </trkpt>
      <trkpt lat="45.4210510" lon="6.3658660">
        <ele>1648.0</ele>
        <time>2021-08-19T10:46:46Z</time>
      </trkpt>
      <trkpt lat="45.4208540" lon="6.3659160">
        <ele>1646.8</ele>
        <time>2021-08-19T10:46:48Z</time>
      </trkpt>
      <trkpt lat="45.4206970" lon="6.3659600">
        <ele>1645.6</ele>
        <time>2021-08-19T10:46:50Z</time>
      </trkpt>
      <trkpt lat="45.4205960" lon="6.3659860">
        <ele>1645.0</ele>
        <time>2021-08-19T10:46:51Z</time>
      </trkpt>
      <trkpt lat="45.4205300" lon="6.3660020">
        <ele>1644.2</ele>
        <time>2021-08-19T10:46:52Z</time>
      </trkpt>
      <trkpt lat="45.4203640" lon="6.3660370">
        <ele>1643.4</ele>
        <time>2021-08-19T10:46:54Z</time>
      </trkpt>
      <trkpt lat="45.4202870" lon="6.3660320">
        <ele>1642.2</ele>
        <time>2021-08-19T10:46:55Z</time>
      </trkpt>
      <trkpt lat="45.4202110" lon="6.3660070">
        <ele>1641.8</ele>
        <time>2021-08-19T10:46:56Z</time>
      </trkpt>
      <trkpt lat="45.4201400" lon="6.3659630">
        <ele>1641.2</ele>
        <time>2021-08-19T10:46:57Z</time>
      </trkpt>
      <trkpt lat="45.4200750" lon="6.3658990">
        <ele>1640.8</ele>
        <time>2021-08-19T10:46:58Z</time>
      </trkpt>
      <trkpt lat="45.4200150" lon="6.3658200">
        <ele>1639.8</ele>
        <time>2021-08-19T10:46:59Z</time>
      </trkpt>
      <trkpt lat="45.4199510" lon="6.3657160">
        <ele>1639.6</ele>
        <time>2021-08-19T10:47:00Z</time>
      </trkpt>
      <trkpt lat="45.4198620" lon="6.3655340">
        <ele>1638.8</ele>
        <time>2021-08-19T10:47:02Z</time>
      </trkpt>
      <trkpt lat="45.4197560" lon="6.3653230">
        <ele>1638.0</ele>
        <time>2021-08-19T10:47:04Z</time>
      </trkpt>
      <trkpt lat="45.4196460" lon="6.3651760">
        <ele>1636.6</ele>
        <time>2021-08-19T10:47:06Z</time>
      </trkpt>
      <trkpt lat="45.4195280" lon="6.3650880">
        <ele>1634.6</ele>
        <time>2021-08-19T10:47:08Z</time>
      </trkpt>
      <trkpt lat="45.4192680" lon="6.3650350">
        <ele>1632.4</ele>
        <time>2021-08-19T10:47:12Z</time>
      </trkpt>
      <trkpt lat="45.4191480" lon="6.3650170">
        <ele>1631.2</ele>
        <time>2021-08-19T10:47:14Z</time>
      </trkpt>
      <trkpt lat="45.4190900" lon="6.3650100">
        <ele>1630.0</ele>
        <time>2021-08-19T10:47:15Z</time>
      </trkpt>
      <trkpt lat="45.4189730" lon="6.3649930">
        <ele>1628.2</ele>
        <time>2021-08-19T10:47:17Z</time>
      </trkpt>
      <trkpt lat="45.4189240" lon="6.3649960">
        <ele>1627.8</ele>
        <time>2021-08-19T10:47:18Z</time>
      </trkpt>
      <trkpt lat="45.4188350" lon="6.3650010">
        <ele>1626.8</ele>
        <time>2021-08-19T10:47:20Z</time>
      </trkpt>
      <trkpt lat="45.4187460" lon="6.3649950">
        <ele>1625.8</ele>
        <time>2021-08-19T10:47:22Z</time>
      </trkpt>
      <trkpt lat="45.4186710" lon="6.3649850">
        <ele>1624.8</ele>
        <time>2021-08-19T10:47:24Z</time>
      </trkpt>
      <trkpt lat="45.4186390" lon="6.3649750">
        <ele>1624.6</ele>
        <time>2021-08-19T10:47:25Z</time>
      </trkpt>
      <trkpt lat="45.4185790" lon="6.3649580">
        <ele>1623.6</ele>
        <time>2021-08-19T10:47:27Z</time>
      </trkpt>
      <trkpt lat="45.4185050" lon="6.3649470">
        <ele>1622.8</ele>
        <time>2021-08-19T10:47:29Z</time>
      </trkpt>
      <trkpt lat="45.4184610" lon="6.3649240">
        <ele>1622.2</ele>
        <time>2021-08-19T10:47:30Z</time>
      </trkpt>
      <trkpt lat="45.4184180" lon="6.3648860">
        <ele>1622.0</ele>
        <time>2021-08-19T10:47:31Z</time>
      </trkpt>
      <trkpt lat="45.4183770" lon="6.3648450">
        <ele>1621.6</ele>
        <time>2021-08-19T10:47:32Z</time>
      </trkpt>
      <trkpt lat="45.4183360" lon="6.3648030">
        <ele>1621.2</ele>
        <time>2021-08-19T10:47:33Z</time>
      </trkpt>
      <trkpt lat="45.4182940" lon="6.3647660">
        <ele>1620.8</ele>
        <time>2021-08-19T10:47:34Z</time>
      </trkpt>
      <trkpt lat="45.4181870" lon="6.3646810">
        <ele>1620.2</ele>
        <time>2021-08-19T10:47:36Z</time>
      </trkpt>
      <trkpt lat="45.4180760" lon="6.3645850">
        <ele>1619.8</ele>
        <time>2021-08-19T10:47:38Z</time>
      </trkpt>
      <trkpt lat="45.4178850" lon="6.3644130">
        <ele>1618.2</ele>
        <time>2021-08-19T10:47:41Z</time>
      </trkpt>
      <trkpt lat="45.4177660" lon="6.3643070">
        <ele>1616.6</ele>
        <time>2021-08-19T10:47:43Z</time>
      </trkpt>
      <trkpt lat="45.4176480" lon="6.3641870">
        <ele>1614.8</ele>
        <time>2021-08-19T10:47:45Z</time>
      </trkpt>
      <trkpt lat="45.4175710" lon="6.3640470">
        <ele>1614.0</ele>
        <time>2021-08-19T10:47:47Z</time>
      </trkpt>
      <trkpt lat="45.4175370" lon="6.3639830">
        <ele>1613.6</ele>
        <time>2021-08-19T10:47:48Z</time>
      </trkpt>
      <trkpt lat="45.4174730" lon="6.3638990">
        <ele>1613.2</ele>
        <time>2021-08-19T10:47:49Z</time>
      </trkpt>
      <trkpt lat="45.4174070" lon="6.3638440">
        <ele>1612.8</ele>
        <time>2021-08-19T10:47:50Z</time>
      </trkpt>
      <trkpt lat="45.4172690" lon="6.3637300">
        <ele>1611.2</ele>
        <time>2021-08-19T10:47:52Z</time>
      </trkpt>
      <trkpt lat="45.4171510" lon="6.3635930">
        <ele>1609.8</ele>
        <time>2021-08-19T10:47:54Z</time>
      </trkpt>
      <trkpt lat="45.4170460" lon="6.3634720">
        <ele>1608.6</ele>
        <time>2021-08-19T10:47:56Z</time>
      </trkpt>
      <trkpt lat="45.4169830" lon="6.3634430">
        <ele>1607.8</ele>
        <time>2021-08-19T10:47:57Z</time>
      </trkpt>
      <trkpt lat="45.4168600" lon="6.3634120">
        <ele>1607.2</ele>
        <time>2021-08-19T10:47:59Z</time>
      </trkpt>
      <trkpt lat="45.4167260" lon="6.3633170">
        <ele>1606.2</ele>
        <time>2021-08-19T10:48:01Z</time>
      </trkpt>
      <trkpt lat="45.4166640" lon="6.3632600">
        <ele>1605.8</ele>
        <time>2021-08-19T10:48:02Z</time>
      </trkpt>
      <trkpt lat="45.4165370" lon="6.3631390">
        <ele>1604.6</ele>
        <time>2021-08-19T10:48:04Z</time>
      </trkpt>
      <trkpt lat="45.4164770" lon="6.3630790">
        <ele>1603.4</ele>
        <time>2021-08-19T10:48:05Z</time>
      </trkpt>
      <trkpt lat="45.4164200" lon="6.3630190">
        <ele>1602.4</ele>
        <time>2021-08-19T10:48:06Z</time>
      </trkpt>
      <trkpt lat="45.4163620" lon="6.3629670">
        <ele>1602.0</ele>
        <time>2021-08-19T10:48:07Z</time>
      </trkpt>
      <trkpt lat="45.4163040" lon="6.3629200">
        <ele>1601.4</ele>
        <time>2021-08-19T10:48:08Z</time>
      </trkpt>
      <trkpt lat="45.4162480" lon="6.3628750">
        <ele>1601.0</ele>
        <time>2021-08-19T10:48:09Z</time>
      </trkpt>
      <trkpt lat="45.4161930" lon="6.3628360">
        <ele>1600.2</ele>
        <time>2021-08-19T10:48:10Z</time>
      </trkpt>
      <trkpt lat="45.4161390" lon="6.3628040">
        <ele>1599.8</ele>
        <time>2021-08-19T10:48:11Z</time>
      </trkpt>
      <trkpt lat="45.4160920" lon="6.3627740">
        <ele>1599.2</ele>
        <time>2021-08-19T10:48:12Z</time>
      </trkpt>
      <trkpt lat="45.4160580" lon="6.3627310">
        <ele>1598.8</ele>
        <time>2021-08-19T10:48:13Z</time>
      </trkpt>
      <trkpt lat="45.4160400" lon="6.3626800">
        <ele>1598.2</ele>
        <time>2021-08-19T10:48:14Z</time>
      </trkpt>
      <trkpt lat="45.4160410" lon="6.3626250">
        <ele>1598.0</ele>
        <time>2021-08-19T10:48:15Z</time>
      </trkpt>
      <trkpt lat="45.4160600" lon="6.3625680">
        <ele>1597.8</ele>
        <time>2021-08-19T10:48:16Z</time>
      </trkpt>
      <trkpt lat="45.4160860" lon="6.3625230">
        <ele>1597.4</ele>
        <time>2021-08-19T10:48:17Z</time>
      </trkpt>
      <trkpt lat="45.4161230" lon="6.3624710">
        <ele>1597.0</ele>
        <time>2021-08-19T10:48:18Z</time>
      </trkpt>
      <trkpt lat="45.4161730" lon="6.3624110">
        <ele>1596.6</ele>
        <time>2021-08-19T10:48:19Z</time>
      </trkpt>
      <trkpt lat="45.4162190" lon="6.3623720">
        <ele>1596.6</ele>
        <time>2021-08-19T10:48:20Z</time>
      </trkpt>
      <trkpt lat="45.4162670" lon="6.3623510">
        <ele>1596.0</ele>
        <time>2021-08-19T10:48:21Z</time>
      </trkpt>
      <trkpt lat="45.4163190" lon="6.3623450">
        <ele>1595.8</ele>
        <time>2021-08-19T10:48:22Z</time>
      </trkpt>
      <trkpt lat="45.4163630" lon="6.3623540">
        <ele>1595.4</ele>
        <time>2021-08-19T10:48:23Z</time>
      </trkpt>
      <trkpt lat="45.4164290" lon="6.3623790">
        <ele>1595.4</ele>
        <time>2021-08-19T10:48:24Z</time>
      </trkpt>
      <trkpt lat="45.4165420" lon="6.3624190">
        <ele>1594.6</ele>
        <time>2021-08-19T10:48:26Z</time>
      </trkpt>
      <trkpt lat="45.4166040" lon="6.3624110">
        <ele>1594.0</ele>
        <time>2021-08-19T10:48:27Z</time>
      </trkpt>
      <trkpt lat="45.4166650" lon="6.3623840">
        <ele>1593.6</ele>
        <time>2021-08-19T10:48:28Z</time>
      </trkpt>
      <trkpt lat="45.4167090" lon="6.3623510">
        <ele>1593.4</ele>
        <time>2021-08-19T10:48:29Z</time>
      </trkpt>
      <trkpt lat="45.4167620" lon="6.3622780">
        <ele>1592.2</ele>
        <time>2021-08-19T10:48:30Z</time>
      </trkpt>
      <trkpt lat="45.4167860" lon="6.3622070">
        <ele>1591.8</ele>
        <time>2021-08-19T10:48:31Z</time>
      </trkpt>
      <trkpt lat="45.4168030" lon="6.3621060">
        <ele>1591.4</ele>
        <time>2021-08-19T10:48:32Z</time>
      </trkpt>
      <trkpt lat="45.4168090" lon="6.3620000">
        <ele>1591.0</ele>
        <time>2021-08-19T10:48:33Z</time>
      </trkpt>
      <trkpt lat="45.4168070" lon="6.3618990">
        <ele>1590.0</ele>
        <time>2021-08-19T10:48:34Z</time>
      </trkpt>
      <trkpt lat="45.4168060" lon="6.3618050">
        <ele>1589.2</ele>
        <time>2021-08-19T10:48:35Z</time>
      </trkpt>
      <trkpt lat="45.4168060" lon="6.3617180">
        <ele>1588.0</ele>
        <time>2021-08-19T10:48:36Z</time>
      </trkpt>
      <trkpt lat="45.4168090" lon="6.3616390">
        <ele>1587.8</ele>
        <time>2021-08-19T10:48:37Z</time>
      </trkpt>
      <trkpt lat="45.4168150" lon="6.3615600">
        <ele>1587.0</ele>
        <time>2021-08-19T10:48:38Z</time>
      </trkpt>
      <trkpt lat="45.4168290" lon="6.3614770">
        <ele>1586.4</ele>
        <time>2021-08-19T10:48:39Z</time>
      </trkpt>
      <trkpt lat="45.4168850" lon="6.3613070">
        <ele>1585.0</ele>
        <time>2021-08-19T10:48:41Z</time>
      </trkpt>
      <trkpt lat="45.4169430" lon="6.3611310">
        <ele>1584.0</ele>
        <time>2021-08-19T10:48:43Z</time>
      </trkpt>
      <trkpt lat="45.4169710" lon="6.3610460">
        <ele>1583.6</ele>
        <time>2021-08-19T10:48:44Z</time>
      </trkpt>
      <trkpt lat="45.4170020" lon="6.3609640">
        <ele>1582.8</ele>
        <time>2021-08-19T10:48:45Z</time>
      </trkpt>
      <trkpt lat="45.4170400" lon="6.3608870">
        <ele>1582.4</ele>
        <time>2021-08-19T10:48:46Z</time>
      </trkpt>
      <trkpt lat="45.4171390" lon="6.3607500">
        <ele>1581.4</ele>
        <time>2021-08-19T10:48:48Z</time>
      </trkpt>
      <trkpt lat="45.4171970" lon="6.3607050">
        <ele>1580.2</ele>
        <time>2021-08-19T10:48:49Z</time>
      </trkpt>
      <trkpt lat="45.4173160" lon="6.3606190">
        <ele>1578.6</ele>
        <time>2021-08-19T10:48:51Z</time>
      </trkpt>
      <trkpt lat="45.4173710" lon="6.3605550">
        <ele>1577.4</ele>
        <time>2021-08-19T10:48:52Z</time>
      </trkpt>
      <trkpt lat="45.4174140" lon="6.3604770">
        <ele>1577.2</ele>
        <time>2021-08-19T10:48:53Z</time>
      </trkpt>
      <trkpt lat="45.4174570" lon="6.3602850">
        <ele>1576.6</ele>
        <time>2021-08-19T10:48:55Z</time>
      </trkpt>
      <trkpt lat="45.4174570" lon="6.3601780">
        <ele>1575.8</ele>
        <time>2021-08-19T10:48:56Z</time>
      </trkpt>
      <trkpt lat="45.4174430" lon="6.3600780">
        <ele>1575.6</ele>
        <time>2021-08-19T10:48:57Z</time>
      </trkpt>
      <trkpt lat="45.4174150" lon="6.3599900">
        <ele>1575.2</ele>
        <time>2021-08-19T10:48:58Z</time>
      </trkpt>
      <trkpt lat="45.4173720" lon="6.3599190">
        <ele>1575.0</ele>
        <time>2021-08-19T10:48:59Z</time>
      </trkpt>
      <trkpt lat="45.4173220" lon="6.3598660">
        <ele>1573.4</ele>
        <time>2021-08-19T10:49:00Z</time>
      </trkpt>
      <trkpt lat="45.4172540" lon="6.3598280">
        <ele>1572.4</ele>
        <time>2021-08-19T10:49:01Z</time>
      </trkpt>
      <trkpt lat="45.4171280" lon="6.3598490">
        <ele>1570.6</ele>
        <time>2021-08-19T10:49:03Z</time>
      </trkpt>
      <trkpt lat="45.4170570" lon="6.3598950">
        <ele>1570.2</ele>
        <time>2021-08-19T10:49:04Z</time>
      </trkpt>
      <trkpt lat="45.4169910" lon="6.3599640">
        <ele>1569.4</ele>
        <time>2021-08-19T10:49:05Z</time>
      </trkpt>
      <trkpt lat="45.4168550" lon="6.3601380">
        <ele>1568.4</ele>
        <time>2021-08-19T10:49:07Z</time>
      </trkpt>
      <trkpt lat="45.4168050" lon="6.3601900">
        <ele>1567.6</ele>
        <time>2021-08-19T10:49:08Z</time>
      </trkpt>
      <trkpt lat="45.4167380" lon="6.3602430">
        <ele>1566.4</ele>
        <time>2021-08-19T10:49:09Z</time>
      </trkpt>
      <trkpt lat="45.4165910" lon="6.3603490">
        <ele>1565.4</ele>
        <time>2021-08-19T10:49:11Z</time>
      </trkpt>
      <trkpt lat="45.4164760" lon="6.3604530">
        <ele>1563.8</ele>
        <time>2021-08-19T10:49:13Z</time>
      </trkpt>
      <trkpt lat="45.4163600" lon="6.3606010">
        <ele>1562.4</ele>
        <time>2021-08-19T10:49:15Z</time>
      </trkpt>
      <trkpt lat="45.4163120" lon="6.3606790">
        <ele>1561.6</ele>
        <time>2021-08-19T10:49:16Z</time>
      </trkpt>
      <trkpt lat="45.4162740" lon="6.3607630">
        <ele>1561.0</ele>
        <time>2021-08-19T10:49:17Z</time>
      </trkpt>
      <trkpt lat="45.4162420" lon="6.3608490">
        <ele>1560.0</ele>
        <time>2021-08-19T10:49:18Z</time>
      </trkpt>
      <trkpt lat="45.4162060" lon="6.3609290">
        <ele>1559.6</ele>
        <time>2021-08-19T10:49:19Z</time>
      </trkpt>
      <trkpt lat="45.4161590" lon="6.3609890">
        <ele>1558.6</ele>
        <time>2021-08-19T10:49:20Z</time>
      </trkpt>
      <trkpt lat="45.4161010" lon="6.3610180">
        <ele>1558.4</ele>
        <time>2021-08-19T10:49:21Z</time>
      </trkpt>
      <trkpt lat="45.4159930" lon="6.3609640">
        <ele>1556.6</ele>
        <time>2021-08-19T10:49:23Z</time>
      </trkpt>
      <trkpt lat="45.4159460" lon="6.3607900">
        <ele>1555.6</ele>
        <time>2021-08-19T10:49:25Z</time>
      </trkpt>
      <trkpt lat="45.4159510" lon="6.3604600">
        <ele>1554.4</ele>
        <time>2021-08-19T10:49:28Z</time>
      </trkpt>
      <trkpt lat="45.4159660" lon="6.3603120">
        <ele>1553.2</ele>
        <time>2021-08-19T10:49:29Z</time>
      </trkpt>
      <trkpt lat="45.4160130" lon="6.3600720">
        <ele>1551.8</ele>
        <time>2021-08-19T10:49:31Z</time>
      </trkpt>
      <trkpt lat="45.4160760" lon="6.3598450">
        <ele>1550.4</ele>
        <time>2021-08-19T10:49:33Z</time>
      </trkpt>
      <trkpt lat="45.4161100" lon="6.3596420">
        <ele>1549.0</ele>
        <time>2021-08-19T10:49:35Z</time>
      </trkpt>
      <trkpt lat="45.4161160" lon="6.3595030">
        <ele>1547.8</ele>
        <time>2021-08-19T10:49:36Z</time>
      </trkpt>
      <trkpt lat="45.4161090" lon="6.3593810">
        <ele>1547.4</ele>
        <time>2021-08-19T10:49:37Z</time>
      </trkpt>
      <trkpt lat="45.4160900" lon="6.3591490">
        <ele>1546.6</ele>
        <time>2021-08-19T10:49:39Z</time>
      </trkpt>
      <trkpt lat="45.4160780" lon="6.3590220">
        <ele>1545.2</ele>
        <time>2021-08-19T10:49:40Z</time>
      </trkpt>
      <trkpt lat="45.4160580" lon="6.3589010">
        <ele>1545.0</ele>
        <time>2021-08-19T10:49:41Z</time>
      </trkpt>
      <trkpt lat="45.4160270" lon="6.3587620">
        <ele>1543.8</ele>
        <time>2021-08-19T10:49:42Z</time>
      </trkpt>
      <trkpt lat="45.4159930" lon="6.3586490">
        <ele>1542.6</ele>
        <time>2021-08-19T10:49:43Z</time>
      </trkpt>
      <trkpt lat="45.4159210" lon="6.3584330">
        <ele>1541.2</ele>
        <time>2021-08-19T10:49:45Z</time>
      </trkpt>
      <trkpt lat="45.4158310" lon="6.3581890">
        <ele>1539.8</ele>
        <time>2021-08-19T10:49:47Z</time>
      </trkpt>
      <trkpt lat="45.4157520" lon="6.3579470">
        <ele>1537.8</ele>
        <time>2021-08-19T10:49:49Z</time>
      </trkpt>
      <trkpt lat="45.4156870" lon="6.3576910">
        <ele>1536.4</ele>
        <time>2021-08-19T10:49:51Z</time>
      </trkpt>
      <trkpt lat="45.4156150" lon="6.3574450">
        <ele>1535.2</ele>
        <time>2021-08-19T10:49:53Z</time>
      </trkpt>
      <trkpt lat="45.4155480" lon="6.3572120">
        <ele>1534.2</ele>
        <time>2021-08-19T10:49:55Z</time>
      </trkpt>
      <trkpt lat="45.4155120" lon="6.3570950">
        <ele>1532.6</ele>
        <time>2021-08-19T10:49:56Z</time>
      </trkpt>
      <trkpt lat="45.4154240" lon="6.3568600">
        <ele>1530.8</ele>
        <time>2021-08-19T10:49:58Z</time>
      </trkpt>
      <trkpt lat="45.4153710" lon="6.3567690">
        <ele>1530.4</ele>
        <time>2021-08-19T10:49:59Z</time>
      </trkpt>
      <trkpt lat="45.4153050" lon="6.3566940">
        <ele>1529.0</ele>
        <time>2021-08-19T10:50:00Z</time>
      </trkpt>
      <trkpt lat="45.4152290" lon="6.3566370">
        <ele>1528.4</ele>
        <time>2021-08-19T10:50:01Z</time>
      </trkpt>
      <trkpt lat="45.4151440" lon="6.3565960">
        <ele>1527.6</ele>
        <time>2021-08-19T10:50:02Z</time>
      </trkpt>
      <trkpt lat="45.4149810" lon="6.3565470">
        <ele>1525.4</ele>
        <time>2021-08-19T10:50:04Z</time>
      </trkpt>
      <trkpt lat="45.4148920" lon="6.3565170">
        <ele>1524.4</ele>
        <time>2021-08-19T10:50:05Z</time>
      </trkpt>
      <trkpt lat="45.4147260" lon="6.3564040">
        <ele>1523.2</ele>
        <time>2021-08-19T10:50:07Z</time>
      </trkpt>
      <trkpt lat="45.4146380" lon="6.3562980">
        <ele>1522.8</ele>
        <time>2021-08-19T10:50:08Z</time>
      </trkpt>
      <trkpt lat="45.4145880" lon="6.3562060">
        <ele>1522.4</ele>
        <time>2021-08-19T10:50:09Z</time>
      </trkpt>
      <trkpt lat="45.4145320" lon="6.3560780">
        <ele>1521.8</ele>
        <time>2021-08-19T10:50:10Z</time>
      </trkpt>
      <trkpt lat="45.4144730" lon="6.3559200">
        <ele>1520.8</ele>
        <time>2021-08-19T10:50:11Z</time>
      </trkpt>
      <trkpt lat="45.4144060" lon="6.3556890">
        <ele>1519.0</ele>
        <time>2021-08-19T10:50:13Z</time>
      </trkpt>
      <trkpt lat="45.4143200" lon="6.3554460">
        <ele>1517.2</ele>
        <time>2021-08-19T10:50:15Z</time>
      </trkpt>
      <trkpt lat="45.4142540" lon="6.3553040">
        <ele>1516.2</ele>
        <time>2021-08-19T10:50:16Z</time>
      </trkpt>
      <trkpt lat="45.4140980" lon="6.3549650">
        <ele>1514.4</ele>
        <time>2021-08-19T10:50:19Z</time>
      </trkpt>
      <trkpt lat="45.4140520" lon="6.3548410">
        <ele>1513.0</ele>
        <time>2021-08-19T10:50:20Z</time>
      </trkpt>
      <trkpt lat="45.4139590" lon="6.3545970">
        <ele>1511.4</ele>
        <time>2021-08-19T10:50:22Z</time>
      </trkpt>
      <trkpt lat="45.4139100" lon="6.3544540">
        <ele>1510.6</ele>
        <time>2021-08-19T10:50:23Z</time>
      </trkpt>
      <trkpt lat="45.4138840" lon="6.3543570">
        <ele>1509.2</ele>
        <time>2021-08-19T10:50:24Z</time>
      </trkpt>
      <trkpt lat="45.4138520" lon="6.3542360">
        <ele>1508.6</ele>
        <time>2021-08-19T10:50:25Z</time>
      </trkpt>
      <trkpt lat="45.4138050" lon="6.3540930">
        <ele>1508.0</ele>
        <time>2021-08-19T10:50:26Z</time>
      </trkpt>
      <trkpt lat="45.4137550" lon="6.3539790">
        <ele>1506.6</ele>
        <time>2021-08-19T10:50:27Z</time>
      </trkpt>
      <trkpt lat="45.4136570" lon="6.3537810">
        <ele>1504.6</ele>
        <time>2021-08-19T10:50:29Z</time>
      </trkpt>
      <trkpt lat="45.4135480" lon="6.3535750">
        <ele>1503.0</ele>
        <time>2021-08-19T10:50:31Z</time>
      </trkpt>
      <trkpt lat="45.4134450" lon="6.3533300">
        <ele>1501.2</ele>
        <time>2021-08-19T10:50:33Z</time>
      </trkpt>
      <trkpt lat="45.4134090" lon="6.3531990">
        <ele>1500.6</ele>
        <time>2021-08-19T10:50:34Z</time>
      </trkpt>
      <trkpt lat="45.4133740" lon="6.3530640">
        <ele>1499.8</ele>
        <time>2021-08-19T10:50:35Z</time>
      </trkpt>
      <trkpt lat="45.4133020" lon="6.3528070">
        <ele>1498.4</ele>
        <time>2021-08-19T10:50:37Z</time>
      </trkpt>
      <trkpt lat="45.4132630" lon="6.3526750">
        <ele>1497.2</ele>
        <time>2021-08-19T10:50:38Z</time>
      </trkpt>
      <trkpt lat="45.4131960" lon="6.3524370">
        <ele>1496.2</ele>
        <time>2021-08-19T10:50:40Z</time>
      </trkpt>
      <trkpt lat="45.4131250" lon="6.3521750">
        <ele>1494.4</ele>
        <time>2021-08-19T10:50:42Z</time>
      </trkpt>
      <trkpt lat="45.4130670" lon="6.3519790">
        <ele>1492.0</ele>
        <time>2021-08-19T10:50:44Z</time>
      </trkpt>
      <trkpt lat="45.4130310" lon="6.3518510">
        <ele>1491.6</ele>
        <time>2021-08-19T10:50:45Z</time>
      </trkpt>
      <trkpt lat="45.4129990" lon="6.3517470">
        <ele>1490.8</ele>
        <time>2021-08-19T10:50:46Z</time>
      </trkpt>
      <trkpt lat="45.4129660" lon="6.3516510">
        <ele>1490.2</ele>
        <time>2021-08-19T10:50:47Z</time>
      </trkpt>
      <trkpt lat="45.4129280" lon="6.3515660">
        <ele>1489.4</ele>
        <time>2021-08-19T10:50:48Z</time>
      </trkpt>
      <trkpt lat="45.4128860" lon="6.3514900">
        <ele>1488.6</ele>
        <time>2021-08-19T10:50:49Z</time>
      </trkpt>
      <trkpt lat="45.4128470" lon="6.3514340">
        <ele>1488.2</ele>
        <time>2021-08-19T10:50:50Z</time>
      </trkpt>
      <trkpt lat="45.4127500" lon="6.3512920">
        <ele>1487.0</ele>
        <time>2021-08-19T10:50:52Z</time>
      </trkpt>
      <trkpt lat="45.4127280" lon="6.3512210">
        <ele>1486.4</ele>
        <time>2021-08-19T10:50:53Z</time>
      </trkpt>
      <trkpt lat="45.4127230" lon="6.3511480">
        <ele>1486.0</ele>
        <time>2021-08-19T10:50:54Z</time>
      </trkpt>
      <trkpt lat="45.4127720" lon="6.3510500">
        <ele>1484.8</ele>
        <time>2021-08-19T10:50:56Z</time>
      </trkpt>
      <trkpt lat="45.4128790" lon="6.3510660">
        <ele>1483.6</ele>
        <time>2021-08-19T10:50:58Z</time>
      </trkpt>
      <trkpt lat="45.4129750" lon="6.3511960">
        <ele>1482.0</ele>
        <time>2021-08-19T10:51:00Z</time>
      </trkpt>
      <trkpt lat="45.4130170" lon="6.3512790">
        <ele>1481.8</ele>
        <time>2021-08-19T10:51:01Z</time>
      </trkpt>
      <trkpt lat="45.4131420" lon="6.3515530">
        <ele>1480.4</ele>
        <time>2021-08-19T10:51:04Z</time>
      </trkpt>
      <trkpt lat="45.4132300" lon="6.3517480">
        <ele>1479.2</ele>
        <time>2021-08-19T10:51:06Z</time>
      </trkpt>
      <trkpt lat="45.4132790" lon="6.3518490">
        <ele>1478.8</ele>
        <time>2021-08-19T10:51:07Z</time>
      </trkpt>
      <trkpt lat="45.4133320" lon="6.3519510">
        <ele>1477.8</ele>
        <time>2021-08-19T10:51:08Z</time>
      </trkpt>
      <trkpt lat="45.4135050" lon="6.3522280">
        <ele>1476.8</ele>
        <time>2021-08-19T10:51:11Z</time>
      </trkpt>
      <trkpt lat="45.4135860" lon="6.3523280">
        <ele>1476.4</ele>
        <time>2021-08-19T10:51:12Z</time>
      </trkpt>
      <trkpt lat="45.4137170" lon="6.3524670">
        <ele>1475.4</ele>
        <time>2021-08-19T10:51:14Z</time>
      </trkpt>
      <trkpt lat="45.4137770" lon="6.3525180">
        <ele>1474.6</ele>
        <time>2021-08-19T10:51:15Z</time>
      </trkpt>
      <trkpt lat="45.4138240" lon="6.3525480">
        <ele>1474.2</ele>
        <time>2021-08-19T10:51:16Z</time>
      </trkpt>
      <trkpt lat="45.4138980" lon="6.3525710">
        <ele>1473.4</ele>
        <time>2021-08-19T10:51:17Z</time>
      </trkpt>
      <trkpt lat="45.4139620" lon="6.3525650">
        <ele>1472.8</ele>
        <time>2021-08-19T10:51:18Z</time>
      </trkpt>
      <trkpt lat="45.4140190" lon="6.3525440">
        <ele>1472.2</ele>
        <time>2021-08-19T10:51:19Z</time>
      </trkpt>
      <trkpt lat="45.4140870" lon="6.3524520">
        <ele>1471.6</ele>
        <time>2021-08-19T10:51:21Z</time>
      </trkpt>
      <trkpt lat="45.4140790" lon="6.3523070">
        <ele>1471.4</ele>
        <time>2021-08-19T10:51:23Z</time>
      </trkpt>
      <trkpt lat="45.4139810" lon="6.3522120">
        <ele>1471.0</ele>
        <time>2021-08-19T10:51:25Z</time>
      </trkpt>
      <trkpt lat="45.4139120" lon="6.3521850">
        <ele>1470.8</ele>
        <time>2021-08-19T10:51:26Z</time>
      </trkpt>
      <trkpt lat="45.4138430" lon="6.3521470">
        <ele>1470.8</ele>
        <time>2021-08-19T10:51:27Z</time>
      </trkpt>
      <trkpt lat="45.4137820" lon="6.3520830">
        <ele>1470.2</ele>
        <time>2021-08-19T10:51:28Z</time>
      </trkpt>
      <trkpt lat="45.4137190" lon="6.3519850">
        <ele>1470.0</ele>
        <time>2021-08-19T10:51:29Z</time>
      </trkpt>
      <trkpt lat="45.4136800" lon="6.3518880">
        <ele>1468.8</ele>
        <time>2021-08-19T10:51:30Z</time>
      </trkpt>
      <trkpt lat="45.4136560" lon="6.3517950">
        <ele>1468.2</ele>
        <time>2021-08-19T10:51:31Z</time>
      </trkpt>
      <trkpt lat="45.4136230" lon="6.3516460">
        <ele>1466.8</ele>
        <time>2021-08-19T10:51:32Z</time>
      </trkpt>
      <trkpt lat="45.4135670" lon="6.3513810">
        <ele>1465.6</ele>
        <time>2021-08-19T10:51:34Z</time>
      </trkpt>
      <trkpt lat="45.4135060" lon="6.3509700">
        <ele>1463.6</ele>
        <time>2021-08-19T10:51:37Z</time>
      </trkpt>
      <trkpt lat="45.4134620" lon="6.3506930">
        <ele>1462.2</ele>
        <time>2021-08-19T10:51:39Z</time>
      </trkpt>
      <trkpt lat="45.4134110" lon="6.3504410">
        <ele>1459.8</ele>
        <time>2021-08-19T10:51:41Z</time>
      </trkpt>
      <trkpt lat="45.4133770" lon="6.3503250">
        <ele>1459.0</ele>
        <time>2021-08-19T10:51:42Z</time>
      </trkpt>
      <trkpt lat="45.4133340" lon="6.3502200">
        <ele>1457.6</ele>
        <time>2021-08-19T10:51:43Z</time>
      </trkpt>
      <trkpt lat="45.4132810" lon="6.3501220">
        <ele>1456.4</ele>
        <time>2021-08-19T10:51:44Z</time>
      </trkpt>
      <trkpt lat="45.4132150" lon="6.3500320">
        <ele>1455.8</ele>
        <time>2021-08-19T10:51:45Z</time>
      </trkpt>
      <trkpt lat="45.4131390" lon="6.3499510">
        <ele>1454.6</ele>
        <time>2021-08-19T10:51:46Z</time>
      </trkpt>
      <trkpt lat="45.4129740" lon="6.3498100">
        <ele>1453.2</ele>
        <time>2021-08-19T10:51:48Z</time>
      </trkpt>
      <trkpt lat="45.4128910" lon="6.3497500">
        <ele>1452.6</ele>
        <time>2021-08-19T10:51:49Z</time>
      </trkpt>
      <trkpt lat="45.4128090" lon="6.3496990">
        <ele>1451.4</ele>
        <time>2021-08-19T10:51:50Z</time>
      </trkpt>
      <trkpt lat="45.4126620" lon="6.3496050">
        <ele>1449.8</ele>
        <time>2021-08-19T10:51:52Z</time>
      </trkpt>
      <trkpt lat="45.4126080" lon="6.3495470">
        <ele>1449.2</ele>
        <time>2021-08-19T10:51:53Z</time>
      </trkpt>
      <trkpt lat="45.4125670" lon="6.3494650">
        <ele>1448.0</ele>
        <time>2021-08-19T10:51:54Z</time>
      </trkpt>
      <trkpt lat="45.4125400" lon="6.3493680">
        <ele>1446.8</ele>
        <time>2021-08-19T10:51:55Z</time>
      </trkpt>
      <trkpt lat="45.4125180" lon="6.3492670">
        <ele>1446.0</ele>
        <time>2021-08-19T10:51:56Z</time>
      </trkpt>
      <trkpt lat="45.4124830" lon="6.3491710">
        <ele>1445.0</ele>
        <time>2021-08-19T10:51:57Z</time>
      </trkpt>
      <trkpt lat="45.4123650" lon="6.3490310">
        <ele>1443.4</ele>
        <time>2021-08-19T10:51:59Z</time>
      </trkpt>
      <trkpt lat="45.4122160" lon="6.3489320">
        <ele>1442.0</ele>
        <time>2021-08-19T10:52:01Z</time>
      </trkpt>
      <trkpt lat="45.4121350" lon="6.3488840">
        <ele>1441.4</ele>
        <time>2021-08-19T10:52:02Z</time>
      </trkpt>
      <trkpt lat="45.4120480" lon="6.3488320">
        <ele>1440.4</ele>
        <time>2021-08-19T10:52:03Z</time>
      </trkpt>
      <trkpt lat="45.4119570" lon="6.3487730">
        <ele>1439.6</ele>
        <time>2021-08-19T10:52:04Z</time>
      </trkpt>
      <trkpt lat="45.4118620" lon="6.3487090">
        <ele>1438.8</ele>
        <time>2021-08-19T10:52:05Z</time>
      </trkpt>
      <trkpt lat="45.4117650" lon="6.3486430">
        <ele>1437.8</ele>
        <time>2021-08-19T10:52:06Z</time>
      </trkpt>
      <trkpt lat="45.4116640" lon="6.3485780">
        <ele>1437.0</ele>
        <time>2021-08-19T10:52:07Z</time>
      </trkpt>
      <trkpt lat="45.4114600" lon="6.3484440">
        <ele>1435.4</ele>
        <time>2021-08-19T10:52:09Z</time>
      </trkpt>
      <trkpt lat="45.4113620" lon="6.3483770">
        <ele>1434.2</ele>
        <time>2021-08-19T10:52:10Z</time>
      </trkpt>
      <trkpt lat="45.4111760" lon="6.3482450">
        <ele>1432.8</ele>
        <time>2021-08-19T10:52:12Z</time>
      </trkpt>
      <trkpt lat="45.4110080" lon="6.3481100">
        <ele>1430.8</ele>
        <time>2021-08-19T10:52:14Z</time>
      </trkpt>
      <trkpt lat="45.4109360" lon="6.3480350">
        <ele>1430.4</ele>
        <time>2021-08-19T10:52:15Z</time>
      </trkpt>
      <trkpt lat="45.4108760" lon="6.3479480">
        <ele>1428.8</ele>
        <time>2021-08-19T10:52:16Z</time>
      </trkpt>
      <trkpt lat="45.4108310" lon="6.3478460">
        <ele>1428.4</ele>
        <time>2021-08-19T10:52:17Z</time>
      </trkpt>
      <trkpt lat="45.4108020" lon="6.3477300">
        <ele>1426.6</ele>
        <time>2021-08-19T10:52:18Z</time>
      </trkpt>
      <trkpt lat="45.4107750" lon="6.3474940">
        <ele>1425.4</ele>
        <time>2021-08-19T10:52:20Z</time>
      </trkpt>
      <trkpt lat="45.4107530" lon="6.3473860">
        <ele>1424.6</ele>
        <time>2021-08-19T10:52:21Z</time>
      </trkpt>
      <trkpt lat="45.4107130" lon="6.3472860">
        <ele>1424.2</ele>
        <time>2021-08-19T10:52:22Z</time>
      </trkpt>
      <trkpt lat="45.4106580" lon="6.3471970">
        <ele>1422.6</ele>
        <time>2021-08-19T10:52:23Z</time>
      </trkpt>
      <trkpt lat="45.4105210" lon="6.3470620">
        <ele>1421.2</ele>
        <time>2021-08-19T10:52:25Z</time>
      </trkpt>
      <trkpt lat="45.4103730" lon="6.3470210">
        <ele>1420.2</ele>
        <time>2021-08-19T10:52:27Z</time>
      </trkpt>
      <trkpt lat="45.4103000" lon="6.3470370">
        <ele>1420.0</ele>
        <time>2021-08-19T10:52:28Z</time>
      </trkpt>
      <trkpt lat="45.4102250" lon="6.3470750">
        <ele>1419.2</ele>
        <time>2021-08-19T10:52:29Z</time>
      </trkpt>
      <trkpt lat="45.4101490" lon="6.3471160">
        <ele>1418.8</ele>
        <time>2021-08-19T10:52:30Z</time>
      </trkpt>
      <trkpt lat="45.4100710" lon="6.3471430">
        <ele>1418.4</ele>
        <time>2021-08-19T10:52:31Z</time>
      </trkpt>
      <trkpt lat="45.4099920" lon="6.3471440">
        <ele>1417.6</ele>
        <time>2021-08-19T10:52:32Z</time>
      </trkpt>
      <trkpt lat="45.4099110" lon="6.3471190">
        <ele>1417.2</ele>
        <time>2021-08-19T10:52:33Z</time>
      </trkpt>
      <trkpt lat="45.4098360" lon="6.3470680">
        <ele>1416.0</ele>
        <time>2021-08-19T10:52:34Z</time>
      </trkpt>
      <trkpt lat="45.4097730" lon="6.3469890">
        <ele>1415.2</ele>
        <time>2021-08-19T10:52:35Z</time>
      </trkpt>
      <trkpt lat="45.4097150" lon="6.3469000">
        <ele>1414.4</ele>
        <time>2021-08-19T10:52:36Z</time>
      </trkpt>
      <trkpt lat="45.4095840" lon="6.3467210">
        <ele>1412.8</ele>
        <time>2021-08-19T10:52:38Z</time>
      </trkpt>
      <trkpt lat="45.4095110" lon="6.3466380">
        <ele>1412.4</ele>
        <time>2021-08-19T10:52:39Z</time>
      </trkpt>
      <trkpt lat="45.4094300" lon="6.3465620">
        <ele>1411.6</ele>
        <time>2021-08-19T10:52:40Z</time>
      </trkpt>
      <trkpt lat="45.4092490" lon="6.3464310">
        <ele>1410.4</ele>
        <time>2021-08-19T10:52:42Z</time>
      </trkpt>
      <trkpt lat="45.4091550" lon="6.3463690">
        <ele>1409.2</ele>
        <time>2021-08-19T10:52:43Z</time>
      </trkpt>
      <trkpt lat="45.4089620" lon="6.3462520">
        <ele>1407.6</ele>
        <time>2021-08-19T10:52:45Z</time>
      </trkpt>
      <trkpt lat="45.4087700" lon="6.3461270">
        <ele>1406.0</ele>
        <time>2021-08-19T10:52:47Z</time>
      </trkpt>
      <trkpt lat="45.4085870" lon="6.3459880">
        <ele>1404.4</ele>
        <time>2021-08-19T10:52:49Z</time>
      </trkpt>
      <trkpt lat="45.4084190" lon="6.3458550">
        <ele>1402.4</ele>
        <time>2021-08-19T10:52:51Z</time>
      </trkpt>
      <trkpt lat="45.4082520" lon="6.3457500">
        <ele>1401.6</ele>
        <time>2021-08-19T10:52:53Z</time>
      </trkpt>
      <trkpt lat="45.4081670" lon="6.3457180">
        <ele>1401.0</ele>
        <time>2021-08-19T10:52:54Z</time>
      </trkpt>
      <trkpt lat="45.4080810" lon="6.3456960">
        <ele>1400.8</ele>
        <time>2021-08-19T10:52:55Z</time>
      </trkpt>
      <trkpt lat="45.4077420" lon="6.3456800">
        <ele>1400.2</ele>
        <time>2021-08-19T10:52:59Z</time>
      </trkpt>
      <trkpt lat="45.4076630" lon="6.3456850">
        <ele>1400.0</ele>
        <time>2021-08-19T10:53:00Z</time>
      </trkpt>
      <trkpt lat="45.4071860" lon="6.3457060">
        <ele>1399.8</ele>
        <time>2021-08-19T10:53:06Z</time>
      </trkpt>
      <trkpt lat="45.4071120" lon="6.3457250">
        <ele>1399.6</ele>
        <time>2021-08-19T10:53:07Z</time>
      </trkpt>
      <trkpt lat="45.4069280" lon="6.3457980">
        <ele>1399.6</ele>
        <time>2021-08-19T10:53:10Z</time>
      </trkpt>
      <trkpt lat="45.4068190" lon="6.3457610">
        <ele>1399.6</ele>
        <time>2021-08-19T10:53:12Z</time>
      </trkpt>
      <trkpt lat="45.4067930" lon="6.3456460">
        <ele>1399.4</ele>
        <time>2021-08-19T10:53:14Z</time>
      </trkpt>
      <trkpt lat="45.4068150" lon="6.3455790">
        <ele>1399.0</ele>
        <time>2021-08-19T10:53:15Z</time>
      </trkpt>
      <trkpt lat="45.4068690" lon="6.3455250">
        <ele>1399.0</ele>
        <time>2021-08-19T10:53:16Z</time>
      </trkpt>
      <trkpt lat="45.4070010" lon="6.3454790">
        <ele>1398.6</ele>
        <time>2021-08-19T10:53:18Z</time>
      </trkpt>
      <trkpt lat="45.4071420" lon="6.3454560">
        <ele>1398.0</ele>
        <time>2021-08-19T10:53:20Z</time>
      </trkpt>
      <trkpt lat="45.4073320" lon="6.3454300">
        <ele>1397.0</ele>
        <time>2021-08-19T10:53:22Z</time>
      </trkpt>
      <trkpt lat="45.4074990" lon="6.3453990">
        <ele>1395.8</ele>
        <time>2021-08-19T10:53:24Z</time>
      </trkpt>
      <trkpt lat="45.4075910" lon="6.3453850">
        <ele>1395.4</ele>
        <time>2021-08-19T10:53:25Z</time>
      </trkpt>
      <trkpt lat="45.4076990" lon="6.3453660">
        <ele>1394.6</ele>
        <time>2021-08-19T10:53:26Z</time>
      </trkpt>
      <trkpt lat="45.4078580" lon="6.3453370">
        <ele>1393.2</ele>
        <time>2021-08-19T10:53:28Z</time>
      </trkpt>
      <trkpt lat="45.4080280" lon="6.3453160">
        <ele>1391.8</ele>
        <time>2021-08-19T10:53:30Z</time>
      </trkpt>
      <trkpt lat="45.4081170" lon="6.3452880">
        <ele>1391.0</ele>
        <time>2021-08-19T10:53:31Z</time>
      </trkpt>
      <trkpt lat="45.4081790" lon="6.3452520">
        <ele>1390.4</ele>
        <time>2021-08-19T10:53:32Z</time>
      </trkpt>
      <trkpt lat="45.4082260" lon="6.3451980">
        <ele>1389.6</ele>
        <time>2021-08-19T10:53:33Z</time>
      </trkpt>
      <trkpt lat="45.4082520" lon="6.3451370">
        <ele>1389.2</ele>
        <time>2021-08-19T10:53:34Z</time>
      </trkpt>
      <trkpt lat="45.4082710" lon="6.3450480">
        <ele>1388.4</ele>
        <time>2021-08-19T10:53:35Z</time>
      </trkpt>
      <trkpt lat="45.4082620" lon="6.3449400">
        <ele>1387.6</ele>
        <time>2021-08-19T10:53:36Z</time>
      </trkpt>
      <trkpt lat="45.4082280" lon="6.3448620">
        <ele>1386.8</ele>
        <time>2021-08-19T10:53:37Z</time>
      </trkpt>
      <trkpt lat="45.4081720" lon="6.3447960">
        <ele>1386.4</ele>
        <time>2021-08-19T10:53:38Z</time>
      </trkpt>
      <trkpt lat="45.4081230" lon="6.3447610">
        <ele>1386.0</ele>
        <time>2021-08-19T10:53:39Z</time>
      </trkpt>
      <trkpt lat="45.4079660" lon="6.3447170">
        <ele>1385.0</ele>
        <time>2021-08-19T10:53:41Z</time>
      </trkpt>
      <trkpt lat="45.4077670" lon="6.3446770">
        <ele>1384.4</ele>
        <time>2021-08-19T10:53:43Z</time>
      </trkpt>
      <trkpt lat="45.4076900" lon="6.3446570">
        <ele>1383.6</ele>
        <time>2021-08-19T10:53:44Z</time>
      </trkpt>
      <trkpt lat="45.4074730" lon="6.3446100">
        <ele>1382.2</ele>
        <time>2021-08-19T10:53:46Z</time>
      </trkpt>
      <trkpt lat="45.4072800" lon="6.3445580">
        <ele>1380.6</ele>
        <time>2021-08-19T10:53:48Z</time>
      </trkpt>
      <trkpt lat="45.4070980" lon="6.3444780">
        <ele>1378.4</ele>
        <time>2021-08-19T10:53:50Z</time>
      </trkpt>
      <trkpt lat="45.4068970" lon="6.3443660">
        <ele>1376.2</ele>
        <time>2021-08-19T10:53:52Z</time>
      </trkpt>
      <trkpt lat="45.4067070" lon="6.3442310">
        <ele>1374.4</ele>
        <time>2021-08-19T10:53:54Z</time>
      </trkpt>
      <trkpt lat="45.4066120" lon="6.3441610">
        <ele>1372.6</ele>
        <time>2021-08-19T10:53:55Z</time>
      </trkpt>
      <trkpt lat="45.4064300" lon="6.3440270">
        <ele>1370.6</ele>
        <time>2021-08-19T10:53:57Z</time>
      </trkpt>
      <trkpt lat="45.4063430" lon="6.3439620">
        <ele>1369.8</ele>
        <time>2021-08-19T10:53:58Z</time>
      </trkpt>
      <trkpt lat="45.4062510" lon="6.3439010">
        <ele>1368.2</ele>
        <time>2021-08-19T10:53:59Z</time>
      </trkpt>
      <trkpt lat="45.4060490" lon="6.3437790">
        <ele>1365.8</ele>
        <time>2021-08-19T10:54:01Z</time>
      </trkpt>
      <trkpt lat="45.4058670" lon="6.3436670">
        <ele>1364.2</ele>
        <time>2021-08-19T10:54:03Z</time>
      </trkpt>
      <trkpt lat="45.4057190" lon="6.3435730">
        <ele>1362.0</ele>
        <time>2021-08-19T10:54:05Z</time>
      </trkpt>
      <trkpt lat="45.4056360" lon="6.3435230">
        <ele>1361.4</ele>
        <time>2021-08-19T10:54:06Z</time>
      </trkpt>
      <trkpt lat="45.4055490" lon="6.3434770">
        <ele>1359.8</ele>
        <time>2021-08-19T10:54:07Z</time>
      </trkpt>
      <trkpt lat="45.4054590" lon="6.3434350">
        <ele>1358.6</ele>
        <time>2021-08-19T10:54:08Z</time>
      </trkpt>
      <trkpt lat="45.4052730" lon="6.3433730">
        <ele>1357.4</ele>
        <time>2021-08-19T10:54:10Z</time>
      </trkpt>
      <trkpt lat="45.4050670" lon="6.3433390">
        <ele>1355.4</ele>
        <time>2021-08-19T10:54:12Z</time>
      </trkpt>
      <trkpt lat="45.4049020" lon="6.3433240">
        <ele>1353.2</ele>
        <time>2021-08-19T10:54:14Z</time>
      </trkpt>
      <trkpt lat="45.4048030" lon="6.3433080">
        <ele>1352.4</ele>
        <time>2021-08-19T10:54:15Z</time>
      </trkpt>
      <trkpt lat="45.4047410" lon="6.3432920">
        <ele>1350.6</ele>
        <time>2021-08-19T10:54:16Z</time>
      </trkpt>
      <trkpt lat="45.4046450" lon="6.3432570">
        <ele>1349.8</ele>
        <time>2021-08-19T10:54:17Z</time>
      </trkpt>
      <trkpt lat="45.4045830" lon="6.3432210">
        <ele>1349.2</ele>
        <time>2021-08-19T10:54:18Z</time>
      </trkpt>
      <trkpt lat="45.4045120" lon="6.3431650">
        <ele>1348.6</ele>
        <time>2021-08-19T10:54:19Z</time>
      </trkpt>
      <trkpt lat="45.4044400" lon="6.3430810">
        <ele>1347.2</ele>
        <time>2021-08-19T10:54:20Z</time>
      </trkpt>
      <trkpt lat="45.4043960" lon="6.3430160">
        <ele>1346.2</ele>
        <time>2021-08-19T10:54:21Z</time>
      </trkpt>
      <trkpt lat="45.4042860" lon="6.3428530">
        <ele>1344.4</ele>
        <time>2021-08-19T10:54:23Z</time>
      </trkpt>
      <trkpt lat="45.4041790" lon="6.3427090">
        <ele>1342.6</ele>
        <time>2021-08-19T10:54:25Z</time>
      </trkpt>
      <trkpt lat="45.4041220" lon="6.3426520">
        <ele>1342.0</ele>
        <time>2021-08-19T10:54:26Z</time>
      </trkpt>
      <trkpt lat="45.4040570" lon="6.3426100">
        <ele>1340.6</ele>
        <time>2021-08-19T10:54:27Z</time>
      </trkpt>
      <trkpt lat="45.4040160" lon="6.3426040">
        <ele>1340.2</ele>
        <time>2021-08-19T10:54:28Z</time>
      </trkpt>
      <trkpt lat="45.4039630" lon="6.3426220">
        <ele>1339.4</ele>
        <time>2021-08-19T10:54:29Z</time>
      </trkpt>
      <trkpt lat="45.4039160" lon="6.3426700">
        <ele>1338.8</ele>
        <time>2021-08-19T10:54:30Z</time>
      </trkpt>
      <trkpt lat="45.4038760" lon="6.3427470">
        <ele>1337.8</ele>
        <time>2021-08-19T10:54:31Z</time>
      </trkpt>
      <trkpt lat="45.4038400" lon="6.3428380">
        <ele>1337.6</ele>
        <time>2021-08-19T10:54:32Z</time>
      </trkpt>
      <trkpt lat="45.4038000" lon="6.3429250">
        <ele>1336.8</ele>
        <time>2021-08-19T10:54:33Z</time>
      </trkpt>
      <trkpt lat="45.4037440" lon="6.3429950">
        <ele>1336.4</ele>
        <time>2021-08-19T10:54:34Z</time>
      </trkpt>
      <trkpt lat="45.4036700" lon="6.3430400">
        <ele>1336.0</ele>
        <time>2021-08-19T10:54:35Z</time>
      </trkpt>
      <trkpt lat="45.4035690" lon="6.3430660">
        <ele>1335.0</ele>
        <time>2021-08-19T10:54:36Z</time>
      </trkpt>
      <trkpt lat="45.4033840" lon="6.3430750">
        <ele>1333.4</ele>
        <time>2021-08-19T10:54:38Z</time>
      </trkpt>
      <trkpt lat="45.4032040" lon="6.3430940">
        <ele>1332.0</ele>
        <time>2021-08-19T10:54:40Z</time>
      </trkpt>
      <trkpt lat="45.4030200" lon="6.3430980">
        <ele>1329.8</ele>
        <time>2021-08-19T10:54:42Z</time>
      </trkpt>
      <trkpt lat="45.4029390" lon="6.3430960">
        <ele>1329.4</ele>
        <time>2021-08-19T10:54:43Z</time>
      </trkpt>
      <trkpt lat="45.4028660" lon="6.3430830">
        <ele>1327.4</ele>
        <time>2021-08-19T10:54:44Z</time>
      </trkpt>
      <trkpt lat="45.4027370" lon="6.3429860">
        <ele>1325.8</ele>
        <time>2021-08-19T10:54:46Z</time>
      </trkpt>
      <trkpt lat="45.4026860" lon="6.3429030">
        <ele>1324.6</ele>
        <time>2021-08-19T10:54:47Z</time>
      </trkpt>
      <trkpt lat="45.4026460" lon="6.3427980">
        <ele>1324.0</ele>
        <time>2021-08-19T10:54:48Z</time>
      </trkpt>
      <trkpt lat="45.4026050" lon="6.3426850">
        <ele>1323.0</ele>
        <time>2021-08-19T10:54:49Z</time>
      </trkpt>
      <trkpt lat="45.4025500" lon="6.3425770">
        <ele>1322.8</ele>
        <time>2021-08-19T10:54:50Z</time>
      </trkpt>
      <trkpt lat="45.4024000" lon="6.3423860">
        <ele>1321.8</ele>
        <time>2021-08-19T10:54:52Z</time>
      </trkpt>
      <trkpt lat="45.4023190" lon="6.3422930">
        <ele>1320.2</ele>
        <time>2021-08-19T10:54:53Z</time>
      </trkpt>
      <trkpt lat="45.4022440" lon="6.3421960">
        <ele>1319.2</ele>
        <time>2021-08-19T10:54:54Z</time>
      </trkpt>
      <trkpt lat="45.4021830" lon="6.3420920">
        <ele>1318.2</ele>
        <time>2021-08-19T10:54:55Z</time>
      </trkpt>
      <trkpt lat="45.4021370" lon="6.3419800">
        <ele>1317.6</ele>
        <time>2021-08-19T10:54:56Z</time>
      </trkpt>
      <trkpt lat="45.4021120" lon="6.3418620">
        <ele>1316.6</ele>
        <time>2021-08-19T10:54:57Z</time>
      </trkpt>
      <trkpt lat="45.4020840" lon="6.3416020">
        <ele>1314.8</ele>
        <time>2021-08-19T10:54:59Z</time>
      </trkpt>
      <trkpt lat="45.4020730" lon="6.3414600">
        <ele>1313.8</ele>
        <time>2021-08-19T10:55:00Z</time>
      </trkpt>
      <trkpt lat="45.4020590" lon="6.3412870">
        <ele>1313.4</ele>
        <time>2021-08-19T10:55:01Z</time>
      </trkpt>
      <trkpt lat="45.4020430" lon="6.3411460">
        <ele>1312.2</ele>
        <time>2021-08-19T10:55:02Z</time>
      </trkpt>
      <trkpt lat="45.4020190" lon="6.3409080">
        <ele>1310.8</ele>
        <time>2021-08-19T10:55:04Z</time>
      </trkpt>
      <trkpt lat="45.4020110" lon="6.3407810">
        <ele>1309.8</ele>
        <time>2021-08-19T10:55:05Z</time>
      </trkpt>
      <trkpt lat="45.4020100" lon="6.3406580">
        <ele>1308.4</ele>
        <time>2021-08-19T10:55:06Z</time>
      </trkpt>
      <trkpt lat="45.4020140" lon="6.3404130">
        <ele>1307.2</ele>
        <time>2021-08-19T10:55:08Z</time>
      </trkpt>
      <trkpt lat="45.4020060" lon="6.3402920">
        <ele>1306.6</ele>
        <time>2021-08-19T10:55:09Z</time>
      </trkpt>
      <trkpt lat="45.4019850" lon="6.3401770">
        <ele>1306.0</ele>
        <time>2021-08-19T10:55:10Z</time>
      </trkpt>
      <trkpt lat="45.4019530" lon="6.3400410">
        <ele>1305.6</ele>
        <time>2021-08-19T10:55:11Z</time>
      </trkpt>
      <trkpt lat="45.4019160" lon="6.3399300">
        <ele>1304.8</ele>
        <time>2021-08-19T10:55:12Z</time>
      </trkpt>
      <trkpt lat="45.4018820" lon="6.3398490">
        <ele>1304.2</ele>
        <time>2021-08-19T10:55:13Z</time>
      </trkpt>
      <trkpt lat="45.4018370" lon="6.3397560">
        <ele>1304.0</ele>
        <time>2021-08-19T10:55:14Z</time>
      </trkpt>
      <trkpt lat="45.4017770" lon="6.3396600">
        <ele>1303.4</ele>
        <time>2021-08-19T10:55:15Z</time>
      </trkpt>
      <trkpt lat="45.4017280" lon="6.3396090">
        <ele>1302.6</ele>
        <time>2021-08-19T10:55:16Z</time>
      </trkpt>
      <trkpt lat="45.4016450" lon="6.3395510">
        <ele>1301.4</ele>
        <time>2021-08-19T10:55:17Z</time>
      </trkpt>
      <trkpt lat="45.4015650" lon="6.3395200">
        <ele>1300.8</ele>
        <time>2021-08-19T10:55:18Z</time>
      </trkpt>
      <trkpt lat="45.4014970" lon="6.3395010">
        <ele>1299.4</ele>
        <time>2021-08-19T10:55:19Z</time>
      </trkpt>
      <trkpt lat="45.4012950" lon="6.3394410">
        <ele>1298.4</ele>
        <time>2021-08-19T10:55:21Z</time>
      </trkpt>
      <trkpt lat="45.4011150" lon="6.3393570">
        <ele>1296.6</ele>
        <time>2021-08-19T10:55:23Z</time>
      </trkpt>
      <trkpt lat="45.4010410" lon="6.3393170">
        <ele>1295.8</ele>
        <time>2021-08-19T10:55:24Z</time>
      </trkpt>
      <trkpt lat="45.4009270" lon="6.3392670">
        <ele>1294.6</ele>
        <time>2021-08-19T10:55:25Z</time>
      </trkpt>
      <trkpt lat="45.4008280" lon="6.3392400">
        <ele>1293.4</ele>
        <time>2021-08-19T10:55:26Z</time>
      </trkpt>
      <trkpt lat="45.4007330" lon="6.3392230">
        <ele>1293.0</ele>
        <time>2021-08-19T10:55:27Z</time>
      </trkpt>
      <trkpt lat="45.4006410" lon="6.3392190">
        <ele>1292.0</ele>
        <time>2021-08-19T10:55:28Z</time>
      </trkpt>
      <trkpt lat="45.4005700" lon="6.3392240">
        <ele>1291.4</ele>
        <time>2021-08-19T10:55:29Z</time>
      </trkpt>
      <trkpt lat="45.4004640" lon="6.3392450">
        <ele>1290.0</ele>
        <time>2021-08-19T10:55:30Z</time>
      </trkpt>
      <trkpt lat="45.4002920" lon="6.3393000">
        <ele>1288.0</ele>
        <time>2021-08-19T10:55:32Z</time>
      </trkpt>
      <trkpt lat="45.4001290" lon="6.3392950">
        <ele>1286.2</ele>
        <time>2021-08-19T10:55:34Z</time>
      </trkpt>
      <trkpt lat="45.4000180" lon="6.3392610">
        <ele>1286.0</ele>
        <time>2021-08-19T10:55:35Z</time>
      </trkpt>
      <trkpt lat="45.3999430" lon="6.3392190">
        <ele>1285.4</ele>
        <time>2021-08-19T10:55:36Z</time>
      </trkpt>
      <trkpt lat="45.3998520" lon="6.3391470">
        <ele>1284.8</ele>
        <time>2021-08-19T10:55:37Z</time>
      </trkpt>
      <trkpt lat="45.3997710" lon="6.3390550">
        <ele>1283.0</ele>
        <time>2021-08-19T10:55:38Z</time>
      </trkpt>
      <trkpt lat="45.3996220" lon="6.3388310">
        <ele>1281.2</ele>
        <time>2021-08-19T10:55:40Z</time>
      </trkpt>
      <trkpt lat="45.3995340" lon="6.3386890">
        <ele>1280.0</ele>
        <time>2021-08-19T10:55:41Z</time>
      </trkpt>
      <trkpt lat="45.3993790" lon="6.3384640">
        <ele>1278.2</ele>
        <time>2021-08-19T10:55:43Z</time>
      </trkpt>
      <trkpt lat="45.3992500" lon="6.3382660">
        <ele>1276.8</ele>
        <time>2021-08-19T10:55:45Z</time>
      </trkpt>
      <trkpt lat="45.3991170" lon="6.3380660">
        <ele>1275.0</ele>
        <time>2021-08-19T10:55:47Z</time>
      </trkpt>
      <trkpt lat="45.3989800" lon="6.3378930">
        <ele>1273.0</ele>
        <time>2021-08-19T10:55:49Z</time>
      </trkpt>
      <trkpt lat="45.3989060" lon="6.3378190">
        <ele>1272.0</ele>
        <time>2021-08-19T10:55:50Z</time>
      </trkpt>
      <trkpt lat="45.3988280" lon="6.3377540">
        <ele>1270.8</ele>
        <time>2021-08-19T10:55:51Z</time>
      </trkpt>
      <trkpt lat="45.3987490" lon="6.3377060">
        <ele>1270.2</ele>
        <time>2021-08-19T10:55:52Z</time>
      </trkpt>
      <trkpt lat="45.3986740" lon="6.3376750">
        <ele>1269.6</ele>
        <time>2021-08-19T10:55:53Z</time>
      </trkpt>
      <trkpt lat="45.3986050" lon="6.3376560">
        <ele>1268.4</ele>
        <time>2021-08-19T10:55:54Z</time>
      </trkpt>
      <trkpt lat="45.3985440" lon="6.3376400">
        <ele>1267.8</ele>
        <time>2021-08-19T10:55:55Z</time>
      </trkpt>
      <trkpt lat="45.3984960" lon="6.3376150">
        <ele>1266.8</ele>
        <time>2021-08-19T10:55:56Z</time>
      </trkpt>
      <trkpt lat="45.3984530" lon="6.3375200">
        <ele>1265.8</ele>
        <time>2021-08-19T10:55:58Z</time>
      </trkpt>
      <trkpt lat="45.3985030" lon="6.3374230">
        <ele>1264.8</ele>
        <time>2021-08-19T10:56:00Z</time>
      </trkpt>
      <trkpt lat="45.3985570" lon="6.3374110">
        <ele>1264.4</ele>
        <time>2021-08-19T10:56:01Z</time>
      </trkpt>
      <trkpt lat="45.3986260" lon="6.3374260">
        <ele>1263.8</ele>
        <time>2021-08-19T10:56:02Z</time>
      </trkpt>
      <trkpt lat="45.3988030" lon="6.3374780">
        <ele>1262.6</ele>
        <time>2021-08-19T10:56:05Z</time>
      </trkpt>
      <trkpt lat="45.3989400" lon="6.3375030">
        <ele>1261.4</ele>
        <time>2021-08-19T10:56:07Z</time>
      </trkpt>
      <trkpt lat="45.3990550" lon="6.3375100">
        <ele>1260.4</ele>
        <time>2021-08-19T10:56:09Z</time>
      </trkpt>
      <trkpt lat="45.3993220" lon="6.3375440">
        <ele>1258.8</ele>
        <time>2021-08-19T10:56:13Z</time>
      </trkpt>
      <trkpt lat="45.3993690" lon="6.3375590">
        <ele>1258.4</ele>
        <time>2021-08-19T10:56:14Z</time>
      </trkpt>
      <trkpt lat="45.3994730" lon="6.3376230">
        <ele>1257.8</ele>
        <time>2021-08-19T10:56:16Z</time>
      </trkpt>
      <trkpt lat="45.3995640" lon="6.3377190">
        <ele>1257.4</ele>
        <time>2021-08-19T10:56:18Z</time>
      </trkpt>
      <trkpt lat="45.3995960" lon="6.3377510">
        <ele>1256.6</ele>
        <time>2021-08-19T10:56:19Z</time>
      </trkpt>
      <trkpt lat="45.3997080" lon="6.3378560">
        <ele>1255.6</ele>
        <time>2021-08-19T10:56:22Z</time>
      </trkpt>
      <trkpt lat="45.3997400" lon="6.3378670">
        <ele>1255.4</ele>
        <time>2021-08-19T10:56:23Z</time>
      </trkpt>
      <trkpt lat="45.3998170" lon="6.3378590">
        <ele>1255.0</ele>
        <time>2021-08-19T10:56:25Z</time>
      </trkpt>
      <trkpt lat="45.3998790" lon="6.3378200">
        <ele>1254.2</ele>
        <time>2021-08-19T10:56:27Z</time>
      </trkpt>
      <trkpt lat="45.3999100" lon="6.3377880">
        <ele>1253.0</ele>
        <time>2021-08-19T10:56:30Z</time>
      </trkpt>
      <trkpt lat="45.3999100" lon="6.3377880">
        <ele>1253.0</ele>
        <time>2021-08-19T10:56:31Z</time>
      </trkpt>
      <trkpt lat="45.3999390" lon="6.3377340">
        <ele>1252.0</ele>
        <time>2021-08-19T10:58:15Z</time>
      </trkpt>
      <trkpt lat="45.3999150" lon="6.3377230">
        <ele>1252.0</ele>
        <time>2021-08-19T10:58:16Z</time>
      </trkpt>
      <trkpt lat="45.3998880" lon="6.3377050">
        <ele>1252.0</ele>
        <time>2021-08-19T10:58:17Z</time>
      </trkpt>
      <trkpt lat="45.3997430" lon="6.3376000">
        <ele>1252.0</ele>
        <time>2021-08-19T10:58:21Z</time>
      </trkpt>
      <trkpt lat="45.3995190" lon="6.3373400">
        <ele>1250.8</ele>
        <time>2021-08-19T10:58:26Z</time>
      </trkpt>
      <trkpt lat="45.3992030" lon="6.3369940">
        <ele>1249.6</ele>
        <time>2021-08-19T10:58:31Z</time>
      </trkpt>
      <trkpt lat="45.3991220" lon="6.3369320">
        <ele>1249.2</ele>
        <time>2021-08-19T10:58:32Z</time>
      </trkpt>
      <trkpt lat="45.3988470" lon="6.3367920">
        <ele>1248.0</ele>
        <time>2021-08-19T10:58:35Z</time>
      </trkpt>
      <trkpt lat="45.3986500" lon="6.3367070">
        <ele>1246.0</ele>
        <time>2021-08-19T10:58:37Z</time>
      </trkpt>
      <trkpt lat="45.3985570" lon="6.3366510">
        <ele>1245.4</ele>
        <time>2021-08-19T10:58:38Z</time>
      </trkpt>
      <trkpt lat="45.3984670" lon="6.3365820">
        <ele>1244.4</ele>
        <time>2021-08-19T10:58:39Z</time>
      </trkpt>
      <trkpt lat="45.3982770" lon="6.3364590">
        <ele>1243.2</ele>
        <time>2021-08-19T10:58:41Z</time>
      </trkpt>
      <trkpt lat="45.3981740" lon="6.3364150">
        <ele>1242.0</ele>
        <time>2021-08-19T10:58:42Z</time>
      </trkpt>
      <trkpt lat="45.3980660" lon="6.3363820">
        <ele>1241.8</ele>
        <time>2021-08-19T10:58:43Z</time>
      </trkpt>
      <trkpt lat="45.3979560" lon="6.3363490">
        <ele>1240.6</ele>
        <time>2021-08-19T10:58:44Z</time>
      </trkpt>
      <trkpt lat="45.3977560" lon="6.3362730">
        <ele>1238.0</ele>
        <time>2021-08-19T10:58:46Z</time>
      </trkpt>
      <trkpt lat="45.3975110" lon="6.3361520">
        <ele>1236.0</ele>
        <time>2021-08-19T10:58:48Z</time>
      </trkpt>
      <trkpt lat="45.3973060" lon="6.3360390">
        <ele>1234.6</ele>
        <time>2021-08-19T10:58:50Z</time>
      </trkpt>
      <trkpt lat="45.3972060" lon="6.3359950">
        <ele>1234.4</ele>
        <time>2021-08-19T10:58:51Z</time>
      </trkpt>
      <trkpt lat="45.3971070" lon="6.3359630">
        <ele>1232.8</ele>
        <time>2021-08-19T10:58:52Z</time>
      </trkpt>
      <trkpt lat="45.3969030" lon="6.3359280">
        <ele>1231.2</ele>
        <time>2021-08-19T10:58:54Z</time>
      </trkpt>
      <trkpt lat="45.3968050" lon="6.3359230">
        <ele>1230.2</ele>
        <time>2021-08-19T10:58:55Z</time>
      </trkpt>
      <trkpt lat="45.3967110" lon="6.3359280">
        <ele>1229.6</ele>
        <time>2021-08-19T10:58:56Z</time>
      </trkpt>
      <trkpt lat="45.3966180" lon="6.3359530">
        <ele>1228.6</ele>
        <time>2021-08-19T10:58:57Z</time>
      </trkpt>
      <trkpt lat="45.3965260" lon="6.3359990">
        <ele>1228.2</ele>
        <time>2021-08-19T10:58:58Z</time>
      </trkpt>
      <trkpt lat="45.3964350" lon="6.3360620">
        <ele>1227.4</ele>
        <time>2021-08-19T10:58:59Z</time>
      </trkpt>
      <trkpt lat="45.3962440" lon="6.3361770">
        <ele>1226.2</ele>
        <time>2021-08-19T10:59:01Z</time>
      </trkpt>
      <trkpt lat="45.3961380" lon="6.3362070">
        <ele>1225.8</ele>
        <time>2021-08-19T10:59:02Z</time>
      </trkpt>
      <trkpt lat="45.3960260" lon="6.3362170">
        <ele>1224.8</ele>
        <time>2021-08-19T10:59:03Z</time>
      </trkpt>
      <trkpt lat="45.3958020" lon="6.3362040">
        <ele>1223.2</ele>
        <time>2021-08-19T10:59:05Z</time>
      </trkpt>
      <trkpt lat="45.3956870" lon="6.3361790">
        <ele>1222.6</ele>
        <time>2021-08-19T10:59:06Z</time>
      </trkpt>
      <trkpt lat="45.3955680" lon="6.3361440">
        <ele>1221.8</ele>
        <time>2021-08-19T10:59:07Z</time>
      </trkpt>
      <trkpt lat="45.3954490" lon="6.3360980">
        <ele>1220.2</ele>
        <time>2021-08-19T10:59:08Z</time>
      </trkpt>
      <trkpt lat="45.3952160" lon="6.3359930">
        <ele>1218.0</ele>
        <time>2021-08-19T10:59:10Z</time>
      </trkpt>
      <trkpt lat="45.3950010" lon="6.3358900">
        <ele>1216.2</ele>
        <time>2021-08-19T10:59:12Z</time>
      </trkpt>
      <trkpt lat="45.3947840" lon="6.3357980">
        <ele>1214.2</ele>
        <time>2021-08-19T10:59:14Z</time>
      </trkpt>
      <trkpt lat="45.3946950" lon="6.3357670">
        <ele>1213.6</ele>
        <time>2021-08-19T10:59:15Z</time>
      </trkpt>
      <trkpt lat="45.3945580" lon="6.3357190">
        <ele>1212.6</ele>
        <time>2021-08-19T10:59:16Z</time>
      </trkpt>
      <trkpt lat="45.3943560" lon="6.3356370">
        <ele>1211.4</ele>
        <time>2021-08-19T10:59:18Z</time>
      </trkpt>
      <trkpt lat="45.3941610" lon="6.3355410">
        <ele>1209.2</ele>
        <time>2021-08-19T10:59:20Z</time>
      </trkpt>
      <trkpt lat="45.3939650" lon="6.3354500">
        <ele>1207.4</ele>
        <time>2021-08-19T10:59:22Z</time>
      </trkpt>
      <trkpt lat="45.3938770" lon="6.3354140">
        <ele>1206.0</ele>
        <time>2021-08-19T10:59:23Z</time>
      </trkpt>
      <trkpt lat="45.3937000" lon="6.3353520">
        <ele>1204.6</ele>
        <time>2021-08-19T10:59:25Z</time>
      </trkpt>
      <trkpt lat="45.3935440" lon="6.3353350">
        <ele>1203.8</ele>
        <time>2021-08-19T10:59:27Z</time>
      </trkpt>
      <trkpt lat="45.3934680" lon="6.3353400">
        <ele>1203.6</ele>
        <time>2021-08-19T10:59:28Z</time>
      </trkpt>
      <trkpt lat="45.3933910" lon="6.3353580">
        <ele>1203.0</ele>
        <time>2021-08-19T10:59:29Z</time>
      </trkpt>
      <trkpt lat="45.3933150" lon="6.3353790">
        <ele>1202.4</ele>
        <time>2021-08-19T10:59:30Z</time>
      </trkpt>
      <trkpt lat="45.3932430" lon="6.3353950">
        <ele>1201.0</ele>
        <time>2021-08-19T10:59:31Z</time>
      </trkpt>
      <trkpt lat="45.3931170" lon="6.3353760">
        <ele>1198.6</ele>
        <time>2021-08-19T10:59:33Z</time>
      </trkpt>
      <trkpt lat="45.3930700" lon="6.3353340">
        <ele>1196.8</ele>
        <time>2021-08-19T10:59:34Z</time>
      </trkpt>
      <trkpt lat="45.3930370" lon="6.3352710">
        <ele>1196.0</ele>
        <time>2021-08-19T10:59:35Z</time>
      </trkpt>
      <trkpt lat="45.3930240" lon="6.3351980">
        <ele>1195.2</ele>
        <time>2021-08-19T10:59:36Z</time>
      </trkpt>
      <trkpt lat="45.3930280" lon="6.3351310">
        <ele>1195.0</ele>
        <time>2021-08-19T10:59:37Z</time>
      </trkpt>
      <trkpt lat="45.3930480" lon="6.3350760">
        <ele>1194.2</ele>
        <time>2021-08-19T10:59:38Z</time>
      </trkpt>
      <trkpt lat="45.3930820" lon="6.3350330">
        <ele>1193.8</ele>
        <time>2021-08-19T10:59:39Z</time>
      </trkpt>
      <trkpt lat="45.3931720" lon="6.3350370">
        <ele>1193.0</ele>
        <time>2021-08-19T10:59:41Z</time>
      </trkpt>
      <trkpt lat="45.3932240" lon="6.3350500">
        <ele>1193.0</ele>
        <time>2021-08-19T10:59:42Z</time>
      </trkpt>
      <trkpt lat="45.3933420" lon="6.3350830">
        <ele>1192.2</ele>
        <time>2021-08-19T10:59:44Z</time>
      </trkpt>
      <trkpt lat="45.3934720" lon="6.3351100">
        <ele>1191.0</ele>
        <time>2021-08-19T10:59:46Z</time>
      </trkpt>
      <trkpt lat="45.3935370" lon="6.3351230">
        <ele>1190.4</ele>
        <time>2021-08-19T10:59:47Z</time>
      </trkpt>
      <trkpt lat="45.3935960" lon="6.3351220">
        <ele>1190.0</ele>
        <time>2021-08-19T10:59:48Z</time>
      </trkpt>
      <trkpt lat="45.3936460" lon="6.3350930">
        <ele>1189.8</ele>
        <time>2021-08-19T10:59:49Z</time>
      </trkpt>
      <trkpt lat="45.3936820" lon="6.3350340">
        <ele>1189.6</ele>
        <time>2021-08-19T10:59:50Z</time>
      </trkpt>
      <trkpt lat="45.3936850" lon="6.3348820">
        <ele>1189.0</ele>
        <time>2021-08-19T10:59:52Z</time>
      </trkpt>
      <trkpt lat="45.3935860" lon="6.3348010">
        <ele>1188.6</ele>
        <time>2021-08-19T10:59:54Z</time>
      </trkpt>
      <trkpt lat="45.3934490" lon="6.3347990">
        <ele>1188.2</ele>
        <time>2021-08-19T10:59:56Z</time>
      </trkpt>
      <trkpt lat="45.3933160" lon="6.3347590">
        <ele>1187.6</ele>
        <time>2021-08-19T10:59:58Z</time>
      </trkpt>
      <trkpt lat="45.3932380" lon="6.3347170">
        <ele>1186.6</ele>
        <time>2021-08-19T10:59:59Z</time>
      </trkpt>
      <trkpt lat="45.3930670" lon="6.3346070">
        <ele>1185.0</ele>
        <time>2021-08-19T11:00:01Z</time>
      </trkpt>
      <trkpt lat="45.3929920" lon="6.3345620">
        <ele>1184.4</ele>
        <time>2021-08-19T11:00:02Z</time>
      </trkpt>
      <trkpt lat="45.3929230" lon="6.3345240">
        <ele>1184.0</ele>
        <time>2021-08-19T11:00:03Z</time>
      </trkpt>
      <trkpt lat="45.3928550" lon="6.3344980">
        <ele>1183.0</ele>
        <time>2021-08-19T11:00:04Z</time>
      </trkpt>
      <trkpt lat="45.3927860" lon="6.3344890">
        <ele>1182.4</ele>
        <time>2021-08-19T11:00:05Z</time>
      </trkpt>
      <trkpt lat="45.3927240" lon="6.3345030">
        <ele>1181.8</ele>
        <time>2021-08-19T11:00:06Z</time>
      </trkpt>
      <trkpt lat="45.3926200" lon="6.3345960">
        <ele>1181.4</ele>
        <time>2021-08-19T11:00:08Z</time>
      </trkpt>
      <trkpt lat="45.3925840" lon="6.3347640">
        <ele>1180.8</ele>
        <time>2021-08-19T11:00:10Z</time>
      </trkpt>
      <trkpt lat="45.3926190" lon="6.3349480">
        <ele>1180.2</ele>
        <time>2021-08-19T11:00:12Z</time>
      </trkpt>
      <trkpt lat="45.3926410" lon="6.3350430">
        <ele>1179.0</ele>
        <time>2021-08-19T11:00:13Z</time>
      </trkpt>
      <trkpt lat="45.3926480" lon="6.3351420">
        <ele>1178.6</ele>
        <time>2021-08-19T11:00:14Z</time>
      </trkpt>
      <trkpt lat="45.3926330" lon="6.3353430">
        <ele>1178.0</ele>
        <time>2021-08-19T11:00:16Z</time>
      </trkpt>
      <trkpt lat="45.3926470" lon="6.3356300">
        <ele>1177.0</ele>
        <time>2021-08-19T11:00:19Z</time>
      </trkpt>
      <trkpt lat="45.3926330" lon="6.3357140">
        <ele>1176.6</ele>
        <time>2021-08-19T11:00:20Z</time>
      </trkpt>
      <trkpt lat="45.3926010" lon="6.3357850">
        <ele>1175.8</ele>
        <time>2021-08-19T11:00:21Z</time>
      </trkpt>
      <trkpt lat="45.3925510" lon="6.3358380">
        <ele>1175.0</ele>
        <time>2021-08-19T11:00:22Z</time>
      </trkpt>
      <trkpt lat="45.3924870" lon="6.3358680">
        <ele>1174.0</ele>
        <time>2021-08-19T11:00:23Z</time>
      </trkpt>
      <trkpt lat="45.3923410" lon="6.3358580">
        <ele>1172.6</ele>
        <time>2021-08-19T11:00:25Z</time>
      </trkpt>
      <trkpt lat="45.3922630" lon="6.3358460">
        <ele>1172.2</ele>
        <time>2021-08-19T11:00:26Z</time>
      </trkpt>
      <trkpt lat="45.3921820" lon="6.3358420">
        <ele>1171.6</ele>
        <time>2021-08-19T11:00:27Z</time>
      </trkpt>
      <trkpt lat="45.3920120" lon="6.3358650">
        <ele>1171.0</ele>
        <time>2021-08-19T11:00:29Z</time>
      </trkpt>
      <trkpt lat="45.3919270" lon="6.3359080">
        <ele>1170.8</ele>
        <time>2021-08-19T11:00:30Z</time>
      </trkpt>
      <trkpt lat="45.3918610" lon="6.3359590">
        <ele>1170.6</ele>
        <time>2021-08-19T11:00:31Z</time>
      </trkpt>
      <trkpt lat="45.3917610" lon="6.3360400">
        <ele>1169.6</ele>
        <time>2021-08-19T11:00:32Z</time>
      </trkpt>
      <trkpt lat="45.3915970" lon="6.3361530">
        <ele>1167.6</ele>
        <time>2021-08-19T11:00:34Z</time>
      </trkpt>
      <trkpt lat="45.3914460" lon="6.3362240">
        <ele>1166.2</ele>
        <time>2021-08-19T11:00:36Z</time>
      </trkpt>
      <trkpt lat="45.3913690" lon="6.3362310">
        <ele>1165.8</ele>
        <time>2021-08-19T11:00:37Z</time>
      </trkpt>
      <trkpt lat="45.3912920" lon="6.3362110">
        <ele>1164.4</ele>
        <time>2021-08-19T11:00:38Z</time>
      </trkpt>
      <trkpt lat="45.3911490" lon="6.3361220">
        <ele>1162.2</ele>
        <time>2021-08-19T11:00:40Z</time>
      </trkpt>
      <trkpt lat="45.3910800" lon="6.3360800">
        <ele>1161.4</ele>
        <time>2021-08-19T11:00:41Z</time>
      </trkpt>
      <trkpt lat="45.3910140" lon="6.3360560">
        <ele>1160.8</ele>
        <time>2021-08-19T11:00:42Z</time>
      </trkpt>
      <trkpt lat="45.3909470" lon="6.3360560">
        <ele>1159.2</ele>
        <time>2021-08-19T11:00:43Z</time>
      </trkpt>
      <trkpt lat="45.3908330" lon="6.3361210">
        <ele>1158.2</ele>
        <time>2021-08-19T11:00:45Z</time>
      </trkpt>
      <trkpt lat="45.3907820" lon="6.3361970">
        <ele>1157.6</ele>
        <time>2021-08-19T11:00:46Z</time>
      </trkpt>
      <trkpt lat="45.3907300" lon="6.3362790">
        <ele>1156.8</ele>
        <time>2021-08-19T11:00:47Z</time>
      </trkpt>
      <trkpt lat="45.3906570" lon="6.3363520">
        <ele>1156.4</ele>
        <time>2021-08-19T11:00:48Z</time>
      </trkpt>
      <trkpt lat="45.3905860" lon="6.3363920">
        <ele>1155.4</ele>
        <time>2021-08-19T11:00:49Z</time>
      </trkpt>
      <trkpt lat="45.3905270" lon="6.3364260">
        <ele>1153.8</ele>
        <time>2021-08-19T11:00:50Z</time>
      </trkpt>
      <trkpt lat="45.3904390" lon="6.3364890">
        <ele>1152.0</ele>
        <time>2021-08-19T11:00:51Z</time>
      </trkpt>
      <trkpt lat="45.3903020" lon="6.3366100">
        <ele>1150.2</ele>
        <time>2021-08-19T11:00:53Z</time>
      </trkpt>
      <trkpt lat="45.3901710" lon="6.3367240">
        <ele>1148.8</ele>
        <time>2021-08-19T11:00:55Z</time>
      </trkpt>
      <trkpt lat="45.3901110" lon="6.3367550">
        <ele>1147.6</ele>
        <time>2021-08-19T11:00:56Z</time>
      </trkpt>
      <trkpt lat="45.3900140" lon="6.3367800">
        <ele>1147.0</ele>
        <time>2021-08-19T11:00:57Z</time>
      </trkpt>
      <trkpt lat="45.3899300" lon="6.3367890">
        <ele>1145.8</ele>
        <time>2021-08-19T11:00:58Z</time>
      </trkpt>
      <trkpt lat="45.3897750" lon="6.3368230">
        <ele>1144.4</ele>
        <time>2021-08-19T11:01:00Z</time>
      </trkpt>
      <trkpt lat="45.3896390" lon="6.3368940">
        <ele>1142.8</ele>
        <time>2021-08-19T11:01:02Z</time>
      </trkpt>
      <trkpt lat="45.3895250" lon="6.3369480">
        <ele>1141.4</ele>
        <time>2021-08-19T11:01:04Z</time>
      </trkpt>
      <trkpt lat="45.3893810" lon="6.3370140">
        <ele>1138.0</ele>
        <time>2021-08-19T11:01:06Z</time>
      </trkpt>
      <trkpt lat="45.3893110" lon="6.3370430">
        <ele>1137.2</ele>
        <time>2021-08-19T11:01:07Z</time>
      </trkpt>
      <trkpt lat="45.3892300" lon="6.3370730">
        <ele>1136.2</ele>
        <time>2021-08-19T11:01:08Z</time>
      </trkpt>
      <trkpt lat="45.3890860" lon="6.3371380">
        <ele>1134.6</ele>
        <time>2021-08-19T11:01:10Z</time>
      </trkpt>
      <trkpt lat="45.3889920" lon="6.3371860">
        <ele>1133.2</ele>
        <time>2021-08-19T11:01:11Z</time>
      </trkpt>
      <trkpt lat="45.3888410" lon="6.3372610">
        <ele>1130.6</ele>
        <time>2021-08-19T11:01:13Z</time>
      </trkpt>
      <trkpt lat="45.3887670" lon="6.3372800">
        <ele>1130.0</ele>
        <time>2021-08-19T11:01:14Z</time>
      </trkpt>
      <trkpt lat="45.3887070" lon="6.3372810">
        <ele>1129.0</ele>
        <time>2021-08-19T11:01:15Z</time>
      </trkpt>
      <trkpt lat="45.3886180" lon="6.3372690">
        <ele>1128.4</ele>
        <time>2021-08-19T11:01:16Z</time>
      </trkpt>
      <trkpt lat="45.3885440" lon="6.3372420">
        <ele>1127.6</ele>
        <time>2021-08-19T11:01:17Z</time>
      </trkpt>
      <trkpt lat="45.3884690" lon="6.3371970">
        <ele>1127.2</ele>
        <time>2021-08-19T11:01:18Z</time>
      </trkpt>
      <trkpt lat="45.3884090" lon="6.3371470">
        <ele>1126.4</ele>
        <time>2021-08-19T11:01:19Z</time>
      </trkpt>
      <trkpt lat="45.3882530" lon="6.3370210">
        <ele>1124.8</ele>
        <time>2021-08-19T11:01:21Z</time>
      </trkpt>
      <trkpt lat="45.3881610" lon="6.3369550">
        <ele>1122.6</ele>
        <time>2021-08-19T11:01:22Z</time>
      </trkpt>
      <trkpt lat="45.3880330" lon="6.3368580">
        <ele>1121.0</ele>
        <time>2021-08-19T11:01:24Z</time>
      </trkpt>
      <trkpt lat="45.3879530" lon="6.3367900">
        <ele>1120.6</ele>
        <time>2021-08-19T11:01:25Z</time>
      </trkpt>
      <trkpt lat="45.3878870" lon="6.3367320">
        <ele>1119.8</ele>
        <time>2021-08-19T11:01:26Z</time>
      </trkpt>
      <trkpt lat="45.3878260" lon="6.3366710">
        <ele>1119.4</ele>
        <time>2021-08-19T11:01:27Z</time>
      </trkpt>
      <trkpt lat="45.3877790" lon="6.3366110">
        <ele>1118.4</ele>
        <time>2021-08-19T11:01:28Z</time>
      </trkpt>
      <trkpt lat="45.3877260" lon="6.3365250">
        <ele>1118.0</ele>
        <time>2021-08-19T11:01:29Z</time>
      </trkpt>
      <trkpt lat="45.3876760" lon="6.3364100">
        <ele>1117.6</ele>
        <time>2021-08-19T11:01:30Z</time>
      </trkpt>
      <trkpt lat="45.3876410" lon="6.3362930">
        <ele>1117.0</ele>
        <time>2021-08-19T11:01:31Z</time>
      </trkpt>
      <trkpt lat="45.3876120" lon="6.3361630">
        <ele>1116.2</ele>
        <time>2021-08-19T11:01:32Z</time>
      </trkpt>
      <trkpt lat="45.3875910" lon="6.3360330">
        <ele>1115.4</ele>
        <time>2021-08-19T11:01:33Z</time>
      </trkpt>
      <trkpt lat="45.3875790" lon="6.3359080">
        <ele>1114.6</ele>
        <time>2021-08-19T11:01:34Z</time>
      </trkpt>
      <trkpt lat="45.3875760" lon="6.3357760">
        <ele>1113.0</ele>
        <time>2021-08-19T11:01:35Z</time>
      </trkpt>
      <trkpt lat="45.3875800" lon="6.3356620">
        <ele>1112.0</ele>
        <time>2021-08-19T11:01:36Z</time>
      </trkpt>
      <trkpt lat="45.3875870" lon="6.3355210">
        <ele>1110.4</ele>
        <time>2021-08-19T11:01:37Z</time>
      </trkpt>
      <trkpt lat="45.3875860" lon="6.3352430">
        <ele>1108.2</ele>
        <time>2021-08-19T11:01:39Z</time>
      </trkpt>
      <trkpt lat="45.3875760" lon="6.3351130">
        <ele>1107.2</ele>
        <time>2021-08-19T11:01:40Z</time>
      </trkpt>
      <trkpt lat="45.3875530" lon="6.3349800">
        <ele>1105.4</ele>
        <time>2021-08-19T11:01:41Z</time>
      </trkpt>
      <trkpt lat="45.3875200" lon="6.3348550">
        <ele>1104.8</ele>
        <time>2021-08-19T11:01:42Z</time>
      </trkpt>
      <trkpt lat="45.3874780" lon="6.3347400">
        <ele>1103.8</ele>
        <time>2021-08-19T11:01:43Z</time>
      </trkpt>
      <trkpt lat="45.3874310" lon="6.3346340">
        <ele>1103.2</ele>
        <time>2021-08-19T11:01:44Z</time>
      </trkpt>
      <trkpt lat="45.3873790" lon="6.3345150">
        <ele>1102.0</ele>
        <time>2021-08-19T11:01:45Z</time>
      </trkpt>
      <trkpt lat="45.3873530" lon="6.3343100">
        <ele>1100.4</ele>
        <time>2021-08-19T11:01:47Z</time>
      </trkpt>
      <trkpt lat="45.3874120" lon="6.3341110">
        <ele>1098.8</ele>
        <time>2021-08-19T11:01:49Z</time>
      </trkpt>
      <trkpt lat="45.3874630" lon="6.3339970">
        <ele>1098.2</ele>
        <time>2021-08-19T11:01:50Z</time>
      </trkpt>
      <trkpt lat="45.3875560" lon="6.3337290">
        <ele>1096.8</ele>
        <time>2021-08-19T11:01:52Z</time>
      </trkpt>
      <trkpt lat="45.3876310" lon="6.3334200">
        <ele>1095.4</ele>
        <time>2021-08-19T11:01:54Z</time>
      </trkpt>
      <trkpt lat="45.3876920" lon="6.3331510">
        <ele>1093.6</ele>
        <time>2021-08-19T11:01:56Z</time>
      </trkpt>
      <trkpt lat="45.3877740" lon="6.3329350">
        <ele>1091.6</ele>
        <time>2021-08-19T11:01:58Z</time>
      </trkpt>
      <trkpt lat="45.3878570" lon="6.3327550">
        <ele>1089.2</ele>
        <time>2021-08-19T11:02:00Z</time>
      </trkpt>
      <trkpt lat="45.3878850" lon="6.3326660">
        <ele>1088.8</ele>
        <time>2021-08-19T11:02:01Z</time>
      </trkpt>
      <trkpt lat="45.3878920" lon="6.3325700">
        <ele>1088.0</ele>
        <time>2021-08-19T11:02:02Z</time>
      </trkpt>
      <trkpt lat="45.3878790" lon="6.3324760">
        <ele>1087.4</ele>
        <time>2021-08-19T11:02:03Z</time>
      </trkpt>
      <trkpt lat="45.3877980" lon="6.3322790">
        <ele>1086.4</ele>
        <time>2021-08-19T11:02:05Z</time>
      </trkpt>
      <trkpt lat="45.3876730" lon="6.3321030">
        <ele>1084.2</ele>
        <time>2021-08-19T11:02:07Z</time>
      </trkpt>
      <trkpt lat="45.3875410" lon="6.3319310">
        <ele>1082.2</ele>
        <time>2021-08-19T11:02:09Z</time>
      </trkpt>
      <trkpt lat="45.3874300" lon="6.3317460">
        <ele>1080.8</ele>
        <time>2021-08-19T11:02:11Z</time>
      </trkpt>
      <trkpt lat="45.3873650" lon="6.3316700">
        <ele>1080.0</ele>
        <time>2021-08-19T11:02:12Z</time>
      </trkpt>
      <trkpt lat="45.3872900" lon="6.3316070">
        <ele>1079.0</ele>
        <time>2021-08-19T11:02:13Z</time>
      </trkpt>
      <trkpt lat="45.3871170" lon="6.3315100">
        <ele>1076.8</ele>
        <time>2021-08-19T11:02:15Z</time>
      </trkpt>
      <trkpt lat="45.3869350" lon="6.3313930">
        <ele>1074.8</ele>
        <time>2021-08-19T11:02:17Z</time>
      </trkpt>
      <trkpt lat="45.3868490" lon="6.3313190">
        <ele>1073.4</ele>
        <time>2021-08-19T11:02:18Z</time>
      </trkpt>
      <trkpt lat="45.3867660" lon="6.3312420">
        <ele>1073.0</ele>
        <time>2021-08-19T11:02:19Z</time>
      </trkpt>
      <trkpt lat="45.3866880" lon="6.3311650">
        <ele>1072.4</ele>
        <time>2021-08-19T11:02:20Z</time>
      </trkpt>
      <trkpt lat="45.3865530" lon="6.3310400">
        <ele>1071.2</ele>
        <time>2021-08-19T11:02:22Z</time>
      </trkpt>
      <trkpt lat="45.3864760" lon="6.3309960">
        <ele>1070.4</ele>
        <time>2021-08-19T11:02:23Z</time>
      </trkpt>
      <trkpt lat="45.3863770" lon="6.3309580">
        <ele>1069.2</ele>
        <time>2021-08-19T11:02:24Z</time>
      </trkpt>
      <trkpt lat="45.3861980" lon="6.3308880">
        <ele>1067.6</ele>
        <time>2021-08-19T11:02:26Z</time>
      </trkpt>
      <trkpt lat="45.3860100" lon="6.3307730">
        <ele>1065.8</ele>
        <time>2021-08-19T11:02:28Z</time>
      </trkpt>
      <trkpt lat="45.3858480" lon="6.3306430">
        <ele>1063.4</ele>
        <time>2021-08-19T11:02:30Z</time>
      </trkpt>
      <trkpt lat="45.3856870" lon="6.3305280">
        <ele>1061.4</ele>
        <time>2021-08-19T11:02:32Z</time>
      </trkpt>
      <trkpt lat="45.3855970" lon="6.3304890">
        <ele>1059.8</ele>
        <time>2021-08-19T11:02:33Z</time>
      </trkpt>
      <trkpt lat="45.3855390" lon="6.3304810">
        <ele>1058.8</ele>
        <time>2021-08-19T11:02:34Z</time>
      </trkpt>
      <trkpt lat="45.3854710" lon="6.3304860">
        <ele>1057.4</ele>
        <time>2021-08-19T11:02:35Z</time>
      </trkpt>
      <trkpt lat="45.3854090" lon="6.3305120">
        <ele>1056.8</ele>
        <time>2021-08-19T11:02:36Z</time>
      </trkpt>
      <trkpt lat="45.3853530" lon="6.3305620">
        <ele>1055.8</ele>
        <time>2021-08-19T11:02:37Z</time>
      </trkpt>
      <trkpt lat="45.3853020" lon="6.3306260">
        <ele>1055.4</ele>
        <time>2021-08-19T11:02:38Z</time>
      </trkpt>
      <trkpt lat="45.3852500" lon="6.3307050">
        <ele>1054.6</ele>
        <time>2021-08-19T11:02:39Z</time>
      </trkpt>
      <trkpt lat="45.3851420" lon="6.3308980">
        <ele>1053.2</ele>
        <time>2021-08-19T11:02:41Z</time>
      </trkpt>
      <trkpt lat="45.3850290" lon="6.3311120">
        <ele>1051.2</ele>
        <time>2021-08-19T11:02:43Z</time>
      </trkpt>
      <trkpt lat="45.3849210" lon="6.3313210">
        <ele>1049.6</ele>
        <time>2021-08-19T11:02:45Z</time>
      </trkpt>
      <trkpt lat="45.3848700" lon="6.3314250">
        <ele>1048.2</ele>
        <time>2021-08-19T11:02:46Z</time>
      </trkpt>
      <trkpt lat="45.3847800" lon="6.3316360">
        <ele>1046.2</ele>
        <time>2021-08-19T11:02:48Z</time>
      </trkpt>
      <trkpt lat="45.3847120" lon="6.3317740">
        <ele>1043.8</ele>
        <time>2021-08-19T11:02:50Z</time>
      </trkpt>
      <trkpt lat="45.3846690" lon="6.3318210">
        <ele>1043.4</ele>
        <time>2021-08-19T11:02:51Z</time>
      </trkpt>
      <trkpt lat="45.3846290" lon="6.3318360">
        <ele>1042.6</ele>
        <time>2021-08-19T11:02:52Z</time>
      </trkpt>
      <trkpt lat="45.3845930" lon="6.3318120">
        <ele>1042.4</ele>
        <time>2021-08-19T11:02:53Z</time>
      </trkpt>
      <trkpt lat="45.3845960" lon="6.3316450">
        <ele>1041.4</ele>
        <time>2021-08-19T11:02:56Z</time>
      </trkpt>
      <trkpt lat="45.3846820" lon="6.3315200">
        <ele>1040.4</ele>
        <time>2021-08-19T11:02:58Z</time>
      </trkpt>
      <trkpt lat="45.3847210" lon="6.3314450">
        <ele>1040.0</ele>
        <time>2021-08-19T11:02:59Z</time>
      </trkpt>
      <trkpt lat="45.3847530" lon="6.3313680">
        <ele>1039.6</ele>
        <time>2021-08-19T11:03:00Z</time>
      </trkpt>
      <trkpt lat="45.3847770" lon="6.3312760">
        <ele>1039.2</ele>
        <time>2021-08-19T11:03:01Z</time>
      </trkpt>
      <trkpt lat="45.3847860" lon="6.3311700">
        <ele>1038.4</ele>
        <time>2021-08-19T11:03:02Z</time>
      </trkpt>
      <trkpt lat="45.3847800" lon="6.3310660">
        <ele>1037.8</ele>
        <time>2021-08-19T11:03:03Z</time>
      </trkpt>
      <trkpt lat="45.3847540" lon="6.3309480">
        <ele>1037.4</ele>
        <time>2021-08-19T11:03:04Z</time>
      </trkpt>
      <trkpt lat="45.3847280" lon="6.3308750">
        <ele>1036.8</ele>
        <time>2021-08-19T11:03:05Z</time>
      </trkpt>
      <trkpt lat="45.3846920" lon="6.3307930">
        <ele>1036.8</ele>
        <time>2021-08-19T11:03:06Z</time>
      </trkpt>
      <trkpt lat="45.3846660" lon="6.3307160">
        <ele>1036.2</ele>
        <time>2021-08-19T11:03:07Z</time>
      </trkpt>
      <trkpt lat="45.3846500" lon="6.3306330">
        <ele>1035.4</ele>
        <time>2021-08-19T11:03:08Z</time>
      </trkpt>
      <trkpt lat="45.3846500" lon="6.3305470">
        <ele>1034.6</ele>
        <time>2021-08-19T11:03:09Z</time>
      </trkpt>
      <trkpt lat="45.3846750" lon="6.3304620">
        <ele>1034.4</ele>
        <time>2021-08-19T11:03:10Z</time>
      </trkpt>
      <trkpt lat="45.3847270" lon="6.3303890">
        <ele>1034.0</ele>
        <time>2021-08-19T11:03:11Z</time>
      </trkpt>
      <trkpt lat="45.3848010" lon="6.3303120">
        <ele>1033.8</ele>
        <time>2021-08-19T11:03:12Z</time>
      </trkpt>
      <trkpt lat="45.3848560" lon="6.3302660">
        <ele>1033.2</ele>
        <time>2021-08-19T11:03:13Z</time>
      </trkpt>
      <trkpt lat="45.3849220" lon="6.3302090">
        <ele>1033.0</ele>
        <time>2021-08-19T11:03:14Z</time>
      </trkpt>
      <trkpt lat="45.3849850" lon="6.3301530">
        <ele>1032.2</ele>
        <time>2021-08-19T11:03:15Z</time>
      </trkpt>
      <trkpt lat="45.3850500" lon="6.3300940">
        <ele>1031.0</ele>
        <time>2021-08-19T11:03:16Z</time>
      </trkpt>
      <trkpt lat="45.3851810" lon="6.3299830">
        <ele>1029.4</ele>
        <time>2021-08-19T11:03:18Z</time>
      </trkpt>
      <trkpt lat="45.3853240" lon="6.3298720">
        <ele>1028.2</ele>
        <time>2021-08-19T11:03:20Z</time>
      </trkpt>
      <trkpt lat="45.3854580" lon="6.3297530">
        <ele>1026.6</ele>
        <time>2021-08-19T11:03:22Z</time>
      </trkpt>
      <trkpt lat="45.3855250" lon="6.3296120">
        <ele>1025.6</ele>
        <time>2021-08-19T11:03:24Z</time>
      </trkpt>
      <trkpt lat="45.3855030" lon="6.3294820">
        <ele>1025.0</ele>
        <time>2021-08-19T11:03:26Z</time>
      </trkpt>
      <trkpt lat="45.3854620" lon="6.3294350">
        <ele>1024.8</ele>
        <time>2021-08-19T11:03:27Z</time>
      </trkpt>
      <trkpt lat="45.3854100" lon="6.3294120">
        <ele>1024.4</ele>
        <time>2021-08-19T11:03:28Z</time>
      </trkpt>
      <trkpt lat="45.3853530" lon="6.3294140">
        <ele>1023.2</ele>
        <time>2021-08-19T11:03:29Z</time>
      </trkpt>
      <trkpt lat="45.3852950" lon="6.3294380">
        <ele>1022.6</ele>
        <time>2021-08-19T11:03:30Z</time>
      </trkpt>
      <trkpt lat="45.3852360" lon="6.3294750">
        <ele>1021.8</ele>
        <time>2021-08-19T11:03:31Z</time>
      </trkpt>
      <trkpt lat="45.3850260" lon="6.3296030">
        <ele>1021.2</ele>
        <time>2021-08-19T11:03:34Z</time>
      </trkpt>
      <trkpt lat="45.3849350" lon="6.3296600">
        <ele>1020.8</ele>
        <time>2021-08-19T11:03:35Z</time>
      </trkpt>
      <trkpt lat="45.3847860" lon="6.3297670">
        <ele>1019.6</ele>
        <time>2021-08-19T11:03:37Z</time>
      </trkpt>
      <trkpt lat="45.3846500" lon="6.3299080">
        <ele>1018.8</ele>
        <time>2021-08-19T11:03:39Z</time>
      </trkpt>
      <trkpt lat="45.3845960" lon="6.3299730">
        <ele>1018.4</ele>
        <time>2021-08-19T11:03:40Z</time>
      </trkpt>
      <trkpt lat="45.3845150" lon="6.3300690">
        <ele>1016.6</ele>
        <time>2021-08-19T11:03:41Z</time>
      </trkpt>
      <trkpt lat="45.3843950" lon="6.3302180">
        <ele>1014.8</ele>
        <time>2021-08-19T11:03:43Z</time>
      </trkpt>
      <trkpt lat="45.3843430" lon="6.3302920">
        <ele>1013.8</ele>
        <time>2021-08-19T11:03:44Z</time>
      </trkpt>
      <trkpt lat="45.3842970" lon="6.3303760">
        <ele>1013.4</ele>
        <time>2021-08-19T11:03:45Z</time>
      </trkpt>
      <trkpt lat="45.3842680" lon="6.3304550">
        <ele>1012.4</ele>
        <time>2021-08-19T11:03:46Z</time>
      </trkpt>
      <trkpt lat="45.3842290" lon="6.3305750">
        <ele>1012.0</ele>
        <time>2021-08-19T11:03:47Z</time>
      </trkpt>
      <trkpt lat="45.3842010" lon="6.3306740">
        <ele>1011.0</ele>
        <time>2021-08-19T11:03:48Z</time>
      </trkpt>
      <trkpt lat="45.3841440" lon="6.3308490">
        <ele>1009.6</ele>
        <time>2021-08-19T11:03:50Z</time>
      </trkpt>
      <trkpt lat="45.3840690" lon="6.3309730">
        <ele>1008.2</ele>
        <time>2021-08-19T11:03:52Z</time>
      </trkpt>
      <trkpt lat="45.3839650" lon="6.3310090">
        <ele>1007.0</ele>
        <time>2021-08-19T11:03:54Z</time>
      </trkpt>
      <trkpt lat="45.3839150" lon="6.3309900">
        <ele>1007.0</ele>
        <time>2021-08-19T11:03:55Z</time>
      </trkpt>
      <trkpt lat="45.3838830" lon="6.3309470">
        <ele>1006.4</ele>
        <time>2021-08-19T11:03:56Z</time>
      </trkpt>
      <trkpt lat="45.3838730" lon="6.3308840">
        <ele>1006.2</ele>
        <time>2021-08-19T11:03:57Z</time>
      </trkpt>
      <trkpt lat="45.3838900" lon="6.3308230">
        <ele>1006.0</ele>
        <time>2021-08-19T11:03:58Z</time>
      </trkpt>
      <trkpt lat="45.3839650" lon="6.3307280">
        <ele>1005.2</ele>
        <time>2021-08-19T11:04:00Z</time>
      </trkpt>
      <trkpt lat="45.3840030" lon="6.3306770">
        <ele>1004.4</ele>
        <time>2021-08-19T11:04:01Z</time>
      </trkpt>
      <trkpt lat="45.3840360" lon="6.3306160">
        <ele>1004.0</ele>
        <time>2021-08-19T11:04:02Z</time>
      </trkpt>
      <trkpt lat="45.3840640" lon="6.3305460">
        <ele>1003.0</ele>
        <time>2021-08-19T11:04:03Z</time>
      </trkpt>
      <trkpt lat="45.3841520" lon="6.3301710">
        <ele>1001.6</ele>
        <time>2021-08-19T11:04:07Z</time>
      </trkpt>
      <trkpt lat="45.3842320" lon="6.3298460">
        <ele>1000.4</ele>
        <time>2021-08-19T11:04:10Z</time>
      </trkpt>
      <trkpt lat="45.3842720" lon="6.3296960">
        <ele>999.8</ele>
        <time>2021-08-19T11:04:11Z</time>
      </trkpt>
      <trkpt lat="45.3843100" lon="6.3295670">
        <ele>999.0</ele>
        <time>2021-08-19T11:04:12Z</time>
      </trkpt>
      <trkpt lat="45.3843780" lon="6.3293040">
        <ele>997.6</ele>
        <time>2021-08-19T11:04:14Z</time>
      </trkpt>
      <trkpt lat="45.3844210" lon="6.3290560">
        <ele>995.6</ele>
        <time>2021-08-19T11:04:16Z</time>
      </trkpt>
      <trkpt lat="45.3844520" lon="6.3287140">
        <ele>994.6</ele>
        <time>2021-08-19T11:04:19Z</time>
      </trkpt>
      <trkpt lat="45.3844760" lon="6.3283200">
        <ele>993.4</ele>
        <time>2021-08-19T11:04:22Z</time>
      </trkpt>
      <trkpt lat="45.3845330" lon="6.3278890">
        <ele>992.6</ele>
        <time>2021-08-19T11:04:26Z</time>
      </trkpt>
      <trkpt lat="45.3845450" lon="6.3277830">
        <ele>992.2</ele>
        <time>2021-08-19T11:04:27Z</time>
      </trkpt>
      <trkpt lat="45.3845190" lon="6.3276520">
        <ele>991.6</ele>
        <time>2021-08-19T11:04:29Z</time>
      </trkpt>
      <trkpt lat="45.3844750" lon="6.3275990">
        <ele>991.4</ele>
        <time>2021-08-19T11:04:30Z</time>
      </trkpt>
      <trkpt lat="45.3844260" lon="6.3275850">
        <ele>991.0</ele>
        <time>2021-08-19T11:04:31Z</time>
      </trkpt>
      <trkpt lat="45.3843560" lon="6.3276600">
        <ele>990.0</ele>
        <time>2021-08-19T11:04:33Z</time>
      </trkpt>
      <trkpt lat="45.3843320" lon="6.3277480">
        <ele>989.8</ele>
        <time>2021-08-19T11:04:34Z</time>
      </trkpt>
      <trkpt lat="45.3843220" lon="6.3279340">
        <ele>989.4</ele>
        <time>2021-08-19T11:04:36Z</time>
      </trkpt>
      <trkpt lat="45.3843130" lon="6.3280380">
        <ele>989.2</ele>
        <time>2021-08-19T11:04:37Z</time>
      </trkpt>
      <trkpt lat="45.3842660" lon="6.3282580">
        <ele>988.8</ele>
        <time>2021-08-19T11:04:39Z</time>
      </trkpt>
      <trkpt lat="45.3842300" lon="6.3283720">
        <ele>988.6</ele>
        <time>2021-08-19T11:04:40Z</time>
      </trkpt>
      <trkpt lat="45.3841840" lon="6.3284860">
        <ele>988.0</ele>
        <time>2021-08-19T11:04:41Z</time>
      </trkpt>
      <trkpt lat="45.3840870" lon="6.3286780">
        <ele>986.8</ele>
        <time>2021-08-19T11:04:43Z</time>
      </trkpt>
      <trkpt lat="45.3840240" lon="6.3288000">
        <ele>985.6</ele>
        <time>2021-08-19T11:04:44Z</time>
      </trkpt>
      <trkpt lat="45.3839210" lon="6.3289840">
        <ele>984.4</ele>
        <time>2021-08-19T11:04:46Z</time>
      </trkpt>
      <trkpt lat="45.3838610" lon="6.3290660">
        <ele>983.8</ele>
        <time>2021-08-19T11:04:47Z</time>
      </trkpt>
      <trkpt lat="45.3837890" lon="6.3291250">
        <ele>982.4</ele>
        <time>2021-08-19T11:04:48Z</time>
      </trkpt>
      <trkpt lat="45.3837050" lon="6.3291610">
        <ele>981.6</ele>
        <time>2021-08-19T11:04:49Z</time>
      </trkpt>
      <trkpt lat="45.3836150" lon="6.3291700">
        <ele>980.4</ele>
        <time>2021-08-19T11:04:50Z</time>
      </trkpt>
      <trkpt lat="45.3835210" lon="6.3291620">
        <ele>980.2</ele>
        <time>2021-08-19T11:04:51Z</time>
      </trkpt>
      <trkpt lat="45.3834240" lon="6.3291510">
        <ele>978.8</ele>
        <time>2021-08-19T11:04:52Z</time>
      </trkpt>
      <trkpt lat="45.3832340" lon="6.3291320">
        <ele>976.6</ele>
        <time>2021-08-19T11:04:54Z</time>
      </trkpt>
      <trkpt lat="45.3831380" lon="6.3291300">
        <ele>975.4</ele>
        <time>2021-08-19T11:04:55Z</time>
      </trkpt>
      <trkpt lat="45.3829360" lon="6.3291660">
        <ele>973.0</ele>
        <time>2021-08-19T11:04:57Z</time>
      </trkpt>
      <trkpt lat="45.3827290" lon="6.3292460">
        <ele>971.4</ele>
        <time>2021-08-19T11:04:59Z</time>
      </trkpt>
      <trkpt lat="45.3825450" lon="6.3293370">
        <ele>970.0</ele>
        <time>2021-08-19T11:05:01Z</time>
      </trkpt>
      <trkpt lat="45.3824480" lon="6.3293840">
        <ele>969.0</ele>
        <time>2021-08-19T11:05:02Z</time>
      </trkpt>
      <trkpt lat="45.3823580" lon="6.3294260">
        <ele>967.8</ele>
        <time>2021-08-19T11:05:03Z</time>
      </trkpt>
      <trkpt lat="45.3822740" lon="6.3294640">
        <ele>966.8</ele>
        <time>2021-08-19T11:05:04Z</time>
      </trkpt>
      <trkpt lat="45.3821930" lon="6.3294990">
        <ele>965.4</ele>
        <time>2021-08-19T11:05:05Z</time>
      </trkpt>
      <trkpt lat="45.3821130" lon="6.3295370">
        <ele>965.0</ele>
        <time>2021-08-19T11:05:06Z</time>
      </trkpt>
      <trkpt lat="45.3820180" lon="6.3295750">
        <ele>964.2</ele>
        <time>2021-08-19T11:05:07Z</time>
      </trkpt>
      <trkpt lat="45.3819560" lon="6.3295900">
        <ele>963.8</ele>
        <time>2021-08-19T11:05:08Z</time>
      </trkpt>
      <trkpt lat="45.3818660" lon="6.3295910">
        <ele>962.8</ele>
        <time>2021-08-19T11:05:09Z</time>
      </trkpt>
      <trkpt lat="45.3817990" lon="6.3295610">
        <ele>962.2</ele>
        <time>2021-08-19T11:05:10Z</time>
      </trkpt>
      <trkpt lat="45.3816850" lon="6.3294410">
        <ele>961.0</ele>
        <time>2021-08-19T11:05:12Z</time>
      </trkpt>
      <trkpt lat="45.3816430" lon="6.3293780">
        <ele>960.4</ele>
        <time>2021-08-19T11:05:13Z</time>
      </trkpt>
      <trkpt lat="45.3815870" lon="6.3292920">
        <ele>959.0</ele>
        <time>2021-08-19T11:05:14Z</time>
      </trkpt>
      <trkpt lat="45.3814670" lon="6.3291110">
        <ele>957.8</ele>
        <time>2021-08-19T11:05:16Z</time>
      </trkpt>
      <trkpt lat="45.3813350" lon="6.3289360">
        <ele>956.8</ele>
        <time>2021-08-19T11:05:18Z</time>
      </trkpt>
      <trkpt lat="45.3812610" lon="6.3288510">
        <ele>956.4</ele>
        <time>2021-08-19T11:05:19Z</time>
      </trkpt>
      <trkpt lat="45.3810990" lon="6.3286910">
        <ele>955.0</ele>
        <time>2021-08-19T11:05:21Z</time>
      </trkpt>
      <trkpt lat="45.3809020" lon="6.3285130">
        <ele>953.6</ele>
        <time>2021-08-19T11:05:23Z</time>
      </trkpt>
      <trkpt lat="45.3807090" lon="6.3283490">
        <ele>951.4</ele>
        <time>2021-08-19T11:05:25Z</time>
      </trkpt>
      <trkpt lat="45.3805230" lon="6.3281740">
        <ele>949.2</ele>
        <time>2021-08-19T11:05:27Z</time>
      </trkpt>
      <trkpt lat="45.3804370" lon="6.3280880">
        <ele>947.8</ele>
        <time>2021-08-19T11:05:28Z</time>
      </trkpt>
      <trkpt lat="45.3803520" lon="6.3280080">
        <ele>946.4</ele>
        <time>2021-08-19T11:05:29Z</time>
      </trkpt>
      <trkpt lat="45.3802650" lon="6.3279330">
        <ele>945.6</ele>
        <time>2021-08-19T11:05:30Z</time>
      </trkpt>
      <trkpt lat="45.3801770" lon="6.3278660">
        <ele>944.6</ele>
        <time>2021-08-19T11:05:31Z</time>
      </trkpt>
      <trkpt lat="45.3800830" lon="6.3278040">
        <ele>943.2</ele>
        <time>2021-08-19T11:05:32Z</time>
      </trkpt>
      <trkpt lat="45.3799880" lon="6.3277440">
        <ele>941.8</ele>
        <time>2021-08-19T11:05:33Z</time>
      </trkpt>
      <trkpt lat="45.3799000" lon="6.3276710">
        <ele>941.4</ele>
        <time>2021-08-19T11:05:34Z</time>
      </trkpt>
      <trkpt lat="45.3798180" lon="6.3275850">
        <ele>940.6</ele>
        <time>2021-08-19T11:05:35Z</time>
      </trkpt>
      <trkpt lat="45.3797440" lon="6.3274860">
        <ele>940.4</ele>
        <time>2021-08-19T11:05:36Z</time>
      </trkpt>
      <trkpt lat="45.3796080" lon="6.3272790">
        <ele>939.0</ele>
        <time>2021-08-19T11:05:38Z</time>
      </trkpt>
      <trkpt lat="45.3793830" lon="6.3269140">
        <ele>937.0</ele>
        <time>2021-08-19T11:05:42Z</time>
      </trkpt>
      <trkpt lat="45.3793000" lon="6.3266630">
        <ele>935.6</ele>
        <time>2021-08-19T11:05:44Z</time>
      </trkpt>
      <trkpt lat="45.3792770" lon="6.3265400">
        <ele>935.0</ele>
        <time>2021-08-19T11:05:45Z</time>
      </trkpt>
      <trkpt lat="45.3792600" lon="6.3264180">
        <ele>934.2</ele>
        <time>2021-08-19T11:05:46Z</time>
      </trkpt>
      <trkpt lat="45.3792340" lon="6.3261760">
        <ele>932.6</ele>
        <time>2021-08-19T11:05:48Z</time>
      </trkpt>
      <trkpt lat="45.3792120" lon="6.3259210">
        <ele>931.0</ele>
        <time>2021-08-19T11:05:50Z</time>
      </trkpt>
      <trkpt lat="45.3792250" lon="6.3256690">
        <ele>929.4</ele>
        <time>2021-08-19T11:05:52Z</time>
      </trkpt>
      <trkpt lat="45.3792350" lon="6.3255570">
        <ele>928.6</ele>
        <time>2021-08-19T11:05:53Z</time>
      </trkpt>
      <trkpt lat="45.3792380" lon="6.3254450">
        <ele>928.4</ele>
        <time>2021-08-19T11:05:54Z</time>
      </trkpt>
      <trkpt lat="45.3792330" lon="6.3253300">
        <ele>928.0</ele>
        <time>2021-08-19T11:05:55Z</time>
      </trkpt>
      <trkpt lat="45.3791800" lon="6.3251110">
        <ele>927.0</ele>
        <time>2021-08-19T11:05:57Z</time>
      </trkpt>
      <trkpt lat="45.3790790" lon="6.3249280">
        <ele>925.8</ele>
        <time>2021-08-19T11:05:59Z</time>
      </trkpt>
      <trkpt lat="45.3790250" lon="6.3248790">
        <ele>925.6</ele>
        <time>2021-08-19T11:06:00Z</time>
      </trkpt>
      <trkpt lat="45.3789460" lon="6.3248420">
        <ele>924.8</ele>
        <time>2021-08-19T11:06:01Z</time>
      </trkpt>
      <trkpt lat="45.3787700" lon="6.3248270">
        <ele>923.6</ele>
        <time>2021-08-19T11:06:03Z</time>
      </trkpt>
      <trkpt lat="45.3785920" lon="6.3248450">
        <ele>921.8</ele>
        <time>2021-08-19T11:06:05Z</time>
      </trkpt>
      <trkpt lat="45.3784030" lon="6.3248520">
        <ele>920.2</ele>
        <time>2021-08-19T11:06:07Z</time>
      </trkpt>
      <trkpt lat="45.3782520" lon="6.3248180">
        <ele>919.0</ele>
        <time>2021-08-19T11:06:09Z</time>
      </trkpt>
      <trkpt lat="45.3779950" lon="6.3246110">
        <ele>917.0</ele>
        <time>2021-08-19T11:06:12Z</time>
      </trkpt>
      <trkpt lat="45.3778460" lon="6.3245190">
        <ele>916.0</ele>
        <time>2021-08-19T11:06:14Z</time>
      </trkpt>
      <trkpt lat="45.3776470" lon="6.3244480">
        <ele>914.2</ele>
        <time>2021-08-19T11:06:16Z</time>
      </trkpt>
      <trkpt lat="45.3774740" lon="6.3244190">
        <ele>912.2</ele>
        <time>2021-08-19T11:06:18Z</time>
      </trkpt>
      <trkpt lat="45.3772910" lon="6.3243660">
        <ele>910.6</ele>
        <time>2021-08-19T11:06:20Z</time>
      </trkpt>
      <trkpt lat="45.3772000" lon="6.3243330">
        <ele>908.8</ele>
        <time>2021-08-19T11:06:21Z</time>
      </trkpt>
      <trkpt lat="45.3770140" lon="6.3242580">
        <ele>906.8</ele>
        <time>2021-08-19T11:06:23Z</time>
      </trkpt>
      <trkpt lat="45.3768220" lon="6.3241930">
        <ele>904.8</ele>
        <time>2021-08-19T11:06:25Z</time>
      </trkpt>
      <trkpt lat="45.3767280" lon="6.3241540">
        <ele>904.4</ele>
        <time>2021-08-19T11:06:26Z</time>
      </trkpt>
      <trkpt lat="45.3766360" lon="6.3241050">
        <ele>903.2</ele>
        <time>2021-08-19T11:06:27Z</time>
      </trkpt>
      <trkpt lat="45.3765420" lon="6.3240540">
        <ele>902.6</ele>
        <time>2021-08-19T11:06:28Z</time>
      </trkpt>
      <trkpt lat="45.3764470" lon="6.3240070">
        <ele>901.0</ele>
        <time>2021-08-19T11:06:29Z</time>
      </trkpt>
      <trkpt lat="45.3762630" lon="6.3239540">
        <ele>899.4</ele>
        <time>2021-08-19T11:06:31Z</time>
      </trkpt>
      <trkpt lat="45.3761690" lon="6.3239430">
        <ele>899.0</ele>
        <time>2021-08-19T11:06:32Z</time>
      </trkpt>
      <trkpt lat="45.3760690" lon="6.3239210">
        <ele>898.6</ele>
        <time>2021-08-19T11:06:33Z</time>
      </trkpt>
      <trkpt lat="45.3759660" lon="6.3238770">
        <ele>897.6</ele>
        <time>2021-08-19T11:06:34Z</time>
      </trkpt>
      <trkpt lat="45.3758670" lon="6.3238250">
        <ele>897.0</ele>
        <time>2021-08-19T11:06:35Z</time>
      </trkpt>
      <trkpt lat="45.3757640" lon="6.3237610">
        <ele>895.2</ele>
        <time>2021-08-19T11:06:36Z</time>
      </trkpt>
      <trkpt lat="45.3755340" lon="6.3236130">
        <ele>892.2</ele>
        <time>2021-08-19T11:06:38Z</time>
      </trkpt>
      <trkpt lat="45.3753600" lon="6.3235010">
        <ele>890.6</ele>
        <time>2021-08-19T11:06:40Z</time>
      </trkpt>
      <trkpt lat="45.3752640" lon="6.3234420">
        <ele>889.8</ele>
        <time>2021-08-19T11:06:41Z</time>
      </trkpt>
      <trkpt lat="45.3751710" lon="6.3233870">
        <ele>888.0</ele>
        <time>2021-08-19T11:06:42Z</time>
      </trkpt>
      <trkpt lat="45.3749970" lon="6.3232960">
        <ele>886.0</ele>
        <time>2021-08-19T11:06:44Z</time>
      </trkpt>
      <trkpt lat="45.3749130" lon="6.3232670">
        <ele>885.8</ele>
        <time>2021-08-19T11:06:45Z</time>
      </trkpt>
      <trkpt lat="45.3747420" lon="6.3232620">
        <ele>884.6</ele>
        <time>2021-08-19T11:06:47Z</time>
      </trkpt>
      <trkpt lat="45.3746550" lon="6.3232880">
        <ele>884.4</ele>
        <time>2021-08-19T11:06:48Z</time>
      </trkpt>
      <trkpt lat="45.3745690" lon="6.3233230">
        <ele>883.0</ele>
        <time>2021-08-19T11:06:49Z</time>
      </trkpt>
      <trkpt lat="45.3743730" lon="6.3234220">
        <ele>881.0</ele>
        <time>2021-08-19T11:06:51Z</time>
      </trkpt>
      <trkpt lat="45.3742010" lon="6.3235400">
        <ele>879.4</ele>
        <time>2021-08-19T11:06:53Z</time>
      </trkpt>
      <trkpt lat="45.3740270" lon="6.3236810">
        <ele>877.6</ele>
        <time>2021-08-19T11:06:55Z</time>
      </trkpt>
      <trkpt lat="45.3738600" lon="6.3238380">
        <ele>876.4</ele>
        <time>2021-08-19T11:06:57Z</time>
      </trkpt>
      <trkpt lat="45.3737040" lon="6.3239870">
        <ele>874.4</ele>
        <time>2021-08-19T11:06:59Z</time>
      </trkpt>
      <trkpt lat="45.3736300" lon="6.3240540">
        <ele>873.2</ele>
        <time>2021-08-19T11:07:00Z</time>
      </trkpt>
      <trkpt lat="45.3735000" lon="6.3241750">
        <ele>871.2</ele>
        <time>2021-08-19T11:07:02Z</time>
      </trkpt>
      <trkpt lat="45.3734390" lon="6.3242240">
        <ele>870.6</ele>
        <time>2021-08-19T11:07:03Z</time>
      </trkpt>
      <trkpt lat="45.3733740" lon="6.3242580">
        <ele>868.8</ele>
        <time>2021-08-19T11:07:04Z</time>
      </trkpt>
      <trkpt lat="45.3732410" lon="6.3242330">
        <ele>867.0</ele>
        <time>2021-08-19T11:07:06Z</time>
      </trkpt>
      <trkpt lat="45.3731130" lon="6.3241340">
        <ele>865.4</ele>
        <time>2021-08-19T11:07:08Z</time>
      </trkpt>
      <trkpt lat="45.3729400" lon="6.3239970">
        <ele>864.6</ele>
        <time>2021-08-19T11:07:10Z</time>
      </trkpt>
      <trkpt lat="45.3728530" lon="6.3239390">
        <ele>864.4</ele>
        <time>2021-08-19T11:07:11Z</time>
      </trkpt>
      <trkpt lat="45.3727640" lon="6.3238970">
        <ele>863.6</ele>
        <time>2021-08-19T11:07:12Z</time>
      </trkpt>
      <trkpt lat="45.3726760" lon="6.3238740">
        <ele>862.6</ele>
        <time>2021-08-19T11:07:13Z</time>
      </trkpt>
      <trkpt lat="45.3725040" lon="6.3238480">
        <ele>860.4</ele>
        <time>2021-08-19T11:07:15Z</time>
      </trkpt>
      <trkpt lat="45.3724210" lon="6.3238480">
        <ele>859.8</ele>
        <time>2021-08-19T11:07:16Z</time>
      </trkpt>
      <trkpt lat="45.3723390" lon="6.3238590">
        <ele>859.0</ele>
        <time>2021-08-19T11:07:17Z</time>
      </trkpt>
      <trkpt lat="45.3722720" lon="6.3238740">
        <ele>858.8</ele>
        <time>2021-08-19T11:07:18Z</time>
      </trkpt>
      <trkpt lat="45.3721790" lon="6.3239000">
        <ele>858.0</ele>
        <time>2021-08-19T11:07:19Z</time>
      </trkpt>
      <trkpt lat="45.3721090" lon="6.3239130">
        <ele>857.6</ele>
        <time>2021-08-19T11:07:20Z</time>
      </trkpt>
      <trkpt lat="45.3720480" lon="6.3239060">
        <ele>856.6</ele>
        <time>2021-08-19T11:07:21Z</time>
      </trkpt>
      <trkpt lat="45.3720010" lon="6.3238810">
        <ele>856.4</ele>
        <time>2021-08-19T11:07:22Z</time>
      </trkpt>
      <trkpt lat="45.3719700" lon="6.3238430">
        <ele>855.2</ele>
        <time>2021-08-19T11:07:23Z</time>
      </trkpt>
      <trkpt lat="45.3719590" lon="6.3238050">
        <ele>854.8</ele>
        <time>2021-08-19T11:07:24Z</time>
      </trkpt>
      <trkpt lat="45.3719720" lon="6.3237630">
        <ele>854.2</ele>
        <time>2021-08-19T11:07:25Z</time>
      </trkpt>
      <trkpt lat="45.3720540" lon="6.3237030">
        <ele>853.6</ele>
        <time>2021-08-19T11:07:27Z</time>
      </trkpt>
      <trkpt lat="45.3721360" lon="6.3236910">
        <ele>853.2</ele>
        <time>2021-08-19T11:07:28Z</time>
      </trkpt>
      <trkpt lat="45.3723650" lon="6.3236640">
        <ele>852.0</ele>
        <time>2021-08-19T11:07:31Z</time>
      </trkpt>
      <trkpt lat="45.3725390" lon="6.3236170">
        <ele>850.6</ele>
        <time>2021-08-19T11:07:33Z</time>
      </trkpt>
      <trkpt lat="45.3726250" lon="6.3236000">
        <ele>850.0</ele>
        <time>2021-08-19T11:07:34Z</time>
      </trkpt>
      <trkpt lat="45.3727900" lon="6.3235480">
        <ele>848.2</ele>
        <time>2021-08-19T11:07:36Z</time>
      </trkpt>
      <trkpt lat="45.3729590" lon="6.3234400">
        <ele>846.4</ele>
        <time>2021-08-19T11:07:38Z</time>
      </trkpt>
      <trkpt lat="45.3731080" lon="6.3232520">
        <ele>845.4</ele>
        <time>2021-08-19T11:07:40Z</time>
      </trkpt>
      <trkpt lat="45.3731760" lon="6.3231350">
        <ele>844.6</ele>
        <time>2021-08-19T11:07:41Z</time>
      </trkpt>
      <trkpt lat="45.3732400" lon="6.3230160">
        <ele>844.4</ele>
        <time>2021-08-19T11:07:42Z</time>
      </trkpt>
      <trkpt lat="45.3733060" lon="6.3229020">
        <ele>843.2</ele>
        <time>2021-08-19T11:07:43Z</time>
      </trkpt>
      <trkpt lat="45.3734180" lon="6.3226680">
        <ele>841.2</ele>
        <time>2021-08-19T11:07:45Z</time>
      </trkpt>
      <trkpt lat="45.3734630" lon="6.3225460">
        <ele>840.2</ele>
        <time>2021-08-19T11:07:46Z</time>
      </trkpt>
      <trkpt lat="45.3735050" lon="6.3224290">
        <ele>838.6</ele>
        <time>2021-08-19T11:07:47Z</time>
      </trkpt>
      <trkpt lat="45.3735800" lon="6.3222190">
        <ele>837.2</ele>
        <time>2021-08-19T11:07:49Z</time>
      </trkpt>
      <trkpt lat="45.3736430" lon="6.3220200">
        <ele>835.6</ele>
        <time>2021-08-19T11:07:51Z</time>
      </trkpt>
      <trkpt lat="45.3736750" lon="6.3219140">
        <ele>834.6</ele>
        <time>2021-08-19T11:07:52Z</time>
      </trkpt>
      <trkpt lat="45.3737090" lon="6.3218080">
        <ele>834.0</ele>
        <time>2021-08-19T11:07:53Z</time>
      </trkpt>
      <trkpt lat="45.3737500" lon="6.3217090">
        <ele>833.2</ele>
        <time>2021-08-19T11:07:54Z</time>
      </trkpt>
      <trkpt lat="45.3738010" lon="6.3216170">
        <ele>832.6</ele>
        <time>2021-08-19T11:07:55Z</time>
      </trkpt>
      <trkpt lat="45.3738670" lon="6.3215370">
        <ele>831.2</ele>
        <time>2021-08-19T11:07:56Z</time>
      </trkpt>
      <trkpt lat="45.3739420" lon="6.3214710">
        <ele>830.6</ele>
        <time>2021-08-19T11:07:57Z</time>
      </trkpt>
      <trkpt lat="45.3740170" lon="6.3214320">
        <ele>829.4</ele>
        <time>2021-08-19T11:07:58Z</time>
      </trkpt>
      <trkpt lat="45.3740880" lon="6.3214250">
        <ele>829.0</ele>
        <time>2021-08-19T11:07:59Z</time>
      </trkpt>
      <trkpt lat="45.3741560" lon="6.3214410">
        <ele>828.2</ele>
        <time>2021-08-19T11:08:00Z</time>
      </trkpt>
      <trkpt lat="45.3742180" lon="6.3214620">
        <ele>827.6</ele>
        <time>2021-08-19T11:08:01Z</time>
      </trkpt>
      <trkpt lat="45.3742770" lon="6.3214780">
        <ele>826.6</ele>
        <time>2021-08-19T11:08:02Z</time>
      </trkpt>
      <trkpt lat="45.3743330" lon="6.3214770">
        <ele>825.4</ele>
        <time>2021-08-19T11:08:03Z</time>
      </trkpt>
      <trkpt lat="45.3743780" lon="6.3214510">
        <ele>824.8</ele>
        <time>2021-08-19T11:08:04Z</time>
      </trkpt>
      <trkpt lat="45.3744070" lon="6.3214030">
        <ele>824.0</ele>
        <time>2021-08-19T11:08:05Z</time>
      </trkpt>
      <trkpt lat="45.3744110" lon="6.3213410">
        <ele>823.4</ele>
        <time>2021-08-19T11:08:06Z</time>
      </trkpt>
      <trkpt lat="45.3743860" lon="6.3212780">
        <ele>822.6</ele>
        <time>2021-08-19T11:08:07Z</time>
      </trkpt>
      <trkpt lat="45.3743390" lon="6.3212290">
        <ele>822.4</ele>
        <time>2021-08-19T11:08:08Z</time>
      </trkpt>
      <trkpt lat="45.3742140" lon="6.3211740">
        <ele>822.0</ele>
        <time>2021-08-19T11:08:10Z</time>
      </trkpt>
      <trkpt lat="45.3741410" lon="6.3211580">
        <ele>821.6</ele>
        <time>2021-08-19T11:08:11Z</time>
      </trkpt>
      <trkpt lat="45.3740640" lon="6.3211420">
        <ele>821.4</ele>
        <time>2021-08-19T11:08:12Z</time>
      </trkpt>
      <trkpt lat="45.3739830" lon="6.3211260">
        <ele>820.6</ele>
        <time>2021-08-19T11:08:13Z</time>
      </trkpt>
      <trkpt lat="45.3738180" lon="6.3210900">
        <ele>818.8</ele>
        <time>2021-08-19T11:08:15Z</time>
      </trkpt>
      <trkpt lat="45.3737340" lon="6.3210920">
        <ele>817.6</ele>
        <time>2021-08-19T11:08:16Z</time>
      </trkpt>
      <trkpt lat="45.3736460" lon="6.3211150">
        <ele>817.0</ele>
        <time>2021-08-19T11:08:17Z</time>
      </trkpt>
      <trkpt lat="45.3734690" lon="6.3212110">
        <ele>816.6</ele>
        <time>2021-08-19T11:08:19Z</time>
      </trkpt>
      <trkpt lat="45.3734000" lon="6.3212590">
        <ele>814.6</ele>
        <time>2021-08-19T11:08:20Z</time>
      </trkpt>
      <trkpt lat="45.3732030" lon="6.3213900">
        <ele>813.0</ele>
        <time>2021-08-19T11:08:22Z</time>
      </trkpt>
      <trkpt lat="45.3731140" lon="6.3214510">
        <ele>812.8</ele>
        <time>2021-08-19T11:08:23Z</time>
      </trkpt>
      <trkpt lat="45.3730430" lon="6.3215000">
        <ele>811.0</ele>
        <time>2021-08-19T11:08:24Z</time>
      </trkpt>
      <trkpt lat="45.3729360" lon="6.3215680">
        <ele>810.4</ele>
        <time>2021-08-19T11:08:25Z</time>
      </trkpt>
      <trkpt lat="45.3728490" lon="6.3216190">
        <ele>809.2</ele>
        <time>2021-08-19T11:08:26Z</time>
      </trkpt>
      <trkpt lat="45.3727660" lon="6.3216680">
        <ele>807.8</ele>
        <time>2021-08-19T11:08:27Z</time>
      </trkpt>
      <trkpt lat="45.3726050" lon="6.3217540">
        <ele>806.0</ele>
        <time>2021-08-19T11:08:29Z</time>
      </trkpt>
      <trkpt lat="45.3724530" lon="6.3218320">
        <ele>804.2</ele>
        <time>2021-08-19T11:08:31Z</time>
      </trkpt>
      <trkpt lat="45.3722170" lon="6.3219460">
        <ele>803.0</ele>
        <time>2021-08-19T11:08:34Z</time>
      </trkpt>
      <trkpt lat="45.3720490" lon="6.3219600">
        <ele>801.8</ele>
        <time>2021-08-19T11:08:36Z</time>
      </trkpt>
      <trkpt lat="45.3719650" lon="6.3219390">
        <ele>800.2</ele>
        <time>2021-08-19T11:08:37Z</time>
      </trkpt>
      <trkpt lat="45.3718830" lon="6.3219000">
        <ele>799.8</ele>
        <time>2021-08-19T11:08:38Z</time>
      </trkpt>
      <trkpt lat="45.3718230" lon="6.3218520">
        <ele>798.4</ele>
        <time>2021-08-19T11:08:39Z</time>
      </trkpt>
      <trkpt lat="45.3717310" lon="6.3217610">
        <ele>797.0</ele>
        <time>2021-08-19T11:08:40Z</time>
      </trkpt>
      <trkpt lat="45.3715810" lon="6.3215880">
        <ele>795.8</ele>
        <time>2021-08-19T11:08:42Z</time>
      </trkpt>
      <trkpt lat="45.3715260" lon="6.3215160">
        <ele>795.2</ele>
        <time>2021-08-19T11:08:43Z</time>
      </trkpt>
      <trkpt lat="45.3714450" lon="6.3214090">
        <ele>793.4</ele>
        <time>2021-08-19T11:08:44Z</time>
      </trkpt>
      <trkpt lat="45.3713150" lon="6.3212410">
        <ele>791.6</ele>
        <time>2021-08-19T11:08:46Z</time>
      </trkpt>
      <trkpt lat="45.3711960" lon="6.3211100">
        <ele>790.6</ele>
        <time>2021-08-19T11:08:48Z</time>
      </trkpt>
      <trkpt lat="45.3711090" lon="6.3210310">
        <ele>790.2</ele>
        <time>2021-08-19T11:08:49Z</time>
      </trkpt>
      <trkpt lat="45.3709520" lon="6.3209110">
        <ele>786.8</ele>
        <time>2021-08-19T11:08:51Z</time>
      </trkpt>
      <trkpt lat="45.3708950" lon="6.3208660">
        <ele>786.0</ele>
        <time>2021-08-19T11:08:52Z</time>
      </trkpt>
      <trkpt lat="45.3708160" lon="6.3207900">
        <ele>784.6</ele>
        <time>2021-08-19T11:08:53Z</time>
      </trkpt>
      <trkpt lat="45.3706950" lon="6.3206170">
        <ele>782.8</ele>
        <time>2021-08-19T11:08:55Z</time>
      </trkpt>
      <trkpt lat="45.3706370" lon="6.3205290">
        <ele>782.0</ele>
        <time>2021-08-19T11:08:56Z</time>
      </trkpt>
      <trkpt lat="45.3705780" lon="6.3204480">
        <ele>780.6</ele>
        <time>2021-08-19T11:08:57Z</time>
      </trkpt>
      <trkpt lat="45.3705170" lon="6.3203750">
        <ele>780.2</ele>
        <time>2021-08-19T11:08:58Z</time>
      </trkpt>
      <trkpt lat="45.3704480" lon="6.3203100">
        <ele>779.0</ele>
        <time>2021-08-19T11:08:59Z</time>
      </trkpt>
      <trkpt lat="45.3703750" lon="6.3202600">
        <ele>778.4</ele>
        <time>2021-08-19T11:09:00Z</time>
      </trkpt>
      <trkpt lat="45.3703000" lon="6.3202280">
        <ele>777.8</ele>
        <time>2021-08-19T11:09:01Z</time>
      </trkpt>
      <trkpt lat="45.3702220" lon="6.3202200">
        <ele>776.4</ele>
        <time>2021-08-19T11:09:02Z</time>
      </trkpt>
      <trkpt lat="45.3700590" lon="6.3202650">
        <ele>775.0</ele>
        <time>2021-08-19T11:09:04Z</time>
      </trkpt>
      <trkpt lat="45.3698810" lon="6.3203600">
        <ele>773.8</ele>
        <time>2021-08-19T11:09:06Z</time>
      </trkpt>
      <trkpt lat="45.3696940" lon="6.3204600">
        <ele>772.4</ele>
        <time>2021-08-19T11:09:08Z</time>
      </trkpt>
      <trkpt lat="45.3695980" lon="6.3204940">
        <ele>771.4</ele>
        <time>2021-08-19T11:09:09Z</time>
      </trkpt>
      <trkpt lat="45.3694950" lon="6.3205180">
        <ele>769.8</ele>
        <time>2021-08-19T11:09:10Z</time>
      </trkpt>
      <trkpt lat="45.3692740" lon="6.3205250">
        <ele>768.2</ele>
        <time>2021-08-19T11:09:12Z</time>
      </trkpt>
      <trkpt lat="45.3690360" lon="6.3204990">
        <ele>765.8</ele>
        <time>2021-08-19T11:09:14Z</time>
      </trkpt>
      <trkpt lat="45.3689130" lon="6.3204840">
        <ele>764.8</ele>
        <time>2021-08-19T11:09:15Z</time>
      </trkpt>
      <trkpt lat="45.3686660" lon="6.3204430">
        <ele>762.2</ele>
        <time>2021-08-19T11:09:17Z</time>
      </trkpt>
      <trkpt lat="45.3685440" lon="6.3204230">
        <ele>761.2</ele>
        <time>2021-08-19T11:09:18Z</time>
      </trkpt>
      <trkpt lat="45.3684240" lon="6.3204040">
        <ele>759.4</ele>
        <time>2021-08-19T11:09:19Z</time>
      </trkpt>
      <trkpt lat="45.3682170" lon="6.3203760">
        <ele>756.2</ele>
        <time>2021-08-19T11:09:21Z</time>
      </trkpt>
      <trkpt lat="45.3679820" lon="6.3203480">
        <ele>753.4</ele>
        <time>2021-08-19T11:09:23Z</time>
      </trkpt>
      <trkpt lat="45.3677830" lon="6.3203470">
        <ele>751.2</ele>
        <time>2021-08-19T11:09:25Z</time>
      </trkpt>
      <trkpt lat="45.3676870" lon="6.3203570">
        <ele>749.8</ele>
        <time>2021-08-19T11:09:26Z</time>
      </trkpt>
      <trkpt lat="45.3675020" lon="6.3203790">
        <ele>748.6</ele>
        <time>2021-08-19T11:09:28Z</time>
      </trkpt>
      <trkpt lat="45.3673310" lon="6.3204180">
        <ele>746.6</ele>
        <time>2021-08-19T11:09:30Z</time>
      </trkpt>
      <trkpt lat="45.3672560" lon="6.3204460">
        <ele>745.6</ele>
        <time>2021-08-19T11:09:31Z</time>
      </trkpt>
      <trkpt lat="45.3671910" lon="6.3204800">
        <ele>744.2</ele>
        <time>2021-08-19T11:09:32Z</time>
      </trkpt>
      <trkpt lat="45.3670780" lon="6.3205370">
        <ele>742.6</ele>
        <time>2021-08-19T11:09:34Z</time>
      </trkpt>
      <trkpt lat="45.3670380" lon="6.3205390">
        <ele>742.2</ele>
        <time>2021-08-19T11:09:35Z</time>
      </trkpt>
      <trkpt lat="45.3669900" lon="6.3205140">
        <ele>741.4</ele>
        <time>2021-08-19T11:09:36Z</time>
      </trkpt>
      <trkpt lat="45.3669680" lon="6.3204710">
        <ele>741.0</ele>
        <time>2021-08-19T11:09:37Z</time>
      </trkpt>
      <trkpt lat="45.3669710" lon="6.3204130">
        <ele>740.8</ele>
        <time>2021-08-19T11:09:38Z</time>
      </trkpt>
      <trkpt lat="45.3670020" lon="6.3203510">
        <ele>740.0</ele>
        <time>2021-08-19T11:09:39Z</time>
      </trkpt>
      <trkpt lat="45.3670420" lon="6.3203070">
        <ele>739.8</ele>
        <time>2021-08-19T11:09:40Z</time>
      </trkpt>
      <trkpt lat="45.3671130" lon="6.3202500">
        <ele>738.8</ele>
        <time>2021-08-19T11:09:41Z</time>
      </trkpt>
      <trkpt lat="45.3671830" lon="6.3202040">
        <ele>738.4</ele>
        <time>2021-08-19T11:09:42Z</time>
      </trkpt>
      <trkpt lat="45.3672560" lon="6.3201530">
        <ele>737.8</ele>
        <time>2021-08-19T11:09:43Z</time>
      </trkpt>
      <trkpt lat="45.3674030" lon="6.3200530">
        <ele>736.8</ele>
        <time>2021-08-19T11:09:45Z</time>
      </trkpt>
      <trkpt lat="45.3675060" lon="6.3199800">
        <ele>736.4</ele>
        <time>2021-08-19T11:09:46Z</time>
      </trkpt>
      <trkpt lat="45.3675930" lon="6.3199170">
        <ele>735.0</ele>
        <time>2021-08-19T11:09:47Z</time>
      </trkpt>
      <trkpt lat="45.3676790" lon="6.3198510">
        <ele>733.8</ele>
        <time>2021-08-19T11:09:48Z</time>
      </trkpt>
      <trkpt lat="45.3678490" lon="6.3197190">
        <ele>732.4</ele>
        <time>2021-08-19T11:09:50Z</time>
      </trkpt>
      <trkpt lat="45.3680990" lon="6.3195270">
        <ele>731.6</ele>
        <time>2021-08-19T11:09:53Z</time>
      </trkpt>
      <trkpt lat="45.3681780" lon="6.3194650">
        <ele>730.6</ele>
        <time>2021-08-19T11:09:54Z</time>
      </trkpt>
      <trkpt lat="45.3683470" lon="6.3193400">
        <ele>728.8</ele>
        <time>2021-08-19T11:09:56Z</time>
      </trkpt>
      <trkpt lat="45.3685060" lon="6.3192030">
        <ele>726.6</ele>
        <time>2021-08-19T11:09:58Z</time>
      </trkpt>
      <trkpt lat="45.3685700" lon="6.3191520">
        <ele>725.6</ele>
        <time>2021-08-19T11:09:59Z</time>
      </trkpt>
      <trkpt lat="45.3687400" lon="6.3190320">
        <ele>724.2</ele>
        <time>2021-08-19T11:10:01Z</time>
      </trkpt>
      <trkpt lat="45.3688930" lon="6.3189130">
        <ele>721.8</ele>
        <time>2021-08-19T11:10:03Z</time>
      </trkpt>
      <trkpt lat="45.3690400" lon="6.3188060">
        <ele>720.8</ele>
        <time>2021-08-19T11:10:05Z</time>
      </trkpt>
      <trkpt lat="45.3691100" lon="6.3187550">
        <ele>720.4</ele>
        <time>2021-08-19T11:10:06Z</time>
      </trkpt>
      <trkpt lat="45.3691760" lon="6.3187010">
        <ele>718.8</ele>
        <time>2021-08-19T11:10:07Z</time>
      </trkpt>
      <trkpt lat="45.3693140" lon="6.3185900">
        <ele>716.8</ele>
        <time>2021-08-19T11:10:09Z</time>
      </trkpt>
      <trkpt lat="45.3694520" lon="6.3184850">
        <ele>715.8</ele>
        <time>2021-08-19T11:10:11Z</time>
      </trkpt>
      <trkpt lat="45.3695840" lon="6.3184040">
        <ele>714.6</ele>
        <time>2021-08-19T11:10:13Z</time>
      </trkpt>
      <trkpt lat="45.3696480" lon="6.3183780">
        <ele>713.4</ele>
        <time>2021-08-19T11:10:14Z</time>
      </trkpt>
      <trkpt lat="45.3697560" lon="6.3183250">
        <ele>712.4</ele>
        <time>2021-08-19T11:10:16Z</time>
      </trkpt>
      <trkpt lat="45.3697880" lon="6.3182720">
        <ele>711.6</ele>
        <time>2021-08-19T11:10:17Z</time>
      </trkpt>
      <trkpt lat="45.3697970" lon="6.3182120">
        <ele>710.8</ele>
        <time>2021-08-19T11:10:18Z</time>
      </trkpt>
      <trkpt lat="45.3697840" lon="6.3181600">
        <ele>710.4</ele>
        <time>2021-08-19T11:10:19Z</time>
      </trkpt>
      <trkpt lat="45.3697430" lon="6.3181020">
        <ele>709.8</ele>
        <time>2021-08-19T11:10:20Z</time>
      </trkpt>
      <trkpt lat="45.3696890" lon="6.3180840">
        <ele>709.0</ele>
        <time>2021-08-19T11:10:21Z</time>
      </trkpt>
      <trkpt lat="45.3696270" lon="6.3180790">
        <ele>708.6</ele>
        <time>2021-08-19T11:10:22Z</time>
      </trkpt>
      <trkpt lat="45.3695600" lon="6.3180790">
        <ele>707.8</ele>
        <time>2021-08-19T11:10:23Z</time>
      </trkpt>
      <trkpt lat="45.3694180" lon="6.3180840">
        <ele>707.0</ele>
        <time>2021-08-19T11:10:25Z</time>
      </trkpt>
      <trkpt lat="45.3691690" lon="6.3180960">
        <ele>705.6</ele>
        <time>2021-08-19T11:10:28Z</time>
      </trkpt>
      <trkpt lat="45.3689850" lon="6.3181120">
        <ele>704.0</ele>
        <time>2021-08-19T11:10:30Z</time>
      </trkpt>
      <trkpt lat="45.3688890" lon="6.3181300">
        <ele>702.6</ele>
        <time>2021-08-19T11:10:31Z</time>
      </trkpt>
      <trkpt lat="45.3686930" lon="6.3181570">
        <ele>701.6</ele>
        <time>2021-08-19T11:10:33Z</time>
      </trkpt>
      <trkpt lat="45.3685060" lon="6.3181760">
        <ele>700.4</ele>
        <time>2021-08-19T11:10:35Z</time>
      </trkpt>
      <trkpt lat="45.3684190" lon="6.3181830">
        <ele>699.2</ele>
        <time>2021-08-19T11:10:36Z</time>
      </trkpt>
      <trkpt lat="45.3682700" lon="6.3181920">
        <ele>698.0</ele>
        <time>2021-08-19T11:10:38Z</time>
      </trkpt>
      <trkpt lat="45.3680940" lon="6.3181960">
        <ele>697.0</ele>
        <time>2021-08-19T11:10:40Z</time>
      </trkpt>
      <trkpt lat="45.3679400" lon="6.3182050">
        <ele>695.4</ele>
        <time>2021-08-19T11:10:42Z</time>
      </trkpt>
      <trkpt lat="45.3678050" lon="6.3182150">
        <ele>693.8</ele>
        <time>2021-08-19T11:10:44Z</time>
      </trkpt>
      <trkpt lat="45.3677510" lon="6.3182180">
        <ele>692.4</ele>
        <time>2021-08-19T11:10:45Z</time>
      </trkpt>
      <trkpt lat="45.3677020" lon="6.3182150">
        <ele>692.0</ele>
        <time>2021-08-19T11:10:46Z</time>
      </trkpt>
      <trkpt lat="45.3676330" lon="6.3181630">
        <ele>691.0</ele>
        <time>2021-08-19T11:10:48Z</time>
      </trkpt>
      <trkpt lat="45.3676200" lon="6.3181100">
        <ele>690.6</ele>
        <time>2021-08-19T11:10:49Z</time>
      </trkpt>
      <trkpt lat="45.3676650" lon="6.3179970">
        <ele>689.4</ele>
        <time>2021-08-19T11:10:51Z</time>
      </trkpt>
      <trkpt lat="45.3678390" lon="6.3179030">
        <ele>688.4</ele>
        <time>2021-08-19T11:10:54Z</time>
      </trkpt>
      <trkpt lat="45.3679040" lon="6.3178650">
        <ele>688.2</ele>
        <time>2021-08-19T11:10:55Z</time>
      </trkpt>
      <trkpt lat="45.3681090" lon="6.3177170">
        <ele>686.8</ele>
        <time>2021-08-19T11:10:58Z</time>
      </trkpt>
      <trkpt lat="45.3682630" lon="6.3176050">
        <ele>685.2</ele>
        <time>2021-08-19T11:11:00Z</time>
      </trkpt>
      <trkpt lat="45.3684250" lon="6.3174750">
        <ele>683.6</ele>
        <time>2021-08-19T11:11:02Z</time>
      </trkpt>
      <trkpt lat="45.3685890" lon="6.3173220">
        <ele>682.2</ele>
        <time>2021-08-19T11:11:04Z</time>
      </trkpt>
      <trkpt lat="45.3686680" lon="6.3172500">
        <ele>681.0</ele>
        <time>2021-08-19T11:11:05Z</time>
      </trkpt>
      <trkpt lat="45.3688190" lon="6.3171400">
        <ele>679.6</ele>
        <time>2021-08-19T11:11:07Z</time>
      </trkpt>
      <trkpt lat="45.3688960" lon="6.3171060">
        <ele>679.2</ele>
        <time>2021-08-19T11:11:08Z</time>
      </trkpt>
      <trkpt lat="45.3689700" lon="6.3170850">
        <ele>678.4</ele>
        <time>2021-08-19T11:11:09Z</time>
      </trkpt>
      <trkpt lat="45.3690940" lon="6.3170350">
        <ele>677.4</ele>
        <time>2021-08-19T11:11:11Z</time>
      </trkpt>
      <trkpt lat="45.3691350" lon="6.3169850">
        <ele>676.8</ele>
        <time>2021-08-19T11:11:12Z</time>
      </trkpt>
      <trkpt lat="45.3691550" lon="6.3169160">
        <ele>676.2</ele>
        <time>2021-08-19T11:11:13Z</time>
      </trkpt>
      <trkpt lat="45.3691500" lon="6.3168430">
        <ele>675.8</ele>
        <time>2021-08-19T11:11:14Z</time>
      </trkpt>
      <trkpt lat="45.3690660" lon="6.3167500">
        <ele>675.2</ele>
        <time>2021-08-19T11:11:16Z</time>
      </trkpt>
      <trkpt lat="45.3688350" lon="6.3167170">
        <ele>674.0</ele>
        <time>2021-08-19T11:11:19Z</time>
      </trkpt>
      <trkpt lat="45.3686720" lon="6.3166820">
        <ele>672.8</ele>
        <time>2021-08-19T11:11:21Z</time>
      </trkpt>
      <trkpt lat="45.3683600" lon="6.3165820">
        <ele>670.6</ele>
        <time>2021-08-19T11:11:24Z</time>
      </trkpt>
      <trkpt lat="45.3682580" lon="6.3165450">
        <ele>669.2</ele>
        <time>2021-08-19T11:11:25Z</time>
      </trkpt>
      <trkpt lat="45.3680650" lon="6.3164690">
        <ele>667.0</ele>
        <time>2021-08-19T11:11:27Z</time>
      </trkpt>
      <trkpt lat="45.3678880" lon="6.3164160">
        <ele>665.0</ele>
        <time>2021-08-19T11:11:29Z</time>
      </trkpt>
      <trkpt lat="45.3678030" lon="6.3163990">
        <ele>664.0</ele>
        <time>2021-08-19T11:11:30Z</time>
      </trkpt>
      <trkpt lat="45.3677180" lon="6.3163990">
        <ele>662.8</ele>
        <time>2021-08-19T11:11:31Z</time>
      </trkpt>
      <trkpt lat="45.3676340" lon="6.3164180">
        <ele>662.4</ele>
        <time>2021-08-19T11:11:32Z</time>
      </trkpt>
      <trkpt lat="45.3675550" lon="6.3164430">
        <ele>661.0</ele>
        <time>2021-08-19T11:11:33Z</time>
      </trkpt>
      <trkpt lat="45.3674210" lon="6.3164970">
        <ele>659.6</ele>
        <time>2021-08-19T11:11:35Z</time>
      </trkpt>
      <trkpt lat="45.3673650" lon="6.3164900">
        <ele>658.4</ele>
        <time>2021-08-19T11:11:36Z</time>
      </trkpt>
      <trkpt lat="45.3673270" lon="6.3164570">
        <ele>657.8</ele>
        <time>2021-08-19T11:11:37Z</time>
      </trkpt>
      <trkpt lat="45.3673050" lon="6.3164090">
        <ele>656.8</ele>
        <time>2021-08-19T11:11:38Z</time>
      </trkpt>
      <trkpt lat="45.3673550" lon="6.3162950">
        <ele>656.0</ele>
        <time>2021-08-19T11:11:40Z</time>
      </trkpt>
      <trkpt lat="45.3674030" lon="6.3162470">
        <ele>655.6</ele>
        <time>2021-08-19T11:11:41Z</time>
      </trkpt>
      <trkpt lat="45.3675820" lon="6.3161190">
        <ele>654.4</ele>
        <time>2021-08-19T11:11:44Z</time>
      </trkpt>
      <trkpt lat="45.3677190" lon="6.3160170">
        <ele>653.2</ele>
        <time>2021-08-19T11:11:46Z</time>
      </trkpt>
      <trkpt lat="45.3678610" lon="6.3159160">
        <ele>651.8</ele>
        <time>2021-08-19T11:11:48Z</time>
      </trkpt>
      <trkpt lat="45.3679240" lon="6.3158650">
        <ele>651.2</ele>
        <time>2021-08-19T11:11:49Z</time>
      </trkpt>
      <trkpt lat="45.3679720" lon="6.3158040">
        <ele>651.0</ele>
        <time>2021-08-19T11:11:50Z</time>
      </trkpt>
      <trkpt lat="45.3679990" lon="6.3157300">
        <ele>650.0</ele>
        <time>2021-08-19T11:11:51Z</time>
      </trkpt>
      <trkpt lat="45.3680020" lon="6.3156470">
        <ele>649.8</ele>
        <time>2021-08-19T11:11:52Z</time>
      </trkpt>
      <trkpt lat="45.3679810" lon="6.3155690">
        <ele>649.4</ele>
        <time>2021-08-19T11:11:53Z</time>
      </trkpt>
      <trkpt lat="45.3679370" lon="6.3155090">
        <ele>649.2</ele>
        <time>2021-08-19T11:11:54Z</time>
      </trkpt>
      <trkpt lat="45.3678760" lon="6.3154790">
        <ele>648.6</ele>
        <time>2021-08-19T11:11:55Z</time>
      </trkpt>
      <trkpt lat="45.3677370" lon="6.3154940">
        <ele>648.0</ele>
        <time>2021-08-19T11:11:57Z</time>
      </trkpt>
      <trkpt lat="45.3676620" lon="6.3155220">
        <ele>647.6</ele>
        <time>2021-08-19T11:11:58Z</time>
      </trkpt>
      <trkpt lat="45.3675190" lon="6.3155690">
        <ele>646.4</ele>
        <time>2021-08-19T11:12:00Z</time>
      </trkpt>
      <trkpt lat="45.3673280" lon="6.3156290">
        <ele>645.6</ele>
        <time>2021-08-19T11:12:02Z</time>
      </trkpt>
      <trkpt lat="45.3672350" lon="6.3156620">
        <ele>645.0</ele>
        <time>2021-08-19T11:12:03Z</time>
      </trkpt>
      <trkpt lat="45.3671460" lon="6.3156950">
        <ele>643.8</ele>
        <time>2021-08-19T11:12:04Z</time>
      </trkpt>
      <trkpt lat="45.3669750" lon="6.3157610">
        <ele>642.2</ele>
        <time>2021-08-19T11:12:06Z</time>
      </trkpt>
      <trkpt lat="45.3668170" lon="6.3158160">
        <ele>641.2</ele>
        <time>2021-08-19T11:12:08Z</time>
      </trkpt>
      <trkpt lat="45.3667260" lon="6.3158470">
        <ele>640.6</ele>
        <time>2021-08-19T11:12:09Z</time>
      </trkpt>
      <trkpt lat="45.3663240" lon="6.3159950">
        <ele>638.8</ele>
        <time>2021-08-19T11:12:13Z</time>
      </trkpt>
      <trkpt lat="45.3662310" lon="6.3160260">
        <ele>638.0</ele>
        <time>2021-08-19T11:12:14Z</time>
      </trkpt>
      <trkpt lat="45.3661480" lon="6.3160470">
        <ele>636.8</ele>
        <time>2021-08-19T11:12:15Z</time>
      </trkpt>
      <trkpt lat="45.3659980" lon="6.3160770">
        <ele>634.8</ele>
        <time>2021-08-19T11:12:17Z</time>
      </trkpt>
      <trkpt lat="45.3659440" lon="6.3160850">
        <ele>633.8</ele>
        <time>2021-08-19T11:12:18Z</time>
      </trkpt>
      <trkpt lat="45.3658650" lon="6.3160960">
        <ele>633.6</ele>
        <time>2021-08-19T11:12:19Z</time>
      </trkpt>
      <trkpt lat="45.3657990" lon="6.3161060">
        <ele>633.2</ele>
        <time>2021-08-19T11:12:20Z</time>
      </trkpt>
      <trkpt lat="45.3657270" lon="6.3161270">
        <ele>633.0</ele>
        <time>2021-08-19T11:12:21Z</time>
      </trkpt>
      <trkpt lat="45.3656530" lon="6.3161630">
        <ele>632.2</ele>
        <time>2021-08-19T11:12:22Z</time>
      </trkpt>
      <trkpt lat="45.3655790" lon="6.3162120">
        <ele>632.0</ele>
        <time>2021-08-19T11:12:23Z</time>
      </trkpt>
      <trkpt lat="45.3655110" lon="6.3162670">
        <ele>631.8</ele>
        <time>2021-08-19T11:12:24Z</time>
      </trkpt>
      <trkpt lat="45.3654480" lon="6.3163230">
        <ele>631.6</ele>
        <time>2021-08-19T11:12:25Z</time>
      </trkpt>
      <trkpt lat="45.3653890" lon="6.3163810">
        <ele>630.8</ele>
        <time>2021-08-19T11:12:26Z</time>
      </trkpt>
      <trkpt lat="45.3652130" lon="6.3165490">
        <ele>629.0</ele>
        <time>2021-08-19T11:12:29Z</time>
      </trkpt>
      <trkpt lat="45.3650830" lon="6.3166450">
        <ele>627.6</ele>
        <time>2021-08-19T11:12:31Z</time>
      </trkpt>
      <trkpt lat="45.3649270" lon="6.3166860">
        <ele>626.2</ele>
        <time>2021-08-19T11:12:33Z</time>
      </trkpt>
      <trkpt lat="45.3648430" lon="6.3166910">
        <ele>625.8</ele>
        <time>2021-08-19T11:12:34Z</time>
      </trkpt>
      <trkpt lat="45.3647610" lon="6.3166870">
        <ele>624.6</ele>
        <time>2021-08-19T11:12:35Z</time>
      </trkpt>
      <trkpt lat="45.3646830" lon="6.3166710">
        <ele>624.0</ele>
        <time>2021-08-19T11:12:36Z</time>
      </trkpt>
      <trkpt lat="45.3646110" lon="6.3166390">
        <ele>622.8</ele>
        <time>2021-08-19T11:12:37Z</time>
      </trkpt>
      <trkpt lat="45.3645430" lon="6.3165980">
        <ele>621.6</ele>
        <time>2021-08-19T11:12:38Z</time>
      </trkpt>
      <trkpt lat="45.3644250" lon="6.3164670">
        <ele>620.8</ele>
        <time>2021-08-19T11:12:40Z</time>
      </trkpt>
      <trkpt lat="45.3643570" lon="6.3162730">
        <ele>620.2</ele>
        <time>2021-08-19T11:12:42Z</time>
      </trkpt>
      <trkpt lat="45.3643340" lon="6.3161630">
        <ele>619.8</ele>
        <time>2021-08-19T11:12:43Z</time>
      </trkpt>
      <trkpt lat="45.3643000" lon="6.3159300">
        <ele>618.6</ele>
        <time>2021-08-19T11:12:45Z</time>
      </trkpt>
      <trkpt lat="45.3642670" lon="6.3156800">
        <ele>617.4</ele>
        <time>2021-08-19T11:12:47Z</time>
      </trkpt>
      <trkpt lat="45.3642530" lon="6.3155460">
        <ele>617.0</ele>
        <time>2021-08-19T11:12:48Z</time>
      </trkpt>
      <trkpt lat="45.3642300" lon="6.3152630">
        <ele>616.4</ele>
        <time>2021-08-19T11:12:50Z</time>
      </trkpt>
      <trkpt lat="45.3642190" lon="6.3151150">
        <ele>615.4</ele>
        <time>2021-08-19T11:12:51Z</time>
      </trkpt>
      <trkpt lat="45.3642000" lon="6.3149670">
        <ele>614.8</ele>
        <time>2021-08-19T11:12:52Z</time>
      </trkpt>
      <trkpt lat="45.3641780" lon="6.3148240">
        <ele>614.0</ele>
        <time>2021-08-19T11:12:53Z</time>
      </trkpt>
      <trkpt lat="45.3641540" lon="6.3146790">
        <ele>612.8</ele>
        <time>2021-08-19T11:12:54Z</time>
      </trkpt>
      <trkpt lat="45.3641260" lon="6.3145390">
        <ele>611.4</ele>
        <time>2021-08-19T11:12:55Z</time>
      </trkpt>
      <trkpt lat="45.3640960" lon="6.3143990">
        <ele>610.2</ele>
        <time>2021-08-19T11:12:56Z</time>
      </trkpt>
      <trkpt lat="45.3640720" lon="6.3142660">
        <ele>608.6</ele>
        <time>2021-08-19T11:12:57Z</time>
      </trkpt>
      <trkpt lat="45.3640510" lon="6.3141330">
        <ele>607.6</ele>
        <time>2021-08-19T11:12:58Z</time>
      </trkpt>
      <trkpt lat="45.3640390" lon="6.3140000">
        <ele>607.4</ele>
        <time>2021-08-19T11:12:59Z</time>
      </trkpt>
      <trkpt lat="45.3640360" lon="6.3137270">
        <ele>605.8</ele>
        <time>2021-08-19T11:13:01Z</time>
      </trkpt>
      <trkpt lat="45.3640390" lon="6.3135890">
        <ele>603.8</ele>
        <time>2021-08-19T11:13:02Z</time>
      </trkpt>
      <trkpt lat="45.3640450" lon="6.3133160">
        <ele>600.8</ele>
        <time>2021-08-19T11:13:04Z</time>
      </trkpt>
      <trkpt lat="45.3640580" lon="6.3130880">
        <ele>599.0</ele>
        <time>2021-08-19T11:13:06Z</time>
      </trkpt>
      <trkpt lat="45.3640760" lon="6.3128180">
        <ele>598.4</ele>
        <time>2021-08-19T11:13:08Z</time>
      </trkpt>
      <trkpt lat="45.3640860" lon="6.3126920">
        <ele>597.8</ele>
        <time>2021-08-19T11:13:09Z</time>
      </trkpt>
      <trkpt lat="45.3641190" lon="6.3123040">
        <ele>596.4</ele>
        <time>2021-08-19T11:13:12Z</time>
      </trkpt>
      <trkpt lat="45.3641330" lon="6.3121780">
        <ele>595.0</ele>
        <time>2021-08-19T11:13:13Z</time>
      </trkpt>
      <trkpt lat="45.3641460" lon="6.3120530">
        <ele>594.0</ele>
        <time>2021-08-19T11:13:14Z</time>
      </trkpt>
      <trkpt lat="45.3641570" lon="6.3119310">
        <ele>592.6</ele>
        <time>2021-08-19T11:13:15Z</time>
      </trkpt>
      <trkpt lat="45.3641680" lon="6.3118080">
        <ele>591.6</ele>
        <time>2021-08-19T11:13:16Z</time>
      </trkpt>
      <trkpt lat="45.3641890" lon="6.3115540">
        <ele>589.2</ele>
        <time>2021-08-19T11:13:18Z</time>
      </trkpt>
      <trkpt lat="45.3642030" lon="6.3111610">
        <ele>587.8</ele>
        <time>2021-08-19T11:13:21Z</time>
      </trkpt>
      <trkpt lat="45.3642050" lon="6.3110360">
        <ele>586.6</ele>
        <time>2021-08-19T11:13:22Z</time>
      </trkpt>
      <trkpt lat="45.3642070" lon="6.3108190">
        <ele>584.8</ele>
        <time>2021-08-19T11:13:24Z</time>
      </trkpt>
      <trkpt lat="45.3642010" lon="6.3105750">
        <ele>583.6</ele>
        <time>2021-08-19T11:13:26Z</time>
      </trkpt>
      <trkpt lat="45.3641930" lon="6.3103740">
        <ele>582.4</ele>
        <time>2021-08-19T11:13:28Z</time>
      </trkpt>
      <trkpt lat="45.3641870" lon="6.3101920">
        <ele>581.6</ele>
        <time>2021-08-19T11:13:30Z</time>
      </trkpt>
      <trkpt lat="45.3641810" lon="6.3101120">
        <ele>580.2</ele>
        <time>2021-08-19T11:13:31Z</time>
      </trkpt>
      <trkpt lat="45.3641680" lon="6.3099480">
        <ele>579.0</ele>
        <time>2021-08-19T11:13:33Z</time>
      </trkpt>
      <trkpt lat="45.3641530" lon="6.3097650">
        <ele>577.8</ele>
        <time>2021-08-19T11:13:35Z</time>
      </trkpt>
      <trkpt lat="45.3641240" lon="6.3094530">
        <ele>576.8</ele>
        <time>2021-08-19T11:13:38Z</time>
      </trkpt>
      <trkpt lat="45.3641150" lon="6.3093420">
        <ele>576.2</ele>
        <time>2021-08-19T11:13:39Z</time>
      </trkpt>
      <trkpt lat="45.3641070" lon="6.3092290">
        <ele>575.2</ele>
        <time>2021-08-19T11:13:40Z</time>
      </trkpt>
      <trkpt lat="45.3640500" lon="6.3088830">
        <ele>574.0</ele>
        <time>2021-08-19T11:13:43Z</time>
      </trkpt>
      <trkpt lat="45.3640210" lon="6.3087670">
        <ele>572.8</ele>
        <time>2021-08-19T11:13:44Z</time>
      </trkpt>
      <trkpt lat="45.3639890" lon="6.3086530">
        <ele>571.8</ele>
        <time>2021-08-19T11:13:45Z</time>
      </trkpt>
      <trkpt lat="45.3639180" lon="6.3084320">
        <ele>570.4</ele>
        <time>2021-08-19T11:13:47Z</time>
      </trkpt>
      <trkpt lat="45.3638500" lon="6.3082190">
        <ele>569.0</ele>
        <time>2021-08-19T11:13:49Z</time>
      </trkpt>
      <trkpt lat="45.3637870" lon="6.3080020">
        <ele>568.0</ele>
        <time>2021-08-19T11:13:51Z</time>
      </trkpt>
      <trkpt lat="45.3636340" lon="6.3075360">
        <ele>566.2</ele>
        <time>2021-08-19T11:13:55Z</time>
      </trkpt>
      <trkpt lat="45.3635920" lon="6.3074100">
        <ele>565.8</ele>
        <time>2021-08-19T11:13:56Z</time>
      </trkpt>
      <trkpt lat="45.3635530" lon="6.3072850">
        <ele>564.6</ele>
        <time>2021-08-19T11:13:57Z</time>
      </trkpt>
      <trkpt lat="45.3635160" lon="6.3071600">
        <ele>563.2</ele>
        <time>2021-08-19T11:13:58Z</time>
      </trkpt>
      <trkpt lat="45.3634400" lon="6.3069060">
        <ele>562.0</ele>
        <time>2021-08-19T11:14:00Z</time>
      </trkpt>
      <trkpt lat="45.3633660" lon="6.3066720">
        <ele>560.4</ele>
        <time>2021-08-19T11:14:02Z</time>
      </trkpt>
      <trkpt lat="45.3633300" lon="6.3065550">
        <ele>560.0</ele>
        <time>2021-08-19T11:14:03Z</time>
      </trkpt>
      <trkpt lat="45.3632950" lon="6.3064360">
        <ele>559.4</ele>
        <time>2021-08-19T11:14:04Z</time>
      </trkpt>
      <trkpt lat="45.3632590" lon="6.3063130">
        <ele>559.2</ele>
        <time>2021-08-19T11:14:05Z</time>
      </trkpt>
      <trkpt lat="45.3631260" lon="6.3059470">
        <ele>558.6</ele>
        <time>2021-08-19T11:14:08Z</time>
      </trkpt>
      <trkpt lat="45.3630260" lon="6.3057080">
        <ele>558.2</ele>
        <time>2021-08-19T11:14:10Z</time>
      </trkpt>
      <trkpt lat="45.3629770" lon="6.3055920">
        <ele>557.4</ele>
        <time>2021-08-19T11:14:11Z</time>
      </trkpt>
      <trkpt lat="45.3629360" lon="6.3055030">
        <ele>556.0</ele>
        <time>2021-08-19T11:14:12Z</time>
      </trkpt>
      <trkpt lat="45.3628710" lon="6.3053740">
        <ele>554.4</ele>
        <time>2021-08-19T11:14:13Z</time>
      </trkpt>
      <trkpt lat="45.3627680" lon="6.3051850">
        <ele>553.4</ele>
        <time>2021-08-19T11:14:15Z</time>
      </trkpt>
      <trkpt lat="45.3626030" lon="6.3048820">
        <ele>552.0</ele>
        <time>2021-08-19T11:14:18Z</time>
      </trkpt>
      <trkpt lat="45.3624820" lon="6.3046700">
        <ele>550.0</ele>
        <time>2021-08-19T11:14:20Z</time>
      </trkpt>
      <trkpt lat="45.3624340" lon="6.3045980">
        <ele>549.6</ele>
        <time>2021-08-19T11:14:21Z</time>
      </trkpt>
      <trkpt lat="45.3623720" lon="6.3045120">
        <ele>549.0</ele>
        <time>2021-08-19T11:14:22Z</time>
      </trkpt>
      <trkpt lat="45.3621890" lon="6.3042450">
        <ele>547.4</ele>
        <time>2021-08-19T11:14:25Z</time>
      </trkpt>
      <trkpt lat="45.3620600" lon="6.3040630">
        <ele>546.8</ele>
        <time>2021-08-19T11:14:27Z</time>
      </trkpt>
      <trkpt lat="45.3619280" lon="6.3038830">
        <ele>546.0</ele>
        <time>2021-08-19T11:14:29Z</time>
      </trkpt>
      <trkpt lat="45.3618050" lon="6.3037130">
        <ele>545.0</ele>
        <time>2021-08-19T11:14:31Z</time>
      </trkpt>
      <trkpt lat="45.3617500" lon="6.3036270">
        <ele>544.2</ele>
        <time>2021-08-19T11:14:32Z</time>
      </trkpt>
      <trkpt lat="45.3616960" lon="6.3035370">
        <ele>543.2</ele>
        <time>2021-08-19T11:14:33Z</time>
      </trkpt>
      <trkpt lat="45.3616440" lon="6.3034420">
        <ele>542.6</ele>
        <time>2021-08-19T11:14:34Z</time>
      </trkpt>
      <trkpt lat="45.3615430" lon="6.3032400">
        <ele>541.8</ele>
        <time>2021-08-19T11:14:36Z</time>
      </trkpt>
      <trkpt lat="45.3614470" lon="6.3030310">
        <ele>540.6</ele>
        <time>2021-08-19T11:14:38Z</time>
      </trkpt>
      <trkpt lat="45.3613490" lon="6.3028160">
        <ele>539.8</ele>
        <time>2021-08-19T11:14:40Z</time>
      </trkpt>
      <trkpt lat="45.3613000" lon="6.3027140">
        <ele>539.4</ele>
        <time>2021-08-19T11:14:41Z</time>
      </trkpt>
      <trkpt lat="45.3612060" lon="6.3025070">
        <ele>538.4</ele>
        <time>2021-08-19T11:14:43Z</time>
      </trkpt>
      <trkpt lat="45.3610060" lon="6.3020880">
        <ele>537.4</ele>
        <time>2021-08-19T11:14:47Z</time>
      </trkpt>
      <trkpt lat="45.3609090" lon="6.3018810">
        <ele>535.8</ele>
        <time>2021-08-19T11:14:49Z</time>
      </trkpt>
      <trkpt lat="45.3608650" lon="6.3017830">
        <ele>535.4</ele>
        <time>2021-08-19T11:14:50Z</time>
      </trkpt>
      <trkpt lat="45.3608230" lon="6.3016940">
        <ele>534.4</ele>
        <time>2021-08-19T11:14:51Z</time>
      </trkpt>
      <trkpt lat="45.3607450" lon="6.3015310">
        <ele>533.2</ele>
        <time>2021-08-19T11:14:53Z</time>
      </trkpt>
      <trkpt lat="45.3606740" lon="6.3013750">
        <ele>532.4</ele>
        <time>2021-08-19T11:14:55Z</time>
      </trkpt>
      <trkpt lat="45.3606400" lon="6.3013020">
        <ele>532.0</ele>
        <time>2021-08-19T11:14:56Z</time>
      </trkpt>
      <trkpt lat="45.3605130" lon="6.3010210">
        <ele>530.8</ele>
        <time>2021-08-19T11:15:00Z</time>
      </trkpt>
      <trkpt lat="45.3604480" lon="6.3008850">
        <ele>530.0</ele>
        <time>2021-08-19T11:15:02Z</time>
      </trkpt>
      <trkpt lat="45.3604140" lon="6.3008180">
        <ele>529.2</ele>
        <time>2021-08-19T11:15:03Z</time>
      </trkpt>
      <trkpt lat="45.3602660" lon="6.3005340">
        <ele>528.2</ele>
        <time>2021-08-19T11:15:07Z</time>
      </trkpt>
      <trkpt lat="45.3601810" lon="6.3003430">
        <ele>527.6</ele>
        <time>2021-08-19T11:15:10Z</time>
      </trkpt>
      <trkpt lat="45.3601590" lon="6.3002910">
        <ele>527.0</ele>
        <time>2021-08-19T11:15:12Z</time>
      </trkpt>
      <trkpt lat="45.3601540" lon="6.3002850">
        <ele>526.8</ele>
        <time>2021-08-19T11:15:13Z</time>
      </trkpt>
      <trkpt lat="45.3601540" lon="6.3002850">
        <ele>526.4</ele>
        <time>2021-08-19T11:15:15Z</time>
      </trkpt>
      <trkpt lat="45.3601620" lon="6.3004000">
        <ele>526.4</ele>
        <time>2021-08-19T11:21:54Z</time>
      </trkpt>
      <trkpt lat="45.3601490" lon="6.3003590">
        <ele>526.6</ele>
        <time>2021-08-19T11:21:55Z</time>
      </trkpt>
      <trkpt lat="45.3600310" lon="6.3000990">
        <ele>526.2</ele>
        <time>2021-08-19T11:22:00Z</time>
      </trkpt>
      <trkpt lat="45.3599020" lon="6.2998210">
        <ele>525.8</ele>
        <time>2021-08-19T11:22:05Z</time>
      </trkpt>
      <trkpt lat="45.3598840" lon="6.2997740">
        <ele>525.8</ele>
        <time>2021-08-19T11:22:06Z</time>
      </trkpt>
      <trkpt lat="45.3598650" lon="6.2997180">
        <ele>525.4</ele>
        <time>2021-08-19T11:22:07Z</time>
      </trkpt>
      <trkpt lat="45.3598180" lon="6.2995670">
        <ele>524.4</ele>
        <time>2021-08-19T11:22:11Z</time>
      </trkpt>
      <trkpt lat="45.3597530" lon="6.2993990">
        <ele>523.6</ele>
        <time>2021-08-19T11:22:17Z</time>
      </trkpt>
      <trkpt lat="45.3597530" lon="6.2993990">
        <ele>523.6</ele>
        <time>2021-08-19T11:22:18Z</time>
      </trkpt>
      <trkpt lat="45.3597530" lon="6.2993990">
        <ele>523.4</ele>
        <time>2021-08-19T11:22:19Z</time>
      </trkpt>
      <trkpt lat="45.3597250" lon="6.2993370">
        <ele>523.4</ele>
        <time>2021-08-19T11:22:23Z</time>
      </trkpt>
      <trkpt lat="45.3597060" lon="6.2993210">
        <ele>523.4</ele>
        <time>2021-08-19T11:22:24Z</time>
      </trkpt>
      <trkpt lat="45.3595890" lon="6.2993800">
        <ele>523.6</ele>
        <time>2021-08-19T11:22:29Z</time>
      </trkpt>
      <trkpt lat="45.3595660" lon="6.2993870">
        <ele>523.4</ele>
        <time>2021-08-19T11:22:30Z</time>
      </trkpt>
      <trkpt lat="45.3594450" lon="6.2994670">
        <ele>523.2</ele>
        <time>2021-08-19T11:22:34Z</time>
      </trkpt>
      <trkpt lat="45.3592090" lon="6.2996270">
        <ele>522.8</ele>
        <time>2021-08-19T11:22:41Z</time>
      </trkpt>
      <trkpt lat="45.3590190" lon="6.2997610">
        <ele>523.4</ele>
        <time>2021-08-19T11:22:46Z</time>
      </trkpt>
      <trkpt lat="45.3589800" lon="6.2997710">
        <ele>523.4</ele>
        <time>2021-08-19T11:22:47Z</time>
      </trkpt>
      <trkpt lat="45.3589400" lon="6.2997680">
        <ele>523.4</ele>
        <time>2021-08-19T11:22:48Z</time>
      </trkpt>
      <trkpt lat="45.3588260" lon="6.2997560">
        <ele>523.4</ele>
        <time>2021-08-19T11:22:51Z</time>
      </trkpt>
      <trkpt lat="45.3587790" lon="6.2997710">
        <ele>523.4</ele>
        <time>2021-08-19T11:22:52Z</time>
      </trkpt>
      <trkpt lat="45.3587420" lon="6.2997950">
        <ele>523.6</ele>
        <time>2021-08-19T11:22:53Z</time>
      </trkpt>
      <trkpt lat="45.3585820" lon="6.2999400">
        <ele>524.2</ele>
        <time>2021-08-19T11:22:58Z</time>
      </trkpt>
      <trkpt lat="45.3585640" lon="6.2999840">
        <ele>524.2</ele>
        <time>2021-08-19T11:23:00Z</time>
      </trkpt>
      <trkpt lat="45.3585690" lon="6.2999990">
        <ele>524.2</ele>
        <time>2021-08-19T11:23:01Z</time>
      </trkpt>
      <trkpt lat="45.3586130" lon="6.3000090">
        <ele>524.2</ele>
        <time>2021-08-19T11:23:06Z</time>
      </trkpt>
      <trkpt lat="45.3586330" lon="6.2999980">
        <ele>524.0</ele>
        <time>2021-08-19T11:23:07Z</time>
      </trkpt>
      <trkpt lat="45.3587220" lon="6.2999190">
        <ele>524.0</ele>
        <time>2021-08-19T11:23:11Z</time>
      </trkpt>
      <trkpt lat="45.3588300" lon="6.2998400">
        <ele>524.0</ele>
        <time>2021-08-19T11:23:14Z</time>
      </trkpt>
      <trkpt lat="45.3589190" lon="6.2998280">
        <ele>524.0</ele>
        <time>2021-08-19T11:23:16Z</time>
      </trkpt>
      <trkpt lat="45.3590170" lon="6.2998090">
        <ele>524.0</ele>
        <time>2021-08-19T11:23:18Z</time>
      </trkpt>
      <trkpt lat="45.3591000" lon="6.2997560">
        <ele>524.0</ele>
        <time>2021-08-19T11:23:20Z</time>
      </trkpt>
      <trkpt lat="45.3591360" lon="6.2997290">
        <ele>524.0</ele>
        <time>2021-08-19T11:23:21Z</time>
      </trkpt>
      <trkpt lat="45.3592830" lon="6.2996100">
        <ele>524.0</ele>
        <time>2021-08-19T11:23:25Z</time>
      </trkpt>
      <trkpt lat="45.3593540" lon="6.2995690">
        <ele>523.8</ele>
        <time>2021-08-19T11:23:27Z</time>
      </trkpt>
      <trkpt lat="45.3596940" lon="6.2993390">
        <ele>523.8</ele>
        <time>2021-08-19T11:23:35Z</time>
      </trkpt>
      <trkpt lat="45.3600190" lon="6.2991010">
        <ele>524.0</ele>
        <time>2021-08-19T11:23:44Z</time>
      </trkpt>
      <trkpt lat="45.3602240" lon="6.2989610">
        <ele>523.8</ele>
        <time>2021-08-19T11:23:50Z</time>
      </trkpt>
      <trkpt lat="45.3602890" lon="6.2989200">
        <ele>523.6</ele>
        <time>2021-08-19T11:23:52Z</time>
      </trkpt>
      <trkpt lat="45.3604570" lon="6.2987930">
        <ele>523.4</ele>
        <time>2021-08-19T11:23:57Z</time>
      </trkpt>
      <trkpt lat="45.3605890" lon="6.2986870">
        <ele>523.6</ele>
        <time>2021-08-19T11:24:02Z</time>
      </trkpt>
      <trkpt lat="45.3607420" lon="6.2985790">
        <ele>524.0</ele>
        <time>2021-08-19T11:24:08Z</time>
      </trkpt>
      <trkpt lat="45.3607350" lon="6.2985500">
        <ele>524.0</ele>
        <time>2021-08-19T11:24:12Z</time>
      </trkpt>
      <trkpt lat="45.3607230" lon="6.2985430">
        <ele>524.0</ele>
        <time>2021-08-19T11:24:13Z</time>
      </trkpt>
      <trkpt lat="45.3606920" lon="6.2985390">
        <ele>524.2</ele>
        <time>2021-08-19T11:24:15Z</time>
      </trkpt>
      <trkpt lat="45.3606620" lon="6.2985630">
        <ele>524.2</ele>
        <time>2021-08-19T11:24:17Z</time>
      </trkpt>
      <trkpt lat="45.3605100" lon="6.2986830">
        <ele>524.0</ele>
        <time>2021-08-19T11:24:23Z</time>
      </trkpt>
      <trkpt lat="45.3604040" lon="6.2987420">
        <ele>524.0</ele>
        <time>2021-08-19T11:24:28Z</time>
      </trkpt>
      <trkpt lat="45.3603660" lon="6.2987670">
        <ele>524.0</ele>
        <time>2021-08-19T11:24:33Z</time>
      </trkpt>
      <trkpt lat="45.3602230" lon="6.2990700">
        <ele>523.4</ele>
        <time>2021-08-19T11:43:52Z</time>
      </trkpt>
      <trkpt lat="45.3601960" lon="6.2990600">
        <ele>523.4</ele>
        <time>2021-08-19T11:43:53Z</time>
      </trkpt>
      <trkpt lat="45.3601380" lon="6.2990280">
        <ele>523.4</ele>
        <time>2021-08-19T11:43:55Z</time>
      </trkpt>
      <trkpt lat="45.3601080" lon="6.2990290">
        <ele>523.4</ele>
        <time>2021-08-19T11:43:56Z</time>
      </trkpt>
      <trkpt lat="45.3599500" lon="6.2991080">
        <ele>523.6</ele>
        <time>2021-08-19T11:44:01Z</time>
      </trkpt>
      <trkpt lat="45.3597730" lon="6.2992370">
        <ele>523.4</ele>
        <time>2021-08-19T11:44:06Z</time>
      </trkpt>
      <trkpt lat="45.3594870" lon="6.2994370">
        <ele>524.2</ele>
        <time>2021-08-19T11:44:13Z</time>
      </trkpt>
      <trkpt lat="45.3594130" lon="6.2994900">
        <ele>524.4</ele>
        <time>2021-08-19T11:44:15Z</time>
      </trkpt>
      <trkpt lat="45.3592400" lon="6.2995990">
        <ele>524.4</ele>
        <time>2021-08-19T11:44:19Z</time>
      </trkpt>
      <trkpt lat="45.3589570" lon="6.2997890">
        <ele>524.6</ele>
        <time>2021-08-19T11:44:26Z</time>
      </trkpt>
      <trkpt lat="45.3589030" lon="6.2997920">
        <ele>524.6</ele>
        <time>2021-08-19T11:44:27Z</time>
      </trkpt>
      <trkpt lat="45.3588080" lon="6.2997950">
        <ele>525.0</ele>
        <time>2021-08-19T11:44:29Z</time>
      </trkpt>
      <trkpt lat="45.3587190" lon="6.2998460">
        <ele>525.2</ele>
        <time>2021-08-19T11:44:31Z</time>
      </trkpt>
      <trkpt lat="45.3586130" lon="6.2999760">
        <ele>525.4</ele>
        <time>2021-08-19T11:44:34Z</time>
      </trkpt>
      <trkpt lat="45.3585300" lon="6.3000870">
        <ele>525.4</ele>
        <time>2021-08-19T11:44:36Z</time>
      </trkpt>
      <trkpt lat="45.3584880" lon="6.3001300">
        <ele>525.4</ele>
        <time>2021-08-19T11:44:37Z</time>
      </trkpt>
      <trkpt lat="45.3584080" lon="6.3002050">
        <ele>525.6</ele>
        <time>2021-08-19T11:44:39Z</time>
      </trkpt>
      <trkpt lat="45.3581780" lon="6.3004300">
        <ele>525.8</ele>
        <time>2021-08-19T11:44:44Z</time>
      </trkpt>
      <trkpt lat="45.3581230" lon="6.3004860">
        <ele>525.8</ele>
        <time>2021-08-19T11:44:45Z</time>
      </trkpt>
      <trkpt lat="45.3580770" lon="6.3005310">
        <ele>525.8</ele>
        <time>2021-08-19T11:44:46Z</time>
      </trkpt>
      <trkpt lat="45.3580320" lon="6.3005770">
        <ele>525.8</ele>
        <time>2021-08-19T11:44:47Z</time>
      </trkpt>
      <trkpt lat="45.3579960" lon="6.3006160">
        <ele>525.8</ele>
        <time>2021-08-19T11:44:48Z</time>
      </trkpt>
      <trkpt lat="45.3578380" lon="6.3007680">
        <ele>525.6</ele>
        <time>2021-08-19T11:44:51Z</time>
      </trkpt>
      <trkpt lat="45.3575530" lon="6.3010280">
        <ele>524.8</ele>
        <time>2021-08-19T11:44:56Z</time>
      </trkpt>
      <trkpt lat="45.3572170" lon="6.3012370">
        <ele>524.2</ele>
        <time>2021-08-19T11:45:01Z</time>
      </trkpt>
      <trkpt lat="45.3570910" lon="6.3013360">
        <ele>523.8</ele>
        <time>2021-08-19T11:45:03Z</time>
      </trkpt>
      <trkpt lat="45.3569530" lon="6.3014980">
        <ele>523.6</ele>
        <time>2021-08-19T11:45:05Z</time>
      </trkpt>
      <trkpt lat="45.3568050" lon="6.3017410">
        <ele>523.0</ele>
        <time>2021-08-19T11:45:08Z</time>
      </trkpt>
      <trkpt lat="45.3567630" lon="6.3018260">
        <ele>522.8</ele>
        <time>2021-08-19T11:45:09Z</time>
      </trkpt>
      <trkpt lat="45.3566870" lon="6.3019640">
        <ele>521.8</ele>
        <time>2021-08-19T11:45:11Z</time>
      </trkpt>
      <trkpt lat="45.3566500" lon="6.3020180">
        <ele>521.6</ele>
        <time>2021-08-19T11:45:12Z</time>
      </trkpt>
      <trkpt lat="45.3566040" lon="6.3020670">
        <ele>521.4</ele>
        <time>2021-08-19T11:45:13Z</time>
      </trkpt>
      <trkpt lat="45.3565310" lon="6.3021390">
        <ele>520.8</ele>
        <time>2021-08-19T11:45:15Z</time>
      </trkpt>
      <trkpt lat="45.3564280" lon="6.3022480">
        <ele>520.0</ele>
        <time>2021-08-19T11:45:18Z</time>
      </trkpt>
      <trkpt lat="45.3563680" lon="6.3022840">
        <ele>519.8</ele>
        <time>2021-08-19T11:45:19Z</time>
      </trkpt>
      <trkpt lat="45.3561940" lon="6.3023410">
        <ele>518.4</ele>
        <time>2021-08-19T11:45:22Z</time>
      </trkpt>
      <trkpt lat="45.3560620" lon="6.3023810">
        <ele>517.4</ele>
        <time>2021-08-19T11:45:24Z</time>
      </trkpt>
      <trkpt lat="45.3559410" lon="6.3024190">
        <ele>516.8</ele>
        <time>2021-08-19T11:45:26Z</time>
      </trkpt>
      <trkpt lat="45.3558670" lon="6.3024320">
        <ele>516.2</ele>
        <time>2021-08-19T11:45:27Z</time>
      </trkpt>
      <trkpt lat="45.3557030" lon="6.3024740">
        <ele>515.6</ele>
        <time>2021-08-19T11:45:29Z</time>
      </trkpt>
      <trkpt lat="45.3556390" lon="6.3024820">
        <ele>515.0</ele>
        <time>2021-08-19T11:45:30Z</time>
      </trkpt>
      <trkpt lat="45.3553180" lon="6.3025170">
        <ele>514.4</ele>
        <time>2021-08-19T11:45:34Z</time>
      </trkpt>
      <trkpt lat="45.3551390" lon="6.3025510">
        <ele>513.8</ele>
        <time>2021-08-19T11:45:36Z</time>
      </trkpt>
      <trkpt lat="45.3548130" lon="6.3026170">
        <ele>512.8</ele>
        <time>2021-08-19T11:45:40Z</time>
      </trkpt>
      <trkpt lat="45.3546400" lon="6.3026420">
        <ele>512.0</ele>
        <time>2021-08-19T11:45:42Z</time>
      </trkpt>
      <trkpt lat="45.3545390" lon="6.3026540">
        <ele>511.4</ele>
        <time>2021-08-19T11:45:43Z</time>
      </trkpt>
      <trkpt lat="45.3541130" lon="6.3027200">
        <ele>510.2</ele>
        <time>2021-08-19T11:45:48Z</time>
      </trkpt>
      <trkpt lat="45.3539330" lon="6.3027590">
        <ele>509.6</ele>
        <time>2021-08-19T11:45:50Z</time>
      </trkpt>
      <trkpt lat="45.3538470" lon="6.3027730">
        <ele>509.2</ele>
        <time>2021-08-19T11:45:51Z</time>
      </trkpt>
      <trkpt lat="45.3535860" lon="6.3028280">
        <ele>507.8</ele>
        <time>2021-08-19T11:45:55Z</time>
      </trkpt>
      <trkpt lat="45.3535280" lon="6.3028150">
        <ele>507.2</ele>
        <time>2021-08-19T11:45:57Z</time>
      </trkpt>
      <trkpt lat="45.3535140" lon="6.3027970">
        <ele>507.2</ele>
        <time>2021-08-19T11:45:58Z</time>
      </trkpt>
      <trkpt lat="45.3534900" lon="6.3027410">
        <ele>507.0</ele>
        <time>2021-08-19T11:46:00Z</time>
      </trkpt>
      <trkpt lat="45.3535010" lon="6.3026830">
        <ele>506.8</ele>
        <time>2021-08-19T11:46:02Z</time>
      </trkpt>
      <trkpt lat="45.3536300" lon="6.3024670">
        <ele>505.6</ele>
        <time>2021-08-19T11:46:10Z</time>
      </trkpt>
      <trkpt lat="45.3536680" lon="6.3023840">
        <ele>505.6</ele>
        <time>2021-08-19T11:46:13Z</time>
      </trkpt>
      <trkpt lat="45.3536550" lon="6.3023540">
        <ele>505.4</ele>
        <time>2021-08-19T11:46:15Z</time>
      </trkpt>
      <trkpt lat="45.3536370" lon="6.3023720">
        <ele>505.4</ele>
        <time>2021-08-19T11:46:17Z</time>
      </trkpt>
      <trkpt lat="45.3536120" lon="6.3024410">
        <ele>505.4</ele>
        <time>2021-08-19T11:46:20Z</time>
      </trkpt>
      <trkpt lat="45.3535340" lon="6.3026220">
        <ele>506.0</ele>
        <time>2021-08-19T11:46:26Z</time>
      </trkpt>
      <trkpt lat="45.3534450" lon="6.3027710">
        <ele>505.8</ele>
        <time>2021-08-19T11:46:30Z</time>
      </trkpt>
      <trkpt lat="45.3532870" lon="6.3029500">
        <ele>505.4</ele>
        <time>2021-08-19T11:46:34Z</time>
      </trkpt>
      <trkpt lat="45.3532340" lon="6.3029900">
        <ele>505.4</ele>
        <time>2021-08-19T11:46:35Z</time>
      </trkpt>
      <trkpt lat="45.3531270" lon="6.3030710">
        <ele>504.8</ele>
        <time>2021-08-19T11:46:37Z</time>
      </trkpt>
      <trkpt lat="45.3530710" lon="6.3031300">
        <ele>504.4</ele>
        <time>2021-08-19T11:46:38Z</time>
      </trkpt>
      <trkpt lat="45.3530100" lon="6.3032120">
        <ele>504.2</ele>
        <time>2021-08-19T11:46:39Z</time>
      </trkpt>
      <trkpt lat="45.3529400" lon="6.3033560">
        <ele>503.4</ele>
        <time>2021-08-19T11:46:41Z</time>
      </trkpt>
      <trkpt lat="45.3528700" lon="6.3035590">
        <ele>503.2</ele>
        <time>2021-08-19T11:46:43Z</time>
      </trkpt>
      <trkpt lat="45.3526970" lon="6.3038950">
        <ele>502.8</ele>
        <time>2021-08-19T11:46:47Z</time>
      </trkpt>
      <trkpt lat="45.3526420" lon="6.3039610">
        <ele>502.8</ele>
        <time>2021-08-19T11:46:48Z</time>
      </trkpt>
      <trkpt lat="45.3525830" lon="6.3040170">
        <ele>502.6</ele>
        <time>2021-08-19T11:46:49Z</time>
      </trkpt>
      <trkpt lat="45.3524680" lon="6.3040850">
        <ele>502.4</ele>
        <time>2021-08-19T11:46:51Z</time>
      </trkpt>
      <trkpt lat="45.3523890" lon="6.3041230">
        <ele>502.2</ele>
        <time>2021-08-19T11:46:52Z</time>
      </trkpt>
      <trkpt lat="45.3522720" lon="6.3041910">
        <ele>502.2</ele>
        <time>2021-08-19T11:46:54Z</time>
      </trkpt>
      <trkpt lat="45.3521560" lon="6.3042990">
        <ele>502.0</ele>
        <time>2021-08-19T11:46:56Z</time>
      </trkpt>
      <trkpt lat="45.3518410" lon="6.3046740">
        <ele>502.2</ele>
        <time>2021-08-19T11:47:02Z</time>
      </trkpt>
      <trkpt lat="45.3518010" lon="6.3047440">
        <ele>502.4</ele>
        <time>2021-08-19T11:47:03Z</time>
      </trkpt>
      <trkpt lat="45.3517060" lon="6.3049210">
        <ele>502.6</ele>
        <time>2021-08-19T11:47:06Z</time>
      </trkpt>
      <trkpt lat="45.3516670" lon="6.3049650">
        <ele>502.6</ele>
        <time>2021-08-19T11:47:07Z</time>
      </trkpt>
      <trkpt lat="45.3515720" lon="6.3050480">
        <ele>502.8</ele>
        <time>2021-08-19T11:47:09Z</time>
      </trkpt>
      <trkpt lat="45.3514470" lon="6.3051890">
        <ele>503.4</ele>
        <time>2021-08-19T11:47:12Z</time>
      </trkpt>
      <trkpt lat="45.3514010" lon="6.3052340">
        <ele>503.6</ele>
        <time>2021-08-19T11:47:13Z</time>
      </trkpt>
      <trkpt lat="45.3513540" lon="6.3052760">
        <ele>503.6</ele>
        <time>2021-08-19T11:47:14Z</time>
      </trkpt>
      <trkpt lat="45.3512060" lon="6.3054010">
        <ele>503.8</ele>
        <time>2021-08-19T11:47:17Z</time>
      </trkpt>
      <trkpt lat="45.3511120" lon="6.3054950">
        <ele>504.0</ele>
        <time>2021-08-19T11:47:19Z</time>
      </trkpt>
      <trkpt lat="45.3510330" lon="6.3055840">
        <ele>504.2</ele>
        <time>2021-08-19T11:47:21Z</time>
      </trkpt>
      <trkpt lat="45.3508770" lon="6.3057830">
        <ele>504.4</ele>
        <time>2021-08-19T11:47:25Z</time>
      </trkpt>
      <trkpt lat="45.3507600" lon="6.3059270">
        <ele>505.0</ele>
        <time>2021-08-19T11:47:28Z</time>
      </trkpt>
      <trkpt lat="45.3505790" lon="6.3061670">
        <ele>506.4</ele>
        <time>2021-08-19T11:47:33Z</time>
      </trkpt>
      <trkpt lat="45.3504730" lon="6.3063140">
        <ele>506.4</ele>
        <time>2021-08-19T11:47:36Z</time>
      </trkpt>
      <trkpt lat="45.3504390" lon="6.3063570">
        <ele>506.6</ele>
        <time>2021-08-19T11:47:37Z</time>
      </trkpt>
      <trkpt lat="45.3502960" lon="6.3065000">
        <ele>507.0</ele>
        <time>2021-08-19T11:47:41Z</time>
      </trkpt>
      <trkpt lat="45.3502580" lon="6.3065250">
        <ele>507.4</ele>
        <time>2021-08-19T11:47:42Z</time>
      </trkpt>
      <trkpt lat="45.3502170" lon="6.3065440">
        <ele>507.4</ele>
        <time>2021-08-19T11:47:43Z</time>
      </trkpt>
      <trkpt lat="45.3500860" lon="6.3065630">
        <ele>507.6</ele>
        <time>2021-08-19T11:47:46Z</time>
      </trkpt>
      <trkpt lat="45.3499640" lon="6.3065510">
        <ele>508.0</ele>
        <time>2021-08-19T11:47:49Z</time>
      </trkpt>
      <trkpt lat="45.3499210" lon="6.3065440">
        <ele>508.2</ele>
        <time>2021-08-19T11:47:50Z</time>
      </trkpt>
      <trkpt lat="45.3498310" lon="6.3065020">
        <ele>508.2</ele>
        <time>2021-08-19T11:47:52Z</time>
      </trkpt>
      <trkpt lat="45.3497570" lon="6.3064450">
        <ele>508.6</ele>
        <time>2021-08-19T11:47:54Z</time>
      </trkpt>
      <trkpt lat="45.3497290" lon="6.3064170">
        <ele>508.8</ele>
        <time>2021-08-19T11:47:55Z</time>
      </trkpt>
      <trkpt lat="45.3495900" lon="6.3062730">
        <ele>509.8</ele>
        <time>2021-08-19T11:47:59Z</time>
      </trkpt>
      <trkpt lat="45.3495540" lon="6.3062340">
        <ele>509.8</ele>
        <time>2021-08-19T11:48:00Z</time>
      </trkpt>
      <trkpt lat="45.3493920" lon="6.3060890">
        <ele>510.4</ele>
        <time>2021-08-19T11:48:04Z</time>
      </trkpt>
      <trkpt lat="45.3492910" lon="6.3060570">
        <ele>510.6</ele>
        <time>2021-08-19T11:48:06Z</time>
      </trkpt>
      <trkpt lat="45.3491650" lon="6.3060800">
        <ele>510.6</ele>
        <time>2021-08-19T11:48:08Z</time>
      </trkpt>
      <trkpt lat="45.3490480" lon="6.3061380">
        <ele>510.6</ele>
        <time>2021-08-19T11:48:10Z</time>
      </trkpt>
      <trkpt lat="45.3489840" lon="6.3061750">
        <ele>510.4</ele>
        <time>2021-08-19T11:48:11Z</time>
      </trkpt>
      <trkpt lat="45.3489210" lon="6.3062120">
        <ele>510.2</ele>
        <time>2021-08-19T11:48:12Z</time>
      </trkpt>
      <trkpt lat="45.3488560" lon="6.3062500">
        <ele>509.8</ele>
        <time>2021-08-19T11:48:13Z</time>
      </trkpt>
      <trkpt lat="45.3488040" lon="6.3062870">
        <ele>509.6</ele>
        <time>2021-08-19T11:48:14Z</time>
      </trkpt>
      <trkpt lat="45.3486550" lon="6.3063810">
        <ele>509.2</ele>
        <time>2021-08-19T11:48:16Z</time>
      </trkpt>
      <trkpt lat="45.3485870" lon="6.3064190">
        <ele>509.0</ele>
        <time>2021-08-19T11:48:17Z</time>
      </trkpt>
      <trkpt lat="45.3484100" lon="6.3065150">
        <ele>508.2</ele>
        <time>2021-08-19T11:48:20Z</time>
      </trkpt>
      <trkpt lat="45.3483560" lon="6.3065140">
        <ele>508.2</ele>
        <time>2021-08-19T11:48:21Z</time>
      </trkpt>
      <trkpt lat="45.3483070" lon="6.3064900">
        <ele>507.8</ele>
        <time>2021-08-19T11:48:22Z</time>
      </trkpt>
      <trkpt lat="45.3482490" lon="6.3063950">
        <ele>506.6</ele>
        <time>2021-08-19T11:48:24Z</time>
      </trkpt>
      <trkpt lat="45.3482390" lon="6.3062440">
        <ele>506.0</ele>
        <time>2021-08-19T11:48:27Z</time>
      </trkpt>
      <trkpt lat="45.3482750" lon="6.3061470">
        <ele>506.0</ele>
        <time>2021-08-19T11:48:29Z</time>
      </trkpt>
      <trkpt lat="45.3483270" lon="6.3060920">
        <ele>505.8</ele>
        <time>2021-08-19T11:48:31Z</time>
      </trkpt>
      <trkpt lat="45.3484830" lon="6.3059640">
        <ele>505.6</ele>
        <time>2021-08-19T11:48:36Z</time>
      </trkpt>
      <trkpt lat="45.3485150" lon="6.3059450">
        <ele>505.6</ele>
        <time>2021-08-19T11:48:37Z</time>
      </trkpt>
      <trkpt lat="45.3485620" lon="6.3059210">
        <ele>505.4</ele>
        <time>2021-08-19T11:48:38Z</time>
      </trkpt>
      <trkpt lat="45.3486440" lon="6.3058840">
        <ele>505.4</ele>
        <time>2021-08-19T11:48:41Z</time>
      </trkpt>
      <trkpt lat="45.3487230" lon="6.3058480">
        <ele>505.2</ele>
        <time>2021-08-19T11:48:46Z</time>
      </trkpt>
      <trkpt lat="45.3488650" lon="6.3057750">
        <ele>504.8</ele>
        <time>2021-08-19T11:48:50Z</time>
      </trkpt>
      <trkpt lat="45.3489060" lon="6.3057590">
        <ele>504.8</ele>
        <time>2021-08-19T11:48:51Z</time>
      </trkpt>
      <trkpt lat="45.3489910" lon="6.3057240">
        <ele>504.8</ele>
        <time>2021-08-19T11:48:53Z</time>
      </trkpt>
      <trkpt lat="45.3491610" lon="6.3056400">
        <ele>504.6</ele>
        <time>2021-08-19T11:48:57Z</time>
      </trkpt>
      <trkpt lat="45.3493900" lon="6.3055370">
        <ele>504.8</ele>
        <time>2021-08-19T11:49:04Z</time>
      </trkpt>
      <trkpt lat="45.3493940" lon="6.3055330">
        <ele>504.8</ele>
        <time>2021-08-19T11:49:06Z</time>
      </trkpt>
      <trkpt lat="45.3493760" lon="6.3054820">
        <ele>505.2</ele>
        <time>2021-08-19T11:50:31Z</time>
      </trkpt>
      <trkpt lat="45.3493580" lon="6.3054680">
        <ele>505.2</ele>
        <time>2021-08-19T11:50:32Z</time>
      </trkpt>
      <trkpt lat="45.3493330" lon="6.3054640">
        <ele>505.0</ele>
        <time>2021-08-19T11:50:33Z</time>
      </trkpt>
      <trkpt lat="45.3492780" lon="6.3054770">
        <ele>505.0</ele>
        <time>2021-08-19T11:50:35Z</time>
      </trkpt>
      <trkpt lat="45.3490910" lon="6.3055450">
        <ele>504.6</ele>
        <time>2021-08-19T11:50:40Z</time>
      </trkpt>
      <trkpt lat="45.3490480" lon="6.3055640">
        <ele>504.6</ele>
        <time>2021-08-19T11:50:41Z</time>
      </trkpt>
      <trkpt lat="45.3489060" lon="6.3056290">
        <ele>504.6</ele>
        <time>2021-08-19T11:50:44Z</time>
      </trkpt>
      <trkpt lat="45.3488110" lon="6.3056720">
        <ele>504.6</ele>
        <time>2021-08-19T11:50:46Z</time>
      </trkpt>
      <trkpt lat="45.3486530" lon="6.3057340">
        <ele>504.6</ele>
        <time>2021-08-19T11:50:49Z</time>
      </trkpt>
      <trkpt lat="45.3484640" lon="6.3058310">
        <ele>505.0</ele>
        <time>2021-08-19T11:50:53Z</time>
      </trkpt>
      <trkpt lat="45.3484180" lon="6.3058660">
        <ele>505.2</ele>
        <time>2021-08-19T11:50:54Z</time>
      </trkpt>
      <trkpt lat="45.3482930" lon="6.3059900">
        <ele>505.2</ele>
        <time>2021-08-19T11:50:57Z</time>
      </trkpt>
      <trkpt lat="45.3482150" lon="6.3060690">
        <ele>505.4</ele>
        <time>2021-08-19T11:50:59Z</time>
      </trkpt>
      <trkpt lat="45.3481730" lon="6.3060940">
        <ele>505.4</ele>
        <time>2021-08-19T11:51:00Z</time>
      </trkpt>
      <trkpt lat="45.3481360" lon="6.3061040">
        <ele>505.4</ele>
        <time>2021-08-19T11:51:01Z</time>
      </trkpt>
      <trkpt lat="45.3480880" lon="6.3061080">
        <ele>505.6</ele>
        <time>2021-08-19T11:51:02Z</time>
      </trkpt>
      <trkpt lat="45.3480340" lon="6.3061110">
        <ele>505.8</ele>
        <time>2021-08-19T11:51:03Z</time>
      </trkpt>
      <trkpt lat="45.3479900" lon="6.3061220">
        <ele>505.8</ele>
        <time>2021-08-19T11:51:04Z</time>
      </trkpt>
      <trkpt lat="45.3479540" lon="6.3061450">
        <ele>506.0</ele>
        <time>2021-08-19T11:51:05Z</time>
      </trkpt>
      <trkpt lat="45.3478730" lon="6.3062350">
        <ele>506.0</ele>
        <time>2021-08-19T11:51:07Z</time>
      </trkpt>
      <trkpt lat="45.3478380" lon="6.3062830">
        <ele>506.2</ele>
        <time>2021-08-19T11:51:08Z</time>
      </trkpt>
      <trkpt lat="45.3477980" lon="6.3063310">
        <ele>506.2</ele>
        <time>2021-08-19T11:51:09Z</time>
      </trkpt>
      <trkpt lat="45.3476540" lon="6.3064460">
        <ele>506.2</ele>
        <time>2021-08-19T11:51:12Z</time>
      </trkpt>
      <trkpt lat="45.3472870" lon="6.3066640">
        <ele>506.4</ele>
        <time>2021-08-19T11:51:19Z</time>
      </trkpt>
      <trkpt lat="45.3472300" lon="6.3067010">
        <ele>506.2</ele>
        <time>2021-08-19T11:51:20Z</time>
      </trkpt>
      <trkpt lat="45.3470620" lon="6.3068090">
        <ele>506.2</ele>
        <time>2021-08-19T11:51:23Z</time>
      </trkpt>
      <trkpt lat="45.3469450" lon="6.3068710">
        <ele>506.0</ele>
        <time>2021-08-19T11:51:25Z</time>
      </trkpt>
      <trkpt lat="45.3468870" lon="6.3069030">
        <ele>506.0</ele>
        <time>2021-08-19T11:51:26Z</time>
      </trkpt>
      <trkpt lat="45.3466580" lon="6.3070390">
        <ele>506.2</ele>
        <time>2021-08-19T11:51:30Z</time>
      </trkpt>
      <trkpt lat="45.3466020" lon="6.3070720">
        <ele>506.2</ele>
        <time>2021-08-19T11:51:31Z</time>
      </trkpt>
      <trkpt lat="45.3465330" lon="6.3071110">
        <ele>506.2</ele>
        <time>2021-08-19T11:51:32Z</time>
      </trkpt>
      <trkpt lat="45.3464780" lon="6.3071450">
        <ele>506.2</ele>
        <time>2021-08-19T11:51:33Z</time>
      </trkpt>
      <trkpt lat="45.3463790" lon="6.3072050">
        <ele>506.2</ele>
        <time>2021-08-19T11:51:35Z</time>
      </trkpt>
      <trkpt lat="45.3458800" lon="6.3074990">
        <ele>507.0</ele>
        <time>2021-08-19T11:51:44Z</time>
      </trkpt>
      <trkpt lat="45.3458240" lon="6.3075290">
        <ele>507.0</ele>
        <time>2021-08-19T11:51:45Z</time>
      </trkpt>
      <trkpt lat="45.3456110" lon="6.3076490">
        <ele>507.2</ele>
        <time>2021-08-19T11:51:49Z</time>
      </trkpt>
      <trkpt lat="45.3455530" lon="6.3076870">
        <ele>507.2</ele>
        <time>2021-08-19T11:51:50Z</time>
      </trkpt>
      <trkpt lat="45.3454790" lon="6.3077350">
        <ele>507.4</ele>
        <time>2021-08-19T11:51:51Z</time>
      </trkpt>
      <trkpt lat="45.3454330" lon="6.3077650">
        <ele>507.4</ele>
        <time>2021-08-19T11:51:52Z</time>
      </trkpt>
      <trkpt lat="45.3451440" lon="6.3079270">
        <ele>507.6</ele>
        <time>2021-08-19T11:51:57Z</time>
      </trkpt>
      <trkpt lat="45.3450720" lon="6.3079690">
        <ele>507.6</ele>
        <time>2021-08-19T11:51:58Z</time>
      </trkpt>
      <trkpt lat="45.3449640" lon="6.3080340">
        <ele>507.8</ele>
        <time>2021-08-19T11:52:00Z</time>
      </trkpt>
      <trkpt lat="45.3449060" lon="6.3080710">
        <ele>507.8</ele>
        <time>2021-08-19T11:52:01Z</time>
      </trkpt>
      <trkpt lat="45.3448450" lon="6.3081070">
        <ele>507.8</ele>
        <time>2021-08-19T11:52:02Z</time>
      </trkpt>
      <trkpt lat="45.3445290" lon="6.3082970">
        <ele>508.4</ele>
        <time>2021-08-19T11:52:07Z</time>
      </trkpt>
      <trkpt lat="45.3444050" lon="6.3083710">
        <ele>508.4</ele>
        <time>2021-08-19T11:52:09Z</time>
      </trkpt>
      <trkpt lat="45.3443560" lon="6.3084030">
        <ele>508.4</ele>
        <time>2021-08-19T11:52:10Z</time>
      </trkpt>
      <trkpt lat="45.3441610" lon="6.3085170">
        <ele>508.6</ele>
        <time>2021-08-19T11:52:13Z</time>
      </trkpt>
      <trkpt lat="45.3440470" lon="6.3085750">
        <ele>508.6</ele>
        <time>2021-08-19T11:52:15Z</time>
      </trkpt>
      <trkpt lat="45.3439710" lon="6.3086190">
        <ele>508.6</ele>
        <time>2021-08-19T11:52:16Z</time>
      </trkpt>
      <trkpt lat="45.3434590" lon="6.3089270">
        <ele>509.0</ele>
        <time>2021-08-19T11:52:24Z</time>
      </trkpt>
      <trkpt lat="45.3433930" lon="6.3089660">
        <ele>509.0</ele>
        <time>2021-08-19T11:52:25Z</time>
      </trkpt>
      <trkpt lat="45.3430720" lon="6.3091580">
        <ele>509.0</ele>
        <time>2021-08-19T11:52:30Z</time>
      </trkpt>
      <trkpt lat="45.3430080" lon="6.3091990">
        <ele>509.0</ele>
        <time>2021-08-19T11:52:31Z</time>
      </trkpt>
      <trkpt lat="45.3426890" lon="6.3093880">
        <ele>509.0</ele>
        <time>2021-08-19T11:52:36Z</time>
      </trkpt>
      <trkpt lat="45.3421820" lon="6.3096850">
        <ele>509.6</ele>
        <time>2021-08-19T11:52:44Z</time>
      </trkpt>
      <trkpt lat="45.3420590" lon="6.3097530">
        <ele>509.8</ele>
        <time>2021-08-19T11:52:46Z</time>
      </trkpt>
      <trkpt lat="45.3415730" lon="6.3100320">
        <ele>510.0</ele>
        <time>2021-08-19T11:52:54Z</time>
      </trkpt>
      <trkpt lat="45.3415130" lon="6.3100700">
        <ele>510.0</ele>
        <time>2021-08-19T11:52:55Z</time>
      </trkpt>
      <trkpt lat="45.3409980" lon="6.3103680">
        <ele>510.8</ele>
        <time>2021-08-19T11:53:03Z</time>
      </trkpt>
      <trkpt lat="45.3408070" lon="6.3104840">
        <ele>511.0</ele>
        <time>2021-08-19T11:53:06Z</time>
      </trkpt>
      <trkpt lat="45.3404990" lon="6.3106660">
        <ele>511.2</ele>
        <time>2021-08-19T11:53:11Z</time>
      </trkpt>
      <trkpt lat="45.3399970" lon="6.3109570">
        <ele>511.4</ele>
        <time>2021-08-19T11:53:19Z</time>
      </trkpt>
      <trkpt lat="45.3397350" lon="6.3111100">
        <ele>511.4</ele>
        <time>2021-08-19T11:53:23Z</time>
      </trkpt>
      <trkpt lat="45.3392680" lon="6.3113800">
        <ele>511.4</ele>
        <time>2021-08-19T11:53:30Z</time>
      </trkpt>
      <trkpt lat="45.3388690" lon="6.3116170">
        <ele>512.2</ele>
        <time>2021-08-19T11:53:36Z</time>
      </trkpt>
      <trkpt lat="45.3388020" lon="6.3116570">
        <ele>512.2</ele>
        <time>2021-08-19T11:53:37Z</time>
      </trkpt>
      <trkpt lat="45.3382590" lon="6.3119770">
        <ele>513.2</ele>
        <time>2021-08-19T11:53:45Z</time>
      </trkpt>
      <trkpt lat="45.3381230" lon="6.3120610">
        <ele>513.4</ele>
        <time>2021-08-19T11:53:47Z</time>
      </trkpt>
      <trkpt lat="45.3380530" lon="6.3121020">
        <ele>513.4</ele>
        <time>2021-08-19T11:53:48Z</time>
      </trkpt>
      <trkpt lat="45.3379160" lon="6.3121850">
        <ele>513.4</ele>
        <time>2021-08-19T11:53:50Z</time>
      </trkpt>
      <trkpt lat="45.3378460" lon="6.3122280">
        <ele>513.4</ele>
        <time>2021-08-19T11:53:51Z</time>
      </trkpt>
      <trkpt lat="45.3376380" lon="6.3123510">
        <ele>513.4</ele>
        <time>2021-08-19T11:53:54Z</time>
      </trkpt>
      <trkpt lat="45.3373470" lon="6.3125200">
        <ele>513.4</ele>
        <time>2021-08-19T11:53:58Z</time>
      </trkpt>
      <trkpt lat="45.3372730" lon="6.3125640">
        <ele>513.6</ele>
        <time>2021-08-19T11:53:59Z</time>
      </trkpt>
      <trkpt lat="45.3369810" lon="6.3127300">
        <ele>513.6</ele>
        <time>2021-08-19T11:54:03Z</time>
      </trkpt>
      <trkpt lat="45.3366210" lon="6.3129400">
        <ele>514.0</ele>
        <time>2021-08-19T11:54:08Z</time>
      </trkpt>
      <trkpt lat="45.3365510" lon="6.3129810">
        <ele>514.0</ele>
        <time>2021-08-19T11:54:09Z</time>
      </trkpt>
      <trkpt lat="45.3364090" lon="6.3130630">
        <ele>514.2</ele>
        <time>2021-08-19T11:54:11Z</time>
      </trkpt>
      <trkpt lat="45.3363370" lon="6.3131040">
        <ele>514.2</ele>
        <time>2021-08-19T11:54:12Z</time>
      </trkpt>
      <trkpt lat="45.3361260" lon="6.3132360">
        <ele>514.4</ele>
        <time>2021-08-19T11:54:15Z</time>
      </trkpt>
      <trkpt lat="45.3360560" lon="6.3132770">
        <ele>514.4</ele>
        <time>2021-08-19T11:54:16Z</time>
      </trkpt>
      <trkpt lat="45.3359180" lon="6.3133600">
        <ele>514.4</ele>
        <time>2021-08-19T11:54:18Z</time>
      </trkpt>
      <trkpt lat="45.3357820" lon="6.3134370">
        <ele>514.4</ele>
        <time>2021-08-19T11:54:20Z</time>
      </trkpt>
      <trkpt lat="45.3354460" lon="6.3136390">
        <ele>514.6</ele>
        <time>2021-08-19T11:54:25Z</time>
      </trkpt>
      <trkpt lat="45.3353800" lon="6.3136790">
        <ele>514.6</ele>
        <time>2021-08-19T11:54:26Z</time>
      </trkpt>
      <trkpt lat="45.3352460" lon="6.3137600">
        <ele>514.8</ele>
        <time>2021-08-19T11:54:28Z</time>
      </trkpt>
      <trkpt lat="45.3347200" lon="6.3140650">
        <ele>515.2</ele>
        <time>2021-08-19T11:54:36Z</time>
      </trkpt>
      <trkpt lat="45.3343930" lon="6.3142500">
        <ele>515.2</ele>
        <time>2021-08-19T11:54:41Z</time>
      </trkpt>
      <trkpt lat="45.3342630" lon="6.3143220">
        <ele>515.6</ele>
        <time>2021-08-19T11:54:43Z</time>
      </trkpt>
      <trkpt lat="45.3341960" lon="6.3143610">
        <ele>515.8</ele>
        <time>2021-08-19T11:54:44Z</time>
      </trkpt>
      <trkpt lat="45.3336670" lon="6.3146710">
        <ele>516.4</ele>
        <time>2021-08-19T11:54:52Z</time>
      </trkpt>
      <trkpt lat="45.3331430" lon="6.3150160">
        <ele>516.2</ele>
        <time>2021-08-19T11:55:00Z</time>
      </trkpt>
      <trkpt lat="45.3330770" lon="6.3150590">
        <ele>516.4</ele>
        <time>2021-08-19T11:55:01Z</time>
      </trkpt>
      <trkpt lat="45.3326900" lon="6.3153340">
        <ele>516.8</ele>
        <time>2021-08-19T11:55:07Z</time>
      </trkpt>
      <trkpt lat="45.3326270" lon="6.3153810">
        <ele>517.0</ele>
        <time>2021-08-19T11:55:08Z</time>
      </trkpt>
      <trkpt lat="45.3321080" lon="6.3157610">
        <ele>517.4</ele>
        <time>2021-08-19T11:55:16Z</time>
      </trkpt>
      <trkpt lat="45.3319140" lon="6.3159090">
        <ele>517.6</ele>
        <time>2021-08-19T11:55:19Z</time>
      </trkpt>
      <trkpt lat="45.3316580" lon="6.3161090">
        <ele>517.8</ele>
        <time>2021-08-19T11:55:23Z</time>
      </trkpt>
      <trkpt lat="45.3314620" lon="6.3162490">
        <ele>518.0</ele>
        <time>2021-08-19T11:55:26Z</time>
      </trkpt>
      <trkpt lat="45.3312010" lon="6.3164410">
        <ele>518.2</ele>
        <time>2021-08-19T11:55:30Z</time>
      </trkpt>
      <trkpt lat="45.3309380" lon="6.3166410">
        <ele>518.4</ele>
        <time>2021-08-19T11:55:34Z</time>
      </trkpt>
      <trkpt lat="45.3305040" lon="6.3169690">
        <ele>518.8</ele>
        <time>2021-08-19T11:55:41Z</time>
      </trkpt>
      <trkpt lat="45.3303670" lon="6.3170650">
        <ele>519.0</ele>
        <time>2021-08-19T11:55:43Z</time>
      </trkpt>
      <trkpt lat="45.3302340" lon="6.3171660">
        <ele>519.0</ele>
        <time>2021-08-19T11:55:45Z</time>
      </trkpt>
      <trkpt lat="45.3297010" lon="6.3175520">
        <ele>519.4</ele>
        <time>2021-08-19T11:55:53Z</time>
      </trkpt>
      <trkpt lat="45.3296380" lon="6.3176000">
        <ele>519.4</ele>
        <time>2021-08-19T11:55:54Z</time>
      </trkpt>
      <trkpt lat="45.3291140" lon="6.3179890">
        <ele>519.6</ele>
        <time>2021-08-19T11:56:02Z</time>
      </trkpt>
      <trkpt lat="45.3285910" lon="6.3183500">
        <ele>519.8</ele>
        <time>2021-08-19T11:56:10Z</time>
      </trkpt>
      <trkpt lat="45.3285240" lon="6.3183930">
        <ele>520.0</ele>
        <time>2021-08-19T11:56:11Z</time>
      </trkpt>
      <trkpt lat="45.3282540" lon="6.3185520">
        <ele>520.2</ele>
        <time>2021-08-19T11:56:15Z</time>
      </trkpt>
      <trkpt lat="45.3280430" lon="6.3186710">
        <ele>520.4</ele>
        <time>2021-08-19T11:56:18Z</time>
      </trkpt>
      <trkpt lat="45.3274930" lon="6.3189850">
        <ele>520.8</ele>
        <time>2021-08-19T11:56:26Z</time>
      </trkpt>
      <trkpt lat="45.3272940" lon="6.3190920">
        <ele>520.8</ele>
        <time>2021-08-19T11:56:29Z</time>
      </trkpt>
      <trkpt lat="45.3270870" lon="6.3191850">
        <ele>521.0</ele>
        <time>2021-08-19T11:56:32Z</time>
      </trkpt>
      <trkpt lat="45.3269510" lon="6.3192480">
        <ele>521.2</ele>
        <time>2021-08-19T11:56:34Z</time>
      </trkpt>
      <trkpt lat="45.3268160" lon="6.3193060">
        <ele>521.4</ele>
        <time>2021-08-19T11:56:36Z</time>
      </trkpt>
      <trkpt lat="45.3267320" lon="6.3193380">
        <ele>521.6</ele>
        <time>2021-08-19T11:56:37Z</time>
      </trkpt>
      <trkpt lat="45.3263340" lon="6.3194600">
        <ele>522.2</ele>
        <time>2021-08-19T11:56:43Z</time>
      </trkpt>
      <trkpt lat="45.3261490" lon="6.3195060">
        <ele>522.4</ele>
        <time>2021-08-19T11:56:46Z</time>
      </trkpt>
      <trkpt lat="45.3259580" lon="6.3195580">
        <ele>522.6</ele>
        <time>2021-08-19T11:56:49Z</time>
      </trkpt>
      <trkpt lat="45.3255640" lon="6.3196700">
        <ele>523.4</ele>
        <time>2021-08-19T11:56:55Z</time>
      </trkpt>
      <trkpt lat="45.3251940" lon="6.3198240">
        <ele>524.0</ele>
        <time>2021-08-19T11:57:01Z</time>
      </trkpt>
      <trkpt lat="45.3250800" lon="6.3198700">
        <ele>524.4</ele>
        <time>2021-08-19T11:57:03Z</time>
      </trkpt>
      <trkpt lat="45.3250230" lon="6.3198900">
        <ele>524.6</ele>
        <time>2021-08-19T11:57:04Z</time>
      </trkpt>
      <trkpt lat="45.3247600" lon="6.3199910">
        <ele>524.8</ele>
        <time>2021-08-19T11:57:08Z</time>
      </trkpt>
      <trkpt lat="45.3246260" lon="6.3200300">
        <ele>525.2</ele>
        <time>2021-08-19T11:57:10Z</time>
      </trkpt>
      <trkpt lat="45.3244950" lon="6.3200680">
        <ele>525.2</ele>
        <time>2021-08-19T11:57:12Z</time>
      </trkpt>
      <trkpt lat="45.3241580" lon="6.3201740">
        <ele>525.4</ele>
        <time>2021-08-19T11:57:17Z</time>
      </trkpt>
      <trkpt lat="45.3240740" lon="6.3202050">
        <ele>525.4</ele>
        <time>2021-08-19T11:57:18Z</time>
      </trkpt>
      <trkpt lat="45.3239550" lon="6.3202420">
        <ele>525.8</ele>
        <time>2021-08-19T11:57:20Z</time>
      </trkpt>
      <trkpt lat="45.3233900" lon="6.3204400">
        <ele>526.4</ele>
        <time>2021-08-19T11:57:29Z</time>
      </trkpt>
      <trkpt lat="45.3233280" lon="6.3204630">
        <ele>526.4</ele>
        <time>2021-08-19T11:57:30Z</time>
      </trkpt>
      <trkpt lat="45.3227740" lon="6.3206460">
        <ele>527.0</ele>
        <time>2021-08-19T11:57:39Z</time>
      </trkpt>
      <trkpt lat="45.3227190" lon="6.3206670">
        <ele>527.0</ele>
        <time>2021-08-19T11:57:40Z</time>
      </trkpt>
      <trkpt lat="45.3224190" lon="6.3207810">
        <ele>527.6</ele>
        <time>2021-08-19T11:57:45Z</time>
      </trkpt>
      <trkpt lat="45.3223590" lon="6.3208050">
        <ele>527.6</ele>
        <time>2021-08-19T11:57:46Z</time>
      </trkpt>
      <trkpt lat="45.3222370" lon="6.3208490">
        <ele>527.8</ele>
        <time>2021-08-19T11:57:48Z</time>
      </trkpt>
      <trkpt lat="45.3220570" lon="6.3208710">
        <ele>528.0</ele>
        <time>2021-08-19T11:57:51Z</time>
      </trkpt>
      <trkpt lat="45.3214590" lon="6.3208720">
        <ele>528.6</ele>
        <time>2021-08-19T11:58:00Z</time>
      </trkpt>
      <trkpt lat="45.3211820" lon="6.3208770">
        <ele>529.0</ele>
        <time>2021-08-19T11:58:04Z</time>
      </trkpt>
      <trkpt lat="45.3209330" lon="6.3209010">
        <ele>529.2</ele>
        <time>2021-08-19T11:58:08Z</time>
      </trkpt>
      <trkpt lat="45.3206810" lon="6.3209930">
        <ele>529.6</ele>
        <time>2021-08-19T11:58:12Z</time>
      </trkpt>
      <trkpt lat="45.3206200" lon="6.3210330">
        <ele>529.8</ele>
        <time>2021-08-19T11:58:13Z</time>
      </trkpt>
      <trkpt lat="45.3205100" lon="6.3211340">
        <ele>530.0</ele>
        <time>2021-08-19T11:58:15Z</time>
      </trkpt>
      <trkpt lat="45.3204500" lon="6.3212080">
        <ele>530.0</ele>
        <time>2021-08-19T11:58:16Z</time>
      </trkpt>
      <trkpt lat="45.3204060" lon="6.3212830">
        <ele>530.2</ele>
        <time>2021-08-19T11:58:17Z</time>
      </trkpt>
      <trkpt lat="45.3203310" lon="6.3214500">
        <ele>530.6</ele>
        <time>2021-08-19T11:58:19Z</time>
      </trkpt>
      <trkpt lat="45.3202360" lon="6.3217320">
        <ele>531.0</ele>
        <time>2021-08-19T11:58:22Z</time>
      </trkpt>
      <trkpt lat="45.3201280" lon="6.3221320">
        <ele>531.6</ele>
        <time>2021-08-19T11:58:26Z</time>
      </trkpt>
      <trkpt lat="45.3200500" lon="6.3224460">
        <ele>531.6</ele>
        <time>2021-08-19T11:58:29Z</time>
      </trkpt>
      <trkpt lat="45.3200180" lon="6.3226560">
        <ele>531.8</ele>
        <time>2021-08-19T11:58:31Z</time>
      </trkpt>
      <trkpt lat="45.3199940" lon="6.3229570">
        <ele>532.0</ele>
        <time>2021-08-19T11:58:34Z</time>
      </trkpt>
      <trkpt lat="45.3198870" lon="6.3235770">
        <ele>532.6</ele>
        <time>2021-08-19T11:58:40Z</time>
      </trkpt>
      <trkpt lat="45.3197400" lon="6.3240260">
        <ele>532.4</ele>
        <time>2021-08-19T11:58:45Z</time>
      </trkpt>
      <trkpt lat="45.3196730" lon="6.3242100">
        <ele>532.2</ele>
        <time>2021-08-19T11:58:47Z</time>
      </trkpt>
      <trkpt lat="45.3195080" lon="6.3246500">
        <ele>531.6</ele>
        <time>2021-08-19T11:58:52Z</time>
      </trkpt>
      <trkpt lat="45.3193800" lon="6.3250000">
        <ele>531.6</ele>
        <time>2021-08-19T11:58:56Z</time>
      </trkpt>
      <trkpt lat="45.3192210" lon="6.3254170">
        <ele>531.8</ele>
        <time>2021-08-19T11:59:01Z</time>
      </trkpt>
      <trkpt lat="45.3190970" lon="6.3257310">
        <ele>532.0</ele>
        <time>2021-08-19T11:59:05Z</time>
      </trkpt>
      <trkpt lat="45.3189900" lon="6.3259650">
        <ele>532.2</ele>
        <time>2021-08-19T11:59:08Z</time>
      </trkpt>
      <trkpt lat="45.3188070" lon="6.3263560">
        <ele>532.4</ele>
        <time>2021-08-19T11:59:13Z</time>
      </trkpt>
      <trkpt lat="45.3187650" lon="6.3264330">
        <ele>532.4</ele>
        <time>2021-08-19T11:59:14Z</time>
      </trkpt>
      <trkpt lat="45.3186770" lon="6.3266090">
        <ele>532.6</ele>
        <time>2021-08-19T11:59:16Z</time>
      </trkpt>
      <trkpt lat="45.3185910" lon="6.3267720">
        <ele>532.8</ele>
        <time>2021-08-19T11:59:18Z</time>
      </trkpt>
      <trkpt lat="45.3185460" lon="6.3268520">
        <ele>532.8</ele>
        <time>2021-08-19T11:59:19Z</time>
      </trkpt>
      <trkpt lat="45.3184660" lon="6.3270100">
        <ele>532.8</ele>
        <time>2021-08-19T11:59:21Z</time>
      </trkpt>
      <trkpt lat="45.3184180" lon="6.3270950">
        <ele>532.8</ele>
        <time>2021-08-19T11:59:22Z</time>
      </trkpt>
      <trkpt lat="45.3183310" lon="6.3272430">
        <ele>532.8</ele>
        <time>2021-08-19T11:59:24Z</time>
      </trkpt>
      <trkpt lat="45.3182750" lon="6.3273260">
        <ele>532.8</ele>
        <time>2021-08-19T11:59:25Z</time>
      </trkpt>
      <trkpt lat="45.3181880" lon="6.3274860">
        <ele>533.0</ele>
        <time>2021-08-19T11:59:27Z</time>
      </trkpt>
      <trkpt lat="45.3181060" lon="6.3276550">
        <ele>533.0</ele>
        <time>2021-08-19T11:59:29Z</time>
      </trkpt>
      <trkpt lat="45.3179760" lon="6.3278990">
        <ele>533.4</ele>
        <time>2021-08-19T11:59:32Z</time>
      </trkpt>
      <trkpt lat="45.3177670" lon="6.3282970">
        <ele>534.2</ele>
        <time>2021-08-19T11:59:37Z</time>
      </trkpt>
      <trkpt lat="45.3177230" lon="6.3283780">
        <ele>534.4</ele>
        <time>2021-08-19T11:59:38Z</time>
      </trkpt>
      <trkpt lat="45.3176330" lon="6.3285390">
        <ele>534.8</ele>
        <time>2021-08-19T11:59:40Z</time>
      </trkpt>
      <trkpt lat="45.3175870" lon="6.3286180">
        <ele>534.8</ele>
        <time>2021-08-19T11:59:41Z</time>
      </trkpt>
      <trkpt lat="45.3175450" lon="6.3287000">
        <ele>534.8</ele>
        <time>2021-08-19T11:59:42Z</time>
      </trkpt>
      <trkpt lat="45.3174220" lon="6.3289410">
        <ele>535.2</ele>
        <time>2021-08-19T11:59:45Z</time>
      </trkpt>
      <trkpt lat="45.3173230" lon="6.3291150">
        <ele>535.6</ele>
        <time>2021-08-19T11:59:47Z</time>
      </trkpt>
      <trkpt lat="45.3172900" lon="6.3291760">
        <ele>535.8</ele>
        <time>2021-08-19T11:59:48Z</time>
      </trkpt>
      <trkpt lat="45.3171130" lon="6.3295050">
        <ele>536.2</ele>
        <time>2021-08-19T11:59:52Z</time>
      </trkpt>
      <trkpt lat="45.3169950" lon="6.3297570">
        <ele>536.4</ele>
        <time>2021-08-19T11:59:55Z</time>
      </trkpt>
      <trkpt lat="45.3168390" lon="6.3301070">
        <ele>536.8</ele>
        <time>2021-08-19T11:59:59Z</time>
      </trkpt>
      <trkpt lat="45.3167380" lon="6.3303650">
        <ele>537.2</ele>
        <time>2021-08-19T12:00:02Z</time>
      </trkpt>
      <trkpt lat="45.3164540" lon="6.3310940">
        <ele>537.6</ele>
        <time>2021-08-19T12:00:10Z</time>
      </trkpt>
      <trkpt lat="45.3162020" lon="6.3317990">
        <ele>537.8</ele>
        <time>2021-08-19T12:00:18Z</time>
      </trkpt>
      <trkpt lat="45.3160140" lon="6.3322520">
        <ele>538.0</ele>
        <time>2021-08-19T12:00:23Z</time>
      </trkpt>
      <trkpt lat="45.3159810" lon="6.3323350">
        <ele>538.2</ele>
        <time>2021-08-19T12:00:24Z</time>
      </trkpt>
      <trkpt lat="45.3159380" lon="6.3324380">
        <ele>538.2</ele>
        <time>2021-08-19T12:00:25Z</time>
      </trkpt>
      <trkpt lat="45.3156950" lon="6.3329850">
        <ele>539.0</ele>
        <time>2021-08-19T12:00:31Z</time>
      </trkpt>
      <trkpt lat="45.3156640" lon="6.3330590">
        <ele>539.0</ele>
        <time>2021-08-19T12:00:32Z</time>
      </trkpt>
      <trkpt lat="45.3154120" lon="6.3336630">
        <ele>539.8</ele>
        <time>2021-08-19T12:00:39Z</time>
      </trkpt>
      <trkpt lat="45.3153110" lon="6.3339140">
        <ele>540.2</ele>
        <time>2021-08-19T12:00:42Z</time>
      </trkpt>
      <trkpt lat="45.3151470" lon="6.3343230">
        <ele>540.6</ele>
        <time>2021-08-19T12:00:47Z</time>
      </trkpt>
      <trkpt lat="45.3149840" lon="6.3347270">
        <ele>541.2</ele>
        <time>2021-08-19T12:00:52Z</time>
      </trkpt>
      <trkpt lat="45.3148790" lon="6.3349680">
        <ele>542.2</ele>
        <time>2021-08-19T12:00:55Z</time>
      </trkpt>
      <trkpt lat="45.3148460" lon="6.3350460">
        <ele>542.6</ele>
        <time>2021-08-19T12:00:56Z</time>
      </trkpt>
      <trkpt lat="45.3147550" lon="6.3352790">
        <ele>543.0</ele>
        <time>2021-08-19T12:00:59Z</time>
      </trkpt>
      <trkpt lat="45.3145870" lon="6.3356460">
        <ele>543.4</ele>
        <time>2021-08-19T12:01:04Z</time>
      </trkpt>
      <trkpt lat="45.3145540" lon="6.3357160">
        <ele>543.4</ele>
        <time>2021-08-19T12:01:05Z</time>
      </trkpt>
      <trkpt lat="45.3145200" lon="6.3357820">
        <ele>543.6</ele>
        <time>2021-08-19T12:01:06Z</time>
      </trkpt>
      <trkpt lat="45.3144050" lon="6.3360380">
        <ele>544.0</ele>
        <time>2021-08-19T12:01:10Z</time>
      </trkpt>
      <trkpt lat="45.3143770" lon="6.3360980">
        <ele>544.2</ele>
        <time>2021-08-19T12:01:11Z</time>
      </trkpt>
      <trkpt lat="45.3142770" lon="6.3363170">
        <ele>544.6</ele>
        <time>2021-08-19T12:01:15Z</time>
      </trkpt>
      <trkpt lat="45.3141730" lon="6.3365410">
        <ele>544.8</ele>
        <time>2021-08-19T12:01:19Z</time>
      </trkpt>
      <trkpt lat="45.3139990" lon="6.3368980">
        <ele>545.0</ele>
        <time>2021-08-19T12:01:25Z</time>
      </trkpt>
      <trkpt lat="45.3139230" lon="6.3370520">
        <ele>545.2</ele>
        <time>2021-08-19T12:01:28Z</time>
      </trkpt>
      <trkpt lat="45.3138050" lon="6.3372830">
        <ele>545.8</ele>
        <time>2021-08-19T12:01:32Z</time>
      </trkpt>
      <trkpt lat="45.3137700" lon="6.3373430">
        <ele>546.0</ele>
        <time>2021-08-19T12:01:33Z</time>
      </trkpt>
      <trkpt lat="45.3136690" lon="6.3375270">
        <ele>546.2</ele>
        <time>2021-08-19T12:01:36Z</time>
      </trkpt>
      <trkpt lat="45.3134200" lon="6.3379760">
        <ele>546.8</ele>
        <time>2021-08-19T12:01:43Z</time>
      </trkpt>
      <trkpt lat="45.3133860" lon="6.3380370">
        <ele>547.0</ele>
        <time>2021-08-19T12:01:44Z</time>
      </trkpt>
      <trkpt lat="45.3130930" lon="6.3385750">
        <ele>547.8</ele>
        <time>2021-08-19T12:01:52Z</time>
      </trkpt>
      <trkpt lat="45.3130530" lon="6.3386420">
        <ele>548.0</ele>
        <time>2021-08-19T12:01:53Z</time>
      </trkpt>
      <trkpt lat="45.3130160" lon="6.3387100">
        <ele>548.0</ele>
        <time>2021-08-19T12:01:54Z</time>
      </trkpt>
      <trkpt lat="45.3128640" lon="6.3389680">
        <ele>548.6</ele>
        <time>2021-08-19T12:01:58Z</time>
      </trkpt>
      <trkpt lat="45.3127420" lon="6.3391530">
        <ele>548.8</ele>
        <time>2021-08-19T12:02:01Z</time>
      </trkpt>
      <trkpt lat="45.3127000" lon="6.3392160">
        <ele>549.0</ele>
        <time>2021-08-19T12:02:02Z</time>
      </trkpt>
      <trkpt lat="45.3126590" lon="6.3392790">
        <ele>549.2</ele>
        <time>2021-08-19T12:02:03Z</time>
      </trkpt>
      <trkpt lat="45.3126190" lon="6.3393380">
        <ele>549.4</ele>
        <time>2021-08-19T12:02:04Z</time>
      </trkpt>
      <trkpt lat="45.3125810" lon="6.3393990">
        <ele>549.8</ele>
        <time>2021-08-19T12:02:05Z</time>
      </trkpt>
      <trkpt lat="45.3125470" lon="6.3394580">
        <ele>549.6</ele>
        <time>2021-08-19T12:02:06Z</time>
      </trkpt>
      <trkpt lat="45.3125160" lon="6.3395160">
        <ele>549.6</ele>
        <time>2021-08-19T12:02:07Z</time>
      </trkpt>
      <trkpt lat="45.3124880" lon="6.3395750">
        <ele>550.0</ele>
        <time>2021-08-19T12:02:08Z</time>
      </trkpt>
      <trkpt lat="45.3124510" lon="6.3396360">
        <ele>550.6</ele>
        <time>2021-08-19T12:02:09Z</time>
      </trkpt>
      <trkpt lat="45.3122690" lon="6.3398710">
        <ele>551.6</ele>
        <time>2021-08-19T12:02:13Z</time>
      </trkpt>
      <trkpt lat="45.3122190" lon="6.3399300">
        <ele>551.8</ele>
        <time>2021-08-19T12:02:14Z</time>
      </trkpt>
      <trkpt lat="45.3120370" lon="6.3401640">
        <ele>552.4</ele>
        <time>2021-08-19T12:02:18Z</time>
      </trkpt>
      <trkpt lat="45.3119360" lon="6.3402720">
        <ele>552.6</ele>
        <time>2021-08-19T12:02:20Z</time>
      </trkpt>
      <trkpt lat="45.3118860" lon="6.3403260">
        <ele>552.8</ele>
        <time>2021-08-19T12:02:21Z</time>
      </trkpt>
      <trkpt lat="45.3116780" lon="6.3405590">
        <ele>553.2</ele>
        <time>2021-08-19T12:02:25Z</time>
      </trkpt>
      <trkpt lat="45.3114690" lon="6.3407910">
        <ele>553.2</ele>
        <time>2021-08-19T12:02:29Z</time>
      </trkpt>
      <trkpt lat="45.3110960" lon="6.3412170">
        <ele>553.8</ele>
        <time>2021-08-19T12:02:36Z</time>
      </trkpt>
      <trkpt lat="45.3109790" lon="6.3413410">
        <ele>553.8</ele>
        <time>2021-08-19T12:02:38Z</time>
      </trkpt>
      <trkpt lat="45.3108060" lon="6.3415330">
        <ele>554.0</ele>
        <time>2021-08-19T12:02:41Z</time>
      </trkpt>
      <trkpt lat="45.3105710" lon="6.3418020">
        <ele>554.2</ele>
        <time>2021-08-19T12:02:45Z</time>
      </trkpt>
      <trkpt lat="45.3104480" lon="6.3419400">
        <ele>554.0</ele>
        <time>2021-08-19T12:02:47Z</time>
      </trkpt>
      <trkpt lat="45.3100200" lon="6.3424170">
        <ele>554.0</ele>
        <time>2021-08-19T12:02:54Z</time>
      </trkpt>
      <trkpt lat="45.3095450" lon="6.3429510">
        <ele>554.2</ele>
        <time>2021-08-19T12:03:02Z</time>
      </trkpt>
      <trkpt lat="45.3091090" lon="6.3434470">
        <ele>554.2</ele>
        <time>2021-08-19T12:03:09Z</time>
      </trkpt>
      <trkpt lat="45.3090610" lon="6.3435010">
        <ele>554.2</ele>
        <time>2021-08-19T12:03:10Z</time>
      </trkpt>
      <trkpt lat="45.3087630" lon="6.3438500">
        <ele>554.2</ele>
        <time>2021-08-19T12:03:15Z</time>
      </trkpt>
      <trkpt lat="45.3085860" lon="6.3440380">
        <ele>554.2</ele>
        <time>2021-08-19T12:03:18Z</time>
      </trkpt>
      <trkpt lat="45.3081810" lon="6.3445100">
        <ele>554.8</ele>
        <time>2021-08-19T12:03:25Z</time>
      </trkpt>
      <trkpt lat="45.3079500" lon="6.3447820">
        <ele>555.2</ele>
        <time>2021-08-19T12:03:29Z</time>
      </trkpt>
      <trkpt lat="45.3078970" lon="6.3448490">
        <ele>555.2</ele>
        <time>2021-08-19T12:03:30Z</time>
      </trkpt>
      <trkpt lat="45.3078410" lon="6.3449150">
        <ele>555.2</ele>
        <time>2021-08-19T12:03:31Z</time>
      </trkpt>
      <trkpt lat="45.3073950" lon="6.3454230">
        <ele>555.8</ele>
        <time>2021-08-19T12:03:39Z</time>
      </trkpt>
      <trkpt lat="45.3070760" lon="6.3457860">
        <ele>556.4</ele>
        <time>2021-08-19T12:03:45Z</time>
      </trkpt>
      <trkpt lat="45.3069690" lon="6.3459070">
        <ele>556.4</ele>
        <time>2021-08-19T12:03:47Z</time>
      </trkpt>
      <trkpt lat="45.3065240" lon="6.3464000">
        <ele>557.4</ele>
        <time>2021-08-19T12:03:55Z</time>
      </trkpt>
      <trkpt lat="45.3064160" lon="6.3465240">
        <ele>557.4</ele>
        <time>2021-08-19T12:03:57Z</time>
      </trkpt>
      <trkpt lat="45.3062550" lon="6.3466960">
        <ele>557.8</ele>
        <time>2021-08-19T12:04:00Z</time>
      </trkpt>
      <trkpt lat="45.3060310" lon="6.3469660">
        <ele>558.0</ele>
        <time>2021-08-19T12:04:04Z</time>
      </trkpt>
      <trkpt lat="45.3059940" lon="6.3470140">
        <ele>558.0</ele>
        <time>2021-08-19T12:04:05Z</time>
      </trkpt>
      <trkpt lat="45.3058860" lon="6.3471480">
        <ele>558.4</ele>
        <time>2021-08-19T12:04:07Z</time>
      </trkpt>
      <trkpt lat="45.3056750" lon="6.3473900">
        <ele>558.8</ele>
        <time>2021-08-19T12:04:11Z</time>
      </trkpt>
      <trkpt lat="45.3052810" lon="6.3478140">
        <ele>559.2</ele>
        <time>2021-08-19T12:04:18Z</time>
      </trkpt>
      <trkpt lat="45.3048360" lon="6.3483150">
        <ele>559.8</ele>
        <time>2021-08-19T12:04:26Z</time>
      </trkpt>
      <trkpt lat="45.3044400" lon="6.3487860">
        <ele>559.8</ele>
        <time>2021-08-19T12:04:33Z</time>
      </trkpt>
      <trkpt lat="45.3043220" lon="6.3489220">
        <ele>559.8</ele>
        <time>2021-08-19T12:04:35Z</time>
      </trkpt>
      <trkpt lat="45.3042650" lon="6.3489920">
        <ele>559.8</ele>
        <time>2021-08-19T12:04:36Z</time>
      </trkpt>
      <trkpt lat="45.3037850" lon="6.3495250">
        <ele>560.2</ele>
        <time>2021-08-19T12:04:44Z</time>
      </trkpt>
      <trkpt lat="45.3033510" lon="6.3499910">
        <ele>560.6</ele>
        <time>2021-08-19T12:04:51Z</time>
      </trkpt>
      <trkpt lat="45.3030570" lon="6.3503130">
        <ele>560.8</ele>
        <time>2021-08-19T12:04:56Z</time>
      </trkpt>
      <trkpt lat="45.3030000" lon="6.3503800">
        <ele>561.0</ele>
        <time>2021-08-19T12:04:57Z</time>
      </trkpt>
      <trkpt lat="45.3029420" lon="6.3504430">
        <ele>561.0</ele>
        <time>2021-08-19T12:04:58Z</time>
      </trkpt>
      <trkpt lat="45.3027140" lon="6.3506860">
        <ele>562.4</ele>
        <time>2021-08-19T12:05:02Z</time>
      </trkpt>
      <trkpt lat="45.3024920" lon="6.3509340">
        <ele>563.0</ele>
        <time>2021-08-19T12:05:06Z</time>
      </trkpt>
      <trkpt lat="45.3022250" lon="6.3512030">
        <ele>563.4</ele>
        <time>2021-08-19T12:05:11Z</time>
      </trkpt>
      <trkpt lat="45.3019480" lon="6.3515420">
        <ele>563.8</ele>
        <time>2021-08-19T12:05:16Z</time>
      </trkpt>
      <trkpt lat="45.3017160" lon="6.3517850">
        <ele>563.8</ele>
        <time>2021-08-19T12:05:20Z</time>
      </trkpt>
      <trkpt lat="45.3015440" lon="6.3519440">
        <ele>564.0</ele>
        <time>2021-08-19T12:05:23Z</time>
      </trkpt>
      <trkpt lat="45.3012670" lon="6.3521890">
        <ele>564.2</ele>
        <time>2021-08-19T12:05:28Z</time>
      </trkpt>
      <trkpt lat="45.3010450" lon="6.3523880">
        <ele>564.6</ele>
        <time>2021-08-19T12:05:32Z</time>
      </trkpt>
      <trkpt lat="45.3009110" lon="6.3524940">
        <ele>565.0</ele>
        <time>2021-08-19T12:05:34Z</time>
      </trkpt>
      <trkpt lat="45.3008160" lon="6.3525760">
        <ele>564.8</ele>
        <time>2021-08-19T12:05:36Z</time>
      </trkpt>
      <trkpt lat="45.3006670" lon="6.3527210">
        <ele>565.4</ele>
        <time>2021-08-19T12:05:39Z</time>
      </trkpt>
      <trkpt lat="45.3005050" lon="6.3528630">
        <ele>565.8</ele>
        <time>2021-08-19T12:05:42Z</time>
      </trkpt>
      <trkpt lat="45.3003210" lon="6.3529910">
        <ele>566.0</ele>
        <time>2021-08-19T12:05:45Z</time>
      </trkpt>
      <trkpt lat="45.2999200" lon="6.3532280">
        <ele>566.6</ele>
        <time>2021-08-19T12:05:51Z</time>
      </trkpt>
      <trkpt lat="45.2993730" lon="6.3535430">
        <ele>566.6</ele>
        <time>2021-08-19T12:05:59Z</time>
      </trkpt>
      <trkpt lat="45.2992390" lon="6.3536200">
        <ele>566.8</ele>
        <time>2021-08-19T12:06:01Z</time>
      </trkpt>
      <trkpt lat="45.2990460" lon="6.3537280">
        <ele>567.0</ele>
        <time>2021-08-19T12:06:03Z</time>
      </trkpt>
      <trkpt lat="45.2988810" lon="6.3538360">
        <ele>567.6</ele>
        <time>2021-08-19T12:06:06Z</time>
      </trkpt>
      <trkpt lat="45.2988500" lon="6.3538540">
        <ele>567.8</ele>
        <time>2021-08-19T12:06:07Z</time>
      </trkpt>
      <trkpt lat="45.2988180" lon="6.3538710">
        <ele>568.2</ele>
        <time>2021-08-19T12:06:08Z</time>
      </trkpt>
      <trkpt lat="45.2985010" lon="6.3540470">
        <ele>569.6</ele>
        <time>2021-08-19T12:06:13Z</time>
      </trkpt>
      <trkpt lat="45.2985010" lon="6.3540470">
        <ele>569.8</ele>
        <time>2021-08-19T12:06:14Z</time>
      </trkpt>
      <trkpt lat="45.2982940" lon="6.3541490">
        <ele>570.8</ele>
        <time>2021-08-19T12:06:17Z</time>
      </trkpt>
      <trkpt lat="45.2980820" lon="6.3542490">
        <ele>571.8</ele>
        <time>2021-08-19T12:06:21Z</time>
      </trkpt>
      <trkpt lat="45.2980820" lon="6.3542490">
        <ele>572.0</ele>
        <time>2021-08-19T12:06:22Z</time>
      </trkpt>
      <trkpt lat="45.2978670" lon="6.3543430">
        <ele>572.4</ele>
        <time>2021-08-19T12:06:26Z</time>
      </trkpt>
      <trkpt lat="45.2975260" lon="6.3544720">
        <ele>572.8</ele>
        <time>2021-08-19T12:06:31Z</time>
      </trkpt>
      <trkpt lat="45.2974060" lon="6.3545120">
        <ele>573.0</ele>
        <time>2021-08-19T12:06:33Z</time>
      </trkpt>
      <trkpt lat="45.2969800" lon="6.3546320">
        <ele>572.8</ele>
        <time>2021-08-19T12:06:40Z</time>
      </trkpt>
      <trkpt lat="45.2964700" lon="6.3547220">
        <ele>573.2</ele>
        <time>2021-08-19T12:06:48Z</time>
      </trkpt>
      <trkpt lat="45.2961120" lon="6.3546480">
        <ele>573.8</ele>
        <time>2021-08-19T12:06:54Z</time>
      </trkpt>
      <trkpt lat="45.2959060" lon="6.3545840">
        <ele>574.4</ele>
        <time>2021-08-19T12:06:58Z</time>
      </trkpt>
      <trkpt lat="45.2958020" lon="6.3545500">
        <ele>574.8</ele>
        <time>2021-08-19T12:07:00Z</time>
      </trkpt>
      <trkpt lat="45.2955900" lon="6.3544890">
        <ele>575.6</ele>
        <time>2021-08-19T12:07:05Z</time>
      </trkpt>
      <trkpt lat="45.2953110" lon="6.3544720">
        <ele>576.2</ele>
        <time>2021-08-19T12:07:09Z</time>
      </trkpt>
      <trkpt lat="45.2948870" lon="6.3545390">
        <ele>576.6</ele>
        <time>2021-08-19T12:07:16Z</time>
      </trkpt>
      <trkpt lat="45.2946310" lon="6.3545920">
        <ele>577.0</ele>
        <time>2021-08-19T12:07:20Z</time>
      </trkpt>
      <trkpt lat="45.2943880" lon="6.3546370">
        <ele>577.6</ele>
        <time>2021-08-19T12:07:24Z</time>
      </trkpt>
      <trkpt lat="45.2943280" lon="6.3546440">
        <ele>577.6</ele>
        <time>2021-08-19T12:07:25Z</time>
      </trkpt>
      <trkpt lat="45.2942250" lon="6.3546050">
        <ele>577.4</ele>
        <time>2021-08-19T12:07:27Z</time>
      </trkpt>
      <trkpt lat="45.2941560" lon="6.3544830">
        <ele>577.4</ele>
        <time>2021-08-19T12:07:29Z</time>
      </trkpt>
      <trkpt lat="45.2941030" lon="6.3543280">
        <ele>577.4</ele>
        <time>2021-08-19T12:07:31Z</time>
      </trkpt>
      <trkpt lat="45.2940790" lon="6.3542450">
        <ele>577.2</ele>
        <time>2021-08-19T12:07:32Z</time>
      </trkpt>
      <trkpt lat="45.2940450" lon="6.3540610">
        <ele>577.0</ele>
        <time>2021-08-19T12:07:34Z</time>
      </trkpt>
      <trkpt lat="45.2940180" lon="6.3538690">
        <ele>576.8</ele>
        <time>2021-08-19T12:07:36Z</time>
      </trkpt>
      <trkpt lat="45.2939120" lon="6.3531950">
        <ele>576.2</ele>
        <time>2021-08-19T12:07:44Z</time>
      </trkpt>
      <trkpt lat="45.2938300" lon="6.3529090">
        <ele>576.0</ele>
        <time>2021-08-19T12:07:46Z</time>
      </trkpt>
      <trkpt lat="45.2937510" lon="6.3527260">
        <ele>576.0</ele>
        <time>2021-08-19T12:07:48Z</time>
      </trkpt>
      <trkpt lat="45.2937050" lon="6.3526390">
        <ele>575.6</ele>
        <time>2021-08-19T12:07:49Z</time>
      </trkpt>
      <trkpt lat="45.2935140" lon="6.3524500">
        <ele>575.4</ele>
        <time>2021-08-19T12:07:52Z</time>
      </trkpt>
      <trkpt lat="45.2932190" lon="6.3522800">
        <ele>575.2</ele>
        <time>2021-08-19T12:07:56Z</time>
      </trkpt>
      <trkpt lat="45.2931420" lon="6.3522610">
        <ele>575.0</ele>
        <time>2021-08-19T12:07:57Z</time>
      </trkpt>
      <trkpt lat="45.2928300" lon="6.3522720">
        <ele>574.6</ele>
        <time>2021-08-19T12:08:01Z</time>
      </trkpt>
      <trkpt lat="45.2927700" lon="6.3522910">
        <ele>574.4</ele>
        <time>2021-08-19T12:08:02Z</time>
      </trkpt>
      <trkpt lat="45.2926920" lon="6.3523250">
        <ele>574.4</ele>
        <time>2021-08-19T12:08:03Z</time>
      </trkpt>
      <trkpt lat="45.2925550" lon="6.3524110">
        <ele>574.0</ele>
        <time>2021-08-19T12:08:06Z</time>
      </trkpt>
      <trkpt lat="45.2924780" lon="6.3524660">
        <ele>573.8</ele>
        <time>2021-08-19T12:08:07Z</time>
      </trkpt>
      <trkpt lat="45.2920920" lon="6.3527400">
        <ele>573.6</ele>
        <time>2021-08-19T12:08:12Z</time>
      </trkpt>
      <trkpt lat="45.2920920" lon="6.3527400">
        <ele>573.8</ele>
        <time>2021-08-19T12:08:13Z</time>
      </trkpt>
      <trkpt lat="45.2916740" lon="6.3530030">
        <ele>574.6</ele>
        <time>2021-08-19T12:08:19Z</time>
      </trkpt>
      <trkpt lat="45.2915540" lon="6.3530380">
        <ele>575.0</ele>
        <time>2021-08-19T12:08:21Z</time>
      </trkpt>
      <trkpt lat="45.2913510" lon="6.3530740">
        <ele>575.4</ele>
        <time>2021-08-19T12:08:24Z</time>
      </trkpt>
      <trkpt lat="45.2912320" lon="6.3530760">
        <ele>575.4</ele>
        <time>2021-08-19T12:08:26Z</time>
      </trkpt>
      <trkpt lat="45.2910980" lon="6.3530720">
        <ele>575.6</ele>
        <time>2021-08-19T12:08:28Z</time>
      </trkpt>
      <trkpt lat="45.2910280" lon="6.3530680">
        <ele>576.0</ele>
        <time>2021-08-19T12:08:29Z</time>
      </trkpt>
      <trkpt lat="45.2907670" lon="6.3530570">
        <ele>576.0</ele>
        <time>2021-08-19T12:08:33Z</time>
      </trkpt>
      <trkpt lat="45.2906910" lon="6.3530500">
        <ele>576.2</ele>
        <time>2021-08-19T12:08:34Z</time>
      </trkpt>
      <trkpt lat="45.2906420" lon="6.3530440">
        <ele>576.2</ele>
        <time>2021-08-19T12:08:35Z</time>
      </trkpt>
      <trkpt lat="45.2905430" lon="6.3530410">
        <ele>576.2</ele>
        <time>2021-08-19T12:08:36Z</time>
      </trkpt>
      <trkpt lat="45.2904430" lon="6.3530390">
        <ele>576.2</ele>
        <time>2021-08-19T12:08:38Z</time>
      </trkpt>
      <trkpt lat="45.2903700" lon="6.3530430">
        <ele>576.2</ele>
        <time>2021-08-19T12:08:40Z</time>
      </trkpt>
      <trkpt lat="45.2903030" lon="6.3530360">
        <ele>576.4</ele>
        <time>2021-08-19T12:08:41Z</time>
      </trkpt>
      <trkpt lat="45.2901690" lon="6.3530210">
        <ele>576.6</ele>
        <time>2021-08-19T12:08:43Z</time>
      </trkpt>
      <trkpt lat="45.2898320" lon="6.3529990">
        <ele>577.2</ele>
        <time>2021-08-19T12:08:48Z</time>
      </trkpt>
      <trkpt lat="45.2896800" lon="6.3529950">
        <ele>577.4</ele>
        <time>2021-08-19T12:08:49Z</time>
      </trkpt>
      <trkpt lat="45.2895410" lon="6.3529840">
        <ele>578.2</ele>
        <time>2021-08-19T12:08:51Z</time>
      </trkpt>
      <trkpt lat="45.2889190" lon="6.3529770">
        <ele>578.2</ele>
        <time>2021-08-19T12:09:00Z</time>
      </trkpt>
      <trkpt lat="45.2887200" lon="6.3529690">
        <ele>578.2</ele>
        <time>2021-08-19T12:09:03Z</time>
      </trkpt>
      <trkpt lat="45.2885200" lon="6.3529500">
        <ele>578.6</ele>
        <time>2021-08-19T12:09:06Z</time>
      </trkpt>
      <trkpt lat="45.2884510" lon="6.3529500">
        <ele>578.6</ele>
        <time>2021-08-19T12:09:07Z</time>
      </trkpt>
      <trkpt lat="45.2883840" lon="6.3529500">
        <ele>578.6</ele>
        <time>2021-08-19T12:09:08Z</time>
      </trkpt>
      <trkpt lat="45.2883170" lon="6.3529460">
        <ele>579.0</ele>
        <time>2021-08-19T12:09:09Z</time>
      </trkpt>
      <trkpt lat="45.2879800" lon="6.3529270">
        <ele>579.4</ele>
        <time>2021-08-19T12:09:14Z</time>
      </trkpt>
      <trkpt lat="45.2878450" lon="6.3529230">
        <ele>579.8</ele>
        <time>2021-08-19T12:09:16Z</time>
      </trkpt>
      <trkpt lat="45.2875690" lon="6.3529160">
        <ele>580.4</ele>
        <time>2021-08-19T12:09:20Z</time>
      </trkpt>
      <trkpt lat="45.2870860" lon="6.3528090">
        <ele>580.6</ele>
        <time>2021-08-19T12:09:27Z</time>
      </trkpt>
      <trkpt lat="45.2867820" lon="6.3525570">
        <ele>580.6</ele>
        <time>2021-08-19T12:09:32Z</time>
      </trkpt>
      <trkpt lat="45.2866630" lon="6.3524430">
        <ele>580.6</ele>
        <time>2021-08-19T12:09:34Z</time>
      </trkpt>
      <trkpt lat="45.2866050" lon="6.3523840">
        <ele>580.6</ele>
        <time>2021-08-19T12:09:35Z</time>
      </trkpt>
      <trkpt lat="45.2864900" lon="6.3522650">
        <ele>580.6</ele>
        <time>2021-08-19T12:09:37Z</time>
      </trkpt>
      <trkpt lat="45.2863650" lon="6.3521520">
        <ele>581.0</ele>
        <time>2021-08-19T12:09:39Z</time>
      </trkpt>
      <trkpt lat="45.2863350" lon="6.3521240">
        <ele>581.0</ele>
        <time>2021-08-19T12:09:40Z</time>
      </trkpt>
      <trkpt lat="45.2863050" lon="6.3520960">
        <ele>581.4</ele>
        <time>2021-08-19T12:09:41Z</time>
      </trkpt>
      <trkpt lat="45.2862440" lon="6.3520400">
        <ele>581.4</ele>
        <time>2021-08-19T12:09:42Z</time>
      </trkpt>
      <trkpt lat="45.2860030" lon="6.3518000">
        <ele>581.8</ele>
        <time>2021-08-19T12:09:45Z</time>
      </trkpt>
      <trkpt lat="45.2857040" lon="6.3515040">
        <ele>581.8</ele>
        <time>2021-08-19T12:09:50Z</time>
      </trkpt>
      <trkpt lat="45.2856430" lon="6.3514470">
        <ele>581.8</ele>
        <time>2021-08-19T12:09:51Z</time>
      </trkpt>
      <trkpt lat="45.2855800" lon="6.3513920">
        <ele>582.0</ele>
        <time>2021-08-19T12:09:52Z</time>
      </trkpt>
      <trkpt lat="45.2855190" lon="6.3513370">
        <ele>582.0</ele>
        <time>2021-08-19T12:09:53Z</time>
      </trkpt>
      <trkpt lat="45.2852120" lon="6.3510390">
        <ele>582.6</ele>
        <time>2021-08-19T12:09:58Z</time>
      </trkpt>
      <trkpt lat="45.2850920" lon="6.3509250">
        <ele>582.8</ele>
        <time>2021-08-19T12:10:00Z</time>
      </trkpt>
      <trkpt lat="45.2850340" lon="6.3508670">
        <ele>583.0</ele>
        <time>2021-08-19T12:10:02Z</time>
      </trkpt>
      <trkpt lat="45.2848610" lon="6.3506980">
        <ele>583.2</ele>
        <time>2021-08-19T12:10:04Z</time>
      </trkpt>
      <trkpt lat="45.2848060" lon="6.3506440">
        <ele>583.2</ele>
        <time>2021-08-19T12:10:05Z</time>
      </trkpt>
      <trkpt lat="45.2846400" lon="6.3504750">
        <ele>583.8</ele>
        <time>2021-08-19T12:10:08Z</time>
      </trkpt>
      <trkpt lat="45.2845340" lon="6.3503700">
        <ele>584.6</ele>
        <time>2021-08-19T12:10:11Z</time>
      </trkpt>
      <trkpt lat="45.2842860" lon="6.3501250">
        <ele>585.8</ele>
        <time>2021-08-19T12:10:15Z</time>
      </trkpt>
      <trkpt lat="45.2842350" lon="6.3500760">
        <ele>586.0</ele>
        <time>2021-08-19T12:10:17Z</time>
      </trkpt>
      <trkpt lat="45.2839880" lon="6.3498370">
        <ele>586.4</ele>
        <time>2021-08-19T12:10:21Z</time>
      </trkpt>
      <trkpt lat="45.2838450" lon="6.3496870">
        <ele>587.0</ele>
        <time>2021-08-19T12:10:24Z</time>
      </trkpt>
      <trkpt lat="45.2838050" lon="6.3496500">
        <ele>587.0</ele>
        <time>2021-08-19T12:10:25Z</time>
      </trkpt>
      <trkpt lat="45.2836060" lon="6.3494550">
        <ele>588.2</ele>
        <time>2021-08-19T12:10:29Z</time>
      </trkpt>
      <trkpt lat="45.2835690" lon="6.3494160">
        <ele>588.4</ele>
        <time>2021-08-19T12:10:30Z</time>
      </trkpt>
      <trkpt lat="45.2835440" lon="6.3493900">
        <ele>588.6</ele>
        <time>2021-08-19T12:10:31Z</time>
      </trkpt>
      <trkpt lat="45.2835180" lon="6.3493640">
        <ele>588.8</ele>
        <time>2021-08-19T12:10:32Z</time>
      </trkpt>
      <trkpt lat="45.2833140" lon="6.3491540">
        <ele>589.2</ele>
        <time>2021-08-19T12:10:36Z</time>
      </trkpt>
      <trkpt lat="45.2832710" lon="6.3491100">
        <ele>589.2</ele>
        <time>2021-08-19T12:10:37Z</time>
      </trkpt>
      <trkpt lat="45.2831580" lon="6.3489850">
        <ele>589.6</ele>
        <time>2021-08-19T12:10:40Z</time>
      </trkpt>
      <trkpt lat="45.2831230" lon="6.3489430">
        <ele>589.6</ele>
        <time>2021-08-19T12:10:41Z</time>
      </trkpt>
      <trkpt lat="45.2830100" lon="6.3488250">
        <ele>590.4</ele>
        <time>2021-08-19T12:10:44Z</time>
      </trkpt>
      <trkpt lat="45.2829420" lon="6.3487490">
        <ele>591.0</ele>
        <time>2021-08-19T12:10:46Z</time>
      </trkpt>
      <trkpt lat="45.2829060" lon="6.3487190">
        <ele>591.4</ele>
        <time>2021-08-19T12:10:47Z</time>
      </trkpt>
      <trkpt lat="45.2828730" lon="6.3486860">
        <ele>591.6</ele>
        <time>2021-08-19T12:10:48Z</time>
      </trkpt>
      <trkpt lat="45.2826750" lon="6.3484700">
        <ele>592.8</ele>
        <time>2021-08-19T12:10:54Z</time>
      </trkpt>
      <trkpt lat="45.2825650" lon="6.3483410">
        <ele>593.4</ele>
        <time>2021-08-19T12:10:58Z</time>
      </trkpt>
      <trkpt lat="45.2824910" lon="6.3482770">
        <ele>593.8</ele>
        <time>2021-08-19T12:11:00Z</time>
      </trkpt>
      <trkpt lat="45.2824580" lon="6.3482460">
        <ele>594.2</ele>
        <time>2021-08-19T12:11:01Z</time>
      </trkpt>
      <trkpt lat="45.2823700" lon="6.3481480">
        <ele>594.8</ele>
        <time>2021-08-19T12:11:04Z</time>
      </trkpt>
      <trkpt lat="45.2823440" lon="6.3481270">
        <ele>595.2</ele>
        <time>2021-08-19T12:11:05Z</time>
      </trkpt>
      <trkpt lat="45.2823140" lon="6.3480970">
        <ele>595.2</ele>
        <time>2021-08-19T12:11:06Z</time>
      </trkpt>
      <trkpt lat="45.2822840" lon="6.3480670">
        <ele>595.4</ele>
        <time>2021-08-19T12:11:07Z</time>
      </trkpt>
      <trkpt lat="45.2822090" lon="6.3479970">
        <ele>596.0</ele>
        <time>2021-08-19T12:11:09Z</time>
      </trkpt>
      <trkpt lat="45.2821800" lon="6.3479770">
        <ele>596.2</ele>
        <time>2021-08-19T12:11:10Z</time>
      </trkpt>
      <trkpt lat="45.2821470" lon="6.3479460">
        <ele>596.4</ele>
        <time>2021-08-19T12:11:11Z</time>
      </trkpt>
      <trkpt lat="45.2821140" lon="6.3479150">
        <ele>596.4</ele>
        <time>2021-08-19T12:11:12Z</time>
      </trkpt>
      <trkpt lat="45.2820320" lon="6.3478310">
        <ele>597.0</ele>
        <time>2021-08-19T12:11:16Z</time>
      </trkpt>
      <trkpt lat="45.2819690" lon="6.3477770">
        <ele>597.4</ele>
        <time>2021-08-19T12:11:17Z</time>
      </trkpt>
      <trkpt lat="45.2818860" lon="6.3476820">
        <ele>598.4</ele>
        <time>2021-08-19T12:11:20Z</time>
      </trkpt>
      <trkpt lat="45.2817860" lon="6.3475960">
        <ele>599.2</ele>
        <time>2021-08-19T12:11:23Z</time>
      </trkpt>
      <trkpt lat="45.2816460" lon="6.3474570">
        <ele>599.6</ele>
        <time>2021-08-19T12:11:28Z</time>
      </trkpt>
      <trkpt lat="45.2815990" lon="6.3474060">
        <ele>599.6</ele>
        <time>2021-08-19T12:11:30Z</time>
      </trkpt>
      <trkpt lat="45.2813100" lon="6.3471300">
        <ele>600.8</ele>
        <time>2021-08-19T12:11:39Z</time>
      </trkpt>
      <trkpt lat="45.2812760" lon="6.3471000">
        <ele>601.0</ele>
        <time>2021-08-19T12:11:40Z</time>
      </trkpt>
      <trkpt lat="45.2812140" lon="6.3470420">
        <ele>601.2</ele>
        <time>2021-08-19T12:11:42Z</time>
      </trkpt>
      <trkpt lat="45.2811540" lon="6.3469810">
        <ele>601.8</ele>
        <time>2021-08-19T12:11:44Z</time>
      </trkpt>
      <trkpt lat="45.2810140" lon="6.3468250">
        <ele>602.8</ele>
        <time>2021-08-19T12:11:49Z</time>
      </trkpt>
      <trkpt lat="45.2810140" lon="6.3468250">
        <ele>603.0</ele>
        <time>2021-08-19T12:11:50Z</time>
      </trkpt>
      <trkpt lat="45.2808580" lon="6.3466880">
        <ele>604.0</ele>
        <time>2021-08-19T12:11:54Z</time>
      </trkpt>
      <trkpt lat="45.2807640" lon="6.3465840">
        <ele>604.6</ele>
        <time>2021-08-19T12:11:57Z</time>
      </trkpt>
      <trkpt lat="45.2807450" lon="6.3465630">
        <ele>605.2</ele>
        <time>2021-08-19T12:11:58Z</time>
      </trkpt>
      <trkpt lat="45.2805820" lon="6.3464210">
        <ele>606.4</ele>
        <time>2021-08-19T12:12:03Z</time>
      </trkpt>
      <trkpt lat="45.2805260" lon="6.3463610">
        <ele>606.6</ele>
        <time>2021-08-19T12:12:05Z</time>
      </trkpt>
      <trkpt lat="45.2803710" lon="6.3462250">
        <ele>607.6</ele>
        <time>2021-08-19T12:12:10Z</time>
      </trkpt>
      <trkpt lat="45.2802770" lon="6.3461320">
        <ele>608.0</ele>
        <time>2021-08-19T12:12:13Z</time>
      </trkpt>
      <trkpt lat="45.2801720" lon="6.3460410">
        <ele>608.4</ele>
        <time>2021-08-19T12:12:16Z</time>
      </trkpt>
      <trkpt lat="45.2801360" lon="6.3460090">
        <ele>608.6</ele>
        <time>2021-08-19T12:12:17Z</time>
      </trkpt>
      <trkpt lat="45.2799630" lon="6.3458530">
        <ele>609.6</ele>
        <time>2021-08-19T12:12:22Z</time>
      </trkpt>
      <trkpt lat="45.2799070" lon="6.3457950">
        <ele>610.0</ele>
        <time>2021-08-19T12:12:24Z</time>
      </trkpt>
      <trkpt lat="45.2797560" lon="6.3456740">
        <ele>610.8</ele>
        <time>2021-08-19T12:12:29Z</time>
      </trkpt>
      <trkpt lat="45.2795890" lon="6.3455340">
        <ele>611.0</ele>
        <time>2021-08-19T12:12:34Z</time>
      </trkpt>
      <trkpt lat="45.2795550" lon="6.3455110">
        <ele>611.2</ele>
        <time>2021-08-19T12:12:35Z</time>
      </trkpt>
      <trkpt lat="45.2794750" lon="6.3454970">
        <ele>611.6</ele>
        <time>2021-08-19T12:12:38Z</time>
      </trkpt>
      <trkpt lat="45.2794340" lon="6.3455620">
        <ele>611.8</ele>
        <time>2021-08-19T12:12:40Z</time>
      </trkpt>
      <trkpt lat="45.2794020" lon="6.3456600">
        <ele>611.8</ele>
        <time>2021-08-19T12:12:42Z</time>
      </trkpt>
      <trkpt lat="45.2794000" lon="6.3457060">
        <ele>611.8</ele>
        <time>2021-08-19T12:12:43Z</time>
      </trkpt>
      <trkpt lat="45.2793860" lon="6.3458840">
        <ele>611.8</ele>
        <time>2021-08-19T12:12:46Z</time>
      </trkpt>
      <trkpt lat="45.2793710" lon="6.3459350">
        <ele>611.8</ele>
        <time>2021-08-19T12:12:47Z</time>
      </trkpt>
      <trkpt lat="45.2792650" lon="6.3463070">
        <ele>610.8</ele>
        <time>2021-08-19T12:12:53Z</time>
      </trkpt>
      <trkpt lat="45.2791650" lon="6.3466620">
        <ele>610.2</ele>
        <time>2021-08-19T12:12:58Z</time>
      </trkpt>
      <trkpt lat="45.2791380" lon="6.3467830">
        <ele>610.0</ele>
        <time>2021-08-19T12:13:00Z</time>
      </trkpt>
      <trkpt lat="45.2791280" lon="6.3468400">
        <ele>610.0</ele>
        <time>2021-08-19T12:13:01Z</time>
      </trkpt>
      <trkpt lat="45.2791140" lon="6.3469100">
        <ele>609.8</ele>
        <time>2021-08-19T12:13:02Z</time>
      </trkpt>
      <trkpt lat="45.2790740" lon="6.3470120">
        <ele>609.6</ele>
        <time>2021-08-19T12:13:04Z</time>
      </trkpt>
      <trkpt lat="45.2790230" lon="6.3470760">
        <ele>609.6</ele>
        <time>2021-08-19T12:13:06Z</time>
      </trkpt>
      <trkpt lat="45.2789190" lon="6.3471760">
        <ele>610.0</ele>
        <time>2021-08-19T12:13:11Z</time>
      </trkpt>
      <trkpt lat="45.2789080" lon="6.3472250">
        <ele>609.8</ele>
        <time>2021-08-19T12:13:13Z</time>
      </trkpt>
      <trkpt lat="45.2789170" lon="6.3472430">
        <ele>609.8</ele>
        <time>2021-08-19T12:13:14Z</time>
      </trkpt>
      <trkpt lat="45.2790570" lon="6.3473440">
        <ele>609.6</ele>
        <time>2021-08-19T12:13:19Z</time>
      </trkpt>
      <trkpt lat="45.2790980" lon="6.3473530">
        <ele>609.6</ele>
        <time>2021-08-19T12:13:20Z</time>
      </trkpt>
      <trkpt lat="45.2791860" lon="6.3473210">
        <ele>609.4</ele>
        <time>2021-08-19T12:13:22Z</time>
      </trkpt>
      <trkpt lat="45.2792140" lon="6.3472750">
        <ele>609.2</ele>
        <time>2021-08-19T12:13:24Z</time>
      </trkpt>
      <trkpt lat="45.2792180" lon="6.3471660">
        <ele>609.0</ele>
        <time>2021-08-19T12:13:25Z</time>
      </trkpt>
      <trkpt lat="45.2791730" lon="6.3470350">
        <ele>609.0</ele>
        <time>2021-08-19T12:13:28Z</time>
      </trkpt>
      <trkpt lat="45.2791440" lon="6.3470220">
        <ele>609.0</ele>
        <time>2021-08-19T12:13:29Z</time>
      </trkpt>
      <trkpt lat="45.2791140" lon="6.3470240">
        <ele>609.0</ele>
        <time>2021-08-19T12:13:30Z</time>
      </trkpt>
      <trkpt lat="45.2790580" lon="6.3470650">
        <ele>608.8</ele>
        <time>2021-08-19T12:13:32Z</time>
      </trkpt>
      <trkpt lat="45.2789760" lon="6.3471720">
        <ele>609.0</ele>
        <time>2021-08-19T12:13:36Z</time>
      </trkpt>
      <trkpt lat="45.2788810" lon="6.3471290">
        <ele>609.4</ele>
        <time>2021-08-19T12:13:39Z</time>
      </trkpt>
      <trkpt lat="45.2786920" lon="6.3470520">
        <ele>610.2</ele>
        <time>2021-08-19T12:13:44Z</time>
      </trkpt>
      <trkpt lat="45.2786090" lon="6.3470440">
        <ele>610.4</ele>
        <time>2021-08-19T12:13:46Z</time>
      </trkpt>
      <trkpt lat="45.2785240" lon="6.3470590">
        <ele>610.6</ele>
        <time>2021-08-19T12:13:48Z</time>
      </trkpt>
      <trkpt lat="45.2784820" lon="6.3470780">
        <ele>610.8</ele>
        <time>2021-08-19T12:13:49Z</time>
      </trkpt>
      <trkpt lat="45.2783200" lon="6.3471550">
        <ele>611.4</ele>
        <time>2021-08-19T12:13:53Z</time>
      </trkpt>
      <trkpt lat="45.2782420" lon="6.3472130">
        <ele>611.6</ele>
        <time>2021-08-19T12:13:55Z</time>
      </trkpt>
      <trkpt lat="45.2781390" lon="6.3473140">
        <ele>612.0</ele>
        <time>2021-08-19T12:13:58Z</time>
      </trkpt>
      <trkpt lat="45.2780620" lon="6.3473510">
        <ele>612.2</ele>
        <time>2021-08-19T12:14:00Z</time>
      </trkpt>
      <trkpt lat="45.2779360" lon="6.3474070">
        <ele>612.4</ele>
        <time>2021-08-19T12:14:03Z</time>
      </trkpt>
      <trkpt lat="45.2777640" lon="6.3474780">
        <ele>613.4</ele>
        <time>2021-08-19T12:14:07Z</time>
      </trkpt>
      <trkpt lat="45.2777290" lon="6.3475030">
        <ele>613.4</ele>
        <time>2021-08-19T12:14:08Z</time>
      </trkpt>
      <trkpt lat="45.2776710" lon="6.3475800">
        <ele>613.8</ele>
        <time>2021-08-19T12:14:11Z</time>
      </trkpt>
      <trkpt lat="45.2776370" lon="6.3476280">
        <ele>614.0</ele>
        <time>2021-08-19T12:14:13Z</time>
      </trkpt>
      <trkpt lat="45.2775520" lon="6.3476550">
        <ele>614.2</ele>
        <time>2021-08-19T12:14:16Z</time>
      </trkpt>
      <trkpt lat="45.2774970" lon="6.3476790">
        <ele>614.4</ele>
        <time>2021-08-19T12:14:18Z</time>
      </trkpt>
      <trkpt lat="45.2774590" lon="6.3477590">
        <ele>614.6</ele>
        <time>2021-08-19T12:14:20Z</time>
      </trkpt>
      <trkpt lat="45.2774130" lon="6.3479020">
        <ele>614.4</ele>
        <time>2021-08-19T12:14:25Z</time>
      </trkpt>
      <trkpt lat="45.2773790" lon="6.3481190">
        <ele>613.8</ele>
        <time>2021-08-19T12:14:30Z</time>
      </trkpt>
      <trkpt lat="45.2773190" lon="6.3483010">
        <ele>613.4</ele>
        <time>2021-08-19T12:14:33Z</time>
      </trkpt>
      <trkpt lat="45.2772910" lon="6.3484080">
        <ele>613.0</ele>
        <time>2021-08-19T12:14:35Z</time>
      </trkpt>
      <trkpt lat="45.2772780" lon="6.3484790">
        <ele>612.6</ele>
        <time>2021-08-19T12:14:36Z</time>
      </trkpt>
      <trkpt lat="45.2772080" lon="6.3487640">
        <ele>611.6</ele>
        <time>2021-08-19T12:14:40Z</time>
      </trkpt>
      <trkpt lat="45.2772080" lon="6.3487640">
        <ele>611.4</ele>
        <time>2021-08-19T12:14:41Z</time>
      </trkpt>
      <trkpt lat="45.2771210" lon="6.3492880">
        <ele>610.2</ele>
        <time>2021-08-19T12:14:48Z</time>
      </trkpt>
      <trkpt lat="45.2770950" lon="6.3493700">
        <ele>609.0</ele>
        <time>2021-08-19T12:14:50Z</time>
      </trkpt>
      <trkpt lat="45.2770610" lon="6.3494620">
        <ele>608.2</ele>
        <time>2021-08-19T12:14:53Z</time>
      </trkpt>
      <trkpt lat="45.2770520" lon="6.3495330">
        <ele>607.8</ele>
        <time>2021-08-19T12:14:55Z</time>
      </trkpt>
      <trkpt lat="45.2770460" lon="6.3496850">
        <ele>607.4</ele>
        <time>2021-08-19T12:14:58Z</time>
      </trkpt>
      <trkpt lat="45.2770350" lon="6.3498020">
        <ele>607.2</ele>
        <time>2021-08-19T12:15:00Z</time>
      </trkpt>
      <trkpt lat="45.2769920" lon="6.3500150">
        <ele>606.8</ele>
        <time>2021-08-19T12:15:03Z</time>
      </trkpt>
      <trkpt lat="45.2769160" lon="6.3503770">
        <ele>605.8</ele>
        <time>2021-08-19T12:15:07Z</time>
      </trkpt>
      <trkpt lat="45.2769120" lon="6.3504430">
        <ele>605.4</ele>
        <time>2021-08-19T12:15:08Z</time>
      </trkpt>
      <trkpt lat="45.2768850" lon="6.3506990">
        <ele>604.6</ele>
        <time>2021-08-19T12:15:11Z</time>
      </trkpt>
      <trkpt lat="45.2768570" lon="6.3508490">
        <ele>604.0</ele>
        <time>2021-08-19T12:15:13Z</time>
      </trkpt>
      <trkpt lat="45.2768470" lon="6.3509120">
        <ele>603.2</ele>
        <time>2021-08-19T12:15:14Z</time>
      </trkpt>
      <trkpt lat="45.2768370" lon="6.3509750">
        <ele>602.6</ele>
        <time>2021-08-19T12:15:15Z</time>
      </trkpt>
      <trkpt lat="45.2768160" lon="6.3511010">
        <ele>602.0</ele>
        <time>2021-08-19T12:15:16Z</time>
      </trkpt>
      <trkpt lat="45.2767770" lon="6.3513350">
        <ele>601.2</ele>
        <time>2021-08-19T12:15:19Z</time>
      </trkpt>
      <trkpt lat="45.2767590" lon="6.3514090">
        <ele>600.8</ele>
        <time>2021-08-19T12:15:20Z</time>
      </trkpt>
      <trkpt lat="45.2766980" lon="6.3517320">
        <ele>599.6</ele>
        <time>2021-08-19T12:15:24Z</time>
      </trkpt>
      <trkpt lat="45.2766140" lon="6.3522640">
        <ele>599.0</ele>
        <time>2021-08-19T12:15:30Z</time>
      </trkpt>
      <trkpt lat="45.2765520" lon="6.3525750">
        <ele>598.6</ele>
        <time>2021-08-19T12:15:34Z</time>
      </trkpt>
      <trkpt lat="45.2765360" lon="6.3526770">
        <ele>598.0</ele>
        <time>2021-08-19T12:15:36Z</time>
      </trkpt>
      <trkpt lat="45.2765150" lon="6.3527940">
        <ele>597.4</ele>
        <time>2021-08-19T12:15:39Z</time>
      </trkpt>
      <trkpt lat="45.2765010" lon="6.3528310">
        <ele>597.4</ele>
        <time>2021-08-19T12:15:40Z</time>
      </trkpt>
      <trkpt lat="45.2763940" lon="6.3530850">
        <ele>597.4</ele>
        <time>2021-08-19T12:15:46Z</time>
      </trkpt>
      <trkpt lat="45.2764260" lon="6.3531870">
        <ele>597.6</ele>
        <time>2021-08-19T12:15:48Z</time>
      </trkpt>
      <trkpt lat="45.2764650" lon="6.3532170">
        <ele>597.8</ele>
        <time>2021-08-19T12:15:49Z</time>
      </trkpt>
      <trkpt lat="45.2765090" lon="6.3532190">
        <ele>597.8</ele>
        <time>2021-08-19T12:15:50Z</time>
      </trkpt>
      <trkpt lat="45.2765750" lon="6.3531500">
        <ele>597.8</ele>
        <time>2021-08-19T12:15:52Z</time>
      </trkpt>
      <trkpt lat="45.2765960" lon="6.3530100">
        <ele>598.0</ele>
        <time>2021-08-19T12:15:54Z</time>
      </trkpt>
      <trkpt lat="45.2765880" lon="6.3529370">
        <ele>598.0</ele>
        <time>2021-08-19T12:15:55Z</time>
      </trkpt>
      <trkpt lat="45.2765660" lon="6.3527260">
        <ele>598.0</ele>
        <time>2021-08-19T12:15:58Z</time>
      </trkpt>
      <trkpt lat="45.2765730" lon="6.3525900">
        <ele>598.0</ele>
        <time>2021-08-19T12:16:00Z</time>
      </trkpt>
      <trkpt lat="45.2765820" lon="6.3525330">
        <ele>598.0</ele>
        <time>2021-08-19T12:16:01Z</time>
      </trkpt>
      <trkpt lat="45.2766370" lon="6.3521760">
        <ele>598.6</ele>
        <time>2021-08-19T12:16:06Z</time>
      </trkpt>
      <trkpt lat="45.2766580" lon="6.3520400">
        <ele>598.6</ele>
        <time>2021-08-19T12:16:08Z</time>
      </trkpt>
      <trkpt lat="45.2766670" lon="6.3519700">
        <ele>598.6</ele>
        <time>2021-08-19T12:16:09Z</time>
      </trkpt>
      <trkpt lat="45.2767040" lon="6.3517620">
        <ele>598.4</ele>
        <time>2021-08-19T12:16:12Z</time>
      </trkpt>
      <trkpt lat="45.2767140" lon="6.3516900">
        <ele>598.4</ele>
        <time>2021-08-19T12:16:13Z</time>
      </trkpt>
      <trkpt lat="45.2767300" lon="6.3516210">
        <ele>598.4</ele>
        <time>2021-08-19T12:16:14Z</time>
      </trkpt>
      <trkpt lat="45.2767770" lon="6.3513610">
        <ele>598.8</ele>
        <time>2021-08-19T12:16:18Z</time>
      </trkpt>
      <trkpt lat="45.2767920" lon="6.3512960">
        <ele>598.8</ele>
        <time>2021-08-19T12:16:19Z</time>
      </trkpt>
      <trkpt lat="45.2768050" lon="6.3512380">
        <ele>599.0</ele>
        <time>2021-08-19T12:16:20Z</time>
      </trkpt>
      <trkpt lat="45.2768490" lon="6.3510750">
        <ele>599.4</ele>
        <time>2021-08-19T12:16:23Z</time>
      </trkpt>
      <trkpt lat="45.2768550" lon="6.3510220">
        <ele>599.4</ele>
        <time>2021-08-19T12:16:24Z</time>
      </trkpt>
      <trkpt lat="45.2768640" lon="6.3509700">
        <ele>599.6</ele>
        <time>2021-08-19T12:16:25Z</time>
      </trkpt>
      <trkpt lat="45.2768880" lon="6.3508660">
        <ele>600.2</ele>
        <time>2021-08-19T12:16:27Z</time>
      </trkpt>
      <trkpt lat="45.2769010" lon="6.3507320">
        <ele>600.8</ele>
        <time>2021-08-19T12:16:30Z</time>
      </trkpt>
      <trkpt lat="45.2769170" lon="6.3506330">
        <ele>601.2</ele>
        <time>2021-08-19T12:16:32Z</time>
      </trkpt>
      <trkpt lat="45.2769430" lon="6.3503890">
        <ele>602.0</ele>
        <time>2021-08-19T12:16:37Z</time>
      </trkpt>
      <trkpt lat="45.2769470" lon="6.3502910">
        <ele>602.4</ele>
        <time>2021-08-19T12:16:39Z</time>
      </trkpt>
      <trkpt lat="45.2769790" lon="6.3501000">
        <ele>603.8</ele>
        <time>2021-08-19T12:16:43Z</time>
      </trkpt>
      <trkpt lat="45.2769790" lon="6.3501000">
        <ele>603.8</ele>
        <time>2021-08-19T12:16:44Z</time>
      </trkpt>
      <trkpt lat="45.2770190" lon="6.3498700">
        <ele>604.4</ele>
        <time>2021-08-19T12:16:48Z</time>
      </trkpt>
      <trkpt lat="45.2770260" lon="6.3497780">
        <ele>605.0</ele>
        <time>2021-08-19T12:16:50Z</time>
      </trkpt>
      <trkpt lat="45.2770160" lon="6.3497430">
        <ele>605.4</ele>
        <time>2021-08-19T12:16:51Z</time>
      </trkpt>
      <trkpt lat="45.2770120" lon="6.3496470">
        <ele>606.0</ele>
        <time>2021-08-19T12:16:53Z</time>
      </trkpt>
      <trkpt lat="45.2770120" lon="6.3495740">
        <ele>606.4</ele>
        <time>2021-08-19T12:16:55Z</time>
      </trkpt>
      <trkpt lat="45.2770080" lon="6.3495380">
        <ele>606.6</ele>
        <time>2021-08-19T12:16:57Z</time>
      </trkpt>
      <trkpt lat="45.2769720" lon="6.3494940">
        <ele>607.0</ele>
        <time>2021-08-19T12:16:58Z</time>
      </trkpt>
      <trkpt lat="45.2769420" lon="6.3494850">
        <ele>607.2</ele>
        <time>2021-08-19T12:16:59Z</time>
      </trkpt>
      <trkpt lat="45.2769180" lon="6.3494720">
        <ele>607.2</ele>
        <time>2021-08-19T12:17:00Z</time>
      </trkpt>
      <trkpt lat="45.2767860" lon="6.3493850">
        <ele>608.2</ele>
        <time>2021-08-19T12:17:05Z</time>
      </trkpt>
      <trkpt lat="45.2767350" lon="6.3493450">
        <ele>608.4</ele>
        <time>2021-08-19T12:17:07Z</time>
      </trkpt>
      <trkpt lat="45.2765710" lon="6.3492370">
        <ele>609.0</ele>
        <time>2021-08-19T12:17:13Z</time>
      </trkpt>
      <trkpt lat="45.2765090" lon="6.3492050">
        <ele>609.2</ele>
        <time>2021-08-19T12:17:15Z</time>
      </trkpt>
      <trkpt lat="45.2765090" lon="6.3492050">
        <ele>609.4</ele>
        <time>2021-08-19T12:17:16Z</time>
      </trkpt>
      <trkpt lat="45.2763340" lon="6.3490650">
        <ele>610.4</ele>
        <time>2021-08-19T12:17:22Z</time>
      </trkpt>
      <trkpt lat="45.2761620" lon="6.3489790">
        <ele>611.6</ele>
        <time>2021-08-19T12:17:28Z</time>
      </trkpt>
      <trkpt lat="45.2760280" lon="6.3488940">
        <ele>612.4</ele>
        <time>2021-08-19T12:17:33Z</time>
      </trkpt>
      <trkpt lat="45.2760040" lon="6.3488810">
        <ele>612.6</ele>
        <time>2021-08-19T12:17:34Z</time>
      </trkpt>
      <trkpt lat="45.2758500" lon="6.3487800">
        <ele>613.8</ele>
        <time>2021-08-19T12:17:40Z</time>
      </trkpt>
      <trkpt lat="45.2757440" lon="6.3487090">
        <ele>614.8</ele>
        <time>2021-08-19T12:17:44Z</time>
      </trkpt>
      <trkpt lat="45.2756710" lon="6.3486630">
        <ele>615.0</ele>
        <time>2021-08-19T12:17:47Z</time>
      </trkpt>
      <trkpt lat="45.2756310" lon="6.3486340">
        <ele>615.6</ele>
        <time>2021-08-19T12:17:49Z</time>
      </trkpt>
      <trkpt lat="45.2756090" lon="6.3486200">
        <ele>616.0</ele>
        <time>2021-08-19T12:17:50Z</time>
      </trkpt>
      <trkpt lat="45.2755850" lon="6.3486000">
        <ele>616.2</ele>
        <time>2021-08-19T12:17:51Z</time>
      </trkpt>
      <trkpt lat="45.2755210" lon="6.3485320">
        <ele>616.6</ele>
        <time>2021-08-19T12:17:54Z</time>
      </trkpt>
      <trkpt lat="45.2754500" lon="6.3484820">
        <ele>617.4</ele>
        <time>2021-08-19T12:17:57Z</time>
      </trkpt>
      <trkpt lat="45.2753600" lon="6.3484330">
        <ele>618.2</ele>
        <time>2021-08-19T12:18:01Z</time>
      </trkpt>
      <trkpt lat="45.2753370" lon="6.3484150">
        <ele>618.4</ele>
        <time>2021-08-19T12:18:02Z</time>
      </trkpt>
      <trkpt lat="45.2752350" lon="6.3483380">
        <ele>619.4</ele>
        <time>2021-08-19T12:18:06Z</time>
      </trkpt>
      <trkpt lat="45.2752060" lon="6.3483160">
        <ele>619.6</ele>
        <time>2021-08-19T12:18:07Z</time>
      </trkpt>
      <trkpt lat="45.2750900" lon="6.3482440">
        <ele>620.6</ele>
        <time>2021-08-19T12:18:12Z</time>
      </trkpt>
      <trkpt lat="45.2750640" lon="6.3482230">
        <ele>620.8</ele>
        <time>2021-08-19T12:18:13Z</time>
      </trkpt>
      <trkpt lat="45.2749330" lon="6.3480920">
        <ele>621.8</ele>
        <time>2021-08-19T12:18:19Z</time>
      </trkpt>
      <trkpt lat="45.2748850" lon="6.3480270">
        <ele>622.2</ele>
        <time>2021-08-19T12:18:21Z</time>
      </trkpt>
      <trkpt lat="45.2747300" lon="6.3478060">
        <ele>622.8</ele>
        <time>2021-08-19T12:18:28Z</time>
      </trkpt>
      <trkpt lat="45.2746870" lon="6.3477460">
        <ele>623.0</ele>
        <time>2021-08-19T12:18:30Z</time>
      </trkpt>
      <trkpt lat="45.2746720" lon="6.3477260">
        <ele>623.2</ele>
        <time>2021-08-19T12:18:31Z</time>
      </trkpt>
      <trkpt lat="45.2746630" lon="6.3477130">
        <ele>623.4</ele>
        <time>2021-08-19T12:18:32Z</time>
      </trkpt>
      <trkpt lat="45.2746600" lon="6.3477090">
        <ele>623.6</ele>
        <time>2021-08-19T12:18:34Z</time>
      </trkpt>
      <trkpt lat="45.2746180" lon="6.3476430">
        <ele>624.6</ele>
        <time>2021-08-19T12:20:51Z</time>
      </trkpt>
      <trkpt lat="45.2746030" lon="6.3476170">
        <ele>624.6</ele>
        <time>2021-08-19T12:20:52Z</time>
      </trkpt>
      <trkpt lat="45.2745850" lon="6.3475930">
        <ele>624.6</ele>
        <time>2021-08-19T12:20:53Z</time>
      </trkpt>
      <trkpt lat="45.2744720" lon="6.3474090">
        <ele>624.8</ele>
        <time>2021-08-19T12:20:59Z</time>
      </trkpt>
      <trkpt lat="45.2744490" lon="6.3473750">
        <ele>624.8</ele>
        <time>2021-08-19T12:21:00Z</time>
      </trkpt>
      <trkpt lat="45.2744270" lon="6.3473420">
        <ele>625.0</ele>
        <time>2021-08-19T12:21:01Z</time>
      </trkpt>
      <trkpt lat="45.2743920" lon="6.3472880">
        <ele>625.0</ele>
        <time>2021-08-19T12:21:03Z</time>
      </trkpt>
      <trkpt lat="45.2743660" lon="6.3472560">
        <ele>625.0</ele>
        <time>2021-08-19T12:21:04Z</time>
      </trkpt>
      <trkpt lat="45.2743430" lon="6.3472290">
        <ele>625.2</ele>
        <time>2021-08-19T12:21:05Z</time>
      </trkpt>
      <trkpt lat="45.2743230" lon="6.3472020">
        <ele>625.2</ele>
        <time>2021-08-19T12:21:06Z</time>
      </trkpt>
      <trkpt lat="45.2743030" lon="6.3471760">
        <ele>625.4</ele>
        <time>2021-08-19T12:21:07Z</time>
      </trkpt>
      <trkpt lat="45.2742830" lon="6.3471510">
        <ele>625.6</ele>
        <time>2021-08-19T12:21:08Z</time>
      </trkpt>
      <trkpt lat="45.2742430" lon="6.3470950">
        <ele>626.2</ele>
        <time>2021-08-19T12:21:10Z</time>
      </trkpt>
      <trkpt lat="45.2742230" lon="6.3470670">
        <ele>626.4</ele>
        <time>2021-08-19T12:21:11Z</time>
      </trkpt>
      <trkpt lat="45.2742060" lon="6.3470360">
        <ele>626.8</ele>
        <time>2021-08-19T12:21:12Z</time>
      </trkpt>
      <trkpt lat="45.2741630" lon="6.3469530">
        <ele>628.0</ele>
        <time>2021-08-19T12:21:15Z</time>
      </trkpt>
      <trkpt lat="45.2741210" lon="6.3468980">
        <ele>628.6</ele>
        <time>2021-08-19T12:21:17Z</time>
      </trkpt>
      <trkpt lat="45.2741010" lon="6.3468730">
        <ele>628.8</ele>
        <time>2021-08-19T12:21:18Z</time>
      </trkpt>
      <trkpt lat="45.2740820" lon="6.3468470">
        <ele>629.0</ele>
        <time>2021-08-19T12:21:19Z</time>
      </trkpt>
      <trkpt lat="45.2740580" lon="6.3468210">
        <ele>629.2</ele>
        <time>2021-08-19T12:21:20Z</time>
      </trkpt>
      <trkpt lat="45.2740370" lon="6.3467950">
        <ele>629.4</ele>
        <time>2021-08-19T12:21:21Z</time>
      </trkpt>
      <trkpt lat="45.2739940" lon="6.3467370">
        <ele>630.2</ele>
        <time>2021-08-19T12:21:23Z</time>
      </trkpt>
      <trkpt lat="45.2739410" lon="6.3466790">
        <ele>630.6</ele>
        <time>2021-08-19T12:21:25Z</time>
      </trkpt>
      <trkpt lat="45.2738880" lon="6.3466000">
        <ele>631.0</ele>
        <time>2021-08-19T12:21:28Z</time>
      </trkpt>
      <trkpt lat="45.2738790" lon="6.3465760">
        <ele>631.2</ele>
        <time>2021-08-19T12:21:29Z</time>
      </trkpt>
      <trkpt lat="45.2738660" lon="6.3465490">
        <ele>631.2</ele>
        <time>2021-08-19T12:21:30Z</time>
      </trkpt>
      <trkpt lat="45.2738540" lon="6.3465210">
        <ele>631.6</ele>
        <time>2021-08-19T12:21:31Z</time>
      </trkpt>
      <trkpt lat="45.2738270" lon="6.3464700">
        <ele>631.8</ele>
        <time>2021-08-19T12:21:33Z</time>
      </trkpt>
      <trkpt lat="45.2737810" lon="6.3463890">
        <ele>632.2</ele>
        <time>2021-08-19T12:21:36Z</time>
      </trkpt>
      <trkpt lat="45.2737540" lon="6.3463660">
        <ele>632.4</ele>
        <time>2021-08-19T12:21:37Z</time>
      </trkpt>
      <trkpt lat="45.2737330" lon="6.3463330">
        <ele>632.6</ele>
        <time>2021-08-19T12:21:38Z</time>
      </trkpt>
      <trkpt lat="45.2737000" lon="6.3462810">
        <ele>633.0</ele>
        <time>2021-08-19T12:21:40Z</time>
      </trkpt>
      <trkpt lat="45.2736840" lon="6.3462600">
        <ele>633.2</ele>
        <time>2021-08-19T12:21:41Z</time>
      </trkpt>
      <trkpt lat="45.2736690" lon="6.3462320">
        <ele>633.4</ele>
        <time>2021-08-19T12:21:42Z</time>
      </trkpt>
      <trkpt lat="45.2736260" lon="6.3461730">
        <ele>633.8</ele>
        <time>2021-08-19T12:21:44Z</time>
      </trkpt>
      <trkpt lat="45.2736100" lon="6.3461490">
        <ele>634.0</ele>
        <time>2021-08-19T12:21:45Z</time>
      </trkpt>
      <trkpt lat="45.2735970" lon="6.3461280">
        <ele>634.0</ele>
        <time>2021-08-19T12:21:46Z</time>
      </trkpt>
      <trkpt lat="45.2735690" lon="6.3460780">
        <ele>634.4</ele>
        <time>2021-08-19T12:21:48Z</time>
      </trkpt>
      <trkpt lat="45.2735530" lon="6.3460570">
        <ele>634.8</ele>
        <time>2021-08-19T12:21:49Z</time>
      </trkpt>
      <trkpt lat="45.2734620" lon="6.3459140">
        <ele>636.0</ele>
        <time>2021-08-19T12:21:55Z</time>
      </trkpt>
      <trkpt lat="45.2734300" lon="6.3458730">
        <ele>636.6</ele>
        <time>2021-08-19T12:21:57Z</time>
      </trkpt>
      <trkpt lat="45.2733670" lon="6.3457960">
        <ele>637.0</ele>
        <time>2021-08-19T12:22:00Z</time>
      </trkpt>
      <trkpt lat="45.2732780" lon="6.3456510">
        <ele>638.2</ele>
        <time>2021-08-19T12:22:06Z</time>
      </trkpt>
      <trkpt lat="45.2732640" lon="6.3456250">
        <ele>638.4</ele>
        <time>2021-08-19T12:22:07Z</time>
      </trkpt>
      <trkpt lat="45.2731870" lon="6.3455100">
        <ele>639.2</ele>
        <time>2021-08-19T12:22:12Z</time>
      </trkpt>
      <trkpt lat="45.2731620" lon="6.3454440">
        <ele>639.6</ele>
        <time>2021-08-19T12:22:14Z</time>
      </trkpt>
      <trkpt lat="45.2731150" lon="6.3453640">
        <ele>640.2</ele>
        <time>2021-08-19T12:22:17Z</time>
      </trkpt>
      <trkpt lat="45.2730920" lon="6.3453150">
        <ele>640.4</ele>
        <time>2021-08-19T12:22:19Z</time>
      </trkpt>
      <trkpt lat="45.2730690" lon="6.3452680">
        <ele>640.8</ele>
        <time>2021-08-19T12:22:21Z</time>
      </trkpt>
      <trkpt lat="45.2730370" lon="6.3452070">
        <ele>641.4</ele>
        <time>2021-08-19T12:22:24Z</time>
      </trkpt>
      <trkpt lat="45.2730110" lon="6.3451530">
        <ele>641.8</ele>
        <time>2021-08-19T12:22:27Z</time>
      </trkpt>
      <trkpt lat="45.2730000" lon="6.3450580">
        <ele>642.4</ele>
        <time>2021-08-19T12:22:30Z</time>
      </trkpt>
      <trkpt lat="45.2729980" lon="6.3450160">
        <ele>642.4</ele>
        <time>2021-08-19T12:22:31Z</time>
      </trkpt>
      <trkpt lat="45.2729940" lon="6.3449780">
        <ele>642.4</ele>
        <time>2021-08-19T12:22:32Z</time>
      </trkpt>
      <trkpt lat="45.2729720" lon="6.3449140">
        <ele>642.6</ele>
        <time>2021-08-19T12:22:34Z</time>
      </trkpt>
      <trkpt lat="45.2729030" lon="6.3448550">
        <ele>642.6</ele>
        <time>2021-08-19T12:22:37Z</time>
      </trkpt>
      <trkpt lat="45.2728780" lon="6.3448430">
        <ele>643.2</ele>
        <time>2021-08-19T12:22:38Z</time>
      </trkpt>
      <trkpt lat="45.2728580" lon="6.3448340">
        <ele>643.6</ele>
        <time>2021-08-19T12:22:39Z</time>
      </trkpt>
      <trkpt lat="45.2726880" lon="6.3447050">
        <ele>644.4</ele>
        <time>2021-08-19T12:22:45Z</time>
      </trkpt>
      <trkpt lat="45.2726650" lon="6.3446680">
        <ele>644.6</ele>
        <time>2021-08-19T12:22:46Z</time>
      </trkpt>
      <trkpt lat="45.2725820" lon="6.3445550">
        <ele>645.4</ele>
        <time>2021-08-19T12:22:50Z</time>
      </trkpt>
      <trkpt lat="45.2725440" lon="6.3444880">
        <ele>645.8</ele>
        <time>2021-08-19T12:22:52Z</time>
      </trkpt>
      <trkpt lat="45.2725070" lon="6.3444360">
        <ele>646.0</ele>
        <time>2021-08-19T12:22:54Z</time>
      </trkpt>
      <trkpt lat="45.2724220" lon="6.3443170">
        <ele>646.8</ele>
        <time>2021-08-19T12:22:58Z</time>
      </trkpt>
      <trkpt lat="45.2723390" lon="6.3441650">
        <ele>648.0</ele>
        <time>2021-08-19T12:23:03Z</time>
      </trkpt>
      <trkpt lat="45.2723270" lon="6.3441380">
        <ele>648.4</ele>
        <time>2021-08-19T12:23:04Z</time>
      </trkpt>
      <trkpt lat="45.2722750" lon="6.3439700">
        <ele>649.4</ele>
        <time>2021-08-19T12:23:09Z</time>
      </trkpt>
      <trkpt lat="45.2722720" lon="6.3438950">
        <ele>649.8</ele>
        <time>2021-08-19T12:23:11Z</time>
      </trkpt>
      <trkpt lat="45.2722790" lon="6.3438480">
        <ele>649.8</ele>
        <time>2021-08-19T12:23:12Z</time>
      </trkpt>
      <trkpt lat="45.2722900" lon="6.3437740">
        <ele>650.4</ele>
        <time>2021-08-19T12:23:14Z</time>
      </trkpt>
      <trkpt lat="45.2722800" lon="6.3436550">
        <ele>651.0</ele>
        <time>2021-08-19T12:23:17Z</time>
      </trkpt>
      <trkpt lat="45.2722550" lon="6.3435500">
        <ele>651.4</ele>
        <time>2021-08-19T12:23:20Z</time>
      </trkpt>
      <trkpt lat="45.2722460" lon="6.3434000">
        <ele>651.8</ele>
        <time>2021-08-19T12:23:24Z</time>
      </trkpt>
      <trkpt lat="45.2722490" lon="6.3433590">
        <ele>652.0</ele>
        <time>2021-08-19T12:23:25Z</time>
      </trkpt>
      <trkpt lat="45.2722640" lon="6.3432720">
        <ele>652.6</ele>
        <time>2021-08-19T12:23:28Z</time>
      </trkpt>
      <trkpt lat="45.2722670" lon="6.3432390">
        <ele>652.6</ele>
        <time>2021-08-19T12:23:29Z</time>
      </trkpt>
      <trkpt lat="45.2722700" lon="6.3432090">
        <ele>653.0</ele>
        <time>2021-08-19T12:23:30Z</time>
      </trkpt>
      <trkpt lat="45.2722790" lon="6.3431410">
        <ele>653.4</ele>
        <time>2021-08-19T12:23:32Z</time>
      </trkpt>
      <trkpt lat="45.2722850" lon="6.3431190">
        <ele>653.6</ele>
        <time>2021-08-19T12:23:33Z</time>
      </trkpt>
      <trkpt lat="45.2722860" lon="6.3430870">
        <ele>654.0</ele>
        <time>2021-08-19T12:23:34Z</time>
      </trkpt>
      <trkpt lat="45.2722950" lon="6.3430210">
        <ele>654.8</ele>
        <time>2021-08-19T12:23:36Z</time>
      </trkpt>
      <trkpt lat="45.2723020" lon="6.3429670">
        <ele>655.2</ele>
        <time>2021-08-19T12:23:38Z</time>
      </trkpt>
      <trkpt lat="45.2723260" lon="6.3428540">
        <ele>656.4</ele>
        <time>2021-08-19T12:23:42Z</time>
      </trkpt>
      <trkpt lat="45.2723340" lon="6.3427800">
        <ele>656.8</ele>
        <time>2021-08-19T12:23:45Z</time>
      </trkpt>
      <trkpt lat="45.2723450" lon="6.3426800">
        <ele>657.4</ele>
        <time>2021-08-19T12:23:48Z</time>
      </trkpt>
      <trkpt lat="45.2723510" lon="6.3425330">
        <ele>658.2</ele>
        <time>2021-08-19T12:23:53Z</time>
      </trkpt>
      <trkpt lat="45.2723530" lon="6.3424960">
        <ele>658.4</ele>
        <time>2021-08-19T12:23:54Z</time>
      </trkpt>
      <trkpt lat="45.2723600" lon="6.3423790">
        <ele>659.4</ele>
        <time>2021-08-19T12:23:58Z</time>
      </trkpt>
      <trkpt lat="45.2723660" lon="6.3422970">
        <ele>660.0</ele>
        <time>2021-08-19T12:24:01Z</time>
      </trkpt>
      <trkpt lat="45.2723730" lon="6.3422300">
        <ele>660.4</ele>
        <time>2021-08-19T12:24:03Z</time>
      </trkpt>
      <trkpt lat="45.2723890" lon="6.3419900">
        <ele>661.4</ele>
        <time>2021-08-19T12:24:11Z</time>
      </trkpt>
      <trkpt lat="45.2723920" lon="6.3419580">
        <ele>661.6</ele>
        <time>2021-08-19T12:24:12Z</time>
      </trkpt>
      <trkpt lat="45.2724030" lon="6.3418370">
        <ele>662.8</ele>
        <time>2021-08-19T12:24:16Z</time>
      </trkpt>
      <trkpt lat="45.2724090" lon="6.3417330">
        <ele>663.4</ele>
        <time>2021-08-19T12:24:19Z</time>
      </trkpt>
      <trkpt lat="45.2724220" lon="6.3416150">
        <ele>664.0</ele>
        <time>2021-08-19T12:24:23Z</time>
      </trkpt>
      <trkpt lat="45.2724240" lon="6.3415280">
        <ele>665.2</ele>
        <time>2021-08-19T12:24:26Z</time>
      </trkpt>
      <trkpt lat="45.2724280" lon="6.3414090">
        <ele>665.6</ele>
        <time>2021-08-19T12:24:30Z</time>
      </trkpt>
      <trkpt lat="45.2724460" lon="6.3412860">
        <ele>666.4</ele>
        <time>2021-08-19T12:24:34Z</time>
      </trkpt>
      <trkpt lat="45.2724610" lon="6.3411730">
        <ele>667.6</ele>
        <time>2021-08-19T12:24:38Z</time>
      </trkpt>
      <trkpt lat="45.2724640" lon="6.3411390">
        <ele>667.8</ele>
        <time>2021-08-19T12:24:39Z</time>
      </trkpt>
      <trkpt lat="45.2724730" lon="6.3409860">
        <ele>668.8</ele>
        <time>2021-08-19T12:24:44Z</time>
      </trkpt>
      <trkpt lat="45.2724680" lon="6.3408930">
        <ele>669.6</ele>
        <time>2021-08-19T12:24:47Z</time>
      </trkpt>
      <trkpt lat="45.2724630" lon="6.3408620">
        <ele>669.6</ele>
        <time>2021-08-19T12:24:48Z</time>
      </trkpt>
      <trkpt lat="45.2724470" lon="6.3408110">
        <ele>670.0</ele>
        <time>2021-08-19T12:24:50Z</time>
      </trkpt>
      <trkpt lat="45.2724290" lon="6.3407420">
        <ele>670.6</ele>
        <time>2021-08-19T12:24:52Z</time>
      </trkpt>
      <trkpt lat="45.2724160" lon="6.3406870">
        <ele>671.0</ele>
        <time>2021-08-19T12:24:54Z</time>
      </trkpt>
      <trkpt lat="45.2724080" lon="6.3406580">
        <ele>671.0</ele>
        <time>2021-08-19T12:24:55Z</time>
      </trkpt>
      <trkpt lat="45.2723920" lon="6.3405920">
        <ele>671.2</ele>
        <time>2021-08-19T12:24:57Z</time>
      </trkpt>
      <trkpt lat="45.2723820" lon="6.3405660">
        <ele>671.8</ele>
        <time>2021-08-19T12:24:59Z</time>
      </trkpt>
      <trkpt lat="45.2723610" lon="6.3405120">
        <ele>672.0</ele>
        <time>2021-08-19T12:25:00Z</time>
      </trkpt>
      <trkpt lat="45.2723260" lon="6.3404270">
        <ele>672.6</ele>
        <time>2021-08-19T12:25:03Z</time>
      </trkpt>
      <trkpt lat="45.2723090" lon="6.3403680">
        <ele>673.0</ele>
        <time>2021-08-19T12:25:05Z</time>
      </trkpt>
      <trkpt lat="45.2722960" lon="6.3403340">
        <ele>673.2</ele>
        <time>2021-08-19T12:25:06Z</time>
      </trkpt>
      <trkpt lat="45.2722370" lon="6.3402090">
        <ele>674.2</ele>
        <time>2021-08-19T12:25:11Z</time>
      </trkpt>
      <trkpt lat="45.2722010" lon="6.3401690">
        <ele>674.6</ele>
        <time>2021-08-19T12:25:13Z</time>
      </trkpt>
      <trkpt lat="45.2721540" lon="6.3401080">
        <ele>675.2</ele>
        <time>2021-08-19T12:25:16Z</time>
      </trkpt>
      <trkpt lat="45.2721350" lon="6.3400900">
        <ele>675.2</ele>
        <time>2021-08-19T12:25:17Z</time>
      </trkpt>
      <trkpt lat="45.2720460" lon="6.3400240">
        <ele>675.8</ele>
        <time>2021-08-19T12:25:21Z</time>
      </trkpt>
      <trkpt lat="45.2719800" lon="6.3399890">
        <ele>676.6</ele>
        <time>2021-08-19T12:25:24Z</time>
      </trkpt>
      <trkpt lat="45.2719400" lon="6.3399700">
        <ele>676.8</ele>
        <time>2021-08-19T12:25:26Z</time>
      </trkpt>
      <trkpt lat="45.2719240" lon="6.3399610">
        <ele>677.2</ele>
        <time>2021-08-19T12:25:27Z</time>
      </trkpt>
      <trkpt lat="45.2719020" lon="6.3399510">
        <ele>677.4</ele>
        <time>2021-08-19T12:25:28Z</time>
      </trkpt>
      <trkpt lat="45.2718810" lon="6.3399420">
        <ele>677.8</ele>
        <time>2021-08-19T12:25:29Z</time>
      </trkpt>
      <trkpt lat="45.2718430" lon="6.3399150">
        <ele>678.2</ele>
        <time>2021-08-19T12:25:31Z</time>
      </trkpt>
      <trkpt lat="45.2717480" lon="6.3398430">
        <ele>678.8</ele>
        <time>2021-08-19T12:25:36Z</time>
      </trkpt>
      <trkpt lat="45.2716350" lon="6.3397630">
        <ele>679.8</ele>
        <time>2021-08-19T12:25:42Z</time>
      </trkpt>
      <trkpt lat="45.2716170" lon="6.3397480">
        <ele>680.2</ele>
        <time>2021-08-19T12:25:43Z</time>
      </trkpt>
      <trkpt lat="45.2715510" lon="6.3397100">
        <ele>680.8</ele>
        <time>2021-08-19T12:25:46Z</time>
      </trkpt>
      <trkpt lat="45.2714730" lon="6.3396580">
        <ele>681.6</ele>
        <time>2021-08-19T12:25:50Z</time>
      </trkpt>
      <trkpt lat="45.2714320" lon="6.3396320">
        <ele>682.2</ele>
        <time>2021-08-19T12:25:52Z</time>
      </trkpt>
      <trkpt lat="45.2714120" lon="6.3396200">
        <ele>682.4</ele>
        <time>2021-08-19T12:25:53Z</time>
      </trkpt>
      <trkpt lat="45.2713960" lon="6.3396110">
        <ele>682.6</ele>
        <time>2021-08-19T12:25:54Z</time>
      </trkpt>
      <trkpt lat="45.2713710" lon="6.3395970">
        <ele>683.0</ele>
        <time>2021-08-19T12:25:55Z</time>
      </trkpt>
      <trkpt lat="45.2713520" lon="6.3395870">
        <ele>683.2</ele>
        <time>2021-08-19T12:25:56Z</time>
      </trkpt>
      <trkpt lat="45.2713330" lon="6.3395750">
        <ele>683.6</ele>
        <time>2021-08-19T12:25:57Z</time>
      </trkpt>
      <trkpt lat="45.2713140" lon="6.3395640">
        <ele>683.6</ele>
        <time>2021-08-19T12:25:58Z</time>
      </trkpt>
      <trkpt lat="45.2712480" lon="6.3395220">
        <ele>684.4</ele>
        <time>2021-08-19T12:26:01Z</time>
      </trkpt>
      <trkpt lat="45.2712270" lon="6.3395100">
        <ele>684.6</ele>
        <time>2021-08-19T12:26:02Z</time>
      </trkpt>
      <trkpt lat="45.2711850" lon="6.3394870">
        <ele>685.0</ele>
        <time>2021-08-19T12:26:04Z</time>
      </trkpt>
      <trkpt lat="45.2711410" lon="6.3394610">
        <ele>685.2</ele>
        <time>2021-08-19T12:26:06Z</time>
      </trkpt>
      <trkpt lat="45.2710850" lon="6.3394310">
        <ele>686.0</ele>
        <time>2021-08-19T12:26:09Z</time>
      </trkpt>
      <trkpt lat="45.2710670" lon="6.3394170">
        <ele>686.0</ele>
        <time>2021-08-19T12:26:10Z</time>
      </trkpt>
      <trkpt lat="45.2710420" lon="6.3394040">
        <ele>686.4</ele>
        <time>2021-08-19T12:26:11Z</time>
      </trkpt>
      <trkpt lat="45.2709210" lon="6.3393300">
        <ele>687.0</ele>
        <time>2021-08-19T12:26:17Z</time>
      </trkpt>
      <trkpt lat="45.2709030" lon="6.3393150">
        <ele>687.2</ele>
        <time>2021-08-19T12:26:18Z</time>
      </trkpt>
      <trkpt lat="45.2708100" lon="6.3392460">
        <ele>688.4</ele>
        <time>2021-08-19T12:26:23Z</time>
      </trkpt>
      <trkpt lat="45.2707310" lon="6.3392000">
        <ele>689.4</ele>
        <time>2021-08-19T12:26:27Z</time>
      </trkpt>
      <trkpt lat="45.2706530" lon="6.3391540">
        <ele>690.0</ele>
        <time>2021-08-19T12:26:31Z</time>
      </trkpt>
      <trkpt lat="45.2705930" lon="6.3391230">
        <ele>690.6</ele>
        <time>2021-08-19T12:26:34Z</time>
      </trkpt>
      <trkpt lat="45.2704880" lon="6.3390860">
        <ele>691.4</ele>
        <time>2021-08-19T12:26:39Z</time>
      </trkpt>
      <trkpt lat="45.2704460" lon="6.3390620">
        <ele>691.6</ele>
        <time>2021-08-19T12:26:41Z</time>
      </trkpt>
      <trkpt lat="45.2703670" lon="6.3390150">
        <ele>692.8</ele>
        <time>2021-08-19T12:26:45Z</time>
      </trkpt>
      <trkpt lat="45.2702860" lon="6.3389750">
        <ele>693.6</ele>
        <time>2021-08-19T12:26:49Z</time>
      </trkpt>
      <trkpt lat="45.2702440" lon="6.3389520">
        <ele>694.0</ele>
        <time>2021-08-19T12:26:51Z</time>
      </trkpt>
      <trkpt lat="45.2701350" lon="6.3388970">
        <ele>695.0</ele>
        <time>2021-08-19T12:26:57Z</time>
      </trkpt>
      <trkpt lat="45.2700730" lon="6.3388750">
        <ele>695.6</ele>
        <time>2021-08-19T12:27:00Z</time>
      </trkpt>
      <trkpt lat="45.2700300" lon="6.3388520">
        <ele>696.0</ele>
        <time>2021-08-19T12:27:02Z</time>
      </trkpt>
      <trkpt lat="45.2699350" lon="6.3387970">
        <ele>697.0</ele>
        <time>2021-08-19T12:27:07Z</time>
      </trkpt>
      <trkpt lat="45.2699190" lon="6.3387820">
        <ele>697.2</ele>
        <time>2021-08-19T12:27:08Z</time>
      </trkpt>
      <trkpt lat="45.2698580" lon="6.3386880">
        <ele>698.2</ele>
        <time>2021-08-19T12:27:12Z</time>
      </trkpt>
      <trkpt lat="45.2698590" lon="6.3386590">
        <ele>698.2</ele>
        <time>2021-08-19T12:27:13Z</time>
      </trkpt>
      <trkpt lat="45.2698750" lon="6.3386050">
        <ele>698.6</ele>
        <time>2021-08-19T12:27:15Z</time>
      </trkpt>
      <trkpt lat="45.2699100" lon="6.3385790">
        <ele>699.0</ele>
        <time>2021-08-19T12:27:17Z</time>
      </trkpt>
      <trkpt lat="45.2699330" lon="6.3385810">
        <ele>699.0</ele>
        <time>2021-08-19T12:27:18Z</time>
      </trkpt>
      <trkpt lat="45.2699550" lon="6.3385900">
        <ele>699.4</ele>
        <time>2021-08-19T12:27:19Z</time>
      </trkpt>
      <trkpt lat="45.2700210" lon="6.3386240">
        <ele>700.2</ele>
        <time>2021-08-19T12:27:22Z</time>
      </trkpt>
      <trkpt lat="45.2700820" lon="6.3386670">
        <ele>700.6</ele>
        <time>2021-08-19T12:27:25Z</time>
      </trkpt>
      <trkpt lat="45.2701250" lon="6.3386820">
        <ele>701.4</ele>
        <time>2021-08-19T12:27:27Z</time>
      </trkpt>
      <trkpt lat="45.2701490" lon="6.3386920">
        <ele>701.8</ele>
        <time>2021-08-19T12:27:28Z</time>
      </trkpt>
      <trkpt lat="45.2701670" lon="6.3386990">
        <ele>701.8</ele>
        <time>2021-08-19T12:27:29Z</time>
      </trkpt>
      <trkpt lat="45.2702190" lon="6.3387150">
        <ele>702.4</ele>
        <time>2021-08-19T12:27:31Z</time>
      </trkpt>
      <trkpt lat="45.2702670" lon="6.3387290">
        <ele>702.8</ele>
        <time>2021-08-19T12:27:33Z</time>
      </trkpt>
      <trkpt lat="45.2703560" lon="6.3387400">
        <ele>703.6</ele>
        <time>2021-08-19T12:27:37Z</time>
      </trkpt>
      <trkpt lat="45.2704330" lon="6.3387290">
        <ele>704.0</ele>
        <time>2021-08-19T12:27:40Z</time>
      </trkpt>
      <trkpt lat="45.2704970" lon="6.3386910">
        <ele>704.6</ele>
        <time>2021-08-19T12:27:43Z</time>
      </trkpt>
      <trkpt lat="45.2705630" lon="6.3386450">
        <ele>705.0</ele>
        <time>2021-08-19T12:27:47Z</time>
      </trkpt>
      <trkpt lat="45.2705810" lon="6.3386210">
        <ele>705.0</ele>
        <time>2021-08-19T12:27:48Z</time>
      </trkpt>
      <trkpt lat="45.2706700" lon="6.3384580">
        <ele>706.0</ele>
        <time>2021-08-19T12:27:55Z</time>
      </trkpt>
      <trkpt lat="45.2707120" lon="6.3383210">
        <ele>707.2</ele>
        <time>2021-08-19T12:28:00Z</time>
      </trkpt>
      <trkpt lat="45.2707390" lon="6.3382250">
        <ele>707.8</ele>
        <time>2021-08-19T12:28:03Z</time>
      </trkpt>
      <trkpt lat="45.2707490" lon="6.3381950">
        <ele>708.4</ele>
        <time>2021-08-19T12:28:04Z</time>
      </trkpt>
      <trkpt lat="45.2707800" lon="6.3380800">
        <ele>709.6</ele>
        <time>2021-08-19T12:28:08Z</time>
      </trkpt>
      <trkpt lat="45.2708170" lon="6.3379730">
        <ele>710.6</ele>
        <time>2021-08-19T12:28:12Z</time>
      </trkpt>
      <trkpt lat="45.2708410" lon="6.3379200">
        <ele>711.0</ele>
        <time>2021-08-19T12:28:14Z</time>
      </trkpt>
      <trkpt lat="45.2709190" lon="6.3377840">
        <ele>711.8</ele>
        <time>2021-08-19T12:28:20Z</time>
      </trkpt>
      <trkpt lat="45.2709330" lon="6.3377600">
        <ele>712.0</ele>
        <time>2021-08-19T12:28:21Z</time>
      </trkpt>
      <trkpt lat="45.2710070" lon="6.3376130">
        <ele>713.0</ele>
        <time>2021-08-19T12:28:27Z</time>
      </trkpt>
      <trkpt lat="45.2710180" lon="6.3375830">
        <ele>713.2</ele>
        <time>2021-08-19T12:28:28Z</time>
      </trkpt>
      <trkpt lat="45.2710450" lon="6.3375150">
        <ele>714.0</ele>
        <time>2021-08-19T12:28:31Z</time>
      </trkpt>
      <trkpt lat="45.2710700" lon="6.3374320">
        <ele>715.4</ele>
        <time>2021-08-19T12:28:34Z</time>
      </trkpt>
      <trkpt lat="45.2710840" lon="6.3373430">
        <ele>716.2</ele>
        <time>2021-08-19T12:28:37Z</time>
      </trkpt>
      <trkpt lat="45.2710830" lon="6.3373100">
        <ele>716.4</ele>
        <time>2021-08-19T12:28:38Z</time>
      </trkpt>
      <trkpt lat="45.2710710" lon="6.3371260">
        <ele>717.4</ele>
        <time>2021-08-19T12:28:44Z</time>
      </trkpt>
      <trkpt lat="45.2710670" lon="6.3370070">
        <ele>718.6</ele>
        <time>2021-08-19T12:28:48Z</time>
      </trkpt>
      <trkpt lat="45.2710730" lon="6.3368580">
        <ele>719.8</ele>
        <time>2021-08-19T12:28:53Z</time>
      </trkpt>
      <trkpt lat="45.2710490" lon="6.3366610">
        <ele>721.2</ele>
        <time>2021-08-19T12:29:00Z</time>
      </trkpt>
      <trkpt lat="45.2709850" lon="6.3365310">
        <ele>722.0</ele>
        <time>2021-08-19T12:29:05Z</time>
      </trkpt>
      <trkpt lat="45.2709650" lon="6.3365080">
        <ele>722.2</ele>
        <time>2021-08-19T12:29:06Z</time>
      </trkpt>
      <trkpt lat="45.2709500" lon="6.3364890">
        <ele>722.2</ele>
        <time>2021-08-19T12:29:07Z</time>
      </trkpt>
      <trkpt lat="45.2708250" lon="6.3364400">
        <ele>723.4</ele>
        <time>2021-08-19T12:29:13Z</time>
      </trkpt>
      <trkpt lat="45.2706750" lon="6.3364050">
        <ele>724.4</ele>
        <time>2021-08-19T12:29:20Z</time>
      </trkpt>
      <trkpt lat="45.2706480" lon="6.3363980">
        <ele>724.6</ele>
        <time>2021-08-19T12:29:21Z</time>
      </trkpt>
      <trkpt lat="45.2705530" lon="6.3363810">
        <ele>725.6</ele>
        <time>2021-08-19T12:29:25Z</time>
      </trkpt>
      <trkpt lat="45.2704450" lon="6.3363640">
        <ele>726.6</ele>
        <time>2021-08-19T12:29:30Z</time>
      </trkpt>
      <trkpt lat="45.2704170" lon="6.3363530">
        <ele>726.6</ele>
        <time>2021-08-19T12:29:31Z</time>
      </trkpt>
      <trkpt lat="45.2702800" lon="6.3363190">
        <ele>727.6</ele>
        <time>2021-08-19T12:29:37Z</time>
      </trkpt>
      <trkpt lat="45.2702580" lon="6.3363180">
        <ele>727.8</ele>
        <time>2021-08-19T12:29:38Z</time>
      </trkpt>
      <trkpt lat="45.2701960" lon="6.3362980">
        <ele>728.4</ele>
        <time>2021-08-19T12:29:41Z</time>
      </trkpt>
      <trkpt lat="45.2701740" lon="6.3362930">
        <ele>728.8</ele>
        <time>2021-08-19T12:29:42Z</time>
      </trkpt>
      <trkpt lat="45.2701120" lon="6.3362830">
        <ele>729.6</ele>
        <time>2021-08-19T12:29:45Z</time>
      </trkpt>
      <trkpt lat="45.2700650" lon="6.3362720">
        <ele>730.0</ele>
        <time>2021-08-19T12:29:47Z</time>
      </trkpt>
      <trkpt lat="45.2699480" lon="6.3362520">
        <ele>731.0</ele>
        <time>2021-08-19T12:29:52Z</time>
      </trkpt>
      <trkpt lat="45.2699240" lon="6.3362510">
        <ele>731.2</ele>
        <time>2021-08-19T12:29:53Z</time>
      </trkpt>
      <trkpt lat="45.2698780" lon="6.3362420">
        <ele>731.6</ele>
        <time>2021-08-19T12:29:55Z</time>
      </trkpt>
      <trkpt lat="45.2698580" lon="6.3362370">
        <ele>731.8</ele>
        <time>2021-08-19T12:29:56Z</time>
      </trkpt>
      <trkpt lat="45.2698070" lon="6.3362280">
        <ele>732.2</ele>
        <time>2021-08-19T12:29:58Z</time>
      </trkpt>
      <trkpt lat="45.2697540" lon="6.3362160">
        <ele>732.6</ele>
        <time>2021-08-19T12:30:00Z</time>
      </trkpt>
      <trkpt lat="45.2696030" lon="6.3361750">
        <ele>733.4</ele>
        <time>2021-08-19T12:30:06Z</time>
      </trkpt>
      <trkpt lat="45.2695020" lon="6.3361530">
        <ele>733.8</ele>
        <time>2021-08-19T12:30:10Z</time>
      </trkpt>
      <trkpt lat="45.2694530" lon="6.3361320">
        <ele>734.6</ele>
        <time>2021-08-19T12:30:12Z</time>
      </trkpt>
      <trkpt lat="45.2693540" lon="6.3360870">
        <ele>735.0</ele>
        <time>2021-08-19T12:30:16Z</time>
      </trkpt>
      <trkpt lat="45.2693280" lon="6.3360720">
        <ele>735.0</ele>
        <time>2021-08-19T12:30:17Z</time>
      </trkpt>
      <trkpt lat="45.2693030" lon="6.3360560">
        <ele>735.2</ele>
        <time>2021-08-19T12:30:18Z</time>
      </trkpt>
      <trkpt lat="45.2692850" lon="6.3360410">
        <ele>735.2</ele>
        <time>2021-08-19T12:30:19Z</time>
      </trkpt>
      <trkpt lat="45.2692580" lon="6.3360210">
        <ele>735.4</ele>
        <time>2021-08-19T12:30:20Z</time>
      </trkpt>
      <trkpt lat="45.2692360" lon="6.3360060">
        <ele>735.6</ele>
        <time>2021-08-19T12:30:21Z</time>
      </trkpt>
      <trkpt lat="45.2692130" lon="6.3359900">
        <ele>735.8</ele>
        <time>2021-08-19T12:30:22Z</time>
      </trkpt>
      <trkpt lat="45.2691640" lon="6.3359510">
        <ele>736.2</ele>
        <time>2021-08-19T12:30:24Z</time>
      </trkpt>
      <trkpt lat="45.2691400" lon="6.3359330">
        <ele>736.2</ele>
        <time>2021-08-19T12:30:25Z</time>
      </trkpt>
      <trkpt lat="45.2691160" lon="6.3359140">
        <ele>736.4</ele>
        <time>2021-08-19T12:30:26Z</time>
      </trkpt>
      <trkpt lat="45.2690930" lon="6.3358970">
        <ele>736.6</ele>
        <time>2021-08-19T12:30:27Z</time>
      </trkpt>
      <trkpt lat="45.2690740" lon="6.3358780">
        <ele>736.8</ele>
        <time>2021-08-19T12:30:28Z</time>
      </trkpt>
      <trkpt lat="45.2689680" lon="6.3357130">
        <ele>738.0</ele>
        <time>2021-08-19T12:30:33Z</time>
      </trkpt>
      <trkpt lat="45.2688300" lon="6.3353830">
        <ele>739.0</ele>
        <time>2021-08-19T12:30:41Z</time>
      </trkpt>
      <trkpt lat="45.2688160" lon="6.3353350">
        <ele>739.2</ele>
        <time>2021-08-19T12:30:42Z</time>
      </trkpt>
      <trkpt lat="45.2687530" lon="6.3351540">
        <ele>739.6</ele>
        <time>2021-08-19T12:30:46Z</time>
      </trkpt>
      <trkpt lat="45.2686870" lon="6.3349860">
        <ele>740.0</ele>
        <time>2021-08-19T12:30:50Z</time>
      </trkpt>
      <trkpt lat="45.2686660" lon="6.3349430">
        <ele>740.0</ele>
        <time>2021-08-19T12:30:51Z</time>
      </trkpt>
      <trkpt lat="45.2684920" lon="6.3346340">
        <ele>740.4</ele>
        <time>2021-08-19T12:30:58Z</time>
      </trkpt>
      <trkpt lat="45.2684610" lon="6.3345860">
        <ele>740.6</ele>
        <time>2021-08-19T12:30:59Z</time>
      </trkpt>
      <trkpt lat="45.2683520" lon="6.3344320">
        <ele>741.0</ele>
        <time>2021-08-19T12:31:03Z</time>
      </trkpt>
      <trkpt lat="45.2682820" lon="6.3343160">
        <ele>741.4</ele>
        <time>2021-08-19T12:31:06Z</time>
      </trkpt>
      <trkpt lat="45.2682620" lon="6.3342860">
        <ele>741.6</ele>
        <time>2021-08-19T12:31:07Z</time>
      </trkpt>
      <trkpt lat="45.2682330" lon="6.3342460">
        <ele>741.8</ele>
        <time>2021-08-19T12:31:08Z</time>
      </trkpt>
      <trkpt lat="45.2681770" lon="6.3341840">
        <ele>742.0</ele>
        <time>2021-08-19T12:31:10Z</time>
      </trkpt>
      <trkpt lat="45.2681310" lon="6.3341250">
        <ele>742.4</ele>
        <time>2021-08-19T12:31:12Z</time>
      </trkpt>
      <trkpt lat="45.2681110" lon="6.3340930">
        <ele>742.4</ele>
        <time>2021-08-19T12:31:13Z</time>
      </trkpt>
      <trkpt lat="45.2680940" lon="6.3340580">
        <ele>742.4</ele>
        <time>2021-08-19T12:31:14Z</time>
      </trkpt>
      <trkpt lat="45.2680750" lon="6.3340290">
        <ele>742.8</ele>
        <time>2021-08-19T12:31:15Z</time>
      </trkpt>
      <trkpt lat="45.2680370" lon="6.3339810">
        <ele>743.2</ele>
        <time>2021-08-19T12:31:17Z</time>
      </trkpt>
      <trkpt lat="45.2680200" lon="6.3339540">
        <ele>743.4</ele>
        <time>2021-08-19T12:31:18Z</time>
      </trkpt>
      <trkpt lat="45.2679930" lon="6.3338910">
        <ele>743.8</ele>
        <time>2021-08-19T12:31:20Z</time>
      </trkpt>
      <trkpt lat="45.2679600" lon="6.3338340">
        <ele>744.4</ele>
        <time>2021-08-19T12:31:22Z</time>
      </trkpt>
      <trkpt lat="45.2679320" lon="6.3337810">
        <ele>744.8</ele>
        <time>2021-08-19T12:31:24Z</time>
      </trkpt>
      <trkpt lat="45.2678930" lon="6.3336990">
        <ele>745.6</ele>
        <time>2021-08-19T12:31:27Z</time>
      </trkpt>
      <trkpt lat="45.2678480" lon="6.3335960">
        <ele>746.2</ele>
        <time>2021-08-19T12:31:31Z</time>
      </trkpt>
      <trkpt lat="45.2678360" lon="6.3335690">
        <ele>746.4</ele>
        <time>2021-08-19T12:31:32Z</time>
      </trkpt>
      <trkpt lat="45.2678230" lon="6.3335370">
        <ele>746.6</ele>
        <time>2021-08-19T12:31:33Z</time>
      </trkpt>
      <trkpt lat="45.2677590" lon="6.3333600">
        <ele>747.6</ele>
        <time>2021-08-19T12:31:39Z</time>
      </trkpt>
      <trkpt lat="45.2677360" lon="6.3332990">
        <ele>747.8</ele>
        <time>2021-08-19T12:31:41Z</time>
      </trkpt>
      <trkpt lat="45.2677020" lon="6.3331810">
        <ele>749.0</ele>
        <time>2021-08-19T12:31:45Z</time>
      </trkpt>
      <trkpt lat="45.2676880" lon="6.3331210">
        <ele>749.4</ele>
        <time>2021-08-19T12:31:47Z</time>
      </trkpt>
      <trkpt lat="45.2676580" lon="6.3330060">
        <ele>750.0</ele>
        <time>2021-08-19T12:31:51Z</time>
      </trkpt>
      <trkpt lat="45.2676090" lon="6.3328560">
        <ele>751.0</ele>
        <time>2021-08-19T12:31:56Z</time>
      </trkpt>
      <trkpt lat="45.2675990" lon="6.3328200">
        <ele>751.2</ele>
        <time>2021-08-19T12:31:57Z</time>
      </trkpt>
      <trkpt lat="45.2675670" lon="6.3327060">
        <ele>752.0</ele>
        <time>2021-08-19T12:32:01Z</time>
      </trkpt>
      <trkpt lat="45.2675590" lon="6.3326790">
        <ele>752.2</ele>
        <time>2021-08-19T12:32:02Z</time>
      </trkpt>
      <trkpt lat="45.2675220" lon="6.3325520">
        <ele>753.0</ele>
        <time>2021-08-19T12:32:06Z</time>
      </trkpt>
      <trkpt lat="45.2675090" lon="6.3324950">
        <ele>753.2</ele>
        <time>2021-08-19T12:32:08Z</time>
      </trkpt>
      <trkpt lat="45.2674650" lon="6.3323570">
        <ele>754.4</ele>
        <time>2021-08-19T12:32:13Z</time>
      </trkpt>
      <trkpt lat="45.2674520" lon="6.3322980">
        <ele>754.4</ele>
        <time>2021-08-19T12:32:15Z</time>
      </trkpt>
      <trkpt lat="45.2674150" lon="6.3321560">
        <ele>755.4</ele>
        <time>2021-08-19T12:32:20Z</time>
      </trkpt>
      <trkpt lat="45.2673790" lon="6.3319810">
        <ele>756.4</ele>
        <time>2021-08-19T12:32:26Z</time>
      </trkpt>
      <trkpt lat="45.2673410" lon="6.3318370">
        <ele>757.4</ele>
        <time>2021-08-19T12:32:31Z</time>
      </trkpt>
      <trkpt lat="45.2673330" lon="6.3318020">
        <ele>757.8</ele>
        <time>2021-08-19T12:32:32Z</time>
      </trkpt>
      <trkpt lat="45.2672920" lon="6.3316580">
        <ele>758.8</ele>
        <time>2021-08-19T12:32:37Z</time>
      </trkpt>
      <trkpt lat="45.2672820" lon="6.3316360">
        <ele>758.8</ele>
        <time>2021-08-19T12:32:38Z</time>
      </trkpt>
      <trkpt lat="45.2672540" lon="6.3314950">
        <ele>759.8</ele>
        <time>2021-08-19T12:32:43Z</time>
      </trkpt>
      <trkpt lat="45.2672500" lon="6.3314620">
        <ele>760.2</ele>
        <time>2021-08-19T12:32:44Z</time>
      </trkpt>
      <trkpt lat="45.2672160" lon="6.3313160">
        <ele>760.8</ele>
        <time>2021-08-19T12:32:49Z</time>
      </trkpt>
      <trkpt lat="45.2671990" lon="6.3312630">
        <ele>761.2</ele>
        <time>2021-08-19T12:32:51Z</time>
      </trkpt>
      <trkpt lat="45.2671900" lon="6.3312380">
        <ele>761.4</ele>
        <time>2021-08-19T12:32:52Z</time>
      </trkpt>
      <trkpt lat="45.2671790" lon="6.3312120">
        <ele>761.6</ele>
        <time>2021-08-19T12:32:53Z</time>
      </trkpt>
      <trkpt lat="45.2671420" lon="6.3311270">
        <ele>762.2</ele>
        <time>2021-08-19T12:32:56Z</time>
      </trkpt>
      <trkpt lat="45.2670910" lon="6.3310280">
        <ele>762.8</ele>
        <time>2021-08-19T12:33:00Z</time>
      </trkpt>
      <trkpt lat="45.2670540" lon="6.3309850">
        <ele>763.2</ele>
        <time>2021-08-19T12:33:02Z</time>
      </trkpt>
      <trkpt lat="45.2669650" lon="6.3309050">
        <ele>764.2</ele>
        <time>2021-08-19T12:33:07Z</time>
      </trkpt>
      <trkpt lat="45.2669270" lon="6.3308800">
        <ele>764.8</ele>
        <time>2021-08-19T12:33:09Z</time>
      </trkpt>
      <trkpt lat="45.2668700" lon="6.3308430">
        <ele>765.2</ele>
        <time>2021-08-19T12:33:12Z</time>
      </trkpt>
      <trkpt lat="45.2668100" lon="6.3308070">
        <ele>765.6</ele>
        <time>2021-08-19T12:33:15Z</time>
      </trkpt>
      <trkpt lat="45.2667910" lon="6.3307940">
        <ele>766.0</ele>
        <time>2021-08-19T12:33:16Z</time>
      </trkpt>
      <trkpt lat="45.2666700" lon="6.3307040">
        <ele>767.0</ele>
        <time>2021-08-19T12:33:22Z</time>
      </trkpt>
      <trkpt lat="45.2666110" lon="6.3306650">
        <ele>767.6</ele>
        <time>2021-08-19T12:33:25Z</time>
      </trkpt>
      <trkpt lat="45.2665710" lon="6.3306350">
        <ele>768.2</ele>
        <time>2021-08-19T12:33:27Z</time>
      </trkpt>
      <trkpt lat="45.2664860" lon="6.3305800">
        <ele>769.4</ele>
        <time>2021-08-19T12:33:31Z</time>
      </trkpt>
      <trkpt lat="45.2664490" lon="6.3305560">
        <ele>769.8</ele>
        <time>2021-08-19T12:33:33Z</time>
      </trkpt>
      <trkpt lat="45.2663420" lon="6.3305000">
        <ele>770.6</ele>
        <time>2021-08-19T12:33:38Z</time>
      </trkpt>
      <trkpt lat="45.2662970" lon="6.3304870">
        <ele>770.8</ele>
        <time>2021-08-19T12:33:40Z</time>
      </trkpt>
      <trkpt lat="45.2662030" lon="6.3304680">
        <ele>771.8</ele>
        <time>2021-08-19T12:33:44Z</time>
      </trkpt>
      <trkpt lat="45.2661390" lon="6.3304660">
        <ele>772.2</ele>
        <time>2021-08-19T12:33:47Z</time>
      </trkpt>
      <trkpt lat="45.2660930" lon="6.3304780">
        <ele>772.6</ele>
        <time>2021-08-19T12:33:49Z</time>
      </trkpt>
      <trkpt lat="45.2659810" lon="6.3304750">
        <ele>773.2</ele>
        <time>2021-08-19T12:33:54Z</time>
      </trkpt>
      <trkpt lat="45.2658870" lon="6.3304730">
        <ele>773.8</ele>
        <time>2021-08-19T12:33:58Z</time>
      </trkpt>
      <trkpt lat="45.2657760" lon="6.3304250">
        <ele>775.0</ele>
        <time>2021-08-19T12:34:03Z</time>
      </trkpt>
      <trkpt lat="45.2656840" lon="6.3303550">
        <ele>776.2</ele>
        <time>2021-08-19T12:34:08Z</time>
      </trkpt>
      <trkpt lat="45.2656370" lon="6.3303030">
        <ele>777.0</ele>
        <time>2021-08-19T12:34:11Z</time>
      </trkpt>
      <trkpt lat="45.2656210" lon="6.3302860">
        <ele>777.2</ele>
        <time>2021-08-19T12:34:12Z</time>
      </trkpt>
      <trkpt lat="45.2656040" lon="6.3302730">
        <ele>777.4</ele>
        <time>2021-08-19T12:34:13Z</time>
      </trkpt>
      <trkpt lat="45.2655160" lon="6.3301900">
        <ele>778.4</ele>
        <time>2021-08-19T12:34:18Z</time>
      </trkpt>
      <trkpt lat="45.2654970" lon="6.3301740">
        <ele>778.6</ele>
        <time>2021-08-19T12:34:19Z</time>
      </trkpt>
      <trkpt lat="45.2654630" lon="6.3301440">
        <ele>779.2</ele>
        <time>2021-08-19T12:34:21Z</time>
      </trkpt>
      <trkpt lat="45.2654450" lon="6.3301300">
        <ele>779.6</ele>
        <time>2021-08-19T12:34:22Z</time>
      </trkpt>
      <trkpt lat="45.2653680" lon="6.3300450">
        <ele>780.4</ele>
        <time>2021-08-19T12:34:27Z</time>
      </trkpt>
      <trkpt lat="45.2653560" lon="6.3300300">
        <ele>780.8</ele>
        <time>2021-08-19T12:34:28Z</time>
      </trkpt>
      <trkpt lat="45.2652590" lon="6.3299370">
        <ele>781.8</ele>
        <time>2021-08-19T12:34:34Z</time>
      </trkpt>
      <trkpt lat="45.2652420" lon="6.3299180">
        <ele>782.0</ele>
        <time>2021-08-19T12:34:35Z</time>
      </trkpt>
      <trkpt lat="45.2651440" lon="6.3298290">
        <ele>783.0</ele>
        <time>2021-08-19T12:34:41Z</time>
      </trkpt>
      <trkpt lat="45.2650910" lon="6.3297870">
        <ele>783.2</ele>
        <time>2021-08-19T12:34:44Z</time>
      </trkpt>
      <trkpt lat="45.2650520" lon="6.3297580">
        <ele>784.0</ele>
        <time>2021-08-19T12:34:46Z</time>
      </trkpt>
      <trkpt lat="45.2650200" lon="6.3297260">
        <ele>784.2</ele>
        <time>2021-08-19T12:34:48Z</time>
      </trkpt>
      <trkpt lat="45.2649940" lon="6.3296990">
        <ele>784.8</ele>
        <time>2021-08-19T12:34:50Z</time>
      </trkpt>
      <trkpt lat="45.2649540" lon="6.3296510">
        <ele>785.0</ele>
        <time>2021-08-19T12:34:53Z</time>
      </trkpt>
      <trkpt lat="45.2649220" lon="6.3296200">
        <ele>785.4</ele>
        <time>2021-08-19T12:34:55Z</time>
      </trkpt>
      <trkpt lat="45.2648740" lon="6.3295700">
        <ele>786.2</ele>
        <time>2021-08-19T12:34:58Z</time>
      </trkpt>
      <trkpt lat="45.2648030" lon="6.3295050">
        <ele>787.2</ele>
        <time>2021-08-19T12:35:02Z</time>
      </trkpt>
      <trkpt lat="45.2647650" lon="6.3294730">
        <ele>787.4</ele>
        <time>2021-08-19T12:35:04Z</time>
      </trkpt>
      <trkpt lat="45.2647480" lon="6.3294550">
        <ele>787.6</ele>
        <time>2021-08-19T12:35:05Z</time>
      </trkpt>
      <trkpt lat="45.2646940" lon="6.3293990">
        <ele>788.4</ele>
        <time>2021-08-19T12:35:08Z</time>
      </trkpt>
      <trkpt lat="45.2645960" lon="6.3292900">
        <ele>789.6</ele>
        <time>2021-08-19T12:35:14Z</time>
      </trkpt>
      <trkpt lat="45.2644960" lon="6.3291870">
        <ele>790.6</ele>
        <time>2021-08-19T12:35:20Z</time>
      </trkpt>
      <trkpt lat="45.2644170" lon="6.3291110">
        <ele>791.8</ele>
        <time>2021-08-19T12:35:25Z</time>
      </trkpt>
      <trkpt lat="45.2643880" lon="6.3290750">
        <ele>792.0</ele>
        <time>2021-08-19T12:35:27Z</time>
      </trkpt>
      <trkpt lat="45.2643240" lon="6.3290080">
        <ele>792.8</ele>
        <time>2021-08-19T12:35:31Z</time>
      </trkpt>
      <trkpt lat="45.2642630" lon="6.3289390">
        <ele>793.8</ele>
        <time>2021-08-19T12:35:35Z</time>
      </trkpt>
      <trkpt lat="45.2641540" lon="6.3288300">
        <ele>795.0</ele>
        <time>2021-08-19T12:35:42Z</time>
      </trkpt>
      <trkpt lat="45.2641240" lon="6.3287920">
        <ele>795.2</ele>
        <time>2021-08-19T12:35:44Z</time>
      </trkpt>
      <trkpt lat="45.2640230" lon="6.3286940">
        <ele>795.8</ele>
        <time>2021-08-19T12:35:50Z</time>
      </trkpt>
      <trkpt lat="45.2639710" lon="6.3286410">
        <ele>796.4</ele>
        <time>2021-08-19T12:35:53Z</time>
      </trkpt>
      <trkpt lat="45.2639550" lon="6.3286250">
        <ele>796.6</ele>
        <time>2021-08-19T12:35:54Z</time>
      </trkpt>
      <trkpt lat="45.2639230" lon="6.3285960">
        <ele>797.0</ele>
        <time>2021-08-19T12:35:56Z</time>
      </trkpt>
      <trkpt lat="45.2638910" lon="6.3285730">
        <ele>797.4</ele>
        <time>2021-08-19T12:35:58Z</time>
      </trkpt>
      <trkpt lat="45.2637990" lon="6.3285140">
        <ele>798.6</ele>
        <time>2021-08-19T12:36:03Z</time>
      </trkpt>
      <trkpt lat="45.2637820" lon="6.3284980">
        <ele>798.8</ele>
        <time>2021-08-19T12:36:04Z</time>
      </trkpt>
      <trkpt lat="45.2637030" lon="6.3284530">
        <ele>799.8</ele>
        <time>2021-08-19T12:36:08Z</time>
      </trkpt>
      <trkpt lat="45.2636080" lon="6.3283850">
        <ele>800.8</ele>
        <time>2021-08-19T12:36:13Z</time>
      </trkpt>
      <trkpt lat="45.2635860" lon="6.3283720">
        <ele>801.0</ele>
        <time>2021-08-19T12:36:14Z</time>
      </trkpt>
      <trkpt lat="45.2635180" lon="6.3283370">
        <ele>801.6</ele>
        <time>2021-08-19T12:36:17Z</time>
      </trkpt>
      <trkpt lat="45.2634700" lon="6.3283210">
        <ele>802.0</ele>
        <time>2021-08-19T12:36:19Z</time>
      </trkpt>
      <trkpt lat="45.2634280" lon="6.3283030">
        <ele>802.2</ele>
        <time>2021-08-19T12:36:21Z</time>
      </trkpt>
      <trkpt lat="45.2633420" lon="6.3282600">
        <ele>802.8</ele>
        <time>2021-08-19T12:36:25Z</time>
      </trkpt>
      <trkpt lat="45.2632790" lon="6.3282290">
        <ele>803.8</ele>
        <time>2021-08-19T12:36:28Z</time>
      </trkpt>
      <trkpt lat="45.2632260" lon="6.3281970">
        <ele>804.6</ele>
        <time>2021-08-19T12:36:31Z</time>
      </trkpt>
      <trkpt lat="45.2631850" lon="6.3281830">
        <ele>805.0</ele>
        <time>2021-08-19T12:36:33Z</time>
      </trkpt>
      <trkpt lat="45.2630900" lon="6.3281400">
        <ele>806.2</ele>
        <time>2021-08-19T12:36:38Z</time>
      </trkpt>
      <trkpt lat="45.2630360" lon="6.3281100">
        <ele>806.6</ele>
        <time>2021-08-19T12:36:41Z</time>
      </trkpt>
      <trkpt lat="45.2629830" lon="6.3280780">
        <ele>807.2</ele>
        <time>2021-08-19T12:36:44Z</time>
      </trkpt>
      <trkpt lat="45.2629050" lon="6.3280190">
        <ele>808.2</ele>
        <time>2021-08-19T12:36:49Z</time>
      </trkpt>
      <trkpt lat="45.2628890" lon="6.3280080">
        <ele>808.2</ele>
        <time>2021-08-19T12:36:50Z</time>
      </trkpt>
      <trkpt lat="45.2628030" lon="6.3279060">
        <ele>809.6</ele>
        <time>2021-08-19T12:36:56Z</time>
      </trkpt>
      <trkpt lat="45.2627940" lon="6.3278930">
        <ele>809.8</ele>
        <time>2021-08-19T12:36:57Z</time>
      </trkpt>
      <trkpt lat="45.2627790" lon="6.3278760">
        <ele>810.0</ele>
        <time>2021-08-19T12:36:58Z</time>
      </trkpt>
      <trkpt lat="45.2627640" lon="6.3278570">
        <ele>810.2</ele>
        <time>2021-08-19T12:36:59Z</time>
      </trkpt>
      <trkpt lat="45.2627340" lon="6.3278200">
        <ele>810.6</ele>
        <time>2021-08-19T12:37:01Z</time>
      </trkpt>
      <trkpt lat="45.2626270" lon="6.3276820">
        <ele>811.8</ele>
        <time>2021-08-19T12:37:09Z</time>
      </trkpt>
      <trkpt lat="45.2625210" lon="6.3275590">
        <ele>812.8</ele>
        <time>2021-08-19T12:37:16Z</time>
      </trkpt>
      <trkpt lat="45.2625090" lon="6.3275410">
        <ele>813.0</ele>
        <time>2021-08-19T12:37:17Z</time>
      </trkpt>
      <trkpt lat="45.2624530" lon="6.3274670">
        <ele>814.0</ele>
        <time>2021-08-19T12:37:21Z</time>
      </trkpt>
      <trkpt lat="45.2623820" lon="6.3273640">
        <ele>815.0</ele>
        <time>2021-08-19T12:37:26Z</time>
      </trkpt>
      <trkpt lat="45.2622990" lon="6.3272630">
        <ele>816.2</ele>
        <time>2021-08-19T12:37:32Z</time>
      </trkpt>
      <trkpt lat="45.2622570" lon="6.3272090">
        <ele>816.4</ele>
        <time>2021-08-19T12:37:35Z</time>
      </trkpt>
      <trkpt lat="45.2621980" lon="6.3271410">
        <ele>817.4</ele>
        <time>2021-08-19T12:37:39Z</time>
      </trkpt>
      <trkpt lat="45.2621370" lon="6.3270720">
        <ele>818.0</ele>
        <time>2021-08-19T12:37:43Z</time>
      </trkpt>
      <trkpt lat="45.2621080" lon="6.3270350">
        <ele>818.6</ele>
        <time>2021-08-19T12:37:45Z</time>
      </trkpt>
      <trkpt lat="45.2620430" lon="6.3269450">
        <ele>819.4</ele>
        <time>2021-08-19T12:37:50Z</time>
      </trkpt>
      <trkpt lat="45.2620180" lon="6.3269110">
        <ele>819.6</ele>
        <time>2021-08-19T12:37:52Z</time>
      </trkpt>
      <trkpt lat="45.2619880" lon="6.3268720">
        <ele>820.2</ele>
        <time>2021-08-19T12:37:54Z</time>
      </trkpt>
      <trkpt lat="45.2619310" lon="6.3267980">
        <ele>820.8</ele>
        <time>2021-08-19T12:37:58Z</time>
      </trkpt>
      <trkpt lat="45.2618440" lon="6.3266840">
        <ele>821.8</ele>
        <time>2021-08-19T12:38:04Z</time>
      </trkpt>
      <trkpt lat="45.2618280" lon="6.3266670">
        <ele>822.2</ele>
        <time>2021-08-19T12:38:05Z</time>
      </trkpt>
      <trkpt lat="45.2617530" lon="6.3265810">
        <ele>823.2</ele>
        <time>2021-08-19T12:38:10Z</time>
      </trkpt>
      <trkpt lat="45.2617380" lon="6.3265650">
        <ele>823.2</ele>
        <time>2021-08-19T12:38:11Z</time>
      </trkpt>
      <trkpt lat="45.2616480" lon="6.3264560">
        <ele>824.2</ele>
        <time>2021-08-19T12:38:17Z</time>
      </trkpt>
      <trkpt lat="45.2616310" lon="6.3264370">
        <ele>824.4</ele>
        <time>2021-08-19T12:38:18Z</time>
      </trkpt>
      <trkpt lat="45.2615350" lon="6.3263220">
        <ele>825.4</ele>
        <time>2021-08-19T12:38:24Z</time>
      </trkpt>
      <trkpt lat="45.2615010" lon="6.3262840">
        <ele>826.0</ele>
        <time>2021-08-19T12:38:26Z</time>
      </trkpt>
      <trkpt lat="45.2614680" lon="6.3262570">
        <ele>826.4</ele>
        <time>2021-08-19T12:38:28Z</time>
      </trkpt>
      <trkpt lat="45.2613820" lon="6.3261720">
        <ele>827.6</ele>
        <time>2021-08-19T12:38:33Z</time>
      </trkpt>
      <trkpt lat="45.2613540" lon="6.3261410">
        <ele>827.8</ele>
        <time>2021-08-19T12:38:35Z</time>
      </trkpt>
      <trkpt lat="45.2612890" lon="6.3260770">
        <ele>828.6</ele>
        <time>2021-08-19T12:38:39Z</time>
      </trkpt>
      <trkpt lat="45.2612250" lon="6.3260170">
        <ele>829.2</ele>
        <time>2021-08-19T12:38:43Z</time>
      </trkpt>
      <trkpt lat="45.2611920" lon="6.3259720">
        <ele>830.0</ele>
        <time>2021-08-19T12:38:45Z</time>
      </trkpt>
      <trkpt lat="45.2610720" lon="6.3258380">
        <ele>830.8</ele>
        <time>2021-08-19T12:38:52Z</time>
      </trkpt>
      <trkpt lat="45.2610570" lon="6.3258170">
        <ele>831.0</ele>
        <time>2021-08-19T12:38:53Z</time>
      </trkpt>
      <trkpt lat="45.2610020" lon="6.3257320">
        <ele>832.4</ele>
        <time>2021-08-19T12:38:57Z</time>
      </trkpt>
      <trkpt lat="45.2609670" lon="6.3256800">
        <ele>832.8</ele>
        <time>2021-08-19T12:39:00Z</time>
      </trkpt>
      <trkpt lat="45.2609270" lon="6.3255840">
        <ele>833.6</ele>
        <time>2021-08-19T12:39:04Z</time>
      </trkpt>
      <trkpt lat="45.2608860" lon="6.3254890">
        <ele>834.2</ele>
        <time>2021-08-19T12:39:08Z</time>
      </trkpt>
      <trkpt lat="45.2608680" lon="6.3254470">
        <ele>834.6</ele>
        <time>2021-08-19T12:39:10Z</time>
      </trkpt>
      <trkpt lat="45.2607820" lon="6.3252870">
        <ele>835.6</ele>
        <time>2021-08-19T12:39:17Z</time>
      </trkpt>
      <trkpt lat="45.2606860" lon="6.3251220">
        <ele>837.0</ele>
        <time>2021-08-19T12:39:25Z</time>
      </trkpt>
      <trkpt lat="45.2606310" lon="6.3250420">
        <ele>838.0</ele>
        <time>2021-08-19T12:39:29Z</time>
      </trkpt>
      <trkpt lat="45.2606180" lon="6.3250240">
        <ele>838.2</ele>
        <time>2021-08-19T12:39:30Z</time>
      </trkpt>
      <trkpt lat="45.2605370" lon="6.3249050">
        <ele>839.2</ele>
        <time>2021-08-19T12:39:36Z</time>
      </trkpt>
      <trkpt lat="45.2605230" lon="6.3248840">
        <ele>839.2</ele>
        <time>2021-08-19T12:39:37Z</time>
      </trkpt>
      <trkpt lat="45.2605100" lon="6.3248650">
        <ele>839.4</ele>
        <time>2021-08-19T12:39:38Z</time>
      </trkpt>
      <trkpt lat="45.2604820" lon="6.3248230">
        <ele>840.2</ele>
        <time>2021-08-19T12:39:40Z</time>
      </trkpt>
      <trkpt lat="45.2603870" lon="6.3247050">
        <ele>841.0</ele>
        <time>2021-08-19T12:39:46Z</time>
      </trkpt>
      <trkpt lat="45.2603590" lon="6.3246610">
        <ele>841.4</ele>
        <time>2021-08-19T12:39:48Z</time>
      </trkpt>
      <trkpt lat="45.2602960" lon="6.3245610">
        <ele>842.8</ele>
        <time>2021-08-19T12:39:53Z</time>
      </trkpt>
      <trkpt lat="45.2602410" lon="6.3244850">
        <ele>843.8</ele>
        <time>2021-08-19T12:39:57Z</time>
      </trkpt>
      <trkpt lat="45.2601550" lon="6.3243740">
        <ele>844.8</ele>
        <time>2021-08-19T12:40:03Z</time>
      </trkpt>
      <trkpt lat="45.2600980" lon="6.3242840">
        <ele>845.6</ele>
        <time>2021-08-19T12:40:07Z</time>
      </trkpt>
      <trkpt lat="45.2600860" lon="6.3242620">
        <ele>846.0</ele>
        <time>2021-08-19T12:40:08Z</time>
      </trkpt>
      <trkpt lat="45.2600050" lon="6.3241310">
        <ele>847.0</ele>
        <time>2021-08-19T12:40:14Z</time>
      </trkpt>
      <trkpt lat="45.2599610" lon="6.3240440">
        <ele>847.6</ele>
        <time>2021-08-19T12:40:18Z</time>
      </trkpt>
      <trkpt lat="45.2599360" lon="6.3239970">
        <ele>848.2</ele>
        <time>2021-08-19T12:40:20Z</time>
      </trkpt>
      <trkpt lat="45.2598830" lon="6.3238590">
        <ele>849.4</ele>
        <time>2021-08-19T12:40:26Z</time>
      </trkpt>
      <trkpt lat="45.2598590" lon="6.3238120">
        <ele>849.8</ele>
        <time>2021-08-19T12:40:28Z</time>
      </trkpt>
      <trkpt lat="45.2598070" lon="6.3237160">
        <ele>850.4</ele>
        <time>2021-08-19T12:40:32Z</time>
      </trkpt>
      <trkpt lat="45.2597580" lon="6.3236140">
        <ele>851.6</ele>
        <time>2021-08-19T12:40:37Z</time>
      </trkpt>
      <trkpt lat="45.2597490" lon="6.3235930">
        <ele>851.6</ele>
        <time>2021-08-19T12:40:38Z</time>
      </trkpt>
      <trkpt lat="45.2596660" lon="6.3234620">
        <ele>852.6</ele>
        <time>2021-08-19T12:40:44Z</time>
      </trkpt>
      <trkpt lat="45.2596490" lon="6.3234400">
        <ele>852.8</ele>
        <time>2021-08-19T12:40:45Z</time>
      </trkpt>
      <trkpt lat="45.2595850" lon="6.3233570">
        <ele>853.6</ele>
        <time>2021-08-19T12:40:49Z</time>
      </trkpt>
      <trkpt lat="45.2595690" lon="6.3233370">
        <ele>854.0</ele>
        <time>2021-08-19T12:40:50Z</time>
      </trkpt>
      <trkpt lat="45.2595540" lon="6.3233170">
        <ele>854.2</ele>
        <time>2021-08-19T12:40:51Z</time>
      </trkpt>
      <trkpt lat="45.2595410" lon="6.3232960">
        <ele>854.4</ele>
        <time>2021-08-19T12:40:52Z</time>
      </trkpt>
      <trkpt lat="45.2595120" lon="6.3232520">
        <ele>854.6</ele>
        <time>2021-08-19T12:40:54Z</time>
      </trkpt>
      <trkpt lat="45.2594970" lon="6.3232340">
        <ele>854.8</ele>
        <time>2021-08-19T12:40:55Z</time>
      </trkpt>
      <trkpt lat="45.2594130" lon="6.3231230">
        <ele>856.2</ele>
        <time>2021-08-19T12:41:01Z</time>
      </trkpt>
      <trkpt lat="45.2593870" lon="6.3230870">
        <ele>856.4</ele>
        <time>2021-08-19T12:41:03Z</time>
      </trkpt>
      <trkpt lat="45.2593150" lon="6.3229890">
        <ele>857.2</ele>
        <time>2021-08-19T12:41:08Z</time>
      </trkpt>
      <trkpt lat="45.2592700" lon="6.3229390">
        <ele>858.0</ele>
        <time>2021-08-19T12:41:11Z</time>
      </trkpt>
      <trkpt lat="45.2592270" lon="6.3228910">
        <ele>858.4</ele>
        <time>2021-08-19T12:41:14Z</time>
      </trkpt>
      <trkpt lat="45.2591700" lon="6.3228170">
        <ele>859.0</ele>
        <time>2021-08-19T12:41:18Z</time>
      </trkpt>
      <trkpt lat="45.2591050" lon="6.3227370">
        <ele>859.4</ele>
        <time>2021-08-19T12:41:22Z</time>
      </trkpt>
      <trkpt lat="45.2590900" lon="6.3227200">
        <ele>859.6</ele>
        <time>2021-08-19T12:41:23Z</time>
      </trkpt>
      <trkpt lat="45.2590100" lon="6.3226250">
        <ele>860.8</ele>
        <time>2021-08-19T12:41:28Z</time>
      </trkpt>
      <trkpt lat="45.2589970" lon="6.3226050">
        <ele>860.8</ele>
        <time>2021-08-19T12:41:29Z</time>
      </trkpt>
      <trkpt lat="45.2589200" lon="6.3225100">
        <ele>861.8</ele>
        <time>2021-08-19T12:41:34Z</time>
      </trkpt>
      <trkpt lat="45.2588520" lon="6.3224180">
        <ele>862.6</ele>
        <time>2021-08-19T12:41:39Z</time>
      </trkpt>
      <trkpt lat="45.2588400" lon="6.3223990">
        <ele>862.8</ele>
        <time>2021-08-19T12:41:40Z</time>
      </trkpt>
      <trkpt lat="45.2587480" lon="6.3222970">
        <ele>864.2</ele>
        <time>2021-08-19T12:41:46Z</time>
      </trkpt>
      <trkpt lat="45.2587390" lon="6.3222830">
        <ele>864.2</ele>
        <time>2021-08-19T12:41:47Z</time>
      </trkpt>
      <trkpt lat="45.2586690" lon="6.3221870">
        <ele>865.2</ele>
        <time>2021-08-19T12:41:52Z</time>
      </trkpt>
      <trkpt lat="45.2586280" lon="6.3221290">
        <ele>866.2</ele>
        <time>2021-08-19T12:41:55Z</time>
      </trkpt>
      <trkpt lat="45.2586160" lon="6.3221120">
        <ele>866.2</ele>
        <time>2021-08-19T12:41:56Z</time>
      </trkpt>
      <trkpt lat="45.2585130" lon="6.3219790">
        <ele>867.2</ele>
        <time>2021-08-19T12:42:03Z</time>
      </trkpt>
      <trkpt lat="45.2585010" lon="6.3219650">
        <ele>867.4</ele>
        <time>2021-08-19T12:42:04Z</time>
      </trkpt>
      <trkpt lat="45.2583760" lon="6.3218080">
        <ele>868.6</ele>
        <time>2021-08-19T12:42:12Z</time>
      </trkpt>
      <trkpt lat="45.2583550" lon="6.3217700">
        <ele>869.0</ele>
        <time>2021-08-19T12:42:14Z</time>
      </trkpt>
      <trkpt lat="45.2583110" lon="6.3217180">
        <ele>869.6</ele>
        <time>2021-08-19T12:42:17Z</time>
      </trkpt>
      <trkpt lat="45.2582230" lon="6.3216080">
        <ele>870.2</ele>
        <time>2021-08-19T12:42:23Z</time>
      </trkpt>
      <trkpt lat="45.2581770" lon="6.3215480">
        <ele>870.6</ele>
        <time>2021-08-19T12:42:26Z</time>
      </trkpt>
      <trkpt lat="45.2581370" lon="6.3214860">
        <ele>871.8</ele>
        <time>2021-08-19T12:42:29Z</time>
      </trkpt>
      <trkpt lat="45.2580750" lon="6.3213980">
        <ele>872.4</ele>
        <time>2021-08-19T12:42:33Z</time>
      </trkpt>
      <trkpt lat="45.2580100" lon="6.3212920">
        <ele>873.0</ele>
        <time>2021-08-19T12:42:38Z</time>
      </trkpt>
      <trkpt lat="45.2579660" lon="6.3212230">
        <ele>873.6</ele>
        <time>2021-08-19T12:42:41Z</time>
      </trkpt>
      <trkpt lat="45.2579380" lon="6.3211750">
        <ele>874.0</ele>
        <time>2021-08-19T12:42:43Z</time>
      </trkpt>
      <trkpt lat="45.2578350" lon="6.3210210">
        <ele>875.0</ele>
        <time>2021-08-19T12:42:50Z</time>
      </trkpt>
      <trkpt lat="45.2578090" lon="6.3209810">
        <ele>875.2</ele>
        <time>2021-08-19T12:42:52Z</time>
      </trkpt>
      <trkpt lat="45.2577690" lon="6.3209190">
        <ele>876.0</ele>
        <time>2021-08-19T12:42:55Z</time>
      </trkpt>
      <trkpt lat="45.2577100" lon="6.3208290">
        <ele>877.2</ele>
        <time>2021-08-19T12:43:00Z</time>
      </trkpt>
      <trkpt lat="45.2576860" lon="6.3207930">
        <ele>877.6</ele>
        <time>2021-08-19T12:43:02Z</time>
      </trkpt>
      <trkpt lat="45.2576260" lon="6.3206890">
        <ele>878.2</ele>
        <time>2021-08-19T12:43:07Z</time>
      </trkpt>
      <trkpt lat="45.2575790" lon="6.3206050">
        <ele>879.2</ele>
        <time>2021-08-19T12:43:11Z</time>
      </trkpt>
      <trkpt lat="45.2575050" lon="6.3204850">
        <ele>880.6</ele>
        <time>2021-08-19T12:43:16Z</time>
      </trkpt>
      <trkpt lat="45.2574870" lon="6.3204520">
        <ele>880.8</ele>
        <time>2021-08-19T12:43:18Z</time>
      </trkpt>
      <trkpt lat="45.2574370" lon="6.3203700">
        <ele>881.6</ele>
        <time>2021-08-19T12:43:22Z</time>
      </trkpt>
      <trkpt lat="45.2573700" lon="6.3202790">
        <ele>882.4</ele>
        <time>2021-08-19T12:43:27Z</time>
      </trkpt>
      <trkpt lat="45.2573610" lon="6.3202660">
        <ele>882.6</ele>
        <time>2021-08-19T12:43:28Z</time>
      </trkpt>
      <trkpt lat="45.2572870" lon="6.3201570">
        <ele>883.8</ele>
        <time>2021-08-19T12:43:34Z</time>
      </trkpt>
      <trkpt lat="45.2572700" lon="6.3201390">
        <ele>884.2</ele>
        <time>2021-08-19T12:43:35Z</time>
      </trkpt>
      <trkpt lat="45.2572150" lon="6.3200730">
        <ele>884.8</ele>
        <time>2021-08-19T12:43:39Z</time>
      </trkpt>
      <trkpt lat="45.2572000" lon="6.3200520">
        <ele>885.0</ele>
        <time>2021-08-19T12:43:40Z</time>
      </trkpt>
      <trkpt lat="45.2571840" lon="6.3200300">
        <ele>885.0</ele>
        <time>2021-08-19T12:43:41Z</time>
      </trkpt>
      <trkpt lat="45.2571750" lon="6.3200160">
        <ele>885.4</ele>
        <time>2021-08-19T12:43:42Z</time>
      </trkpt>
      <trkpt lat="45.2571620" lon="6.3200030">
        <ele>885.4</ele>
        <time>2021-08-19T12:43:43Z</time>
      </trkpt>
      <trkpt lat="45.2571480" lon="6.3199870">
        <ele>885.8</ele>
        <time>2021-08-19T12:43:44Z</time>
      </trkpt>
      <trkpt lat="45.2571350" lon="6.3199690">
        <ele>885.8</ele>
        <time>2021-08-19T12:43:45Z</time>
      </trkpt>
      <trkpt lat="45.2571190" lon="6.3199550">
        <ele>886.2</ele>
        <time>2021-08-19T12:43:46Z</time>
      </trkpt>
      <trkpt lat="45.2571080" lon="6.3199470">
        <ele>886.4</ele>
        <time>2021-08-19T12:43:47Z</time>
      </trkpt>
      <trkpt lat="45.2570940" lon="6.3199320">
        <ele>886.6</ele>
        <time>2021-08-19T12:43:48Z</time>
      </trkpt>
      <trkpt lat="45.2570460" lon="6.3198740">
        <ele>887.2</ele>
        <time>2021-08-19T12:43:51Z</time>
      </trkpt>
      <trkpt lat="45.2570310" lon="6.3198550">
        <ele>887.2</ele>
        <time>2021-08-19T12:43:52Z</time>
      </trkpt>
      <trkpt lat="45.2569530" lon="6.3197760">
        <ele>888.2</ele>
        <time>2021-08-19T12:43:57Z</time>
      </trkpt>
      <trkpt lat="45.2569390" lon="6.3197650">
        <ele>888.2</ele>
        <time>2021-08-19T12:43:58Z</time>
      </trkpt>
      <trkpt lat="45.2569050" lon="6.3197330">
        <ele>888.6</ele>
        <time>2021-08-19T12:44:00Z</time>
      </trkpt>
      <trkpt lat="45.2568880" lon="6.3197160">
        <ele>888.8</ele>
        <time>2021-08-19T12:44:01Z</time>
      </trkpt>
      <trkpt lat="45.2568730" lon="6.3196980">
        <ele>888.8</ele>
        <time>2021-08-19T12:44:02Z</time>
      </trkpt>
      <trkpt lat="45.2568590" lon="6.3196820">
        <ele>889.2</ele>
        <time>2021-08-19T12:44:03Z</time>
      </trkpt>
      <trkpt lat="45.2568430" lon="6.3196640">
        <ele>889.4</ele>
        <time>2021-08-19T12:44:04Z</time>
      </trkpt>
      <trkpt lat="45.2568290" lon="6.3196450">
        <ele>889.8</ele>
        <time>2021-08-19T12:44:05Z</time>
      </trkpt>
      <trkpt lat="45.2567950" lon="6.3196120">
        <ele>889.8</ele>
        <time>2021-08-19T12:44:07Z</time>
      </trkpt>
      <trkpt lat="45.2567770" lon="6.3195950">
        <ele>890.2</ele>
        <time>2021-08-19T12:44:08Z</time>
      </trkpt>
      <trkpt lat="45.2567250" lon="6.3195380">
        <ele>890.6</ele>
        <time>2021-08-19T12:44:11Z</time>
      </trkpt>
      <trkpt lat="45.2566770" lon="6.3194820">
        <ele>890.8</ele>
        <time>2021-08-19T12:44:14Z</time>
      </trkpt>
      <trkpt lat="45.2566570" lon="6.3194630">
        <ele>891.2</ele>
        <time>2021-08-19T12:44:15Z</time>
      </trkpt>
      <trkpt lat="45.2566410" lon="6.3194460">
        <ele>891.4</ele>
        <time>2021-08-19T12:44:16Z</time>
      </trkpt>
      <trkpt lat="45.2566090" lon="6.3194170">
        <ele>891.8</ele>
        <time>2021-08-19T12:44:18Z</time>
      </trkpt>
      <trkpt lat="45.2565720" lon="6.3193770">
        <ele>892.8</ele>
        <time>2021-08-19T12:44:20Z</time>
      </trkpt>
      <trkpt lat="45.2565420" lon="6.3193360">
        <ele>893.2</ele>
        <time>2021-08-19T12:44:22Z</time>
      </trkpt>
      <trkpt lat="45.2564940" lon="6.3192790">
        <ele>893.4</ele>
        <time>2021-08-19T12:44:25Z</time>
      </trkpt>
      <trkpt lat="45.2564440" lon="6.3192370">
        <ele>894.0</ele>
        <time>2021-08-19T12:44:28Z</time>
      </trkpt>
      <trkpt lat="45.2563580" lon="6.3191680">
        <ele>894.8</ele>
        <time>2021-08-19T12:44:33Z</time>
      </trkpt>
      <trkpt lat="45.2563390" lon="6.3191450">
        <ele>895.2</ele>
        <time>2021-08-19T12:44:34Z</time>
      </trkpt>
      <trkpt lat="45.2562720" lon="6.3190760">
        <ele>896.2</ele>
        <time>2021-08-19T12:44:38Z</time>
      </trkpt>
      <trkpt lat="45.2562120" lon="6.3190080">
        <ele>897.2</ele>
        <time>2021-08-19T12:44:42Z</time>
      </trkpt>
      <trkpt lat="45.2561260" lon="6.3189140">
        <ele>898.4</ele>
        <time>2021-08-19T12:44:47Z</time>
      </trkpt>
      <trkpt lat="45.2560620" lon="6.3188460">
        <ele>899.0</ele>
        <time>2021-08-19T12:44:50Z</time>
      </trkpt>
      <trkpt lat="45.2559990" lon="6.3187810">
        <ele>899.6</ele>
        <time>2021-08-19T12:44:53Z</time>
      </trkpt>
      <trkpt lat="45.2559590" lon="6.3187430">
        <ele>900.0</ele>
        <time>2021-08-19T12:44:55Z</time>
      </trkpt>
      <trkpt lat="45.2559330" lon="6.3187140">
        <ele>900.2</ele>
        <time>2021-08-19T12:44:56Z</time>
      </trkpt>
      <trkpt lat="45.2559180" lon="6.3186930">
        <ele>900.4</ele>
        <time>2021-08-19T12:44:57Z</time>
      </trkpt>
      <trkpt lat="45.2559010" lon="6.3186630">
        <ele>900.6</ele>
        <time>2021-08-19T12:44:58Z</time>
      </trkpt>
      <trkpt lat="45.2558710" lon="6.3186080">
        <ele>901.2</ele>
        <time>2021-08-19T12:45:00Z</time>
      </trkpt>
      <trkpt lat="45.2558490" lon="6.3185470">
        <ele>901.6</ele>
        <time>2021-08-19T12:45:02Z</time>
      </trkpt>
      <trkpt lat="45.2558390" lon="6.3185170">
        <ele>901.6</ele>
        <time>2021-08-19T12:45:03Z</time>
      </trkpt>
      <trkpt lat="45.2558280" lon="6.3184870">
        <ele>902.0</ele>
        <time>2021-08-19T12:45:04Z</time>
      </trkpt>
      <trkpt lat="45.2558030" lon="6.3184220">
        <ele>902.2</ele>
        <time>2021-08-19T12:45:06Z</time>
      </trkpt>
      <trkpt lat="45.2557960" lon="6.3183910">
        <ele>902.6</ele>
        <time>2021-08-19T12:45:07Z</time>
      </trkpt>
      <trkpt lat="45.2557860" lon="6.3183560">
        <ele>902.6</ele>
        <time>2021-08-19T12:45:08Z</time>
      </trkpt>
      <trkpt lat="45.2557550" lon="6.3182560">
        <ele>903.2</ele>
        <time>2021-08-19T12:45:11Z</time>
      </trkpt>
      <trkpt lat="45.2557380" lon="6.3181890">
        <ele>903.6</ele>
        <time>2021-08-19T12:45:13Z</time>
      </trkpt>
      <trkpt lat="45.2557240" lon="6.3181530">
        <ele>903.8</ele>
        <time>2021-08-19T12:45:14Z</time>
      </trkpt>
      <trkpt lat="45.2557000" lon="6.3181120">
        <ele>904.0</ele>
        <time>2021-08-19T12:45:15Z</time>
      </trkpt>
      <trkpt lat="45.2556830" lon="6.3180810">
        <ele>904.2</ele>
        <time>2021-08-19T12:45:16Z</time>
      </trkpt>
      <trkpt lat="45.2556670" lon="6.3180480">
        <ele>904.2</ele>
        <time>2021-08-19T12:45:17Z</time>
      </trkpt>
      <trkpt lat="45.2556470" lon="6.3180180">
        <ele>904.4</ele>
        <time>2021-08-19T12:45:18Z</time>
      </trkpt>
      <trkpt lat="45.2556240" lon="6.3179970">
        <ele>904.4</ele>
        <time>2021-08-19T12:45:19Z</time>
      </trkpt>
      <trkpt lat="45.2555720" lon="6.3179640">
        <ele>905.0</ele>
        <time>2021-08-19T12:45:21Z</time>
      </trkpt>
      <trkpt lat="45.2555450" lon="6.3179510">
        <ele>905.0</ele>
        <time>2021-08-19T12:45:22Z</time>
      </trkpt>
      <trkpt lat="45.2554620" lon="6.3179380">
        <ele>905.4</ele>
        <time>2021-08-19T12:45:25Z</time>
      </trkpt>
      <trkpt lat="45.2554190" lon="6.3179420">
        <ele>905.6</ele>
        <time>2021-08-19T12:45:27Z</time>
      </trkpt>
      <trkpt lat="45.2553930" lon="6.3179520">
        <ele>905.8</ele>
        <time>2021-08-19T12:45:28Z</time>
      </trkpt>
      <trkpt lat="45.2553660" lon="6.3179650">
        <ele>906.0</ele>
        <time>2021-08-19T12:45:29Z</time>
      </trkpt>
      <trkpt lat="45.2553440" lon="6.3179810">
        <ele>906.0</ele>
        <time>2021-08-19T12:45:30Z</time>
      </trkpt>
      <trkpt lat="45.2552980" lon="6.3180300">
        <ele>906.4</ele>
        <time>2021-08-19T12:45:32Z</time>
      </trkpt>
      <trkpt lat="45.2552430" lon="6.3180920">
        <ele>906.8</ele>
        <time>2021-08-19T12:45:34Z</time>
      </trkpt>
      <trkpt lat="45.2552180" lon="6.3181170">
        <ele>907.2</ele>
        <time>2021-08-19T12:45:35Z</time>
      </trkpt>
      <trkpt lat="45.2551480" lon="6.3182020">
        <ele>907.6</ele>
        <time>2021-08-19T12:45:38Z</time>
      </trkpt>
      <trkpt lat="45.2551020" lon="6.3182650">
        <ele>908.2</ele>
        <time>2021-08-19T12:45:40Z</time>
      </trkpt>
      <trkpt lat="45.2550620" lon="6.3183300">
        <ele>908.6</ele>
        <time>2021-08-19T12:45:42Z</time>
      </trkpt>
      <trkpt lat="45.2550150" lon="6.3183880">
        <ele>909.2</ele>
        <time>2021-08-19T12:45:44Z</time>
      </trkpt>
      <trkpt lat="45.2549380" lon="6.3184680">
        <ele>909.8</ele>
        <time>2021-08-19T12:45:47Z</time>
      </trkpt>
      <trkpt lat="45.2548790" lon="6.3185000">
        <ele>910.2</ele>
        <time>2021-08-19T12:45:49Z</time>
      </trkpt>
      <trkpt lat="45.2548160" lon="6.3185270">
        <ele>910.4</ele>
        <time>2021-08-19T12:45:51Z</time>
      </trkpt>
      <trkpt lat="45.2547190" lon="6.3185490">
        <ele>911.0</ele>
        <time>2021-08-19T12:45:54Z</time>
      </trkpt>
      <trkpt lat="45.2546200" lon="6.3185580">
        <ele>911.4</ele>
        <time>2021-08-19T12:45:57Z</time>
      </trkpt>
      <trkpt lat="45.2544480" lon="6.3185240">
        <ele>911.8</ele>
        <time>2021-08-19T12:46:02Z</time>
      </trkpt>
      <trkpt lat="45.2542050" lon="6.3183850">
        <ele>912.2</ele>
        <time>2021-08-19T12:46:09Z</time>
      </trkpt>
      <trkpt lat="45.2541380" lon="6.3183240">
        <ele>912.4</ele>
        <time>2021-08-19T12:46:11Z</time>
      </trkpt>
      <trkpt lat="45.2540080" lon="6.3181740">
        <ele>912.6</ele>
        <time>2021-08-19T12:46:15Z</time>
      </trkpt>
      <trkpt lat="45.2539360" lon="6.3180930">
        <ele>912.6</ele>
        <time>2021-08-19T12:46:17Z</time>
      </trkpt>
      <trkpt lat="45.2537620" lon="6.3178830">
        <ele>912.6</ele>
        <time>2021-08-19T12:46:22Z</time>
      </trkpt>
      <trkpt lat="45.2536940" lon="6.3177810">
        <ele>912.6</ele>
        <time>2021-08-19T12:46:24Z</time>
      </trkpt>
      <trkpt lat="45.2536620" lon="6.3177240">
        <ele>912.4</ele>
        <time>2021-08-19T12:46:25Z</time>
      </trkpt>
      <trkpt lat="45.2535730" lon="6.3175280">
        <ele>912.2</ele>
        <time>2021-08-19T12:46:28Z</time>
      </trkpt>
      <trkpt lat="45.2535380" lon="6.3173830">
        <ele>912.2</ele>
        <time>2021-08-19T12:46:30Z</time>
      </trkpt>
      <trkpt lat="45.2534710" lon="6.3170340">
        <ele>912.0</ele>
        <time>2021-08-19T12:46:36Z</time>
      </trkpt>
      <trkpt lat="45.2534540" lon="6.3168190">
        <ele>912.4</ele>
        <time>2021-08-19T12:46:41Z</time>
      </trkpt>
      <trkpt lat="45.2534450" lon="6.3167780">
        <ele>912.4</ele>
        <time>2021-08-19T12:46:42Z</time>
      </trkpt>
      <trkpt lat="45.2534260" lon="6.3166660">
        <ele>913.6</ele>
        <time>2021-08-19T12:46:45Z</time>
      </trkpt>
      <trkpt lat="45.2533770" lon="6.3165250">
        <ele>914.2</ele>
        <time>2021-08-19T12:46:49Z</time>
      </trkpt>
      <trkpt lat="45.2533280" lon="6.3164340">
        <ele>914.6</ele>
        <time>2021-08-19T12:46:52Z</time>
      </trkpt>
      <trkpt lat="45.2532510" lon="6.3163270">
        <ele>915.4</ele>
        <time>2021-08-19T12:46:56Z</time>
      </trkpt>
      <trkpt lat="45.2532280" lon="6.3163030">
        <ele>915.8</ele>
        <time>2021-08-19T12:46:57Z</time>
      </trkpt>
      <trkpt lat="45.2531200" lon="6.3162110">
        <ele>916.6</ele>
        <time>2021-08-19T12:47:02Z</time>
      </trkpt>
      <trkpt lat="45.2530990" lon="6.3161880">
        <ele>916.8</ele>
        <time>2021-08-19T12:47:03Z</time>
      </trkpt>
      <trkpt lat="45.2529740" lon="6.3160810">
        <ele>917.8</ele>
        <time>2021-08-19T12:47:09Z</time>
      </trkpt>
      <trkpt lat="45.2529510" lon="6.3160660">
        <ele>917.8</ele>
        <time>2021-08-19T12:47:10Z</time>
      </trkpt>
      <trkpt lat="45.2528640" lon="6.3159960">
        <ele>918.4</ele>
        <time>2021-08-19T12:47:14Z</time>
      </trkpt>
      <trkpt lat="45.2528260" lon="6.3159650">
        <ele>918.8</ele>
        <time>2021-08-19T12:47:16Z</time>
      </trkpt>
      <trkpt lat="45.2527820" lon="6.3159280">
        <ele>919.4</ele>
        <time>2021-08-19T12:47:18Z</time>
      </trkpt>
      <trkpt lat="45.2527410" lon="6.3158960">
        <ele>919.6</ele>
        <time>2021-08-19T12:47:20Z</time>
      </trkpt>
      <trkpt lat="45.2527200" lon="6.3158760">
        <ele>919.8</ele>
        <time>2021-08-19T12:47:21Z</time>
      </trkpt>
      <trkpt lat="45.2526900" lon="6.3158530">
        <ele>919.8</ele>
        <time>2021-08-19T12:47:22Z</time>
      </trkpt>
      <trkpt lat="45.2525870" lon="6.3157590">
        <ele>920.8</ele>
        <time>2021-08-19T12:47:27Z</time>
      </trkpt>
      <trkpt lat="45.2525370" lon="6.3156940">
        <ele>921.6</ele>
        <time>2021-08-19T12:47:30Z</time>
      </trkpt>
      <trkpt lat="45.2525050" lon="6.3156420">
        <ele>922.2</ele>
        <time>2021-08-19T12:47:32Z</time>
      </trkpt>
      <trkpt lat="45.2524360" lon="6.3153950">
        <ele>923.0</ele>
        <time>2021-08-19T12:47:40Z</time>
      </trkpt>
      <trkpt lat="45.2524290" lon="6.3153590">
        <ele>923.2</ele>
        <time>2021-08-19T12:47:41Z</time>
      </trkpt>
      <trkpt lat="45.2524090" lon="6.3152080">
        <ele>924.4</ele>
        <time>2021-08-19T12:47:46Z</time>
      </trkpt>
      <trkpt lat="45.2524020" lon="6.3151340">
        <ele>925.0</ele>
        <time>2021-08-19T12:47:48Z</time>
      </trkpt>
      <trkpt lat="45.2523820" lon="6.3150180">
        <ele>925.4</ele>
        <time>2021-08-19T12:47:52Z</time>
      </trkpt>
      <trkpt lat="45.2523640" lon="6.3149020">
        <ele>926.2</ele>
        <time>2021-08-19T12:47:56Z</time>
      </trkpt>
      <trkpt lat="45.2523360" lon="6.3147970">
        <ele>926.2</ele>
        <time>2021-08-19T12:48:00Z</time>
      </trkpt>
      <trkpt lat="45.2522930" lon="6.3146900">
        <ele>926.8</ele>
        <time>2021-08-19T12:48:04Z</time>
      </trkpt>
      <trkpt lat="45.2522580" lon="6.3146460">
        <ele>927.4</ele>
        <time>2021-08-19T12:48:06Z</time>
      </trkpt>
      <trkpt lat="45.2521830" lon="6.3146030">
        <ele>928.2</ele>
        <time>2021-08-19T12:48:10Z</time>
      </trkpt>
      <trkpt lat="45.2521630" lon="6.3145970">
        <ele>928.4</ele>
        <time>2021-08-19T12:48:11Z</time>
      </trkpt>
      <trkpt lat="45.2520850" lon="6.3146180">
        <ele>929.4</ele>
        <time>2021-08-19T12:48:15Z</time>
      </trkpt>
      <trkpt lat="45.2520640" lon="6.3146330">
        <ele>929.6</ele>
        <time>2021-08-19T12:48:16Z</time>
      </trkpt>
      <trkpt lat="45.2519810" lon="6.3146910">
        <ele>930.4</ele>
        <time>2021-08-19T12:48:20Z</time>
      </trkpt>
      <trkpt lat="45.2518700" lon="6.3147580">
        <ele>931.4</ele>
        <time>2021-08-19T12:48:25Z</time>
      </trkpt>
      <trkpt lat="45.2517440" lon="6.3147620">
        <ele>932.6</ele>
        <time>2021-08-19T12:48:31Z</time>
      </trkpt>
      <trkpt lat="45.2517240" lon="6.3147540">
        <ele>932.6</ele>
        <time>2021-08-19T12:48:32Z</time>
      </trkpt>
      <trkpt lat="45.2516670" lon="6.3146700">
        <ele>933.6</ele>
        <time>2021-08-19T12:48:36Z</time>
      </trkpt>
      <trkpt lat="45.2516530" lon="6.3146460">
        <ele>933.8</ele>
        <time>2021-08-19T12:48:37Z</time>
      </trkpt>
      <trkpt lat="45.2515890" lon="6.3144600">
        <ele>934.6</ele>
        <time>2021-08-19T12:48:44Z</time>
      </trkpt>
      <trkpt lat="45.2515650" lon="6.3143430">
        <ele>935.8</ele>
        <time>2021-08-19T12:48:48Z</time>
      </trkpt>
      <trkpt lat="45.2515540" lon="6.3142820">
        <ele>936.0</ele>
        <time>2021-08-19T12:48:50Z</time>
      </trkpt>
      <trkpt lat="45.2515340" lon="6.3141890">
        <ele>936.2</ele>
        <time>2021-08-19T12:48:53Z</time>
      </trkpt>
      <trkpt lat="45.2515110" lon="6.3140550">
        <ele>936.8</ele>
        <time>2021-08-19T12:48:58Z</time>
      </trkpt>
      <trkpt lat="45.2514940" lon="6.3139720">
        <ele>937.4</ele>
        <time>2021-08-19T12:49:01Z</time>
      </trkpt>
      <trkpt lat="45.2514890" lon="6.3139410">
        <ele>937.6</ele>
        <time>2021-08-19T12:49:02Z</time>
      </trkpt>
      <trkpt lat="45.2514560" lon="6.3137340">
        <ele>938.6</ele>
        <time>2021-08-19T12:49:09Z</time>
      </trkpt>
      <trkpt lat="45.2514510" lon="6.3137050">
        <ele>938.6</ele>
        <time>2021-08-19T12:49:10Z</time>
      </trkpt>
      <trkpt lat="45.2514120" lon="6.3135340">
        <ele>939.8</ele>
        <time>2021-08-19T12:49:16Z</time>
      </trkpt>
      <trkpt lat="45.2513810" lon="6.3134480">
        <ele>940.4</ele>
        <time>2021-08-19T12:49:19Z</time>
      </trkpt>
      <trkpt lat="45.2513560" lon="6.3133950">
        <ele>940.8</ele>
        <time>2021-08-19T12:49:21Z</time>
      </trkpt>
      <trkpt lat="45.2512610" lon="6.3132840">
        <ele>941.4</ele>
        <time>2021-08-19T12:49:26Z</time>
      </trkpt>
      <trkpt lat="45.2512210" lon="6.3132500">
        <ele>941.6</ele>
        <time>2021-08-19T12:49:28Z</time>
      </trkpt>
      <trkpt lat="45.2511370" lon="6.3132320">
        <ele>942.4</ele>
        <time>2021-08-19T12:49:32Z</time>
      </trkpt>
      <trkpt lat="45.2511180" lon="6.3132330">
        <ele>942.6</ele>
        <time>2021-08-19T12:49:33Z</time>
      </trkpt>
      <trkpt lat="45.2510350" lon="6.3132680">
        <ele>943.8</ele>
        <time>2021-08-19T12:49:37Z</time>
      </trkpt>
      <trkpt lat="45.2510130" lon="6.3132910">
        <ele>944.0</ele>
        <time>2021-08-19T12:49:38Z</time>
      </trkpt>
      <trkpt lat="45.2509490" lon="6.3133830">
        <ele>944.6</ele>
        <time>2021-08-19T12:49:43Z</time>
      </trkpt>
      <trkpt lat="45.2509330" lon="6.3133990">
        <ele>944.8</ele>
        <time>2021-08-19T12:49:44Z</time>
      </trkpt>
      <trkpt lat="45.2508600" lon="6.3134620">
        <ele>945.8</ele>
        <time>2021-08-19T12:49:48Z</time>
      </trkpt>
      <trkpt lat="45.2508000" lon="6.3134750">
        <ele>946.2</ele>
        <time>2021-08-19T12:49:51Z</time>
      </trkpt>
      <trkpt lat="45.2506940" lon="6.3134140">
        <ele>946.8</ele>
        <time>2021-08-19T12:49:57Z</time>
      </trkpt>
      <trkpt lat="45.2506810" lon="6.3133990">
        <ele>947.0</ele>
        <time>2021-08-19T12:49:58Z</time>
      </trkpt>
      <trkpt lat="45.2506300" lon="6.3133180">
        <ele>948.0</ele>
        <time>2021-08-19T12:50:02Z</time>
      </trkpt>
      <trkpt lat="45.2505570" lon="6.3132090">
        <ele>948.8</ele>
        <time>2021-08-19T12:50:07Z</time>
      </trkpt>
      <trkpt lat="45.2505250" lon="6.3131590">
        <ele>949.2</ele>
        <time>2021-08-19T12:50:09Z</time>
      </trkpt>
      <trkpt lat="45.2504580" lon="6.3130190">
        <ele>950.0</ele>
        <time>2021-08-19T12:50:15Z</time>
      </trkpt>
      <trkpt lat="45.2504510" lon="6.3129960">
        <ele>950.2</ele>
        <time>2021-08-19T12:50:16Z</time>
      </trkpt>
      <trkpt lat="45.2504350" lon="6.3129420">
        <ele>950.8</ele>
        <time>2021-08-19T12:50:18Z</time>
      </trkpt>
      <trkpt lat="45.2504300" lon="6.3129230">
        <ele>951.2</ele>
        <time>2021-08-19T12:50:19Z</time>
      </trkpt>
      <trkpt lat="45.2504260" lon="6.3128990">
        <ele>951.4</ele>
        <time>2021-08-19T12:50:20Z</time>
      </trkpt>
      <trkpt lat="45.2504100" lon="6.3128130">
        <ele>952.0</ele>
        <time>2021-08-19T12:50:23Z</time>
      </trkpt>
      <trkpt lat="45.2504010" lon="6.3127680">
        <ele>952.4</ele>
        <time>2021-08-19T12:50:25Z</time>
      </trkpt>
      <trkpt lat="45.2503810" lon="6.3126980">
        <ele>952.8</ele>
        <time>2021-08-19T12:50:28Z</time>
      </trkpt>
      <trkpt lat="45.2503650" lon="6.3126470">
        <ele>953.0</ele>
        <time>2021-08-19T12:50:30Z</time>
      </trkpt>
      <trkpt lat="45.2503340" lon="6.3125710">
        <ele>953.4</ele>
        <time>2021-08-19T12:50:33Z</time>
      </trkpt>
      <trkpt lat="45.2502840" lon="6.3125130">
        <ele>954.0</ele>
        <time>2021-08-19T12:50:36Z</time>
      </trkpt>
      <trkpt lat="45.2502510" lon="6.3124910">
        <ele>954.6</ele>
        <time>2021-08-19T12:50:38Z</time>
      </trkpt>
      <trkpt lat="45.2502170" lon="6.3124730">
        <ele>955.0</ele>
        <time>2021-08-19T12:50:40Z</time>
      </trkpt>
      <trkpt lat="45.2501970" lon="6.3124780">
        <ele>955.0</ele>
        <time>2021-08-19T12:50:41Z</time>
      </trkpt>
      <trkpt lat="45.2501390" lon="6.3124960">
        <ele>955.8</ele>
        <time>2021-08-19T12:50:44Z</time>
      </trkpt>
      <trkpt lat="45.2500770" lon="6.3125410">
        <ele>956.6</ele>
        <time>2021-08-19T12:50:48Z</time>
      </trkpt>
      <trkpt lat="45.2500600" lon="6.3125610">
        <ele>957.0</ele>
        <time>2021-08-19T12:50:49Z</time>
      </trkpt>
      <trkpt lat="45.2500090" lon="6.3126230">
        <ele>957.8</ele>
        <time>2021-08-19T12:50:52Z</time>
      </trkpt>
      <trkpt lat="45.2499390" lon="6.3127450">
        <ele>958.4</ele>
        <time>2021-08-19T12:50:57Z</time>
      </trkpt>
      <trkpt lat="45.2499270" lon="6.3127710">
        <ele>958.8</ele>
        <time>2021-08-19T12:50:58Z</time>
      </trkpt>
      <trkpt lat="45.2498950" lon="6.3128180">
        <ele>959.0</ele>
        <time>2021-08-19T12:51:00Z</time>
      </trkpt>
      <trkpt lat="45.2498440" lon="6.3128940">
        <ele>959.6</ele>
        <time>2021-08-19T12:51:03Z</time>
      </trkpt>
      <trkpt lat="45.2498020" lon="6.3129490">
        <ele>959.8</ele>
        <time>2021-08-19T12:51:05Z</time>
      </trkpt>
      <trkpt lat="45.2497380" lon="6.3130320">
        <ele>960.4</ele>
        <time>2021-08-19T12:51:10Z</time>
      </trkpt>
      <trkpt lat="45.2497100" lon="6.3130740">
        <ele>961.0</ele>
        <time>2021-08-19T12:51:12Z</time>
      </trkpt>
      <trkpt lat="45.2496280" lon="6.3131520">
        <ele>962.0</ele>
        <time>2021-08-19T12:51:17Z</time>
      </trkpt>
      <trkpt lat="45.2495270" lon="6.3131910">
        <ele>962.6</ele>
        <time>2021-08-19T12:51:23Z</time>
      </trkpt>
      <trkpt lat="45.2495100" lon="6.3131880">
        <ele>962.8</ele>
        <time>2021-08-19T12:51:24Z</time>
      </trkpt>
      <trkpt lat="45.2494430" lon="6.3131600">
        <ele>963.6</ele>
        <time>2021-08-19T12:51:28Z</time>
      </trkpt>
      <trkpt lat="45.2494300" lon="6.3131380">
        <ele>963.8</ele>
        <time>2021-08-19T12:51:29Z</time>
      </trkpt>
      <trkpt lat="45.2494010" lon="6.3130990">
        <ele>964.0</ele>
        <time>2021-08-19T12:51:31Z</time>
      </trkpt>
      <trkpt lat="45.2493110" lon="6.3130120">
        <ele>964.8</ele>
        <time>2021-08-19T12:51:36Z</time>
      </trkpt>
      <trkpt lat="45.2492780" lon="6.3129700">
        <ele>965.2</ele>
        <time>2021-08-19T12:51:38Z</time>
      </trkpt>
      <trkpt lat="45.2492630" lon="6.3129400">
        <ele>965.2</ele>
        <time>2021-08-19T12:51:39Z</time>
      </trkpt>
      <trkpt lat="45.2492270" lon="6.3128970">
        <ele>965.8</ele>
        <time>2021-08-19T12:51:41Z</time>
      </trkpt>
      <trkpt lat="45.2491700" lon="6.3128410">
        <ele>966.4</ele>
        <time>2021-08-19T12:51:44Z</time>
      </trkpt>
      <trkpt lat="45.2490810" lon="6.3127620">
        <ele>967.4</ele>
        <time>2021-08-19T12:51:49Z</time>
      </trkpt>
      <trkpt lat="45.2490620" lon="6.3127470">
        <ele>967.4</ele>
        <time>2021-08-19T12:51:50Z</time>
      </trkpt>
      <trkpt lat="45.2489640" lon="6.3126840">
        <ele>968.2</ele>
        <time>2021-08-19T12:51:55Z</time>
      </trkpt>
      <trkpt lat="45.2489220" lon="6.3126570">
        <ele>968.6</ele>
        <time>2021-08-19T12:51:57Z</time>
      </trkpt>
      <trkpt lat="45.2488980" lon="6.3126440">
        <ele>968.6</ele>
        <time>2021-08-19T12:51:58Z</time>
      </trkpt>
      <trkpt lat="45.2488760" lon="6.3126350">
        <ele>968.8</ele>
        <time>2021-08-19T12:51:59Z</time>
      </trkpt>
      <trkpt lat="45.2488310" lon="6.3126140">
        <ele>969.2</ele>
        <time>2021-08-19T12:52:01Z</time>
      </trkpt>
      <trkpt lat="45.2487660" lon="6.3125730">
        <ele>969.8</ele>
        <time>2021-08-19T12:52:04Z</time>
      </trkpt>
      <trkpt lat="45.2487010" lon="6.3125500">
        <ele>970.2</ele>
        <time>2021-08-19T12:52:07Z</time>
      </trkpt>
      <trkpt lat="45.2486560" lon="6.3125400">
        <ele>970.4</ele>
        <time>2021-08-19T12:52:09Z</time>
      </trkpt>
      <trkpt lat="45.2486150" lon="6.3125250">
        <ele>970.8</ele>
        <time>2021-08-19T12:52:11Z</time>
      </trkpt>
      <trkpt lat="45.2485680" lon="6.3125160">
        <ele>971.0</ele>
        <time>2021-08-19T12:52:13Z</time>
      </trkpt>
      <trkpt lat="45.2485450" lon="6.3125100">
        <ele>971.2</ele>
        <time>2021-08-19T12:52:14Z</time>
      </trkpt>
      <trkpt lat="45.2485210" lon="6.3125040">
        <ele>971.4</ele>
        <time>2021-08-19T12:52:15Z</time>
      </trkpt>
      <trkpt lat="45.2484730" lon="6.3124920">
        <ele>971.8</ele>
        <time>2021-08-19T12:52:17Z</time>
      </trkpt>
      <trkpt lat="45.2483420" lon="6.3124700">
        <ele>972.8</ele>
        <time>2021-08-19T12:52:23Z</time>
      </trkpt>
      <trkpt lat="45.2482960" lon="6.3124550">
        <ele>973.0</ele>
        <time>2021-08-19T12:52:25Z</time>
      </trkpt>
      <trkpt lat="45.2481360" lon="6.3124180">
        <ele>973.8</ele>
        <time>2021-08-19T12:52:32Z</time>
      </trkpt>
      <trkpt lat="45.2480600" lon="6.3123960">
        <ele>974.4</ele>
        <time>2021-08-19T12:52:35Z</time>
      </trkpt>
      <trkpt lat="45.2480420" lon="6.3123930">
        <ele>975.0</ele>
        <time>2021-08-19T12:52:36Z</time>
      </trkpt>
      <trkpt lat="45.2479980" lon="6.3123900">
        <ele>975.2</ele>
        <time>2021-08-19T12:52:38Z</time>
      </trkpt>
      <trkpt lat="45.2479730" lon="6.3123880">
        <ele>975.4</ele>
        <time>2021-08-19T12:52:39Z</time>
      </trkpt>
      <trkpt lat="45.2479550" lon="6.3123860">
        <ele>975.4</ele>
        <time>2021-08-19T12:52:40Z</time>
      </trkpt>
      <trkpt lat="45.2479330" lon="6.3123840">
        <ele>975.6</ele>
        <time>2021-08-19T12:52:41Z</time>
      </trkpt>
      <trkpt lat="45.2479090" lon="6.3123840">
        <ele>975.6</ele>
        <time>2021-08-19T12:52:42Z</time>
      </trkpt>
      <trkpt lat="45.2478870" lon="6.3123850">
        <ele>975.8</ele>
        <time>2021-08-19T12:52:43Z</time>
      </trkpt>
      <trkpt lat="45.2478090" lon="6.3123870">
        <ele>976.4</ele>
        <time>2021-08-19T12:52:46Z</time>
      </trkpt>
      <trkpt lat="45.2477350" lon="6.3124030">
        <ele>976.8</ele>
        <time>2021-08-19T12:52:49Z</time>
      </trkpt>
      <trkpt lat="45.2477110" lon="6.3124070">
        <ele>976.8</ele>
        <time>2021-08-19T12:52:50Z</time>
      </trkpt>
      <trkpt lat="45.2476850" lon="6.3124080">
        <ele>977.0</ele>
        <time>2021-08-19T12:52:51Z</time>
      </trkpt>
      <trkpt lat="45.2476560" lon="6.3124090">
        <ele>977.2</ele>
        <time>2021-08-19T12:52:52Z</time>
      </trkpt>
      <trkpt lat="45.2476280" lon="6.3124160">
        <ele>977.4</ele>
        <time>2021-08-19T12:52:53Z</time>
      </trkpt>
      <trkpt lat="45.2475270" lon="6.3124440">
        <ele>978.2</ele>
        <time>2021-08-19T12:52:57Z</time>
      </trkpt>
      <trkpt lat="45.2475020" lon="6.3124510">
        <ele>978.2</ele>
        <time>2021-08-19T12:52:58Z</time>
      </trkpt>
      <trkpt lat="45.2473460" lon="6.3124940">
        <ele>979.4</ele>
        <time>2021-08-19T12:53:04Z</time>
      </trkpt>
      <trkpt lat="45.2473290" lon="6.3124990">
        <ele>979.4</ele>
        <time>2021-08-19T12:53:05Z</time>
      </trkpt>
      <trkpt lat="45.2473070" lon="6.3125070">
        <ele>979.6</ele>
        <time>2021-08-19T12:53:06Z</time>
      </trkpt>
      <trkpt lat="45.2472830" lon="6.3125150">
        <ele>979.8</ele>
        <time>2021-08-19T12:53:07Z</time>
      </trkpt>
      <trkpt lat="45.2472580" lon="6.3125230">
        <ele>980.0</ele>
        <time>2021-08-19T12:53:08Z</time>
      </trkpt>
      <trkpt lat="45.2472290" lon="6.3125320">
        <ele>980.4</ele>
        <time>2021-08-19T12:53:09Z</time>
      </trkpt>
      <trkpt lat="45.2472040" lon="6.3125410">
        <ele>980.6</ele>
        <time>2021-08-19T12:53:10Z</time>
      </trkpt>
      <trkpt lat="45.2471050" lon="6.3125800">
        <ele>981.4</ele>
        <time>2021-08-19T12:53:14Z</time>
      </trkpt>
      <trkpt lat="45.2470800" lon="6.3125870">
        <ele>981.6</ele>
        <time>2021-08-19T12:53:15Z</time>
      </trkpt>
      <trkpt lat="45.2470530" lon="6.3125940">
        <ele>981.6</ele>
        <time>2021-08-19T12:53:16Z</time>
      </trkpt>
      <trkpt lat="45.2470280" lon="6.3126030">
        <ele>981.6</ele>
        <time>2021-08-19T12:53:17Z</time>
      </trkpt>
      <trkpt lat="45.2469770" lon="6.3126190">
        <ele>981.8</ele>
        <time>2021-08-19T12:53:19Z</time>
      </trkpt>
      <trkpt lat="45.2469010" lon="6.3126420">
        <ele>982.4</ele>
        <time>2021-08-19T12:53:22Z</time>
      </trkpt>
      <trkpt lat="45.2468780" lon="6.3126480">
        <ele>982.6</ele>
        <time>2021-08-19T12:53:23Z</time>
      </trkpt>
      <trkpt lat="45.2468280" lon="6.3126650">
        <ele>983.0</ele>
        <time>2021-08-19T12:53:25Z</time>
      </trkpt>
      <trkpt lat="45.2467460" lon="6.3126950">
        <ele>983.6</ele>
        <time>2021-08-19T12:53:28Z</time>
      </trkpt>
      <trkpt lat="45.2466400" lon="6.3127330">
        <ele>984.2</ele>
        <time>2021-08-19T12:53:32Z</time>
      </trkpt>
      <trkpt lat="45.2465810" lon="6.3127540">
        <ele>985.0</ele>
        <time>2021-08-19T12:53:34Z</time>
      </trkpt>
      <trkpt lat="45.2465270" lon="6.3127680">
        <ele>985.6</ele>
        <time>2021-08-19T12:53:36Z</time>
      </trkpt>
      <trkpt lat="45.2464470" lon="6.3127900">
        <ele>986.0</ele>
        <time>2021-08-19T12:53:39Z</time>
      </trkpt>
      <trkpt lat="45.2463740" lon="6.3128190">
        <ele>986.2</ele>
        <time>2021-08-19T12:53:42Z</time>
      </trkpt>
      <trkpt lat="45.2463470" lon="6.3128300">
        <ele>986.2</ele>
        <time>2021-08-19T12:53:43Z</time>
      </trkpt>
      <trkpt lat="45.2462880" lon="6.3128420">
        <ele>986.4</ele>
        <time>2021-08-19T12:53:45Z</time>
      </trkpt>
      <trkpt lat="45.2462110" lon="6.3128600">
        <ele>987.0</ele>
        <time>2021-08-19T12:53:48Z</time>
      </trkpt>
      <trkpt lat="45.2461140" lon="6.3128640">
        <ele>987.6</ele>
        <time>2021-08-19T12:53:52Z</time>
      </trkpt>
      <trkpt lat="45.2460640" lon="6.3128630">
        <ele>988.0</ele>
        <time>2021-08-19T12:53:54Z</time>
      </trkpt>
      <trkpt lat="45.2460420" lon="6.3128650">
        <ele>988.2</ele>
        <time>2021-08-19T12:53:55Z</time>
      </trkpt>
      <trkpt lat="45.2459430" lon="6.3128520">
        <ele>989.4</ele>
        <time>2021-08-19T12:53:59Z</time>
      </trkpt>
      <trkpt lat="45.2458100" lon="6.3128270">
        <ele>990.2</ele>
        <time>2021-08-19T12:54:04Z</time>
      </trkpt>
      <trkpt lat="45.2457810" lon="6.3128210">
        <ele>990.4</ele>
        <time>2021-08-19T12:54:05Z</time>
      </trkpt>
      <trkpt lat="45.2456440" lon="6.3127900">
        <ele>991.4</ele>
        <time>2021-08-19T12:54:10Z</time>
      </trkpt>
      <trkpt lat="45.2455900" lon="6.3127720">
        <ele>991.8</ele>
        <time>2021-08-19T12:54:12Z</time>
      </trkpt>
      <trkpt lat="45.2455010" lon="6.3127520">
        <ele>992.2</ele>
        <time>2021-08-19T12:54:15Z</time>
      </trkpt>
      <trkpt lat="45.2454740" lon="6.3127470">
        <ele>992.6</ele>
        <time>2021-08-19T12:54:16Z</time>
      </trkpt>
      <trkpt lat="45.2453660" lon="6.3127190">
        <ele>992.8</ele>
        <time>2021-08-19T12:54:20Z</time>
      </trkpt>
      <trkpt lat="45.2453390" lon="6.3127130">
        <ele>992.8</ele>
        <time>2021-08-19T12:54:21Z</time>
      </trkpt>
      <trkpt lat="45.2453120" lon="6.3127080">
        <ele>993.0</ele>
        <time>2021-08-19T12:54:22Z</time>
      </trkpt>
      <trkpt lat="45.2451750" lon="6.3126800">
        <ele>994.0</ele>
        <time>2021-08-19T12:54:27Z</time>
      </trkpt>
      <trkpt lat="45.2451180" lon="6.3126710">
        <ele>994.2</ele>
        <time>2021-08-19T12:54:29Z</time>
      </trkpt>
      <trkpt lat="45.2450930" lon="6.3126660">
        <ele>994.2</ele>
        <time>2021-08-19T12:54:30Z</time>
      </trkpt>
      <trkpt lat="45.2449890" lon="6.3126350">
        <ele>995.2</ele>
        <time>2021-08-19T12:54:34Z</time>
      </trkpt>
      <trkpt lat="45.2449410" lon="6.3126290">
        <ele>995.4</ele>
        <time>2021-08-19T12:54:36Z</time>
      </trkpt>
      <trkpt lat="45.2449230" lon="6.3126430">
        <ele>995.2</ele>
        <time>2021-08-19T12:54:37Z</time>
      </trkpt>
      <trkpt lat="45.2449050" lon="6.3126610">
        <ele>995.6</ele>
        <time>2021-08-19T12:54:39Z</time>
      </trkpt>
      <trkpt lat="45.2449050" lon="6.3126610">
        <ele>995.6</ele>
        <time>2021-08-19T12:54:40Z</time>
      </trkpt>
      <trkpt lat="45.2449050" lon="6.3126610">
        <ele>995.6</ele>
        <time>2021-08-19T12:54:41Z</time>
      </trkpt>
      <trkpt lat="45.2446860" lon="6.3122680">
        <ele>998.4</ele>
        <time>2021-08-19T12:56:54Z</time>
      </trkpt>
      <trkpt lat="45.2446790" lon="6.3122410">
        <ele>998.4</ele>
        <time>2021-08-19T12:56:55Z</time>
      </trkpt>
      <trkpt lat="45.2446700" lon="6.3121810">
        <ele>998.6</ele>
        <time>2021-08-19T12:56:57Z</time>
      </trkpt>
      <trkpt lat="45.2446410" lon="6.3120610">
        <ele>999.0</ele>
        <time>2021-08-19T12:57:01Z</time>
      </trkpt>
      <trkpt lat="45.2446000" lon="6.3119200">
        <ele>999.4</ele>
        <time>2021-08-19T12:57:06Z</time>
      </trkpt>
      <trkpt lat="45.2445800" lon="6.3118600">
        <ele>999.8</ele>
        <time>2021-08-19T12:57:08Z</time>
      </trkpt>
      <trkpt lat="45.2445510" lon="6.3117310">
        <ele>1000.2</ele>
        <time>2021-08-19T12:57:12Z</time>
      </trkpt>
      <trkpt lat="45.2445420" lon="6.3117000">
        <ele>1000.2</ele>
        <time>2021-08-19T12:57:13Z</time>
      </trkpt>
      <trkpt lat="45.2445320" lon="6.3116710">
        <ele>1000.4</ele>
        <time>2021-08-19T12:57:14Z</time>
      </trkpt>
      <trkpt lat="45.2445140" lon="6.3116330">
        <ele>1000.6</ele>
        <time>2021-08-19T12:57:15Z</time>
      </trkpt>
      <trkpt lat="45.2444470" lon="6.3114600">
        <ele>1001.4</ele>
        <time>2021-08-19T12:57:21Z</time>
      </trkpt>
      <trkpt lat="45.2444360" lon="6.3114310">
        <ele>1001.6</ele>
        <time>2021-08-19T12:57:22Z</time>
      </trkpt>
      <trkpt lat="45.2444070" lon="6.3113870">
        <ele>1001.8</ele>
        <time>2021-08-19T12:57:24Z</time>
      </trkpt>
      <trkpt lat="45.2443890" lon="6.3113700">
        <ele>1002.0</ele>
        <time>2021-08-19T12:57:25Z</time>
      </trkpt>
      <trkpt lat="45.2443710" lon="6.3113510">
        <ele>1002.2</ele>
        <time>2021-08-19T12:57:26Z</time>
      </trkpt>
      <trkpt lat="45.2443540" lon="6.3113260">
        <ele>1002.2</ele>
        <time>2021-08-19T12:57:27Z</time>
      </trkpt>
      <trkpt lat="45.2443380" lon="6.3113010">
        <ele>1002.4</ele>
        <time>2021-08-19T12:57:28Z</time>
      </trkpt>
      <trkpt lat="45.2443160" lon="6.3112740">
        <ele>1002.4</ele>
        <time>2021-08-19T12:57:29Z</time>
      </trkpt>
      <trkpt lat="45.2442990" lon="6.3112540">
        <ele>1002.8</ele>
        <time>2021-08-19T12:57:30Z</time>
      </trkpt>
      <trkpt lat="45.2441840" lon="6.3111110">
        <ele>1003.6</ele>
        <time>2021-08-19T12:57:36Z</time>
      </trkpt>
      <trkpt lat="45.2441430" lon="6.3110620">
        <ele>1003.8</ele>
        <time>2021-08-19T12:57:38Z</time>
      </trkpt>
      <trkpt lat="45.2440240" lon="6.3109230">
        <ele>1004.6</ele>
        <time>2021-08-19T12:57:44Z</time>
      </trkpt>
      <trkpt lat="45.2439880" lon="6.3108730">
        <ele>1005.0</ele>
        <time>2021-08-19T12:57:46Z</time>
      </trkpt>
      <trkpt lat="45.2439050" lon="6.3107750">
        <ele>1005.2</ele>
        <time>2021-08-19T12:57:50Z</time>
      </trkpt>
      <trkpt lat="45.2438160" lon="6.3106840">
        <ele>1006.0</ele>
        <time>2021-08-19T12:57:54Z</time>
      </trkpt>
      <trkpt lat="45.2437290" lon="6.3106250">
        <ele>1006.8</ele>
        <time>2021-08-19T12:57:58Z</time>
      </trkpt>
      <trkpt lat="45.2436800" lon="6.3106060">
        <ele>1007.2</ele>
        <time>2021-08-19T12:58:00Z</time>
      </trkpt>
      <trkpt lat="45.2435940" lon="6.3105990">
        <ele>1008.4</ele>
        <time>2021-08-19T12:58:04Z</time>
      </trkpt>
      <trkpt lat="45.2434680" lon="6.3106540">
        <ele>1009.4</ele>
        <time>2021-08-19T12:58:09Z</time>
      </trkpt>
      <trkpt lat="45.2434150" lon="6.3106840">
        <ele>1009.6</ele>
        <time>2021-08-19T12:58:11Z</time>
      </trkpt>
      <trkpt lat="45.2433910" lon="6.3106970">
        <ele>1009.8</ele>
        <time>2021-08-19T12:58:12Z</time>
      </trkpt>
      <trkpt lat="45.2433500" lon="6.3107290">
        <ele>1010.4</ele>
        <time>2021-08-19T12:58:14Z</time>
      </trkpt>
      <trkpt lat="45.2432300" lon="6.3108050">
        <ele>1011.4</ele>
        <time>2021-08-19T12:58:19Z</time>
      </trkpt>
      <trkpt lat="45.2432020" lon="6.3108250">
        <ele>1011.4</ele>
        <time>2021-08-19T12:58:20Z</time>
      </trkpt>
      <trkpt lat="45.2430480" lon="6.3109260">
        <ele>1012.6</ele>
        <time>2021-08-19T12:58:26Z</time>
      </trkpt>
      <trkpt lat="45.2429490" lon="6.3109590">
        <ele>1013.2</ele>
        <time>2021-08-19T12:58:30Z</time>
      </trkpt>
      <trkpt lat="45.2428950" lon="6.3109360">
        <ele>1013.6</ele>
        <time>2021-08-19T12:58:33Z</time>
      </trkpt>
      <trkpt lat="45.2428770" lon="6.3109080">
        <ele>1013.8</ele>
        <time>2021-08-19T12:58:34Z</time>
      </trkpt>
      <trkpt lat="45.2428720" lon="6.3108800">
        <ele>1014.0</ele>
        <time>2021-08-19T12:58:35Z</time>
      </trkpt>
      <trkpt lat="45.2428910" lon="6.3107980">
        <ele>1014.4</ele>
        <time>2021-08-19T12:58:38Z</time>
      </trkpt>
      <trkpt lat="45.2429080" lon="6.3107680">
        <ele>1014.6</ele>
        <time>2021-08-19T12:58:39Z</time>
      </trkpt>
      <trkpt lat="45.2429840" lon="6.3106890">
        <ele>1015.8</ele>
        <time>2021-08-19T12:58:43Z</time>
      </trkpt>
      <trkpt lat="45.2430110" lon="6.3106740">
        <ele>1015.8</ele>
        <time>2021-08-19T12:58:44Z</time>
      </trkpt>
      <trkpt lat="45.2431720" lon="6.3105850">
        <ele>1016.8</ele>
        <time>2021-08-19T12:58:51Z</time>
      </trkpt>
      <trkpt lat="45.2432250" lon="6.3105550">
        <ele>1017.2</ele>
        <time>2021-08-19T12:58:53Z</time>
      </trkpt>
      <trkpt lat="45.2432760" lon="6.3105230">
        <ele>1017.4</ele>
        <time>2021-08-19T12:58:55Z</time>
      </trkpt>
      <trkpt lat="45.2432980" lon="6.3105120">
        <ele>1017.4</ele>
        <time>2021-08-19T12:58:56Z</time>
      </trkpt>
      <trkpt lat="45.2434030" lon="6.3104310">
        <ele>1018.0</ele>
        <time>2021-08-19T12:59:00Z</time>
      </trkpt>
      <trkpt lat="45.2434490" lon="6.3103950">
        <ele>1018.4</ele>
        <time>2021-08-19T12:59:02Z</time>
      </trkpt>
      <trkpt lat="45.2434790" lon="6.3103720">
        <ele>1018.4</ele>
        <time>2021-08-19T12:59:03Z</time>
      </trkpt>
      <trkpt lat="45.2436040" lon="6.3102990">
        <ele>1019.2</ele>
        <time>2021-08-19T12:59:08Z</time>
      </trkpt>
      <trkpt lat="45.2436680" lon="6.3102660">
        <ele>1019.4</ele>
        <time>2021-08-19T12:59:10Z</time>
      </trkpt>
      <trkpt lat="45.2437310" lon="6.3102320">
        <ele>1019.6</ele>
        <time>2021-08-19T12:59:12Z</time>
      </trkpt>
      <trkpt lat="45.2438830" lon="6.3102130">
        <ele>1020.2</ele>
        <time>2021-08-19T12:59:17Z</time>
      </trkpt>
      <trkpt lat="45.2439150" lon="6.3102110">
        <ele>1020.4</ele>
        <time>2021-08-19T12:59:18Z</time>
      </trkpt>
      <trkpt lat="45.2439380" lon="6.3102060">
        <ele>1020.6</ele>
        <time>2021-08-19T12:59:19Z</time>
      </trkpt>
      <trkpt lat="45.2439540" lon="6.3102050">
        <ele>1020.8</ele>
        <time>2021-08-19T12:59:20Z</time>
      </trkpt>
      <trkpt lat="45.2439770" lon="6.3102030">
        <ele>1021.0</ele>
        <time>2021-08-19T12:59:21Z</time>
      </trkpt>
      <trkpt lat="45.2440310" lon="6.3101940">
        <ele>1021.4</ele>
        <time>2021-08-19T12:59:23Z</time>
      </trkpt>
      <trkpt lat="45.2440800" lon="6.3101880">
        <ele>1021.8</ele>
        <time>2021-08-19T12:59:25Z</time>
      </trkpt>
      <trkpt lat="45.2441330" lon="6.3101770">
        <ele>1022.2</ele>
        <time>2021-08-19T12:59:27Z</time>
      </trkpt>
      <trkpt lat="45.2441580" lon="6.3101680">
        <ele>1022.4</ele>
        <time>2021-08-19T12:59:28Z</time>
      </trkpt>
      <trkpt lat="45.2441810" lon="6.3101580">
        <ele>1022.6</ele>
        <time>2021-08-19T12:59:29Z</time>
      </trkpt>
      <trkpt lat="45.2441980" lon="6.3101480">
        <ele>1022.8</ele>
        <time>2021-08-19T12:59:30Z</time>
      </trkpt>
      <trkpt lat="45.2442220" lon="6.3101340">
        <ele>1022.8</ele>
        <time>2021-08-19T12:59:31Z</time>
      </trkpt>
      <trkpt lat="45.2442490" lon="6.3101200">
        <ele>1023.0</ele>
        <time>2021-08-19T12:59:32Z</time>
      </trkpt>
      <trkpt lat="45.2443350" lon="6.3100740">
        <ele>1023.4</ele>
        <time>2021-08-19T12:59:36Z</time>
      </trkpt>
      <trkpt lat="45.2444480" lon="6.3100050">
        <ele>1024.8</ele>
        <time>2021-08-19T12:59:41Z</time>
      </trkpt>
      <trkpt lat="45.2444720" lon="6.3099930">
        <ele>1024.8</ele>
        <time>2021-08-19T12:59:42Z</time>
      </trkpt>
      <trkpt lat="45.2445550" lon="6.3099530">
        <ele>1025.8</ele>
        <time>2021-08-19T12:59:46Z</time>
      </trkpt>
      <trkpt lat="45.2446710" lon="6.3099190">
        <ele>1026.4</ele>
        <time>2021-08-19T12:59:51Z</time>
      </trkpt>
      <trkpt lat="45.2447850" lon="6.3099380">
        <ele>1027.0</ele>
        <time>2021-08-19T12:59:56Z</time>
      </trkpt>
      <trkpt lat="45.2448270" lon="6.3099380">
        <ele>1027.2</ele>
        <time>2021-08-19T12:59:58Z</time>
      </trkpt>
      <trkpt lat="45.2449170" lon="6.3099360">
        <ele>1027.8</ele>
        <time>2021-08-19T13:00:02Z</time>
      </trkpt>
      <trkpt lat="45.2449870" lon="6.3099370">
        <ele>1028.4</ele>
        <time>2021-08-19T13:00:05Z</time>
      </trkpt>
      <trkpt lat="45.2450320" lon="6.3099330">
        <ele>1028.6</ele>
        <time>2021-08-19T13:00:07Z</time>
      </trkpt>
      <trkpt lat="45.2450770" lon="6.3099290">
        <ele>1029.4</ele>
        <time>2021-08-19T13:00:09Z</time>
      </trkpt>
      <trkpt lat="45.2451040" lon="6.3099290">
        <ele>1029.6</ele>
        <time>2021-08-19T13:00:10Z</time>
      </trkpt>
      <trkpt lat="45.2451260" lon="6.3099280">
        <ele>1029.8</ele>
        <time>2021-08-19T13:00:11Z</time>
      </trkpt>
      <trkpt lat="45.2451800" lon="6.3099390">
        <ele>1030.0</ele>
        <time>2021-08-19T13:00:14Z</time>
      </trkpt>
      <trkpt lat="45.2452480" lon="6.3099530">
        <ele>1030.8</ele>
        <time>2021-08-19T13:00:17Z</time>
      </trkpt>
      <trkpt lat="45.2453670" lon="6.3099900">
        <ele>1031.8</ele>
        <time>2021-08-19T13:00:22Z</time>
      </trkpt>
      <trkpt lat="45.2453840" lon="6.3100000">
        <ele>1031.8</ele>
        <time>2021-08-19T13:00:23Z</time>
      </trkpt>
      <trkpt lat="45.2454670" lon="6.3100580">
        <ele>1033.0</ele>
        <time>2021-08-19T13:00:27Z</time>
      </trkpt>
      <trkpt lat="45.2455480" lon="6.3101240">
        <ele>1034.0</ele>
        <time>2021-08-19T13:00:31Z</time>
      </trkpt>
      <trkpt lat="45.2455640" lon="6.3101420">
        <ele>1034.2</ele>
        <time>2021-08-19T13:00:32Z</time>
      </trkpt>
      <trkpt lat="45.2456390" lon="6.3102050">
        <ele>1035.0</ele>
        <time>2021-08-19T13:00:36Z</time>
      </trkpt>
      <trkpt lat="45.2457270" lon="6.3102510">
        <ele>1035.8</ele>
        <time>2021-08-19T13:00:40Z</time>
      </trkpt>
      <trkpt lat="45.2457510" lon="6.3102580">
        <ele>1036.0</ele>
        <time>2021-08-19T13:00:41Z</time>
      </trkpt>
      <trkpt lat="45.2459040" lon="6.3102940">
        <ele>1037.2</ele>
        <time>2021-08-19T13:00:47Z</time>
      </trkpt>
      <trkpt lat="45.2459320" lon="6.3103030">
        <ele>1037.4</ele>
        <time>2021-08-19T13:00:48Z</time>
      </trkpt>
      <trkpt lat="45.2460260" lon="6.3103360">
        <ele>1037.6</ele>
        <time>2021-08-19T13:00:51Z</time>
      </trkpt>
      <trkpt lat="45.2461410" lon="6.3103760">
        <ele>1038.0</ele>
        <time>2021-08-19T13:00:55Z</time>
      </trkpt>
      <trkpt lat="45.2461910" lon="6.3103980">
        <ele>1038.2</ele>
        <time>2021-08-19T13:00:57Z</time>
      </trkpt>
      <trkpt lat="45.2463790" lon="6.3104730">
        <ele>1039.0</ele>
        <time>2021-08-19T13:01:04Z</time>
      </trkpt>
      <trkpt lat="45.2464040" lon="6.3104810">
        <ele>1039.0</ele>
        <time>2021-08-19T13:01:05Z</time>
      </trkpt>
      <trkpt lat="45.2464840" lon="6.3105040">
        <ele>1039.4</ele>
        <time>2021-08-19T13:01:08Z</time>
      </trkpt>
      <trkpt lat="45.2465370" lon="6.3105130">
        <ele>1040.0</ele>
        <time>2021-08-19T13:01:10Z</time>
      </trkpt>
      <trkpt lat="45.2465840" lon="6.3105210">
        <ele>1040.4</ele>
        <time>2021-08-19T13:01:12Z</time>
      </trkpt>
      <trkpt lat="45.2466150" lon="6.3105230">
        <ele>1041.0</ele>
        <time>2021-08-19T13:01:13Z</time>
      </trkpt>
      <trkpt lat="45.2466950" lon="6.3105140">
        <ele>1041.4</ele>
        <time>2021-08-19T13:01:16Z</time>
      </trkpt>
      <trkpt lat="45.2467160" lon="6.3105110">
        <ele>1041.6</ele>
        <time>2021-08-19T13:01:17Z</time>
      </trkpt>
      <trkpt lat="45.2467880" lon="6.3104830">
        <ele>1042.0</ele>
        <time>2021-08-19T13:01:20Z</time>
      </trkpt>
      <trkpt lat="45.2468300" lon="6.3104610">
        <ele>1042.4</ele>
        <time>2021-08-19T13:01:22Z</time>
      </trkpt>
      <trkpt lat="45.2468810" lon="6.3104420">
        <ele>1042.4</ele>
        <time>2021-08-19T13:01:24Z</time>
      </trkpt>
      <trkpt lat="45.2469030" lon="6.3104330">
        <ele>1042.4</ele>
        <time>2021-08-19T13:01:25Z</time>
      </trkpt>
      <trkpt lat="45.2469450" lon="6.3104170">
        <ele>1042.6</ele>
        <time>2021-08-19T13:01:27Z</time>
      </trkpt>
      <trkpt lat="45.2470390" lon="6.3103650">
        <ele>1043.6</ele>
        <time>2021-08-19T13:01:31Z</time>
      </trkpt>
      <trkpt lat="45.2471360" lon="6.3103190">
        <ele>1044.6</ele>
        <time>2021-08-19T13:01:35Z</time>
      </trkpt>
      <trkpt lat="45.2472320" lon="6.3102720">
        <ele>1045.0</ele>
        <time>2021-08-19T13:01:39Z</time>
      </trkpt>
      <trkpt lat="45.2472910" lon="6.3102360">
        <ele>1045.4</ele>
        <time>2021-08-19T13:01:42Z</time>
      </trkpt>
      <trkpt lat="45.2473690" lon="6.3102000">
        <ele>1046.0</ele>
        <time>2021-08-19T13:01:45Z</time>
      </trkpt>
      <trkpt lat="45.2474130" lon="6.3101810">
        <ele>1046.6</ele>
        <time>2021-08-19T13:01:47Z</time>
      </trkpt>
      <trkpt lat="45.2475610" lon="6.3101250">
        <ele>1047.4</ele>
        <time>2021-08-19T13:01:53Z</time>
      </trkpt>
      <trkpt lat="45.2475870" lon="6.3101240">
        <ele>1047.6</ele>
        <time>2021-08-19T13:01:54Z</time>
      </trkpt>
      <trkpt lat="45.2477450" lon="6.3101160">
        <ele>1048.4</ele>
        <time>2021-08-19T13:02:00Z</time>
      </trkpt>
      <trkpt lat="45.2478220" lon="6.3101100">
        <ele>1048.6</ele>
        <time>2021-08-19T13:02:04Z</time>
      </trkpt>
      <trkpt lat="45.2479420" lon="6.3100680">
        <ele>1049.8</ele>
        <time>2021-08-19T13:02:09Z</time>
      </trkpt>
      <trkpt lat="45.2479940" lon="6.3100120">
        <ele>1050.0</ele>
        <time>2021-08-19T13:02:12Z</time>
      </trkpt>
      <trkpt lat="45.2480060" lon="6.3099820">
        <ele>1050.0</ele>
        <time>2021-08-19T13:02:13Z</time>
      </trkpt>
      <trkpt lat="45.2479920" lon="6.3098760">
        <ele>1050.2</ele>
        <time>2021-08-19T13:02:16Z</time>
      </trkpt>
      <trkpt lat="45.2478790" lon="6.3097730">
        <ele>1050.8</ele>
        <time>2021-08-19T13:02:21Z</time>
      </trkpt>
      <trkpt lat="45.2478490" lon="6.3097680">
        <ele>1051.0</ele>
        <time>2021-08-19T13:02:22Z</time>
      </trkpt>
      <trkpt lat="45.2477240" lon="6.3097680">
        <ele>1051.4</ele>
        <time>2021-08-19T13:02:26Z</time>
      </trkpt>
      <trkpt lat="45.2476950" lon="6.3097720">
        <ele>1051.6</ele>
        <time>2021-08-19T13:02:27Z</time>
      </trkpt>
      <trkpt lat="45.2476390" lon="6.3097780">
        <ele>1052.2</ele>
        <time>2021-08-19T13:02:29Z</time>
      </trkpt>
      <trkpt lat="45.2475350" lon="6.3097740">
        <ele>1053.0</ele>
        <time>2021-08-19T13:02:33Z</time>
      </trkpt>
      <trkpt lat="45.2475110" lon="6.3097740">
        <ele>1053.2</ele>
        <time>2021-08-19T13:02:34Z</time>
      </trkpt>
      <trkpt lat="45.2474040" lon="6.3097680">
        <ele>1053.8</ele>
        <time>2021-08-19T13:02:39Z</time>
      </trkpt>
      <trkpt lat="45.2473840" lon="6.3097650">
        <ele>1053.8</ele>
        <time>2021-08-19T13:02:40Z</time>
      </trkpt>
      <trkpt lat="45.2473630" lon="6.3097640">
        <ele>1054.2</ele>
        <time>2021-08-19T13:02:41Z</time>
      </trkpt>
      <trkpt lat="45.2473450" lon="6.3097640">
        <ele>1054.6</ele>
        <time>2021-08-19T13:02:42Z</time>
      </trkpt>
      <trkpt lat="45.2473200" lon="6.3097610">
        <ele>1054.8</ele>
        <time>2021-08-19T13:02:43Z</time>
      </trkpt>
      <trkpt lat="45.2472960" lon="6.3097590">
        <ele>1055.0</ele>
        <time>2021-08-19T13:02:44Z</time>
      </trkpt>
      <trkpt lat="45.2472750" lon="6.3097550">
        <ele>1055.0</ele>
        <time>2021-08-19T13:02:45Z</time>
      </trkpt>
      <trkpt lat="45.2472520" lon="6.3097530">
        <ele>1055.2</ele>
        <time>2021-08-19T13:02:46Z</time>
      </trkpt>
      <trkpt lat="45.2472300" lon="6.3097520">
        <ele>1055.4</ele>
        <time>2021-08-19T13:02:47Z</time>
      </trkpt>
      <trkpt lat="45.2471840" lon="6.3097450">
        <ele>1055.8</ele>
        <time>2021-08-19T13:02:49Z</time>
      </trkpt>
      <trkpt lat="45.2471140" lon="6.3097230">
        <ele>1056.4</ele>
        <time>2021-08-19T13:02:52Z</time>
      </trkpt>
      <trkpt lat="45.2470350" lon="6.3096700">
        <ele>1057.2</ele>
        <time>2021-08-19T13:02:56Z</time>
      </trkpt>
      <trkpt lat="45.2469700" lon="6.3096260">
        <ele>1057.6</ele>
        <time>2021-08-19T13:02:59Z</time>
      </trkpt>
      <trkpt lat="45.2469210" lon="6.3095780">
        <ele>1058.2</ele>
        <time>2021-08-19T13:03:02Z</time>
      </trkpt>
      <trkpt lat="45.2468880" lon="6.3095380">
        <ele>1058.6</ele>
        <time>2021-08-19T13:03:04Z</time>
      </trkpt>
      <trkpt lat="45.2468670" lon="6.3095090">
        <ele>1058.8</ele>
        <time>2021-08-19T13:03:06Z</time>
      </trkpt>
      <trkpt lat="45.2468040" lon="6.3094220">
        <ele>1059.4</ele>
        <time>2021-08-19T13:03:10Z</time>
      </trkpt>
      <trkpt lat="45.2467740" lon="6.3093860">
        <ele>1059.4</ele>
        <time>2021-08-19T13:03:12Z</time>
      </trkpt>
      <trkpt lat="45.2467250" lon="6.3093320">
        <ele>1059.8</ele>
        <time>2021-08-19T13:03:15Z</time>
      </trkpt>
      <trkpt lat="45.2466620" lon="6.3092620">
        <ele>1060.8</ele>
        <time>2021-08-19T13:03:19Z</time>
      </trkpt>
      <trkpt lat="45.2466520" lon="6.3092490">
        <ele>1061.2</ele>
        <time>2021-08-19T13:03:20Z</time>
      </trkpt>
      <trkpt lat="45.2465320" lon="6.3090950">
        <ele>1062.2</ele>
        <time>2021-08-19T13:03:29Z</time>
      </trkpt>
      <trkpt lat="45.2465100" lon="6.3090610">
        <ele>1062.4</ele>
        <time>2021-08-19T13:03:31Z</time>
      </trkpt>
      <trkpt lat="45.2464640" lon="6.3089960">
        <ele>1063.0</ele>
        <time>2021-08-19T13:03:34Z</time>
      </trkpt>
      <trkpt lat="45.2464530" lon="6.3089810">
        <ele>1063.2</ele>
        <time>2021-08-19T13:03:35Z</time>
      </trkpt>
      <trkpt lat="45.2464370" lon="6.3089650">
        <ele>1063.6</ele>
        <time>2021-08-19T13:03:36Z</time>
      </trkpt>
      <trkpt lat="45.2463640" lon="6.3088790">
        <ele>1064.2</ele>
        <time>2021-08-19T13:03:41Z</time>
      </trkpt>
      <trkpt lat="45.2463330" lon="6.3088370">
        <ele>1064.6</ele>
        <time>2021-08-19T13:03:43Z</time>
      </trkpt>
      <trkpt lat="45.2462280" lon="6.3087600">
        <ele>1065.4</ele>
        <time>2021-08-19T13:03:49Z</time>
      </trkpt>
      <trkpt lat="45.2461370" lon="6.3086830">
        <ele>1066.4</ele>
        <time>2021-08-19T13:03:54Z</time>
      </trkpt>
      <trkpt lat="45.2460930" lon="6.3086450">
        <ele>1066.6</ele>
        <time>2021-08-19T13:03:56Z</time>
      </trkpt>
      <trkpt lat="45.2459510" lon="6.3085270">
        <ele>1067.4</ele>
        <time>2021-08-19T13:04:03Z</time>
      </trkpt>
      <trkpt lat="45.2459110" lon="6.3084990">
        <ele>1068.0</ele>
        <time>2021-08-19T13:04:05Z</time>
      </trkpt>
      <trkpt lat="45.2458840" lon="6.3084800">
        <ele>1068.6</ele>
        <time>2021-08-19T13:04:06Z</time>
      </trkpt>
      <trkpt lat="45.2457360" lon="6.3083430">
        <ele>1069.6</ele>
        <time>2021-08-19T13:04:13Z</time>
      </trkpt>
      <trkpt lat="45.2457180" lon="6.3083290">
        <ele>1069.6</ele>
        <time>2021-08-19T13:04:14Z</time>
      </trkpt>
      <trkpt lat="45.2455680" lon="6.3081950">
        <ele>1070.6</ele>
        <time>2021-08-19T13:04:21Z</time>
      </trkpt>
      <trkpt lat="45.2455280" lon="6.3081560">
        <ele>1071.2</ele>
        <time>2021-08-19T13:04:23Z</time>
      </trkpt>
      <trkpt lat="45.2454670" lon="6.3081020">
        <ele>1072.0</ele>
        <time>2021-08-19T13:04:26Z</time>
      </trkpt>
      <trkpt lat="45.2453820" lon="6.3080250">
        <ele>1072.6</ele>
        <time>2021-08-19T13:04:30Z</time>
      </trkpt>
      <trkpt lat="45.2453600" lon="6.3080070">
        <ele>1073.0</ele>
        <time>2021-08-19T13:04:31Z</time>
      </trkpt>
      <trkpt lat="45.2453200" lon="6.3079690">
        <ele>1073.2</ele>
        <time>2021-08-19T13:04:33Z</time>
      </trkpt>
      <trkpt lat="45.2452010" lon="6.3078540">
        <ele>1074.0</ele>
        <time>2021-08-19T13:04:39Z</time>
      </trkpt>
      <trkpt lat="45.2451570" lon="6.3078150">
        <ele>1074.4</ele>
        <time>2021-08-19T13:04:41Z</time>
      </trkpt>
      <trkpt lat="45.2450880" lon="6.3077670">
        <ele>1075.2</ele>
        <time>2021-08-19T13:04:44Z</time>
      </trkpt>
      <trkpt lat="45.2449540" lon="6.3077000">
        <ele>1076.2</ele>
        <time>2021-08-19T13:04:50Z</time>
      </trkpt>
      <trkpt lat="45.2449330" lon="6.3076910">
        <ele>1076.4</ele>
        <time>2021-08-19T13:04:51Z</time>
      </trkpt>
      <trkpt lat="45.2447770" lon="6.3076380">
        <ele>1077.2</ele>
        <time>2021-08-19T13:04:58Z</time>
      </trkpt>
      <trkpt lat="45.2447330" lon="6.3076220">
        <ele>1077.4</ele>
        <time>2021-08-19T13:05:00Z</time>
      </trkpt>
      <trkpt lat="45.2447330" lon="6.3076220">
        <ele>1077.4</ele>
        <time>2021-08-19T13:05:03Z</time>
      </trkpt>
      <trkpt lat="45.2446520" lon="6.3075840">
        <ele>1078.2</ele>
        <time>2021-08-19T13:05:04Z</time>
      </trkpt>
      <trkpt lat="45.2446080" lon="6.3075630">
        <ele>1078.4</ele>
        <time>2021-08-19T13:05:06Z</time>
      </trkpt>
      <trkpt lat="45.2445850" lon="6.3075550">
        <ele>1078.6</ele>
        <time>2021-08-19T13:05:07Z</time>
      </trkpt>
      <trkpt lat="45.2444920" lon="6.3075110">
        <ele>1079.6</ele>
        <time>2021-08-19T13:05:11Z</time>
      </trkpt>
      <trkpt lat="45.2444190" lon="6.3074500">
        <ele>1080.0</ele>
        <time>2021-08-19T13:05:15Z</time>
      </trkpt>
      <trkpt lat="45.2444160" lon="6.3074010">
        <ele>1080.2</ele>
        <time>2021-08-19T13:05:17Z</time>
      </trkpt>
      <trkpt lat="45.2444390" lon="6.3073460">
        <ele>1080.2</ele>
        <time>2021-08-19T13:05:19Z</time>
      </trkpt>
      <trkpt lat="45.2444580" lon="6.3073340">
        <ele>1080.4</ele>
        <time>2021-08-19T13:05:20Z</time>
      </trkpt>
      <trkpt lat="45.2445250" lon="6.3073410">
        <ele>1080.8</ele>
        <time>2021-08-19T13:05:23Z</time>
      </trkpt>
      <trkpt lat="45.2445490" lon="6.3073470">
        <ele>1081.6</ele>
        <time>2021-08-19T13:05:24Z</time>
      </trkpt>
      <trkpt lat="45.2446790" lon="6.3073810">
        <ele>1082.6</ele>
        <time>2021-08-19T13:05:30Z</time>
      </trkpt>
      <trkpt lat="45.2447260" lon="6.3074020">
        <ele>1083.2</ele>
        <time>2021-08-19T13:05:32Z</time>
      </trkpt>
      <trkpt lat="45.2447730" lon="6.3074180">
        <ele>1083.6</ele>
        <time>2021-08-19T13:05:34Z</time>
      </trkpt>
      <trkpt lat="45.2448640" lon="6.3074290">
        <ele>1084.4</ele>
        <time>2021-08-19T13:05:38Z</time>
      </trkpt>
      <trkpt lat="45.2449060" lon="6.3074370">
        <ele>1084.6</ele>
        <time>2021-08-19T13:05:40Z</time>
      </trkpt>
      <trkpt lat="45.2450120" lon="6.3074490">
        <ele>1085.0</ele>
        <time>2021-08-19T13:05:45Z</time>
      </trkpt>
      <trkpt lat="45.2451570" lon="6.3074720">
        <ele>1085.6</ele>
        <time>2021-08-19T13:05:52Z</time>
      </trkpt>
      <trkpt lat="45.2452530" lon="6.3074850">
        <ele>1086.6</ele>
        <time>2021-08-19T13:05:57Z</time>
      </trkpt>
      <trkpt lat="45.2452750" lon="6.3074900">
        <ele>1086.8</ele>
        <time>2021-08-19T13:05:58Z</time>
      </trkpt>
      <trkpt lat="45.2454320" lon="6.3075210">
        <ele>1087.6</ele>
        <time>2021-08-19T13:06:06Z</time>
      </trkpt>
      <trkpt lat="45.2454590" lon="6.3075240">
        <ele>1087.8</ele>
        <time>2021-08-19T13:06:07Z</time>
      </trkpt>
      <trkpt lat="45.2455600" lon="6.3075360">
        <ele>1088.6</ele>
        <time>2021-08-19T13:06:12Z</time>
      </trkpt>
      <trkpt lat="45.2456480" lon="6.3075540">
        <ele>1089.4</ele>
        <time>2021-08-19T13:06:16Z</time>
      </trkpt>
      <trkpt lat="45.2457330" lon="6.3075640">
        <ele>1089.8</ele>
        <time>2021-08-19T13:06:20Z</time>
      </trkpt>
      <trkpt lat="45.2458410" lon="6.3075620">
        <ele>1091.0</ele>
        <time>2021-08-19T13:06:25Z</time>
      </trkpt>
      <trkpt lat="45.2459520" lon="6.3075730">
        <ele>1091.6</ele>
        <time>2021-08-19T13:06:30Z</time>
      </trkpt>
      <trkpt lat="45.2460240" lon="6.3075790">
        <ele>1091.8</ele>
        <time>2021-08-19T13:06:33Z</time>
      </trkpt>
      <trkpt lat="45.2460630" lon="6.3075820">
        <ele>1092.2</ele>
        <time>2021-08-19T13:06:35Z</time>
      </trkpt>
      <trkpt lat="45.2462070" lon="6.3076190">
        <ele>1092.6</ele>
        <time>2021-08-19T13:06:42Z</time>
      </trkpt>
      <trkpt lat="45.2462280" lon="6.3076320">
        <ele>1092.8</ele>
        <time>2021-08-19T13:06:43Z</time>
      </trkpt>
      <trkpt lat="45.2463610" lon="6.3077120">
        <ele>1094.0</ele>
        <time>2021-08-19T13:06:50Z</time>
      </trkpt>
      <trkpt lat="45.2463790" lon="6.3077200">
        <ele>1094.0</ele>
        <time>2021-08-19T13:06:51Z</time>
      </trkpt>
      <trkpt lat="45.2463960" lon="6.3077350">
        <ele>1094.6</ele>
        <time>2021-08-19T13:06:52Z</time>
      </trkpt>
      <trkpt lat="45.2464280" lon="6.3077810">
        <ele>1095.2</ele>
        <time>2021-08-19T13:06:54Z</time>
      </trkpt>
      <trkpt lat="45.2464650" lon="6.3078260">
        <ele>1095.4</ele>
        <time>2021-08-19T13:06:56Z</time>
      </trkpt>
      <trkpt lat="45.2465260" lon="6.3078850">
        <ele>1096.0</ele>
        <time>2021-08-19T13:07:00Z</time>
      </trkpt>
      <trkpt lat="45.2465440" lon="6.3079090">
        <ele>1096.2</ele>
        <time>2021-08-19T13:07:01Z</time>
      </trkpt>
      <trkpt lat="45.2465590" lon="6.3079310">
        <ele>1096.4</ele>
        <time>2021-08-19T13:07:02Z</time>
      </trkpt>
      <trkpt lat="45.2466380" lon="6.3080080">
        <ele>1097.2</ele>
        <time>2021-08-19T13:07:07Z</time>
      </trkpt>
      <trkpt lat="45.2466770" lon="6.3080450">
        <ele>1098.2</ele>
        <time>2021-08-19T13:07:09Z</time>
      </trkpt>
      <trkpt lat="45.2467390" lon="6.3080980">
        <ele>1098.6</ele>
        <time>2021-08-19T13:07:12Z</time>
      </trkpt>
      <trkpt lat="45.2468190" lon="6.3081590">
        <ele>1099.2</ele>
        <time>2021-08-19T13:07:16Z</time>
      </trkpt>
      <trkpt lat="45.2468590" lon="6.3081930">
        <ele>1099.6</ele>
        <time>2021-08-19T13:07:18Z</time>
      </trkpt>
      <trkpt lat="45.2469730" lon="6.3082100">
        <ele>1100.4</ele>
        <time>2021-08-19T13:07:23Z</time>
      </trkpt>
      <trkpt lat="45.2470220" lon="6.3081950">
        <ele>1100.8</ele>
        <time>2021-08-19T13:07:25Z</time>
      </trkpt>
      <trkpt lat="45.2471040" lon="6.3081350">
        <ele>1101.6</ele>
        <time>2021-08-19T13:07:29Z</time>
      </trkpt>
      <trkpt lat="45.2471440" lon="6.3080990">
        <ele>1101.8</ele>
        <time>2021-08-19T13:07:31Z</time>
      </trkpt>
      <trkpt lat="45.2472590" lon="6.3079760">
        <ele>1103.0</ele>
        <time>2021-08-19T13:07:37Z</time>
      </trkpt>
      <trkpt lat="45.2472790" lon="6.3079570">
        <ele>1103.0</ele>
        <time>2021-08-19T13:07:38Z</time>
      </trkpt>
      <trkpt lat="45.2473720" lon="6.3078510">
        <ele>1104.0</ele>
        <time>2021-08-19T13:07:43Z</time>
      </trkpt>
      <trkpt lat="45.2474700" lon="6.3077620">
        <ele>1105.0</ele>
        <time>2021-08-19T13:07:48Z</time>
      </trkpt>
      <trkpt lat="45.2475340" lon="6.3077110">
        <ele>1105.4</ele>
        <time>2021-08-19T13:07:51Z</time>
      </trkpt>
      <trkpt lat="45.2476480" lon="6.3076510">
        <ele>1106.0</ele>
        <time>2021-08-19T13:07:56Z</time>
      </trkpt>
      <trkpt lat="45.2476950" lon="6.3076310">
        <ele>1106.4</ele>
        <time>2021-08-19T13:07:58Z</time>
      </trkpt>
      <trkpt lat="45.2478900" lon="6.3076170">
        <ele>1107.2</ele>
        <time>2021-08-19T13:08:06Z</time>
      </trkpt>
      <trkpt lat="45.2479350" lon="6.3076270">
        <ele>1107.6</ele>
        <time>2021-08-19T13:08:08Z</time>
      </trkpt>
      <trkpt lat="45.2480330" lon="6.3076360">
        <ele>1108.4</ele>
        <time>2021-08-19T13:08:12Z</time>
      </trkpt>
      <trkpt lat="45.2480560" lon="6.3076400">
        <ele>1108.6</ele>
        <time>2021-08-19T13:08:13Z</time>
      </trkpt>
      <trkpt lat="45.2481840" lon="6.3076580">
        <ele>1109.6</ele>
        <time>2021-08-19T13:08:18Z</time>
      </trkpt>
      <trkpt lat="45.2482050" lon="6.3076620">
        <ele>1109.6</ele>
        <time>2021-08-19T13:08:19Z</time>
      </trkpt>
      <trkpt lat="45.2483540" lon="6.3076900">
        <ele>1111.0</ele>
        <time>2021-08-19T13:08:25Z</time>
      </trkpt>
      <trkpt lat="45.2484280" lon="6.3077000">
        <ele>1112.0</ele>
        <time>2021-08-19T13:08:28Z</time>
      </trkpt>
      <trkpt lat="45.2485680" lon="6.3076760">
        <ele>1112.8</ele>
        <time>2021-08-19T13:08:33Z</time>
      </trkpt>
      <trkpt lat="45.2485940" lon="6.3076680">
        <ele>1113.0</ele>
        <time>2021-08-19T13:08:34Z</time>
      </trkpt>
      <trkpt lat="45.2486210" lon="6.3076580">
        <ele>1113.2</ele>
        <time>2021-08-19T13:08:35Z</time>
      </trkpt>
      <trkpt lat="45.2487190" lon="6.3075940">
        <ele>1114.0</ele>
        <time>2021-08-19T13:08:39Z</time>
      </trkpt>
      <trkpt lat="45.2487860" lon="6.3075480">
        <ele>1114.6</ele>
        <time>2021-08-19T13:08:42Z</time>
      </trkpt>
      <trkpt lat="45.2488060" lon="6.3075310">
        <ele>1114.6</ele>
        <time>2021-08-19T13:08:43Z</time>
      </trkpt>
      <trkpt lat="45.2488660" lon="6.3074730">
        <ele>1115.0</ele>
        <time>2021-08-19T13:08:46Z</time>
      </trkpt>
      <trkpt lat="45.2489630" lon="6.3073760">
        <ele>1115.8</ele>
        <time>2021-08-19T13:08:51Z</time>
      </trkpt>
      <trkpt lat="45.2489840" lon="6.3073570">
        <ele>1116.0</ele>
        <time>2021-08-19T13:08:52Z</time>
      </trkpt>
      <trkpt lat="45.2490880" lon="6.3072700">
        <ele>1117.0</ele>
        <time>2021-08-19T13:08:57Z</time>
      </trkpt>
      <trkpt lat="45.2491920" lon="6.3071780">
        <ele>1118.0</ele>
        <time>2021-08-19T13:09:02Z</time>
      </trkpt>
      <trkpt lat="45.2492120" lon="6.3071590">
        <ele>1118.2</ele>
        <time>2021-08-19T13:09:03Z</time>
      </trkpt>
      <trkpt lat="45.2493190" lon="6.3070690">
        <ele>1119.4</ele>
        <time>2021-08-19T13:09:08Z</time>
      </trkpt>
      <trkpt lat="45.2493580" lon="6.3070330">
        <ele>1119.8</ele>
        <time>2021-08-19T13:09:10Z</time>
      </trkpt>
      <trkpt lat="45.2494150" lon="6.3069640">
        <ele>1120.4</ele>
        <time>2021-08-19T13:09:13Z</time>
      </trkpt>
      <trkpt lat="45.2494880" lon="6.3068810">
        <ele>1121.0</ele>
        <time>2021-08-19T13:09:17Z</time>
      </trkpt>
      <trkpt lat="45.2495250" lon="6.3068450">
        <ele>1121.8</ele>
        <time>2021-08-19T13:09:19Z</time>
      </trkpt>
      <trkpt lat="45.2496160" lon="6.3067700">
        <ele>1122.4</ele>
        <time>2021-08-19T13:09:24Z</time>
      </trkpt>
      <trkpt lat="45.2496370" lon="6.3067570">
        <ele>1122.6</ele>
        <time>2021-08-19T13:09:25Z</time>
      </trkpt>
      <trkpt lat="45.2497300" lon="6.3066850">
        <ele>1123.4</ele>
        <time>2021-08-19T13:09:30Z</time>
      </trkpt>
      <trkpt lat="45.2497620" lon="6.3066470">
        <ele>1123.8</ele>
        <time>2021-08-19T13:09:32Z</time>
      </trkpt>
      <trkpt lat="45.2498230" lon="6.3066000">
        <ele>1124.4</ele>
        <time>2021-08-19T13:09:35Z</time>
      </trkpt>
      <trkpt lat="45.2498750" lon="6.3065650">
        <ele>1125.0</ele>
        <time>2021-08-19T13:09:37Z</time>
      </trkpt>
      <trkpt lat="45.2500240" lon="6.3064900">
        <ele>1125.8</ele>
        <time>2021-08-19T13:09:43Z</time>
      </trkpt>
      <trkpt lat="45.2500430" lon="6.3064850">
        <ele>1126.0</ele>
        <time>2021-08-19T13:09:44Z</time>
      </trkpt>
      <trkpt lat="45.2501240" lon="6.3064690">
        <ele>1126.4</ele>
        <time>2021-08-19T13:09:47Z</time>
      </trkpt>
      <trkpt lat="45.2501850" lon="6.3064570">
        <ele>1126.8</ele>
        <time>2021-08-19T13:09:49Z</time>
      </trkpt>
      <trkpt lat="45.2502310" lon="6.3064490">
        <ele>1126.8</ele>
        <time>2021-08-19T13:09:51Z</time>
      </trkpt>
      <trkpt lat="45.2502600" lon="6.3064550">
        <ele>1126.8</ele>
        <time>2021-08-19T13:09:52Z</time>
      </trkpt>
      <trkpt lat="45.2503110" lon="6.3064560">
        <ele>1127.2</ele>
        <time>2021-08-19T13:09:54Z</time>
      </trkpt>
      <trkpt lat="45.2503810" lon="6.3064610">
        <ele>1127.8</ele>
        <time>2021-08-19T13:09:57Z</time>
      </trkpt>
      <trkpt lat="45.2504030" lon="6.3064590">
        <ele>1128.0</ele>
        <time>2021-08-19T13:09:58Z</time>
      </trkpt>
      <trkpt lat="45.2504750" lon="6.3064600">
        <ele>1128.4</ele>
        <time>2021-08-19T13:10:01Z</time>
      </trkpt>
      <trkpt lat="45.2504990" lon="6.3064590">
        <ele>1128.8</ele>
        <time>2021-08-19T13:10:02Z</time>
      </trkpt>
      <trkpt lat="45.2505260" lon="6.3064580">
        <ele>1129.0</ele>
        <time>2021-08-19T13:10:03Z</time>
      </trkpt>
      <trkpt lat="45.2505440" lon="6.3064590">
        <ele>1129.2</ele>
        <time>2021-08-19T13:10:04Z</time>
      </trkpt>
      <trkpt lat="45.2506440" lon="6.3064570">
        <ele>1130.0</ele>
        <time>2021-08-19T13:10:09Z</time>
      </trkpt>
      <trkpt lat="45.2506650" lon="6.3064580">
        <ele>1130.2</ele>
        <time>2021-08-19T13:10:10Z</time>
      </trkpt>
      <trkpt lat="45.2506870" lon="6.3064620">
        <ele>1130.2</ele>
        <time>2021-08-19T13:10:11Z</time>
      </trkpt>
      <trkpt lat="45.2507370" lon="6.3064620">
        <ele>1130.6</ele>
        <time>2021-08-19T13:10:13Z</time>
      </trkpt>
      <trkpt lat="45.2507640" lon="6.3064580">
        <ele>1130.8</ele>
        <time>2021-08-19T13:10:14Z</time>
      </trkpt>
      <trkpt lat="45.2507890" lon="6.3064550">
        <ele>1131.0</ele>
        <time>2021-08-19T13:10:15Z</time>
      </trkpt>
      <trkpt lat="45.2508140" lon="6.3064560">
        <ele>1131.2</ele>
        <time>2021-08-19T13:10:16Z</time>
      </trkpt>
      <trkpt lat="45.2508380" lon="6.3064560">
        <ele>1131.6</ele>
        <time>2021-08-19T13:10:17Z</time>
      </trkpt>
      <trkpt lat="45.2509640" lon="6.3064420">
        <ele>1132.4</ele>
        <time>2021-08-19T13:10:22Z</time>
      </trkpt>
      <trkpt lat="45.2510180" lon="6.3064390">
        <ele>1132.8</ele>
        <time>2021-08-19T13:10:24Z</time>
      </trkpt>
      <trkpt lat="45.2510380" lon="6.3064380">
        <ele>1132.8</ele>
        <time>2021-08-19T13:10:25Z</time>
      </trkpt>
      <trkpt lat="45.2510900" lon="6.3064440">
        <ele>1133.2</ele>
        <time>2021-08-19T13:10:27Z</time>
      </trkpt>
      <trkpt lat="45.2511150" lon="6.3064430">
        <ele>1133.4</ele>
        <time>2021-08-19T13:10:28Z</time>
      </trkpt>
      <trkpt lat="45.2511630" lon="6.3064380">
        <ele>1133.8</ele>
        <time>2021-08-19T13:10:30Z</time>
      </trkpt>
      <trkpt lat="45.2512090" lon="6.3064300">
        <ele>1134.2</ele>
        <time>2021-08-19T13:10:32Z</time>
      </trkpt>
      <trkpt lat="45.2512800" lon="6.3064250">
        <ele>1134.6</ele>
        <time>2021-08-19T13:10:35Z</time>
      </trkpt>
      <trkpt lat="45.2513350" lon="6.3064240">
        <ele>1135.2</ele>
        <time>2021-08-19T13:10:37Z</time>
      </trkpt>
      <trkpt lat="45.2513560" lon="6.3064250">
        <ele>1135.2</ele>
        <time>2021-08-19T13:10:38Z</time>
      </trkpt>
      <trkpt lat="45.2513800" lon="6.3064290">
        <ele>1135.4</ele>
        <time>2021-08-19T13:10:39Z</time>
      </trkpt>
      <trkpt lat="45.2514040" lon="6.3064350">
        <ele>1135.6</ele>
        <time>2021-08-19T13:10:40Z</time>
      </trkpt>
      <trkpt lat="45.2514510" lon="6.3064610">
        <ele>1135.8</ele>
        <time>2021-08-19T13:10:42Z</time>
      </trkpt>
      <trkpt lat="45.2514670" lon="6.3064700">
        <ele>1136.0</ele>
        <time>2021-08-19T13:10:43Z</time>
      </trkpt>
      <trkpt lat="45.2514890" lon="6.3064840">
        <ele>1136.0</ele>
        <time>2021-08-19T13:10:44Z</time>
      </trkpt>
      <trkpt lat="45.2515080" lon="6.3064950">
        <ele>1136.2</ele>
        <time>2021-08-19T13:10:45Z</time>
      </trkpt>
      <trkpt lat="45.2515650" lon="6.3065410">
        <ele>1136.6</ele>
        <time>2021-08-19T13:10:48Z</time>
      </trkpt>
      <trkpt lat="45.2516180" lon="6.3065990">
        <ele>1137.6</ele>
        <time>2021-08-19T13:10:51Z</time>
      </trkpt>
      <trkpt lat="45.2516350" lon="6.3066200">
        <ele>1137.8</ele>
        <time>2021-08-19T13:10:52Z</time>
      </trkpt>
      <trkpt lat="45.2517040" lon="6.3066990">
        <ele>1139.0</ele>
        <time>2021-08-19T13:10:56Z</time>
      </trkpt>
      <trkpt lat="45.2517840" lon="6.3067740">
        <ele>1139.6</ele>
        <time>2021-08-19T13:11:00Z</time>
      </trkpt>
      <trkpt lat="45.2518260" lon="6.3068130">
        <ele>1140.0</ele>
        <time>2021-08-19T13:11:02Z</time>
      </trkpt>
      <trkpt lat="45.2518470" lon="6.3068310">
        <ele>1140.4</ele>
        <time>2021-08-19T13:11:03Z</time>
      </trkpt>
      <trkpt lat="45.2519560" lon="6.3069050">
        <ele>1141.2</ele>
        <time>2021-08-19T13:11:08Z</time>
      </trkpt>
      <trkpt lat="45.2519800" lon="6.3069150">
        <ele>1141.4</ele>
        <time>2021-08-19T13:11:09Z</time>
      </trkpt>
      <trkpt lat="45.2520040" lon="6.3069250">
        <ele>1141.6</ele>
        <time>2021-08-19T13:11:10Z</time>
      </trkpt>
      <trkpt lat="45.2521050" lon="6.3069500">
        <ele>1142.2</ele>
        <time>2021-08-19T13:11:14Z</time>
      </trkpt>
      <trkpt lat="45.2521320" lon="6.3069490">
        <ele>1142.6</ele>
        <time>2021-08-19T13:11:15Z</time>
      </trkpt>
      <trkpt lat="45.2521570" lon="6.3069460">
        <ele>1142.8</ele>
        <time>2021-08-19T13:11:16Z</time>
      </trkpt>
      <trkpt lat="45.2521850" lon="6.3069430">
        <ele>1142.8</ele>
        <time>2021-08-19T13:11:17Z</time>
      </trkpt>
      <trkpt lat="45.2522100" lon="6.3069380">
        <ele>1142.8</ele>
        <time>2021-08-19T13:11:18Z</time>
      </trkpt>
      <trkpt lat="45.2522370" lon="6.3069360">
        <ele>1143.0</ele>
        <time>2021-08-19T13:11:19Z</time>
      </trkpt>
      <trkpt lat="45.2522640" lon="6.3069350">
        <ele>1143.0</ele>
        <time>2021-08-19T13:11:20Z</time>
      </trkpt>
      <trkpt lat="45.2523130" lon="6.3069290">
        <ele>1143.4</ele>
        <time>2021-08-19T13:11:22Z</time>
      </trkpt>
      <trkpt lat="45.2523370" lon="6.3069260">
        <ele>1143.8</ele>
        <time>2021-08-19T13:11:23Z</time>
      </trkpt>
      <trkpt lat="45.2523610" lon="6.3069250">
        <ele>1143.8</ele>
        <time>2021-08-19T13:11:24Z</time>
      </trkpt>
      <trkpt lat="45.2523850" lon="6.3069270">
        <ele>1144.0</ele>
        <time>2021-08-19T13:11:25Z</time>
      </trkpt>
      <trkpt lat="45.2524110" lon="6.3069310">
        <ele>1144.2</ele>
        <time>2021-08-19T13:11:26Z</time>
      </trkpt>
      <trkpt lat="45.2524380" lon="6.3069350">
        <ele>1144.2</ele>
        <time>2021-08-19T13:11:27Z</time>
      </trkpt>
      <trkpt lat="45.2524650" lon="6.3069420">
        <ele>1144.6</ele>
        <time>2021-08-19T13:11:28Z</time>
      </trkpt>
      <trkpt lat="45.2524890" lon="6.3069500">
        <ele>1144.6</ele>
        <time>2021-08-19T13:11:29Z</time>
      </trkpt>
      <trkpt lat="45.2526340" lon="6.3070030">
        <ele>1145.4</ele>
        <time>2021-08-19T13:11:35Z</time>
      </trkpt>
      <trkpt lat="45.2526790" lon="6.3070090">
        <ele>1145.8</ele>
        <time>2021-08-19T13:11:37Z</time>
      </trkpt>
      <trkpt lat="45.2527860" lon="6.3069600">
        <ele>1146.4</ele>
        <time>2021-08-19T13:11:42Z</time>
      </trkpt>
      <trkpt lat="45.2528010" lon="6.3069060">
        <ele>1146.8</ele>
        <time>2021-08-19T13:11:44Z</time>
      </trkpt>
      <trkpt lat="45.2528020" lon="6.3067660">
        <ele>1147.6</ele>
        <time>2021-08-19T13:11:48Z</time>
      </trkpt>
      <trkpt lat="45.2527880" lon="6.3067370">
        <ele>1148.0</ele>
        <time>2021-08-19T13:11:49Z</time>
      </trkpt>
      <trkpt lat="45.2526910" lon="6.3066660">
        <ele>1148.4</ele>
        <time>2021-08-19T13:11:53Z</time>
      </trkpt>
      <trkpt lat="45.2526340" lon="6.3066430">
        <ele>1149.0</ele>
        <time>2021-08-19T13:11:55Z</time>
      </trkpt>
      <trkpt lat="45.2524890" lon="6.3065950">
        <ele>1150.2</ele>
        <time>2021-08-19T13:12:00Z</time>
      </trkpt>
      <trkpt lat="45.2523520" lon="6.3065470">
        <ele>1151.0</ele>
        <time>2021-08-19T13:12:05Z</time>
      </trkpt>
      <trkpt lat="45.2522560" lon="6.3064910">
        <ele>1151.2</ele>
        <time>2021-08-19T13:12:09Z</time>
      </trkpt>
      <trkpt lat="45.2522280" lon="6.3064670">
        <ele>1151.4</ele>
        <time>2021-08-19T13:12:10Z</time>
      </trkpt>
      <trkpt lat="45.2521580" lon="6.3063740">
        <ele>1152.4</ele>
        <time>2021-08-19T13:12:14Z</time>
      </trkpt>
      <trkpt lat="45.2521090" lon="6.3062870">
        <ele>1152.6</ele>
        <time>2021-08-19T13:12:17Z</time>
      </trkpt>
      <trkpt lat="45.2521010" lon="6.3062630">
        <ele>1152.8</ele>
        <time>2021-08-19T13:12:18Z</time>
      </trkpt>
      <trkpt lat="45.2520700" lon="6.3062030">
        <ele>1153.4</ele>
        <time>2021-08-19T13:12:20Z</time>
      </trkpt>
      <trkpt lat="45.2520540" lon="6.3061710">
        <ele>1153.6</ele>
        <time>2021-08-19T13:12:21Z</time>
      </trkpt>
      <trkpt lat="45.2520380" lon="6.3061370">
        <ele>1153.8</ele>
        <time>2021-08-19T13:12:22Z</time>
      </trkpt>
      <trkpt lat="45.2520260" lon="6.3061150">
        <ele>1153.8</ele>
        <time>2021-08-19T13:12:23Z</time>
      </trkpt>
      <trkpt lat="45.2520120" lon="6.3060840">
        <ele>1154.0</ele>
        <time>2021-08-19T13:12:24Z</time>
      </trkpt>
      <trkpt lat="45.2519870" lon="6.3060290">
        <ele>1154.4</ele>
        <time>2021-08-19T13:12:26Z</time>
      </trkpt>
      <trkpt lat="45.2519230" lon="6.3059110">
        <ele>1155.2</ele>
        <time>2021-08-19T13:12:30Z</time>
      </trkpt>
      <trkpt lat="45.2518940" lon="6.3058700">
        <ele>1155.4</ele>
        <time>2021-08-19T13:12:32Z</time>
      </trkpt>
      <trkpt lat="45.2518600" lon="6.3058300">
        <ele>1155.6</ele>
        <time>2021-08-19T13:12:34Z</time>
      </trkpt>
      <trkpt lat="45.2518140" lon="6.3057630">
        <ele>1156.4</ele>
        <time>2021-08-19T13:12:37Z</time>
      </trkpt>
      <trkpt lat="45.2517300" lon="6.3057010">
        <ele>1156.8</ele>
        <time>2021-08-19T13:12:41Z</time>
      </trkpt>
      <trkpt lat="45.2516580" lon="6.3056530">
        <ele>1157.4</ele>
        <time>2021-08-19T13:12:44Z</time>
      </trkpt>
      <trkpt lat="45.2515410" lon="6.3055930">
        <ele>1158.4</ele>
        <time>2021-08-19T13:12:49Z</time>
      </trkpt>
      <trkpt lat="45.2514410" lon="6.3055470">
        <ele>1159.0</ele>
        <time>2021-08-19T13:12:53Z</time>
      </trkpt>
      <trkpt lat="45.2514170" lon="6.3055360">
        <ele>1159.4</ele>
        <time>2021-08-19T13:12:54Z</time>
      </trkpt>
      <trkpt lat="45.2513280" lon="6.3054890">
        <ele>1160.0</ele>
        <time>2021-08-19T13:12:58Z</time>
      </trkpt>
      <trkpt lat="45.2512570" lon="6.3054640">
        <ele>1160.4</ele>
        <time>2021-08-19T13:13:01Z</time>
      </trkpt>
      <trkpt lat="45.2511410" lon="6.3054110">
        <ele>1161.4</ele>
        <time>2021-08-19T13:13:06Z</time>
      </trkpt>
      <trkpt lat="45.2510510" lon="6.3053530">
        <ele>1162.4</ele>
        <time>2021-08-19T13:13:10Z</time>
      </trkpt>
      <trkpt lat="45.2509360" lon="6.3053120">
        <ele>1163.8</ele>
        <time>2021-08-19T13:13:15Z</time>
      </trkpt>
      <trkpt lat="45.2508890" lon="6.3053030">
        <ele>1164.2</ele>
        <time>2021-08-19T13:13:17Z</time>
      </trkpt>
      <trkpt lat="45.2508010" lon="6.3052590">
        <ele>1165.0</ele>
        <time>2021-08-19T13:13:21Z</time>
      </trkpt>
      <trkpt lat="45.2506850" lon="6.3052050">
        <ele>1165.6</ele>
        <time>2021-08-19T13:13:26Z</time>
      </trkpt>
      <trkpt lat="45.2506390" lon="6.3051870">
        <ele>1166.0</ele>
        <time>2021-08-19T13:13:28Z</time>
      </trkpt>
      <trkpt lat="45.2504940" lon="6.3051240">
        <ele>1166.8</ele>
        <time>2021-08-19T13:13:34Z</time>
      </trkpt>
      <trkpt lat="45.2504720" lon="6.3051130">
        <ele>1167.0</ele>
        <time>2021-08-19T13:13:35Z</time>
      </trkpt>
      <trkpt lat="45.2503140" lon="6.3050390">
        <ele>1168.2</ele>
        <time>2021-08-19T13:13:42Z</time>
      </trkpt>
      <trkpt lat="45.2502730" lon="6.3050160">
        <ele>1168.6</ele>
        <time>2021-08-19T13:13:44Z</time>
      </trkpt>
      <trkpt lat="45.2502310" lon="6.3049950">
        <ele>1168.8</ele>
        <time>2021-08-19T13:13:46Z</time>
      </trkpt>
      <trkpt lat="45.2502080" lon="6.3049870">
        <ele>1169.2</ele>
        <time>2021-08-19T13:13:47Z</time>
      </trkpt>
      <trkpt lat="45.2501840" lon="6.3049800">
        <ele>1169.2</ele>
        <time>2021-08-19T13:13:48Z</time>
      </trkpt>
      <trkpt lat="45.2501600" lon="6.3049730">
        <ele>1169.4</ele>
        <time>2021-08-19T13:13:49Z</time>
      </trkpt>
      <trkpt lat="45.2501390" lon="6.3049660">
        <ele>1169.6</ele>
        <time>2021-08-19T13:13:50Z</time>
      </trkpt>
      <trkpt lat="45.2501170" lon="6.3049580">
        <ele>1170.0</ele>
        <time>2021-08-19T13:13:51Z</time>
      </trkpt>
      <trkpt lat="45.2500730" lon="6.3049350">
        <ele>1170.2</ele>
        <time>2021-08-19T13:13:53Z</time>
      </trkpt>
      <trkpt lat="45.2500230" lon="6.3049190">
        <ele>1170.8</ele>
        <time>2021-08-19T13:13:55Z</time>
      </trkpt>
      <trkpt lat="45.2500010" lon="6.3049080">
        <ele>1171.0</ele>
        <time>2021-08-19T13:13:56Z</time>
      </trkpt>
      <trkpt lat="45.2499770" lon="6.3048970">
        <ele>1171.2</ele>
        <time>2021-08-19T13:13:57Z</time>
      </trkpt>
      <trkpt lat="45.2499530" lon="6.3048870">
        <ele>1171.4</ele>
        <time>2021-08-19T13:13:58Z</time>
      </trkpt>
      <trkpt lat="45.2498820" lon="6.3048580">
        <ele>1172.0</ele>
        <time>2021-08-19T13:14:01Z</time>
      </trkpt>
      <trkpt lat="45.2498320" lon="6.3048280">
        <ele>1172.6</ele>
        <time>2021-08-19T13:14:03Z</time>
      </trkpt>
      <trkpt lat="45.2498080" lon="6.3048150">
        <ele>1172.8</ele>
        <time>2021-08-19T13:14:04Z</time>
      </trkpt>
      <trkpt lat="45.2497150" lon="6.3047750">
        <ele>1173.8</ele>
        <time>2021-08-19T13:14:08Z</time>
      </trkpt>
      <trkpt lat="45.2496180" lon="6.3047270">
        <ele>1174.2</ele>
        <time>2021-08-19T13:14:12Z</time>
      </trkpt>
      <trkpt lat="45.2494970" lon="6.3046720">
        <ele>1174.8</ele>
        <time>2021-08-19T13:14:17Z</time>
      </trkpt>
      <trkpt lat="45.2493730" lon="6.3046170">
        <ele>1175.6</ele>
        <time>2021-08-19T13:14:22Z</time>
      </trkpt>
      <trkpt lat="45.2493220" lon="6.3045870">
        <ele>1175.8</ele>
        <time>2021-08-19T13:14:24Z</time>
      </trkpt>
      <trkpt lat="45.2493010" lon="6.3045750">
        <ele>1175.8</ele>
        <time>2021-08-19T13:14:25Z</time>
      </trkpt>
      <trkpt lat="45.2492790" lon="6.3045630">
        <ele>1176.2</ele>
        <time>2021-08-19T13:14:26Z</time>
      </trkpt>
      <trkpt lat="45.2492550" lon="6.3045500">
        <ele>1176.4</ele>
        <time>2021-08-19T13:14:27Z</time>
      </trkpt>
      <trkpt lat="45.2492320" lon="6.3045390">
        <ele>1176.6</ele>
        <time>2021-08-19T13:14:28Z</time>
      </trkpt>
      <trkpt lat="45.2491610" lon="6.3045050">
        <ele>1177.0</ele>
        <time>2021-08-19T13:14:31Z</time>
      </trkpt>
      <trkpt lat="45.2490740" lon="6.3044620">
        <ele>1177.8</ele>
        <time>2021-08-19T13:14:35Z</time>
      </trkpt>
      <trkpt lat="45.2490280" lon="6.3044410">
        <ele>1178.0</ele>
        <time>2021-08-19T13:14:37Z</time>
      </trkpt>
      <trkpt lat="45.2490040" lon="6.3044280">
        <ele>1178.4</ele>
        <time>2021-08-19T13:14:38Z</time>
      </trkpt>
      <trkpt lat="45.2489570" lon="6.3044030">
        <ele>1178.8</ele>
        <time>2021-08-19T13:14:40Z</time>
      </trkpt>
      <trkpt lat="45.2489340" lon="6.3043890">
        <ele>1178.8</ele>
        <time>2021-08-19T13:14:41Z</time>
      </trkpt>
      <trkpt lat="45.2489110" lon="6.3043740">
        <ele>1179.0</ele>
        <time>2021-08-19T13:14:42Z</time>
      </trkpt>
      <trkpt lat="45.2488640" lon="6.3043500">
        <ele>1179.0</ele>
        <time>2021-08-19T13:14:44Z</time>
      </trkpt>
      <trkpt lat="45.2488210" lon="6.3043220">
        <ele>1179.6</ele>
        <time>2021-08-19T13:14:46Z</time>
      </trkpt>
      <trkpt lat="45.2487190" lon="6.3042390">
        <ele>1180.2</ele>
        <time>2021-08-19T13:14:51Z</time>
      </trkpt>
      <trkpt lat="45.2486410" lon="6.3041270">
        <ele>1181.2</ele>
        <time>2021-08-19T13:14:56Z</time>
      </trkpt>
      <trkpt lat="45.2486250" lon="6.3041030">
        <ele>1181.4</ele>
        <time>2021-08-19T13:14:57Z</time>
      </trkpt>
      <trkpt lat="45.2485590" lon="6.3039440">
        <ele>1182.6</ele>
        <time>2021-08-19T13:15:03Z</time>
      </trkpt>
      <trkpt lat="45.2485440" lon="6.3038860">
        <ele>1183.0</ele>
        <time>2021-08-19T13:15:05Z</time>
      </trkpt>
      <trkpt lat="45.2485340" lon="6.3037620">
        <ele>1183.6</ele>
        <time>2021-08-19T13:15:09Z</time>
      </trkpt>
      <trkpt lat="45.2485190" lon="6.3036360">
        <ele>1184.0</ele>
        <time>2021-08-19T13:15:13Z</time>
      </trkpt>
      <trkpt lat="45.2485150" lon="6.3035430">
        <ele>1184.6</ele>
        <time>2021-08-19T13:15:16Z</time>
      </trkpt>
      <trkpt lat="45.2485070" lon="6.3033820">
        <ele>1185.6</ele>
        <time>2021-08-19T13:15:21Z</time>
      </trkpt>
      <trkpt lat="45.2485050" lon="6.3033570">
        <ele>1185.6</ele>
        <time>2021-08-19T13:15:22Z</time>
      </trkpt>
      <trkpt lat="45.2484970" lon="6.3030960">
        <ele>1186.6</ele>
        <time>2021-08-19T13:15:30Z</time>
      </trkpt>
      <trkpt lat="45.2484940" lon="6.3030650">
        <ele>1186.8</ele>
        <time>2021-08-19T13:15:31Z</time>
      </trkpt>
      <trkpt lat="45.2484840" lon="6.3029290">
        <ele>1187.8</ele>
        <time>2021-08-19T13:15:35Z</time>
      </trkpt>
      <trkpt lat="45.2484770" lon="6.3027940">
        <ele>1188.2</ele>
        <time>2021-08-19T13:15:39Z</time>
      </trkpt>
      <trkpt lat="45.2484740" lon="6.3026970">
        <ele>1188.8</ele>
        <time>2021-08-19T13:15:42Z</time>
      </trkpt>
      <trkpt lat="45.2484760" lon="6.3026630">
        <ele>1189.0</ele>
        <time>2021-08-19T13:15:43Z</time>
      </trkpt>
      <trkpt lat="45.2484740" lon="6.3026290">
        <ele>1189.2</ele>
        <time>2021-08-19T13:15:44Z</time>
      </trkpt>
      <trkpt lat="45.2484710" lon="6.3025620">
        <ele>1189.6</ele>
        <time>2021-08-19T13:15:46Z</time>
      </trkpt>
      <trkpt lat="45.2484700" lon="6.3025260">
        <ele>1189.6</ele>
        <time>2021-08-19T13:15:47Z</time>
      </trkpt>
      <trkpt lat="45.2484690" lon="6.3024910">
        <ele>1189.6</ele>
        <time>2021-08-19T13:15:48Z</time>
      </trkpt>
      <trkpt lat="45.2484640" lon="6.3023920">
        <ele>1190.4</ele>
        <time>2021-08-19T13:15:51Z</time>
      </trkpt>
      <trkpt lat="45.2484610" lon="6.3023590">
        <ele>1190.4</ele>
        <time>2021-08-19T13:15:52Z</time>
      </trkpt>
      <trkpt lat="45.2484590" lon="6.3023280">
        <ele>1190.6</ele>
        <time>2021-08-19T13:15:53Z</time>
      </trkpt>
      <trkpt lat="45.2484560" lon="6.3022960">
        <ele>1190.8</ele>
        <time>2021-08-19T13:15:54Z</time>
      </trkpt>
      <trkpt lat="45.2484500" lon="6.3022300">
        <ele>1191.0</ele>
        <time>2021-08-19T13:15:56Z</time>
      </trkpt>
      <trkpt lat="45.2484300" lon="6.3021690">
        <ele>1191.6</ele>
        <time>2021-08-19T13:15:58Z</time>
      </trkpt>
      <trkpt lat="45.2484200" lon="6.3021400">
        <ele>1191.8</ele>
        <time>2021-08-19T13:15:59Z</time>
      </trkpt>
      <trkpt lat="45.2483940" lon="6.3020800">
        <ele>1192.6</ele>
        <time>2021-08-19T13:16:01Z</time>
      </trkpt>
      <trkpt lat="45.2483800" lon="6.3020520">
        <ele>1192.8</ele>
        <time>2021-08-19T13:16:02Z</time>
      </trkpt>
      <trkpt lat="45.2483620" lon="6.3020310">
        <ele>1192.8</ele>
        <time>2021-08-19T13:16:03Z</time>
      </trkpt>
      <trkpt lat="45.2483220" lon="6.3019970">
        <ele>1193.0</ele>
        <time>2021-08-19T13:16:05Z</time>
      </trkpt>
      <trkpt lat="45.2482790" lon="6.3019650">
        <ele>1193.2</ele>
        <time>2021-08-19T13:16:07Z</time>
      </trkpt>
      <trkpt lat="45.2482280" lon="6.3019410">
        <ele>1193.4</ele>
        <time>2021-08-19T13:16:09Z</time>
      </trkpt>
      <trkpt lat="45.2481790" lon="6.3019300">
        <ele>1193.8</ele>
        <time>2021-08-19T13:16:11Z</time>
      </trkpt>
      <trkpt lat="45.2481320" lon="6.3019330">
        <ele>1194.0</ele>
        <time>2021-08-19T13:16:13Z</time>
      </trkpt>
      <trkpt lat="45.2481090" lon="6.3019400">
        <ele>1194.4</ele>
        <time>2021-08-19T13:16:14Z</time>
      </trkpt>
      <trkpt lat="45.2480860" lon="6.3019470">
        <ele>1194.4</ele>
        <time>2021-08-19T13:16:15Z</time>
      </trkpt>
      <trkpt lat="45.2480610" lon="6.3019540">
        <ele>1194.8</ele>
        <time>2021-08-19T13:16:16Z</time>
      </trkpt>
      <trkpt lat="45.2480350" lon="6.3019650">
        <ele>1194.8</ele>
        <time>2021-08-19T13:16:17Z</time>
      </trkpt>
      <trkpt lat="45.2480070" lon="6.3019830">
        <ele>1195.2</ele>
        <time>2021-08-19T13:16:18Z</time>
      </trkpt>
      <trkpt lat="45.2479210" lon="6.3020360">
        <ele>1195.6</ele>
        <time>2021-08-19T13:16:22Z</time>
      </trkpt>
      <trkpt lat="45.2478750" lon="6.3020740">
        <ele>1196.0</ele>
        <time>2021-08-19T13:16:24Z</time>
      </trkpt>
      <trkpt lat="45.2478530" lon="6.3020930">
        <ele>1196.2</ele>
        <time>2021-08-19T13:16:25Z</time>
      </trkpt>
      <trkpt lat="45.2477420" lon="6.3021880">
        <ele>1197.0</ele>
        <time>2021-08-19T13:16:30Z</time>
      </trkpt>
      <trkpt lat="45.2476800" lon="6.3022500">
        <ele>1197.4</ele>
        <time>2021-08-19T13:16:33Z</time>
      </trkpt>
      <trkpt lat="45.2476050" lon="6.3023460">
        <ele>1198.2</ele>
        <time>2021-08-19T13:16:37Z</time>
      </trkpt>
      <trkpt lat="45.2475530" lon="6.3024240">
        <ele>1198.8</ele>
        <time>2021-08-19T13:16:40Z</time>
      </trkpt>
      <trkpt lat="45.2475400" lon="6.3024520">
        <ele>1199.0</ele>
        <time>2021-08-19T13:16:41Z</time>
      </trkpt>
      <trkpt lat="45.2475260" lon="6.3024800">
        <ele>1199.2</ele>
        <time>2021-08-19T13:16:42Z</time>
      </trkpt>
      <trkpt lat="45.2474910" lon="6.3025300">
        <ele>1199.6</ele>
        <time>2021-08-19T13:16:44Z</time>
      </trkpt>
      <trkpt lat="45.2474240" lon="6.3026660">
        <ele>1200.4</ele>
        <time>2021-08-19T13:16:49Z</time>
      </trkpt>
      <trkpt lat="45.2473890" lon="6.3027600">
        <ele>1201.0</ele>
        <time>2021-08-19T13:16:52Z</time>
      </trkpt>
      <trkpt lat="45.2473620" lon="6.3028210">
        <ele>1201.4</ele>
        <time>2021-08-19T13:16:54Z</time>
      </trkpt>
      <trkpt lat="45.2473210" lon="6.3029230">
        <ele>1202.4</ele>
        <time>2021-08-19T13:16:57Z</time>
      </trkpt>
      <trkpt lat="45.2472650" lon="6.3030630">
        <ele>1203.0</ele>
        <time>2021-08-19T13:17:01Z</time>
      </trkpt>
      <trkpt lat="45.2471830" lon="6.3032460">
        <ele>1203.6</ele>
        <time>2021-08-19T13:17:07Z</time>
      </trkpt>
      <trkpt lat="45.2471690" lon="6.3032780">
        <ele>1203.6</ele>
        <time>2021-08-19T13:17:08Z</time>
      </trkpt>
      <trkpt lat="45.2471560" lon="6.3033070">
        <ele>1203.6</ele>
        <time>2021-08-19T13:17:09Z</time>
      </trkpt>
      <trkpt lat="45.2471270" lon="6.3033610">
        <ele>1204.0</ele>
        <time>2021-08-19T13:17:11Z</time>
      </trkpt>
      <trkpt lat="45.2470980" lon="6.3034130">
        <ele>1205.2</ele>
        <time>2021-08-19T13:17:13Z</time>
      </trkpt>
      <trkpt lat="45.2470440" lon="6.3035310">
        <ele>1205.6</ele>
        <time>2021-08-19T13:17:17Z</time>
      </trkpt>
      <trkpt lat="45.2470280" lon="6.3035590">
        <ele>1206.0</ele>
        <time>2021-08-19T13:17:18Z</time>
      </trkpt>
      <trkpt lat="45.2469440" lon="6.3036280">
        <ele>1207.0</ele>
        <time>2021-08-19T13:17:22Z</time>
      </trkpt>
      <trkpt lat="45.2469170" lon="6.3036320">
        <ele>1207.6</ele>
        <time>2021-08-19T13:17:23Z</time>
      </trkpt>
      <trkpt lat="45.2468920" lon="6.3036310">
        <ele>1207.6</ele>
        <time>2021-08-19T13:17:24Z</time>
      </trkpt>
      <trkpt lat="45.2468250" lon="6.3036050">
        <ele>1208.0</ele>
        <time>2021-08-19T13:17:27Z</time>
      </trkpt>
      <trkpt lat="45.2467820" lon="6.3035760">
        <ele>1208.2</ele>
        <time>2021-08-19T13:17:29Z</time>
      </trkpt>
      <trkpt lat="45.2467240" lon="6.3035210">
        <ele>1209.0</ele>
        <time>2021-08-19T13:17:32Z</time>
      </trkpt>
      <trkpt lat="45.2466260" lon="6.3034000">
        <ele>1210.0</ele>
        <time>2021-08-19T13:17:37Z</time>
      </trkpt>
      <trkpt lat="45.2466110" lon="6.3033750">
        <ele>1210.2</ele>
        <time>2021-08-19T13:17:38Z</time>
      </trkpt>
      <trkpt lat="45.2465030" lon="6.3032050">
        <ele>1210.6</ele>
        <time>2021-08-19T13:17:45Z</time>
      </trkpt>
      <trkpt lat="45.2464640" lon="6.3031170">
        <ele>1211.2</ele>
        <time>2021-08-19T13:17:48Z</time>
      </trkpt>
      <trkpt lat="45.2464080" lon="6.3029370">
        <ele>1211.6</ele>
        <time>2021-08-19T13:17:54Z</time>
      </trkpt>
      <trkpt lat="45.2463970" lon="6.3029130">
        <ele>1212.0</ele>
        <time>2021-08-19T13:17:55Z</time>
      </trkpt>
      <trkpt lat="45.2463880" lon="6.3028870">
        <ele>1212.2</ele>
        <time>2021-08-19T13:17:56Z</time>
      </trkpt>
      <trkpt lat="45.2463550" lon="6.3027350">
        <ele>1213.6</ele>
        <time>2021-08-19T13:18:01Z</time>
      </trkpt>
      <trkpt lat="45.2463530" lon="6.3027010">
        <ele>1214.0</ele>
        <time>2021-08-19T13:18:02Z</time>
      </trkpt>
      <trkpt lat="45.2463390" lon="6.3025320">
        <ele>1214.6</ele>
        <time>2021-08-19T13:18:07Z</time>
      </trkpt>
      <trkpt lat="45.2463300" lon="6.3024330">
        <ele>1215.4</ele>
        <time>2021-08-19T13:18:10Z</time>
      </trkpt>
      <trkpt lat="45.2463350" lon="6.3023090">
        <ele>1215.6</ele>
        <time>2021-08-19T13:18:14Z</time>
      </trkpt>
      <trkpt lat="45.2463360" lon="6.3022780">
        <ele>1215.8</ele>
        <time>2021-08-19T13:18:15Z</time>
      </trkpt>
      <trkpt lat="45.2463260" lon="6.3022220">
        <ele>1216.2</ele>
        <time>2021-08-19T13:18:17Z</time>
      </trkpt>
      <trkpt lat="45.2463180" lon="6.3021820">
        <ele>1216.6</ele>
        <time>2021-08-19T13:18:19Z</time>
      </trkpt>
      <trkpt lat="45.2463210" lon="6.3021550">
        <ele>1216.8</ele>
        <time>2021-08-19T13:18:20Z</time>
      </trkpt>
      <trkpt lat="45.2463220" lon="6.3021210">
        <ele>1216.8</ele>
        <time>2021-08-19T13:18:21Z</time>
      </trkpt>
      <trkpt lat="45.2463380" lon="6.3019360">
        <ele>1217.2</ele>
        <time>2021-08-19T13:18:25Z</time>
      </trkpt>
      <trkpt lat="45.2463570" lon="6.3018680">
        <ele>1217.4</ele>
        <time>2021-08-19T13:18:27Z</time>
      </trkpt>
      <trkpt lat="45.2463830" lon="6.3018070">
        <ele>1217.6</ele>
        <time>2021-08-19T13:18:29Z</time>
      </trkpt>
      <trkpt lat="45.2464740" lon="6.3016590">
        <ele>1217.4</ele>
        <time>2021-08-19T13:18:35Z</time>
      </trkpt>
      <trkpt lat="45.2465540" lon="6.3015620">
        <ele>1217.2</ele>
        <time>2021-08-19T13:18:39Z</time>
      </trkpt>
      <trkpt lat="45.2466160" lon="6.3014760">
        <ele>1217.4</ele>
        <time>2021-08-19T13:18:42Z</time>
      </trkpt>
      <trkpt lat="45.2466530" lon="6.3014120">
        <ele>1217.6</ele>
        <time>2021-08-19T13:18:44Z</time>
      </trkpt>
      <trkpt lat="45.2466710" lon="6.3013810">
        <ele>1217.6</ele>
        <time>2021-08-19T13:18:45Z</time>
      </trkpt>
      <trkpt lat="45.2467160" lon="6.3013180">
        <ele>1217.8</ele>
        <time>2021-08-19T13:18:47Z</time>
      </trkpt>
      <trkpt lat="45.2467380" lon="6.3012860">
        <ele>1217.8</ele>
        <time>2021-08-19T13:18:48Z</time>
      </trkpt>
      <trkpt lat="45.2468110" lon="6.3012090">
        <ele>1218.4</ele>
        <time>2021-08-19T13:18:51Z</time>
      </trkpt>
      <trkpt lat="45.2468360" lon="6.3011840">
        <ele>1218.6</ele>
        <time>2021-08-19T13:18:52Z</time>
      </trkpt>
      <trkpt lat="45.2468780" lon="6.3011300">
        <ele>1218.8</ele>
        <time>2021-08-19T13:18:54Z</time>
      </trkpt>
      <trkpt lat="45.2468990" lon="6.3011020">
        <ele>1218.8</ele>
        <time>2021-08-19T13:18:55Z</time>
      </trkpt>
      <trkpt lat="45.2469150" lon="6.3010760">
        <ele>1218.8</ele>
        <time>2021-08-19T13:18:56Z</time>
      </trkpt>
      <trkpt lat="45.2469280" lon="6.3010470">
        <ele>1219.0</ele>
        <time>2021-08-19T13:18:57Z</time>
      </trkpt>
      <trkpt lat="45.2469310" lon="6.3010160">
        <ele>1219.0</ele>
        <time>2021-08-19T13:18:58Z</time>
      </trkpt>
      <trkpt lat="45.2469240" lon="6.3009870">
        <ele>1219.2</ele>
        <time>2021-08-19T13:18:59Z</time>
      </trkpt>
      <trkpt lat="45.2469160" lon="6.3009690">
        <ele>1219.2</ele>
        <time>2021-08-19T13:19:00Z</time>
      </trkpt>
      <trkpt lat="45.2469110" lon="6.3009640">
        <ele>1219.2</ele>
        <time>2021-08-19T13:19:01Z</time>
      </trkpt>
      <trkpt lat="45.2469110" lon="6.3009640">
        <ele>1219.4</ele>
        <time>2021-08-19T13:19:02Z</time>
      </trkpt>
      <trkpt lat="45.2469290" lon="6.3009710">
        <ele>1219.6</ele>
        <time>2021-08-19T13:21:44Z</time>
      </trkpt>
      <trkpt lat="45.2469570" lon="6.3009740">
        <ele>1219.6</ele>
        <time>2021-08-19T13:21:45Z</time>
      </trkpt>
      <trkpt lat="45.2470410" lon="6.3009700">
        <ele>1219.6</ele>
        <time>2021-08-19T13:21:48Z</time>
      </trkpt>
      <trkpt lat="45.2471030" lon="6.3009630">
        <ele>1219.6</ele>
        <time>2021-08-19T13:21:50Z</time>
      </trkpt>
      <trkpt lat="45.2471670" lon="6.3009370">
        <ele>1219.6</ele>
        <time>2021-08-19T13:21:52Z</time>
      </trkpt>
      <trkpt lat="45.2472160" lon="6.3009120">
        <ele>1219.8</ele>
        <time>2021-08-19T13:21:54Z</time>
      </trkpt>
      <trkpt lat="45.2473170" lon="6.3008710">
        <ele>1220.4</ele>
        <time>2021-08-19T13:21:58Z</time>
      </trkpt>
      <trkpt lat="45.2473690" lon="6.3008580">
        <ele>1220.8</ele>
        <time>2021-08-19T13:22:00Z</time>
      </trkpt>
      <trkpt lat="45.2474690" lon="6.3008340">
        <ele>1221.2</ele>
        <time>2021-08-19T13:22:05Z</time>
      </trkpt>
      <trkpt lat="45.2474880" lon="6.3008320">
        <ele>1221.2</ele>
        <time>2021-08-19T13:22:06Z</time>
      </trkpt>
      <trkpt lat="45.2475140" lon="6.3008330">
        <ele>1221.4</ele>
        <time>2021-08-19T13:22:07Z</time>
      </trkpt>
      <trkpt lat="45.2475360" lon="6.3008290">
        <ele>1221.8</ele>
        <time>2021-08-19T13:22:08Z</time>
      </trkpt>
      <trkpt lat="45.2475530" lon="6.3008310">
        <ele>1222.0</ele>
        <time>2021-08-19T13:22:09Z</time>
      </trkpt>
      <trkpt lat="45.2476120" lon="6.3008270">
        <ele>1222.6</ele>
        <time>2021-08-19T13:22:12Z</time>
      </trkpt>
      <trkpt lat="45.2476340" lon="6.3008240">
        <ele>1222.8</ele>
        <time>2021-08-19T13:22:13Z</time>
      </trkpt>
      <trkpt lat="45.2477000" lon="6.3008020">
        <ele>1223.8</ele>
        <time>2021-08-19T13:22:16Z</time>
      </trkpt>
      <trkpt lat="45.2477190" lon="6.3007910">
        <ele>1224.2</ele>
        <time>2021-08-19T13:22:17Z</time>
      </trkpt>
      <trkpt lat="45.2478260" lon="6.3007470">
        <ele>1225.4</ele>
        <time>2021-08-19T13:22:23Z</time>
      </trkpt>
      <trkpt lat="45.2478480" lon="6.3007380">
        <ele>1225.8</ele>
        <time>2021-08-19T13:22:24Z</time>
      </trkpt>
      <trkpt lat="45.2479260" lon="6.3006790">
        <ele>1226.6</ele>
        <time>2021-08-19T13:22:28Z</time>
      </trkpt>
      <trkpt lat="45.2480160" lon="6.3006030">
        <ele>1227.6</ele>
        <time>2021-08-19T13:22:33Z</time>
      </trkpt>
      <trkpt lat="45.2481090" lon="6.3005370">
        <ele>1228.6</ele>
        <time>2021-08-19T13:22:38Z</time>
      </trkpt>
      <trkpt lat="45.2482240" lon="6.3004600">
        <ele>1229.8</ele>
        <time>2021-08-19T13:22:44Z</time>
      </trkpt>
      <trkpt lat="45.2483470" lon="6.3003720">
        <ele>1230.8</ele>
        <time>2021-08-19T13:22:51Z</time>
      </trkpt>
      <trkpt lat="45.2484800" lon="6.3003070">
        <ele>1231.8</ele>
        <time>2021-08-19T13:22:58Z</time>
      </trkpt>
      <trkpt lat="45.2484980" lon="6.3002970">
        <ele>1232.2</ele>
        <time>2021-08-19T13:22:59Z</time>
      </trkpt>
      <trkpt lat="45.2486030" lon="6.3002480">
        <ele>1232.8</ele>
        <time>2021-08-19T13:23:04Z</time>
      </trkpt>
      <trkpt lat="45.2486930" lon="6.3002100">
        <ele>1233.8</ele>
        <time>2021-08-19T13:23:08Z</time>
      </trkpt>
      <trkpt lat="45.2487140" lon="6.3001960">
        <ele>1234.0</ele>
        <time>2021-08-19T13:23:09Z</time>
      </trkpt>
      <trkpt lat="45.2488200" lon="6.3001500">
        <ele>1234.8</ele>
        <time>2021-08-19T13:23:14Z</time>
      </trkpt>
      <trkpt lat="45.2489290" lon="6.3001360">
        <ele>1236.0</ele>
        <time>2021-08-19T13:23:19Z</time>
      </trkpt>
      <trkpt lat="45.2490690" lon="6.3001370">
        <ele>1237.2</ele>
        <time>2021-08-19T13:23:26Z</time>
      </trkpt>
      <trkpt lat="45.2491110" lon="6.3001320">
        <ele>1237.4</ele>
        <time>2021-08-19T13:23:28Z</time>
      </trkpt>
      <trkpt lat="45.2491920" lon="6.3001220">
        <ele>1237.6</ele>
        <time>2021-08-19T13:23:32Z</time>
      </trkpt>
      <trkpt lat="45.2492610" lon="6.3000980">
        <ele>1238.2</ele>
        <time>2021-08-19T13:23:35Z</time>
      </trkpt>
      <trkpt lat="45.2492750" lon="6.3000920">
        <ele>1238.6</ele>
        <time>2021-08-19T13:23:36Z</time>
      </trkpt>
      <trkpt lat="45.2493730" lon="6.3000740">
        <ele>1239.4</ele>
        <time>2021-08-19T13:23:41Z</time>
      </trkpt>
      <trkpt lat="45.2494300" lon="6.3000660">
        <ele>1239.8</ele>
        <time>2021-08-19T13:23:44Z</time>
      </trkpt>
      <trkpt lat="45.2495090" lon="6.3000460">
        <ele>1240.6</ele>
        <time>2021-08-19T13:23:48Z</time>
      </trkpt>
      <trkpt lat="45.2495740" lon="6.2999950">
        <ele>1240.8</ele>
        <time>2021-08-19T13:23:52Z</time>
      </trkpt>
      <trkpt lat="45.2496040" lon="6.2998810">
        <ele>1241.2</ele>
        <time>2021-08-19T13:23:56Z</time>
      </trkpt>
      <trkpt lat="45.2496010" lon="6.2998430">
        <ele>1241.6</ele>
        <time>2021-08-19T13:23:57Z</time>
      </trkpt>
      <trkpt lat="45.2495210" lon="6.2996910">
        <ele>1242.4</ele>
        <time>2021-08-19T13:24:03Z</time>
      </trkpt>
      <trkpt lat="45.2494870" lon="6.2996620">
        <ele>1242.6</ele>
        <time>2021-08-19T13:24:05Z</time>
      </trkpt>
      <trkpt lat="45.2493550" lon="6.2995540">
        <ele>1243.6</ele>
        <time>2021-08-19T13:24:12Z</time>
      </trkpt>
      <trkpt lat="45.2493360" lon="6.2995400">
        <ele>1244.0</ele>
        <time>2021-08-19T13:24:13Z</time>
      </trkpt>
      <trkpt lat="45.2492350" lon="6.2994500">
        <ele>1244.8</ele>
        <time>2021-08-19T13:24:19Z</time>
      </trkpt>
      <trkpt lat="45.2491650" lon="6.2993930">
        <ele>1245.6</ele>
        <time>2021-08-19T13:24:23Z</time>
      </trkpt>
      <trkpt lat="45.2491490" lon="6.2993780">
        <ele>1245.8</ele>
        <time>2021-08-19T13:24:24Z</time>
      </trkpt>
      <trkpt lat="45.2490560" lon="6.2993130">
        <ele>1247.0</ele>
        <time>2021-08-19T13:24:29Z</time>
      </trkpt>
      <trkpt lat="45.2489800" lon="6.2992790">
        <ele>1247.6</ele>
        <time>2021-08-19T13:24:33Z</time>
      </trkpt>
      <trkpt lat="45.2488930" lon="6.2992390">
        <ele>1248.2</ele>
        <time>2021-08-19T13:24:37Z</time>
      </trkpt>
      <trkpt lat="45.2487920" lon="6.2992030">
        <ele>1249.0</ele>
        <time>2021-08-19T13:24:42Z</time>
      </trkpt>
      <trkpt lat="45.2487700" lon="6.2991970">
        <ele>1249.2</ele>
        <time>2021-08-19T13:24:43Z</time>
      </trkpt>
      <trkpt lat="45.2486190" lon="6.2991810">
        <ele>1250.2</ele>
        <time>2021-08-19T13:24:50Z</time>
      </trkpt>
      <trkpt lat="45.2486020" lon="6.2991790">
        <ele>1250.2</ele>
        <time>2021-08-19T13:24:51Z</time>
      </trkpt>
      <trkpt lat="45.2484950" lon="6.2991720">
        <ele>1251.2</ele>
        <time>2021-08-19T13:24:56Z</time>
      </trkpt>
      <trkpt lat="45.2484060" lon="6.2991820">
        <ele>1251.8</ele>
        <time>2021-08-19T13:25:00Z</time>
      </trkpt>
      <trkpt lat="45.2483620" lon="6.2991890">
        <ele>1252.4</ele>
        <time>2021-08-19T13:25:02Z</time>
      </trkpt>
      <trkpt lat="45.2482780" lon="6.2991960">
        <ele>1253.6</ele>
        <time>2021-08-19T13:25:06Z</time>
      </trkpt>
      <trkpt lat="45.2481740" lon="6.2992250">
        <ele>1254.6</ele>
        <time>2021-08-19T13:25:11Z</time>
      </trkpt>
      <trkpt lat="45.2481510" lon="6.2992330">
        <ele>1254.6</ele>
        <time>2021-08-19T13:25:12Z</time>
      </trkpt>
      <trkpt lat="45.2480240" lon="6.2992830">
        <ele>1255.6</ele>
        <time>2021-08-19T13:25:18Z</time>
      </trkpt>
      <trkpt lat="45.2479780" lon="6.2993040">
        <ele>1256.4</ele>
        <time>2021-08-19T13:25:20Z</time>
      </trkpt>
      <trkpt lat="45.2479360" lon="6.2993370">
        <ele>1256.8</ele>
        <time>2021-08-19T13:25:22Z</time>
      </trkpt>
      <trkpt lat="45.2478440" lon="6.2994350">
        <ele>1257.6</ele>
        <time>2021-08-19T13:25:27Z</time>
      </trkpt>
      <trkpt lat="45.2478280" lon="6.2994600">
        <ele>1257.6</ele>
        <time>2021-08-19T13:25:28Z</time>
      </trkpt>
      <trkpt lat="45.2478140" lon="6.2994870">
        <ele>1257.8</ele>
        <time>2021-08-19T13:25:29Z</time>
      </trkpt>
      <trkpt lat="45.2477410" lon="6.2996200">
        <ele>1258.6</ele>
        <time>2021-08-19T13:25:34Z</time>
      </trkpt>
      <trkpt lat="45.2477240" lon="6.2996450">
        <ele>1258.6</ele>
        <time>2021-08-19T13:25:35Z</time>
      </trkpt>
      <trkpt lat="45.2476610" lon="6.2996940">
        <ele>1258.8</ele>
        <time>2021-08-19T13:25:38Z</time>
      </trkpt>
      <trkpt lat="45.2476170" lon="6.2997040">
        <ele>1259.2</ele>
        <time>2021-08-19T13:25:40Z</time>
      </trkpt>
      <trkpt lat="45.2475950" lon="6.2996970">
        <ele>1259.4</ele>
        <time>2021-08-19T13:25:41Z</time>
      </trkpt>
      <trkpt lat="45.2475530" lon="6.2996100">
        <ele>1259.8</ele>
        <time>2021-08-19T13:25:44Z</time>
      </trkpt>
      <trkpt lat="45.2475510" lon="6.2995740">
        <ele>1260.0</ele>
        <time>2021-08-19T13:25:45Z</time>
      </trkpt>
      <trkpt lat="45.2475860" lon="6.2994470">
        <ele>1260.2</ele>
        <time>2021-08-19T13:25:49Z</time>
      </trkpt>
      <trkpt lat="45.2476240" lon="6.2993970">
        <ele>1260.4</ele>
        <time>2021-08-19T13:25:51Z</time>
      </trkpt>
      <trkpt lat="45.2476650" lon="6.2993600">
        <ele>1260.6</ele>
        <time>2021-08-19T13:25:53Z</time>
      </trkpt>
      <trkpt lat="45.2476850" lon="6.2993430">
        <ele>1260.8</ele>
        <time>2021-08-19T13:25:54Z</time>
      </trkpt>
      <trkpt lat="45.2477230" lon="6.2993040">
        <ele>1261.4</ele>
        <time>2021-08-19T13:25:56Z</time>
      </trkpt>
      <trkpt lat="45.2477400" lon="6.2992820">
        <ele>1261.4</ele>
        <time>2021-08-19T13:25:57Z</time>
      </trkpt>
      <trkpt lat="45.2477550" lon="6.2992630">
        <ele>1261.6</ele>
        <time>2021-08-19T13:25:58Z</time>
      </trkpt>
      <trkpt lat="45.2478380" lon="6.2991100">
        <ele>1262.4</ele>
        <time>2021-08-19T13:26:04Z</time>
      </trkpt>
      <trkpt lat="45.2478590" lon="6.2990520">
        <ele>1262.6</ele>
        <time>2021-08-19T13:26:06Z</time>
      </trkpt>
      <trkpt lat="45.2478690" lon="6.2990250">
        <ele>1262.8</ele>
        <time>2021-08-19T13:26:07Z</time>
      </trkpt>
      <trkpt lat="45.2479270" lon="6.2989160">
        <ele>1263.6</ele>
        <time>2021-08-19T13:26:11Z</time>
      </trkpt>
      <trkpt lat="45.2479600" lon="6.2988750">
        <ele>1263.8</ele>
        <time>2021-08-19T13:26:13Z</time>
      </trkpt>
      <trkpt lat="45.2480780" lon="6.2988110">
        <ele>1264.8</ele>
        <time>2021-08-19T13:26:19Z</time>
      </trkpt>
      <trkpt lat="45.2481710" lon="6.2988050">
        <ele>1265.8</ele>
        <time>2021-08-19T13:26:23Z</time>
      </trkpt>
      <trkpt lat="45.2482760" lon="6.2987910">
        <ele>1266.6</ele>
        <time>2021-08-19T13:26:28Z</time>
      </trkpt>
      <trkpt lat="45.2482960" lon="6.2987870">
        <ele>1267.0</ele>
        <time>2021-08-19T13:26:29Z</time>
      </trkpt>
      <trkpt lat="45.2483540" lon="6.2987720">
        <ele>1267.6</ele>
        <time>2021-08-19T13:26:32Z</time>
      </trkpt>
      <trkpt lat="45.2483930" lon="6.2987600">
        <ele>1268.0</ele>
        <time>2021-08-19T13:26:34Z</time>
      </trkpt>
      <trkpt lat="45.2484320" lon="6.2987440">
        <ele>1268.4</ele>
        <time>2021-08-19T13:26:36Z</time>
      </trkpt>
      <trkpt lat="45.2484500" lon="6.2987380">
        <ele>1268.6</ele>
        <time>2021-08-19T13:26:37Z</time>
      </trkpt>
      <trkpt lat="45.2484650" lon="6.2987360">
        <ele>1268.8</ele>
        <time>2021-08-19T13:26:38Z</time>
      </trkpt>
      <trkpt lat="45.2484830" lon="6.2987330">
        <ele>1269.0</ele>
        <time>2021-08-19T13:26:39Z</time>
      </trkpt>
      <trkpt lat="45.2485030" lon="6.2987290">
        <ele>1269.4</ele>
        <time>2021-08-19T13:26:40Z</time>
      </trkpt>
      <trkpt lat="45.2485210" lon="6.2987280">
        <ele>1269.6</ele>
        <time>2021-08-19T13:26:41Z</time>
      </trkpt>
      <trkpt lat="45.2485380" lon="6.2987230">
        <ele>1269.8</ele>
        <time>2021-08-19T13:26:42Z</time>
      </trkpt>
      <trkpt lat="45.2485520" lon="6.2987180">
        <ele>1269.8</ele>
        <time>2021-08-19T13:26:43Z</time>
      </trkpt>
      <trkpt lat="45.2485930" lon="6.2987110">
        <ele>1270.2</ele>
        <time>2021-08-19T13:26:45Z</time>
      </trkpt>
      <trkpt lat="45.2486250" lon="6.2986970">
        <ele>1270.6</ele>
        <time>2021-08-19T13:26:47Z</time>
      </trkpt>
      <trkpt lat="45.2487240" lon="6.2986660">
        <ele>1271.2</ele>
        <time>2021-08-19T13:26:52Z</time>
      </trkpt>
      <trkpt lat="45.2488050" lon="6.2986480">
        <ele>1272.0</ele>
        <time>2021-08-19T13:26:56Z</time>
      </trkpt>
      <trkpt lat="45.2488720" lon="6.2986270">
        <ele>1272.4</ele>
        <time>2021-08-19T13:26:59Z</time>
      </trkpt>
      <trkpt lat="45.2489280" lon="6.2986070">
        <ele>1272.8</ele>
        <time>2021-08-19T13:27:02Z</time>
      </trkpt>
      <trkpt lat="45.2489920" lon="6.2985890">
        <ele>1273.4</ele>
        <time>2021-08-19T13:27:05Z</time>
      </trkpt>
      <trkpt lat="45.2490090" lon="6.2985840">
        <ele>1273.6</ele>
        <time>2021-08-19T13:27:06Z</time>
      </trkpt>
      <trkpt lat="45.2490910" lon="6.2985630">
        <ele>1274.4</ele>
        <time>2021-08-19T13:27:10Z</time>
      </trkpt>
      <trkpt lat="45.2491340" lon="6.2985500">
        <ele>1274.6</ele>
        <time>2021-08-19T13:27:12Z</time>
      </trkpt>
      <trkpt lat="45.2491500" lon="6.2985450">
        <ele>1274.8</ele>
        <time>2021-08-19T13:27:13Z</time>
      </trkpt>
      <trkpt lat="45.2491910" lon="6.2985300">
        <ele>1275.0</ele>
        <time>2021-08-19T13:27:15Z</time>
      </trkpt>
      <trkpt lat="45.2492700" lon="6.2984990">
        <ele>1275.8</ele>
        <time>2021-08-19T13:27:19Z</time>
      </trkpt>
      <trkpt lat="45.2493690" lon="6.2984680">
        <ele>1277.0</ele>
        <time>2021-08-19T13:27:24Z</time>
      </trkpt>
      <trkpt lat="45.2494960" lon="6.2984270">
        <ele>1278.2</ele>
        <time>2021-08-19T13:27:31Z</time>
      </trkpt>
      <trkpt lat="45.2495510" lon="6.2984060">
        <ele>1278.8</ele>
        <time>2021-08-19T13:27:34Z</time>
      </trkpt>
      <trkpt lat="45.2495900" lon="6.2983920">
        <ele>1279.4</ele>
        <time>2021-08-19T13:27:36Z</time>
      </trkpt>
      <trkpt lat="45.2497250" lon="6.2983300">
        <ele>1280.2</ele>
        <time>2021-08-19T13:27:43Z</time>
      </trkpt>
      <trkpt lat="45.2497430" lon="6.2983220">
        <ele>1280.4</ele>
        <time>2021-08-19T13:27:44Z</time>
      </trkpt>
      <trkpt lat="45.2498480" lon="6.2982610">
        <ele>1281.4</ele>
        <time>2021-08-19T13:27:50Z</time>
      </trkpt>
      <trkpt lat="45.2498660" lon="6.2982540">
        <ele>1281.4</ele>
        <time>2021-08-19T13:27:51Z</time>
      </trkpt>
      <trkpt lat="45.2499020" lon="6.2982420">
        <ele>1281.8</ele>
        <time>2021-08-19T13:27:53Z</time>
      </trkpt>
      <trkpt lat="45.2499600" lon="6.2982190">
        <ele>1282.2</ele>
        <time>2021-08-19T13:27:56Z</time>
      </trkpt>
      <trkpt lat="45.2499780" lon="6.2982100">
        <ele>1282.6</ele>
        <time>2021-08-19T13:27:57Z</time>
      </trkpt>
      <trkpt lat="45.2500300" lon="6.2981850">
        <ele>1283.2</ele>
        <time>2021-08-19T13:28:00Z</time>
      </trkpt>
      <trkpt lat="45.2500750" lon="6.2981500">
        <ele>1283.6</ele>
        <time>2021-08-19T13:28:03Z</time>
      </trkpt>
      <trkpt lat="45.2501220" lon="6.2981060">
        <ele>1284.8</ele>
        <time>2021-08-19T13:28:06Z</time>
      </trkpt>
      <trkpt lat="45.2501420" lon="6.2980920">
        <ele>1285.0</ele>
        <time>2021-08-19T13:28:07Z</time>
      </trkpt>
      <trkpt lat="45.2502340" lon="6.2980170">
        <ele>1285.8</ele>
        <time>2021-08-19T13:28:13Z</time>
      </trkpt>
      <trkpt lat="45.2502650" lon="6.2979810">
        <ele>1286.0</ele>
        <time>2021-08-19T13:28:15Z</time>
      </trkpt>
      <trkpt lat="45.2503490" lon="6.2978630">
        <ele>1287.0</ele>
        <time>2021-08-19T13:28:20Z</time>
      </trkpt>
      <trkpt lat="45.2504420" lon="6.2977350">
        <ele>1287.4</ele>
        <time>2021-08-19T13:28:25Z</time>
      </trkpt>
      <trkpt lat="45.2504590" lon="6.2977080">
        <ele>1287.8</ele>
        <time>2021-08-19T13:28:26Z</time>
      </trkpt>
      <trkpt lat="45.2504760" lon="6.2976780">
        <ele>1288.0</ele>
        <time>2021-08-19T13:28:27Z</time>
      </trkpt>
      <trkpt lat="45.2505890" lon="6.2974800">
        <ele>1289.0</ele>
        <time>2021-08-19T13:28:34Z</time>
      </trkpt>
      <trkpt lat="45.2506220" lon="6.2974280">
        <ele>1289.4</ele>
        <time>2021-08-19T13:28:36Z</time>
      </trkpt>
      <trkpt lat="45.2506770" lon="6.2973470">
        <ele>1289.6</ele>
        <time>2021-08-19T13:28:39Z</time>
      </trkpt>
      <trkpt lat="45.2507230" lon="6.2972880">
        <ele>1290.2</ele>
        <time>2021-08-19T13:28:42Z</time>
      </trkpt>
      <trkpt lat="45.2507510" lon="6.2972440">
        <ele>1290.4</ele>
        <time>2021-08-19T13:28:44Z</time>
      </trkpt>
      <trkpt lat="45.2507670" lon="6.2972150">
        <ele>1290.6</ele>
        <time>2021-08-19T13:28:45Z</time>
      </trkpt>
      <trkpt lat="45.2508070" lon="6.2971560">
        <ele>1291.2</ele>
        <time>2021-08-19T13:28:48Z</time>
      </trkpt>
      <trkpt lat="45.2508440" lon="6.2970920">
        <ele>1291.6</ele>
        <time>2021-08-19T13:28:51Z</time>
      </trkpt>
      <trkpt lat="45.2508570" lon="6.2970730">
        <ele>1291.8</ele>
        <time>2021-08-19T13:28:52Z</time>
      </trkpt>
      <trkpt lat="45.2508850" lon="6.2970380">
        <ele>1292.2</ele>
        <time>2021-08-19T13:28:54Z</time>
      </trkpt>
      <trkpt lat="45.2509160" lon="6.2970020">
        <ele>1292.8</ele>
        <time>2021-08-19T13:28:56Z</time>
      </trkpt>
      <trkpt lat="45.2509320" lon="6.2969900">
        <ele>1293.2</ele>
        <time>2021-08-19T13:28:57Z</time>
      </trkpt>
      <trkpt lat="45.2509500" lon="6.2969810">
        <ele>1293.4</ele>
        <time>2021-08-19T13:28:58Z</time>
      </trkpt>
      <trkpt lat="45.2509680" lon="6.2969690">
        <ele>1293.4</ele>
        <time>2021-08-19T13:28:59Z</time>
      </trkpt>
      <trkpt lat="45.2509850" lon="6.2969550">
        <ele>1293.6</ele>
        <time>2021-08-19T13:29:00Z</time>
      </trkpt>
      <trkpt lat="45.2510520" lon="6.2969050">
        <ele>1294.6</ele>
        <time>2021-08-19T13:29:04Z</time>
      </trkpt>
      <trkpt lat="45.2511400" lon="6.2968370">
        <ele>1295.6</ele>
        <time>2021-08-19T13:29:09Z</time>
      </trkpt>
      <trkpt lat="45.2511590" lon="6.2968250">
        <ele>1295.6</ele>
        <time>2021-08-19T13:29:10Z</time>
      </trkpt>
      <trkpt lat="45.2512690" lon="6.2967190">
        <ele>1296.6</ele>
        <time>2021-08-19T13:29:16Z</time>
      </trkpt>
      <trkpt lat="45.2513010" lon="6.2966750">
        <ele>1297.0</ele>
        <time>2021-08-19T13:29:18Z</time>
      </trkpt>
      <trkpt lat="45.2513930" lon="6.2965110">
        <ele>1297.8</ele>
        <time>2021-08-19T13:29:24Z</time>
      </trkpt>
      <trkpt lat="45.2514390" lon="6.2964040">
        <ele>1298.2</ele>
        <time>2021-08-19T13:29:27Z</time>
      </trkpt>
      <trkpt lat="45.2514910" lon="6.2962090">
        <ele>1298.8</ele>
        <time>2021-08-19T13:29:31Z</time>
      </trkpt>
      <trkpt lat="45.2515070" lon="6.2961570">
        <ele>1298.8</ele>
        <time>2021-08-19T13:29:32Z</time>
      </trkpt>
      <trkpt lat="45.2515880" lon="6.2958330">
        <ele>1299.6</ele>
        <time>2021-08-19T13:29:38Z</time>
      </trkpt>
      <trkpt lat="45.2515870" lon="6.2956840">
        <ele>1300.0</ele>
        <time>2021-08-19T13:29:41Z</time>
      </trkpt>
      <trkpt lat="45.2515770" lon="6.2956320">
        <ele>1300.0</ele>
        <time>2021-08-19T13:29:42Z</time>
      </trkpt>
      <trkpt lat="45.2515570" lon="6.2955770">
        <ele>1300.2</ele>
        <time>2021-08-19T13:29:43Z</time>
      </trkpt>
      <trkpt lat="45.2515090" lon="6.2955110">
        <ele>1300.4</ele>
        <time>2021-08-19T13:29:45Z</time>
      </trkpt>
      <trkpt lat="45.2514070" lon="6.2954360">
        <ele>1301.0</ele>
        <time>2021-08-19T13:29:48Z</time>
      </trkpt>
      <trkpt lat="45.2512650" lon="6.2953710">
        <ele>1301.2</ele>
        <time>2021-08-19T13:29:52Z</time>
      </trkpt>
      <trkpt lat="45.2511630" lon="6.2953340">
        <ele>1301.4</ele>
        <time>2021-08-19T13:29:55Z</time>
      </trkpt>
      <trkpt lat="45.2510640" lon="6.2953030">
        <ele>1301.8</ele>
        <time>2021-08-19T13:29:58Z</time>
      </trkpt>
      <trkpt lat="45.2508840" lon="6.2952410">
        <ele>1302.2</ele>
        <time>2021-08-19T13:30:03Z</time>
      </trkpt>
      <trkpt lat="45.2508480" lon="6.2952220">
        <ele>1302.4</ele>
        <time>2021-08-19T13:30:04Z</time>
      </trkpt>
      <trkpt lat="45.2507150" lon="6.2951290">
        <ele>1302.8</ele>
        <time>2021-08-19T13:30:08Z</time>
      </trkpt>
      <trkpt lat="45.2506560" lon="6.2950640">
        <ele>1303.2</ele>
        <time>2021-08-19T13:30:10Z</time>
      </trkpt>
      <trkpt lat="45.2505560" lon="6.2949220">
        <ele>1303.6</ele>
        <time>2021-08-19T13:30:14Z</time>
      </trkpt>
      <trkpt lat="45.2505340" lon="6.2948840">
        <ele>1303.6</ele>
        <time>2021-08-19T13:30:15Z</time>
      </trkpt>
      <trkpt lat="45.2505100" lon="6.2948470">
        <ele>1303.6</ele>
        <time>2021-08-19T13:30:16Z</time>
      </trkpt>
      <trkpt lat="45.2504850" lon="6.2948110">
        <ele>1304.0</ele>
        <time>2021-08-19T13:30:17Z</time>
      </trkpt>
      <trkpt lat="45.2504590" lon="6.2947750">
        <ele>1304.0</ele>
        <time>2021-08-19T13:30:18Z</time>
      </trkpt>
      <trkpt lat="45.2504370" lon="6.2947360">
        <ele>1304.2</ele>
        <time>2021-08-19T13:30:19Z</time>
      </trkpt>
      <trkpt lat="45.2504160" lon="6.2946980">
        <ele>1304.4</ele>
        <time>2021-08-19T13:30:20Z</time>
      </trkpt>
      <trkpt lat="45.2503520" lon="6.2945310">
        <ele>1304.6</ele>
        <time>2021-08-19T13:30:24Z</time>
      </trkpt>
      <trkpt lat="45.2503380" lon="6.2944770">
        <ele>1305.0</ele>
        <time>2021-08-19T13:30:25Z</time>
      </trkpt>
      <trkpt lat="45.2503320" lon="6.2944410">
        <ele>1305.0</ele>
        <time>2021-08-19T13:30:26Z</time>
      </trkpt>
      <trkpt lat="45.2503240" lon="6.2943940">
        <ele>1305.2</ele>
        <time>2021-08-19T13:30:27Z</time>
      </trkpt>
      <trkpt lat="45.2503190" lon="6.2943460">
        <ele>1305.2</ele>
        <time>2021-08-19T13:30:28Z</time>
      </trkpt>
      <trkpt lat="45.2503180" lon="6.2942980">
        <ele>1305.4</ele>
        <time>2021-08-19T13:30:29Z</time>
      </trkpt>
      <trkpt lat="45.2503300" lon="6.2942020">
        <ele>1305.6</ele>
        <time>2021-08-19T13:30:31Z</time>
      </trkpt>
      <trkpt lat="45.2503350" lon="6.2941540">
        <ele>1305.8</ele>
        <time>2021-08-19T13:30:32Z</time>
      </trkpt>
      <trkpt lat="45.2503640" lon="6.2939190">
        <ele>1306.2</ele>
        <time>2021-08-19T13:30:37Z</time>
      </trkpt>
      <trkpt lat="45.2503790" lon="6.2938220">
        <ele>1306.8</ele>
        <time>2021-08-19T13:30:39Z</time>
      </trkpt>
      <trkpt lat="45.2503840" lon="6.2937810">
        <ele>1306.8</ele>
        <time>2021-08-19T13:30:40Z</time>
      </trkpt>
      <trkpt lat="45.2504060" lon="6.2935640">
        <ele>1308.0</ele>
        <time>2021-08-19T13:30:46Z</time>
      </trkpt>
      <trkpt lat="45.2504070" lon="6.2935320">
        <ele>1308.0</ele>
        <time>2021-08-19T13:30:47Z</time>
      </trkpt>
      <trkpt lat="45.2504090" lon="6.2933630">
        <ele>1308.6</ele>
        <time>2021-08-19T13:30:52Z</time>
      </trkpt>
      <trkpt lat="45.2504110" lon="6.2932950">
        <ele>1309.0</ele>
        <time>2021-08-19T13:30:54Z</time>
      </trkpt>
      <trkpt lat="45.2504080" lon="6.2931940">
        <ele>1309.6</ele>
        <time>2021-08-19T13:30:57Z</time>
      </trkpt>
      <trkpt lat="45.2503770" lon="6.2930750">
        <ele>1310.2</ele>
        <time>2021-08-19T13:31:01Z</time>
      </trkpt>
      <trkpt lat="45.2503580" lon="6.2930220">
        <ele>1310.6</ele>
        <time>2021-08-19T13:31:03Z</time>
      </trkpt>
      <trkpt lat="45.2503050" lon="6.2929070">
        <ele>1311.4</ele>
        <time>2021-08-19T13:31:07Z</time>
      </trkpt>
      <trkpt lat="45.2502900" lon="6.2928800">
        <ele>1311.4</ele>
        <time>2021-08-19T13:31:08Z</time>
      </trkpt>
      <trkpt lat="45.2502450" lon="6.2928160">
        <ele>1312.2</ele>
        <time>2021-08-19T13:31:11Z</time>
      </trkpt>
      <trkpt lat="45.2502260" lon="6.2927920">
        <ele>1312.4</ele>
        <time>2021-08-19T13:31:12Z</time>
      </trkpt>
      <trkpt lat="45.2501920" lon="6.2927490">
        <ele>1312.6</ele>
        <time>2021-08-19T13:31:14Z</time>
      </trkpt>
      <trkpt lat="45.2501250" lon="6.2926710">
        <ele>1313.4</ele>
        <time>2021-08-19T13:31:18Z</time>
      </trkpt>
      <trkpt lat="45.2500900" lon="6.2926330">
        <ele>1314.0</ele>
        <time>2021-08-19T13:31:20Z</time>
      </trkpt>
      <trkpt lat="45.2500730" lon="6.2926130">
        <ele>1314.2</ele>
        <time>2021-08-19T13:31:21Z</time>
      </trkpt>
      <trkpt lat="45.2500370" lon="6.2925710">
        <ele>1314.4</ele>
        <time>2021-08-19T13:31:23Z</time>
      </trkpt>
      <trkpt lat="45.2499700" lon="6.2924960">
        <ele>1315.0</ele>
        <time>2021-08-19T13:31:27Z</time>
      </trkpt>
      <trkpt lat="45.2499580" lon="6.2924680">
        <ele>1315.2</ele>
        <time>2021-08-19T13:31:28Z</time>
      </trkpt>
      <trkpt lat="45.2499220" lon="6.2923880">
        <ele>1315.8</ele>
        <time>2021-08-19T13:31:31Z</time>
      </trkpt>
      <trkpt lat="45.2499120" lon="6.2923610">
        <ele>1316.0</ele>
        <time>2021-08-19T13:31:32Z</time>
      </trkpt>
      <trkpt lat="45.2498820" lon="6.2922440">
        <ele>1316.4</ele>
        <time>2021-08-19T13:31:36Z</time>
      </trkpt>
      <trkpt lat="45.2498770" lon="6.2922140">
        <ele>1316.4</ele>
        <time>2021-08-19T13:31:37Z</time>
      </trkpt>
      <trkpt lat="45.2498690" lon="6.2921820">
        <ele>1316.8</ele>
        <time>2021-08-19T13:31:38Z</time>
      </trkpt>
      <trkpt lat="45.2498140" lon="6.2919610">
        <ele>1317.6</ele>
        <time>2021-08-19T13:31:45Z</time>
      </trkpt>
      <trkpt lat="45.2498050" lon="6.2919340">
        <ele>1317.8</ele>
        <time>2021-08-19T13:31:46Z</time>
      </trkpt>
      <trkpt lat="45.2497340" lon="6.2917310">
        <ele>1319.0</ele>
        <time>2021-08-19T13:31:53Z</time>
      </trkpt>
      <trkpt lat="45.2497120" lon="6.2916740">
        <ele>1319.4</ele>
        <time>2021-08-19T13:31:55Z</time>
      </trkpt>
      <trkpt lat="45.2496720" lon="6.2915500">
        <ele>1320.0</ele>
        <time>2021-08-19T13:31:59Z</time>
      </trkpt>
      <trkpt lat="45.2496650" lon="6.2914140">
        <ele>1320.2</ele>
        <time>2021-08-19T13:32:03Z</time>
      </trkpt>
      <trkpt lat="45.2497210" lon="6.2913370">
        <ele>1320.8</ele>
        <time>2021-08-19T13:32:07Z</time>
      </trkpt>
      <trkpt lat="45.2497400" lon="6.2913390">
        <ele>1321.2</ele>
        <time>2021-08-19T13:32:08Z</time>
      </trkpt>
      <trkpt lat="45.2498090" lon="6.2913710">
        <ele>1322.4</ele>
        <time>2021-08-19T13:32:12Z</time>
      </trkpt>
      <trkpt lat="45.2498260" lon="6.2913930">
        <ele>1322.6</ele>
        <time>2021-08-19T13:32:13Z</time>
      </trkpt>
      <trkpt lat="45.2499550" lon="6.2915110">
        <ele>1323.8</ele>
        <time>2021-08-19T13:32:20Z</time>
      </trkpt>
      <trkpt lat="45.2499730" lon="6.2915260">
        <ele>1323.8</ele>
        <time>2021-08-19T13:32:21Z</time>
      </trkpt>
      <trkpt lat="45.2500310" lon="6.2915700">
        <ele>1324.8</ele>
        <time>2021-08-19T13:32:24Z</time>
      </trkpt>
      <trkpt lat="45.2501490" lon="6.2916540">
        <ele>1325.6</ele>
        <time>2021-08-19T13:32:30Z</time>
      </trkpt>
      <trkpt lat="45.2501910" lon="6.2916690">
        <ele>1325.8</ele>
        <time>2021-08-19T13:32:32Z</time>
      </trkpt>
      <trkpt lat="45.2503160" lon="6.2917270">
        <ele>1327.0</ele>
        <time>2021-08-19T13:32:38Z</time>
      </trkpt>
      <trkpt lat="45.2503420" lon="6.2917350">
        <ele>1327.0</ele>
        <time>2021-08-19T13:32:39Z</time>
      </trkpt>
      <trkpt lat="45.2504400" lon="6.2917780">
        <ele>1328.0</ele>
        <time>2021-08-19T13:32:44Z</time>
      </trkpt>
      <trkpt lat="45.2505550" lon="6.2918280">
        <ele>1329.0</ele>
        <time>2021-08-19T13:32:50Z</time>
      </trkpt>
      <trkpt lat="45.2506730" lon="6.2918620">
        <ele>1330.0</ele>
        <time>2021-08-19T13:32:56Z</time>
      </trkpt>
      <trkpt lat="45.2507130" lon="6.2918740">
        <ele>1330.4</ele>
        <time>2021-08-19T13:32:58Z</time>
      </trkpt>
      <trkpt lat="45.2507920" lon="6.2919060">
        <ele>1331.0</ele>
        <time>2021-08-19T13:33:02Z</time>
      </trkpt>
      <trkpt lat="45.2508110" lon="6.2919140">
        <ele>1331.0</ele>
        <time>2021-08-19T13:33:03Z</time>
      </trkpt>
      <trkpt lat="45.2509330" lon="6.2919530">
        <ele>1331.8</ele>
        <time>2021-08-19T13:33:09Z</time>
      </trkpt>
      <trkpt lat="45.2509530" lon="6.2919610">
        <ele>1332.2</ele>
        <time>2021-08-19T13:33:10Z</time>
      </trkpt>
      <trkpt lat="45.2510290" lon="6.2919910">
        <ele>1333.0</ele>
        <time>2021-08-19T13:33:14Z</time>
      </trkpt>
      <trkpt lat="45.2510490" lon="6.2919970">
        <ele>1333.0</ele>
        <time>2021-08-19T13:33:15Z</time>
      </trkpt>
      <trkpt lat="45.2510700" lon="6.2920020">
        <ele>1333.2</ele>
        <time>2021-08-19T13:33:16Z</time>
      </trkpt>
      <trkpt lat="45.2511940" lon="6.2920390">
        <ele>1334.4</ele>
        <time>2021-08-19T13:33:22Z</time>
      </trkpt>
      <trkpt lat="45.2512140" lon="6.2920420">
        <ele>1334.6</ele>
        <time>2021-08-19T13:33:23Z</time>
      </trkpt>
      <trkpt lat="45.2512920" lon="6.2920690">
        <ele>1335.4</ele>
        <time>2021-08-19T13:33:27Z</time>
      </trkpt>
      <trkpt lat="45.2513750" lon="6.2921090">
        <ele>1336.0</ele>
        <time>2021-08-19T13:33:31Z</time>
      </trkpt>
      <trkpt lat="45.2514400" lon="6.2921440">
        <ele>1336.4</ele>
        <time>2021-08-19T13:33:34Z</time>
      </trkpt>
      <trkpt lat="45.2515510" lon="6.2921980">
        <ele>1336.8</ele>
        <time>2021-08-19T13:33:39Z</time>
      </trkpt>
      <trkpt lat="45.2516190" lon="6.2922700">
        <ele>1337.4</ele>
        <time>2021-08-19T13:33:43Z</time>
      </trkpt>
      <trkpt lat="45.2516730" lon="6.2923290">
        <ele>1338.4</ele>
        <time>2021-08-19T13:33:46Z</time>
      </trkpt>
      <trkpt lat="45.2516880" lon="6.2923510">
        <ele>1338.6</ele>
        <time>2021-08-19T13:33:47Z</time>
      </trkpt>
      <trkpt lat="45.2517160" lon="6.2923980">
        <ele>1339.0</ele>
        <time>2021-08-19T13:33:49Z</time>
      </trkpt>
      <trkpt lat="45.2517540" lon="6.2924730">
        <ele>1339.6</ele>
        <time>2021-08-19T13:33:52Z</time>
      </trkpt>
      <trkpt lat="45.2518230" lon="6.2926280">
        <ele>1340.8</ele>
        <time>2021-08-19T13:33:58Z</time>
      </trkpt>
      <trkpt lat="45.2518420" lon="6.2926780">
        <ele>1341.0</ele>
        <time>2021-08-19T13:34:00Z</time>
      </trkpt>
      <trkpt lat="45.2518670" lon="6.2927800">
        <ele>1342.0</ele>
        <time>2021-08-19T13:34:04Z</time>
      </trkpt>
      <trkpt lat="45.2518850" lon="6.2928230">
        <ele>1342.4</ele>
        <time>2021-08-19T13:34:06Z</time>
      </trkpt>
      <trkpt lat="45.2519510" lon="6.2929230">
        <ele>1343.2</ele>
        <time>2021-08-19T13:34:11Z</time>
      </trkpt>
      <trkpt lat="45.2519680" lon="6.2929340">
        <ele>1343.4</ele>
        <time>2021-08-19T13:34:12Z</time>
      </trkpt>
      <trkpt lat="45.2520440" lon="6.2929550">
        <ele>1344.6</ele>
        <time>2021-08-19T13:34:16Z</time>
      </trkpt>
      <trkpt lat="45.2520890" lon="6.2929460">
        <ele>1344.8</ele>
        <time>2021-08-19T13:34:18Z</time>
      </trkpt>
      <trkpt lat="45.2521710" lon="6.2928480">
        <ele>1345.2</ele>
        <time>2021-08-19T13:34:24Z</time>
      </trkpt>
      <trkpt lat="45.2521790" lon="6.2928210">
        <ele>1345.4</ele>
        <time>2021-08-19T13:34:25Z</time>
      </trkpt>
      <trkpt lat="45.2522010" lon="6.2927000">
        <ele>1346.0</ele>
        <time>2021-08-19T13:34:29Z</time>
      </trkpt>
      <trkpt lat="45.2521990" lon="6.2926320">
        <ele>1346.4</ele>
        <time>2021-08-19T13:34:31Z</time>
      </trkpt>
      <trkpt lat="45.2521760" lon="6.2924510">
        <ele>1347.6</ele>
        <time>2021-08-19T13:34:37Z</time>
      </trkpt>
      <trkpt lat="45.2521470" lon="6.2923410">
        <ele>1348.2</ele>
        <time>2021-08-19T13:34:41Z</time>
      </trkpt>
      <trkpt lat="45.2521100" lon="6.2922340">
        <ele>1348.6</ele>
        <time>2021-08-19T13:34:45Z</time>
      </trkpt>
      <trkpt lat="45.2520890" lon="6.2921840">
        <ele>1348.8</ele>
        <time>2021-08-19T13:34:47Z</time>
      </trkpt>
      <trkpt lat="45.2520660" lon="6.2921370">
        <ele>1349.4</ele>
        <time>2021-08-19T13:34:49Z</time>
      </trkpt>
      <trkpt lat="45.2520430" lon="6.2920880">
        <ele>1349.6</ele>
        <time>2021-08-19T13:34:51Z</time>
      </trkpt>
      <trkpt lat="45.2520310" lon="6.2920630">
        <ele>1349.8</ele>
        <time>2021-08-19T13:34:52Z</time>
      </trkpt>
      <trkpt lat="45.2520000" lon="6.2919880">
        <ele>1350.2</ele>
        <time>2021-08-19T13:34:55Z</time>
      </trkpt>
      <trkpt lat="45.2519550" lon="6.2918930">
        <ele>1350.6</ele>
        <time>2021-08-19T13:34:59Z</time>
      </trkpt>
      <trkpt lat="45.2519230" lon="6.2918220">
        <ele>1351.2</ele>
        <time>2021-08-19T13:35:02Z</time>
      </trkpt>
      <trkpt lat="45.2519050" lon="6.2917740">
        <ele>1351.8</ele>
        <time>2021-08-19T13:35:04Z</time>
      </trkpt>
      <trkpt lat="45.2518590" lon="6.2916410">
        <ele>1352.8</ele>
        <time>2021-08-19T13:35:09Z</time>
      </trkpt>
      <trkpt lat="45.2518520" lon="6.2916120">
        <ele>1352.8</ele>
        <time>2021-08-19T13:35:10Z</time>
      </trkpt>
      <trkpt lat="45.2518250" lon="6.2914320">
        <ele>1354.0</ele>
        <time>2021-08-19T13:35:16Z</time>
      </trkpt>
      <trkpt lat="45.2518190" lon="6.2914050">
        <ele>1354.2</ele>
        <time>2021-08-19T13:35:17Z</time>
      </trkpt>
      <trkpt lat="45.2518030" lon="6.2912600">
        <ele>1355.0</ele>
        <time>2021-08-19T13:35:22Z</time>
      </trkpt>
      <trkpt lat="45.2517920" lon="6.2911760">
        <ele>1355.6</ele>
        <time>2021-08-19T13:35:25Z</time>
      </trkpt>
      <trkpt lat="45.2517570" lon="6.2911040">
        <ele>1356.2</ele>
        <time>2021-08-19T13:35:28Z</time>
      </trkpt>
      <trkpt lat="45.2516930" lon="6.2909850">
        <ele>1357.4</ele>
        <time>2021-08-19T13:35:33Z</time>
      </trkpt>
      <trkpt lat="45.2516310" lon="6.2908380">
        <ele>1358.0</ele>
        <time>2021-08-19T13:35:39Z</time>
      </trkpt>
      <trkpt lat="45.2516260" lon="6.2908090">
        <ele>1358.2</ele>
        <time>2021-08-19T13:35:40Z</time>
      </trkpt>
      <trkpt lat="45.2516280" lon="6.2907810">
        <ele>1358.2</ele>
        <time>2021-08-19T13:35:41Z</time>
      </trkpt>
      <trkpt lat="45.2516500" lon="6.2907260">
        <ele>1358.4</ele>
        <time>2021-08-19T13:35:43Z</time>
      </trkpt>
      <trkpt lat="45.2517020" lon="6.2906770">
        <ele>1359.0</ele>
        <time>2021-08-19T13:35:46Z</time>
      </trkpt>
      <trkpt lat="45.2517430" lon="6.2906770">
        <ele>1359.2</ele>
        <time>2021-08-19T13:35:48Z</time>
      </trkpt>
      <trkpt lat="45.2518030" lon="6.2907120">
        <ele>1360.0</ele>
        <time>2021-08-19T13:35:51Z</time>
      </trkpt>
      <trkpt lat="45.2518220" lon="6.2907240">
        <ele>1360.2</ele>
        <time>2021-08-19T13:35:52Z</time>
      </trkpt>
      <trkpt lat="45.2519240" lon="6.2907940">
        <ele>1361.2</ele>
        <time>2021-08-19T13:35:57Z</time>
      </trkpt>
      <trkpt lat="45.2519630" lon="6.2908210">
        <ele>1361.6</ele>
        <time>2021-08-19T13:35:59Z</time>
      </trkpt>
      <trkpt lat="45.2520400" lon="6.2908780">
        <ele>1362.4</ele>
        <time>2021-08-19T13:36:03Z</time>
      </trkpt>
      <trkpt lat="45.2521580" lon="6.2909510">
        <ele>1363.6</ele>
        <time>2021-08-19T13:36:09Z</time>
      </trkpt>
      <trkpt lat="45.2522830" lon="6.2910600">
        <ele>1364.8</ele>
        <time>2021-08-19T13:36:16Z</time>
      </trkpt>
      <trkpt lat="45.2523360" lon="6.2911070">
        <ele>1365.8</ele>
        <time>2021-08-19T13:36:19Z</time>
      </trkpt>
      <trkpt lat="45.2524590" lon="6.2912150">
        <ele>1367.0</ele>
        <time>2021-08-19T13:36:26Z</time>
      </trkpt>
      <trkpt lat="45.2524970" lon="6.2912310">
        <ele>1367.2</ele>
        <time>2021-08-19T13:36:28Z</time>
      </trkpt>
      <trkpt lat="45.2525560" lon="6.2912600">
        <ele>1368.0</ele>
        <time>2021-08-19T13:36:31Z</time>
      </trkpt>
      <trkpt lat="45.2527130" lon="6.2913140">
        <ele>1369.0</ele>
        <time>2021-08-19T13:36:39Z</time>
      </trkpt>
      <trkpt lat="45.2527350" lon="6.2913200">
        <ele>1369.0</ele>
        <time>2021-08-19T13:36:40Z</time>
      </trkpt>
      <trkpt lat="45.2527550" lon="6.2913230">
        <ele>1369.2</ele>
        <time>2021-08-19T13:36:41Z</time>
      </trkpt>
      <trkpt lat="45.2528920" lon="6.2913450">
        <ele>1370.2</ele>
        <time>2021-08-19T13:36:48Z</time>
      </trkpt>
      <trkpt lat="45.2529100" lon="6.2913490">
        <ele>1370.4</ele>
        <time>2021-08-19T13:36:49Z</time>
      </trkpt>
      <trkpt lat="45.2530000" lon="6.2914010">
        <ele>1371.2</ele>
        <time>2021-08-19T13:36:54Z</time>
      </trkpt>
      <trkpt lat="45.2530400" lon="6.2914220">
        <ele>1371.6</ele>
        <time>2021-08-19T13:36:56Z</time>
      </trkpt>
      <trkpt lat="45.2531310" lon="6.2914790">
        <ele>1372.2</ele>
        <time>2021-08-19T13:37:01Z</time>
      </trkpt>
      <trkpt lat="45.2532330" lon="6.2915390">
        <ele>1373.0</ele>
        <time>2021-08-19T13:37:06Z</time>
      </trkpt>
      <trkpt lat="45.2532780" lon="6.2915650">
        <ele>1373.4</ele>
        <time>2021-08-19T13:37:08Z</time>
      </trkpt>
      <trkpt lat="45.2534050" lon="6.2915940">
        <ele>1374.4</ele>
        <time>2021-08-19T13:37:14Z</time>
      </trkpt>
      <trkpt lat="45.2536030" lon="6.2915700">
        <ele>1375.4</ele>
        <time>2021-08-19T13:37:23Z</time>
      </trkpt>
      <trkpt lat="45.2536880" lon="6.2915520">
        <ele>1376.4</ele>
        <time>2021-08-19T13:37:27Z</time>
      </trkpt>
      <trkpt lat="45.2537090" lon="6.2915520">
        <ele>1376.6</ele>
        <time>2021-08-19T13:37:28Z</time>
      </trkpt>
      <trkpt lat="45.2537940" lon="6.2915590">
        <ele>1377.0</ele>
        <time>2021-08-19T13:37:32Z</time>
      </trkpt>
      <trkpt lat="45.2538720" lon="6.2915830">
        <ele>1377.6</ele>
        <time>2021-08-19T13:37:36Z</time>
      </trkpt>
      <trkpt lat="45.2538900" lon="6.2915930">
        <ele>1377.6</ele>
        <time>2021-08-19T13:37:37Z</time>
      </trkpt>
      <trkpt lat="45.2539630" lon="6.2916590">
        <ele>1378.8</ele>
        <time>2021-08-19T13:37:42Z</time>
      </trkpt>
      <trkpt lat="45.2540020" lon="6.2917280">
        <ele>1379.8</ele>
        <time>2021-08-19T13:37:45Z</time>
      </trkpt>
      <trkpt lat="45.2540710" lon="6.2918330">
        <ele>1381.0</ele>
        <time>2021-08-19T13:37:50Z</time>
      </trkpt>
      <trkpt lat="45.2540850" lon="6.2918510">
        <ele>1381.4</ele>
        <time>2021-08-19T13:37:51Z</time>
      </trkpt>
      <trkpt lat="45.2541280" lon="6.2919020">
        <ele>1382.0</ele>
        <time>2021-08-19T13:37:54Z</time>
      </trkpt>
      <trkpt lat="45.2542060" lon="6.2919790">
        <ele>1383.0</ele>
        <time>2021-08-19T13:37:59Z</time>
      </trkpt>
      <trkpt lat="45.2542230" lon="6.2919890">
        <ele>1383.2</ele>
        <time>2021-08-19T13:38:00Z</time>
      </trkpt>
      <trkpt lat="45.2543370" lon="6.2919950">
        <ele>1384.0</ele>
        <time>2021-08-19T13:38:06Z</time>
      </trkpt>
      <trkpt lat="45.2543730" lon="6.2919780">
        <ele>1384.4</ele>
        <time>2021-08-19T13:38:08Z</time>
      </trkpt>
      <trkpt lat="45.2544390" lon="6.2919250">
        <ele>1385.2</ele>
        <time>2021-08-19T13:38:12Z</time>
      </trkpt>
      <trkpt lat="45.2544710" lon="6.2919040">
        <ele>1385.4</ele>
        <time>2021-08-19T13:38:14Z</time>
      </trkpt>
      <trkpt lat="45.2546020" lon="6.2917960">
        <ele>1386.4</ele>
        <time>2021-08-19T13:38:22Z</time>
      </trkpt>
      <trkpt lat="45.2546210" lon="6.2917840">
        <ele>1386.6</ele>
        <time>2021-08-19T13:38:23Z</time>
      </trkpt>
      <trkpt lat="45.2547080" lon="6.2917210">
        <ele>1387.8</ele>
        <time>2021-08-19T13:38:28Z</time>
      </trkpt>
      <trkpt lat="45.2547930" lon="6.2916690">
        <ele>1388.8</ele>
        <time>2021-08-19T13:38:33Z</time>
      </trkpt>
      <trkpt lat="45.2548930" lon="6.2916410">
        <ele>1389.8</ele>
        <time>2021-08-19T13:38:39Z</time>
      </trkpt>
      <trkpt lat="45.2549130" lon="6.2916520">
        <ele>1389.8</ele>
        <time>2021-08-19T13:38:40Z</time>
      </trkpt>
      <trkpt lat="45.2549260" lon="6.2916630">
        <ele>1389.8</ele>
        <time>2021-08-19T13:38:41Z</time>
      </trkpt>
      <trkpt lat="45.2549680" lon="6.2916930">
        <ele>1390.8</ele>
        <time>2021-08-19T13:38:44Z</time>
      </trkpt>
      <trkpt lat="45.2550040" lon="6.2917450">
        <ele>1391.4</ele>
        <time>2021-08-19T13:38:47Z</time>
      </trkpt>
      <trkpt lat="45.2550250" lon="6.2917770">
        <ele>1392.2</ele>
        <time>2021-08-19T13:38:49Z</time>
      </trkpt>
      <trkpt lat="45.2550560" lon="6.2918600">
        <ele>1393.2</ele>
        <time>2021-08-19T13:38:53Z</time>
      </trkpt>
      <trkpt lat="45.2550870" lon="6.2920090">
        <ele>1394.4</ele>
        <time>2021-08-19T13:38:59Z</time>
      </trkpt>
      <trkpt lat="45.2550950" lon="6.2920560">
        <ele>1394.4</ele>
        <time>2021-08-19T13:39:01Z</time>
      </trkpt>
      <trkpt lat="45.2550880" lon="6.2921890">
        <ele>1395.2</ele>
        <time>2021-08-19T13:39:06Z</time>
      </trkpt>
      <trkpt lat="45.2550780" lon="6.2922370">
        <ele>1395.6</ele>
        <time>2021-08-19T13:39:08Z</time>
      </trkpt>
      <trkpt lat="45.2550550" lon="6.2923590">
        <ele>1396.4</ele>
        <time>2021-08-19T13:39:13Z</time>
      </trkpt>
      <trkpt lat="45.2550520" lon="6.2923830">
        <ele>1396.6</ele>
        <time>2021-08-19T13:39:14Z</time>
      </trkpt>
      <trkpt lat="45.2550250" lon="6.2924750">
        <ele>1397.6</ele>
        <time>2021-08-19T13:39:18Z</time>
      </trkpt>
      <trkpt lat="45.2550130" lon="6.2925480">
        <ele>1398.4</ele>
        <time>2021-08-19T13:39:21Z</time>
      </trkpt>
      <trkpt lat="45.2550010" lon="6.2926000">
        <ele>1398.8</ele>
        <time>2021-08-19T13:39:23Z</time>
      </trkpt>
      <trkpt lat="45.2549890" lon="6.2927280">
        <ele>1399.8</ele>
        <time>2021-08-19T13:39:28Z</time>
      </trkpt>
      <trkpt lat="45.2550000" lon="6.2927760">
        <ele>1400.0</ele>
        <time>2021-08-19T13:39:30Z</time>
      </trkpt>
      <trkpt lat="45.2550500" lon="6.2928470">
        <ele>1400.6</ele>
        <time>2021-08-19T13:39:34Z</time>
      </trkpt>
      <trkpt lat="45.2550810" lon="6.2928690">
        <ele>1401.2</ele>
        <time>2021-08-19T13:39:36Z</time>
      </trkpt>
      <trkpt lat="45.2551840" lon="6.2928070">
        <ele>1402.2</ele>
        <time>2021-08-19T13:39:42Z</time>
      </trkpt>
      <trkpt lat="45.2551970" lon="6.2927880">
        <ele>1402.4</ele>
        <time>2021-08-19T13:39:43Z</time>
      </trkpt>
      <trkpt lat="45.2552620" lon="6.2926590">
        <ele>1403.2</ele>
        <time>2021-08-19T13:39:49Z</time>
      </trkpt>
      <trkpt lat="45.2553300" lon="6.2924990">
        <ele>1404.2</ele>
        <time>2021-08-19T13:39:56Z</time>
      </trkpt>
      <trkpt lat="45.2554070" lon="6.2923930">
        <ele>1405.2</ele>
        <time>2021-08-19T13:40:02Z</time>
      </trkpt>
      <trkpt lat="45.2554740" lon="6.2923170">
        <ele>1406.4</ele>
        <time>2021-08-19T13:40:07Z</time>
      </trkpt>
      <trkpt lat="45.2555190" lon="6.2922490">
        <ele>1407.4</ele>
        <time>2021-08-19T13:40:11Z</time>
      </trkpt>
      <trkpt lat="45.2555590" lon="6.2921780">
        <ele>1407.8</ele>
        <time>2021-08-19T13:40:14Z</time>
      </trkpt>
      <trkpt lat="45.2555940" lon="6.2921040">
        <ele>1408.4</ele>
        <time>2021-08-19T13:40:17Z</time>
      </trkpt>
      <trkpt lat="45.2556260" lon="6.2919490">
        <ele>1409.0</ele>
        <time>2021-08-19T13:40:23Z</time>
      </trkpt>
      <trkpt lat="45.2556450" lon="6.2918100">
        <ele>1409.8</ele>
        <time>2021-08-19T13:40:28Z</time>
      </trkpt>
      <trkpt lat="45.2556480" lon="6.2917810">
        <ele>1409.8</ele>
        <time>2021-08-19T13:40:29Z</time>
      </trkpt>
      <trkpt lat="45.2556800" lon="6.2916170">
        <ele>1410.6</ele>
        <time>2021-08-19T13:40:35Z</time>
      </trkpt>
      <trkpt lat="45.2557000" lon="6.2914810">
        <ele>1411.6</ele>
        <time>2021-08-19T13:40:40Z</time>
      </trkpt>
      <trkpt lat="45.2557150" lon="6.2913580">
        <ele>1412.8</ele>
        <time>2021-08-19T13:40:45Z</time>
      </trkpt>
      <trkpt lat="45.2557260" lon="6.2913120">
        <ele>1413.0</ele>
        <time>2021-08-19T13:40:47Z</time>
      </trkpt>
      <trkpt lat="45.2557420" lon="6.2911900">
        <ele>1414.0</ele>
        <time>2021-08-19T13:40:52Z</time>
      </trkpt>
      <trkpt lat="45.2557510" lon="6.2911150">
        <ele>1414.8</ele>
        <time>2021-08-19T13:40:55Z</time>
      </trkpt>
      <trkpt lat="45.2557570" lon="6.2910930">
        <ele>1415.0</ele>
        <time>2021-08-19T13:40:56Z</time>
      </trkpt>
      <trkpt lat="45.2557950" lon="6.2909780">
        <ele>1415.8</ele>
        <time>2021-08-19T13:41:01Z</time>
      </trkpt>
      <trkpt lat="45.2558270" lon="6.2909250">
        <ele>1416.6</ele>
        <time>2021-08-19T13:41:04Z</time>
      </trkpt>
      <trkpt lat="45.2558490" lon="6.2908830">
        <ele>1417.0</ele>
        <time>2021-08-19T13:41:06Z</time>
      </trkpt>
      <trkpt lat="45.2559250" lon="6.2908210">
        <ele>1417.8</ele>
        <time>2021-08-19T13:41:11Z</time>
      </trkpt>
      <trkpt lat="45.2559620" lon="6.2908180">
        <ele>1418.0</ele>
        <time>2021-08-19T13:41:13Z</time>
      </trkpt>
      <trkpt lat="45.2560300" lon="6.2908260">
        <ele>1418.6</ele>
        <time>2021-08-19T13:41:17Z</time>
      </trkpt>
      <trkpt lat="45.2560620" lon="6.2908500">
        <ele>1418.8</ele>
        <time>2021-08-19T13:41:19Z</time>
      </trkpt>
      <trkpt lat="45.2560770" lon="6.2908660">
        <ele>1419.4</ele>
        <time>2021-08-19T13:41:20Z</time>
      </trkpt>
      <trkpt lat="45.2561180" lon="6.2909510">
        <ele>1420.4</ele>
        <time>2021-08-19T13:41:24Z</time>
      </trkpt>
      <trkpt lat="45.2561410" lon="6.2909940">
        <ele>1420.6</ele>
        <time>2021-08-19T13:41:26Z</time>
      </trkpt>
      <trkpt lat="45.2561890" lon="6.2910750">
        <ele>1421.6</ele>
        <time>2021-08-19T13:41:30Z</time>
      </trkpt>
      <trkpt lat="45.2562240" lon="6.2911400">
        <ele>1421.8</ele>
        <time>2021-08-19T13:41:33Z</time>
      </trkpt>
      <trkpt lat="45.2562910" lon="6.2912690">
        <ele>1422.4</ele>
        <time>2021-08-19T13:41:39Z</time>
      </trkpt>
      <trkpt lat="45.2563490" lon="6.2914180">
        <ele>1423.6</ele>
        <time>2021-08-19T13:41:45Z</time>
      </trkpt>
      <trkpt lat="45.2563680" lon="6.2915040">
        <ele>1424.4</ele>
        <time>2021-08-19T13:41:48Z</time>
      </trkpt>
      <trkpt lat="45.2563790" lon="6.2915610">
        <ele>1424.6</ele>
        <time>2021-08-19T13:41:50Z</time>
      </trkpt>
      <trkpt lat="45.2563870" lon="6.2916180">
        <ele>1424.8</ele>
        <time>2021-08-19T13:41:52Z</time>
      </trkpt>
      <trkpt lat="45.2563800" lon="6.2917010">
        <ele>1425.4</ele>
        <time>2021-08-19T13:41:55Z</time>
      </trkpt>
      <trkpt lat="45.2563780" lon="6.2917590">
        <ele>1425.8</ele>
        <time>2021-08-19T13:41:57Z</time>
      </trkpt>
      <trkpt lat="45.2563750" lon="6.2917870">
        <ele>1425.8</ele>
        <time>2021-08-19T13:41:58Z</time>
      </trkpt>
      <trkpt lat="45.2563700" lon="6.2918140">
        <ele>1426.0</ele>
        <time>2021-08-19T13:41:59Z</time>
      </trkpt>
      <trkpt lat="45.2563400" lon="6.2919580">
        <ele>1426.8</ele>
        <time>2021-08-19T13:42:04Z</time>
      </trkpt>
      <trkpt lat="45.2562930" lon="6.2921340">
        <ele>1428.0</ele>
        <time>2021-08-19T13:42:10Z</time>
      </trkpt>
      <trkpt lat="45.2562800" lon="6.2921900">
        <ele>1428.2</ele>
        <time>2021-08-19T13:42:12Z</time>
      </trkpt>
      <trkpt lat="45.2562340" lon="6.2923560">
        <ele>1429.0</ele>
        <time>2021-08-19T13:42:18Z</time>
      </trkpt>
      <trkpt lat="45.2562120" lon="6.2924410">
        <ele>1429.4</ele>
        <time>2021-08-19T13:42:21Z</time>
      </trkpt>
      <trkpt lat="45.2561960" lon="6.2925520">
        <ele>1430.2</ele>
        <time>2021-08-19T13:42:25Z</time>
      </trkpt>
      <trkpt lat="45.2561810" lon="6.2926340">
        <ele>1430.6</ele>
        <time>2021-08-19T13:42:28Z</time>
      </trkpt>
      <trkpt lat="45.2561660" lon="6.2926870">
        <ele>1431.2</ele>
        <time>2021-08-19T13:42:30Z</time>
      </trkpt>
      <trkpt lat="45.2561570" lon="6.2927470">
        <ele>1431.4</ele>
        <time>2021-08-19T13:42:32Z</time>
      </trkpt>
      <trkpt lat="45.2561450" lon="6.2928390">
        <ele>1431.8</ele>
        <time>2021-08-19T13:42:35Z</time>
      </trkpt>
      <trkpt lat="45.2561390" lon="6.2929390">
        <ele>1432.2</ele>
        <time>2021-08-19T13:42:38Z</time>
      </trkpt>
      <trkpt lat="45.2561440" lon="6.2930760">
        <ele>1432.6</ele>
        <time>2021-08-19T13:42:42Z</time>
      </trkpt>
      <trkpt lat="45.2561610" lon="6.2931330">
        <ele>1432.8</ele>
        <time>2021-08-19T13:42:44Z</time>
      </trkpt>
      <trkpt lat="45.2561880" lon="6.2931800">
        <ele>1433.2</ele>
        <time>2021-08-19T13:42:46Z</time>
      </trkpt>
      <trkpt lat="45.2562350" lon="6.2932260">
        <ele>1434.0</ele>
        <time>2021-08-19T13:42:49Z</time>
      </trkpt>
      <trkpt lat="45.2562520" lon="6.2932400">
        <ele>1434.4</ele>
        <time>2021-08-19T13:42:50Z</time>
      </trkpt>
      <trkpt lat="45.2563410" lon="6.2932610">
        <ele>1435.2</ele>
        <time>2021-08-19T13:42:54Z</time>
      </trkpt>
      <trkpt lat="45.2563620" lon="6.2932560">
        <ele>1435.6</ele>
        <time>2021-08-19T13:42:55Z</time>
      </trkpt>
      <trkpt lat="45.2563840" lon="6.2932450">
        <ele>1435.8</ele>
        <time>2021-08-19T13:42:56Z</time>
      </trkpt>
      <trkpt lat="45.2564370" lon="6.2931840">
        <ele>1436.2</ele>
        <time>2021-08-19T13:42:59Z</time>
      </trkpt>
      <trkpt lat="45.2564500" lon="6.2931560">
        <ele>1436.4</ele>
        <time>2021-08-19T13:43:00Z</time>
      </trkpt>
      <trkpt lat="45.2564730" lon="6.2930950">
        <ele>1436.8</ele>
        <time>2021-08-19T13:43:02Z</time>
      </trkpt>
      <trkpt lat="45.2565410" lon="6.2928540">
        <ele>1437.4</ele>
        <time>2021-08-19T13:43:09Z</time>
      </trkpt>
      <trkpt lat="45.2565550" lon="6.2928230">
        <ele>1437.4</ele>
        <time>2021-08-19T13:43:10Z</time>
      </trkpt>
      <trkpt lat="45.2566530" lon="6.2926210">
        <ele>1438.6</ele>
        <time>2021-08-19T13:43:17Z</time>
      </trkpt>
      <trkpt lat="45.2567770" lon="6.2923980">
        <ele>1439.4</ele>
        <time>2021-08-19T13:43:25Z</time>
      </trkpt>
      <trkpt lat="45.2568090" lon="6.2923350">
        <ele>1439.6</ele>
        <time>2021-08-19T13:43:27Z</time>
      </trkpt>
      <trkpt lat="45.2568700" lon="6.2921780">
        <ele>1440.6</ele>
        <time>2021-08-19T13:43:32Z</time>
      </trkpt>
      <trkpt lat="45.2569230" lon="6.2920580">
        <ele>1441.0</ele>
        <time>2021-08-19T13:43:36Z</time>
      </trkpt>
      <trkpt lat="45.2569580" lon="6.2919610">
        <ele>1441.6</ele>
        <time>2021-08-19T13:43:39Z</time>
      </trkpt>
      <trkpt lat="45.2570300" lon="6.2918160">
        <ele>1442.4</ele>
        <time>2021-08-19T13:43:44Z</time>
      </trkpt>
      <trkpt lat="45.2570440" lon="6.2917870">
        <ele>1442.6</ele>
        <time>2021-08-19T13:43:45Z</time>
      </trkpt>
      <trkpt lat="45.2571290" lon="6.2916250">
        <ele>1443.6</ele>
        <time>2021-08-19T13:43:51Z</time>
      </trkpt>
      <trkpt lat="45.2571410" lon="6.2915940">
        <ele>1443.6</ele>
        <time>2021-08-19T13:43:52Z</time>
      </trkpt>
      <trkpt lat="45.2571980" lon="6.2914920">
        <ele>1444.6</ele>
        <time>2021-08-19T13:43:56Z</time>
      </trkpt>
      <trkpt lat="45.2572100" lon="6.2914700">
        <ele>1444.8</ele>
        <time>2021-08-19T13:43:57Z</time>
      </trkpt>
      <trkpt lat="45.2572990" lon="6.2913490">
        <ele>1445.8</ele>
        <time>2021-08-19T13:44:02Z</time>
      </trkpt>
      <trkpt lat="45.2573680" lon="6.2912560">
        <ele>1445.8</ele>
        <time>2021-08-19T13:44:06Z</time>
      </trkpt>
      <trkpt lat="45.2573860" lon="6.2912270">
        <ele>1446.2</ele>
        <time>2021-08-19T13:44:07Z</time>
      </trkpt>
      <trkpt lat="45.2574480" lon="6.2911050">
        <ele>1446.6</ele>
        <time>2021-08-19T13:44:11Z</time>
      </trkpt>
      <trkpt lat="45.2574920" lon="6.2909640">
        <ele>1447.2</ele>
        <time>2021-08-19T13:44:15Z</time>
      </trkpt>
      <trkpt lat="45.2575120" lon="6.2908480">
        <ele>1447.8</ele>
        <time>2021-08-19T13:44:18Z</time>
      </trkpt>
      <trkpt lat="45.2575110" lon="6.2907710">
        <ele>1448.2</ele>
        <time>2021-08-19T13:44:20Z</time>
      </trkpt>
      <trkpt lat="45.2575090" lon="6.2906930">
        <ele>1448.4</ele>
        <time>2021-08-19T13:44:22Z</time>
      </trkpt>
      <trkpt lat="45.2575040" lon="6.2906190">
        <ele>1448.8</ele>
        <time>2021-08-19T13:44:24Z</time>
      </trkpt>
      <trkpt lat="45.2575040" lon="6.2905840">
        <ele>1448.8</ele>
        <time>2021-08-19T13:44:25Z</time>
      </trkpt>
      <trkpt lat="45.2575030" lon="6.2905480">
        <ele>1449.0</ele>
        <time>2021-08-19T13:44:26Z</time>
      </trkpt>
      <trkpt lat="45.2575010" lon="6.2905130">
        <ele>1449.2</ele>
        <time>2021-08-19T13:44:27Z</time>
      </trkpt>
      <trkpt lat="45.2575010" lon="6.2904770">
        <ele>1449.4</ele>
        <time>2021-08-19T13:44:28Z</time>
      </trkpt>
      <trkpt lat="45.2575000" lon="6.2904410">
        <ele>1449.6</ele>
        <time>2021-08-19T13:44:29Z</time>
      </trkpt>
      <trkpt lat="45.2574980" lon="6.2904060">
        <ele>1450.0</ele>
        <time>2021-08-19T13:44:30Z</time>
      </trkpt>
      <trkpt lat="45.2574950" lon="6.2902640">
        <ele>1450.6</ele>
        <time>2021-08-19T13:44:34Z</time>
      </trkpt>
      <trkpt lat="45.2574950" lon="6.2902260">
        <ele>1450.8</ele>
        <time>2021-08-19T13:44:35Z</time>
      </trkpt>
      <trkpt lat="45.2574930" lon="6.2901920">
        <ele>1450.8</ele>
        <time>2021-08-19T13:44:36Z</time>
      </trkpt>
      <trkpt lat="45.2574890" lon="6.2901480">
        <ele>1451.0</ele>
        <time>2021-08-19T13:44:37Z</time>
      </trkpt>
      <trkpt lat="45.2574870" lon="6.2901190">
        <ele>1451.2</ele>
        <time>2021-08-19T13:44:38Z</time>
      </trkpt>
      <trkpt lat="45.2574870" lon="6.2900810">
        <ele>1451.2</ele>
        <time>2021-08-19T13:44:39Z</time>
      </trkpt>
      <trkpt lat="45.2574850" lon="6.2900440">
        <ele>1451.4</ele>
        <time>2021-08-19T13:44:40Z</time>
      </trkpt>
      <trkpt lat="45.2574810" lon="6.2900090">
        <ele>1451.6</ele>
        <time>2021-08-19T13:44:41Z</time>
      </trkpt>
      <trkpt lat="45.2574770" lon="6.2899740">
        <ele>1451.8</ele>
        <time>2021-08-19T13:44:42Z</time>
      </trkpt>
      <trkpt lat="45.2574740" lon="6.2899370">
        <ele>1451.8</ele>
        <time>2021-08-19T13:44:43Z</time>
      </trkpt>
      <trkpt lat="45.2574660" lon="6.2898660">
        <ele>1452.2</ele>
        <time>2021-08-19T13:44:45Z</time>
      </trkpt>
      <trkpt lat="45.2574660" lon="6.2898260">
        <ele>1452.4</ele>
        <time>2021-08-19T13:44:46Z</time>
      </trkpt>
      <trkpt lat="45.2574590" lon="6.2897640">
        <ele>1452.6</ele>
        <time>2021-08-19T13:44:48Z</time>
      </trkpt>
      <trkpt lat="45.2574370" lon="6.2896280">
        <ele>1453.2</ele>
        <time>2021-08-19T13:44:52Z</time>
      </trkpt>
      <trkpt lat="45.2574060" lon="6.2894560">
        <ele>1454.2</ele>
        <time>2021-08-19T13:44:57Z</time>
      </trkpt>
      <trkpt lat="45.2573620" lon="6.2892480">
        <ele>1455.2</ele>
        <time>2021-08-19T13:45:03Z</time>
      </trkpt>
      <trkpt lat="45.2573280" lon="6.2889450">
        <ele>1456.4</ele>
        <time>2021-08-19T13:45:12Z</time>
      </trkpt>
      <trkpt lat="45.2573600" lon="6.2888800">
        <ele>1457.0</ele>
        <time>2021-08-19T13:45:14Z</time>
      </trkpt>
      <trkpt lat="45.2574070" lon="6.2888590">
        <ele>1457.4</ele>
        <time>2021-08-19T13:45:16Z</time>
      </trkpt>
      <trkpt lat="45.2574530" lon="6.2888690">
        <ele>1457.6</ele>
        <time>2021-08-19T13:45:18Z</time>
      </trkpt>
      <trkpt lat="45.2575040" lon="6.2889200">
        <ele>1458.0</ele>
        <time>2021-08-19T13:45:21Z</time>
      </trkpt>
      <trkpt lat="45.2575230" lon="6.2889840">
        <ele>1458.2</ele>
        <time>2021-08-19T13:45:23Z</time>
      </trkpt>
      <trkpt lat="45.2575320" lon="6.2890760">
        <ele>1459.0</ele>
        <time>2021-08-19T13:45:26Z</time>
      </trkpt>
      <trkpt lat="45.2575350" lon="6.2891310">
        <ele>1459.4</ele>
        <time>2021-08-19T13:45:28Z</time>
      </trkpt>
      <trkpt lat="45.2575740" lon="6.2892370">
        <ele>1460.0</ele>
        <time>2021-08-19T13:45:32Z</time>
      </trkpt>
      <trkpt lat="45.2576080" lon="6.2892840">
        <ele>1460.4</ele>
        <time>2021-08-19T13:45:34Z</time>
      </trkpt>
      <trkpt lat="45.2577240" lon="6.2893930">
        <ele>1461.6</ele>
        <time>2021-08-19T13:45:40Z</time>
      </trkpt>
      <trkpt lat="45.2577460" lon="6.2894070">
        <ele>1461.6</ele>
        <time>2021-08-19T13:45:41Z</time>
      </trkpt>
      <trkpt lat="45.2578770" lon="6.2894800">
        <ele>1462.4</ele>
        <time>2021-08-19T13:45:47Z</time>
      </trkpt>
      <trkpt lat="45.2578960" lon="6.2895000">
        <ele>1462.6</ele>
        <time>2021-08-19T13:45:48Z</time>
      </trkpt>
      <trkpt lat="45.2579560" lon="6.2895920">
        <ele>1463.6</ele>
        <time>2021-08-19T13:45:53Z</time>
      </trkpt>
      <trkpt lat="45.2579990" lon="6.2897210">
        <ele>1464.8</ele>
        <time>2021-08-19T13:45:58Z</time>
      </trkpt>
      <trkpt lat="45.2580060" lon="6.2898420">
        <ele>1466.0</ele>
        <time>2021-08-19T13:46:03Z</time>
      </trkpt>
      <trkpt lat="45.2580190" lon="6.2899720">
        <ele>1467.0</ele>
        <time>2021-08-19T13:46:08Z</time>
      </trkpt>
      <trkpt lat="45.2580410" lon="6.2900820">
        <ele>1467.8</ele>
        <time>2021-08-19T13:46:13Z</time>
      </trkpt>
      <trkpt lat="45.2580330" lon="6.2901350">
        <ele>1468.2</ele>
        <time>2021-08-19T13:46:15Z</time>
      </trkpt>
      <trkpt lat="45.2580300" lon="6.2901890">
        <ele>1469.0</ele>
        <time>2021-08-19T13:46:17Z</time>
      </trkpt>
      <trkpt lat="45.2580390" lon="6.2903310">
        <ele>1470.2</ele>
        <time>2021-08-19T13:46:23Z</time>
      </trkpt>
      <trkpt lat="45.2580420" lon="6.2903610">
        <ele>1470.6</ele>
        <time>2021-08-19T13:46:24Z</time>
      </trkpt>
      <trkpt lat="45.2580450" lon="6.2904420">
        <ele>1471.2</ele>
        <time>2021-08-19T13:46:27Z</time>
      </trkpt>
      <trkpt lat="45.2580320" lon="6.2906530">
        <ele>1472.0</ele>
        <time>2021-08-19T13:46:34Z</time>
      </trkpt>
      <trkpt lat="45.2580320" lon="6.2908230">
        <ele>1472.6</ele>
        <time>2021-08-19T13:46:40Z</time>
      </trkpt>
      <trkpt lat="45.2580370" lon="6.2909390">
        <ele>1473.2</ele>
        <time>2021-08-19T13:46:44Z</time>
      </trkpt>
      <trkpt lat="45.2580460" lon="6.2910540">
        <ele>1473.8</ele>
        <time>2021-08-19T13:46:48Z</time>
      </trkpt>
      <trkpt lat="45.2580510" lon="6.2911020">
        <ele>1474.0</ele>
        <time>2021-08-19T13:46:50Z</time>
      </trkpt>
      <trkpt lat="45.2580540" lon="6.2911340">
        <ele>1474.2</ele>
        <time>2021-08-19T13:46:51Z</time>
      </trkpt>
      <trkpt lat="45.2580680" lon="6.2912560">
        <ele>1475.2</ele>
        <time>2021-08-19T13:46:56Z</time>
      </trkpt>
      <trkpt lat="45.2580710" lon="6.2912830">
        <ele>1475.4</ele>
        <time>2021-08-19T13:46:57Z</time>
      </trkpt>
      <trkpt lat="45.2580820" lon="6.2914490">
        <ele>1476.6</ele>
        <time>2021-08-19T13:47:03Z</time>
      </trkpt>
      <trkpt lat="45.2581000" lon="6.2915840">
        <ele>1477.0</ele>
        <time>2021-08-19T13:47:08Z</time>
      </trkpt>
      <trkpt lat="45.2581080" lon="6.2916690">
        <ele>1477.6</ele>
        <time>2021-08-19T13:47:11Z</time>
      </trkpt>
      <trkpt lat="45.2581310" lon="6.2918010">
        <ele>1478.8</ele>
        <time>2021-08-19T13:47:16Z</time>
      </trkpt>
      <trkpt lat="45.2581340" lon="6.2918270">
        <ele>1479.0</ele>
        <time>2021-08-19T13:47:17Z</time>
      </trkpt>
      <trkpt lat="45.2581400" lon="6.2920410">
        <ele>1479.8</ele>
        <time>2021-08-19T13:47:25Z</time>
      </trkpt>
      <trkpt lat="45.2581400" lon="6.2920700">
        <ele>1480.0</ele>
        <time>2021-08-19T13:47:26Z</time>
      </trkpt>
      <trkpt lat="45.2581680" lon="6.2922310">
        <ele>1481.2</ele>
        <time>2021-08-19T13:47:32Z</time>
      </trkpt>
      <trkpt lat="45.2581750" lon="6.2922860">
        <ele>1481.4</ele>
        <time>2021-08-19T13:47:34Z</time>
      </trkpt>
      <trkpt lat="45.2582170" lon="6.2923770">
        <ele>1482.2</ele>
        <time>2021-08-19T13:47:38Z</time>
      </trkpt>
      <trkpt lat="45.2582430" lon="6.2924170">
        <ele>1482.4</ele>
        <time>2021-08-19T13:47:40Z</time>
      </trkpt>
      <trkpt lat="45.2582880" lon="6.2924770">
        <ele>1483.2</ele>
        <time>2021-08-19T13:47:43Z</time>
      </trkpt>
      <trkpt lat="45.2583700" lon="6.2925430">
        <ele>1484.0</ele>
        <time>2021-08-19T13:47:48Z</time>
      </trkpt>
      <trkpt lat="45.2583850" lon="6.2925520">
        <ele>1484.2</ele>
        <time>2021-08-19T13:47:49Z</time>
      </trkpt>
      <trkpt lat="45.2584940" lon="6.2925790">
        <ele>1484.8</ele>
        <time>2021-08-19T13:47:55Z</time>
      </trkpt>
      <trkpt lat="45.2585520" lon="6.2925710">
        <ele>1485.0</ele>
        <time>2021-08-19T13:47:58Z</time>
      </trkpt>
      <trkpt lat="45.2586550" lon="6.2925370">
        <ele>1486.0</ele>
        <time>2021-08-19T13:48:04Z</time>
      </trkpt>
      <trkpt lat="45.2586740" lon="6.2925300">
        <ele>1486.2</ele>
        <time>2021-08-19T13:48:05Z</time>
      </trkpt>
      <trkpt lat="45.2588080" lon="6.2924780">
        <ele>1487.4</ele>
        <time>2021-08-19T13:48:12Z</time>
      </trkpt>
      <trkpt lat="45.2588230" lon="6.2924760">
        <ele>1487.6</ele>
        <time>2021-08-19T13:48:13Z</time>
      </trkpt>
      <trkpt lat="45.2588410" lon="6.2924730">
        <ele>1488.0</ele>
        <time>2021-08-19T13:48:14Z</time>
      </trkpt>
      <trkpt lat="45.2589110" lon="6.2924400">
        <ele>1488.4</ele>
        <time>2021-08-19T13:48:18Z</time>
      </trkpt>
      <trkpt lat="45.2589290" lon="6.2924310">
        <ele>1488.6</ele>
        <time>2021-08-19T13:48:19Z</time>
      </trkpt>
      <trkpt lat="45.2590350" lon="6.2923650">
        <ele>1489.6</ele>
        <time>2021-08-19T13:48:25Z</time>
      </trkpt>
      <trkpt lat="45.2590920" lon="6.2923440">
        <ele>1489.8</ele>
        <time>2021-08-19T13:48:28Z</time>
      </trkpt>
      <trkpt lat="45.2591490" lon="6.2923260">
        <ele>1490.4</ele>
        <time>2021-08-19T13:48:31Z</time>
      </trkpt>
      <trkpt lat="45.2592340" lon="6.2922760">
        <ele>1491.4</ele>
        <time>2021-08-19T13:48:36Z</time>
      </trkpt>
      <trkpt lat="45.2592520" lon="6.2922660">
        <ele>1491.6</ele>
        <time>2021-08-19T13:48:37Z</time>
      </trkpt>
      <trkpt lat="45.2593780" lon="6.2921840">
        <ele>1492.6</ele>
        <time>2021-08-19T13:48:44Z</time>
      </trkpt>
      <trkpt lat="45.2594270" lon="6.2921430">
        <ele>1493.4</ele>
        <time>2021-08-19T13:48:47Z</time>
      </trkpt>
      <trkpt lat="45.2594590" lon="6.2921070">
        <ele>1493.8</ele>
        <time>2021-08-19T13:48:49Z</time>
      </trkpt>
      <trkpt lat="45.2595340" lon="6.2919770">
        <ele>1494.6</ele>
        <time>2021-08-19T13:48:55Z</time>
      </trkpt>
      <trkpt lat="45.2595440" lon="6.2919500">
        <ele>1494.8</ele>
        <time>2021-08-19T13:48:56Z</time>
      </trkpt>
      <trkpt lat="45.2596010" lon="6.2918150">
        <ele>1496.0</ele>
        <time>2021-08-19T13:49:02Z</time>
      </trkpt>
      <trkpt lat="45.2596370" lon="6.2917320">
        <ele>1496.6</ele>
        <time>2021-08-19T13:49:06Z</time>
      </trkpt>
      <trkpt lat="45.2596460" lon="6.2917120">
        <ele>1497.0</ele>
        <time>2021-08-19T13:49:07Z</time>
      </trkpt>
      <trkpt lat="45.2597040" lon="6.2915850">
        <ele>1497.8</ele>
        <time>2021-08-19T13:49:13Z</time>
      </trkpt>
      <trkpt lat="45.2597310" lon="6.2915180">
        <ele>1498.2</ele>
        <time>2021-08-19T13:49:16Z</time>
      </trkpt>
      <trkpt lat="45.2597630" lon="6.2914460">
        <ele>1499.0</ele>
        <time>2021-08-19T13:49:19Z</time>
      </trkpt>
      <trkpt lat="45.2598290" lon="6.2912740">
        <ele>1500.0</ele>
        <time>2021-08-19T13:49:26Z</time>
      </trkpt>
      <trkpt lat="45.2598680" lon="6.2911090">
        <ele>1501.0</ele>
        <time>2021-08-19T13:49:32Z</time>
      </trkpt>
      <trkpt lat="45.2598710" lon="6.2910460">
        <ele>1501.4</ele>
        <time>2021-08-19T13:49:34Z</time>
      </trkpt>
      <trkpt lat="45.2598770" lon="6.2909220">
        <ele>1502.0</ele>
        <time>2021-08-19T13:49:38Z</time>
      </trkpt>
      <trkpt lat="45.2598660" lon="6.2908280">
        <ele>1502.6</ele>
        <time>2021-08-19T13:49:41Z</time>
      </trkpt>
      <trkpt lat="45.2598630" lon="6.2907990">
        <ele>1502.8</ele>
        <time>2021-08-19T13:49:42Z</time>
      </trkpt>
      <trkpt lat="45.2598600" lon="6.2907690">
        <ele>1502.8</ele>
        <time>2021-08-19T13:49:43Z</time>
      </trkpt>
      <trkpt lat="45.2598550" lon="6.2907400">
        <ele>1503.2</ele>
        <time>2021-08-19T13:49:44Z</time>
      </trkpt>
      <trkpt lat="45.2598240" lon="6.2905990">
        <ele>1504.2</ele>
        <time>2021-08-19T13:49:49Z</time>
      </trkpt>
      <trkpt lat="45.2597700" lon="6.2904040">
        <ele>1505.4</ele>
        <time>2021-08-19T13:49:56Z</time>
      </trkpt>
      <trkpt lat="45.2597390" lon="6.2902360">
        <ele>1506.6</ele>
        <time>2021-08-19T13:50:02Z</time>
      </trkpt>
      <trkpt lat="45.2597310" lon="6.2902080">
        <ele>1506.8</ele>
        <time>2021-08-19T13:50:03Z</time>
      </trkpt>
      <trkpt lat="45.2597220" lon="6.2901790">
        <ele>1506.8</ele>
        <time>2021-08-19T13:50:04Z</time>
      </trkpt>
      <trkpt lat="45.2597150" lon="6.2901490">
        <ele>1507.0</ele>
        <time>2021-08-19T13:50:05Z</time>
      </trkpt>
      <trkpt lat="45.2597070" lon="6.2900930">
        <ele>1507.4</ele>
        <time>2021-08-19T13:50:07Z</time>
      </trkpt>
      <trkpt lat="45.2597050" lon="6.2900640">
        <ele>1507.6</ele>
        <time>2021-08-19T13:50:08Z</time>
      </trkpt>
      <trkpt lat="45.2596950" lon="6.2900090">
        <ele>1507.8</ele>
        <time>2021-08-19T13:50:10Z</time>
      </trkpt>
      <trkpt lat="45.2596890" lon="6.2898860">
        <ele>1508.4</ele>
        <time>2021-08-19T13:50:14Z</time>
      </trkpt>
      <trkpt lat="45.2596870" lon="6.2898300">
        <ele>1508.8</ele>
        <time>2021-08-19T13:50:16Z</time>
      </trkpt>
      <trkpt lat="45.2596700" lon="6.2896880">
        <ele>1509.4</ele>
        <time>2021-08-19T13:50:21Z</time>
      </trkpt>
      <trkpt lat="45.2596620" lon="6.2896320">
        <ele>1509.8</ele>
        <time>2021-08-19T13:50:23Z</time>
      </trkpt>
      <trkpt lat="45.2596570" lon="6.2896040">
        <ele>1510.0</ele>
        <time>2021-08-19T13:50:24Z</time>
      </trkpt>
      <trkpt lat="45.2596330" lon="6.2894720">
        <ele>1510.8</ele>
        <time>2021-08-19T13:50:29Z</time>
      </trkpt>
      <trkpt lat="45.2596260" lon="6.2894470">
        <ele>1510.8</ele>
        <time>2021-08-19T13:50:30Z</time>
      </trkpt>
      <trkpt lat="45.2596160" lon="6.2894200">
        <ele>1511.0</ele>
        <time>2021-08-19T13:50:31Z</time>
      </trkpt>
      <trkpt lat="45.2596040" lon="6.2893140">
        <ele>1512.0</ele>
        <time>2021-08-19T13:50:35Z</time>
      </trkpt>
      <trkpt lat="45.2595980" lon="6.2892620">
        <ele>1512.2</ele>
        <time>2021-08-19T13:50:37Z</time>
      </trkpt>
      <trkpt lat="45.2595920" lon="6.2891230">
        <ele>1513.0</ele>
        <time>2021-08-19T13:50:42Z</time>
      </trkpt>
      <trkpt lat="45.2595870" lon="6.2890400">
        <ele>1513.6</ele>
        <time>2021-08-19T13:50:45Z</time>
      </trkpt>
      <trkpt lat="45.2595880" lon="6.2889550">
        <ele>1514.0</ele>
        <time>2021-08-19T13:50:48Z</time>
      </trkpt>
      <trkpt lat="45.2596010" lon="6.2887840">
        <ele>1515.2</ele>
        <time>2021-08-19T13:50:54Z</time>
      </trkpt>
      <trkpt lat="45.2596030" lon="6.2887540">
        <ele>1515.2</ele>
        <time>2021-08-19T13:50:55Z</time>
      </trkpt>
      <trkpt lat="45.2596200" lon="6.2885730">
        <ele>1516.2</ele>
        <time>2021-08-19T13:51:01Z</time>
      </trkpt>
      <trkpt lat="45.2596260" lon="6.2884810">
        <ele>1516.6</ele>
        <time>2021-08-19T13:51:04Z</time>
      </trkpt>
      <trkpt lat="45.2596420" lon="6.2883080">
        <ele>1517.2</ele>
        <time>2021-08-19T13:51:10Z</time>
      </trkpt>
      <trkpt lat="45.2596640" lon="6.2881700">
        <ele>1518.2</ele>
        <time>2021-08-19T13:51:15Z</time>
      </trkpt>
      <trkpt lat="45.2596650" lon="6.2881440">
        <ele>1518.2</ele>
        <time>2021-08-19T13:51:16Z</time>
      </trkpt>
      <trkpt lat="45.2596820" lon="6.2879870">
        <ele>1519.2</ele>
        <time>2021-08-19T13:51:22Z</time>
      </trkpt>
      <trkpt lat="45.2596890" lon="6.2879370">
        <ele>1519.6</ele>
        <time>2021-08-19T13:51:24Z</time>
      </trkpt>
      <trkpt lat="45.2597020" lon="6.2878330">
        <ele>1520.4</ele>
        <time>2021-08-19T13:51:28Z</time>
      </trkpt>
      <trkpt lat="45.2597140" lon="6.2877300">
        <ele>1521.0</ele>
        <time>2021-08-19T13:51:32Z</time>
      </trkpt>
      <trkpt lat="45.2597220" lon="6.2876460">
        <ele>1521.4</ele>
        <time>2021-08-19T13:51:35Z</time>
      </trkpt>
      <trkpt lat="45.2597480" lon="6.2874950">
        <ele>1522.4</ele>
        <time>2021-08-19T13:51:41Z</time>
      </trkpt>
      <trkpt lat="45.2597550" lon="6.2874720">
        <ele>1522.6</ele>
        <time>2021-08-19T13:51:42Z</time>
      </trkpt>
      <trkpt lat="45.2597860" lon="6.2873710">
        <ele>1523.6</ele>
        <time>2021-08-19T13:51:46Z</time>
      </trkpt>
      <trkpt lat="45.2598140" lon="6.2872780">
        <ele>1524.0</ele>
        <time>2021-08-19T13:51:50Z</time>
      </trkpt>
      <trkpt lat="45.2598340" lon="6.2872350">
        <ele>1524.6</ele>
        <time>2021-08-19T13:51:52Z</time>
      </trkpt>
      <trkpt lat="45.2598930" lon="6.2871240">
        <ele>1525.8</ele>
        <time>2021-08-19T13:51:58Z</time>
      </trkpt>
      <trkpt lat="45.2599400" lon="6.2870430">
        <ele>1526.2</ele>
        <time>2021-08-19T13:52:02Z</time>
      </trkpt>
      <trkpt lat="45.2599730" lon="6.2869820">
        <ele>1526.8</ele>
        <time>2021-08-19T13:52:05Z</time>
      </trkpt>
      <trkpt lat="45.2600440" lon="6.2868850">
        <ele>1527.8</ele>
        <time>2021-08-19T13:52:10Z</time>
      </trkpt>
      <trkpt lat="45.2600720" lon="6.2868440">
        <ele>1528.2</ele>
        <time>2021-08-19T13:52:12Z</time>
      </trkpt>
      <trkpt lat="45.2600860" lon="6.2868250">
        <ele>1528.4</ele>
        <time>2021-08-19T13:52:13Z</time>
      </trkpt>
      <trkpt lat="45.2601010" lon="6.2868060">
        <ele>1528.6</ele>
        <time>2021-08-19T13:52:14Z</time>
      </trkpt>
      <trkpt lat="45.2601160" lon="6.2867860">
        <ele>1528.8</ele>
        <time>2021-08-19T13:52:15Z</time>
      </trkpt>
      <trkpt lat="45.2601300" lon="6.2867680">
        <ele>1528.8</ele>
        <time>2021-08-19T13:52:16Z</time>
      </trkpt>
      <trkpt lat="45.2601410" lon="6.2867520">
        <ele>1529.0</ele>
        <time>2021-08-19T13:52:17Z</time>
      </trkpt>
      <trkpt lat="45.2601970" lon="6.2866830">
        <ele>1530.0</ele>
        <time>2021-08-19T13:52:21Z</time>
      </trkpt>
      <trkpt lat="45.2602490" lon="6.2866170">
        <ele>1530.8</ele>
        <time>2021-08-19T13:52:25Z</time>
      </trkpt>
      <trkpt lat="45.2602740" lon="6.2865880">
        <ele>1531.0</ele>
        <time>2021-08-19T13:52:27Z</time>
      </trkpt>
      <trkpt lat="45.2602840" lon="6.2865710">
        <ele>1531.2</ele>
        <time>2021-08-19T13:52:28Z</time>
      </trkpt>
      <trkpt lat="45.2602950" lon="6.2865520">
        <ele>1531.6</ele>
        <time>2021-08-19T13:52:29Z</time>
      </trkpt>
      <trkpt lat="45.2603210" lon="6.2865150">
        <ele>1532.4</ele>
        <time>2021-08-19T13:52:31Z</time>
      </trkpt>
      <trkpt lat="45.2603710" lon="6.2864420">
        <ele>1533.4</ele>
        <time>2021-08-19T13:52:35Z</time>
      </trkpt>
      <trkpt lat="45.2604200" lon="6.2863620">
        <ele>1534.0</ele>
        <time>2021-08-19T13:52:39Z</time>
      </trkpt>
      <trkpt lat="45.2604390" lon="6.2863180">
        <ele>1534.4</ele>
        <time>2021-08-19T13:52:41Z</time>
      </trkpt>
      <trkpt lat="45.2604480" lon="6.2862950">
        <ele>1534.6</ele>
        <time>2021-08-19T13:52:42Z</time>
      </trkpt>
      <trkpt lat="45.2604670" lon="6.2862530">
        <ele>1534.8</ele>
        <time>2021-08-19T13:52:44Z</time>
      </trkpt>
      <trkpt lat="45.2604990" lon="6.2861850">
        <ele>1535.8</ele>
        <time>2021-08-19T13:52:47Z</time>
      </trkpt>
      <trkpt lat="45.2605390" lon="6.2860360">
        <ele>1536.4</ele>
        <time>2021-08-19T13:52:53Z</time>
      </trkpt>
      <trkpt lat="45.2605450" lon="6.2860090">
        <ele>1536.8</ele>
        <time>2021-08-19T13:52:54Z</time>
      </trkpt>
      <trkpt lat="45.2605680" lon="6.2858800">
        <ele>1537.8</ele>
        <time>2021-08-19T13:52:59Z</time>
      </trkpt>
      <trkpt lat="45.2605940" lon="6.2857550">
        <ele>1538.6</ele>
        <time>2021-08-19T13:53:04Z</time>
      </trkpt>
      <trkpt lat="45.2605950" lon="6.2857270">
        <ele>1538.8</ele>
        <time>2021-08-19T13:53:05Z</time>
      </trkpt>
      <trkpt lat="45.2606150" lon="6.2856200">
        <ele>1539.4</ele>
        <time>2021-08-19T13:53:09Z</time>
      </trkpt>
      <trkpt lat="45.2606360" lon="6.2855480">
        <ele>1540.0</ele>
        <time>2021-08-19T13:53:12Z</time>
      </trkpt>
      <trkpt lat="45.2606420" lon="6.2855240">
        <ele>1540.2</ele>
        <time>2021-08-19T13:53:13Z</time>
      </trkpt>
      <trkpt lat="45.2606600" lon="6.2854210">
        <ele>1541.0</ele>
        <time>2021-08-19T13:53:17Z</time>
      </trkpt>
      <trkpt lat="45.2606850" lon="6.2852790">
        <ele>1542.0</ele>
        <time>2021-08-19T13:53:22Z</time>
      </trkpt>
      <trkpt lat="45.2606900" lon="6.2852540">
        <ele>1542.0</ele>
        <time>2021-08-19T13:53:23Z</time>
      </trkpt>
      <trkpt lat="45.2607300" lon="6.2850650">
        <ele>1543.2</ele>
        <time>2021-08-19T13:53:30Z</time>
      </trkpt>
      <trkpt lat="45.2607380" lon="6.2849830">
        <ele>1544.0</ele>
        <time>2021-08-19T13:53:33Z</time>
      </trkpt>
      <trkpt lat="45.2607470" lon="6.2849270">
        <ele>1544.2</ele>
        <time>2021-08-19T13:53:35Z</time>
      </trkpt>
      <trkpt lat="45.2607820" lon="6.2847310">
        <ele>1545.2</ele>
        <time>2021-08-19T13:53:42Z</time>
      </trkpt>
      <trkpt lat="45.2607910" lon="6.2846750">
        <ele>1545.4</ele>
        <time>2021-08-19T13:53:44Z</time>
      </trkpt>
      <trkpt lat="45.2607960" lon="6.2846460">
        <ele>1545.6</ele>
        <time>2021-08-19T13:53:45Z</time>
      </trkpt>
      <trkpt lat="45.2608030" lon="6.2846170">
        <ele>1545.6</ele>
        <time>2021-08-19T13:53:46Z</time>
      </trkpt>
      <trkpt lat="45.2608100" lon="6.2845890">
        <ele>1545.8</ele>
        <time>2021-08-19T13:53:47Z</time>
      </trkpt>
      <trkpt lat="45.2608180" lon="6.2845600">
        <ele>1545.8</ele>
        <time>2021-08-19T13:53:48Z</time>
      </trkpt>
      <trkpt lat="45.2608370" lon="6.2844470">
        <ele>1546.4</ele>
        <time>2021-08-19T13:53:52Z</time>
      </trkpt>
      <trkpt lat="45.2608420" lon="6.2844160">
        <ele>1546.6</ele>
        <time>2021-08-19T13:53:53Z</time>
      </trkpt>
      <trkpt lat="45.2608830" lon="6.2842610">
        <ele>1547.2</ele>
        <time>2021-08-19T13:53:59Z</time>
      </trkpt>
      <trkpt lat="45.2609030" lon="6.2841630">
        <ele>1547.8</ele>
        <time>2021-08-19T13:54:03Z</time>
      </trkpt>
      <trkpt lat="45.2609130" lon="6.2841080">
        <ele>1548.4</ele>
        <time>2021-08-19T13:54:05Z</time>
      </trkpt>
      <trkpt lat="45.2609390" lon="6.2840090">
        <ele>1549.0</ele>
        <time>2021-08-19T13:54:09Z</time>
      </trkpt>
      <trkpt lat="45.2609550" lon="6.2839340">
        <ele>1549.4</ele>
        <time>2021-08-19T13:54:12Z</time>
      </trkpt>
      <trkpt lat="45.2609700" lon="6.2838820">
        <ele>1549.6</ele>
        <time>2021-08-19T13:54:14Z</time>
      </trkpt>
      <trkpt lat="45.2610070" lon="6.2837890">
        <ele>1550.6</ele>
        <time>2021-08-19T13:54:18Z</time>
      </trkpt>
      <trkpt lat="45.2610380" lon="6.2836880">
        <ele>1551.4</ele>
        <time>2021-08-19T13:54:22Z</time>
      </trkpt>
      <trkpt lat="45.2610440" lon="6.2836610">
        <ele>1551.4</ele>
        <time>2021-08-19T13:54:23Z</time>
      </trkpt>
      <trkpt lat="45.2610590" lon="6.2836070">
        <ele>1551.6</ele>
        <time>2021-08-19T13:54:25Z</time>
      </trkpt>
      <trkpt lat="45.2610720" lon="6.2835580">
        <ele>1552.2</ele>
        <time>2021-08-19T13:54:27Z</time>
      </trkpt>
      <trkpt lat="45.2610790" lon="6.2835320">
        <ele>1552.2</ele>
        <time>2021-08-19T13:54:28Z</time>
      </trkpt>
      <trkpt lat="45.2610910" lon="6.2834760">
        <ele>1552.8</ele>
        <time>2021-08-19T13:54:30Z</time>
      </trkpt>
      <trkpt lat="45.2611300" lon="6.2833430">
        <ele>1553.8</ele>
        <time>2021-08-19T13:54:35Z</time>
      </trkpt>
      <trkpt lat="45.2611380" lon="6.2833180">
        <ele>1553.8</ele>
        <time>2021-08-19T13:54:36Z</time>
      </trkpt>
      <trkpt lat="45.2611590" lon="6.2832450">
        <ele>1554.2</ele>
        <time>2021-08-19T13:54:39Z</time>
      </trkpt>
      <trkpt lat="45.2611980" lon="6.2831520">
        <ele>1555.0</ele>
        <time>2021-08-19T13:54:43Z</time>
      </trkpt>
      <trkpt lat="45.2612080" lon="6.2831290">
        <ele>1555.0</ele>
        <time>2021-08-19T13:54:44Z</time>
      </trkpt>
      <trkpt lat="45.2612650" lon="6.2829790">
        <ele>1556.2</ele>
        <time>2021-08-19T13:54:50Z</time>
      </trkpt>
      <trkpt lat="45.2612790" lon="6.2829290">
        <ele>1556.6</ele>
        <time>2021-08-19T13:54:52Z</time>
      </trkpt>
      <trkpt lat="45.2613200" lon="6.2828410">
        <ele>1557.0</ele>
        <time>2021-08-19T13:54:56Z</time>
      </trkpt>
      <trkpt lat="45.2613580" lon="6.2827110">
        <ele>1558.0</ele>
        <time>2021-08-19T13:55:01Z</time>
      </trkpt>
      <trkpt lat="45.2613650" lon="6.2826840">
        <ele>1558.2</ele>
        <time>2021-08-19T13:55:02Z</time>
      </trkpt>
      <trkpt lat="45.2614140" lon="6.2825290">
        <ele>1559.4</ele>
        <time>2021-08-19T13:55:08Z</time>
      </trkpt>
      <trkpt lat="45.2614290" lon="6.2824750">
        <ele>1559.6</ele>
        <time>2021-08-19T13:55:10Z</time>
      </trkpt>
      <trkpt lat="45.2614580" lon="6.2823400">
        <ele>1560.6</ele>
        <time>2021-08-19T13:55:15Z</time>
      </trkpt>
      <trkpt lat="45.2614910" lon="6.2822070">
        <ele>1561.6</ele>
        <time>2021-08-19T13:55:20Z</time>
      </trkpt>
      <trkpt lat="45.2614960" lon="6.2821770">
        <ele>1561.8</ele>
        <time>2021-08-19T13:55:21Z</time>
      </trkpt>
      <trkpt lat="45.2614970" lon="6.2820640">
        <ele>1562.6</ele>
        <time>2021-08-19T13:55:25Z</time>
      </trkpt>
      <trkpt lat="45.2614870" lon="6.2819140">
        <ele>1563.4</ele>
        <time>2021-08-19T13:55:30Z</time>
      </trkpt>
      <trkpt lat="45.2614820" lon="6.2818830">
        <ele>1563.6</ele>
        <time>2021-08-19T13:55:31Z</time>
      </trkpt>
      <trkpt lat="45.2614590" lon="6.2816600">
        <ele>1564.8</ele>
        <time>2021-08-19T13:55:38Z</time>
      </trkpt>
      <trkpt lat="45.2614570" lon="6.2816290">
        <ele>1565.0</ele>
        <time>2021-08-19T13:55:39Z</time>
      </trkpt>
      <trkpt lat="45.2614490" lon="6.2815360">
        <ele>1565.8</ele>
        <time>2021-08-19T13:55:42Z</time>
      </trkpt>
      <trkpt lat="45.2614360" lon="6.2813970">
        <ele>1566.8</ele>
        <time>2021-08-19T13:55:47Z</time>
      </trkpt>
      <trkpt lat="45.2614350" lon="6.2813700">
        <ele>1567.0</ele>
        <time>2021-08-19T13:55:48Z</time>
      </trkpt>
      <trkpt lat="45.2614220" lon="6.2812410">
        <ele>1567.8</ele>
        <time>2021-08-19T13:55:53Z</time>
      </trkpt>
      <trkpt lat="45.2614210" lon="6.2812180">
        <ele>1568.0</ele>
        <time>2021-08-19T13:55:54Z</time>
      </trkpt>
      <trkpt lat="45.2614180" lon="6.2811900">
        <ele>1568.0</ele>
        <time>2021-08-19T13:55:55Z</time>
      </trkpt>
      <trkpt lat="45.2614160" lon="6.2811420">
        <ele>1568.2</ele>
        <time>2021-08-19T13:55:57Z</time>
      </trkpt>
      <trkpt lat="45.2614080" lon="6.2810270">
        <ele>1569.0</ele>
        <time>2021-08-19T13:56:02Z</time>
      </trkpt>
      <trkpt lat="45.2614060" lon="6.2810010">
        <ele>1569.2</ele>
        <time>2021-08-19T13:56:03Z</time>
      </trkpt>
      <trkpt lat="45.2613930" lon="6.2808960">
        <ele>1570.0</ele>
        <time>2021-08-19T13:56:07Z</time>
      </trkpt>
      <trkpt lat="45.2613830" lon="6.2807280">
        <ele>1570.8</ele>
        <time>2021-08-19T13:56:13Z</time>
      </trkpt>
      <trkpt lat="45.2613740" lon="6.2806330">
        <ele>1571.4</ele>
        <time>2021-08-19T13:56:16Z</time>
      </trkpt>
      <trkpt lat="45.2613550" lon="6.2804780">
        <ele>1572.0</ele>
        <time>2021-08-19T13:56:21Z</time>
      </trkpt>
      <trkpt lat="45.2613520" lon="6.2804150">
        <ele>1572.2</ele>
        <time>2021-08-19T13:56:23Z</time>
      </trkpt>
      <trkpt lat="45.2613330" lon="6.2802480">
        <ele>1573.2</ele>
        <time>2021-08-19T13:56:28Z</time>
      </trkpt>
      <trkpt lat="45.2613290" lon="6.2802180">
        <ele>1573.6</ele>
        <time>2021-08-19T13:56:29Z</time>
      </trkpt>
      <trkpt lat="45.2613140" lon="6.2801620">
        <ele>1574.0</ele>
        <time>2021-08-19T13:56:31Z</time>
      </trkpt>
      <trkpt lat="45.2612780" lon="6.2800920">
        <ele>1574.6</ele>
        <time>2021-08-19T13:56:34Z</time>
      </trkpt>
      <trkpt lat="45.2612280" lon="6.2800050">
        <ele>1575.8</ele>
        <time>2021-08-19T13:56:38Z</time>
      </trkpt>
      <trkpt lat="45.2612090" lon="6.2799820">
        <ele>1576.2</ele>
        <time>2021-08-19T13:56:39Z</time>
      </trkpt>
      <trkpt lat="45.2611370" lon="6.2799180">
        <ele>1577.2</ele>
        <time>2021-08-19T13:56:43Z</time>
      </trkpt>
      <trkpt lat="45.2610970" lon="6.2798970">
        <ele>1577.8</ele>
        <time>2021-08-19T13:56:45Z</time>
      </trkpt>
      <trkpt lat="45.2610610" lon="6.2798800">
        <ele>1578.0</ele>
        <time>2021-08-19T13:56:47Z</time>
      </trkpt>
      <trkpt lat="45.2610410" lon="6.2798730">
        <ele>1578.2</ele>
        <time>2021-08-19T13:56:48Z</time>
      </trkpt>
      <trkpt lat="45.2609430" lon="6.2798440">
        <ele>1579.4</ele>
        <time>2021-08-19T13:56:53Z</time>
      </trkpt>
      <trkpt lat="45.2609250" lon="6.2798380">
        <ele>1579.6</ele>
        <time>2021-08-19T13:56:54Z</time>
      </trkpt>
      <trkpt lat="45.2608530" lon="6.2798100">
        <ele>1580.6</ele>
        <time>2021-08-19T13:56:58Z</time>
      </trkpt>
      <trkpt lat="45.2607640" lon="6.2797780">
        <ele>1581.4</ele>
        <time>2021-08-19T13:57:03Z</time>
      </trkpt>
      <trkpt lat="45.2607450" lon="6.2797720">
        <ele>1581.6</ele>
        <time>2021-08-19T13:57:04Z</time>
      </trkpt>
      <trkpt lat="45.2607260" lon="6.2797690">
        <ele>1581.8</ele>
        <time>2021-08-19T13:57:05Z</time>
      </trkpt>
      <trkpt lat="45.2606170" lon="6.2797290">
        <ele>1583.2</ele>
        <time>2021-08-19T13:57:11Z</time>
      </trkpt>
      <trkpt lat="45.2605460" lon="6.2796990">
        <ele>1584.2</ele>
        <time>2021-08-19T13:57:15Z</time>
      </trkpt>
      <trkpt lat="45.2604890" lon="6.2796770">
        <ele>1584.6</ele>
        <time>2021-08-19T13:57:18Z</time>
      </trkpt>
      <trkpt lat="45.2604310" lon="6.2796520">
        <ele>1585.2</ele>
        <time>2021-08-19T13:57:21Z</time>
      </trkpt>
      <trkpt lat="45.2603410" lon="6.2795950">
        <ele>1585.6</ele>
        <time>2021-08-19T13:57:26Z</time>
      </trkpt>
      <trkpt lat="45.2603070" lon="6.2795710">
        <ele>1586.4</ele>
        <time>2021-08-19T13:57:28Z</time>
      </trkpt>
      <trkpt lat="45.2601930" lon="6.2794580">
        <ele>1587.4</ele>
        <time>2021-08-19T13:57:35Z</time>
      </trkpt>
      <trkpt lat="45.2601650" lon="6.2794190">
        <ele>1587.8</ele>
        <time>2021-08-19T13:57:37Z</time>
      </trkpt>
      <trkpt lat="45.2601130" lon="6.2793300">
        <ele>1588.4</ele>
        <time>2021-08-19T13:57:41Z</time>
      </trkpt>
      <trkpt lat="45.2600550" lon="6.2791960">
        <ele>1589.4</ele>
        <time>2021-08-19T13:57:46Z</time>
      </trkpt>
      <trkpt lat="45.2600460" lon="6.2791770">
        <ele>1589.6</ele>
        <time>2021-08-19T13:57:47Z</time>
      </trkpt>
      <trkpt lat="45.2599980" lon="6.2790310">
        <ele>1590.4</ele>
        <time>2021-08-19T13:57:53Z</time>
      </trkpt>
      <trkpt lat="45.2599910" lon="6.2790060">
        <ele>1590.6</ele>
        <time>2021-08-19T13:57:54Z</time>
      </trkpt>
      <trkpt lat="45.2599660" lon="6.2788420">
        <ele>1591.8</ele>
        <time>2021-08-19T13:58:00Z</time>
      </trkpt>
      <trkpt lat="45.2599710" lon="6.2786770">
        <ele>1592.8</ele>
        <time>2021-08-19T13:58:06Z</time>
      </trkpt>
      <trkpt lat="45.2599790" lon="6.2786230">
        <ele>1593.0</ele>
        <time>2021-08-19T13:58:08Z</time>
      </trkpt>
      <trkpt lat="45.2599980" lon="6.2785440">
        <ele>1594.0</ele>
        <time>2021-08-19T13:58:11Z</time>
      </trkpt>
      <trkpt lat="45.2600400" lon="6.2784270">
        <ele>1595.2</ele>
        <time>2021-08-19T13:58:16Z</time>
      </trkpt>
      <trkpt lat="45.2600910" lon="6.2783180">
        <ele>1595.8</ele>
        <time>2021-08-19T13:58:21Z</time>
      </trkpt>
      <trkpt lat="45.2601150" lon="6.2782470">
        <ele>1596.2</ele>
        <time>2021-08-19T13:58:24Z</time>
      </trkpt>
      <trkpt lat="45.2601320" lon="6.2782000">
        <ele>1596.2</ele>
        <time>2021-08-19T13:58:26Z</time>
      </trkpt>
      <trkpt lat="45.2601820" lon="6.2780910">
        <ele>1597.0</ele>
        <time>2021-08-19T13:58:31Z</time>
      </trkpt>
      <trkpt lat="45.2602270" lon="6.2779860">
        <ele>1598.2</ele>
        <time>2021-08-19T13:58:36Z</time>
      </trkpt>
      <trkpt lat="45.2602690" lon="6.2778960">
        <ele>1599.2</ele>
        <time>2021-08-19T13:58:40Z</time>
      </trkpt>
      <trkpt lat="45.2603130" lon="6.2777720">
        <ele>1599.8</ele>
        <time>2021-08-19T13:58:45Z</time>
      </trkpt>
      <trkpt lat="45.2603400" lon="6.2777210">
        <ele>1600.2</ele>
        <time>2021-08-19T13:58:47Z</time>
      </trkpt>
      <trkpt lat="45.2604080" lon="6.2775740">
        <ele>1601.2</ele>
        <time>2021-08-19T13:58:53Z</time>
      </trkpt>
      <trkpt lat="45.2604200" lon="6.2775490">
        <ele>1601.4</ele>
        <time>2021-08-19T13:58:54Z</time>
      </trkpt>
      <trkpt lat="45.2604690" lon="6.2774020">
        <ele>1602.6</ele>
        <time>2021-08-19T13:59:00Z</time>
      </trkpt>
      <trkpt lat="45.2605210" lon="6.2772760">
        <ele>1603.6</ele>
        <time>2021-08-19T13:59:05Z</time>
      </trkpt>
      <trkpt lat="45.2605510" lon="6.2771960">
        <ele>1604.0</ele>
        <time>2021-08-19T13:59:08Z</time>
      </trkpt>
      <trkpt lat="45.2606000" lon="6.2770430">
        <ele>1605.0</ele>
        <time>2021-08-19T13:59:14Z</time>
      </trkpt>
      <trkpt lat="45.2606290" lon="6.2769670">
        <ele>1605.8</ele>
        <time>2021-08-19T13:59:17Z</time>
      </trkpt>
      <trkpt lat="45.2606450" lon="6.2769170">
        <ele>1606.0</ele>
        <time>2021-08-19T13:59:19Z</time>
      </trkpt>
      <trkpt lat="45.2606720" lon="6.2767840">
        <ele>1607.0</ele>
        <time>2021-08-19T13:59:24Z</time>
      </trkpt>
      <trkpt lat="45.2606770" lon="6.2767590">
        <ele>1607.2</ele>
        <time>2021-08-19T13:59:25Z</time>
      </trkpt>
      <trkpt lat="45.2606700" lon="6.2765630">
        <ele>1608.2</ele>
        <time>2021-08-19T13:59:32Z</time>
      </trkpt>
      <trkpt lat="45.2606630" lon="6.2765330">
        <ele>1608.2</ele>
        <time>2021-08-19T13:59:33Z</time>
      </trkpt>
      <trkpt lat="45.2606290" lon="6.2763890">
        <ele>1608.8</ele>
        <time>2021-08-19T13:59:38Z</time>
      </trkpt>
      <trkpt lat="45.2606080" lon="6.2763410">
        <ele>1609.0</ele>
        <time>2021-08-19T13:59:40Z</time>
      </trkpt>
      <trkpt lat="45.2605630" lon="6.2762290">
        <ele>1610.0</ele>
        <time>2021-08-19T13:59:45Z</time>
      </trkpt>
      <trkpt lat="45.2605560" lon="6.2762050">
        <ele>1610.2</ele>
        <time>2021-08-19T13:59:46Z</time>
      </trkpt>
      <trkpt lat="45.2605170" lon="6.2760780">
        <ele>1611.2</ele>
        <time>2021-08-19T13:59:51Z</time>
      </trkpt>
      <trkpt lat="45.2604860" lon="6.2760080">
        <ele>1611.6</ele>
        <time>2021-08-19T13:59:54Z</time>
      </trkpt>
      <trkpt lat="45.2604610" lon="6.2759410">
        <ele>1612.2</ele>
        <time>2021-08-19T13:59:57Z</time>
      </trkpt>
      <trkpt lat="45.2604210" lon="6.2758220">
        <ele>1613.0</ele>
        <time>2021-08-19T14:00:02Z</time>
      </trkpt>
      <trkpt lat="45.2604130" lon="6.2757990">
        <ele>1613.4</ele>
        <time>2021-08-19T14:00:03Z</time>
      </trkpt>
      <trkpt lat="45.2603490" lon="6.2756660">
        <ele>1614.2</ele>
        <time>2021-08-19T14:00:09Z</time>
      </trkpt>
      <trkpt lat="45.2603340" lon="6.2756430">
        <ele>1614.6</ele>
        <time>2021-08-19T14:00:10Z</time>
      </trkpt>
      <trkpt lat="45.2602620" lon="6.2755710">
        <ele>1615.6</ele>
        <time>2021-08-19T14:00:15Z</time>
      </trkpt>
      <trkpt lat="45.2602470" lon="6.2755610">
        <ele>1615.8</ele>
        <time>2021-08-19T14:00:16Z</time>
      </trkpt>
      <trkpt lat="45.2601610" lon="6.2755160">
        <ele>1616.8</ele>
        <time>2021-08-19T14:00:21Z</time>
      </trkpt>
      <trkpt lat="45.2600920" lon="6.2755020">
        <ele>1617.6</ele>
        <time>2021-08-19T14:00:25Z</time>
      </trkpt>
      <trkpt lat="45.2600750" lon="6.2755050">
        <ele>1617.6</ele>
        <time>2021-08-19T14:00:26Z</time>
      </trkpt>
      <trkpt lat="45.2599860" lon="6.2754970">
        <ele>1618.6</ele>
        <time>2021-08-19T14:00:31Z</time>
      </trkpt>
      <trkpt lat="45.2598940" lon="6.2754800">
        <ele>1619.8</ele>
        <time>2021-08-19T14:00:36Z</time>
      </trkpt>
      <trkpt lat="45.2598200" lon="6.2754550">
        <ele>1620.6</ele>
        <time>2021-08-19T14:00:40Z</time>
      </trkpt>
      <trkpt lat="45.2597810" lon="6.2754370">
        <ele>1620.8</ele>
        <time>2021-08-19T14:00:42Z</time>
      </trkpt>
      <trkpt lat="45.2597620" lon="6.2754240">
        <ele>1620.8</ele>
        <time>2021-08-19T14:00:43Z</time>
      </trkpt>
      <trkpt lat="45.2596890" lon="6.2753430">
        <ele>1621.8</ele>
        <time>2021-08-19T14:00:48Z</time>
      </trkpt>
      <trkpt lat="45.2596130" lon="6.2752460">
        <ele>1622.8</ele>
        <time>2021-08-19T14:00:53Z</time>
      </trkpt>
      <trkpt lat="45.2595690" lon="6.2751840">
        <ele>1623.0</ele>
        <time>2021-08-19T14:00:56Z</time>
      </trkpt>
      <trkpt lat="45.2594750" lon="6.2750850">
        <ele>1623.8</ele>
        <time>2021-08-19T14:01:02Z</time>
      </trkpt>
      <trkpt lat="45.2594540" lon="6.2750440">
        <ele>1624.2</ele>
        <time>2021-08-19T14:01:04Z</time>
      </trkpt>
      <trkpt lat="45.2594160" lon="6.2749970">
        <ele>1624.8</ele>
        <time>2021-08-19T14:01:07Z</time>
      </trkpt>
      <trkpt lat="45.2593920" lon="6.2749650">
        <ele>1625.4</ele>
        <time>2021-08-19T14:01:09Z</time>
      </trkpt>
      <trkpt lat="45.2593780" lon="6.2749460">
        <ele>1625.8</ele>
        <time>2021-08-19T14:01:10Z</time>
      </trkpt>
      <trkpt lat="45.2593640" lon="6.2749280">
        <ele>1625.8</ele>
        <time>2021-08-19T14:01:11Z</time>
      </trkpt>
      <trkpt lat="45.2593520" lon="6.2749080">
        <ele>1626.2</ele>
        <time>2021-08-19T14:01:12Z</time>
      </trkpt>
      <trkpt lat="45.2593370" lon="6.2748880">
        <ele>1626.4</ele>
        <time>2021-08-19T14:01:13Z</time>
      </trkpt>
      <trkpt lat="45.2593120" lon="6.2748460">
        <ele>1626.8</ele>
        <time>2021-08-19T14:01:15Z</time>
      </trkpt>
      <trkpt lat="45.2592870" lon="6.2748020">
        <ele>1627.2</ele>
        <time>2021-08-19T14:01:17Z</time>
      </trkpt>
      <trkpt lat="45.2592390" lon="6.2747390">
        <ele>1627.4</ele>
        <time>2021-08-19T14:01:20Z</time>
      </trkpt>
      <trkpt lat="45.2592220" lon="6.2747230">
        <ele>1627.6</ele>
        <time>2021-08-19T14:01:21Z</time>
      </trkpt>
      <trkpt lat="45.2592060" lon="6.2747020">
        <ele>1627.6</ele>
        <time>2021-08-19T14:01:22Z</time>
      </trkpt>
      <trkpt lat="45.2591910" lon="6.2746800">
        <ele>1627.6</ele>
        <time>2021-08-19T14:01:23Z</time>
      </trkpt>
      <trkpt lat="45.2591760" lon="6.2746600">
        <ele>1627.8</ele>
        <time>2021-08-19T14:01:24Z</time>
      </trkpt>
      <trkpt lat="45.2591600" lon="6.2746440">
        <ele>1628.0</ele>
        <time>2021-08-19T14:01:25Z</time>
      </trkpt>
      <trkpt lat="45.2591430" lon="6.2746240">
        <ele>1628.2</ele>
        <time>2021-08-19T14:01:26Z</time>
      </trkpt>
      <trkpt lat="45.2590950" lon="6.2745810">
        <ele>1628.4</ele>
        <time>2021-08-19T14:01:29Z</time>
      </trkpt>
      <trkpt lat="45.2590540" lon="6.2745410">
        <ele>1629.2</ele>
        <time>2021-08-19T14:01:32Z</time>
      </trkpt>
      <trkpt lat="45.2590040" lon="6.2744990">
        <ele>1630.0</ele>
        <time>2021-08-19T14:01:36Z</time>
      </trkpt>
      <trkpt lat="45.2589900" lon="6.2744860">
        <ele>1630.2</ele>
        <time>2021-08-19T14:01:37Z</time>
      </trkpt>
      <trkpt lat="45.2589120" lon="6.2744090">
        <ele>1631.4</ele>
        <time>2021-08-19T14:01:42Z</time>
      </trkpt>
      <trkpt lat="45.2588960" lon="6.2743930">
        <ele>1631.6</ele>
        <time>2021-08-19T14:01:43Z</time>
      </trkpt>
      <trkpt lat="45.2588770" lon="6.2743800">
        <ele>1631.6</ele>
        <time>2021-08-19T14:01:44Z</time>
      </trkpt>
      <trkpt lat="45.2588560" lon="6.2743700">
        <ele>1631.8</ele>
        <time>2021-08-19T14:01:45Z</time>
      </trkpt>
      <trkpt lat="45.2587860" lon="6.2743300">
        <ele>1632.6</ele>
        <time>2021-08-19T14:01:49Z</time>
      </trkpt>
      <trkpt lat="45.2586980" lon="6.2742880">
        <ele>1633.6</ele>
        <time>2021-08-19T14:01:54Z</time>
      </trkpt>
      <trkpt lat="45.2586800" lon="6.2742810">
        <ele>1633.8</ele>
        <time>2021-08-19T14:01:55Z</time>
      </trkpt>
      <trkpt lat="45.2585990" lon="6.2742540">
        <ele>1634.6</ele>
        <time>2021-08-19T14:02:00Z</time>
      </trkpt>
      <trkpt lat="45.2585540" lon="6.2742460">
        <ele>1635.2</ele>
        <time>2021-08-19T14:02:03Z</time>
      </trkpt>
      <trkpt lat="45.2585070" lon="6.2742310">
        <ele>1635.4</ele>
        <time>2021-08-19T14:02:06Z</time>
      </trkpt>
      <trkpt lat="45.2584900" lon="6.2742340">
        <ele>1635.6</ele>
        <time>2021-08-19T14:02:07Z</time>
      </trkpt>
      <trkpt lat="45.2584330" lon="6.2742290">
        <ele>1636.4</ele>
        <time>2021-08-19T14:02:10Z</time>
      </trkpt>
      <trkpt lat="45.2584160" lon="6.2742240">
        <ele>1636.6</ele>
        <time>2021-08-19T14:02:11Z</time>
      </trkpt>
      <trkpt lat="45.2583980" lon="6.2742200">
        <ele>1636.6</ele>
        <time>2021-08-19T14:02:12Z</time>
      </trkpt>
      <trkpt lat="45.2582540" lon="6.2741850">
        <ele>1637.8</ele>
        <time>2021-08-19T14:02:20Z</time>
      </trkpt>
      <trkpt lat="45.2581730" lon="6.2741170">
        <ele>1638.8</ele>
        <time>2021-08-19T14:02:25Z</time>
      </trkpt>
      <trkpt lat="45.2581260" lon="6.2740700">
        <ele>1639.2</ele>
        <time>2021-08-19T14:02:28Z</time>
      </trkpt>
      <trkpt lat="45.2580640" lon="6.2739750">
        <ele>1640.0</ele>
        <time>2021-08-19T14:02:33Z</time>
      </trkpt>
      <trkpt lat="45.2580360" lon="6.2739130">
        <ele>1640.4</ele>
        <time>2021-08-19T14:02:36Z</time>
      </trkpt>
      <trkpt lat="45.2580070" lon="6.2738470">
        <ele>1641.0</ele>
        <time>2021-08-19T14:02:39Z</time>
      </trkpt>
      <trkpt lat="45.2579720" lon="6.2737910">
        <ele>1641.6</ele>
        <time>2021-08-19T14:02:42Z</time>
      </trkpt>
      <trkpt lat="45.2579290" lon="6.2737120">
        <ele>1642.0</ele>
        <time>2021-08-19T14:02:46Z</time>
      </trkpt>
      <trkpt lat="45.2578670" lon="6.2736050">
        <ele>1643.2</ele>
        <time>2021-08-19T14:02:51Z</time>
      </trkpt>
      <trkpt lat="45.2578090" lon="6.2735030">
        <ele>1643.8</ele>
        <time>2021-08-19T14:02:56Z</time>
      </trkpt>
      <trkpt lat="45.2577740" lon="6.2734450">
        <ele>1644.6</ele>
        <time>2021-08-19T14:02:59Z</time>
      </trkpt>
      <trkpt lat="45.2577040" lon="6.2733240">
        <ele>1645.2</ele>
        <time>2021-08-19T14:03:05Z</time>
      </trkpt>
      <trkpt lat="45.2576800" lon="6.2732830">
        <ele>1645.6</ele>
        <time>2021-08-19T14:03:07Z</time>
      </trkpt>
      <trkpt lat="45.2575960" lon="6.2731860">
        <ele>1646.6</ele>
        <time>2021-08-19T14:03:13Z</time>
      </trkpt>
      <trkpt lat="45.2575520" lon="6.2731440">
        <ele>1647.0</ele>
        <time>2021-08-19T14:03:16Z</time>
      </trkpt>
      <trkpt lat="45.2574780" lon="6.2730840">
        <ele>1647.8</ele>
        <time>2021-08-19T14:03:21Z</time>
      </trkpt>
      <trkpt lat="45.2574240" lon="6.2730500">
        <ele>1648.4</ele>
        <time>2021-08-19T14:03:24Z</time>
      </trkpt>
      <trkpt lat="45.2573660" lon="6.2730210">
        <ele>1648.8</ele>
        <time>2021-08-19T14:03:27Z</time>
      </trkpt>
      <trkpt lat="45.2572740" lon="6.2729760">
        <ele>1650.0</ele>
        <time>2021-08-19T14:03:32Z</time>
      </trkpt>
      <trkpt lat="45.2571480" lon="6.2729090">
        <ele>1650.8</ele>
        <time>2021-08-19T14:03:39Z</time>
      </trkpt>
      <trkpt lat="45.2571310" lon="6.2729000">
        <ele>1651.0</ele>
        <time>2021-08-19T14:03:40Z</time>
      </trkpt>
      <trkpt lat="45.2570420" lon="6.2728560">
        <ele>1652.4</ele>
        <time>2021-08-19T14:03:45Z</time>
      </trkpt>
      <trkpt lat="45.2570060" lon="6.2728340">
        <ele>1652.6</ele>
        <time>2021-08-19T14:03:47Z</time>
      </trkpt>
      <trkpt lat="45.2569150" lon="6.2727710">
        <ele>1653.6</ele>
        <time>2021-08-19T14:03:52Z</time>
      </trkpt>
      <trkpt lat="45.2568490" lon="6.2727140">
        <ele>1654.0</ele>
        <time>2021-08-19T14:03:56Z</time>
      </trkpt>
      <trkpt lat="45.2568020" lon="6.2726650">
        <ele>1654.8</ele>
        <time>2021-08-19T14:03:59Z</time>
      </trkpt>
      <trkpt lat="45.2567140" lon="6.2725160">
        <ele>1655.6</ele>
        <time>2021-08-19T14:04:06Z</time>
      </trkpt>
      <trkpt lat="45.2567030" lon="6.2724940">
        <ele>1655.6</ele>
        <time>2021-08-19T14:04:07Z</time>
      </trkpt>
      <trkpt lat="45.2566750" lon="6.2724210">
        <ele>1656.0</ele>
        <time>2021-08-19T14:04:10Z</time>
      </trkpt>
      <trkpt lat="45.2566510" lon="6.2723460">
        <ele>1656.6</ele>
        <time>2021-08-19T14:04:13Z</time>
      </trkpt>
      <trkpt lat="45.2566340" lon="6.2722990">
        <ele>1657.2</ele>
        <time>2021-08-19T14:04:15Z</time>
      </trkpt>
      <trkpt lat="45.2565440" lon="6.2721110">
        <ele>1657.6</ele>
        <time>2021-08-19T14:04:23Z</time>
      </trkpt>
      <trkpt lat="45.2565280" lon="6.2720910">
        <ele>1657.8</ele>
        <time>2021-08-19T14:04:24Z</time>
      </trkpt>
      <trkpt lat="45.2563890" lon="6.2719810">
        <ele>1658.8</ele>
        <time>2021-08-19T14:04:31Z</time>
      </trkpt>
      <trkpt lat="45.2562550" lon="6.2718990">
        <ele>1659.8</ele>
        <time>2021-08-19T14:04:38Z</time>
      </trkpt>
      <trkpt lat="45.2562360" lon="6.2718870">
        <ele>1660.2</ele>
        <time>2021-08-19T14:04:39Z</time>
      </trkpt>
      <trkpt lat="45.2561460" lon="6.2718230">
        <ele>1661.0</ele>
        <time>2021-08-19T14:04:44Z</time>
      </trkpt>
      <trkpt lat="45.2560480" lon="6.2717240">
        <ele>1661.4</ele>
        <time>2021-08-19T14:04:50Z</time>
      </trkpt>
      <trkpt lat="45.2560130" lon="6.2716900">
        <ele>1661.8</ele>
        <time>2021-08-19T14:04:52Z</time>
      </trkpt>
      <trkpt lat="45.2559670" lon="6.2716390">
        <ele>1663.0</ele>
        <time>2021-08-19T14:04:55Z</time>
      </trkpt>
      <trkpt lat="45.2559210" lon="6.2715840">
        <ele>1663.6</ele>
        <time>2021-08-19T14:04:58Z</time>
      </trkpt>
      <trkpt lat="45.2559050" lon="6.2715660">
        <ele>1663.6</ele>
        <time>2021-08-19T14:04:59Z</time>
      </trkpt>
      <trkpt lat="45.2558920" lon="6.2715460">
        <ele>1664.0</ele>
        <time>2021-08-19T14:05:00Z</time>
      </trkpt>
      <trkpt lat="45.2558790" lon="6.2715250">
        <ele>1664.0</ele>
        <time>2021-08-19T14:05:01Z</time>
      </trkpt>
      <trkpt lat="45.2558060" lon="6.2714240">
        <ele>1664.6</ele>
        <time>2021-08-19T14:05:06Z</time>
      </trkpt>
      <trkpt lat="45.2557600" lon="6.2713630">
        <ele>1665.2</ele>
        <time>2021-08-19T14:05:09Z</time>
      </trkpt>
      <trkpt lat="45.2556930" lon="6.2712600">
        <ele>1666.2</ele>
        <time>2021-08-19T14:05:14Z</time>
      </trkpt>
      <trkpt lat="45.2556110" lon="6.2711580">
        <ele>1667.4</ele>
        <time>2021-08-19T14:05:19Z</time>
      </trkpt>
      <trkpt lat="45.2555950" lon="6.2711360">
        <ele>1667.4</ele>
        <time>2021-08-19T14:05:20Z</time>
      </trkpt>
      <trkpt lat="45.2555310" lon="6.2710560">
        <ele>1667.6</ele>
        <time>2021-08-19T14:05:24Z</time>
      </trkpt>
      <trkpt lat="45.2554640" lon="6.2709810">
        <ele>1668.0</ele>
        <time>2021-08-19T14:05:28Z</time>
      </trkpt>
      <trkpt lat="45.2554470" lon="6.2709610">
        <ele>1668.2</ele>
        <time>2021-08-19T14:05:29Z</time>
      </trkpt>
      <trkpt lat="45.2553780" lon="6.2708600">
        <ele>1669.6</ele>
        <time>2021-08-19T14:05:34Z</time>
      </trkpt>
      <trkpt lat="45.2553450" lon="6.2708180">
        <ele>1670.0</ele>
        <time>2021-08-19T14:05:36Z</time>
      </trkpt>
      <trkpt lat="45.2552590" lon="6.2707170">
        <ele>1670.8</ele>
        <time>2021-08-19T14:05:42Z</time>
      </trkpt>
      <trkpt lat="45.2552420" lon="6.2706990">
        <ele>1671.0</ele>
        <time>2021-08-19T14:05:43Z</time>
      </trkpt>
      <trkpt lat="45.2551510" lon="6.2706430">
        <ele>1671.8</ele>
        <time>2021-08-19T14:05:48Z</time>
      </trkpt>
      <trkpt lat="45.2551070" lon="6.2706250">
        <ele>1672.4</ele>
        <time>2021-08-19T14:05:50Z</time>
      </trkpt>
      <trkpt lat="45.2550750" lon="6.2706080">
        <ele>1672.8</ele>
        <time>2021-08-19T14:05:52Z</time>
      </trkpt>
      <trkpt lat="45.2550200" lon="6.2705740">
        <ele>1673.2</ele>
        <time>2021-08-19T14:05:55Z</time>
      </trkpt>
      <trkpt lat="45.2549690" lon="6.2705390">
        <ele>1673.8</ele>
        <time>2021-08-19T14:05:58Z</time>
      </trkpt>
      <trkpt lat="45.2549530" lon="6.2705260">
        <ele>1674.0</ele>
        <time>2021-08-19T14:05:59Z</time>
      </trkpt>
      <trkpt lat="45.2548780" lon="6.2704290">
        <ele>1674.4</ele>
        <time>2021-08-19T14:06:05Z</time>
      </trkpt>
      <trkpt lat="45.2548680" lon="6.2704090">
        <ele>1674.6</ele>
        <time>2021-08-19T14:06:06Z</time>
      </trkpt>
      <trkpt lat="45.2548590" lon="6.2703910">
        <ele>1675.0</ele>
        <time>2021-08-19T14:06:07Z</time>
      </trkpt>
      <trkpt lat="45.2548260" lon="6.2702650">
        <ele>1676.0</ele>
        <time>2021-08-19T14:06:14Z</time>
      </trkpt>
      <trkpt lat="45.2549130" lon="6.2701770">
        <ele>1676.4</ele>
        <time>2021-08-19T14:06:20Z</time>
      </trkpt>
      <trkpt lat="45.2550160" lon="6.2700700">
        <ele>1677.2</ele>
        <time>2021-08-19T14:06:27Z</time>
      </trkpt>
      <trkpt lat="45.2550460" lon="6.2700360">
        <ele>1677.4</ele>
        <time>2021-08-19T14:06:29Z</time>
      </trkpt>
      <trkpt lat="45.2550940" lon="6.2699840">
        <ele>1678.2</ele>
        <time>2021-08-19T14:06:32Z</time>
      </trkpt>
      <trkpt lat="45.2551730" lon="6.2698760">
        <ele>1679.2</ele>
        <time>2021-08-19T14:06:38Z</time>
      </trkpt>
      <trkpt lat="45.2551830" lon="6.2698560">
        <ele>1679.6</ele>
        <time>2021-08-19T14:06:39Z</time>
      </trkpt>
      <trkpt lat="45.2552560" lon="6.2697030">
        <ele>1680.4</ele>
        <time>2021-08-19T14:06:46Z</time>
      </trkpt>
      <trkpt lat="45.2552620" lon="6.2696770">
        <ele>1680.6</ele>
        <time>2021-08-19T14:06:47Z</time>
      </trkpt>
      <trkpt lat="45.2552960" lon="6.2695190">
        <ele>1681.6</ele>
        <time>2021-08-19T14:06:53Z</time>
      </trkpt>
      <trkpt lat="45.2553010" lon="6.2694900">
        <ele>1681.8</ele>
        <time>2021-08-19T14:06:54Z</time>
      </trkpt>
      <trkpt lat="45.2553050" lon="6.2694610">
        <ele>1682.0</ele>
        <time>2021-08-19T14:06:55Z</time>
      </trkpt>
      <trkpt lat="45.2553150" lon="6.2693530">
        <ele>1683.0</ele>
        <time>2021-08-19T14:06:59Z</time>
      </trkpt>
      <trkpt lat="45.2553220" lon="6.2692410">
        <ele>1683.8</ele>
        <time>2021-08-19T14:07:03Z</time>
      </trkpt>
      <trkpt lat="45.2553260" lon="6.2690730">
        <ele>1684.2</ele>
        <time>2021-08-19T14:07:09Z</time>
      </trkpt>
      <trkpt lat="45.2553210" lon="6.2690170">
        <ele>1684.6</ele>
        <time>2021-08-19T14:07:11Z</time>
      </trkpt>
      <trkpt lat="45.2553180" lon="6.2689350">
        <ele>1685.2</ele>
        <time>2021-08-19T14:07:14Z</time>
      </trkpt>
      <trkpt lat="45.2553170" lon="6.2689070">
        <ele>1685.4</ele>
        <time>2021-08-19T14:07:15Z</time>
      </trkpt>
      <trkpt lat="45.2553180" lon="6.2688530">
        <ele>1686.0</ele>
        <time>2021-08-19T14:07:17Z</time>
      </trkpt>
      <trkpt lat="45.2553200" lon="6.2688000">
        <ele>1686.4</ele>
        <time>2021-08-19T14:07:19Z</time>
      </trkpt>
      <trkpt lat="45.2553130" lon="6.2686100">
        <ele>1687.6</ele>
        <time>2021-08-19T14:07:25Z</time>
      </trkpt>
      <trkpt lat="45.2553130" lon="6.2686100">
        <ele>1688.0</ele>
        <time>2021-08-19T14:07:26Z</time>
      </trkpt>
      <trkpt lat="45.2553010" lon="6.2684990">
        <ele>1688.8</ele>
        <time>2021-08-19T14:07:30Z</time>
      </trkpt>
      <trkpt lat="45.2552870" lon="6.2683730">
        <ele>1689.8</ele>
        <time>2021-08-19T14:07:35Z</time>
      </trkpt>
      <trkpt lat="45.2552480" lon="6.2681180">
        <ele>1690.6</ele>
        <time>2021-08-19T14:07:43Z</time>
      </trkpt>
      <trkpt lat="45.2552350" lon="6.2679980">
        <ele>1691.6</ele>
        <time>2021-08-19T14:07:47Z</time>
      </trkpt>
      <trkpt lat="45.2552280" lon="6.2677260">
        <ele>1692.6</ele>
        <time>2021-08-19T14:07:56Z</time>
      </trkpt>
      <trkpt lat="45.2552280" lon="6.2677260">
        <ele>1692.8</ele>
        <time>2021-08-19T14:07:57Z</time>
      </trkpt>
      <trkpt lat="45.2552110" lon="6.2675130">
        <ele>1693.8</ele>
        <time>2021-08-19T14:08:03Z</time>
      </trkpt>
      <trkpt lat="45.2552080" lon="6.2674810">
        <ele>1694.0</ele>
        <time>2021-08-19T14:08:04Z</time>
      </trkpt>
      <trkpt lat="45.2551970" lon="6.2673560">
        <ele>1694.6</ele>
        <time>2021-08-19T14:08:08Z</time>
      </trkpt>
      <trkpt lat="45.2551930" lon="6.2673240">
        <ele>1694.8</ele>
        <time>2021-08-19T14:08:10Z</time>
      </trkpt>
      <trkpt lat="45.2551770" lon="6.2671660">
        <ele>1696.0</ele>
        <time>2021-08-19T14:08:15Z</time>
      </trkpt>
      <trkpt lat="45.2551670" lon="6.2670780">
        <ele>1696.2</ele>
        <time>2021-08-19T14:08:18Z</time>
      </trkpt>
      <trkpt lat="45.2551430" lon="6.2669150">
        <ele>1697.0</ele>
        <time>2021-08-19T14:08:23Z</time>
      </trkpt>
      <trkpt lat="45.2551170" lon="6.2668140">
        <ele>1697.4</ele>
        <time>2021-08-19T14:08:26Z</time>
      </trkpt>
      <trkpt lat="45.2550760" lon="6.2666090">
        <ele>1698.0</ele>
        <time>2021-08-19T14:08:31Z</time>
      </trkpt>
      <trkpt lat="45.2550540" lon="6.2665080">
        <ele>1698.0</ele>
        <time>2021-08-19T14:08:34Z</time>
      </trkpt>
      <trkpt lat="45.2549970" lon="6.2663230">
        <ele>1698.6</ele>
        <time>2021-08-19T14:08:40Z</time>
      </trkpt>
      <trkpt lat="45.2549970" lon="6.2663230">
        <ele>1698.8</ele>
        <time>2021-08-19T14:08:41Z</time>
      </trkpt>
      <trkpt lat="45.2549420" lon="6.2661400">
        <ele>1700.0</ele>
        <time>2021-08-19T14:08:46Z</time>
      </trkpt>
      <trkpt lat="45.2549090" lon="6.2660000">
        <ele>1700.8</ele>
        <time>2021-08-19T14:08:50Z</time>
      </trkpt>
      <trkpt lat="45.2549020" lon="6.2659720">
        <ele>1700.8</ele>
        <time>2021-08-19T14:08:51Z</time>
      </trkpt>
      <trkpt lat="45.2548940" lon="6.2659350">
        <ele>1701.0</ele>
        <time>2021-08-19T14:08:52Z</time>
      </trkpt>
      <trkpt lat="45.2548500" lon="6.2656330">
        <ele>1702.0</ele>
        <time>2021-08-19T14:09:00Z</time>
      </trkpt>
      <trkpt lat="45.2548480" lon="6.2656000">
        <ele>1702.2</ele>
        <time>2021-08-19T14:09:01Z</time>
      </trkpt>
      <trkpt lat="45.2548440" lon="6.2655310">
        <ele>1702.4</ele>
        <time>2021-08-19T14:09:03Z</time>
      </trkpt>
      <trkpt lat="45.2548410" lon="6.2654940">
        <ele>1702.4</ele>
        <time>2021-08-19T14:09:04Z</time>
      </trkpt>
      <trkpt lat="45.2548360" lon="6.2654570">
        <ele>1702.6</ele>
        <time>2021-08-19T14:09:05Z</time>
      </trkpt>
      <trkpt lat="45.2548320" lon="6.2654200">
        <ele>1702.8</ele>
        <time>2021-08-19T14:09:06Z</time>
      </trkpt>
      <trkpt lat="45.2548280" lon="6.2653820">
        <ele>1702.8</ele>
        <time>2021-08-19T14:09:07Z</time>
      </trkpt>
      <trkpt lat="45.2548280" lon="6.2653820">
        <ele>1703.0</ele>
        <time>2021-08-19T14:09:08Z</time>
      </trkpt>
      <trkpt lat="45.2548210" lon="6.2652630">
        <ele>1703.0</ele>
        <time>2021-08-19T14:09:10Z</time>
      </trkpt>
      <trkpt lat="45.2548030" lon="6.2651400">
        <ele>1703.2</ele>
        <time>2021-08-19T14:09:14Z</time>
      </trkpt>
      <trkpt lat="45.2547730" lon="6.2649340">
        <ele>1703.6</ele>
        <time>2021-08-19T14:09:18Z</time>
      </trkpt>
      <trkpt lat="45.2547460" lon="6.2647740">
        <ele>1704.2</ele>
        <time>2021-08-19T14:09:22Z</time>
      </trkpt>
      <trkpt lat="45.2547310" lon="6.2646910">
        <ele>1704.2</ele>
        <time>2021-08-19T14:09:24Z</time>
      </trkpt>
      <trkpt lat="45.2547160" lon="6.2646030">
        <ele>1704.4</ele>
        <time>2021-08-19T14:09:26Z</time>
      </trkpt>
      <trkpt lat="45.2547080" lon="6.2645600">
        <ele>1704.4</ele>
        <time>2021-08-19T14:09:27Z</time>
      </trkpt>
      <trkpt lat="45.2546870" lon="6.2644290">
        <ele>1704.8</ele>
        <time>2021-08-19T14:09:30Z</time>
      </trkpt>
      <trkpt lat="45.2546730" lon="6.2643560">
        <ele>1705.0</ele>
        <time>2021-08-19T14:09:32Z</time>
      </trkpt>
      <trkpt lat="45.2546600" lon="6.2642540">
        <ele>1705.0</ele>
        <time>2021-08-19T14:09:35Z</time>
      </trkpt>
      <trkpt lat="45.2546540" lon="6.2641710">
        <ele>1705.2</ele>
        <time>2021-08-19T14:09:37Z</time>
      </trkpt>
      <trkpt lat="45.2546320" lon="6.2639560">
        <ele>1705.6</ele>
        <time>2021-08-19T14:09:42Z</time>
      </trkpt>
      <trkpt lat="45.2545740" lon="6.2636490">
        <ele>1706.0</ele>
        <time>2021-08-19T14:09:49Z</time>
      </trkpt>
      <trkpt lat="45.2545270" lon="6.2634200">
        <ele>1706.0</ele>
        <time>2021-08-19T14:09:54Z</time>
      </trkpt>
      <trkpt lat="45.2545120" lon="6.2633250">
        <ele>1706.2</ele>
        <time>2021-08-19T14:09:56Z</time>
      </trkpt>
      <trkpt lat="45.2544720" lon="6.2631430">
        <ele>1706.2</ele>
        <time>2021-08-19T14:10:00Z</time>
      </trkpt>
      <trkpt lat="45.2544330" lon="6.2629620">
        <ele>1706.4</ele>
        <time>2021-08-19T14:10:05Z</time>
      </trkpt>
      <trkpt lat="45.2543500" lon="6.2626440">
        <ele>1707.0</ele>
        <time>2021-08-19T14:10:12Z</time>
      </trkpt>
      <trkpt lat="45.2543020" lon="6.2624460">
        <ele>1707.2</ele>
        <time>2021-08-19T14:10:15Z</time>
      </trkpt>
      <trkpt lat="45.2542910" lon="6.2624010">
        <ele>1707.2</ele>
        <time>2021-08-19T14:10:16Z</time>
      </trkpt>
      <trkpt lat="45.2542500" lon="6.2622140">
        <ele>1707.2</ele>
        <time>2021-08-19T14:10:20Z</time>
      </trkpt>
      <trkpt lat="45.2542400" lon="6.2621680">
        <ele>1707.4</ele>
        <time>2021-08-19T14:10:22Z</time>
      </trkpt>
      <trkpt lat="45.2542040" lon="6.2619850">
        <ele>1708.0</ele>
        <time>2021-08-19T14:10:25Z</time>
      </trkpt>
      <trkpt lat="45.2542020" lon="6.2619520">
        <ele>1708.0</ele>
        <time>2021-08-19T14:10:26Z</time>
      </trkpt>
      <trkpt lat="45.2542050" lon="6.2619310">
        <ele>1708.0</ele>
        <time>2021-08-19T14:10:27Z</time>
      </trkpt>
      <trkpt lat="45.2542070" lon="6.2619170">
        <ele>1708.2</ele>
        <time>2021-08-19T14:10:28Z</time>
      </trkpt>
      <trkpt lat="45.2542080" lon="6.2619110">
        <ele>1708.4</ele>
        <time>2021-08-19T14:10:30Z</time>
      </trkpt>
      <trkpt lat="45.2541990" lon="6.2618890">
        <ele>1707.6</ele>
        <time>2021-08-19T14:12:57Z</time>
      </trkpt>
      <trkpt lat="45.2541880" lon="6.2618630">
        <ele>1707.6</ele>
        <time>2021-08-19T14:12:58Z</time>
      </trkpt>
      <trkpt lat="45.2541350" lon="6.2616760">
        <ele>1707.6</ele>
        <time>2021-08-19T14:13:03Z</time>
      </trkpt>
      <trkpt lat="45.2541060" lon="6.2615560">
        <ele>1707.8</ele>
        <time>2021-08-19T14:13:06Z</time>
      </trkpt>
      <trkpt lat="45.2541010" lon="6.2615200">
        <ele>1707.8</ele>
        <time>2021-08-19T14:13:07Z</time>
      </trkpt>
      <trkpt lat="45.2541130" lon="6.2614530">
        <ele>1708.0</ele>
        <time>2021-08-19T14:13:09Z</time>
      </trkpt>
      <trkpt lat="45.2541510" lon="6.2613980">
        <ele>1708.2</ele>
        <time>2021-08-19T14:13:11Z</time>
      </trkpt>
      <trkpt lat="45.2541790" lon="6.2613770">
        <ele>1708.2</ele>
        <time>2021-08-19T14:13:12Z</time>
      </trkpt>
      <trkpt lat="45.2542120" lon="6.2613620">
        <ele>1708.2</ele>
        <time>2021-08-19T14:13:13Z</time>
      </trkpt>
      <trkpt lat="45.2542440" lon="6.2613470">
        <ele>1708.2</ele>
        <time>2021-08-19T14:13:14Z</time>
      </trkpt>
      <trkpt lat="45.2543240" lon="6.2613180">
        <ele>1708.2</ele>
        <time>2021-08-19T14:13:16Z</time>
      </trkpt>
      <trkpt lat="45.2543670" lon="6.2612890">
        <ele>1708.2</ele>
        <time>2021-08-19T14:13:17Z</time>
      </trkpt>
      <trkpt lat="45.2544070" lon="6.2612480">
        <ele>1708.2</ele>
        <time>2021-08-19T14:13:18Z</time>
      </trkpt>
      <trkpt lat="45.2544600" lon="6.2611360">
        <ele>1707.8</ele>
        <time>2021-08-19T14:13:20Z</time>
      </trkpt>
      <trkpt lat="45.2545070" lon="6.2609480">
        <ele>1707.0</ele>
        <time>2021-08-19T14:13:23Z</time>
      </trkpt>
      <trkpt lat="45.2545290" lon="6.2608320">
        <ele>1706.8</ele>
        <time>2021-08-19T14:13:25Z</time>
      </trkpt>
      <trkpt lat="45.2545510" lon="6.2607220">
        <ele>1706.8</ele>
        <time>2021-08-19T14:13:27Z</time>
      </trkpt>
      <trkpt lat="45.2546100" lon="6.2604320">
        <ele>1707.2</ele>
        <time>2021-08-19T14:13:33Z</time>
      </trkpt>
      <trkpt lat="45.2546180" lon="6.2603840">
        <ele>1707.4</ele>
        <time>2021-08-19T14:13:34Z</time>
      </trkpt>
      <trkpt lat="45.2546270" lon="6.2603350">
        <ele>1707.6</ele>
        <time>2021-08-19T14:13:35Z</time>
      </trkpt>
      <trkpt lat="45.2546340" lon="6.2602880">
        <ele>1707.8</ele>
        <time>2021-08-19T14:13:36Z</time>
      </trkpt>
      <trkpt lat="45.2546630" lon="6.2601450">
        <ele>1708.4</ele>
        <time>2021-08-19T14:13:39Z</time>
      </trkpt>
      <trkpt lat="45.2546690" lon="6.2601080">
        <ele>1708.8</ele>
        <time>2021-08-19T14:13:40Z</time>
      </trkpt>
      <trkpt lat="45.2546890" lon="6.2600110">
        <ele>1709.2</ele>
        <time>2021-08-19T14:13:42Z</time>
      </trkpt>
      <trkpt lat="45.2546990" lon="6.2599660">
        <ele>1709.4</ele>
        <time>2021-08-19T14:13:43Z</time>
      </trkpt>
      <trkpt lat="45.2547190" lon="6.2598810">
        <ele>1709.4</ele>
        <time>2021-08-19T14:13:45Z</time>
      </trkpt>
      <trkpt lat="45.2547480" lon="6.2597480">
        <ele>1709.8</ele>
        <time>2021-08-19T14:13:48Z</time>
      </trkpt>
      <trkpt lat="45.2547550" lon="6.2597040">
        <ele>1710.2</ele>
        <time>2021-08-19T14:13:49Z</time>
      </trkpt>
      <trkpt lat="45.2547690" lon="6.2596280">
        <ele>1710.6</ele>
        <time>2021-08-19T14:13:51Z</time>
      </trkpt>
      <trkpt lat="45.2547800" lon="6.2595810">
        <ele>1710.8</ele>
        <time>2021-08-19T14:13:52Z</time>
      </trkpt>
      <trkpt lat="45.2547900" lon="6.2595440">
        <ele>1710.6</ele>
        <time>2021-08-19T14:13:53Z</time>
      </trkpt>
      <trkpt lat="45.2548660" lon="6.2592860">
        <ele>1711.8</ele>
        <time>2021-08-19T14:14:00Z</time>
      </trkpt>
      <trkpt lat="45.2549470" lon="6.2590790">
        <ele>1713.0</ele>
        <time>2021-08-19T14:14:06Z</time>
      </trkpt>
      <trkpt lat="45.2550180" lon="6.2589580">
        <ele>1713.6</ele>
        <time>2021-08-19T14:14:10Z</time>
      </trkpt>
      <trkpt lat="45.2551310" lon="6.2587900">
        <ele>1714.0</ele>
        <time>2021-08-19T14:14:16Z</time>
      </trkpt>
      <trkpt lat="45.2552320" lon="6.2586690">
        <ele>1714.8</ele>
        <time>2021-08-19T14:14:21Z</time>
      </trkpt>
      <trkpt lat="45.2552490" lon="6.2586400">
        <ele>1715.0</ele>
        <time>2021-08-19T14:14:22Z</time>
      </trkpt>
      <trkpt lat="45.2552850" lon="6.2585860">
        <ele>1715.2</ele>
        <time>2021-08-19T14:14:24Z</time>
      </trkpt>
      <trkpt lat="45.2553250" lon="6.2585360">
        <ele>1715.4</ele>
        <time>2021-08-19T14:14:26Z</time>
      </trkpt>
      <trkpt lat="45.2553750" lon="6.2584830">
        <ele>1715.6</ele>
        <time>2021-08-19T14:14:28Z</time>
      </trkpt>
      <trkpt lat="45.2553940" lon="6.2584560">
        <ele>1715.6</ele>
        <time>2021-08-19T14:14:29Z</time>
      </trkpt>
      <trkpt lat="45.2554100" lon="6.2584260">
        <ele>1715.8</ele>
        <time>2021-08-19T14:14:30Z</time>
      </trkpt>
      <trkpt lat="45.2554290" lon="6.2583970">
        <ele>1715.8</ele>
        <time>2021-08-19T14:14:31Z</time>
      </trkpt>
      <trkpt lat="45.2554470" lon="6.2583660">
        <ele>1716.0</ele>
        <time>2021-08-19T14:14:32Z</time>
      </trkpt>
      <trkpt lat="45.2554660" lon="6.2583390">
        <ele>1716.0</ele>
        <time>2021-08-19T14:14:33Z</time>
      </trkpt>
      <trkpt lat="45.2555070" lon="6.2582860">
        <ele>1716.2</ele>
        <time>2021-08-19T14:14:35Z</time>
      </trkpt>
      <trkpt lat="45.2555800" lon="6.2581840">
        <ele>1716.6</ele>
        <time>2021-08-19T14:14:39Z</time>
      </trkpt>
      <trkpt lat="45.2556040" lon="6.2581500">
        <ele>1716.8</ele>
        <time>2021-08-19T14:14:40Z</time>
      </trkpt>
      <trkpt lat="45.2556220" lon="6.2581230">
        <ele>1717.0</ele>
        <time>2021-08-19T14:14:41Z</time>
      </trkpt>
      <trkpt lat="45.2556940" lon="6.2580210">
        <ele>1718.2</ele>
        <time>2021-08-19T14:14:45Z</time>
      </trkpt>
      <trkpt lat="45.2557290" lon="6.2579750">
        <ele>1718.4</ele>
        <time>2021-08-19T14:14:47Z</time>
      </trkpt>
      <trkpt lat="45.2557850" lon="6.2579140">
        <ele>1719.0</ele>
        <time>2021-08-19T14:14:50Z</time>
      </trkpt>
      <trkpt lat="45.2558050" lon="6.2578900">
        <ele>1719.0</ele>
        <time>2021-08-19T14:14:51Z</time>
      </trkpt>
      <trkpt lat="45.2558210" lon="6.2578650">
        <ele>1719.2</ele>
        <time>2021-08-19T14:14:52Z</time>
      </trkpt>
      <trkpt lat="45.2558550" lon="6.2578170">
        <ele>1719.2</ele>
        <time>2021-08-19T14:14:54Z</time>
      </trkpt>
      <trkpt lat="45.2558750" lon="6.2577850">
        <ele>1719.4</ele>
        <time>2021-08-19T14:14:55Z</time>
      </trkpt>
      <trkpt lat="45.2559370" lon="6.2575710">
        <ele>1719.8</ele>
        <time>2021-08-19T14:15:02Z</time>
      </trkpt>
      <trkpt lat="45.2559420" lon="6.2575390">
        <ele>1720.4</ele>
        <time>2021-08-19T14:15:03Z</time>
      </trkpt>
      <trkpt lat="45.2559510" lon="6.2573450">
        <ele>1721.2</ele>
        <time>2021-08-19T14:15:09Z</time>
      </trkpt>
      <trkpt lat="45.2559540" lon="6.2573130">
        <ele>1721.2</ele>
        <time>2021-08-19T14:15:10Z</time>
      </trkpt>
      <trkpt lat="45.2559580" lon="6.2572500">
        <ele>1721.4</ele>
        <time>2021-08-19T14:15:12Z</time>
      </trkpt>
      <trkpt lat="45.2559650" lon="6.2570680">
        <ele>1722.0</ele>
        <time>2021-08-19T14:15:18Z</time>
      </trkpt>
      <trkpt lat="45.2559760" lon="6.2570390">
        <ele>1722.0</ele>
        <time>2021-08-19T14:15:19Z</time>
      </trkpt>
      <trkpt lat="45.2559940" lon="6.2569830">
        <ele>1722.2</ele>
        <time>2021-08-19T14:15:21Z</time>
      </trkpt>
      <trkpt lat="45.2560760" lon="6.2568400">
        <ele>1722.8</ele>
        <time>2021-08-19T14:15:27Z</time>
      </trkpt>
      <trkpt lat="45.2561350" lon="6.2567830">
        <ele>1723.2</ele>
        <time>2021-08-19T14:15:30Z</time>
      </trkpt>
      <trkpt lat="45.2561990" lon="6.2567600">
        <ele>1723.8</ele>
        <time>2021-08-19T14:15:33Z</time>
      </trkpt>
      <trkpt lat="45.2562210" lon="6.2567680">
        <ele>1724.0</ele>
        <time>2021-08-19T14:15:34Z</time>
      </trkpt>
      <trkpt lat="45.2562660" lon="6.2568040">
        <ele>1724.2</ele>
        <time>2021-08-19T14:15:36Z</time>
      </trkpt>
      <trkpt lat="45.2563100" lon="6.2568510">
        <ele>1724.6</ele>
        <time>2021-08-19T14:15:38Z</time>
      </trkpt>
      <trkpt lat="45.2564440" lon="6.2570240">
        <ele>1725.2</ele>
        <time>2021-08-19T14:15:44Z</time>
      </trkpt>
      <trkpt lat="45.2565830" lon="6.2573110">
        <ele>1725.2</ele>
        <time>2021-08-19T14:15:52Z</time>
      </trkpt>
      <trkpt lat="45.2566230" lon="6.2573940">
        <ele>1725.2</ele>
        <time>2021-08-19T14:15:54Z</time>
      </trkpt>
      <trkpt lat="45.2566660" lon="6.2574810">
        <ele>1724.8</ele>
        <time>2021-08-19T14:15:56Z</time>
      </trkpt>
      <trkpt lat="45.2566880" lon="6.2575250">
        <ele>1724.8</ele>
        <time>2021-08-19T14:15:57Z</time>
      </trkpt>
      <trkpt lat="45.2567430" lon="6.2576610">
        <ele>1725.0</ele>
        <time>2021-08-19T14:16:00Z</time>
      </trkpt>
      <trkpt lat="45.2567790" lon="6.2577540">
        <ele>1724.8</ele>
        <time>2021-08-19T14:16:02Z</time>
      </trkpt>
      <trkpt lat="45.2568310" lon="6.2578980">
        <ele>1725.0</ele>
        <time>2021-08-19T14:16:05Z</time>
      </trkpt>
      <trkpt lat="45.2568760" lon="6.2580610">
        <ele>1725.0</ele>
        <time>2021-08-19T14:16:08Z</time>
      </trkpt>
      <trkpt lat="45.2569370" lon="6.2583650">
        <ele>1724.6</ele>
        <time>2021-08-19T14:16:13Z</time>
      </trkpt>
      <trkpt lat="45.2569470" lon="6.2584290">
        <ele>1724.2</ele>
        <time>2021-08-19T14:16:14Z</time>
      </trkpt>
      <trkpt lat="45.2570250" lon="6.2589100">
        <ele>1723.6</ele>
        <time>2021-08-19T14:16:21Z</time>
      </trkpt>
      <trkpt lat="45.2570770" lon="6.2592110">
        <ele>1723.0</ele>
        <time>2021-08-19T14:16:25Z</time>
      </trkpt>
      <trkpt lat="45.2570960" lon="6.2593670">
        <ele>1723.0</ele>
        <time>2021-08-19T14:16:27Z</time>
      </trkpt>
      <trkpt lat="45.2571200" lon="6.2595270">
        <ele>1722.8</ele>
        <time>2021-08-19T14:16:29Z</time>
      </trkpt>
      <trkpt lat="45.2571620" lon="6.2599250">
        <ele>1721.8</ele>
        <time>2021-08-19T14:16:34Z</time>
      </trkpt>
      <trkpt lat="45.2571880" lon="6.2601810">
        <ele>1720.6</ele>
        <time>2021-08-19T14:16:37Z</time>
      </trkpt>
      <trkpt lat="45.2572360" lon="6.2605890">
        <ele>1719.6</ele>
        <time>2021-08-19T14:16:42Z</time>
      </trkpt>
      <trkpt lat="45.2572570" lon="6.2608860">
        <ele>1719.2</ele>
        <time>2021-08-19T14:16:46Z</time>
      </trkpt>
      <trkpt lat="45.2572630" lon="6.2609600">
        <ele>1719.2</ele>
        <time>2021-08-19T14:16:47Z</time>
      </trkpt>
      <trkpt lat="45.2572660" lon="6.2610360">
        <ele>1719.2</ele>
        <time>2021-08-19T14:16:48Z</time>
      </trkpt>
      <trkpt lat="45.2572660" lon="6.2611960">
        <ele>1719.0</ele>
        <time>2021-08-19T14:16:50Z</time>
      </trkpt>
      <trkpt lat="45.2572350" lon="6.2614490">
        <ele>1718.8</ele>
        <time>2021-08-19T14:16:53Z</time>
      </trkpt>
      <trkpt lat="45.2572200" lon="6.2615360">
        <ele>1718.2</ele>
        <time>2021-08-19T14:16:54Z</time>
      </trkpt>
      <trkpt lat="45.2571590" lon="6.2619030">
        <ele>1716.6</ele>
        <time>2021-08-19T14:16:58Z</time>
      </trkpt>
      <trkpt lat="45.2571070" lon="6.2621760">
        <ele>1715.4</ele>
        <time>2021-08-19T14:17:01Z</time>
      </trkpt>
      <trkpt lat="45.2570590" lon="6.2624220">
        <ele>1715.0</ele>
        <time>2021-08-19T14:17:04Z</time>
      </trkpt>
      <trkpt lat="45.2570100" lon="6.2628220">
        <ele>1714.2</ele>
        <time>2021-08-19T14:17:09Z</time>
      </trkpt>
      <trkpt lat="45.2570090" lon="6.2628990">
        <ele>1714.0</ele>
        <time>2021-08-19T14:17:10Z</time>
      </trkpt>
      <trkpt lat="45.2570050" lon="6.2633080">
        <ele>1712.8</ele>
        <time>2021-08-19T14:17:15Z</time>
      </trkpt>
      <trkpt lat="45.2569920" lon="6.2636700">
        <ele>1711.6</ele>
        <time>2021-08-19T14:17:19Z</time>
      </trkpt>
      <trkpt lat="45.2569950" lon="6.2638590">
        <ele>1711.0</ele>
        <time>2021-08-19T14:17:21Z</time>
      </trkpt>
      <trkpt lat="45.2569920" lon="6.2641070">
        <ele>1710.2</ele>
        <time>2021-08-19T14:17:24Z</time>
      </trkpt>
      <trkpt lat="45.2569690" lon="6.2645970">
        <ele>1709.0</ele>
        <time>2021-08-19T14:17:30Z</time>
      </trkpt>
      <trkpt lat="45.2569570" lon="6.2648430">
        <ele>1708.0</ele>
        <time>2021-08-19T14:17:33Z</time>
      </trkpt>
      <trkpt lat="45.2569240" lon="6.2652420">
        <ele>1707.2</ele>
        <time>2021-08-19T14:17:38Z</time>
      </trkpt>
      <trkpt lat="45.2569210" lon="6.2653140">
        <ele>1707.0</ele>
        <time>2021-08-19T14:17:39Z</time>
      </trkpt>
      <trkpt lat="45.2569200" lon="6.2653850">
        <ele>1706.6</ele>
        <time>2021-08-19T14:17:40Z</time>
      </trkpt>
      <trkpt lat="45.2569130" lon="6.2655130">
        <ele>1706.4</ele>
        <time>2021-08-19T14:17:42Z</time>
      </trkpt>
      <trkpt lat="45.2568960" lon="6.2657340">
        <ele>1705.4</ele>
        <time>2021-08-19T14:17:46Z</time>
      </trkpt>
      <trkpt lat="45.2568890" lon="6.2658070">
        <ele>1704.6</ele>
        <time>2021-08-19T14:17:48Z</time>
      </trkpt>
      <trkpt lat="45.2568820" lon="6.2658830">
        <ele>1704.2</ele>
        <time>2021-08-19T14:17:50Z</time>
      </trkpt>
      <trkpt lat="45.2568650" lon="6.2660730">
        <ele>1704.0</ele>
        <time>2021-08-19T14:17:54Z</time>
      </trkpt>
      <trkpt lat="45.2568570" lon="6.2662130">
        <ele>1702.8</ele>
        <time>2021-08-19T14:17:58Z</time>
      </trkpt>
      <trkpt lat="45.2568810" lon="6.2662480">
        <ele>1702.6</ele>
        <time>2021-08-19T14:18:00Z</time>
      </trkpt>
      <trkpt lat="45.2569060" lon="6.2662230">
        <ele>1702.6</ele>
        <time>2021-08-19T14:18:02Z</time>
      </trkpt>
      <trkpt lat="45.2569020" lon="6.2661770">
        <ele>1702.4</ele>
        <time>2021-08-19T14:18:04Z</time>
      </trkpt>
      <trkpt lat="45.2568890" lon="6.2660310">
        <ele>1701.8</ele>
        <time>2021-08-19T14:18:09Z</time>
      </trkpt>
      <trkpt lat="45.2569110" lon="6.2657660">
        <ele>1702.6</ele>
        <time>2021-08-19T14:18:16Z</time>
      </trkpt>
      <trkpt lat="45.2569170" lon="6.2656430">
        <ele>1703.0</ele>
        <time>2021-08-19T14:18:19Z</time>
      </trkpt>
      <trkpt lat="45.2569310" lon="6.2654690">
        <ele>1703.6</ele>
        <time>2021-08-19T14:18:23Z</time>
      </trkpt>
      <trkpt lat="45.2569340" lon="6.2654230">
        <ele>1703.8</ele>
        <time>2021-08-19T14:18:24Z</time>
      </trkpt>
      <trkpt lat="45.2569370" lon="6.2653800">
        <ele>1704.0</ele>
        <time>2021-08-19T14:18:25Z</time>
      </trkpt>
      <trkpt lat="45.2569420" lon="6.2653380">
        <ele>1704.2</ele>
        <time>2021-08-19T14:18:26Z</time>
      </trkpt>
      <trkpt lat="45.2569470" lon="6.2652520">
        <ele>1704.4</ele>
        <time>2021-08-19T14:18:28Z</time>
      </trkpt>
      <trkpt lat="45.2569520" lon="6.2651650">
        <ele>1704.8</ele>
        <time>2021-08-19T14:18:30Z</time>
      </trkpt>
      <trkpt lat="45.2569610" lon="6.2650780">
        <ele>1705.0</ele>
        <time>2021-08-19T14:18:32Z</time>
      </trkpt>
      <trkpt lat="45.2569680" lon="6.2650330">
        <ele>1705.2</ele>
        <time>2021-08-19T14:18:33Z</time>
      </trkpt>
      <trkpt lat="45.2569750" lon="6.2649870">
        <ele>1705.2</ele>
        <time>2021-08-19T14:18:34Z</time>
      </trkpt>
      <trkpt lat="45.2569780" lon="6.2649410">
        <ele>1705.4</ele>
        <time>2021-08-19T14:18:35Z</time>
      </trkpt>
      <trkpt lat="45.2569930" lon="6.2647190">
        <ele>1706.0</ele>
        <time>2021-08-19T14:18:40Z</time>
      </trkpt>
      <trkpt lat="45.2569970" lon="6.2646730">
        <ele>1706.0</ele>
        <time>2021-08-19T14:18:41Z</time>
      </trkpt>
      <trkpt lat="45.2569990" lon="6.2646260">
        <ele>1706.0</ele>
        <time>2021-08-19T14:18:42Z</time>
      </trkpt>
      <trkpt lat="45.2570020" lon="6.2645810">
        <ele>1706.0</ele>
        <time>2021-08-19T14:18:43Z</time>
      </trkpt>
      <trkpt lat="45.2570140" lon="6.2642620">
        <ele>1707.0</ele>
        <time>2021-08-19T14:18:50Z</time>
      </trkpt>
      <trkpt lat="45.2570160" lon="6.2642180">
        <ele>1707.0</ele>
        <time>2021-08-19T14:18:51Z</time>
      </trkpt>
      <trkpt lat="45.2570230" lon="6.2640770">
        <ele>1707.6</ele>
        <time>2021-08-19T14:18:54Z</time>
      </trkpt>
      <trkpt lat="45.2570240" lon="6.2640300">
        <ele>1707.6</ele>
        <time>2021-08-19T14:18:55Z</time>
      </trkpt>
      <trkpt lat="45.2570310" lon="6.2638850">
        <ele>1708.2</ele>
        <time>2021-08-19T14:18:58Z</time>
      </trkpt>
      <trkpt lat="45.2570310" lon="6.2638350">
        <ele>1708.2</ele>
        <time>2021-08-19T14:18:59Z</time>
      </trkpt>
      <trkpt lat="45.2570290" lon="6.2637830">
        <ele>1708.4</ele>
        <time>2021-08-19T14:19:00Z</time>
      </trkpt>
      <trkpt lat="45.2570290" lon="6.2637310">
        <ele>1708.4</ele>
        <time>2021-08-19T14:19:01Z</time>
      </trkpt>
      <trkpt lat="45.2570280" lon="6.2636790">
        <ele>1708.6</ele>
        <time>2021-08-19T14:19:02Z</time>
      </trkpt>
      <trkpt lat="45.2570280" lon="6.2636270">
        <ele>1708.8</ele>
        <time>2021-08-19T14:19:03Z</time>
      </trkpt>
      <trkpt lat="45.2570260" lon="6.2635230">
        <ele>1709.2</ele>
        <time>2021-08-19T14:19:05Z</time>
      </trkpt>
      <trkpt lat="45.2570250" lon="6.2634210">
        <ele>1709.4</ele>
        <time>2021-08-19T14:19:07Z</time>
      </trkpt>
      <trkpt lat="45.2570270" lon="6.2631300">
        <ele>1710.2</ele>
        <time>2021-08-19T14:19:13Z</time>
      </trkpt>
      <trkpt lat="45.2570280" lon="6.2630840">
        <ele>1710.4</ele>
        <time>2021-08-19T14:19:14Z</time>
      </trkpt>
      <trkpt lat="45.2570300" lon="6.2630390">
        <ele>1710.4</ele>
        <time>2021-08-19T14:19:15Z</time>
      </trkpt>
      <trkpt lat="45.2570440" lon="6.2627100">
        <ele>1711.4</ele>
        <time>2021-08-19T14:19:22Z</time>
      </trkpt>
      <trkpt lat="45.2570770" lon="6.2624830">
        <ele>1712.4</ele>
        <time>2021-08-19T14:19:27Z</time>
      </trkpt>
      <trkpt lat="45.2570940" lon="6.2623480">
        <ele>1713.0</ele>
        <time>2021-08-19T14:19:30Z</time>
      </trkpt>
      <trkpt lat="45.2571100" lon="6.2622540">
        <ele>1713.4</ele>
        <time>2021-08-19T14:19:32Z</time>
      </trkpt>
      <trkpt lat="45.2571400" lon="6.2620590">
        <ele>1714.0</ele>
        <time>2021-08-19T14:19:36Z</time>
      </trkpt>
      <trkpt lat="45.2571770" lon="6.2618690">
        <ele>1714.4</ele>
        <time>2021-08-19T14:19:40Z</time>
      </trkpt>
      <trkpt lat="45.2571960" lon="6.2617780">
        <ele>1714.4</ele>
        <time>2021-08-19T14:19:42Z</time>
      </trkpt>
      <trkpt lat="45.2572090" lon="6.2616830">
        <ele>1714.6</ele>
        <time>2021-08-19T14:19:44Z</time>
      </trkpt>
      <trkpt lat="45.2572180" lon="6.2616350">
        <ele>1714.8</ele>
        <time>2021-08-19T14:19:45Z</time>
      </trkpt>
      <trkpt lat="45.2572270" lon="6.2615880">
        <ele>1715.0</ele>
        <time>2021-08-19T14:19:46Z</time>
      </trkpt>
      <trkpt lat="45.2572380" lon="6.2615310">
        <ele>1715.2</ele>
        <time>2021-08-19T14:19:47Z</time>
      </trkpt>
      <trkpt lat="45.2572570" lon="6.2614120">
        <ele>1715.6</ele>
        <time>2021-08-19T14:19:50Z</time>
      </trkpt>
      <trkpt lat="45.2572610" lon="6.2613670">
        <ele>1715.8</ele>
        <time>2021-08-19T14:19:51Z</time>
      </trkpt>
      <trkpt lat="45.2572670" lon="6.2613210">
        <ele>1715.8</ele>
        <time>2021-08-19T14:19:52Z</time>
      </trkpt>
      <trkpt lat="45.2572940" lon="6.2610460">
        <ele>1716.4</ele>
        <time>2021-08-19T14:19:58Z</time>
      </trkpt>
      <trkpt lat="45.2572630" lon="6.2606600">
        <ele>1717.6</ele>
        <time>2021-08-19T14:20:06Z</time>
      </trkpt>
      <trkpt lat="45.2572550" lon="6.2604650">
        <ele>1718.4</ele>
        <time>2021-08-19T14:20:10Z</time>
      </trkpt>
      <trkpt lat="45.2572520" lon="6.2604160">
        <ele>1718.6</ele>
        <time>2021-08-19T14:20:11Z</time>
      </trkpt>
      <trkpt lat="45.2572480" lon="6.2603680">
        <ele>1718.8</ele>
        <time>2021-08-19T14:20:12Z</time>
      </trkpt>
      <trkpt lat="45.2572440" lon="6.2603180">
        <ele>1718.8</ele>
        <time>2021-08-19T14:20:13Z</time>
      </trkpt>
      <trkpt lat="45.2572400" lon="6.2602660">
        <ele>1719.2</ele>
        <time>2021-08-19T14:20:14Z</time>
      </trkpt>
      <trkpt lat="45.2572170" lon="6.2601120">
        <ele>1719.4</ele>
        <time>2021-08-19T14:20:17Z</time>
      </trkpt>
      <trkpt lat="45.2571850" lon="6.2599060">
        <ele>1719.4</ele>
        <time>2021-08-19T14:20:21Z</time>
      </trkpt>
      <trkpt lat="45.2571820" lon="6.2598560">
        <ele>1719.6</ele>
        <time>2021-08-19T14:20:22Z</time>
      </trkpt>
      <trkpt lat="45.2571740" lon="6.2598040">
        <ele>1719.6</ele>
        <time>2021-08-19T14:20:23Z</time>
      </trkpt>
      <trkpt lat="45.2571640" lon="6.2597510">
        <ele>1719.8</ele>
        <time>2021-08-19T14:20:24Z</time>
      </trkpt>
      <trkpt lat="45.2571360" lon="6.2595940">
        <ele>1720.2</ele>
        <time>2021-08-19T14:20:27Z</time>
      </trkpt>
      <trkpt lat="45.2571260" lon="6.2594910">
        <ele>1720.4</ele>
        <time>2021-08-19T14:20:29Z</time>
      </trkpt>
      <trkpt lat="45.2571210" lon="6.2594370">
        <ele>1720.4</ele>
        <time>2021-08-19T14:20:30Z</time>
      </trkpt>
      <trkpt lat="45.2571140" lon="6.2593850">
        <ele>1720.8</ele>
        <time>2021-08-19T14:20:31Z</time>
      </trkpt>
      <trkpt lat="45.2570990" lon="6.2592820">
        <ele>1721.2</ele>
        <time>2021-08-19T14:20:33Z</time>
      </trkpt>
      <trkpt lat="45.2570660" lon="6.2590770">
        <ele>1721.6</ele>
        <time>2021-08-19T14:20:37Z</time>
      </trkpt>
      <trkpt lat="45.2570560" lon="6.2590280">
        <ele>1721.8</ele>
        <time>2021-08-19T14:20:38Z</time>
      </trkpt>
      <trkpt lat="45.2570230" lon="6.2587810">
        <ele>1722.2</ele>
        <time>2021-08-19T14:20:43Z</time>
      </trkpt>
      <trkpt lat="45.2570090" lon="6.2586810">
        <ele>1722.6</ele>
        <time>2021-08-19T14:20:45Z</time>
      </trkpt>
      <trkpt lat="45.2569540" lon="6.2584460">
        <ele>1723.2</ele>
        <time>2021-08-19T14:20:50Z</time>
      </trkpt>
      <trkpt lat="45.2569320" lon="6.2583570">
        <ele>1723.2</ele>
        <time>2021-08-19T14:20:52Z</time>
      </trkpt>
      <trkpt lat="45.2569180" lon="6.2582800">
        <ele>1723.4</ele>
        <time>2021-08-19T14:20:54Z</time>
      </trkpt>
      <trkpt lat="45.2569110" lon="6.2582410">
        <ele>1723.6</ele>
        <time>2021-08-19T14:20:55Z</time>
      </trkpt>
      <trkpt lat="45.2569020" lon="6.2582010">
        <ele>1723.8</ele>
        <time>2021-08-19T14:20:56Z</time>
      </trkpt>
      <trkpt lat="45.2568490" lon="6.2579250">
        <ele>1724.4</ele>
        <time>2021-08-19T14:21:02Z</time>
      </trkpt>
      <trkpt lat="45.2568370" lon="6.2578780">
        <ele>1724.8</ele>
        <time>2021-08-19T14:21:03Z</time>
      </trkpt>
      <trkpt lat="45.2568070" lon="6.2577840">
        <ele>1724.8</ele>
        <time>2021-08-19T14:21:05Z</time>
      </trkpt>
      <trkpt lat="45.2566920" lon="6.2574860">
        <ele>1724.8</ele>
        <time>2021-08-19T14:21:12Z</time>
      </trkpt>
      <trkpt lat="45.2566280" lon="6.2573650">
        <ele>1724.8</ele>
        <time>2021-08-19T14:21:15Z</time>
      </trkpt>
      <trkpt lat="45.2564860" lon="6.2570720">
        <ele>1725.2</ele>
        <time>2021-08-19T14:21:22Z</time>
      </trkpt>
      <trkpt lat="45.2564390" lon="6.2569850">
        <ele>1725.4</ele>
        <time>2021-08-19T14:21:24Z</time>
      </trkpt>
      <trkpt lat="45.2563100" lon="6.2568350">
        <ele>1725.2</ele>
        <time>2021-08-19T14:21:28Z</time>
      </trkpt>
      <trkpt lat="45.2562300" lon="6.2567750">
        <ele>1725.2</ele>
        <time>2021-08-19T14:21:30Z</time>
      </trkpt>
      <trkpt lat="45.2561430" lon="6.2567430">
        <ele>1725.2</ele>
        <time>2021-08-19T14:21:32Z</time>
      </trkpt>
      <trkpt lat="45.2560460" lon="6.2567350">
        <ele>1725.2</ele>
        <time>2021-08-19T14:21:34Z</time>
      </trkpt>
      <trkpt lat="45.2559960" lon="6.2567440">
        <ele>1725.0</ele>
        <time>2021-08-19T14:21:35Z</time>
      </trkpt>
      <trkpt lat="45.2559510" lon="6.2567630">
        <ele>1725.0</ele>
        <time>2021-08-19T14:21:36Z</time>
      </trkpt>
      <trkpt lat="45.2558220" lon="6.2568570">
        <ele>1724.2</ele>
        <time>2021-08-19T14:21:39Z</time>
      </trkpt>
      <trkpt lat="45.2557820" lon="6.2569050">
        <ele>1724.0</ele>
        <time>2021-08-19T14:21:40Z</time>
      </trkpt>
      <trkpt lat="45.2556160" lon="6.2571200">
        <ele>1723.2</ele>
        <time>2021-08-19T14:21:44Z</time>
      </trkpt>
      <trkpt lat="45.2555760" lon="6.2571640">
        <ele>1723.0</ele>
        <time>2021-08-19T14:21:45Z</time>
      </trkpt>
      <trkpt lat="45.2555390" lon="6.2572150">
        <ele>1722.6</ele>
        <time>2021-08-19T14:21:46Z</time>
      </trkpt>
      <trkpt lat="45.2554290" lon="6.2574090">
        <ele>1722.0</ele>
        <time>2021-08-19T14:21:49Z</time>
      </trkpt>
      <trkpt lat="45.2552400" lon="6.2576780">
        <ele>1721.2</ele>
        <time>2021-08-19T14:21:53Z</time>
      </trkpt>
      <trkpt lat="45.2551870" lon="6.2577450">
        <ele>1720.8</ele>
        <time>2021-08-19T14:21:54Z</time>
      </trkpt>
      <trkpt lat="45.2549680" lon="6.2580510">
        <ele>1719.2</ele>
        <time>2021-08-19T14:21:59Z</time>
      </trkpt>
      <trkpt lat="45.2549310" lon="6.2581090">
        <ele>1719.0</ele>
        <time>2021-08-19T14:22:00Z</time>
      </trkpt>
      <trkpt lat="45.2548620" lon="6.2582070">
        <ele>1718.6</ele>
        <time>2021-08-19T14:22:02Z</time>
      </trkpt>
      <trkpt lat="45.2547410" lon="6.2583580">
        <ele>1718.0</ele>
        <time>2021-08-19T14:22:05Z</time>
      </trkpt>
      <trkpt lat="45.2546680" lon="6.2584580">
        <ele>1717.6</ele>
        <time>2021-08-19T14:22:07Z</time>
      </trkpt>
      <trkpt lat="45.2545910" lon="6.2585630">
        <ele>1716.4</ele>
        <time>2021-08-19T14:22:10Z</time>
      </trkpt>
      <trkpt lat="45.2545180" lon="6.2586870">
        <ele>1715.4</ele>
        <time>2021-08-19T14:22:14Z</time>
      </trkpt>
      <trkpt lat="45.2544980" lon="6.2587200">
        <ele>1715.2</ele>
        <time>2021-08-19T14:22:15Z</time>
      </trkpt>
      <trkpt lat="45.2544360" lon="6.2588430">
        <ele>1714.6</ele>
        <time>2021-08-19T14:22:20Z</time>
      </trkpt>
      <trkpt lat="45.2544300" lon="6.2589000">
        <ele>1714.4</ele>
        <time>2021-08-19T14:22:23Z</time>
      </trkpt>
      <trkpt lat="45.2544390" lon="6.2589060">
        <ele>1714.2</ele>
        <time>2021-08-19T14:22:25Z</time>
      </trkpt>
      <trkpt lat="45.2544390" lon="6.2589060">
        <ele>1714.2</ele>
        <time>2021-08-19T14:22:27Z</time>
      </trkpt>
      <trkpt lat="45.2544410" lon="6.2589900">
        <ele>1714.0</ele>
        <time>2021-08-19T14:22:37Z</time>
      </trkpt>
      <trkpt lat="45.2544400" lon="6.2590120">
        <ele>1714.0</ele>
        <time>2021-08-19T14:22:38Z</time>
      </trkpt>
      <trkpt lat="45.2543800" lon="6.2591800">
        <ele>1714.0</ele>
        <time>2021-08-19T14:22:44Z</time>
      </trkpt>
      <trkpt lat="45.2543110" lon="6.2593790">
        <ele>1713.6</ele>
        <time>2021-08-19T14:22:49Z</time>
      </trkpt>
      <trkpt lat="45.2542850" lon="6.2595360">
        <ele>1713.0</ele>
        <time>2021-08-19T14:22:53Z</time>
      </trkpt>
      <trkpt lat="45.2542950" lon="6.2596160">
        <ele>1713.0</ele>
        <time>2021-08-19T14:22:55Z</time>
      </trkpt>
      <trkpt lat="45.2543100" lon="6.2596720">
        <ele>1712.8</ele>
        <time>2021-08-19T14:22:57Z</time>
      </trkpt>
      <trkpt lat="45.2543070" lon="6.2597280">
        <ele>1712.8</ele>
        <time>2021-08-19T14:22:59Z</time>
      </trkpt>
      <trkpt lat="45.2542480" lon="6.2599170">
        <ele>1712.6</ele>
        <time>2021-08-19T14:23:04Z</time>
      </trkpt>
      <trkpt lat="45.2542000" lon="6.2601160">
        <ele>1711.8</ele>
        <time>2021-08-19T14:23:08Z</time>
      </trkpt>
      <trkpt lat="45.2541860" lon="6.2601650">
        <ele>1711.6</ele>
        <time>2021-08-19T14:23:09Z</time>
      </trkpt>
      <trkpt lat="45.2540620" lon="6.2604330">
        <ele>1711.2</ele>
        <time>2021-08-19T14:23:15Z</time>
      </trkpt>
      <trkpt lat="45.2540200" lon="6.2605840">
        <ele>1710.6</ele>
        <time>2021-08-19T14:23:19Z</time>
      </trkpt>
      <trkpt lat="45.2540100" lon="6.2606260">
        <ele>1710.4</ele>
        <time>2021-08-19T14:23:20Z</time>
      </trkpt>
      <trkpt lat="45.2539590" lon="6.2609230">
        <ele>1709.6</ele>
        <time>2021-08-19T14:23:27Z</time>
      </trkpt>
      <trkpt lat="45.2539540" lon="6.2609540">
        <ele>1709.4</ele>
        <time>2021-08-19T14:23:28Z</time>
      </trkpt>
      <trkpt lat="45.2539670" lon="6.2611460">
        <ele>1709.0</ele>
        <time>2021-08-19T14:23:34Z</time>
      </trkpt>
      <trkpt lat="45.2540260" lon="6.2613780">
        <ele>1708.8</ele>
        <time>2021-08-19T14:23:39Z</time>
      </trkpt>
      <trkpt lat="45.2541060" lon="6.2616680">
        <ele>1708.6</ele>
        <time>2021-08-19T14:23:44Z</time>
      </trkpt>
      <trkpt lat="45.2541180" lon="6.2617310">
        <ele>1708.4</ele>
        <time>2021-08-19T14:23:45Z</time>
      </trkpt>
      <trkpt lat="45.2541520" lon="6.2620530">
        <ele>1707.6</ele>
        <time>2021-08-19T14:23:51Z</time>
      </trkpt>
      <trkpt lat="45.2541570" lon="6.2621070">
        <ele>1707.6</ele>
        <time>2021-08-19T14:23:53Z</time>
      </trkpt>
      <trkpt lat="45.2541600" lon="6.2621140">
        <ele>1707.6</ele>
        <time>2021-08-19T14:23:55Z</time>
      </trkpt>
      <trkpt lat="45.2541600" lon="6.2620430">
        <ele>1707.6</ele>
        <time>2021-08-19T14:28:16Z</time>
      </trkpt>
      <trkpt lat="45.2541590" lon="6.2620130">
        <ele>1707.6</ele>
        <time>2021-08-19T14:28:17Z</time>
      </trkpt>
      <trkpt lat="45.2541600" lon="6.2619810">
        <ele>1707.6</ele>
        <time>2021-08-19T14:28:18Z</time>
      </trkpt>
      <trkpt lat="45.2541610" lon="6.2619460">
        <ele>1707.6</ele>
        <time>2021-08-19T14:28:19Z</time>
      </trkpt>
      <trkpt lat="45.2541570" lon="6.2618710">
        <ele>1707.6</ele>
        <time>2021-08-19T14:28:21Z</time>
      </trkpt>
      <trkpt lat="45.2541470" lon="6.2617890">
        <ele>1707.8</ele>
        <time>2021-08-19T14:28:23Z</time>
      </trkpt>
      <trkpt lat="45.2541380" lon="6.2617510">
        <ele>1707.8</ele>
        <time>2021-08-19T14:28:24Z</time>
      </trkpt>
      <trkpt lat="45.2541250" lon="6.2617110">
        <ele>1707.8</ele>
        <time>2021-08-19T14:28:25Z</time>
      </trkpt>
      <trkpt lat="45.2540980" lon="6.2616250">
        <ele>1707.6</ele>
        <time>2021-08-19T14:28:27Z</time>
      </trkpt>
      <trkpt lat="45.2540560" lon="6.2614840">
        <ele>1708.2</ele>
        <time>2021-08-19T14:28:31Z</time>
      </trkpt>
      <trkpt lat="45.2540500" lon="6.2614420">
        <ele>1708.4</ele>
        <time>2021-08-19T14:28:32Z</time>
      </trkpt>
      <trkpt lat="45.2540440" lon="6.2613590">
        <ele>1708.2</ele>
        <time>2021-08-19T14:28:34Z</time>
      </trkpt>
      <trkpt lat="45.2540320" lon="6.2612750">
        <ele>1708.4</ele>
        <time>2021-08-19T14:28:36Z</time>
      </trkpt>
      <trkpt lat="45.2540230" lon="6.2611940">
        <ele>1708.4</ele>
        <time>2021-08-19T14:28:38Z</time>
      </trkpt>
      <trkpt lat="45.2540200" lon="6.2611550">
        <ele>1708.4</ele>
        <time>2021-08-19T14:28:39Z</time>
      </trkpt>
      <trkpt lat="45.2539950" lon="6.2610070">
        <ele>1708.4</ele>
        <time>2021-08-19T14:28:44Z</time>
      </trkpt>
      <trkpt lat="45.2539910" lon="6.2609650">
        <ele>1708.4</ele>
        <time>2021-08-19T14:28:46Z</time>
      </trkpt>
      <trkpt lat="45.2539960" lon="6.2609220">
        <ele>1708.6</ele>
        <time>2021-08-19T14:28:48Z</time>
      </trkpt>
      <trkpt lat="45.2540050" lon="6.2608980">
        <ele>1708.6</ele>
        <time>2021-08-19T14:28:50Z</time>
      </trkpt>
      <trkpt lat="45.2540160" lon="6.2608790">
        <ele>1708.6</ele>
        <time>2021-08-19T14:28:52Z</time>
      </trkpt>
      <trkpt lat="45.2540340" lon="6.2608500">
        <ele>1708.8</ele>
        <time>2021-08-19T14:28:54Z</time>
      </trkpt>
      <trkpt lat="45.2540390" lon="6.2608290">
        <ele>1708.8</ele>
        <time>2021-08-19T14:28:55Z</time>
      </trkpt>
      <trkpt lat="45.2540510" lon="6.2607860">
        <ele>1709.0</ele>
        <time>2021-08-19T14:28:57Z</time>
      </trkpt>
      <trkpt lat="45.2540660" lon="6.2606440">
        <ele>1709.0</ele>
        <time>2021-08-19T14:29:02Z</time>
      </trkpt>
      <trkpt lat="45.2541000" lon="6.2604620">
        <ele>1709.2</ele>
        <time>2021-08-19T14:29:07Z</time>
      </trkpt>
      <trkpt lat="45.2541130" lon="6.2604260">
        <ele>1709.2</ele>
        <time>2021-08-19T14:29:08Z</time>
      </trkpt>
      <trkpt lat="45.2542040" lon="6.2601360">
        <ele>1709.8</ele>
        <time>2021-08-19T14:29:16Z</time>
      </trkpt>
      <trkpt lat="45.2542200" lon="6.2600110">
        <ele>1710.2</ele>
        <time>2021-08-19T14:29:19Z</time>
      </trkpt>
      <trkpt lat="45.2542730" lon="6.2598960">
        <ele>1710.4</ele>
        <time>2021-08-19T14:29:23Z</time>
      </trkpt>
      <trkpt lat="45.2542980" lon="6.2598020">
        <ele>1711.0</ele>
        <time>2021-08-19T14:29:26Z</time>
      </trkpt>
      <trkpt lat="45.2543020" lon="6.2597230">
        <ele>1711.2</ele>
        <time>2021-08-19T14:29:28Z</time>
      </trkpt>
      <trkpt lat="45.2543060" lon="6.2596840">
        <ele>1711.4</ele>
        <time>2021-08-19T14:29:29Z</time>
      </trkpt>
      <trkpt lat="45.2543190" lon="6.2595200">
        <ele>1712.0</ele>
        <time>2021-08-19T14:29:33Z</time>
      </trkpt>
      <trkpt lat="45.2543320" lon="6.2594790">
        <ele>1712.0</ele>
        <time>2021-08-19T14:29:34Z</time>
      </trkpt>
      <trkpt lat="45.2543600" lon="6.2593100">
        <ele>1712.2</ele>
        <time>2021-08-19T14:29:38Z</time>
      </trkpt>
      <trkpt lat="45.2543710" lon="6.2592660">
        <ele>1712.2</ele>
        <time>2021-08-19T14:29:39Z</time>
      </trkpt>
      <trkpt lat="45.2543800" lon="6.2592230">
        <ele>1712.2</ele>
        <time>2021-08-19T14:29:40Z</time>
      </trkpt>
      <trkpt lat="45.2543900" lon="6.2591820">
        <ele>1712.2</ele>
        <time>2021-08-19T14:29:41Z</time>
      </trkpt>
      <trkpt lat="45.2544020" lon="6.2591420">
        <ele>1712.4</ele>
        <time>2021-08-19T14:29:42Z</time>
      </trkpt>
      <trkpt lat="45.2544670" lon="6.2589500">
        <ele>1713.2</ele>
        <time>2021-08-19T14:29:47Z</time>
      </trkpt>
      <trkpt lat="45.2545090" lon="6.2588440">
        <ele>1713.4</ele>
        <time>2021-08-19T14:29:50Z</time>
      </trkpt>
      <trkpt lat="45.2545300" lon="6.2586580">
        <ele>1714.0</ele>
        <time>2021-08-19T14:29:55Z</time>
      </trkpt>
      <trkpt lat="45.2545030" lon="6.2584890">
        <ele>1714.2</ele>
        <time>2021-08-19T14:29:59Z</time>
      </trkpt>
      <trkpt lat="45.2544940" lon="6.2584210">
        <ele>1714.6</ele>
        <time>2021-08-19T14:30:01Z</time>
      </trkpt>
      <trkpt lat="45.2544600" lon="6.2582990">
        <ele>1715.2</ele>
        <time>2021-08-19T14:30:05Z</time>
      </trkpt>
      <trkpt lat="45.2544510" lon="6.2582740">
        <ele>1715.4</ele>
        <time>2021-08-19T14:30:06Z</time>
      </trkpt>
      <trkpt lat="45.2544310" lon="6.2582250">
        <ele>1715.8</ele>
        <time>2021-08-19T14:30:08Z</time>
      </trkpt>
      <trkpt lat="45.2544150" lon="6.2581850">
        <ele>1716.4</ele>
        <time>2021-08-19T14:30:10Z</time>
      </trkpt>
      <trkpt lat="45.2543730" lon="6.2580950">
        <ele>1717.0</ele>
        <time>2021-08-19T14:30:14Z</time>
      </trkpt>
      <trkpt lat="45.2543440" lon="6.2580330">
        <ele>1717.6</ele>
        <time>2021-08-19T14:30:17Z</time>
      </trkpt>
      <trkpt lat="45.2542860" lon="6.2579470">
        <ele>1718.6</ele>
        <time>2021-08-19T14:30:22Z</time>
      </trkpt>
      <trkpt lat="45.2542720" lon="6.2579230">
        <ele>1719.0</ele>
        <time>2021-08-19T14:30:23Z</time>
      </trkpt>
      <trkpt lat="45.2542280" lon="6.2578450">
        <ele>1719.6</ele>
        <time>2021-08-19T14:30:27Z</time>
      </trkpt>
      <trkpt lat="45.2541930" lon="6.2577900">
        <ele>1720.2</ele>
        <time>2021-08-19T14:30:30Z</time>
      </trkpt>
      <trkpt lat="45.2541570" lon="6.2577270">
        <ele>1720.6</ele>
        <time>2021-08-19T14:30:33Z</time>
      </trkpt>
      <trkpt lat="45.2541190" lon="6.2576460">
        <ele>1721.2</ele>
        <time>2021-08-19T14:30:37Z</time>
      </trkpt>
      <trkpt lat="45.2540910" lon="6.2575810">
        <ele>1722.0</ele>
        <time>2021-08-19T14:30:40Z</time>
      </trkpt>
      <trkpt lat="45.2540830" lon="6.2575610">
        <ele>1722.4</ele>
        <time>2021-08-19T14:30:41Z</time>
      </trkpt>
      <trkpt lat="45.2540240" lon="6.2574400">
        <ele>1723.4</ele>
        <time>2021-08-19T14:30:47Z</time>
      </trkpt>
      <trkpt lat="45.2540000" lon="6.2573810">
        <ele>1723.8</ele>
        <time>2021-08-19T14:30:50Z</time>
      </trkpt>
      <trkpt lat="45.2539760" lon="6.2572970">
        <ele>1724.6</ele>
        <time>2021-08-19T14:30:54Z</time>
      </trkpt>
      <trkpt lat="45.2539410" lon="6.2572150">
        <ele>1725.6</ele>
        <time>2021-08-19T14:30:58Z</time>
      </trkpt>
      <trkpt lat="45.2539320" lon="6.2571940">
        <ele>1725.6</ele>
        <time>2021-08-19T14:30:59Z</time>
      </trkpt>
      <trkpt lat="45.2539050" lon="6.2571610">
        <ele>1726.0</ele>
        <time>2021-08-19T14:31:01Z</time>
      </trkpt>
      <trkpt lat="45.2538610" lon="6.2571180">
        <ele>1726.2</ele>
        <time>2021-08-19T14:31:04Z</time>
      </trkpt>
      <trkpt lat="45.2538450" lon="6.2571020">
        <ele>1726.4</ele>
        <time>2021-08-19T14:31:05Z</time>
      </trkpt>
      <trkpt lat="45.2538320" lon="6.2570830">
        <ele>1726.6</ele>
        <time>2021-08-19T14:31:06Z</time>
      </trkpt>
      <trkpt lat="45.2538230" lon="6.2570610">
        <ele>1727.0</ele>
        <time>2021-08-19T14:31:07Z</time>
      </trkpt>
      <trkpt lat="45.2538110" lon="6.2570430">
        <ele>1727.0</ele>
        <time>2021-08-19T14:31:08Z</time>
      </trkpt>
      <trkpt lat="45.2537980" lon="6.2570280">
        <ele>1727.2</ele>
        <time>2021-08-19T14:31:09Z</time>
      </trkpt>
      <trkpt lat="45.2537830" lon="6.2570130">
        <ele>1727.4</ele>
        <time>2021-08-19T14:31:10Z</time>
      </trkpt>
      <trkpt lat="45.2537660" lon="6.2570000">
        <ele>1727.6</ele>
        <time>2021-08-19T14:31:11Z</time>
      </trkpt>
      <trkpt lat="45.2537280" lon="6.2569900">
        <ele>1728.2</ele>
        <time>2021-08-19T14:31:13Z</time>
      </trkpt>
      <trkpt lat="45.2536920" lon="6.2569790">
        <ele>1728.6</ele>
        <time>2021-08-19T14:31:15Z</time>
      </trkpt>
      <trkpt lat="45.2536390" lon="6.2569630">
        <ele>1728.8</ele>
        <time>2021-08-19T14:31:18Z</time>
      </trkpt>
      <trkpt lat="45.2535700" lon="6.2569700">
        <ele>1729.4</ele>
        <time>2021-08-19T14:31:22Z</time>
      </trkpt>
      <trkpt lat="45.2535200" lon="6.2569870">
        <ele>1730.0</ele>
        <time>2021-08-19T14:31:25Z</time>
      </trkpt>
      <trkpt lat="45.2535020" lon="6.2569930">
        <ele>1730.2</ele>
        <time>2021-08-19T14:31:26Z</time>
      </trkpt>
      <trkpt lat="45.2534690" lon="6.2570070">
        <ele>1730.6</ele>
        <time>2021-08-19T14:31:28Z</time>
      </trkpt>
      <trkpt lat="45.2533320" lon="6.2570580">
        <ele>1731.6</ele>
        <time>2021-08-19T14:31:35Z</time>
      </trkpt>
      <trkpt lat="45.2532990" lon="6.2570630">
        <ele>1732.0</ele>
        <time>2021-08-19T14:31:37Z</time>
      </trkpt>
      <trkpt lat="45.2532250" lon="6.2570880">
        <ele>1732.8</ele>
        <time>2021-08-19T14:31:41Z</time>
      </trkpt>
      <trkpt lat="45.2531690" lon="6.2571060">
        <ele>1733.4</ele>
        <time>2021-08-19T14:31:44Z</time>
      </trkpt>
      <trkpt lat="45.2531210" lon="6.2571290">
        <ele>1733.8</ele>
        <time>2021-08-19T14:31:47Z</time>
      </trkpt>
      <trkpt lat="45.2530520" lon="6.2571600">
        <ele>1735.0</ele>
        <time>2021-08-19T14:31:51Z</time>
      </trkpt>
      <trkpt lat="45.2529440" lon="6.2572080">
        <ele>1736.0</ele>
        <time>2021-08-19T14:31:57Z</time>
      </trkpt>
      <trkpt lat="45.2528780" lon="6.2572540">
        <ele>1736.8</ele>
        <time>2021-08-19T14:32:01Z</time>
      </trkpt>
      <trkpt lat="45.2528460" lon="6.2572800">
        <ele>1737.2</ele>
        <time>2021-08-19T14:32:03Z</time>
      </trkpt>
      <trkpt lat="45.2527610" lon="6.2573630">
        <ele>1738.4</ele>
        <time>2021-08-19T14:32:09Z</time>
      </trkpt>
      <trkpt lat="45.2526850" lon="6.2575110">
        <ele>1739.4</ele>
        <time>2021-08-19T14:32:16Z</time>
      </trkpt>
      <trkpt lat="45.2526740" lon="6.2575320">
        <ele>1739.6</ele>
        <time>2021-08-19T14:32:17Z</time>
      </trkpt>
      <trkpt lat="45.2526240" lon="6.2576370">
        <ele>1740.4</ele>
        <time>2021-08-19T14:32:22Z</time>
      </trkpt>
      <trkpt lat="45.2526110" lon="6.2576800">
        <ele>1741.0</ele>
        <time>2021-08-19T14:32:24Z</time>
      </trkpt>
      <trkpt lat="45.2525830" lon="6.2577390">
        <ele>1741.6</ele>
        <time>2021-08-19T14:32:27Z</time>
      </trkpt>
      <trkpt lat="45.2525330" lon="6.2578130">
        <ele>1742.8</ele>
        <time>2021-08-19T14:32:31Z</time>
      </trkpt>
      <trkpt lat="45.2524350" lon="6.2579660">
        <ele>1743.8</ele>
        <time>2021-08-19T14:32:39Z</time>
      </trkpt>
      <trkpt lat="45.2523700" lon="6.2580340">
        <ele>1744.8</ele>
        <time>2021-08-19T14:32:44Z</time>
      </trkpt>
      <trkpt lat="45.2523480" lon="6.2580470">
        <ele>1745.2</ele>
        <time>2021-08-19T14:32:46Z</time>
      </trkpt>
      <trkpt lat="45.2522440" lon="6.2580360">
        <ele>1746.0</ele>
        <time>2021-08-19T14:32:52Z</time>
      </trkpt>
      <trkpt lat="45.2522290" lon="6.2580250">
        <ele>1746.2</ele>
        <time>2021-08-19T14:32:53Z</time>
      </trkpt>
      <trkpt lat="45.2521840" lon="6.2579610">
        <ele>1747.2</ele>
        <time>2021-08-19T14:32:57Z</time>
      </trkpt>
      <trkpt lat="45.2521760" lon="6.2578950">
        <ele>1747.4</ele>
        <time>2021-08-19T14:33:00Z</time>
      </trkpt>
      <trkpt lat="45.2521790" lon="6.2578240">
        <ele>1748.2</ele>
        <time>2021-08-19T14:33:03Z</time>
      </trkpt>
      <trkpt lat="45.2521970" lon="6.2576690">
        <ele>1749.2</ele>
        <time>2021-08-19T14:33:09Z</time>
      </trkpt>
      <trkpt lat="45.2522010" lon="6.2576450">
        <ele>1749.4</ele>
        <time>2021-08-19T14:33:10Z</time>
      </trkpt>
      <trkpt lat="45.2522010" lon="6.2574900">
        <ele>1750.4</ele>
        <time>2021-08-19T14:33:16Z</time>
      </trkpt>
      <trkpt lat="45.2521900" lon="6.2574170">
        <ele>1750.8</ele>
        <time>2021-08-19T14:33:19Z</time>
      </trkpt>
      <trkpt lat="45.2521630" lon="6.2573600">
        <ele>1751.4</ele>
        <time>2021-08-19T14:33:22Z</time>
      </trkpt>
      <trkpt lat="45.2521230" lon="6.2573180">
        <ele>1752.2</ele>
        <time>2021-08-19T14:33:25Z</time>
      </trkpt>
      <trkpt lat="45.2520570" lon="6.2573080">
        <ele>1752.6</ele>
        <time>2021-08-19T14:33:29Z</time>
      </trkpt>
      <trkpt lat="45.2519780" lon="6.2573080">
        <ele>1753.4</ele>
        <time>2021-08-19T14:33:34Z</time>
      </trkpt>
      <trkpt lat="45.2519630" lon="6.2573080">
        <ele>1753.6</ele>
        <time>2021-08-19T14:33:35Z</time>
      </trkpt>
      <trkpt lat="45.2519090" lon="6.2573160">
        <ele>1754.6</ele>
        <time>2021-08-19T14:33:38Z</time>
      </trkpt>
      <trkpt lat="45.2518020" lon="6.2573160">
        <ele>1755.8</ele>
        <time>2021-08-19T14:33:44Z</time>
      </trkpt>
      <trkpt lat="45.2516750" lon="6.2572950">
        <ele>1757.0</ele>
        <time>2021-08-19T14:33:51Z</time>
      </trkpt>
      <trkpt lat="45.2516590" lon="6.2572900">
        <ele>1757.0</ele>
        <time>2021-08-19T14:33:52Z</time>
      </trkpt>
      <trkpt lat="45.2515420" lon="6.2572640">
        <ele>1758.4</ele>
        <time>2021-08-19T14:33:59Z</time>
      </trkpt>
      <trkpt lat="45.2515230" lon="6.2572660">
        <ele>1758.6</ele>
        <time>2021-08-19T14:34:00Z</time>
      </trkpt>
      <trkpt lat="45.2514530" lon="6.2572560">
        <ele>1759.6</ele>
        <time>2021-08-19T14:34:04Z</time>
      </trkpt>
      <trkpt lat="45.2514000" lon="6.2572500">
        <ele>1759.8</ele>
        <time>2021-08-19T14:34:07Z</time>
      </trkpt>
      <trkpt lat="45.2513130" lon="6.2572320">
        <ele>1761.0</ele>
        <time>2021-08-19T14:34:12Z</time>
      </trkpt>
      <trkpt lat="45.2512430" lon="6.2571970">
        <ele>1761.6</ele>
        <time>2021-08-19T14:34:16Z</time>
      </trkpt>
      <trkpt lat="45.2511860" lon="6.2571760">
        <ele>1762.2</ele>
        <time>2021-08-19T14:34:19Z</time>
      </trkpt>
      <trkpt lat="45.2510680" lon="6.2571330">
        <ele>1763.2</ele>
        <time>2021-08-19T14:34:26Z</time>
      </trkpt>
      <trkpt lat="45.2510510" lon="6.2571290">
        <ele>1763.6</ele>
        <time>2021-08-19T14:34:27Z</time>
      </trkpt>
      <trkpt lat="45.2509720" lon="6.2571130">
        <ele>1764.2</ele>
        <time>2021-08-19T14:34:32Z</time>
      </trkpt>
      <trkpt lat="45.2508440" lon="6.2570650">
        <ele>1765.2</ele>
        <time>2021-08-19T14:34:40Z</time>
      </trkpt>
      <trkpt lat="45.2508260" lon="6.2570630">
        <ele>1765.4</ele>
        <time>2021-08-19T14:34:41Z</time>
      </trkpt>
      <trkpt lat="45.2507420" lon="6.2570520">
        <ele>1766.4</ele>
        <time>2021-08-19T14:34:46Z</time>
      </trkpt>
      <trkpt lat="45.2507080" lon="6.2570470">
        <ele>1766.6</ele>
        <time>2021-08-19T14:34:48Z</time>
      </trkpt>
      <trkpt lat="45.2506360" lon="6.2570220">
        <ele>1767.4</ele>
        <time>2021-08-19T14:34:52Z</time>
      </trkpt>
      <trkpt lat="45.2506020" lon="6.2570090">
        <ele>1767.8</ele>
        <time>2021-08-19T14:34:54Z</time>
      </trkpt>
      <trkpt lat="45.2505530" lon="6.2569780">
        <ele>1768.6</ele>
        <time>2021-08-19T14:34:57Z</time>
      </trkpt>
      <trkpt lat="45.2504660" lon="6.2569430">
        <ele>1769.2</ele>
        <time>2021-08-19T14:35:02Z</time>
      </trkpt>
      <trkpt lat="45.2503880" lon="6.2569370">
        <ele>1769.6</ele>
        <time>2021-08-19T14:35:06Z</time>
      </trkpt>
      <trkpt lat="45.2502740" lon="6.2568960">
        <ele>1771.0</ele>
        <time>2021-08-19T14:35:13Z</time>
      </trkpt>
      <trkpt lat="45.2502540" lon="6.2568810">
        <ele>1771.0</ele>
        <time>2021-08-19T14:35:14Z</time>
      </trkpt>
      <trkpt lat="45.2501500" lon="6.2568290">
        <ele>1772.0</ele>
        <time>2021-08-19T14:35:20Z</time>
      </trkpt>
      <trkpt lat="45.2501330" lon="6.2568210">
        <ele>1772.2</ele>
        <time>2021-08-19T14:35:21Z</time>
      </trkpt>
      <trkpt lat="45.2501150" lon="6.2568100">
        <ele>1772.4</ele>
        <time>2021-08-19T14:35:22Z</time>
      </trkpt>
      <trkpt lat="45.2500640" lon="6.2567710">
        <ele>1773.2</ele>
        <time>2021-08-19T14:35:25Z</time>
      </trkpt>
      <trkpt lat="45.2499620" lon="6.2566610">
        <ele>1774.2</ele>
        <time>2021-08-19T14:35:32Z</time>
      </trkpt>
      <trkpt lat="45.2498470" lon="6.2565280">
        <ele>1775.2</ele>
        <time>2021-08-19T14:35:40Z</time>
      </trkpt>
      <trkpt lat="45.2497860" lon="6.2564360">
        <ele>1776.2</ele>
        <time>2021-08-19T14:35:45Z</time>
      </trkpt>
      <trkpt lat="45.2497720" lon="6.2564180">
        <ele>1776.4</ele>
        <time>2021-08-19T14:35:46Z</time>
      </trkpt>
      <trkpt lat="45.2497170" lon="6.2563420">
        <ele>1776.8</ele>
        <time>2021-08-19T14:35:50Z</time>
      </trkpt>
      <trkpt lat="45.2497030" lon="6.2563190">
        <ele>1777.0</ele>
        <time>2021-08-19T14:35:51Z</time>
      </trkpt>
      <trkpt lat="45.2496650" lon="6.2562590">
        <ele>1777.4</ele>
        <time>2021-08-19T14:35:54Z</time>
      </trkpt>
      <trkpt lat="45.2496100" lon="6.2561810">
        <ele>1778.2</ele>
        <time>2021-08-19T14:35:58Z</time>
      </trkpt>
      <trkpt lat="45.2495820" lon="6.2561460">
        <ele>1778.6</ele>
        <time>2021-08-19T14:36:00Z</time>
      </trkpt>
      <trkpt lat="45.2495030" lon="6.2560240">
        <ele>1779.6</ele>
        <time>2021-08-19T14:36:06Z</time>
      </trkpt>
      <trkpt lat="45.2494040" lon="6.2559420">
        <ele>1780.8</ele>
        <time>2021-08-19T14:36:12Z</time>
      </trkpt>
      <trkpt lat="45.2493480" lon="6.2559220">
        <ele>1781.2</ele>
        <time>2021-08-19T14:36:15Z</time>
      </trkpt>
      <trkpt lat="45.2492780" lon="6.2559190">
        <ele>1782.0</ele>
        <time>2021-08-19T14:36:19Z</time>
      </trkpt>
      <trkpt lat="45.2491890" lon="6.2558930">
        <ele>1782.8</ele>
        <time>2021-08-19T14:36:24Z</time>
      </trkpt>
      <trkpt lat="45.2491720" lon="6.2558860">
        <ele>1783.0</ele>
        <time>2021-08-19T14:36:25Z</time>
      </trkpt>
      <trkpt lat="45.2491210" lon="6.2558640">
        <ele>1784.2</ele>
        <time>2021-08-19T14:36:28Z</time>
      </trkpt>
      <trkpt lat="45.2490580" lon="6.2558040">
        <ele>1785.0</ele>
        <time>2021-08-19T14:36:32Z</time>
      </trkpt>
      <trkpt lat="45.2490430" lon="6.2557890">
        <ele>1785.0</ele>
        <time>2021-08-19T14:36:33Z</time>
      </trkpt>
      <trkpt lat="45.2490290" lon="6.2557730">
        <ele>1785.4</ele>
        <time>2021-08-19T14:36:34Z</time>
      </trkpt>
      <trkpt lat="45.2489560" lon="6.2556580">
        <ele>1786.2</ele>
        <time>2021-08-19T14:36:40Z</time>
      </trkpt>
      <trkpt lat="45.2489420" lon="6.2556390">
        <ele>1786.4</ele>
        <time>2021-08-19T14:36:41Z</time>
      </trkpt>
      <trkpt lat="45.2489010" lon="6.2555520">
        <ele>1787.6</ele>
        <time>2021-08-19T14:36:45Z</time>
      </trkpt>
      <trkpt lat="45.2488720" lon="6.2554540">
        <ele>1788.2</ele>
        <time>2021-08-19T14:36:49Z</time>
      </trkpt>
      <trkpt lat="45.2488600" lon="6.2554040">
        <ele>1788.6</ele>
        <time>2021-08-19T14:36:51Z</time>
      </trkpt>
      <trkpt lat="45.2488380" lon="6.2552440">
        <ele>1789.6</ele>
        <time>2021-08-19T14:36:57Z</time>
      </trkpt>
      <trkpt lat="45.2488310" lon="6.2551920">
        <ele>1789.8</ele>
        <time>2021-08-19T14:36:59Z</time>
      </trkpt>
      <trkpt lat="45.2488260" lon="6.2551100">
        <ele>1790.6</ele>
        <time>2021-08-19T14:37:02Z</time>
      </trkpt>
      <trkpt lat="45.2488140" lon="6.2549740">
        <ele>1791.4</ele>
        <time>2021-08-19T14:37:07Z</time>
      </trkpt>
      <trkpt lat="45.2488100" lon="6.2549480">
        <ele>1791.4</ele>
        <time>2021-08-19T14:37:08Z</time>
      </trkpt>
      <trkpt lat="45.2487860" lon="6.2547670">
        <ele>1792.6</ele>
        <time>2021-08-19T14:37:15Z</time>
      </trkpt>
      <trkpt lat="45.2487730" lon="6.2546380">
        <ele>1793.6</ele>
        <time>2021-08-19T14:37:20Z</time>
      </trkpt>
      <trkpt lat="45.2487660" lon="6.2545570">
        <ele>1794.0</ele>
        <time>2021-08-19T14:37:23Z</time>
      </trkpt>
      <trkpt lat="45.2487520" lon="6.2544250">
        <ele>1794.8</ele>
        <time>2021-08-19T14:37:28Z</time>
      </trkpt>
      <trkpt lat="45.2487450" lon="6.2543250">
        <ele>1795.6</ele>
        <time>2021-08-19T14:37:32Z</time>
      </trkpt>
      <trkpt lat="45.2487440" lon="6.2542990">
        <ele>1795.8</ele>
        <time>2021-08-19T14:37:33Z</time>
      </trkpt>
      <trkpt lat="45.2487290" lon="6.2541410">
        <ele>1797.0</ele>
        <time>2021-08-19T14:37:39Z</time>
      </trkpt>
      <trkpt lat="45.2487290" lon="6.2540620">
        <ele>1797.6</ele>
        <time>2021-08-19T14:37:42Z</time>
      </trkpt>
      <trkpt lat="45.2487290" lon="6.2539870">
        <ele>1798.4</ele>
        <time>2021-08-19T14:37:45Z</time>
      </trkpt>
      <trkpt lat="45.2487050" lon="6.2538320">
        <ele>1799.0</ele>
        <time>2021-08-19T14:37:51Z</time>
      </trkpt>
      <trkpt lat="45.2487020" lon="6.2538040">
        <ele>1799.4</ele>
        <time>2021-08-19T14:37:52Z</time>
      </trkpt>
      <trkpt lat="45.2486920" lon="6.2536500">
        <ele>1800.6</ele>
        <time>2021-08-19T14:37:58Z</time>
      </trkpt>
      <trkpt lat="45.2486670" lon="6.2534670">
        <ele>1801.8</ele>
        <time>2021-08-19T14:38:05Z</time>
      </trkpt>
      <trkpt lat="45.2486630" lon="6.2534390">
        <ele>1802.0</ele>
        <time>2021-08-19T14:38:06Z</time>
      </trkpt>
      <trkpt lat="45.2486460" lon="6.2533060">
        <ele>1802.8</ele>
        <time>2021-08-19T14:38:11Z</time>
      </trkpt>
      <trkpt lat="45.2486120" lon="6.2531510">
        <ele>1803.6</ele>
        <time>2021-08-19T14:38:17Z</time>
      </trkpt>
      <trkpt lat="45.2485960" lon="6.2530950">
        <ele>1804.0</ele>
        <time>2021-08-19T14:38:19Z</time>
      </trkpt>
      <trkpt lat="45.2485780" lon="6.2529550">
        <ele>1805.0</ele>
        <time>2021-08-19T14:38:24Z</time>
      </trkpt>
      <trkpt lat="45.2485790" lon="6.2528410">
        <ele>1805.8</ele>
        <time>2021-08-19T14:38:28Z</time>
      </trkpt>
      <trkpt lat="45.2485760" lon="6.2527890">
        <ele>1806.2</ele>
        <time>2021-08-19T14:38:30Z</time>
      </trkpt>
      <trkpt lat="45.2485790" lon="6.2526300">
        <ele>1807.2</ele>
        <time>2021-08-19T14:38:36Z</time>
      </trkpt>
      <trkpt lat="45.2485930" lon="6.2525550">
        <ele>1807.8</ele>
        <time>2021-08-19T14:38:39Z</time>
      </trkpt>
      <trkpt lat="45.2486030" lon="6.2525000">
        <ele>1808.4</ele>
        <time>2021-08-19T14:38:41Z</time>
      </trkpt>
      <trkpt lat="45.2486130" lon="6.2524140">
        <ele>1809.4</ele>
        <time>2021-08-19T14:38:44Z</time>
      </trkpt>
      <trkpt lat="45.2486210" lon="6.2523340">
        <ele>1809.8</ele>
        <time>2021-08-19T14:38:47Z</time>
      </trkpt>
      <trkpt lat="45.2486300" lon="6.2521960">
        <ele>1810.2</ele>
        <time>2021-08-19T14:38:52Z</time>
      </trkpt>
      <trkpt lat="45.2486390" lon="6.2521160">
        <ele>1811.0</ele>
        <time>2021-08-19T14:38:55Z</time>
      </trkpt>
      <trkpt lat="45.2486450" lon="6.2520190">
        <ele>1811.4</ele>
        <time>2021-08-19T14:38:59Z</time>
      </trkpt>
      <trkpt lat="45.2486540" lon="6.2519490">
        <ele>1811.8</ele>
        <time>2021-08-19T14:39:02Z</time>
      </trkpt>
      <trkpt lat="45.2486590" lon="6.2519270">
        <ele>1812.0</ele>
        <time>2021-08-19T14:39:03Z</time>
      </trkpt>
      <trkpt lat="45.2486650" lon="6.2518850">
        <ele>1812.6</ele>
        <time>2021-08-19T14:39:05Z</time>
      </trkpt>
      <trkpt lat="45.2486830" lon="6.2518030">
        <ele>1813.6</ele>
        <time>2021-08-19T14:39:09Z</time>
      </trkpt>
      <trkpt lat="45.2486810" lon="6.2517890">
        <ele>1813.8</ele>
        <time>2021-08-19T14:39:11Z</time>
      </trkpt>
      <trkpt lat="45.2486810" lon="6.2517890">
        <ele>1813.8</ele>
        <time>2021-08-19T14:39:13Z</time>
      </trkpt>
      <trkpt lat="45.2486680" lon="6.2518290">
        <ele>1814.0</ele>
        <time>2021-08-19T14:40:23Z</time>
      </trkpt>
      <trkpt lat="45.2486620" lon="6.2518680">
        <ele>1814.0</ele>
        <time>2021-08-19T14:40:24Z</time>
      </trkpt>
      <trkpt lat="45.2486460" lon="6.2520470">
        <ele>1813.8</ele>
        <time>2021-08-19T14:40:28Z</time>
      </trkpt>
      <trkpt lat="45.2486070" lon="6.2523030">
        <ele>1813.0</ele>
        <time>2021-08-19T14:40:33Z</time>
      </trkpt>
      <trkpt lat="45.2485930" lon="6.2524060">
        <ele>1812.6</ele>
        <time>2021-08-19T14:40:35Z</time>
      </trkpt>
      <trkpt lat="45.2485860" lon="6.2524570">
        <ele>1812.2</ele>
        <time>2021-08-19T14:40:36Z</time>
      </trkpt>
      <trkpt lat="45.2485710" lon="6.2526790">
        <ele>1811.0</ele>
        <time>2021-08-19T14:40:40Z</time>
      </trkpt>
      <trkpt lat="45.2485710" lon="6.2527390">
        <ele>1810.8</ele>
        <time>2021-08-19T14:40:41Z</time>
      </trkpt>
      <trkpt lat="45.2485730" lon="6.2528630">
        <ele>1810.0</ele>
        <time>2021-08-19T14:40:43Z</time>
      </trkpt>
      <trkpt lat="45.2485810" lon="6.2529860">
        <ele>1809.2</ele>
        <time>2021-08-19T14:40:45Z</time>
      </trkpt>
      <trkpt lat="45.2485900" lon="6.2530440">
        <ele>1808.8</ele>
        <time>2021-08-19T14:40:46Z</time>
      </trkpt>
      <trkpt lat="45.2486050" lon="6.2531680">
        <ele>1808.0</ele>
        <time>2021-08-19T14:40:48Z</time>
      </trkpt>
      <trkpt lat="45.2486080" lon="6.2532360">
        <ele>1807.6</ele>
        <time>2021-08-19T14:40:49Z</time>
      </trkpt>
      <trkpt lat="45.2486370" lon="6.2534450">
        <ele>1806.4</ele>
        <time>2021-08-19T14:40:52Z</time>
      </trkpt>
      <trkpt lat="45.2486630" lon="6.2536010">
        <ele>1805.4</ele>
        <time>2021-08-19T14:40:54Z</time>
      </trkpt>
      <trkpt lat="45.2486760" lon="6.2536840">
        <ele>1805.0</ele>
        <time>2021-08-19T14:40:55Z</time>
      </trkpt>
      <trkpt lat="45.2486930" lon="6.2538670">
        <ele>1804.0</ele>
        <time>2021-08-19T14:40:57Z</time>
      </trkpt>
      <trkpt lat="45.2487210" lon="6.2541400">
        <ele>1803.0</ele>
        <time>2021-08-19T14:41:00Z</time>
      </trkpt>
      <trkpt lat="45.2487270" lon="6.2542310">
        <ele>1802.4</ele>
        <time>2021-08-19T14:41:01Z</time>
      </trkpt>
      <trkpt lat="45.2487360" lon="6.2544060">
        <ele>1800.8</ele>
        <time>2021-08-19T14:41:03Z</time>
      </trkpt>
      <trkpt lat="45.2487420" lon="6.2544900">
        <ele>1799.8</ele>
        <time>2021-08-19T14:41:04Z</time>
      </trkpt>
      <trkpt lat="45.2487580" lon="6.2546510">
        <ele>1798.2</ele>
        <time>2021-08-19T14:41:06Z</time>
      </trkpt>
      <trkpt lat="45.2487640" lon="6.2547280">
        <ele>1797.8</ele>
        <time>2021-08-19T14:41:07Z</time>
      </trkpt>
      <trkpt lat="45.2487670" lon="6.2548990">
        <ele>1797.2</ele>
        <time>2021-08-19T14:41:09Z</time>
      </trkpt>
      <trkpt lat="45.2488020" lon="6.2551750">
        <ele>1795.4</ele>
        <time>2021-08-19T14:41:12Z</time>
      </trkpt>
      <trkpt lat="45.2488140" lon="6.2552630">
        <ele>1794.8</ele>
        <time>2021-08-19T14:41:13Z</time>
      </trkpt>
      <trkpt lat="45.2488250" lon="6.2553450">
        <ele>1794.0</ele>
        <time>2021-08-19T14:41:14Z</time>
      </trkpt>
      <trkpt lat="45.2488380" lon="6.2554190">
        <ele>1793.8</ele>
        <time>2021-08-19T14:41:15Z</time>
      </trkpt>
      <trkpt lat="45.2488710" lon="6.2555510">
        <ele>1792.6</ele>
        <time>2021-08-19T14:41:17Z</time>
      </trkpt>
      <trkpt lat="45.2488970" lon="6.2556170">
        <ele>1792.2</ele>
        <time>2021-08-19T14:41:18Z</time>
      </trkpt>
      <trkpt lat="45.2489680" lon="6.2557400">
        <ele>1791.4</ele>
        <time>2021-08-19T14:41:20Z</time>
      </trkpt>
      <trkpt lat="45.2490080" lon="6.2557980">
        <ele>1791.0</ele>
        <time>2021-08-19T14:41:21Z</time>
      </trkpt>
      <trkpt lat="45.2490500" lon="6.2558470">
        <ele>1790.4</ele>
        <time>2021-08-19T14:41:22Z</time>
      </trkpt>
      <trkpt lat="45.2490990" lon="6.2558840">
        <ele>1789.4</ele>
        <time>2021-08-19T14:41:23Z</time>
      </trkpt>
      <trkpt lat="45.2491560" lon="6.2559120">
        <ele>1789.2</ele>
        <time>2021-08-19T14:41:24Z</time>
      </trkpt>
      <trkpt lat="45.2492890" lon="6.2559500">
        <ele>1788.4</ele>
        <time>2021-08-19T14:41:26Z</time>
      </trkpt>
      <trkpt lat="45.2493590" lon="6.2559670">
        <ele>1787.8</ele>
        <time>2021-08-19T14:41:27Z</time>
      </trkpt>
      <trkpt lat="45.2494250" lon="6.2559950">
        <ele>1787.4</ele>
        <time>2021-08-19T14:41:28Z</time>
      </trkpt>
      <trkpt lat="45.2494810" lon="6.2560420">
        <ele>1786.2</ele>
        <time>2021-08-19T14:41:29Z</time>
      </trkpt>
      <trkpt lat="45.2495300" lon="6.2561030">
        <ele>1785.0</ele>
        <time>2021-08-19T14:41:30Z</time>
      </trkpt>
      <trkpt lat="45.2496100" lon="6.2562350">
        <ele>1783.2</ele>
        <time>2021-08-19T14:41:32Z</time>
      </trkpt>
      <trkpt lat="45.2496460" lon="6.2562960">
        <ele>1783.0</ele>
        <time>2021-08-19T14:41:33Z</time>
      </trkpt>
      <trkpt lat="45.2496820" lon="6.2563520">
        <ele>1782.2</ele>
        <time>2021-08-19T14:41:34Z</time>
      </trkpt>
      <trkpt lat="45.2497190" lon="6.2564050">
        <ele>1781.8</ele>
        <time>2021-08-19T14:41:35Z</time>
      </trkpt>
      <trkpt lat="45.2498300" lon="6.2565660">
        <ele>1780.2</ele>
        <time>2021-08-19T14:41:38Z</time>
      </trkpt>
      <trkpt lat="45.2499530" lon="6.2566940">
        <ele>1779.0</ele>
        <time>2021-08-19T14:41:41Z</time>
      </trkpt>
      <trkpt lat="45.2500130" lon="6.2567450">
        <ele>1778.0</ele>
        <time>2021-08-19T14:41:42Z</time>
      </trkpt>
      <trkpt lat="45.2500680" lon="6.2567890">
        <ele>1777.6</ele>
        <time>2021-08-19T14:41:43Z</time>
      </trkpt>
      <trkpt lat="45.2501800" lon="6.2568620">
        <ele>1776.2</ele>
        <time>2021-08-19T14:41:45Z</time>
      </trkpt>
      <trkpt lat="45.2503420" lon="6.2569390">
        <ele>1775.0</ele>
        <time>2021-08-19T14:41:48Z</time>
      </trkpt>
      <trkpt lat="45.2504980" lon="6.2569850">
        <ele>1773.8</ele>
        <time>2021-08-19T14:41:51Z</time>
      </trkpt>
      <trkpt lat="45.2506130" lon="6.2570090">
        <ele>1772.6</ele>
        <time>2021-08-19T14:41:53Z</time>
      </trkpt>
      <trkpt lat="45.2507030" lon="6.2570170">
        <ele>1771.8</ele>
        <time>2021-08-19T14:41:55Z</time>
      </trkpt>
      <trkpt lat="45.2507520" lon="6.2570260">
        <ele>1771.6</ele>
        <time>2021-08-19T14:41:56Z</time>
      </trkpt>
      <trkpt lat="45.2508900" lon="6.2570840">
        <ele>1770.0</ele>
        <time>2021-08-19T14:41:59Z</time>
      </trkpt>
      <trkpt lat="45.2509370" lon="6.2571020">
        <ele>1769.4</ele>
        <time>2021-08-19T14:42:00Z</time>
      </trkpt>
      <trkpt lat="45.2510510" lon="6.2571420">
        <ele>1768.8</ele>
        <time>2021-08-19T14:42:02Z</time>
      </trkpt>
      <trkpt lat="45.2512420" lon="6.2572090">
        <ele>1767.0</ele>
        <time>2021-08-19T14:42:06Z</time>
      </trkpt>
      <trkpt lat="45.2513520" lon="6.2572500">
        <ele>1765.6</ele>
        <time>2021-08-19T14:42:08Z</time>
      </trkpt>
      <trkpt lat="45.2514960" lon="6.2572830">
        <ele>1764.4</ele>
        <time>2021-08-19T14:42:11Z</time>
      </trkpt>
      <trkpt lat="45.2516100" lon="6.2573010">
        <ele>1762.6</ele>
        <time>2021-08-19T14:42:13Z</time>
      </trkpt>
      <trkpt lat="45.2517040" lon="6.2573180">
        <ele>1761.6</ele>
        <time>2021-08-19T14:42:15Z</time>
      </trkpt>
      <trkpt lat="45.2517580" lon="6.2573270">
        <ele>1761.2</ele>
        <time>2021-08-19T14:42:16Z</time>
      </trkpt>
      <trkpt lat="45.2518770" lon="6.2573260">
        <ele>1760.0</ele>
        <time>2021-08-19T14:42:18Z</time>
      </trkpt>
      <trkpt lat="45.2520090" lon="6.2573110">
        <ele>1758.2</ele>
        <time>2021-08-19T14:42:21Z</time>
      </trkpt>
      <trkpt lat="45.2520930" lon="6.2573020">
        <ele>1756.6</ele>
        <time>2021-08-19T14:42:23Z</time>
      </trkpt>
      <trkpt lat="45.2521520" lon="6.2573480">
        <ele>1756.0</ele>
        <time>2021-08-19T14:42:25Z</time>
      </trkpt>
      <trkpt lat="45.2521870" lon="6.2574770">
        <ele>1755.4</ele>
        <time>2021-08-19T14:42:27Z</time>
      </trkpt>
      <trkpt lat="45.2521870" lon="6.2575490">
        <ele>1754.6</ele>
        <time>2021-08-19T14:42:28Z</time>
      </trkpt>
      <trkpt lat="45.2521800" lon="6.2576180">
        <ele>1754.2</ele>
        <time>2021-08-19T14:42:29Z</time>
      </trkpt>
      <trkpt lat="45.2521560" lon="6.2578200">
        <ele>1753.0</ele>
        <time>2021-08-19T14:42:32Z</time>
      </trkpt>
      <trkpt lat="45.2521500" lon="6.2578820">
        <ele>1752.8</ele>
        <time>2021-08-19T14:42:33Z</time>
      </trkpt>
      <trkpt lat="45.2521480" lon="6.2579310">
        <ele>1751.8</ele>
        <time>2021-08-19T14:42:34Z</time>
      </trkpt>
      <trkpt lat="45.2521510" lon="6.2579850">
        <ele>1751.4</ele>
        <time>2021-08-19T14:42:35Z</time>
      </trkpt>
      <trkpt lat="45.2522000" lon="6.2580820">
        <ele>1750.8</ele>
        <time>2021-08-19T14:42:37Z</time>
      </trkpt>
      <trkpt lat="45.2522710" lon="6.2581060">
        <ele>1750.4</ele>
        <time>2021-08-19T14:42:39Z</time>
      </trkpt>
      <trkpt lat="45.2523220" lon="6.2580960">
        <ele>1749.6</ele>
        <time>2021-08-19T14:42:40Z</time>
      </trkpt>
      <trkpt lat="45.2523630" lon="6.2580730">
        <ele>1749.4</ele>
        <time>2021-08-19T14:42:41Z</time>
      </trkpt>
      <trkpt lat="45.2524340" lon="6.2580050">
        <ele>1748.2</ele>
        <time>2021-08-19T14:42:43Z</time>
      </trkpt>
      <trkpt lat="45.2524940" lon="6.2579260">
        <ele>1747.4</ele>
        <time>2021-08-19T14:42:45Z</time>
      </trkpt>
      <trkpt lat="45.2525270" lon="6.2578740">
        <ele>1747.0</ele>
        <time>2021-08-19T14:42:46Z</time>
      </trkpt>
      <trkpt lat="45.2526020" lon="6.2577500">
        <ele>1746.0</ele>
        <time>2021-08-19T14:42:48Z</time>
      </trkpt>
      <trkpt lat="45.2526590" lon="6.2576380">
        <ele>1745.2</ele>
        <time>2021-08-19T14:42:50Z</time>
      </trkpt>
      <trkpt lat="45.2526890" lon="6.2575770">
        <ele>1744.4</ele>
        <time>2021-08-19T14:42:51Z</time>
      </trkpt>
      <trkpt lat="45.2527220" lon="6.2575000">
        <ele>1744.0</ele>
        <time>2021-08-19T14:42:52Z</time>
      </trkpt>
      <trkpt lat="45.2527740" lon="6.2573910">
        <ele>1743.4</ele>
        <time>2021-08-19T14:42:54Z</time>
      </trkpt>
      <trkpt lat="45.2528100" lon="6.2573450">
        <ele>1742.6</ele>
        <time>2021-08-19T14:42:55Z</time>
      </trkpt>
      <trkpt lat="45.2529000" lon="6.2572640">
        <ele>1741.6</ele>
        <time>2021-08-19T14:42:57Z</time>
      </trkpt>
      <trkpt lat="45.2530160" lon="6.2571890">
        <ele>1740.2</ele>
        <time>2021-08-19T14:43:00Z</time>
      </trkpt>
      <trkpt lat="45.2530580" lon="6.2571670">
        <ele>1739.8</ele>
        <time>2021-08-19T14:43:01Z</time>
      </trkpt>
      <trkpt lat="45.2531070" lon="6.2571440">
        <ele>1739.2</ele>
        <time>2021-08-19T14:43:02Z</time>
      </trkpt>
      <trkpt lat="45.2531910" lon="6.2571170">
        <ele>1738.2</ele>
        <time>2021-08-19T14:43:04Z</time>
      </trkpt>
      <trkpt lat="45.2532330" lon="6.2571090">
        <ele>1737.6</ele>
        <time>2021-08-19T14:43:05Z</time>
      </trkpt>
      <trkpt lat="45.2533190" lon="6.2570960">
        <ele>1737.0</ele>
        <time>2021-08-19T14:43:07Z</time>
      </trkpt>
      <trkpt lat="45.2533710" lon="6.2570790">
        <ele>1736.4</ele>
        <time>2021-08-19T14:43:08Z</time>
      </trkpt>
      <trkpt lat="45.2534870" lon="6.2570200">
        <ele>1735.2</ele>
        <time>2021-08-19T14:43:11Z</time>
      </trkpt>
      <trkpt lat="45.2535690" lon="6.2569930">
        <ele>1733.8</ele>
        <time>2021-08-19T14:43:13Z</time>
      </trkpt>
      <trkpt lat="45.2536490" lon="6.2569870">
        <ele>1733.2</ele>
        <time>2021-08-19T14:43:15Z</time>
      </trkpt>
      <trkpt lat="45.2537320" lon="6.2570250">
        <ele>1732.8</ele>
        <time>2021-08-19T14:43:17Z</time>
      </trkpt>
      <trkpt lat="45.2537730" lon="6.2570610">
        <ele>1732.6</ele>
        <time>2021-08-19T14:43:18Z</time>
      </trkpt>
      <trkpt lat="45.2538440" lon="6.2571280">
        <ele>1731.6</ele>
        <time>2021-08-19T14:43:20Z</time>
      </trkpt>
      <trkpt lat="45.2539220" lon="6.2572230">
        <ele>1730.6</ele>
        <time>2021-08-19T14:43:22Z</time>
      </trkpt>
      <trkpt lat="45.2539510" lon="6.2572780">
        <ele>1730.0</ele>
        <time>2021-08-19T14:43:23Z</time>
      </trkpt>
      <trkpt lat="45.2539740" lon="6.2573360">
        <ele>1729.8</ele>
        <time>2021-08-19T14:43:24Z</time>
      </trkpt>
      <trkpt lat="45.2539970" lon="6.2574090">
        <ele>1728.8</ele>
        <time>2021-08-19T14:43:25Z</time>
      </trkpt>
      <trkpt lat="45.2540410" lon="6.2576010">
        <ele>1727.6</ele>
        <time>2021-08-19T14:43:28Z</time>
      </trkpt>
      <trkpt lat="45.2541410" lon="6.2578080">
        <ele>1727.0</ele>
        <time>2021-08-19T14:43:31Z</time>
      </trkpt>
      <trkpt lat="45.2541810" lon="6.2578660">
        <ele>1726.0</ele>
        <time>2021-08-19T14:43:32Z</time>
      </trkpt>
      <trkpt lat="45.2542640" lon="6.2579590">
        <ele>1724.6</ele>
        <time>2021-08-19T14:43:34Z</time>
      </trkpt>
      <trkpt lat="45.2543330" lon="6.2580490">
        <ele>1723.0</ele>
        <time>2021-08-19T14:43:36Z</time>
      </trkpt>
      <trkpt lat="45.2543620" lon="6.2580980">
        <ele>1722.4</ele>
        <time>2021-08-19T14:43:37Z</time>
      </trkpt>
      <trkpt lat="45.2543830" lon="6.2581520">
        <ele>1721.8</ele>
        <time>2021-08-19T14:43:38Z</time>
      </trkpt>
      <trkpt lat="45.2544000" lon="6.2582110">
        <ele>1721.6</ele>
        <time>2021-08-19T14:43:39Z</time>
      </trkpt>
      <trkpt lat="45.2544160" lon="6.2582730">
        <ele>1720.6</ele>
        <time>2021-08-19T14:43:40Z</time>
      </trkpt>
      <trkpt lat="45.2544430" lon="6.2583910">
        <ele>1719.8</ele>
        <time>2021-08-19T14:43:42Z</time>
      </trkpt>
      <trkpt lat="45.2544530" lon="6.2584490">
        <ele>1719.4</ele>
        <time>2021-08-19T14:43:43Z</time>
      </trkpt>
      <trkpt lat="45.2544690" lon="6.2585920">
        <ele>1719.0</ele>
        <time>2021-08-19T14:43:46Z</time>
      </trkpt>
      <trkpt lat="45.2544720" lon="6.2586340">
        <ele>1718.2</ele>
        <time>2021-08-19T14:43:47Z</time>
      </trkpt>
      <trkpt lat="45.2544830" lon="6.2587410">
        <ele>1717.0</ele>
        <time>2021-08-19T14:43:50Z</time>
      </trkpt>
      <trkpt lat="45.2544590" lon="6.2588500">
        <ele>1716.0</ele>
        <time>2021-08-19T14:43:53Z</time>
      </trkpt>
      <trkpt lat="45.2544350" lon="6.2590580">
        <ele>1715.0</ele>
        <time>2021-08-19T14:43:57Z</time>
      </trkpt>
      <trkpt lat="45.2539430" lon="6.2609240">
        <ele>1710.2</ele>
        <time>2021-08-19T14:44:31Z</time>
      </trkpt>
      <trkpt lat="45.2539380" lon="6.2609530">
        <ele>1710.2</ele>
        <time>2021-08-19T14:44:32Z</time>
      </trkpt>
      <trkpt lat="45.2539370" lon="6.2610100">
        <ele>1710.2</ele>
        <time>2021-08-19T14:44:33Z</time>
      </trkpt>
      <trkpt lat="45.2539430" lon="6.2611290">
        <ele>1710.0</ele>
        <time>2021-08-19T14:44:35Z</time>
      </trkpt>
      <trkpt lat="45.2539590" lon="6.2612550">
        <ele>1710.0</ele>
        <time>2021-08-19T14:44:37Z</time>
      </trkpt>
      <trkpt lat="45.2539690" lon="6.2613160">
        <ele>1709.8</ele>
        <time>2021-08-19T14:44:38Z</time>
      </trkpt>
      <trkpt lat="45.2540310" lon="6.2616260">
        <ele>1709.0</ele>
        <time>2021-08-19T14:44:43Z</time>
      </trkpt>
      <trkpt lat="45.2540630" lon="6.2617330">
        <ele>1708.8</ele>
        <time>2021-08-19T14:44:45Z</time>
      </trkpt>
      <trkpt lat="45.2540780" lon="6.2617950">
        <ele>1708.8</ele>
        <time>2021-08-19T14:44:46Z</time>
      </trkpt>
      <trkpt lat="45.2541220" lon="6.2619930">
        <ele>1708.0</ele>
        <time>2021-08-19T14:44:49Z</time>
      </trkpt>
      <trkpt lat="45.2541370" lon="6.2620420">
        <ele>1708.0</ele>
        <time>2021-08-19T14:44:50Z</time>
      </trkpt>
      <trkpt lat="45.2542140" lon="6.2623090">
        <ele>1707.2</ele>
        <time>2021-08-19T14:44:54Z</time>
      </trkpt>
      <trkpt lat="45.2542850" lon="6.2625910">
        <ele>1707.2</ele>
        <time>2021-08-19T14:44:58Z</time>
      </trkpt>
      <trkpt lat="45.2543630" lon="6.2628840">
        <ele>1706.8</ele>
        <time>2021-08-19T14:45:02Z</time>
      </trkpt>
      <trkpt lat="45.2544330" lon="6.2631830">
        <ele>1706.4</ele>
        <time>2021-08-19T14:45:06Z</time>
      </trkpt>
      <trkpt lat="45.2545510" lon="6.2638770">
        <ele>1706.0</ele>
        <time>2021-08-19T14:45:15Z</time>
      </trkpt>
      <trkpt lat="45.2545860" lon="6.2641850">
        <ele>1705.8</ele>
        <time>2021-08-19T14:45:19Z</time>
      </trkpt>
      <trkpt lat="45.2545980" lon="6.2644170">
        <ele>1705.6</ele>
        <time>2021-08-19T14:45:22Z</time>
      </trkpt>
      <trkpt lat="45.2546400" lon="6.2649800">
        <ele>1705.2</ele>
        <time>2021-08-19T14:45:29Z</time>
      </trkpt>
      <trkpt lat="45.2546540" lon="6.2650650">
        <ele>1704.8</ele>
        <time>2021-08-19T14:45:30Z</time>
      </trkpt>
      <trkpt lat="45.2547630" lon="6.2656010">
        <ele>1704.0</ele>
        <time>2021-08-19T14:45:36Z</time>
      </trkpt>
      <trkpt lat="45.2548170" lon="6.2657850">
        <ele>1703.6</ele>
        <time>2021-08-19T14:45:38Z</time>
      </trkpt>
      <trkpt lat="45.2549580" lon="6.2662580">
        <ele>1702.2</ele>
        <time>2021-08-19T14:45:43Z</time>
      </trkpt>
      <trkpt lat="45.2550130" lon="6.2664560">
        <ele>1701.6</ele>
        <time>2021-08-19T14:45:45Z</time>
      </trkpt>
      <trkpt lat="45.2550690" lon="6.2666720">
        <ele>1700.8</ele>
        <time>2021-08-19T14:45:47Z</time>
      </trkpt>
      <trkpt lat="45.2551320" lon="6.2670270">
        <ele>1699.4</ele>
        <time>2021-08-19T14:45:50Z</time>
      </trkpt>
      <trkpt lat="45.2551620" lon="6.2672720">
        <ele>1698.4</ele>
        <time>2021-08-19T14:45:52Z</time>
      </trkpt>
      <trkpt lat="45.2551910" lon="6.2676200">
        <ele>1697.0</ele>
        <time>2021-08-19T14:45:55Z</time>
      </trkpt>
      <trkpt lat="45.2552000" lon="6.2677290">
        <ele>1696.4</ele>
        <time>2021-08-19T14:45:56Z</time>
      </trkpt>
      <trkpt lat="45.2552260" lon="6.2679570">
        <ele>1695.6</ele>
        <time>2021-08-19T14:45:58Z</time>
      </trkpt>
      <trkpt lat="45.2552540" lon="6.2682390">
        <ele>1694.4</ele>
        <time>2021-08-19T14:46:01Z</time>
      </trkpt>
      <trkpt lat="45.2552650" lon="6.2683350">
        <ele>1694.0</ele>
        <time>2021-08-19T14:46:02Z</time>
      </trkpt>
      <trkpt lat="45.2552880" lon="6.2685280">
        <ele>1692.8</ele>
        <time>2021-08-19T14:46:04Z</time>
      </trkpt>
      <trkpt lat="45.2553130" lon="6.2688080">
        <ele>1691.4</ele>
        <time>2021-08-19T14:46:07Z</time>
      </trkpt>
      <trkpt lat="45.2553250" lon="6.2690990">
        <ele>1690.4</ele>
        <time>2021-08-19T14:46:10Z</time>
      </trkpt>
      <trkpt lat="45.2553200" lon="6.2692010">
        <ele>1689.2</ele>
        <time>2021-08-19T14:46:11Z</time>
      </trkpt>
      <trkpt lat="45.2553020" lon="6.2693900">
        <ele>1687.8</ele>
        <time>2021-08-19T14:46:13Z</time>
      </trkpt>
      <trkpt lat="45.2552810" lon="6.2695480">
        <ele>1686.6</ele>
        <time>2021-08-19T14:46:15Z</time>
      </trkpt>
      <trkpt lat="45.2552480" lon="6.2696800">
        <ele>1685.4</ele>
        <time>2021-08-19T14:46:17Z</time>
      </trkpt>
      <trkpt lat="45.2552260" lon="6.2697430">
        <ele>1685.0</ele>
        <time>2021-08-19T14:46:18Z</time>
      </trkpt>
      <trkpt lat="45.2551990" lon="6.2698030">
        <ele>1684.4</ele>
        <time>2021-08-19T14:46:19Z</time>
      </trkpt>
      <trkpt lat="45.2551680" lon="6.2698590">
        <ele>1684.0</ele>
        <time>2021-08-19T14:46:20Z</time>
      </trkpt>
      <trkpt lat="45.2551360" lon="6.2699130">
        <ele>1683.0</ele>
        <time>2021-08-19T14:46:21Z</time>
      </trkpt>
      <trkpt lat="45.2551030" lon="6.2699640">
        <ele>1682.6</ele>
        <time>2021-08-19T14:46:22Z</time>
      </trkpt>
      <trkpt lat="45.2550340" lon="6.2700550">
        <ele>1681.6</ele>
        <time>2021-08-19T14:46:24Z</time>
      </trkpt>
      <trkpt lat="45.2549660" lon="6.2701300">
        <ele>1680.4</ele>
        <time>2021-08-19T14:46:26Z</time>
      </trkpt>
      <trkpt lat="45.2549360" lon="6.2701610">
        <ele>1680.2</ele>
        <time>2021-08-19T14:46:27Z</time>
      </trkpt>
      <trkpt lat="45.2549090" lon="6.2701900">
        <ele>1679.4</ele>
        <time>2021-08-19T14:46:28Z</time>
      </trkpt>
      <trkpt lat="45.2548460" lon="6.2702540">
        <ele>1678.4</ele>
        <time>2021-08-19T14:46:31Z</time>
      </trkpt>
      <trkpt lat="45.2548280" lon="6.2702800">
        <ele>1678.0</ele>
        <time>2021-08-19T14:46:32Z</time>
      </trkpt>
      <trkpt lat="45.2547940" lon="6.2703320">
        <ele>1677.2</ele>
        <time>2021-08-19T14:46:34Z</time>
      </trkpt>
      <trkpt lat="45.2547770" lon="6.2703670">
        <ele>1676.6</ele>
        <time>2021-08-19T14:46:36Z</time>
      </trkpt>
      <trkpt lat="45.2547770" lon="6.2703730">
        <ele>1676.2</ele>
        <time>2021-08-19T14:46:38Z</time>
      </trkpt>
      <trkpt lat="45.2548530" lon="6.2704810">
        <ele>1675.2</ele>
        <time>2021-08-19T14:51:35Z</time>
      </trkpt>
      <trkpt lat="45.2548730" lon="6.2705120">
        <ele>1675.2</ele>
        <time>2021-08-19T14:51:36Z</time>
      </trkpt>
      <trkpt lat="45.2548980" lon="6.2705450">
        <ele>1675.0</ele>
        <time>2021-08-19T14:51:37Z</time>
      </trkpt>
      <trkpt lat="45.2550740" lon="6.2706380">
        <ele>1674.8</ele>
        <time>2021-08-19T14:51:41Z</time>
      </trkpt>
      <trkpt lat="45.2551330" lon="6.2706650">
        <ele>1674.6</ele>
        <time>2021-08-19T14:51:42Z</time>
      </trkpt>
      <trkpt lat="45.2553120" lon="6.2708230">
        <ele>1674.0</ele>
        <time>2021-08-19T14:51:45Z</time>
      </trkpt>
      <trkpt lat="45.2554740" lon="6.2710450">
        <ele>1672.6</ele>
        <time>2021-08-19T14:51:48Z</time>
      </trkpt>
      <trkpt lat="45.2555820" lon="6.2711890">
        <ele>1672.0</ele>
        <time>2021-08-19T14:51:50Z</time>
      </trkpt>
      <trkpt lat="45.2556310" lon="6.2712600">
        <ele>1671.4</ele>
        <time>2021-08-19T14:51:51Z</time>
      </trkpt>
      <trkpt lat="45.2556830" lon="6.2713320">
        <ele>1670.4</ele>
        <time>2021-08-19T14:51:52Z</time>
      </trkpt>
      <trkpt lat="45.2557890" lon="6.2714700">
        <ele>1668.6</ele>
        <time>2021-08-19T14:51:54Z</time>
      </trkpt>
      <trkpt lat="45.2559570" lon="6.2716940">
        <ele>1666.8</ele>
        <time>2021-08-19T14:51:57Z</time>
      </trkpt>
      <trkpt lat="45.2560200" lon="6.2717620">
        <ele>1666.2</ele>
        <time>2021-08-19T14:51:58Z</time>
      </trkpt>
      <trkpt lat="45.2560880" lon="6.2718270">
        <ele>1665.6</ele>
        <time>2021-08-19T14:51:59Z</time>
      </trkpt>
      <trkpt lat="45.2562390" lon="6.2719430">
        <ele>1664.6</ele>
        <time>2021-08-19T14:52:01Z</time>
      </trkpt>
      <trkpt lat="45.2563190" lon="6.2719990">
        <ele>1664.4</ele>
        <time>2021-08-19T14:52:02Z</time>
      </trkpt>
      <trkpt lat="45.2563940" lon="6.2720560">
        <ele>1663.2</ele>
        <time>2021-08-19T14:52:03Z</time>
      </trkpt>
      <trkpt lat="45.2565270" lon="6.2721760">
        <ele>1661.8</ele>
        <time>2021-08-19T14:52:05Z</time>
      </trkpt>
      <trkpt lat="45.2565800" lon="6.2722560">
        <ele>1661.2</ele>
        <time>2021-08-19T14:52:06Z</time>
      </trkpt>
      <trkpt lat="45.2566220" lon="6.2723520">
        <ele>1660.0</ele>
        <time>2021-08-19T14:52:07Z</time>
      </trkpt>
      <trkpt lat="45.2566590" lon="6.2724480">
        <ele>1659.8</ele>
        <time>2021-08-19T14:52:08Z</time>
      </trkpt>
      <trkpt lat="45.2567430" lon="6.2726280">
        <ele>1659.0</ele>
        <time>2021-08-19T14:52:10Z</time>
      </trkpt>
      <trkpt lat="45.2567970" lon="6.2727070">
        <ele>1658.4</ele>
        <time>2021-08-19T14:52:11Z</time>
      </trkpt>
      <trkpt lat="45.2568600" lon="6.2727740">
        <ele>1657.4</ele>
        <time>2021-08-19T14:52:12Z</time>
      </trkpt>
      <trkpt lat="45.2569300" lon="6.2728300">
        <ele>1657.2</ele>
        <time>2021-08-19T14:52:13Z</time>
      </trkpt>
      <trkpt lat="45.2570030" lon="6.2728790">
        <ele>1656.2</ele>
        <time>2021-08-19T14:52:14Z</time>
      </trkpt>
      <trkpt lat="45.2572540" lon="6.2730030">
        <ele>1655.0</ele>
        <time>2021-08-19T14:52:17Z</time>
      </trkpt>
      <trkpt lat="45.2573410" lon="6.2730410">
        <ele>1654.4</ele>
        <time>2021-08-19T14:52:18Z</time>
      </trkpt>
      <trkpt lat="45.2574230" lon="6.2730870">
        <ele>1654.2</ele>
        <time>2021-08-19T14:52:19Z</time>
      </trkpt>
      <trkpt lat="45.2575000" lon="6.2731430">
        <ele>1653.6</ele>
        <time>2021-08-19T14:52:20Z</time>
      </trkpt>
      <trkpt lat="45.2575740" lon="6.2732110">
        <ele>1653.2</ele>
        <time>2021-08-19T14:52:21Z</time>
      </trkpt>
      <trkpt lat="45.2576460" lon="6.2732950">
        <ele>1651.8</ele>
        <time>2021-08-19T14:52:22Z</time>
      </trkpt>
      <trkpt lat="45.2577780" lon="6.2735070">
        <ele>1650.8</ele>
        <time>2021-08-19T14:52:24Z</time>
      </trkpt>
      <trkpt lat="45.2579150" lon="6.2737270">
        <ele>1649.4</ele>
        <time>2021-08-19T14:52:26Z</time>
      </trkpt>
      <trkpt lat="45.2580390" lon="6.2739420">
        <ele>1648.2</ele>
        <time>2021-08-19T14:52:28Z</time>
      </trkpt>
      <trkpt lat="45.2580960" lon="6.2740410">
        <ele>1646.2</ele>
        <time>2021-08-19T14:52:29Z</time>
      </trkpt>
      <trkpt lat="45.2581590" lon="6.2741270">
        <ele>1645.4</ele>
        <time>2021-08-19T14:52:30Z</time>
      </trkpt>
      <trkpt lat="45.2582310" lon="6.2741960">
        <ele>1643.4</ele>
        <time>2021-08-19T14:52:31Z</time>
      </trkpt>
      <trkpt lat="45.2583080" lon="6.2742470">
        <ele>1642.8</ele>
        <time>2021-08-19T14:52:32Z</time>
      </trkpt>
      <trkpt lat="45.2583950" lon="6.2742800">
        <ele>1641.8</ele>
        <time>2021-08-19T14:52:33Z</time>
      </trkpt>
      <trkpt lat="45.2584900" lon="6.2742950">
        <ele>1641.6</ele>
        <time>2021-08-19T14:52:34Z</time>
      </trkpt>
      <trkpt lat="45.2586820" lon="6.2743310">
        <ele>1640.4</ele>
        <time>2021-08-19T14:52:36Z</time>
      </trkpt>
      <trkpt lat="45.2587760" lon="6.2743650">
        <ele>1639.0</ele>
        <time>2021-08-19T14:52:37Z</time>
      </trkpt>
      <trkpt lat="45.2588640" lon="6.2744080">
        <ele>1638.2</ele>
        <time>2021-08-19T14:52:38Z</time>
      </trkpt>
      <trkpt lat="45.2589490" lon="6.2744660">
        <ele>1636.8</ele>
        <time>2021-08-19T14:52:39Z</time>
      </trkpt>
      <trkpt lat="45.2590290" lon="6.2745370">
        <ele>1635.6</ele>
        <time>2021-08-19T14:52:40Z</time>
      </trkpt>
      <trkpt lat="45.2591070" lon="6.2746220">
        <ele>1635.2</ele>
        <time>2021-08-19T14:52:41Z</time>
      </trkpt>
      <trkpt lat="45.2591860" lon="6.2747190">
        <ele>1634.6</ele>
        <time>2021-08-19T14:52:42Z</time>
      </trkpt>
      <trkpt lat="45.2593480" lon="6.2749350">
        <ele>1631.8</ele>
        <time>2021-08-19T14:52:44Z</time>
      </trkpt>
      <trkpt lat="45.2595030" lon="6.2751430">
        <ele>1629.8</ele>
        <time>2021-08-19T14:52:46Z</time>
      </trkpt>
      <trkpt lat="45.2596440" lon="6.2753330">
        <ele>1627.6</ele>
        <time>2021-08-19T14:52:48Z</time>
      </trkpt>
      <trkpt lat="45.2597140" lon="6.2754090">
        <ele>1627.0</ele>
        <time>2021-08-19T14:52:49Z</time>
      </trkpt>
      <trkpt lat="45.2597880" lon="6.2754720">
        <ele>1625.6</ele>
        <time>2021-08-19T14:52:50Z</time>
      </trkpt>
      <trkpt lat="45.2598720" lon="6.2755160">
        <ele>1625.2</ele>
        <time>2021-08-19T14:52:51Z</time>
      </trkpt>
      <trkpt lat="45.2599650" lon="6.2755360">
        <ele>1624.4</ele>
        <time>2021-08-19T14:52:52Z</time>
      </trkpt>
      <trkpt lat="45.2600590" lon="6.2755480">
        <ele>1624.4</ele>
        <time>2021-08-19T14:52:53Z</time>
      </trkpt>
      <trkpt lat="45.2601510" lon="6.2755680">
        <ele>1623.6</ele>
        <time>2021-08-19T14:52:54Z</time>
      </trkpt>
      <trkpt lat="45.2602330" lon="6.2756050">
        <ele>1622.4</ele>
        <time>2021-08-19T14:52:55Z</time>
      </trkpt>
      <trkpt lat="45.2603090" lon="6.2756650">
        <ele>1622.0</ele>
        <time>2021-08-19T14:52:56Z</time>
      </trkpt>
      <trkpt lat="45.2603740" lon="6.2757560">
        <ele>1620.6</ele>
        <time>2021-08-19T14:52:57Z</time>
      </trkpt>
      <trkpt lat="45.2604220" lon="6.2758750">
        <ele>1619.8</ele>
        <time>2021-08-19T14:52:58Z</time>
      </trkpt>
      <trkpt lat="45.2604670" lon="6.2760070">
        <ele>1618.6</ele>
        <time>2021-08-19T14:52:59Z</time>
      </trkpt>
      <trkpt lat="45.2605690" lon="6.2762730">
        <ele>1616.6</ele>
        <time>2021-08-19T14:53:01Z</time>
      </trkpt>
      <trkpt lat="45.2606150" lon="6.2764060">
        <ele>1616.2</ele>
        <time>2021-08-19T14:53:02Z</time>
      </trkpt>
      <trkpt lat="45.2606460" lon="6.2765420">
        <ele>1614.6</ele>
        <time>2021-08-19T14:53:03Z</time>
      </trkpt>
      <trkpt lat="45.2606540" lon="6.2766800">
        <ele>1613.6</ele>
        <time>2021-08-19T14:53:04Z</time>
      </trkpt>
      <trkpt lat="45.2606400" lon="6.2768160">
        <ele>1612.4</ele>
        <time>2021-08-19T14:53:05Z</time>
      </trkpt>
      <trkpt lat="45.2606060" lon="6.2769480">
        <ele>1612.0</ele>
        <time>2021-08-19T14:53:06Z</time>
      </trkpt>
      <trkpt lat="45.2605560" lon="6.2770770">
        <ele>1610.8</ele>
        <time>2021-08-19T14:53:07Z</time>
      </trkpt>
      <trkpt lat="45.2605040" lon="6.2772050">
        <ele>1610.0</ele>
        <time>2021-08-19T14:53:08Z</time>
      </trkpt>
      <trkpt lat="45.2604530" lon="6.2773370">
        <ele>1608.6</ele>
        <time>2021-08-19T14:53:09Z</time>
      </trkpt>
      <trkpt lat="45.2604040" lon="6.2774710">
        <ele>1607.4</ele>
        <time>2021-08-19T14:53:10Z</time>
      </trkpt>
      <trkpt lat="45.2602870" lon="6.2777430">
        <ele>1606.0</ele>
        <time>2021-08-19T14:53:12Z</time>
      </trkpt>
      <trkpt lat="45.2601750" lon="6.2780050">
        <ele>1604.6</ele>
        <time>2021-08-19T14:53:14Z</time>
      </trkpt>
      <trkpt lat="45.2600750" lon="6.2782450">
        <ele>1602.8</ele>
        <time>2021-08-19T14:53:16Z</time>
      </trkpt>
      <trkpt lat="45.2599830" lon="6.2784640">
        <ele>1601.0</ele>
        <time>2021-08-19T14:53:18Z</time>
      </trkpt>
      <trkpt lat="45.2599500" lon="6.2785710">
        <ele>1600.6</ele>
        <time>2021-08-19T14:53:19Z</time>
      </trkpt>
      <trkpt lat="45.2599260" lon="6.2786810">
        <ele>1599.0</ele>
        <time>2021-08-19T14:53:20Z</time>
      </trkpt>
      <trkpt lat="45.2599150" lon="6.2787940">
        <ele>1598.6</ele>
        <time>2021-08-19T14:53:21Z</time>
      </trkpt>
      <trkpt lat="45.2599230" lon="6.2789080">
        <ele>1597.2</ele>
        <time>2021-08-19T14:53:22Z</time>
      </trkpt>
      <trkpt lat="45.2599460" lon="6.2790230">
        <ele>1596.6</ele>
        <time>2021-08-19T14:53:23Z</time>
      </trkpt>
      <trkpt lat="45.2599820" lon="6.2791400">
        <ele>1595.8</ele>
        <time>2021-08-19T14:53:24Z</time>
      </trkpt>
      <trkpt lat="45.2600260" lon="6.2792560">
        <ele>1594.6</ele>
        <time>2021-08-19T14:53:25Z</time>
      </trkpt>
      <trkpt lat="45.2600780" lon="6.2793650">
        <ele>1594.2</ele>
        <time>2021-08-19T14:53:26Z</time>
      </trkpt>
      <trkpt lat="45.2601350" lon="6.2794570">
        <ele>1592.8</ele>
        <time>2021-08-19T14:53:27Z</time>
      </trkpt>
      <trkpt lat="45.2601970" lon="6.2795380">
        <ele>1592.2</ele>
        <time>2021-08-19T14:53:28Z</time>
      </trkpt>
      <trkpt lat="45.2602640" lon="6.2796110">
        <ele>1591.4</ele>
        <time>2021-08-19T14:53:29Z</time>
      </trkpt>
      <trkpt lat="45.2603390" lon="6.2796750">
        <ele>1591.0</ele>
        <time>2021-08-19T14:53:30Z</time>
      </trkpt>
      <trkpt lat="45.2605020" lon="6.2797640">
        <ele>1590.2</ele>
        <time>2021-08-19T14:53:32Z</time>
      </trkpt>
      <trkpt lat="45.2606730" lon="6.2798220">
        <ele>1589.2</ele>
        <time>2021-08-19T14:53:34Z</time>
      </trkpt>
      <trkpt lat="45.2609470" lon="6.2799040">
        <ele>1587.8</ele>
        <time>2021-08-19T14:53:37Z</time>
      </trkpt>
      <trkpt lat="45.2610330" lon="6.2799390">
        <ele>1586.8</ele>
        <time>2021-08-19T14:53:38Z</time>
      </trkpt>
      <trkpt lat="45.2611140" lon="6.2799780">
        <ele>1585.4</ele>
        <time>2021-08-19T14:53:39Z</time>
      </trkpt>
      <trkpt lat="45.2611860" lon="6.2800250">
        <ele>1583.6</ele>
        <time>2021-08-19T14:53:40Z</time>
      </trkpt>
      <trkpt lat="45.2613030" lon="6.2801610">
        <ele>1582.0</ele>
        <time>2021-08-19T14:53:42Z</time>
      </trkpt>
      <trkpt lat="45.2613560" lon="6.2803850">
        <ele>1580.8</ele>
        <time>2021-08-19T14:53:44Z</time>
      </trkpt>
      <trkpt lat="45.2613650" lon="6.2805170">
        <ele>1580.4</ele>
        <time>2021-08-19T14:53:45Z</time>
      </trkpt>
      <trkpt lat="45.2613690" lon="6.2806530">
        <ele>1579.8</ele>
        <time>2021-08-19T14:53:46Z</time>
      </trkpt>
      <trkpt lat="45.2613740" lon="6.2807910">
        <ele>1578.8</ele>
        <time>2021-08-19T14:53:47Z</time>
      </trkpt>
      <trkpt lat="45.2613820" lon="6.2809230">
        <ele>1577.2</ele>
        <time>2021-08-19T14:53:48Z</time>
      </trkpt>
      <trkpt lat="45.2614030" lon="6.2811960">
        <ele>1575.0</ele>
        <time>2021-08-19T14:53:50Z</time>
      </trkpt>
      <trkpt lat="45.2614100" lon="6.2813370">
        <ele>1574.0</ele>
        <time>2021-08-19T14:53:51Z</time>
      </trkpt>
      <trkpt lat="45.2614220" lon="6.2814790">
        <ele>1572.6</ele>
        <time>2021-08-19T14:53:52Z</time>
      </trkpt>
      <trkpt lat="45.2614440" lon="6.2817580">
        <ele>1570.8</ele>
        <time>2021-08-19T14:53:54Z</time>
      </trkpt>
      <trkpt lat="45.2614580" lon="6.2818940">
        <ele>1569.4</ele>
        <time>2021-08-19T14:53:55Z</time>
      </trkpt>
      <trkpt lat="45.2614660" lon="6.2821500">
        <ele>1568.4</ele>
        <time>2021-08-19T14:53:57Z</time>
      </trkpt>
      <trkpt lat="45.2614490" lon="6.2822760">
        <ele>1568.0</ele>
        <time>2021-08-19T14:53:58Z</time>
      </trkpt>
      <trkpt lat="45.2614150" lon="6.2824010">
        <ele>1567.2</ele>
        <time>2021-08-19T14:53:59Z</time>
      </trkpt>
      <trkpt lat="45.2613270" lon="6.2826610">
        <ele>1566.2</ele>
        <time>2021-08-19T14:54:01Z</time>
      </trkpt>
      <trkpt lat="45.2612840" lon="6.2827910">
        <ele>1565.8</ele>
        <time>2021-08-19T14:54:02Z</time>
      </trkpt>
      <trkpt lat="45.2612420" lon="6.2829150">
        <ele>1564.2</ele>
        <time>2021-08-19T14:54:03Z</time>
      </trkpt>
      <trkpt lat="45.2611680" lon="6.2831330">
        <ele>1562.4</ele>
        <time>2021-08-19T14:54:05Z</time>
      </trkpt>
      <trkpt lat="45.2610820" lon="6.2833870">
        <ele>1561.2</ele>
        <time>2021-08-19T14:54:07Z</time>
      </trkpt>
      <trkpt lat="45.2610300" lon="6.2835370">
        <ele>1560.6</ele>
        <time>2021-08-19T14:54:08Z</time>
      </trkpt>
      <trkpt lat="45.2609920" lon="6.2836620">
        <ele>1559.2</ele>
        <time>2021-08-19T14:54:09Z</time>
      </trkpt>
      <trkpt lat="45.2609630" lon="6.2837570">
        <ele>1557.6</ele>
        <time>2021-08-19T14:54:10Z</time>
      </trkpt>
      <trkpt lat="45.2609210" lon="6.2838950">
        <ele>1556.6</ele>
        <time>2021-08-19T14:54:11Z</time>
      </trkpt>
      <trkpt lat="45.2608860" lon="6.2840100">
        <ele>1555.0</ele>
        <time>2021-08-19T14:54:12Z</time>
      </trkpt>
      <trkpt lat="45.2608570" lon="6.2841270">
        <ele>1554.4</ele>
        <time>2021-08-19T14:54:13Z</time>
      </trkpt>
      <trkpt lat="45.2608270" lon="6.2842490">
        <ele>1553.6</ele>
        <time>2021-08-19T14:54:14Z</time>
      </trkpt>
      <trkpt lat="45.2607470" lon="6.2846350">
        <ele>1552.6</ele>
        <time>2021-08-19T14:54:17Z</time>
      </trkpt>
      <trkpt lat="45.2607250" lon="6.2847570">
        <ele>1551.4</ele>
        <time>2021-08-19T14:54:18Z</time>
      </trkpt>
      <trkpt lat="45.2607010" lon="6.2848790">
        <ele>1550.4</ele>
        <time>2021-08-19T14:54:19Z</time>
      </trkpt>
      <trkpt lat="45.2606770" lon="6.2850070">
        <ele>1549.4</ele>
        <time>2021-08-19T14:54:20Z</time>
      </trkpt>
      <trkpt lat="45.2605960" lon="6.2855020">
        <ele>1546.6</ele>
        <time>2021-08-19T14:54:24Z</time>
      </trkpt>
      <trkpt lat="45.2605800" lon="6.2855930">
        <ele>1545.2</ele>
        <time>2021-08-19T14:54:25Z</time>
      </trkpt>
      <trkpt lat="45.2605350" lon="6.2858460">
        <ele>1543.6</ele>
        <time>2021-08-19T14:54:27Z</time>
      </trkpt>
      <trkpt lat="45.2604920" lon="6.2860640">
        <ele>1542.2</ele>
        <time>2021-08-19T14:54:29Z</time>
      </trkpt>
      <trkpt lat="45.2604370" lon="6.2862420">
        <ele>1540.8</ele>
        <time>2021-08-19T14:54:31Z</time>
      </trkpt>
      <trkpt lat="45.2603360" lon="6.2864450">
        <ele>1539.4</ele>
        <time>2021-08-19T14:54:33Z</time>
      </trkpt>
      <trkpt lat="45.2602230" lon="6.2866080">
        <ele>1537.6</ele>
        <time>2021-08-19T14:54:35Z</time>
      </trkpt>
      <trkpt lat="45.2601630" lon="6.2866860">
        <ele>1537.0</ele>
        <time>2021-08-19T14:54:36Z</time>
      </trkpt>
      <trkpt lat="45.2601060" lon="6.2867630">
        <ele>1536.0</ele>
        <time>2021-08-19T14:54:37Z</time>
      </trkpt>
      <trkpt lat="45.2599920" lon="6.2869210">
        <ele>1534.6</ele>
        <time>2021-08-19T14:54:39Z</time>
      </trkpt>
      <trkpt lat="45.2598910" lon="6.2870830">
        <ele>1533.2</ele>
        <time>2021-08-19T14:54:41Z</time>
      </trkpt>
      <trkpt lat="45.2598060" lon="6.2872450">
        <ele>1531.8</ele>
        <time>2021-08-19T14:54:43Z</time>
      </trkpt>
      <trkpt lat="45.2597680" lon="6.2873290">
        <ele>1531.2</ele>
        <time>2021-08-19T14:54:44Z</time>
      </trkpt>
      <trkpt lat="45.2597370" lon="6.2874170">
        <ele>1530.8</ele>
        <time>2021-08-19T14:54:45Z</time>
      </trkpt>
      <trkpt lat="45.2597140" lon="6.2875120">
        <ele>1529.8</ele>
        <time>2021-08-19T14:54:46Z</time>
      </trkpt>
      <trkpt lat="45.2596980" lon="6.2876150">
        <ele>1529.6</ele>
        <time>2021-08-19T14:54:47Z</time>
      </trkpt>
      <trkpt lat="45.2596720" lon="6.2878470">
        <ele>1528.6</ele>
        <time>2021-08-19T14:54:49Z</time>
      </trkpt>
      <trkpt lat="45.2596600" lon="6.2879690">
        <ele>1527.0</ele>
        <time>2021-08-19T14:54:50Z</time>
      </trkpt>
      <trkpt lat="45.2596460" lon="6.2880910">
        <ele>1526.2</ele>
        <time>2021-08-19T14:54:51Z</time>
      </trkpt>
      <trkpt lat="45.2596290" lon="6.2882140">
        <ele>1525.2</ele>
        <time>2021-08-19T14:54:52Z</time>
      </trkpt>
      <trkpt lat="45.2595980" lon="6.2884510">
        <ele>1523.6</ele>
        <time>2021-08-19T14:54:54Z</time>
      </trkpt>
      <trkpt lat="45.2595570" lon="6.2887870">
        <ele>1521.6</ele>
        <time>2021-08-19T14:54:57Z</time>
      </trkpt>
      <trkpt lat="45.2595470" lon="6.2888960">
        <ele>1521.0</ele>
        <time>2021-08-19T14:54:58Z</time>
      </trkpt>
      <trkpt lat="45.2595440" lon="6.2890050">
        <ele>1520.2</ele>
        <time>2021-08-19T14:54:59Z</time>
      </trkpt>
      <trkpt lat="45.2595550" lon="6.2892300">
        <ele>1518.8</ele>
        <time>2021-08-19T14:55:01Z</time>
      </trkpt>
      <trkpt lat="45.2595680" lon="6.2893370">
        <ele>1518.4</ele>
        <time>2021-08-19T14:55:02Z</time>
      </trkpt>
      <trkpt lat="45.2595970" lon="6.2895520">
        <ele>1517.4</ele>
        <time>2021-08-19T14:55:04Z</time>
      </trkpt>
      <trkpt lat="45.2596140" lon="6.2896680">
        <ele>1514.8</ele>
        <time>2021-08-19T14:55:05Z</time>
      </trkpt>
      <trkpt lat="45.2596530" lon="6.2899020">
        <ele>1513.4</ele>
        <time>2021-08-19T14:55:07Z</time>
      </trkpt>
      <trkpt lat="45.2596660" lon="6.2900150">
        <ele>1512.8</ele>
        <time>2021-08-19T14:55:08Z</time>
      </trkpt>
      <trkpt lat="45.2596930" lon="6.2902410">
        <ele>1512.2</ele>
        <time>2021-08-19T14:55:10Z</time>
      </trkpt>
      <trkpt lat="45.2597110" lon="6.2903590">
        <ele>1510.8</ele>
        <time>2021-08-19T14:55:11Z</time>
      </trkpt>
      <trkpt lat="45.2597660" lon="6.2905970">
        <ele>1510.2</ele>
        <time>2021-08-19T14:55:13Z</time>
      </trkpt>
      <trkpt lat="45.2597960" lon="6.2907140">
        <ele>1509.0</ele>
        <time>2021-08-19T14:55:14Z</time>
      </trkpt>
      <trkpt lat="45.2598190" lon="6.2908320">
        <ele>1508.8</ele>
        <time>2021-08-19T14:55:15Z</time>
      </trkpt>
      <trkpt lat="45.2598270" lon="6.2910760">
        <ele>1507.6</ele>
        <time>2021-08-19T14:55:17Z</time>
      </trkpt>
      <trkpt lat="45.2598100" lon="6.2911970">
        <ele>1506.4</ele>
        <time>2021-08-19T14:55:18Z</time>
      </trkpt>
      <trkpt lat="45.2597810" lon="6.2913180">
        <ele>1505.6</ele>
        <time>2021-08-19T14:55:19Z</time>
      </trkpt>
      <trkpt lat="45.2597400" lon="6.2914400">
        <ele>1504.8</ele>
        <time>2021-08-19T14:55:20Z</time>
      </trkpt>
      <trkpt lat="45.2595930" lon="6.2917850">
        <ele>1503.4</ele>
        <time>2021-08-19T14:55:23Z</time>
      </trkpt>
      <trkpt lat="45.2594890" lon="6.2919980">
        <ele>1502.2</ele>
        <time>2021-08-19T14:55:25Z</time>
      </trkpt>
      <trkpt lat="45.2594270" lon="6.2920870">
        <ele>1501.2</ele>
        <time>2021-08-19T14:55:26Z</time>
      </trkpt>
      <trkpt lat="45.2592620" lon="6.2922170">
        <ele>1499.6</ele>
        <time>2021-08-19T14:55:28Z</time>
      </trkpt>
      <trkpt lat="45.2591680" lon="6.2922630">
        <ele>1498.4</ele>
        <time>2021-08-19T14:55:29Z</time>
      </trkpt>
      <trkpt lat="45.2589690" lon="6.2923530">
        <ele>1496.8</ele>
        <time>2021-08-19T14:55:31Z</time>
      </trkpt>
      <trkpt lat="45.2588720" lon="6.2924000">
        <ele>1496.4</ele>
        <time>2021-08-19T14:55:32Z</time>
      </trkpt>
      <trkpt lat="45.2587830" lon="6.2924450">
        <ele>1495.4</ele>
        <time>2021-08-19T14:55:33Z</time>
      </trkpt>
      <trkpt lat="45.2586110" lon="6.2925110">
        <ele>1493.2</ele>
        <time>2021-08-19T14:55:35Z</time>
      </trkpt>
      <trkpt lat="45.2585290" lon="6.2925200">
        <ele>1492.4</ele>
        <time>2021-08-19T14:55:36Z</time>
      </trkpt>
      <trkpt lat="45.2584460" lon="6.2925080">
        <ele>1491.0</ele>
        <time>2021-08-19T14:55:37Z</time>
      </trkpt>
      <trkpt lat="45.2583070" lon="6.2924130">
        <ele>1489.0</ele>
        <time>2021-08-19T14:55:39Z</time>
      </trkpt>
      <trkpt lat="45.2582000" lon="6.2921970">
        <ele>1487.8</ele>
        <time>2021-08-19T14:55:41Z</time>
      </trkpt>
      <trkpt lat="45.2581740" lon="6.2919570">
        <ele>1486.2</ele>
        <time>2021-08-19T14:55:43Z</time>
      </trkpt>
      <trkpt lat="45.2581670" lon="6.2918570">
        <ele>1485.6</ele>
        <time>2021-08-19T14:55:44Z</time>
      </trkpt>
      <trkpt lat="45.2581560" lon="6.2917330">
        <ele>1484.2</ele>
        <time>2021-08-19T14:55:45Z</time>
      </trkpt>
      <trkpt lat="45.2581340" lon="6.2914610">
        <ele>1483.0</ele>
        <time>2021-08-19T14:55:47Z</time>
      </trkpt>
      <trkpt lat="45.2580980" lon="6.2910800">
        <ele>1481.2</ele>
        <time>2021-08-19T14:55:50Z</time>
      </trkpt>
      <trkpt lat="45.2580890" lon="6.2909730">
        <ele>1481.0</ele>
        <time>2021-08-19T14:55:51Z</time>
      </trkpt>
      <trkpt lat="45.2580790" lon="6.2908120">
        <ele>1480.2</ele>
        <time>2021-08-19T14:55:52Z</time>
      </trkpt>
      <trkpt lat="45.2580630" lon="6.2905320">
        <ele>1478.2</ele>
        <time>2021-08-19T14:55:54Z</time>
      </trkpt>
      <trkpt lat="45.2580590" lon="6.2903880">
        <ele>1477.2</ele>
        <time>2021-08-19T14:55:55Z</time>
      </trkpt>
      <trkpt lat="45.2580540" lon="6.2902760">
        <ele>1475.8</ele>
        <time>2021-08-19T14:55:56Z</time>
      </trkpt>
      <trkpt lat="45.2580440" lon="6.2899890">
        <ele>1473.6</ele>
        <time>2021-08-19T14:55:58Z</time>
      </trkpt>
      <trkpt lat="45.2580390" lon="6.2897620">
        <ele>1472.0</ele>
        <time>2021-08-19T14:56:00Z</time>
      </trkpt>
      <trkpt lat="45.2580300" lon="6.2896830">
        <ele>1470.8</ele>
        <time>2021-08-19T14:56:01Z</time>
      </trkpt>
      <trkpt lat="45.2579540" lon="6.2895030">
        <ele>1469.4</ele>
        <time>2021-08-19T14:56:03Z</time>
      </trkpt>
      <trkpt lat="45.2578230" lon="6.2893820">
        <ele>1468.2</ele>
        <time>2021-08-19T14:56:05Z</time>
      </trkpt>
      <trkpt lat="45.2577520" lon="6.2893350">
        <ele>1468.0</ele>
        <time>2021-08-19T14:56:06Z</time>
      </trkpt>
      <trkpt lat="45.2576900" lon="6.2892880">
        <ele>1467.0</ele>
        <time>2021-08-19T14:56:07Z</time>
      </trkpt>
      <trkpt lat="45.2576040" lon="6.2891480">
        <ele>1465.2</ele>
        <time>2021-08-19T14:56:09Z</time>
      </trkpt>
      <trkpt lat="45.2575640" lon="6.2889790">
        <ele>1463.8</ele>
        <time>2021-08-19T14:56:11Z</time>
      </trkpt>
      <trkpt lat="45.2575430" lon="6.2889040">
        <ele>1463.4</ele>
        <time>2021-08-19T14:56:12Z</time>
      </trkpt>
      <trkpt lat="45.2575140" lon="6.2888400">
        <ele>1462.6</ele>
        <time>2021-08-19T14:56:13Z</time>
      </trkpt>
      <trkpt lat="45.2574720" lon="6.2887980">
        <ele>1462.0</ele>
        <time>2021-08-19T14:56:14Z</time>
      </trkpt>
      <trkpt lat="45.2573760" lon="6.2887920">
        <ele>1460.8</ele>
        <time>2021-08-19T14:56:16Z</time>
      </trkpt>
      <trkpt lat="45.2573140" lon="6.2889060">
        <ele>1460.0</ele>
        <time>2021-08-19T14:56:18Z</time>
      </trkpt>
      <trkpt lat="45.2573090" lon="6.2890730">
        <ele>1459.8</ele>
        <time>2021-08-19T14:56:20Z</time>
      </trkpt>
      <trkpt lat="45.2573240" lon="6.2891610">
        <ele>1459.6</ele>
        <time>2021-08-19T14:56:21Z</time>
      </trkpt>
      <trkpt lat="45.2573820" lon="6.2894700">
        <ele>1458.6</ele>
        <time>2021-08-19T14:56:24Z</time>
      </trkpt>
      <trkpt lat="45.2574140" lon="6.2896970">
        <ele>1457.6</ele>
        <time>2021-08-19T14:56:26Z</time>
      </trkpt>
      <trkpt lat="45.2574260" lon="6.2898130">
        <ele>1457.2</ele>
        <time>2021-08-19T14:56:27Z</time>
      </trkpt>
      <trkpt lat="45.2574440" lon="6.2900510">
        <ele>1456.0</ele>
        <time>2021-08-19T14:56:29Z</time>
      </trkpt>
      <trkpt lat="45.2574670" lon="6.2902830">
        <ele>1454.8</ele>
        <time>2021-08-19T14:56:31Z</time>
      </trkpt>
      <trkpt lat="45.2574710" lon="6.2904010">
        <ele>1454.4</ele>
        <time>2021-08-19T14:56:32Z</time>
      </trkpt>
      <trkpt lat="45.2574710" lon="6.2905160">
        <ele>1453.8</ele>
        <time>2021-08-19T14:56:33Z</time>
      </trkpt>
      <trkpt lat="45.2574660" lon="6.2907610">
        <ele>1452.6</ele>
        <time>2021-08-19T14:56:35Z</time>
      </trkpt>
      <trkpt lat="45.2574490" lon="6.2908820">
        <ele>1452.2</ele>
        <time>2021-08-19T14:56:36Z</time>
      </trkpt>
      <trkpt lat="45.2574220" lon="6.2910020">
        <ele>1451.6</ele>
        <time>2021-08-19T14:56:37Z</time>
      </trkpt>
      <trkpt lat="45.2573820" lon="6.2911120">
        <ele>1451.2</ele>
        <time>2021-08-19T14:56:38Z</time>
      </trkpt>
      <trkpt lat="45.2572590" lon="6.2913140">
        <ele>1450.6</ele>
        <time>2021-08-19T14:56:40Z</time>
      </trkpt>
      <trkpt lat="45.2571960" lon="6.2914100">
        <ele>1450.0</ele>
        <time>2021-08-19T14:56:41Z</time>
      </trkpt>
      <trkpt lat="45.2571370" lon="6.2915070">
        <ele>1449.8</ele>
        <time>2021-08-19T14:56:42Z</time>
      </trkpt>
      <trkpt lat="45.2570900" lon="6.2916050">
        <ele>1448.6</ele>
        <time>2021-08-19T14:56:43Z</time>
      </trkpt>
      <trkpt lat="45.2570010" lon="6.2917990">
        <ele>1447.0</ele>
        <time>2021-08-19T14:56:45Z</time>
      </trkpt>
      <trkpt lat="45.2569200" lon="6.2919930">
        <ele>1445.6</ele>
        <time>2021-08-19T14:56:47Z</time>
      </trkpt>
      <trkpt lat="45.2568450" lon="6.2921820">
        <ele>1444.6</ele>
        <time>2021-08-19T14:56:49Z</time>
      </trkpt>
      <trkpt lat="45.2568040" lon="6.2922800">
        <ele>1443.6</ele>
        <time>2021-08-19T14:56:50Z</time>
      </trkpt>
      <trkpt lat="45.2567080" lon="6.2924690">
        <ele>1442.4</ele>
        <time>2021-08-19T14:56:52Z</time>
      </trkpt>
      <trkpt lat="45.2565460" lon="6.2927750">
        <ele>1440.6</ele>
        <time>2021-08-19T14:56:56Z</time>
      </trkpt>
      <trkpt lat="45.2564490" lon="6.2930040">
        <ele>1439.6</ele>
        <time>2021-08-19T14:56:59Z</time>
      </trkpt>
      <trkpt lat="45.2564010" lon="6.2931430">
        <ele>1439.0</ele>
        <time>2021-08-19T14:57:01Z</time>
      </trkpt>
      <trkpt lat="45.2563300" lon="6.2932320">
        <ele>1439.0</ele>
        <time>2021-08-19T14:57:03Z</time>
      </trkpt>
      <trkpt lat="45.2562810" lon="6.2932330">
        <ele>1438.4</ele>
        <time>2021-08-19T14:57:04Z</time>
      </trkpt>
      <trkpt lat="45.2562340" lon="6.2932010">
        <ele>1438.2</ele>
        <time>2021-08-19T14:57:05Z</time>
      </trkpt>
      <trkpt lat="45.2561700" lon="6.2930670">
        <ele>1437.8</ele>
        <time>2021-08-19T14:57:07Z</time>
      </trkpt>
      <trkpt lat="45.2561660" lon="6.2928890">
        <ele>1437.0</ele>
        <time>2021-08-19T14:57:09Z</time>
      </trkpt>
      <trkpt lat="45.2561800" lon="6.2927930">
        <ele>1436.6</ele>
        <time>2021-08-19T14:57:10Z</time>
      </trkpt>
      <trkpt lat="45.2561990" lon="6.2926900">
        <ele>1435.8</ele>
        <time>2021-08-19T14:57:11Z</time>
      </trkpt>
      <trkpt lat="45.2562760" lon="6.2923510">
        <ele>1434.2</ele>
        <time>2021-08-19T14:57:14Z</time>
      </trkpt>
      <trkpt lat="45.2563020" lon="6.2922610">
        <ele>1433.6</ele>
        <time>2021-08-19T14:57:15Z</time>
      </trkpt>
      <trkpt lat="45.2563610" lon="6.2920470">
        <ele>1432.6</ele>
        <time>2021-08-19T14:57:17Z</time>
      </trkpt>
      <trkpt lat="45.2564040" lon="6.2918360">
        <ele>1431.4</ele>
        <time>2021-08-19T14:57:19Z</time>
      </trkpt>
      <trkpt lat="45.2564140" lon="6.2917270">
        <ele>1431.0</ele>
        <time>2021-08-19T14:57:20Z</time>
      </trkpt>
      <trkpt lat="45.2564020" lon="6.2915110">
        <ele>1430.0</ele>
        <time>2021-08-19T14:57:22Z</time>
      </trkpt>
      <trkpt lat="45.2563790" lon="6.2914050">
        <ele>1429.8</ele>
        <time>2021-08-19T14:57:23Z</time>
      </trkpt>
      <trkpt lat="45.2563460" lon="6.2913030">
        <ele>1428.2</ele>
        <time>2021-08-19T14:57:24Z</time>
      </trkpt>
      <trkpt lat="45.2562580" lon="6.2911150">
        <ele>1426.8</ele>
        <time>2021-08-19T14:57:26Z</time>
      </trkpt>
      <trkpt lat="45.2562120" lon="6.2910270">
        <ele>1426.6</ele>
        <time>2021-08-19T14:57:27Z</time>
      </trkpt>
      <trkpt lat="45.2561300" lon="6.2908710">
        <ele>1426.0</ele>
        <time>2021-08-19T14:57:29Z</time>
      </trkpt>
      <trkpt lat="45.2560840" lon="6.2908140">
        <ele>1425.6</ele>
        <time>2021-08-19T14:57:30Z</time>
      </trkpt>
      <trkpt lat="45.2560320" lon="6.2907760">
        <ele>1425.4</ele>
        <time>2021-08-19T14:57:31Z</time>
      </trkpt>
      <trkpt lat="45.2559210" lon="6.2907690">
        <ele>1424.6</ele>
        <time>2021-08-19T14:57:33Z</time>
      </trkpt>
      <trkpt lat="45.2558630" lon="6.2908060">
        <ele>1423.8</ele>
        <time>2021-08-19T14:57:34Z</time>
      </trkpt>
      <trkpt lat="45.2558100" lon="6.2908650">
        <ele>1423.2</ele>
        <time>2021-08-19T14:57:35Z</time>
      </trkpt>
      <trkpt lat="45.2557320" lon="6.2910480">
        <ele>1422.6</ele>
        <time>2021-08-19T14:57:37Z</time>
      </trkpt>
      <trkpt lat="45.2556850" lon="6.2912870">
        <ele>1421.4</ele>
        <time>2021-08-19T14:57:39Z</time>
      </trkpt>
      <trkpt lat="45.2556460" lon="6.2915460">
        <ele>1419.4</ele>
        <time>2021-08-19T14:57:41Z</time>
      </trkpt>
      <trkpt lat="45.2556050" lon="6.2918070">
        <ele>1417.8</ele>
        <time>2021-08-19T14:57:43Z</time>
      </trkpt>
      <trkpt lat="45.2555570" lon="6.2920420">
        <ele>1415.2</ele>
        <time>2021-08-19T14:57:45Z</time>
      </trkpt>
      <trkpt lat="45.2555200" lon="6.2921470">
        <ele>1414.4</ele>
        <time>2021-08-19T14:57:46Z</time>
      </trkpt>
      <trkpt lat="45.2554670" lon="6.2922420">
        <ele>1413.2</ele>
        <time>2021-08-19T14:57:47Z</time>
      </trkpt>
      <trkpt lat="45.2553550" lon="6.2924060">
        <ele>1411.6</ele>
        <time>2021-08-19T14:57:49Z</time>
      </trkpt>
      <trkpt lat="45.2553020" lon="6.2924790">
        <ele>1410.4</ele>
        <time>2021-08-19T14:57:50Z</time>
      </trkpt>
      <trkpt lat="45.2552620" lon="6.2925540">
        <ele>1410.0</ele>
        <time>2021-08-19T14:57:51Z</time>
      </trkpt>
      <trkpt lat="45.2552270" lon="6.2926340">
        <ele>1409.2</ele>
        <time>2021-08-19T14:57:52Z</time>
      </trkpt>
      <trkpt lat="45.2551620" lon="6.2927760">
        <ele>1408.4</ele>
        <time>2021-08-19T14:57:54Z</time>
      </trkpt>
      <trkpt lat="45.2551230" lon="6.2928130">
        <ele>1408.0</ele>
        <time>2021-08-19T14:57:55Z</time>
      </trkpt>
      <trkpt lat="45.2550750" lon="6.2928230">
        <ele>1407.4</ele>
        <time>2021-08-19T14:57:56Z</time>
      </trkpt>
      <trkpt lat="45.2550270" lon="6.2928130">
        <ele>1407.0</ele>
        <time>2021-08-19T14:57:57Z</time>
      </trkpt>
      <trkpt lat="45.2549930" lon="6.2927690">
        <ele>1406.4</ele>
        <time>2021-08-19T14:57:58Z</time>
      </trkpt>
      <trkpt lat="45.2549800" lon="6.2927010">
        <ele>1405.8</ele>
        <time>2021-08-19T14:57:59Z</time>
      </trkpt>
      <trkpt lat="45.2550190" lon="6.2925200">
        <ele>1404.4</ele>
        <time>2021-08-19T14:58:01Z</time>
      </trkpt>
      <trkpt lat="45.2550510" lon="6.2924160">
        <ele>1403.8</ele>
        <time>2021-08-19T14:58:02Z</time>
      </trkpt>
      <trkpt lat="45.2550950" lon="6.2921950">
        <ele>1403.2</ele>
        <time>2021-08-19T14:58:04Z</time>
      </trkpt>
      <trkpt lat="45.2550950" lon="6.2919840">
        <ele>1401.6</ele>
        <time>2021-08-19T14:58:06Z</time>
      </trkpt>
      <trkpt lat="45.2550490" lon="6.2918010">
        <ele>1400.4</ele>
        <time>2021-08-19T14:58:08Z</time>
      </trkpt>
      <trkpt lat="45.2550130" lon="6.2917260">
        <ele>1399.6</ele>
        <time>2021-08-19T14:58:09Z</time>
      </trkpt>
      <trkpt lat="45.2549660" lon="6.2916650">
        <ele>1399.0</ele>
        <time>2021-08-19T14:58:10Z</time>
      </trkpt>
      <trkpt lat="45.2549170" lon="6.2916240">
        <ele>1397.8</ele>
        <time>2021-08-19T14:58:11Z</time>
      </trkpt>
      <trkpt lat="45.2548660" lon="6.2916080">
        <ele>1397.0</ele>
        <time>2021-08-19T14:58:12Z</time>
      </trkpt>
      <trkpt lat="45.2548060" lon="6.2916230">
        <ele>1395.8</ele>
        <time>2021-08-19T14:58:13Z</time>
      </trkpt>
      <trkpt lat="45.2547360" lon="6.2916650">
        <ele>1395.4</ele>
        <time>2021-08-19T14:58:14Z</time>
      </trkpt>
      <trkpt lat="45.2546670" lon="6.2917120">
        <ele>1395.0</ele>
        <time>2021-08-19T14:58:15Z</time>
      </trkpt>
      <trkpt lat="45.2545990" lon="6.2917640">
        <ele>1394.6</ele>
        <time>2021-08-19T14:58:16Z</time>
      </trkpt>
      <trkpt lat="45.2545280" lon="6.2918150">
        <ele>1393.4</ele>
        <time>2021-08-19T14:58:17Z</time>
      </trkpt>
      <trkpt lat="45.2543930" lon="6.2919050">
        <ele>1391.8</ele>
        <time>2021-08-19T14:58:19Z</time>
      </trkpt>
      <trkpt lat="45.2542560" lon="6.2919410">
        <ele>1390.4</ele>
        <time>2021-08-19T14:58:21Z</time>
      </trkpt>
      <trkpt lat="45.2541200" lon="6.2918770">
        <ele>1389.4</ele>
        <time>2021-08-19T14:58:23Z</time>
      </trkpt>
      <trkpt lat="45.2540620" lon="6.2917990">
        <ele>1388.6</ele>
        <time>2021-08-19T14:58:24Z</time>
      </trkpt>
      <trkpt lat="45.2540050" lon="6.2917090">
        <ele>1388.4</ele>
        <time>2021-08-19T14:58:25Z</time>
      </trkpt>
      <trkpt lat="45.2539470" lon="6.2916260">
        <ele>1387.2</ele>
        <time>2021-08-19T14:58:26Z</time>
      </trkpt>
      <trkpt lat="45.2538080" lon="6.2915210">
        <ele>1385.6</ele>
        <time>2021-08-19T14:58:28Z</time>
      </trkpt>
      <trkpt lat="45.2537230" lon="6.2915070">
        <ele>1385.0</ele>
        <time>2021-08-19T14:58:29Z</time>
      </trkpt>
      <trkpt lat="45.2536260" lon="6.2915100">
        <ele>1383.8</ele>
        <time>2021-08-19T14:58:30Z</time>
      </trkpt>
      <trkpt lat="45.2535250" lon="6.2915170">
        <ele>1382.8</ele>
        <time>2021-08-19T14:58:31Z</time>
      </trkpt>
      <trkpt lat="45.2534270" lon="6.2915200">
        <ele>1381.4</ele>
        <time>2021-08-19T14:58:32Z</time>
      </trkpt>
      <trkpt lat="45.2533340" lon="6.2915080">
        <ele>1380.8</ele>
        <time>2021-08-19T14:58:33Z</time>
      </trkpt>
      <trkpt lat="45.2532460" lon="6.2914730">
        <ele>1379.8</ele>
        <time>2021-08-19T14:58:34Z</time>
      </trkpt>
      <trkpt lat="45.2531650" lon="6.2914200">
        <ele>1378.8</ele>
        <time>2021-08-19T14:58:35Z</time>
      </trkpt>
      <trkpt lat="45.2530840" lon="6.2913670">
        <ele>1378.6</ele>
        <time>2021-08-19T14:58:36Z</time>
      </trkpt>
      <trkpt lat="45.2529240" lon="6.2912910">
        <ele>1377.4</ele>
        <time>2021-08-19T14:58:38Z</time>
      </trkpt>
      <trkpt lat="45.2528430" lon="6.2912640">
        <ele>1376.8</ele>
        <time>2021-08-19T14:58:39Z</time>
      </trkpt>
      <trkpt lat="45.2526600" lon="6.2912310">
        <ele>1375.4</ele>
        <time>2021-08-19T14:58:41Z</time>
      </trkpt>
      <trkpt lat="45.2525680" lon="6.2912020">
        <ele>1374.8</ele>
        <time>2021-08-19T14:58:42Z</time>
      </trkpt>
      <trkpt lat="45.2524840" lon="6.2911570">
        <ele>1373.8</ele>
        <time>2021-08-19T14:58:43Z</time>
      </trkpt>
      <trkpt lat="45.2523270" lon="6.2910440">
        <ele>1372.2</ele>
        <time>2021-08-19T14:58:45Z</time>
      </trkpt>
      <trkpt lat="45.2521840" lon="6.2909290">
        <ele>1370.2</ele>
        <time>2021-08-19T14:58:47Z</time>
      </trkpt>
      <trkpt lat="45.2521100" lon="6.2908740">
        <ele>1369.8</ele>
        <time>2021-08-19T14:58:48Z</time>
      </trkpt>
      <trkpt lat="45.2520360" lon="6.2908190">
        <ele>1369.0</ele>
        <time>2021-08-19T14:58:49Z</time>
      </trkpt>
      <trkpt lat="45.2518980" lon="6.2907280">
        <ele>1368.0</ele>
        <time>2021-08-19T14:58:51Z</time>
      </trkpt>
      <trkpt lat="45.2517770" lon="6.2906530">
        <ele>1367.0</ele>
        <time>2021-08-19T14:58:53Z</time>
      </trkpt>
      <trkpt lat="45.2517260" lon="6.2906310">
        <ele>1366.0</ele>
        <time>2021-08-19T14:58:54Z</time>
      </trkpt>
      <trkpt lat="45.2516820" lon="6.2906270">
        <ele>1365.6</ele>
        <time>2021-08-19T14:58:55Z</time>
      </trkpt>
      <trkpt lat="45.2516450" lon="6.2906520">
        <ele>1365.0</ele>
        <time>2021-08-19T14:58:56Z</time>
      </trkpt>
      <trkpt lat="45.2516160" lon="6.2907120">
        <ele>1364.4</ele>
        <time>2021-08-19T14:58:57Z</time>
      </trkpt>
      <trkpt lat="45.2516070" lon="6.2907950">
        <ele>1363.8</ele>
        <time>2021-08-19T14:58:58Z</time>
      </trkpt>
      <trkpt lat="45.2516220" lon="6.2908760">
        <ele>1363.6</ele>
        <time>2021-08-19T14:58:59Z</time>
      </trkpt>
      <trkpt lat="45.2516550" lon="6.2909550">
        <ele>1363.0</ele>
        <time>2021-08-19T14:59:00Z</time>
      </trkpt>
      <trkpt lat="45.2517340" lon="6.2911220">
        <ele>1362.2</ele>
        <time>2021-08-19T14:59:02Z</time>
      </trkpt>
      <trkpt lat="45.2517630" lon="6.2912220">
        <ele>1361.8</ele>
        <time>2021-08-19T14:59:03Z</time>
      </trkpt>
      <trkpt lat="45.2517810" lon="6.2913340">
        <ele>1361.6</ele>
        <time>2021-08-19T14:59:04Z</time>
      </trkpt>
      <trkpt lat="45.2517970" lon="6.2914490">
        <ele>1360.8</ele>
        <time>2021-08-19T14:59:05Z</time>
      </trkpt>
      <trkpt lat="45.2518450" lon="6.2916810">
        <ele>1359.6</ele>
        <time>2021-08-19T14:59:07Z</time>
      </trkpt>
      <trkpt lat="45.2519350" lon="6.2919060">
        <ele>1358.4</ele>
        <time>2021-08-19T14:59:09Z</time>
      </trkpt>
      <trkpt lat="45.2520480" lon="6.2921290">
        <ele>1357.0</ele>
        <time>2021-08-19T14:59:11Z</time>
      </trkpt>
      <trkpt lat="45.2521310" lon="6.2923560">
        <ele>1355.6</ele>
        <time>2021-08-19T14:59:13Z</time>
      </trkpt>
      <trkpt lat="45.2521670" lon="6.2925790">
        <ele>1353.8</ele>
        <time>2021-08-19T14:59:15Z</time>
      </trkpt>
      <trkpt lat="45.2521680" lon="6.2927630">
        <ele>1351.8</ele>
        <time>2021-08-19T14:59:17Z</time>
      </trkpt>
      <trkpt lat="45.2521410" lon="6.2928270">
        <ele>1351.0</ele>
        <time>2021-08-19T14:59:18Z</time>
      </trkpt>
      <trkpt lat="45.2521040" lon="6.2928810">
        <ele>1350.6</ele>
        <time>2021-08-19T14:59:19Z</time>
      </trkpt>
      <trkpt lat="45.2520120" lon="6.2929490">
        <ele>1349.2</ele>
        <time>2021-08-19T14:59:21Z</time>
      </trkpt>
      <trkpt lat="45.2519430" lon="6.2929190">
        <ele>1348.2</ele>
        <time>2021-08-19T14:59:23Z</time>
      </trkpt>
      <trkpt lat="45.2519110" lon="6.2928490">
        <ele>1347.6</ele>
        <time>2021-08-19T14:59:24Z</time>
      </trkpt>
      <trkpt lat="45.2518370" lon="6.2926370">
        <ele>1346.6</ele>
        <time>2021-08-19T14:59:26Z</time>
      </trkpt>
      <trkpt lat="45.2517910" lon="6.2925340">
        <ele>1346.4</ele>
        <time>2021-08-19T14:59:27Z</time>
      </trkpt>
      <trkpt lat="45.2516700" lon="6.2923450">
        <ele>1345.6</ele>
        <time>2021-08-19T14:59:29Z</time>
      </trkpt>
      <trkpt lat="45.2516040" lon="6.2922640">
        <ele>1344.6</ele>
        <time>2021-08-19T14:59:30Z</time>
      </trkpt>
      <trkpt lat="45.2515290" lon="6.2921980">
        <ele>1343.8</ele>
        <time>2021-08-19T14:59:31Z</time>
      </trkpt>
      <trkpt lat="45.2514500" lon="6.2921480">
        <ele>1342.8</ele>
        <time>2021-08-19T14:59:32Z</time>
      </trkpt>
      <trkpt lat="45.2512860" lon="6.2920600">
        <ele>1341.8</ele>
        <time>2021-08-19T14:59:34Z</time>
      </trkpt>
      <trkpt lat="45.2511120" lon="6.2919820">
        <ele>1341.0</ele>
        <time>2021-08-19T14:59:36Z</time>
      </trkpt>
      <trkpt lat="45.2510260" lon="6.2919480">
        <ele>1340.0</ele>
        <time>2021-08-19T14:59:37Z</time>
      </trkpt>
      <trkpt lat="45.2508580" lon="6.2918850">
        <ele>1338.4</ele>
        <time>2021-08-19T14:59:39Z</time>
      </trkpt>
      <trkpt lat="45.2506920" lon="6.2918200">
        <ele>1337.2</ele>
        <time>2021-08-19T14:59:41Z</time>
      </trkpt>
      <trkpt lat="45.2505260" lon="6.2917610">
        <ele>1335.0</ele>
        <time>2021-08-19T14:59:43Z</time>
      </trkpt>
      <trkpt lat="45.2503640" lon="6.2916980">
        <ele>1334.0</ele>
        <time>2021-08-19T14:59:45Z</time>
      </trkpt>
      <trkpt lat="45.2502050" lon="6.2916340">
        <ele>1332.8</ele>
        <time>2021-08-19T14:59:47Z</time>
      </trkpt>
      <trkpt lat="45.2501320" lon="6.2915970">
        <ele>1331.8</ele>
        <time>2021-08-19T14:59:48Z</time>
      </trkpt>
      <trkpt lat="45.2500660" lon="6.2915520">
        <ele>1331.2</ele>
        <time>2021-08-19T14:59:49Z</time>
      </trkpt>
      <trkpt lat="45.2500030" lon="6.2915010">
        <ele>1330.4</ele>
        <time>2021-08-19T14:59:50Z</time>
      </trkpt>
      <trkpt lat="45.2499440" lon="6.2914470">
        <ele>1330.0</ele>
        <time>2021-08-19T14:59:51Z</time>
      </trkpt>
      <trkpt lat="45.2498890" lon="6.2913920">
        <ele>1329.0</ele>
        <time>2021-08-19T14:59:52Z</time>
      </trkpt>
      <trkpt lat="45.2497870" lon="6.2913020">
        <ele>1328.0</ele>
        <time>2021-08-19T14:59:54Z</time>
      </trkpt>
      <trkpt lat="45.2497360" lon="6.2912880">
        <ele>1328.0</ele>
        <time>2021-08-19T14:59:55Z</time>
      </trkpt>
      <trkpt lat="45.2496870" lon="6.2913020">
        <ele>1327.2</ele>
        <time>2021-08-19T14:59:56Z</time>
      </trkpt>
      <trkpt lat="45.2496440" lon="6.2913430">
        <ele>1326.8</ele>
        <time>2021-08-19T14:59:57Z</time>
      </trkpt>
      <trkpt lat="45.2496180" lon="6.2914040">
        <ele>1326.4</ele>
        <time>2021-08-19T14:59:58Z</time>
      </trkpt>
      <trkpt lat="45.2496290" lon="6.2915560">
        <ele>1325.8</ele>
        <time>2021-08-19T15:00:00Z</time>
      </trkpt>
      <trkpt lat="45.2496540" lon="6.2916360">
        <ele>1325.4</ele>
        <time>2021-08-19T15:00:01Z</time>
      </trkpt>
      <trkpt lat="45.2497190" lon="6.2918090">
        <ele>1324.6</ele>
        <time>2021-08-19T15:00:03Z</time>
      </trkpt>
      <trkpt lat="45.2497830" lon="6.2920040">
        <ele>1323.6</ele>
        <time>2021-08-19T15:00:05Z</time>
      </trkpt>
      <trkpt lat="45.2498130" lon="6.2921120">
        <ele>1323.2</ele>
        <time>2021-08-19T15:00:06Z</time>
      </trkpt>
      <trkpt lat="45.2498700" lon="6.2923330">
        <ele>1322.0</ele>
        <time>2021-08-19T15:00:08Z</time>
      </trkpt>
      <trkpt lat="45.2499590" lon="6.2925310">
        <ele>1321.0</ele>
        <time>2021-08-19T15:00:10Z</time>
      </trkpt>
      <trkpt lat="45.2501380" lon="6.2927800">
        <ele>1319.4</ele>
        <time>2021-08-19T15:00:13Z</time>
      </trkpt>
      <trkpt lat="45.2502530" lon="6.2929390">
        <ele>1318.0</ele>
        <time>2021-08-19T15:00:15Z</time>
      </trkpt>
      <trkpt lat="45.2503460" lon="6.2931230">
        <ele>1316.6</ele>
        <time>2021-08-19T15:00:17Z</time>
      </trkpt>
      <trkpt lat="45.2503720" lon="6.2932280">
        <ele>1316.0</ele>
        <time>2021-08-19T15:00:18Z</time>
      </trkpt>
      <trkpt lat="45.2503820" lon="6.2933420">
        <ele>1315.6</ele>
        <time>2021-08-19T15:00:19Z</time>
      </trkpt>
      <trkpt lat="45.2503810" lon="6.2934640">
        <ele>1314.6</ele>
        <time>2021-08-19T15:00:20Z</time>
      </trkpt>
      <trkpt lat="45.2503730" lon="6.2935920">
        <ele>1314.0</ele>
        <time>2021-08-19T15:00:21Z</time>
      </trkpt>
      <trkpt lat="45.2503600" lon="6.2937210">
        <ele>1312.8</ele>
        <time>2021-08-19T15:00:22Z</time>
      </trkpt>
      <trkpt lat="45.2503230" lon="6.2939870">
        <ele>1311.4</ele>
        <time>2021-08-19T15:00:24Z</time>
      </trkpt>
      <trkpt lat="45.2502990" lon="6.2942270">
        <ele>1310.6</ele>
        <time>2021-08-19T15:00:26Z</time>
      </trkpt>
      <trkpt lat="45.2502990" lon="6.2943850">
        <ele>1310.4</ele>
        <time>2021-08-19T15:00:27Z</time>
      </trkpt>
      <trkpt lat="45.2503520" lon="6.2946340">
        <ele>1309.8</ele>
        <time>2021-08-19T15:00:29Z</time>
      </trkpt>
      <trkpt lat="45.2504020" lon="6.2947410">
        <ele>1308.6</ele>
        <time>2021-08-19T15:00:30Z</time>
      </trkpt>
      <trkpt lat="45.2505160" lon="6.2949410">
        <ele>1307.2</ele>
        <time>2021-08-19T15:00:32Z</time>
      </trkpt>
      <trkpt lat="45.2505780" lon="6.2950360">
        <ele>1306.6</ele>
        <time>2021-08-19T15:00:33Z</time>
      </trkpt>
      <trkpt lat="45.2506600" lon="6.2951400">
        <ele>1306.4</ele>
        <time>2021-08-19T15:00:34Z</time>
      </trkpt>
      <trkpt lat="45.2507230" lon="6.2951960">
        <ele>1306.0</ele>
        <time>2021-08-19T15:00:35Z</time>
      </trkpt>
      <trkpt lat="45.2508080" lon="6.2952550">
        <ele>1305.8</ele>
        <time>2021-08-19T15:00:36Z</time>
      </trkpt>
      <trkpt lat="45.2510890" lon="6.2953920">
        <ele>1304.6</ele>
        <time>2021-08-19T15:00:39Z</time>
      </trkpt>
      <trkpt lat="45.2513310" lon="6.2954860">
        <ele>1303.8</ele>
        <time>2021-08-19T15:00:42Z</time>
      </trkpt>
      <trkpt lat="45.2514090" lon="6.2955210">
        <ele>1303.4</ele>
        <time>2021-08-19T15:00:43Z</time>
      </trkpt>
      <trkpt lat="45.2514770" lon="6.2955670">
        <ele>1303.2</ele>
        <time>2021-08-19T15:00:44Z</time>
      </trkpt>
      <trkpt lat="45.2515190" lon="6.2956230">
        <ele>1302.4</ele>
        <time>2021-08-19T15:00:45Z</time>
      </trkpt>
      <trkpt lat="45.2515690" lon="6.2957260">
        <ele>1302.2</ele>
        <time>2021-08-19T15:00:46Z</time>
      </trkpt>
      <trkpt lat="45.2515810" lon="6.2958270">
        <ele>1301.8</ele>
        <time>2021-08-19T15:00:47Z</time>
      </trkpt>
      <trkpt lat="45.2515770" lon="6.2959270">
        <ele>1301.6</ele>
        <time>2021-08-19T15:00:48Z</time>
      </trkpt>
      <trkpt lat="45.2515320" lon="6.2961250">
        <ele>1301.4</ele>
        <time>2021-08-19T15:00:50Z</time>
      </trkpt>
      <trkpt lat="45.2514040" lon="6.2964920">
        <ele>1301.2</ele>
        <time>2021-08-19T15:00:54Z</time>
      </trkpt>
      <trkpt lat="45.2513130" lon="6.2966480">
        <ele>1301.0</ele>
        <time>2021-08-19T15:00:56Z</time>
      </trkpt>
      <trkpt lat="45.2510380" lon="6.2968940">
        <ele>1300.4</ele>
        <time>2021-08-19T15:01:00Z</time>
      </trkpt>
      <trkpt lat="45.2509580" lon="6.2969630">
        <ele>1300.4</ele>
        <time>2021-08-19T15:01:01Z</time>
      </trkpt>
      <trkpt lat="45.2508050" lon="6.2971480">
        <ele>1299.2</ele>
        <time>2021-08-19T15:01:03Z</time>
      </trkpt>
      <trkpt lat="45.2506550" lon="6.2973740">
        <ele>1298.0</ele>
        <time>2021-08-19T15:01:05Z</time>
      </trkpt>
      <trkpt lat="45.2505110" lon="6.2975950">
        <ele>1296.2</ele>
        <time>2021-08-19T15:01:07Z</time>
      </trkpt>
      <trkpt lat="45.2504460" lon="6.2976990">
        <ele>1295.6</ele>
        <time>2021-08-19T15:01:08Z</time>
      </trkpt>
      <trkpt lat="45.2503720" lon="6.2978150">
        <ele>1294.0</ele>
        <time>2021-08-19T15:01:09Z</time>
      </trkpt>
      <trkpt lat="45.2502580" lon="6.2979630">
        <ele>1292.2</ele>
        <time>2021-08-19T15:01:11Z</time>
      </trkpt>
      <trkpt lat="45.2501900" lon="6.2980310">
        <ele>1291.8</ele>
        <time>2021-08-19T15:01:12Z</time>
      </trkpt>
      <trkpt lat="45.2501150" lon="6.2980940">
        <ele>1290.6</ele>
        <time>2021-08-19T15:01:13Z</time>
      </trkpt>
      <trkpt lat="45.2499510" lon="6.2982030">
        <ele>1289.6</ele>
        <time>2021-08-19T15:01:15Z</time>
      </trkpt>
      <trkpt lat="45.2498530" lon="6.2982480">
        <ele>1289.2</ele>
        <time>2021-08-19T15:01:16Z</time>
      </trkpt>
      <trkpt lat="45.2496430" lon="6.2983290">
        <ele>1288.0</ele>
        <time>2021-08-19T15:01:18Z</time>
      </trkpt>
      <trkpt lat="45.2495390" lon="6.2983640">
        <ele>1286.8</ele>
        <time>2021-08-19T15:01:19Z</time>
      </trkpt>
      <trkpt lat="45.2494370" lon="6.2983950">
        <ele>1285.0</ele>
        <time>2021-08-19T15:01:20Z</time>
      </trkpt>
      <trkpt lat="45.2492460" lon="6.2984600">
        <ele>1283.8</ele>
        <time>2021-08-19T15:01:22Z</time>
      </trkpt>
      <trkpt lat="45.2490630" lon="6.2985240">
        <ele>1282.4</ele>
        <time>2021-08-19T15:01:24Z</time>
      </trkpt>
      <trkpt lat="45.2489030" lon="6.2985670">
        <ele>1280.8</ele>
        <time>2021-08-19T15:01:26Z</time>
      </trkpt>
      <trkpt lat="45.2487280" lon="6.2986160">
        <ele>1278.4</ele>
        <time>2021-08-19T15:01:28Z</time>
      </trkpt>
      <trkpt lat="45.2485880" lon="6.2986590">
        <ele>1276.6</ele>
        <time>2021-08-19T15:01:30Z</time>
      </trkpt>
      <trkpt lat="45.2485110" lon="6.2986860">
        <ele>1276.2</ele>
        <time>2021-08-19T15:01:31Z</time>
      </trkpt>
      <trkpt lat="45.2484330" lon="6.2987120">
        <ele>1275.2</ele>
        <time>2021-08-19T15:01:32Z</time>
      </trkpt>
      <trkpt lat="45.2482550" lon="6.2987520">
        <ele>1273.8</ele>
        <time>2021-08-19T15:01:34Z</time>
      </trkpt>
      <trkpt lat="45.2481920" lon="6.2987590">
        <ele>1272.6</ele>
        <time>2021-08-19T15:01:35Z</time>
      </trkpt>
      <trkpt lat="45.2481160" lon="6.2987700">
        <ele>1272.2</ele>
        <time>2021-08-19T15:01:36Z</time>
      </trkpt>
      <trkpt lat="45.2480450" lon="6.2987900">
        <ele>1271.2</ele>
        <time>2021-08-19T15:01:37Z</time>
      </trkpt>
      <trkpt lat="45.2479100" lon="6.2989010">
        <ele>1269.4</ele>
        <time>2021-08-19T15:01:39Z</time>
      </trkpt>
      <trkpt lat="45.2478330" lon="6.2990600">
        <ele>1268.2</ele>
        <time>2021-08-19T15:01:41Z</time>
      </trkpt>
      <trkpt lat="45.2477980" lon="6.2991520">
        <ele>1267.8</ele>
        <time>2021-08-19T15:01:42Z</time>
      </trkpt>
      <trkpt lat="45.2477510" lon="6.2992450">
        <ele>1267.2</ele>
        <time>2021-08-19T15:01:43Z</time>
      </trkpt>
      <trkpt lat="45.2477130" lon="6.2992910">
        <ele>1266.8</ele>
        <time>2021-08-19T15:01:44Z</time>
      </trkpt>
      <trkpt lat="45.2476590" lon="6.2993400">
        <ele>1266.2</ele>
        <time>2021-08-19T15:01:45Z</time>
      </trkpt>
      <trkpt lat="45.2476040" lon="6.2993900">
        <ele>1265.8</ele>
        <time>2021-08-19T15:01:46Z</time>
      </trkpt>
      <trkpt lat="45.2475550" lon="6.2994450">
        <ele>1264.8</ele>
        <time>2021-08-19T15:01:47Z</time>
      </trkpt>
      <trkpt lat="45.2475220" lon="6.2995140">
        <ele>1264.4</ele>
        <time>2021-08-19T15:01:48Z</time>
      </trkpt>
      <trkpt lat="45.2475070" lon="6.2996070">
        <ele>1264.0</ele>
        <time>2021-08-19T15:01:49Z</time>
      </trkpt>
      <trkpt lat="45.2475550" lon="6.2997250">
        <ele>1263.0</ele>
        <time>2021-08-19T15:01:51Z</time>
      </trkpt>
      <trkpt lat="45.2476540" lon="6.2997700">
        <ele>1262.2</ele>
        <time>2021-08-19T15:01:53Z</time>
      </trkpt>
      <trkpt lat="45.2477100" lon="6.2997510">
        <ele>1261.8</ele>
        <time>2021-08-19T15:01:54Z</time>
      </trkpt>
      <trkpt lat="45.2477580" lon="6.2997080">
        <ele>1261.4</ele>
        <time>2021-08-19T15:01:55Z</time>
      </trkpt>
      <trkpt lat="45.2478420" lon="6.2995730">
        <ele>1261.0</ele>
        <time>2021-08-19T15:01:57Z</time>
      </trkpt>
      <trkpt lat="45.2479480" lon="6.2994300">
        <ele>1260.8</ele>
        <time>2021-08-19T15:01:59Z</time>
      </trkpt>
      <trkpt lat="45.2480150" lon="6.2993740">
        <ele>1260.4</ele>
        <time>2021-08-19T15:02:00Z</time>
      </trkpt>
      <trkpt lat="45.2480930" lon="6.2993330">
        <ele>1260.4</ele>
        <time>2021-08-19T15:02:01Z</time>
      </trkpt>
      <trkpt lat="45.2481770" lon="6.2993000">
        <ele>1259.8</ele>
        <time>2021-08-19T15:02:02Z</time>
      </trkpt>
      <trkpt lat="45.2482670" lon="6.2992770">
        <ele>1259.4</ele>
        <time>2021-08-19T15:02:03Z</time>
      </trkpt>
      <trkpt lat="45.2484600" lon="6.2992470">
        <ele>1257.8</ele>
        <time>2021-08-19T15:02:05Z</time>
      </trkpt>
      <trkpt lat="45.2486680" lon="6.2992440">
        <ele>1256.0</ele>
        <time>2021-08-19T15:02:07Z</time>
      </trkpt>
      <trkpt lat="45.2487690" lon="6.2992610">
        <ele>1255.6</ele>
        <time>2021-08-19T15:02:08Z</time>
      </trkpt>
      <trkpt lat="45.2488690" lon="6.2992880">
        <ele>1254.4</ele>
        <time>2021-08-19T15:02:09Z</time>
      </trkpt>
      <trkpt lat="45.2489880" lon="6.2993240">
        <ele>1254.0</ele>
        <time>2021-08-19T15:02:10Z</time>
      </trkpt>
      <trkpt lat="45.2490620" lon="6.2993600">
        <ele>1252.8</ele>
        <time>2021-08-19T15:02:11Z</time>
      </trkpt>
      <trkpt lat="45.2491460" lon="6.2994200">
        <ele>1252.4</ele>
        <time>2021-08-19T15:02:12Z</time>
      </trkpt>
      <trkpt lat="45.2492260" lon="6.2994830">
        <ele>1251.6</ele>
        <time>2021-08-19T15:02:13Z</time>
      </trkpt>
      <trkpt lat="45.2493720" lon="6.2996020">
        <ele>1250.6</ele>
        <time>2021-08-19T15:02:15Z</time>
      </trkpt>
      <trkpt lat="45.2494360" lon="6.2996590">
        <ele>1249.4</ele>
        <time>2021-08-19T15:02:16Z</time>
      </trkpt>
      <trkpt lat="45.2494960" lon="6.2997120">
        <ele>1248.4</ele>
        <time>2021-08-19T15:02:17Z</time>
      </trkpt>
      <trkpt lat="45.2495510" lon="6.2997670">
        <ele>1247.4</ele>
        <time>2021-08-19T15:02:18Z</time>
      </trkpt>
      <trkpt lat="45.2496090" lon="6.2999070">
        <ele>1246.2</ele>
        <time>2021-08-19T15:02:20Z</time>
      </trkpt>
      <trkpt lat="45.2495430" lon="6.3000080">
        <ele>1245.2</ele>
        <time>2021-08-19T15:02:22Z</time>
      </trkpt>
      <trkpt lat="45.2494850" lon="6.3000340">
        <ele>1245.2</ele>
        <time>2021-08-19T15:02:23Z</time>
      </trkpt>
      <trkpt lat="45.2494100" lon="6.3000550">
        <ele>1244.4</ele>
        <time>2021-08-19T15:02:24Z</time>
      </trkpt>
      <trkpt lat="45.2492790" lon="6.3000830">
        <ele>1243.4</ele>
        <time>2021-08-19T15:02:26Z</time>
      </trkpt>
      <trkpt lat="45.2491990" lon="6.3000990">
        <ele>1243.2</ele>
        <time>2021-08-19T15:02:27Z</time>
      </trkpt>
      <trkpt lat="45.2489100" lon="6.3001290">
        <ele>1241.2</ele>
        <time>2021-08-19T15:02:30Z</time>
      </trkpt>
      <trkpt lat="45.2488140" lon="6.3001500">
        <ele>1240.2</ele>
        <time>2021-08-19T15:02:31Z</time>
      </trkpt>
      <trkpt lat="45.2487230" lon="6.3001800">
        <ele>1239.8</ele>
        <time>2021-08-19T15:02:32Z</time>
      </trkpt>
      <trkpt lat="45.2485400" lon="6.3002620">
        <ele>1238.6</ele>
        <time>2021-08-19T15:02:34Z</time>
      </trkpt>
      <trkpt lat="45.2484490" lon="6.3003100">
        <ele>1237.4</ele>
        <time>2021-08-19T15:02:35Z</time>
      </trkpt>
      <trkpt lat="45.2482760" lon="6.3004210">
        <ele>1236.2</ele>
        <time>2021-08-19T15:02:37Z</time>
      </trkpt>
      <trkpt lat="45.2481150" lon="6.3005300">
        <ele>1234.6</ele>
        <time>2021-08-19T15:02:39Z</time>
      </trkpt>
      <trkpt lat="45.2479720" lon="6.3006440">
        <ele>1232.8</ele>
        <time>2021-08-19T15:02:41Z</time>
      </trkpt>
      <trkpt lat="45.2478320" lon="6.3007390">
        <ele>1231.4</ele>
        <time>2021-08-19T15:02:43Z</time>
      </trkpt>
      <trkpt lat="45.2477570" lon="6.3007640">
        <ele>1231.0</ele>
        <time>2021-08-19T15:02:44Z</time>
      </trkpt>
      <trkpt lat="45.2476000" lon="6.3008100">
        <ele>1229.4</ele>
        <time>2021-08-19T15:02:46Z</time>
      </trkpt>
      <trkpt lat="45.2474950" lon="6.3008350">
        <ele>1228.0</ele>
        <time>2021-08-19T15:02:48Z</time>
      </trkpt>
      <trkpt lat="45.2474290" lon="6.3008570">
        <ele>1227.6</ele>
        <time>2021-08-19T15:02:49Z</time>
      </trkpt>
      <trkpt lat="45.2472780" lon="6.3009260">
        <ele>1226.6</ele>
        <time>2021-08-19T15:02:51Z</time>
      </trkpt>
      <trkpt lat="45.2472040" lon="6.3009480">
        <ele>1225.8</ele>
        <time>2021-08-19T15:02:52Z</time>
      </trkpt>
      <trkpt lat="45.2471400" lon="6.3009770">
        <ele>1225.4</ele>
        <time>2021-08-19T15:02:53Z</time>
      </trkpt>
      <trkpt lat="45.2470140" lon="6.3010720">
        <ele>1224.6</ele>
        <time>2021-08-19T15:02:55Z</time>
      </trkpt>
      <trkpt lat="45.2469500" lon="6.3011370">
        <ele>1223.8</ele>
        <time>2021-08-19T15:02:56Z</time>
      </trkpt>
      <trkpt lat="45.2468320" lon="6.3012920">
        <ele>1222.0</ele>
        <time>2021-08-19T15:02:58Z</time>
      </trkpt>
      <trkpt lat="45.2467800" lon="6.3013640">
        <ele>1221.8</ele>
        <time>2021-08-19T15:02:59Z</time>
      </trkpt>
      <trkpt lat="45.2466750" lon="6.3015130">
        <ele>1221.2</ele>
        <time>2021-08-19T15:03:01Z</time>
      </trkpt>
      <trkpt lat="45.2466310" lon="6.3015670">
        <ele>1221.2</ele>
        <time>2021-08-19T15:03:02Z</time>
      </trkpt>
      <trkpt lat="45.2465510" lon="6.3016490">
        <ele>1221.0</ele>
        <time>2021-08-19T15:03:04Z</time>
      </trkpt>
      <trkpt lat="45.2464930" lon="6.3017170">
        <ele>1220.4</ele>
        <time>2021-08-19T15:03:05Z</time>
      </trkpt>
      <trkpt lat="45.2464480" lon="6.3017880">
        <ele>1220.2</ele>
        <time>2021-08-19T15:03:06Z</time>
      </trkpt>
      <trkpt lat="45.2464100" lon="6.3018670">
        <ele>1219.8</ele>
        <time>2021-08-19T15:03:07Z</time>
      </trkpt>
      <trkpt lat="45.2463840" lon="6.3019560">
        <ele>1219.6</ele>
        <time>2021-08-19T15:03:08Z</time>
      </trkpt>
      <trkpt lat="45.2463760" lon="6.3020370">
        <ele>1219.4</ele>
        <time>2021-08-19T15:03:09Z</time>
      </trkpt>
      <trkpt lat="45.2463780" lon="6.3022550">
        <ele>1219.2</ele>
        <time>2021-08-19T15:03:12Z</time>
      </trkpt>
      <trkpt lat="45.2463850" lon="6.3023190">
        <ele>1219.2</ele>
        <time>2021-08-19T15:03:13Z</time>
      </trkpt>
      <trkpt lat="45.2464130" lon="6.3027730">
        <ele>1218.2</ele>
        <time>2021-08-19T15:03:18Z</time>
      </trkpt>
      <trkpt lat="45.2464570" lon="6.3029740">
        <ele>1217.8</ele>
        <time>2021-08-19T15:03:20Z</time>
      </trkpt>
      <trkpt lat="45.2465180" lon="6.3031500">
        <ele>1217.2</ele>
        <time>2021-08-19T15:03:22Z</time>
      </trkpt>
      <trkpt lat="45.2466040" lon="6.3033330">
        <ele>1216.4</ele>
        <time>2021-08-19T15:03:24Z</time>
      </trkpt>
      <trkpt lat="45.2466630" lon="6.3034300">
        <ele>1215.8</ele>
        <time>2021-08-19T15:03:25Z</time>
      </trkpt>
      <trkpt lat="45.2467190" lon="6.3035020">
        <ele>1215.0</ele>
        <time>2021-08-19T15:03:26Z</time>
      </trkpt>
      <trkpt lat="45.2468250" lon="6.3036180">
        <ele>1213.6</ele>
        <time>2021-08-19T15:03:28Z</time>
      </trkpt>
      <trkpt lat="45.2468840" lon="6.3036690">
        <ele>1213.2</ele>
        <time>2021-08-19T15:03:29Z</time>
      </trkpt>
      <trkpt lat="45.2469430" lon="6.3037010">
        <ele>1213.2</ele>
        <time>2021-08-19T15:03:30Z</time>
      </trkpt>
      <trkpt lat="45.2470050" lon="6.3037110">
        <ele>1212.0</ele>
        <time>2021-08-19T15:03:31Z</time>
      </trkpt>
      <trkpt lat="45.2471200" lon="6.3036410">
        <ele>1211.2</ele>
        <time>2021-08-19T15:03:33Z</time>
      </trkpt>
      <trkpt lat="45.2472080" lon="6.3034730">
        <ele>1210.6</ele>
        <time>2021-08-19T15:03:35Z</time>
      </trkpt>
      <trkpt lat="45.2472530" lon="6.3033760">
        <ele>1210.2</ele>
        <time>2021-08-19T15:03:36Z</time>
      </trkpt>
      <trkpt lat="45.2472970" lon="6.3032760">
        <ele>1209.6</ele>
        <time>2021-08-19T15:03:37Z</time>
      </trkpt>
      <trkpt lat="45.2474340" lon="6.3029490">
        <ele>1208.2</ele>
        <time>2021-08-19T15:03:40Z</time>
      </trkpt>
      <trkpt lat="45.2474790" lon="6.3028360">
        <ele>1206.8</ele>
        <time>2021-08-19T15:03:42Z</time>
      </trkpt>
      <trkpt lat="45.2476880" lon="6.3024040">
        <ele>1205.6</ele>
        <time>2021-08-19T15:03:45Z</time>
      </trkpt>
      <trkpt lat="45.2477600" lon="6.3023080">
        <ele>1204.8</ele>
        <time>2021-08-19T15:03:46Z</time>
      </trkpt>
      <trkpt lat="45.2478590" lon="6.3022090">
        <ele>1204.6</ele>
        <time>2021-08-19T15:03:47Z</time>
      </trkpt>
      <trkpt lat="45.2479310" lon="6.3021520">
        <ele>1203.4</ele>
        <time>2021-08-19T15:03:48Z</time>
      </trkpt>
      <trkpt lat="45.2480200" lon="6.3020900">
        <ele>1202.8</ele>
        <time>2021-08-19T15:03:49Z</time>
      </trkpt>
      <trkpt lat="45.2481080" lon="6.3020430">
        <ele>1201.4</ele>
        <time>2021-08-19T15:03:50Z</time>
      </trkpt>
      <trkpt lat="45.2481940" lon="6.3020070">
        <ele>1200.8</ele>
        <time>2021-08-19T15:03:51Z</time>
      </trkpt>
      <trkpt lat="45.2482750" lon="6.3019990">
        <ele>1200.0</ele>
        <time>2021-08-19T15:03:52Z</time>
      </trkpt>
      <trkpt lat="45.2483540" lon="6.3020200">
        <ele>1199.6</ele>
        <time>2021-08-19T15:03:53Z</time>
      </trkpt>
      <trkpt lat="45.2484190" lon="6.3020720">
        <ele>1198.6</ele>
        <time>2021-08-19T15:03:54Z</time>
      </trkpt>
      <trkpt lat="45.2484690" lon="6.3021560">
        <ele>1198.4</ele>
        <time>2021-08-19T15:03:55Z</time>
      </trkpt>
      <trkpt lat="45.2485120" lon="6.3022790">
        <ele>1197.6</ele>
        <time>2021-08-19T15:03:56Z</time>
      </trkpt>
      <trkpt lat="45.2485250" lon="6.3023990">
        <ele>1196.6</ele>
        <time>2021-08-19T15:03:57Z</time>
      </trkpt>
      <trkpt lat="45.2485300" lon="6.3025290">
        <ele>1196.2</ele>
        <time>2021-08-19T15:03:58Z</time>
      </trkpt>
      <trkpt lat="45.2485430" lon="6.3027970">
        <ele>1194.8</ele>
        <time>2021-08-19T15:04:00Z</time>
      </trkpt>
      <trkpt lat="45.2485530" lon="6.3030790">
        <ele>1193.4</ele>
        <time>2021-08-19T15:04:02Z</time>
      </trkpt>
      <trkpt lat="45.2485620" lon="6.3033430">
        <ele>1192.6</ele>
        <time>2021-08-19T15:04:04Z</time>
      </trkpt>
      <trkpt lat="45.2485680" lon="6.3034860">
        <ele>1192.0</ele>
        <time>2021-08-19T15:04:05Z</time>
      </trkpt>
      <trkpt lat="45.2485920" lon="6.3037800">
        <ele>1190.8</ele>
        <time>2021-08-19T15:04:07Z</time>
      </trkpt>
      <trkpt lat="45.2486120" lon="6.3039040">
        <ele>1190.2</ele>
        <time>2021-08-19T15:04:08Z</time>
      </trkpt>
      <trkpt lat="45.2486360" lon="6.3040020">
        <ele>1189.2</ele>
        <time>2021-08-19T15:04:09Z</time>
      </trkpt>
      <trkpt lat="45.2486800" lon="6.3041240">
        <ele>1188.8</ele>
        <time>2021-08-19T15:04:10Z</time>
      </trkpt>
      <trkpt lat="45.2488310" lon="6.3043430">
        <ele>1187.4</ele>
        <time>2021-08-19T15:04:12Z</time>
      </trkpt>
      <trkpt lat="45.2489940" lon="6.3044520">
        <ele>1185.8</ele>
        <time>2021-08-19T15:04:14Z</time>
      </trkpt>
      <trkpt lat="45.2490930" lon="6.3045050">
        <ele>1185.4</ele>
        <time>2021-08-19T15:04:15Z</time>
      </trkpt>
      <trkpt lat="45.2491940" lon="6.3045560">
        <ele>1184.6</ele>
        <time>2021-08-19T15:04:16Z</time>
      </trkpt>
      <trkpt lat="45.2494080" lon="6.3046660">
        <ele>1183.2</ele>
        <time>2021-08-19T15:04:18Z</time>
      </trkpt>
      <trkpt lat="45.2496010" lon="6.3047650">
        <ele>1181.0</ele>
        <time>2021-08-19T15:04:20Z</time>
      </trkpt>
      <trkpt lat="45.2497930" lon="6.3048670">
        <ele>1179.6</ele>
        <time>2021-08-19T15:04:22Z</time>
      </trkpt>
      <trkpt lat="45.2498910" lon="6.3049180">
        <ele>1179.2</ele>
        <time>2021-08-19T15:04:23Z</time>
      </trkpt>
      <trkpt lat="45.2499930" lon="6.3049610">
        <ele>1178.2</ele>
        <time>2021-08-19T15:04:24Z</time>
      </trkpt>
      <trkpt lat="45.2502030" lon="6.3050440">
        <ele>1176.8</ele>
        <time>2021-08-19T15:04:26Z</time>
      </trkpt>
      <trkpt lat="45.2504150" lon="6.3051360">
        <ele>1175.8</ele>
        <time>2021-08-19T15:04:28Z</time>
      </trkpt>
      <trkpt lat="45.2505220" lon="6.3051850">
        <ele>1175.4</ele>
        <time>2021-08-19T15:04:29Z</time>
      </trkpt>
      <trkpt lat="45.2507170" lon="6.3052840">
        <ele>1174.4</ele>
        <time>2021-08-19T15:04:31Z</time>
      </trkpt>
      <trkpt lat="45.2508440" lon="6.3053490">
        <ele>1173.4</ele>
        <time>2021-08-19T15:04:32Z</time>
      </trkpt>
      <trkpt lat="45.2509510" lon="6.3053970">
        <ele>1171.6</ele>
        <time>2021-08-19T15:04:33Z</time>
      </trkpt>
      <trkpt lat="45.2511630" lon="6.3054870">
        <ele>1169.8</ele>
        <time>2021-08-19T15:04:35Z</time>
      </trkpt>
      <trkpt lat="45.2513580" lon="6.3055730">
        <ele>1167.6</ele>
        <time>2021-08-19T15:04:37Z</time>
      </trkpt>
      <trkpt lat="45.2514520" lon="6.3056150">
        <ele>1166.6</ele>
        <time>2021-08-19T15:04:38Z</time>
      </trkpt>
      <trkpt lat="45.2515470" lon="6.3056570">
        <ele>1165.2</ele>
        <time>2021-08-19T15:04:39Z</time>
      </trkpt>
      <trkpt lat="45.2516370" lon="6.3056980">
        <ele>1164.2</ele>
        <time>2021-08-19T15:04:40Z</time>
      </trkpt>
      <trkpt lat="45.2517060" lon="6.3057300">
        <ele>1164.0</ele>
        <time>2021-08-19T15:04:41Z</time>
      </trkpt>
      <trkpt lat="45.2518040" lon="6.3057970">
        <ele>1163.2</ele>
        <time>2021-08-19T15:04:42Z</time>
      </trkpt>
      <trkpt lat="45.2518810" lon="6.3058710">
        <ele>1163.2</ele>
        <time>2021-08-19T15:04:43Z</time>
      </trkpt>
      <trkpt lat="45.2519520" lon="6.3059630">
        <ele>1162.4</ele>
        <time>2021-08-19T15:04:44Z</time>
      </trkpt>
      <trkpt lat="45.2520740" lon="6.3061830">
        <ele>1161.6</ele>
        <time>2021-08-19T15:04:46Z</time>
      </trkpt>
      <trkpt lat="45.2521290" lon="6.3062960">
        <ele>1160.8</ele>
        <time>2021-08-19T15:04:47Z</time>
      </trkpt>
      <trkpt lat="45.2521850" lon="6.3063990">
        <ele>1159.4</ele>
        <time>2021-08-19T15:04:48Z</time>
      </trkpt>
      <trkpt lat="45.2523170" lon="6.3065540">
        <ele>1158.0</ele>
        <time>2021-08-19T15:04:50Z</time>
      </trkpt>
      <trkpt lat="45.2524750" lon="6.3066430">
        <ele>1156.2</ele>
        <time>2021-08-19T15:04:52Z</time>
      </trkpt>
      <trkpt lat="45.2525570" lon="6.3066700">
        <ele>1155.8</ele>
        <time>2021-08-19T15:04:53Z</time>
      </trkpt>
      <trkpt lat="45.2526320" lon="6.3066920">
        <ele>1155.0</ele>
        <time>2021-08-19T15:04:54Z</time>
      </trkpt>
      <trkpt lat="45.2527010" lon="6.3067140">
        <ele>1154.0</ele>
        <time>2021-08-19T15:04:55Z</time>
      </trkpt>
      <trkpt lat="45.2528130" lon="6.3067760">
        <ele>1152.8</ele>
        <time>2021-08-19T15:04:57Z</time>
      </trkpt>
      <trkpt lat="45.2528610" lon="6.3068900">
        <ele>1152.2</ele>
        <time>2021-08-19T15:04:59Z</time>
      </trkpt>
      <trkpt lat="45.2528550" lon="6.3069490">
        <ele>1152.0</ele>
        <time>2021-08-19T15:05:00Z</time>
      </trkpt>
      <trkpt lat="45.2528370" lon="6.3069920">
        <ele>1151.4</ele>
        <time>2021-08-19T15:05:01Z</time>
      </trkpt>
      <trkpt lat="45.2527550" lon="6.3070000">
        <ele>1150.8</ele>
        <time>2021-08-19T15:05:03Z</time>
      </trkpt>
      <trkpt lat="45.2526160" lon="6.3069400">
        <ele>1150.4</ele>
        <time>2021-08-19T15:05:05Z</time>
      </trkpt>
      <trkpt lat="45.2525420" lon="6.3069310">
        <ele>1150.0</ele>
        <time>2021-08-19T15:05:06Z</time>
      </trkpt>
      <trkpt lat="45.2523100" lon="6.3069490">
        <ele>1148.8</ele>
        <time>2021-08-19T15:05:09Z</time>
      </trkpt>
      <trkpt lat="45.2522320" lon="6.3069550">
        <ele>1148.4</ele>
        <time>2021-08-19T15:05:10Z</time>
      </trkpt>
      <trkpt lat="45.2520780" lon="6.3069150">
        <ele>1147.8</ele>
        <time>2021-08-19T15:05:12Z</time>
      </trkpt>
      <trkpt lat="45.2519340" lon="6.3068030">
        <ele>1146.4</ele>
        <time>2021-08-19T15:05:14Z</time>
      </trkpt>
      <trkpt lat="45.2518020" lon="6.3066760">
        <ele>1145.4</ele>
        <time>2021-08-19T15:05:16Z</time>
      </trkpt>
      <trkpt lat="45.2517280" lon="6.3066050">
        <ele>1145.2</ele>
        <time>2021-08-19T15:05:17Z</time>
      </trkpt>
      <trkpt lat="45.2515670" lon="6.3064730">
        <ele>1144.0</ele>
        <time>2021-08-19T15:05:19Z</time>
      </trkpt>
      <trkpt lat="45.2514940" lon="6.3064360">
        <ele>1143.0</ele>
        <time>2021-08-19T15:05:20Z</time>
      </trkpt>
      <trkpt lat="45.2513300" lon="6.3064110">
        <ele>1141.6</ele>
        <time>2021-08-19T15:05:22Z</time>
      </trkpt>
      <trkpt lat="45.2511640" lon="6.3064150">
        <ele>1140.8</ele>
        <time>2021-08-19T15:05:24Z</time>
      </trkpt>
      <trkpt lat="45.2510820" lon="6.3064160">
        <ele>1140.2</ele>
        <time>2021-08-19T15:05:25Z</time>
      </trkpt>
      <trkpt lat="45.2509340" lon="6.3064250">
        <ele>1139.2</ele>
        <time>2021-08-19T15:05:27Z</time>
      </trkpt>
      <trkpt lat="45.2507500" lon="6.3064320">
        <ele>1138.0</ele>
        <time>2021-08-19T15:05:29Z</time>
      </trkpt>
      <trkpt lat="45.2505710" lon="6.3064260">
        <ele>1137.0</ele>
        <time>2021-08-19T15:05:31Z</time>
      </trkpt>
      <trkpt lat="45.2504810" lon="6.3064170">
        <ele>1136.8</ele>
        <time>2021-08-19T15:05:32Z</time>
      </trkpt>
      <trkpt lat="45.2502960" lon="6.3064230">
        <ele>1135.0</ele>
        <time>2021-08-19T15:05:34Z</time>
      </trkpt>
      <trkpt lat="45.2502050" lon="6.3064320">
        <ele>1133.6</ele>
        <time>2021-08-19T15:05:35Z</time>
      </trkpt>
      <trkpt lat="45.2501150" lon="6.3064470">
        <ele>1133.0</ele>
        <time>2021-08-19T15:05:36Z</time>
      </trkpt>
      <trkpt lat="45.2500260" lon="6.3064740">
        <ele>1132.0</ele>
        <time>2021-08-19T15:05:37Z</time>
      </trkpt>
      <trkpt lat="45.2498670" lon="6.3065730">
        <ele>1131.0</ele>
        <time>2021-08-19T15:05:39Z</time>
      </trkpt>
      <trkpt lat="45.2497870" lon="6.3066300">
        <ele>1130.4</ele>
        <time>2021-08-19T15:05:40Z</time>
      </trkpt>
      <trkpt lat="45.2497110" lon="6.3066860">
        <ele>1129.6</ele>
        <time>2021-08-19T15:05:41Z</time>
      </trkpt>
      <trkpt lat="45.2496400" lon="6.3067520">
        <ele>1128.6</ele>
        <time>2021-08-19T15:05:42Z</time>
      </trkpt>
      <trkpt lat="45.2495650" lon="6.3068270">
        <ele>1128.2</ele>
        <time>2021-08-19T15:05:43Z</time>
      </trkpt>
      <trkpt lat="45.2494010" lon="6.3069870">
        <ele>1127.4</ele>
        <time>2021-08-19T15:05:45Z</time>
      </trkpt>
      <trkpt lat="45.2492250" lon="6.3071540">
        <ele>1126.8</ele>
        <time>2021-08-19T15:05:47Z</time>
      </trkpt>
      <trkpt lat="45.2491410" lon="6.3072330">
        <ele>1126.2</ele>
        <time>2021-08-19T15:05:48Z</time>
      </trkpt>
      <trkpt lat="45.2489740" lon="6.3073860">
        <ele>1123.4</ele>
        <time>2021-08-19T15:05:50Z</time>
      </trkpt>
      <trkpt lat="45.2488220" lon="6.3075320">
        <ele>1121.8</ele>
        <time>2021-08-19T15:05:52Z</time>
      </trkpt>
      <trkpt lat="45.2487560" lon="6.3075780">
        <ele>1121.0</ele>
        <time>2021-08-19T15:05:53Z</time>
      </trkpt>
      <trkpt lat="45.2486520" lon="6.3076250">
        <ele>1120.6</ele>
        <time>2021-08-19T15:05:54Z</time>
      </trkpt>
      <trkpt lat="45.2485720" lon="6.3076440">
        <ele>1119.2</ele>
        <time>2021-08-19T15:05:55Z</time>
      </trkpt>
      <trkpt lat="45.2484840" lon="6.3076440">
        <ele>1118.8</ele>
        <time>2021-08-19T15:05:56Z</time>
      </trkpt>
      <trkpt lat="45.2484120" lon="6.3076350">
        <ele>1117.8</ele>
        <time>2021-08-19T15:05:57Z</time>
      </trkpt>
      <trkpt lat="45.2482250" lon="6.3076080">
        <ele>1116.6</ele>
        <time>2021-08-19T15:05:59Z</time>
      </trkpt>
      <trkpt lat="45.2480240" lon="6.3075890">
        <ele>1115.0</ele>
        <time>2021-08-19T15:06:01Z</time>
      </trkpt>
      <trkpt lat="45.2479350" lon="6.3075860">
        <ele>1114.6</ele>
        <time>2021-08-19T15:06:02Z</time>
      </trkpt>
      <trkpt lat="45.2478460" lon="6.3075890">
        <ele>1113.8</ele>
        <time>2021-08-19T15:06:03Z</time>
      </trkpt>
      <trkpt lat="45.2477550" lon="6.3076060">
        <ele>1113.4</ele>
        <time>2021-08-19T15:06:04Z</time>
      </trkpt>
      <trkpt lat="45.2476680" lon="6.3076410">
        <ele>1113.0</ele>
        <time>2021-08-19T15:06:05Z</time>
      </trkpt>
      <trkpt lat="45.2475840" lon="6.3076920">
        <ele>1112.4</ele>
        <time>2021-08-19T15:06:06Z</time>
      </trkpt>
      <trkpt lat="45.2475100" lon="6.3077490">
        <ele>1111.4</ele>
        <time>2021-08-19T15:06:07Z</time>
      </trkpt>
      <trkpt lat="45.2474370" lon="6.3078130">
        <ele>1110.8</ele>
        <time>2021-08-19T15:06:08Z</time>
      </trkpt>
      <trkpt lat="45.2473800" lon="6.3078640">
        <ele>1110.4</ele>
        <time>2021-08-19T15:06:09Z</time>
      </trkpt>
      <trkpt lat="45.2473010" lon="6.3079520">
        <ele>1109.6</ele>
        <time>2021-08-19T15:06:10Z</time>
      </trkpt>
      <trkpt lat="45.2472340" lon="6.3080320">
        <ele>1109.4</ele>
        <time>2021-08-19T15:06:11Z</time>
      </trkpt>
      <trkpt lat="45.2471810" lon="6.3080800">
        <ele>1108.6</ele>
        <time>2021-08-19T15:06:12Z</time>
      </trkpt>
      <trkpt lat="45.2470500" lon="6.3081670">
        <ele>1107.6</ele>
        <time>2021-08-19T15:06:14Z</time>
      </trkpt>
      <trkpt lat="45.2469680" lon="6.3081930">
        <ele>1107.2</ele>
        <time>2021-08-19T15:06:15Z</time>
      </trkpt>
      <trkpt lat="45.2468950" lon="6.3081800">
        <ele>1105.8</ele>
        <time>2021-08-19T15:06:16Z</time>
      </trkpt>
      <trkpt lat="45.2467750" lon="6.3080840">
        <ele>1104.6</ele>
        <time>2021-08-19T15:06:18Z</time>
      </trkpt>
      <trkpt lat="45.2466380" lon="6.3079150">
        <ele>1103.0</ele>
        <time>2021-08-19T15:06:20Z</time>
      </trkpt>
      <trkpt lat="45.2465070" lon="6.3077710">
        <ele>1102.0</ele>
        <time>2021-08-19T15:06:22Z</time>
      </trkpt>
      <trkpt lat="45.2464490" lon="6.3077280">
        <ele>1101.0</ele>
        <time>2021-08-19T15:06:23Z</time>
      </trkpt>
      <trkpt lat="45.2462880" lon="6.3076250">
        <ele>1099.2</ele>
        <time>2021-08-19T15:06:25Z</time>
      </trkpt>
      <trkpt lat="45.2462060" lon="6.3075900">
        <ele>1099.0</ele>
        <time>2021-08-19T15:06:26Z</time>
      </trkpt>
      <trkpt lat="45.2461160" lon="6.3075680">
        <ele>1098.8</ele>
        <time>2021-08-19T15:06:27Z</time>
      </trkpt>
      <trkpt lat="45.2459350" lon="6.3075410">
        <ele>1098.2</ele>
        <time>2021-08-19T15:06:29Z</time>
      </trkpt>
      <trkpt lat="45.2457480" lon="6.3075390">
        <ele>1096.6</ele>
        <time>2021-08-19T15:06:31Z</time>
      </trkpt>
      <trkpt lat="45.2455680" lon="6.3075150">
        <ele>1094.8</ele>
        <time>2021-08-19T15:06:33Z</time>
      </trkpt>
      <trkpt lat="45.2453880" lon="6.3074830">
        <ele>1093.6</ele>
        <time>2021-08-19T15:06:35Z</time>
      </trkpt>
      <trkpt lat="45.2451430" lon="6.3074460">
        <ele>1092.4</ele>
        <time>2021-08-19T15:06:38Z</time>
      </trkpt>
      <trkpt lat="45.2450580" lon="6.3074300">
        <ele>1092.0</ele>
        <time>2021-08-19T15:06:39Z</time>
      </trkpt>
      <trkpt lat="45.2449560" lon="6.3074110">
        <ele>1091.6</ele>
        <time>2021-08-19T15:06:40Z</time>
      </trkpt>
      <trkpt lat="45.2448790" lon="6.3073880">
        <ele>1091.4</ele>
        <time>2021-08-19T15:06:41Z</time>
      </trkpt>
      <trkpt lat="45.2447350" lon="6.3073350">
        <ele>1090.2</ele>
        <time>2021-08-19T15:06:43Z</time>
      </trkpt>
      <trkpt lat="45.2446690" lon="6.3073070">
        <ele>1089.6</ele>
        <time>2021-08-19T15:06:44Z</time>
      </trkpt>
      <trkpt lat="45.2446200" lon="6.3072900">
        <ele>1089.2</ele>
        <time>2021-08-19T15:06:45Z</time>
      </trkpt>
      <trkpt lat="45.2445550" lon="6.3072680">
        <ele>1088.6</ele>
        <time>2021-08-19T15:06:46Z</time>
      </trkpt>
      <trkpt lat="45.2445030" lon="6.3072670">
        <ele>1088.2</ele>
        <time>2021-08-19T15:06:47Z</time>
      </trkpt>
      <trkpt lat="45.2444550" lon="6.3072930">
        <ele>1087.2</ele>
        <time>2021-08-19T15:06:48Z</time>
      </trkpt>
      <trkpt lat="45.2444180" lon="6.3073430">
        <ele>1087.0</ele>
        <time>2021-08-19T15:06:49Z</time>
      </trkpt>
      <trkpt lat="45.2444020" lon="6.3074010">
        <ele>1086.6</ele>
        <time>2021-08-19T15:06:50Z</time>
      </trkpt>
      <trkpt lat="45.2444140" lon="6.3074620">
        <ele>1086.4</ele>
        <time>2021-08-19T15:06:51Z</time>
      </trkpt>
      <trkpt lat="45.2444490" lon="6.3075170">
        <ele>1086.0</ele>
        <time>2021-08-19T15:06:52Z</time>
      </trkpt>
      <trkpt lat="45.2445020" lon="6.3075580">
        <ele>1085.6</ele>
        <time>2021-08-19T15:06:53Z</time>
      </trkpt>
      <trkpt lat="45.2445680" lon="6.3075860">
        <ele>1085.4</ele>
        <time>2021-08-19T15:06:54Z</time>
      </trkpt>
      <trkpt lat="45.2446240" lon="6.3076050">
        <ele>1085.0</ele>
        <time>2021-08-19T15:06:55Z</time>
      </trkpt>
      <trkpt lat="45.2447090" lon="6.3076330">
        <ele>1084.8</ele>
        <time>2021-08-19T15:06:56Z</time>
      </trkpt>
      <trkpt lat="45.2448570" lon="6.3076870">
        <ele>1084.2</ele>
        <time>2021-08-19T15:06:58Z</time>
      </trkpt>
      <trkpt lat="45.2449200" lon="6.3077120">
        <ele>1083.6</ele>
        <time>2021-08-19T15:06:59Z</time>
      </trkpt>
      <trkpt lat="45.2450200" lon="6.3077560">
        <ele>1083.0</ele>
        <time>2021-08-19T15:07:00Z</time>
      </trkpt>
      <trkpt lat="45.2451040" lon="6.3078060">
        <ele>1082.0</ele>
        <time>2021-08-19T15:07:01Z</time>
      </trkpt>
      <trkpt lat="45.2452710" lon="6.3079290">
        <ele>1081.0</ele>
        <time>2021-08-19T15:07:03Z</time>
      </trkpt>
      <trkpt lat="45.2453530" lon="6.3080020">
        <ele>1080.6</ele>
        <time>2021-08-19T15:07:04Z</time>
      </trkpt>
      <trkpt lat="45.2454330" lon="6.3080800">
        <ele>1079.6</ele>
        <time>2021-08-19T15:07:05Z</time>
      </trkpt>
      <trkpt lat="45.2456790" lon="6.3083160">
        <ele>1078.0</ele>
        <time>2021-08-19T15:07:08Z</time>
      </trkpt>
      <trkpt lat="45.2458390" lon="6.3084640">
        <ele>1076.4</ele>
        <time>2021-08-19T15:07:10Z</time>
      </trkpt>
      <trkpt lat="45.2460060" lon="6.3085960">
        <ele>1075.0</ele>
        <time>2021-08-19T15:07:12Z</time>
      </trkpt>
      <trkpt lat="45.2461860" lon="6.3087340">
        <ele>1073.2</ele>
        <time>2021-08-19T15:07:14Z</time>
      </trkpt>
      <trkpt lat="45.2463660" lon="6.3088960">
        <ele>1071.8</ele>
        <time>2021-08-19T15:07:16Z</time>
      </trkpt>
      <trkpt lat="45.2465440" lon="6.3090910">
        <ele>1071.0</ele>
        <time>2021-08-19T15:07:18Z</time>
      </trkpt>
      <trkpt lat="45.2467070" lon="6.3092870">
        <ele>1069.8</ele>
        <time>2021-08-19T15:07:20Z</time>
      </trkpt>
      <trkpt lat="45.2467820" lon="6.3093850">
        <ele>1068.4</ele>
        <time>2021-08-19T15:07:21Z</time>
      </trkpt>
      <trkpt lat="45.2469240" lon="6.3095690">
        <ele>1066.8</ele>
        <time>2021-08-19T15:07:23Z</time>
      </trkpt>
      <trkpt lat="45.2470670" lon="6.3097180">
        <ele>1065.8</ele>
        <time>2021-08-19T15:07:25Z</time>
      </trkpt>
      <trkpt lat="45.2471430" lon="6.3097730">
        <ele>1065.2</ele>
        <time>2021-08-19T15:07:26Z</time>
      </trkpt>
      <trkpt lat="45.2472240" lon="6.3098110">
        <ele>1064.4</ele>
        <time>2021-08-19T15:07:27Z</time>
      </trkpt>
      <trkpt lat="45.2473100" lon="6.3098340">
        <ele>1064.0</ele>
        <time>2021-08-19T15:07:28Z</time>
      </trkpt>
      <trkpt lat="45.2473810" lon="6.3098460">
        <ele>1063.0</ele>
        <time>2021-08-19T15:07:29Z</time>
      </trkpt>
      <trkpt lat="45.2475730" lon="6.3098680">
        <ele>1061.2</ele>
        <time>2021-08-19T15:07:31Z</time>
      </trkpt>
      <trkpt lat="45.2477280" lon="6.3098650">
        <ele>1059.8</ele>
        <time>2021-08-19T15:07:33Z</time>
      </trkpt>
      <trkpt lat="45.2478590" lon="6.3098500">
        <ele>1058.4</ele>
        <time>2021-08-19T15:07:35Z</time>
      </trkpt>
      <trkpt lat="45.2479180" lon="6.3098530">
        <ele>1057.6</ele>
        <time>2021-08-19T15:07:36Z</time>
      </trkpt>
      <trkpt lat="45.2479670" lon="6.3098770">
        <ele>1057.2</ele>
        <time>2021-08-19T15:07:37Z</time>
      </trkpt>
      <trkpt lat="45.2480000" lon="6.3099290">
        <ele>1056.8</ele>
        <time>2021-08-19T15:07:38Z</time>
      </trkpt>
      <trkpt lat="45.2480120" lon="6.3099890">
        <ele>1056.4</ele>
        <time>2021-08-19T15:07:39Z</time>
      </trkpt>
      <trkpt lat="45.2479960" lon="6.3100400">
        <ele>1056.0</ele>
        <time>2021-08-19T15:07:40Z</time>
      </trkpt>
      <trkpt lat="45.2479580" lon="6.3100750">
        <ele>1055.6</ele>
        <time>2021-08-19T15:07:41Z</time>
      </trkpt>
      <trkpt lat="45.2479080" lon="6.3100920">
        <ele>1055.0</ele>
        <time>2021-08-19T15:07:42Z</time>
      </trkpt>
      <trkpt lat="45.2478510" lon="6.3100960">
        <ele>1054.8</ele>
        <time>2021-08-19T15:07:43Z</time>
      </trkpt>
      <trkpt lat="45.2477910" lon="6.3100910">
        <ele>1054.0</ele>
        <time>2021-08-19T15:07:44Z</time>
      </trkpt>
      <trkpt lat="45.2477290" lon="6.3100900">
        <ele>1053.6</ele>
        <time>2021-08-19T15:07:45Z</time>
      </trkpt>
      <trkpt lat="45.2475920" lon="6.3101030">
        <ele>1053.0</ele>
        <time>2021-08-19T15:07:47Z</time>
      </trkpt>
      <trkpt lat="45.2475200" lon="6.3101290">
        <ele>1052.6</ele>
        <time>2021-08-19T15:07:48Z</time>
      </trkpt>
      <trkpt lat="45.2474490" lon="6.3101690">
        <ele>1052.2</ele>
        <time>2021-08-19T15:07:49Z</time>
      </trkpt>
      <trkpt lat="45.2472960" lon="6.3102630">
        <ele>1051.8</ele>
        <time>2021-08-19T15:07:51Z</time>
      </trkpt>
      <trkpt lat="45.2472170" lon="6.3103070">
        <ele>1051.6</ele>
        <time>2021-08-19T15:07:52Z</time>
      </trkpt>
      <trkpt lat="45.2471360" lon="6.3103510">
        <ele>1051.0</ele>
        <time>2021-08-19T15:07:53Z</time>
      </trkpt>
      <trkpt lat="45.2470560" lon="6.3103940">
        <ele>1050.8</ele>
        <time>2021-08-19T15:07:54Z</time>
      </trkpt>
      <trkpt lat="45.2469660" lon="6.3104340">
        <ele>1049.6</ele>
        <time>2021-08-19T15:07:55Z</time>
      </trkpt>
      <trkpt lat="45.2468740" lon="6.3104710">
        <ele>1049.0</ele>
        <time>2021-08-19T15:07:56Z</time>
      </trkpt>
      <trkpt lat="45.2467800" lon="6.3104980">
        <ele>1048.4</ele>
        <time>2021-08-19T15:07:57Z</time>
      </trkpt>
      <trkpt lat="45.2465900" lon="6.3105160">
        <ele>1048.0</ele>
        <time>2021-08-19T15:07:59Z</time>
      </trkpt>
      <trkpt lat="45.2464920" lon="6.3104960">
        <ele>1047.2</ele>
        <time>2021-08-19T15:08:00Z</time>
      </trkpt>
      <trkpt lat="45.2462960" lon="6.3104330">
        <ele>1046.4</ele>
        <time>2021-08-19T15:08:02Z</time>
      </trkpt>
      <trkpt lat="45.2461030" lon="6.3103650">
        <ele>1044.6</ele>
        <time>2021-08-19T15:08:04Z</time>
      </trkpt>
      <trkpt lat="45.2460130" lon="6.3103290">
        <ele>1044.0</ele>
        <time>2021-08-19T15:08:05Z</time>
      </trkpt>
      <trkpt lat="45.2459280" lon="6.3102920">
        <ele>1043.4</ele>
        <time>2021-08-19T15:08:06Z</time>
      </trkpt>
      <trkpt lat="45.2457680" lon="6.3102140">
        <ele>1042.2</ele>
        <time>2021-08-19T15:08:08Z</time>
      </trkpt>
      <trkpt lat="45.2456910" lon="6.3101650">
        <ele>1041.8</ele>
        <time>2021-08-19T15:08:09Z</time>
      </trkpt>
      <trkpt lat="45.2455480" lon="6.3100570">
        <ele>1040.8</ele>
        <time>2021-08-19T15:08:11Z</time>
      </trkpt>
      <trkpt lat="45.2454750" lon="6.3100070">
        <ele>1039.8</ele>
        <time>2021-08-19T15:08:12Z</time>
      </trkpt>
      <trkpt lat="45.2453990" lon="6.3099650">
        <ele>1039.2</ele>
        <time>2021-08-19T15:08:13Z</time>
      </trkpt>
      <trkpt lat="45.2453200" lon="6.3099370">
        <ele>1038.6</ele>
        <time>2021-08-19T15:08:14Z</time>
      </trkpt>
      <trkpt lat="45.2452400" lon="6.3099190">
        <ele>1038.2</ele>
        <time>2021-08-19T15:08:15Z</time>
      </trkpt>
      <trkpt lat="45.2451610" lon="6.3099110">
        <ele>1037.0</ele>
        <time>2021-08-19T15:08:16Z</time>
      </trkpt>
      <trkpt lat="45.2450060" lon="6.3099050">
        <ele>1035.8</ele>
        <time>2021-08-19T15:08:18Z</time>
      </trkpt>
      <trkpt lat="45.2449260" lon="6.3099060">
        <ele>1035.0</ele>
        <time>2021-08-19T15:08:19Z</time>
      </trkpt>
      <trkpt lat="45.2447630" lon="6.3099130">
        <ele>1034.6</ele>
        <time>2021-08-19T15:08:21Z</time>
      </trkpt>
      <trkpt lat="45.2446820" lon="6.3099280">
        <ele>1034.2</ele>
        <time>2021-08-19T15:08:22Z</time>
      </trkpt>
      <trkpt lat="45.2445980" lon="6.3099550">
        <ele>1033.6</ele>
        <time>2021-08-19T15:08:23Z</time>
      </trkpt>
      <trkpt lat="45.2445180" lon="6.3099900">
        <ele>1033.4</ele>
        <time>2021-08-19T15:08:24Z</time>
      </trkpt>
      <trkpt lat="45.2443760" lon="6.3100660">
        <ele>1032.2</ele>
        <time>2021-08-19T15:08:26Z</time>
      </trkpt>
      <trkpt lat="45.2442090" lon="6.3101660">
        <ele>1031.2</ele>
        <time>2021-08-19T15:08:28Z</time>
      </trkpt>
      <trkpt lat="45.2441280" lon="6.3101920">
        <ele>1030.0</ele>
        <time>2021-08-19T15:08:29Z</time>
      </trkpt>
      <trkpt lat="45.2440410" lon="6.3102030">
        <ele>1029.6</ele>
        <time>2021-08-19T15:08:30Z</time>
      </trkpt>
      <trkpt lat="45.2439690" lon="6.3102080">
        <ele>1028.6</ele>
        <time>2021-08-19T15:08:31Z</time>
      </trkpt>
      <trkpt lat="45.2437820" lon="6.3102380">
        <ele>1027.4</ele>
        <time>2021-08-19T15:08:33Z</time>
      </trkpt>
      <trkpt lat="45.2436980" lon="6.3102730">
        <ele>1026.2</ele>
        <time>2021-08-19T15:08:34Z</time>
      </trkpt>
      <trkpt lat="45.2435410" lon="6.3103600">
        <ele>1025.2</ele>
        <time>2021-08-19T15:08:36Z</time>
      </trkpt>
      <trkpt lat="45.2433910" lon="6.3104550">
        <ele>1024.0</ele>
        <time>2021-08-19T15:08:38Z</time>
      </trkpt>
      <trkpt lat="45.2432390" lon="6.3105450">
        <ele>1023.0</ele>
        <time>2021-08-19T15:08:40Z</time>
      </trkpt>
      <trkpt lat="45.2430360" lon="6.3106690">
        <ele>1022.0</ele>
        <time>2021-08-19T15:08:43Z</time>
      </trkpt>
      <trkpt lat="45.2429750" lon="6.3107030">
        <ele>1021.4</ele>
        <time>2021-08-19T15:08:44Z</time>
      </trkpt>
      <trkpt lat="45.2429260" lon="6.3107410">
        <ele>1021.2</ele>
        <time>2021-08-19T15:08:45Z</time>
      </trkpt>
      <trkpt lat="45.2428950" lon="6.3107910">
        <ele>1021.0</ele>
        <time>2021-08-19T15:08:46Z</time>
      </trkpt>
      <trkpt lat="45.2428800" lon="6.3109160">
        <ele>1020.2</ele>
        <time>2021-08-19T15:08:48Z</time>
      </trkpt>
      <trkpt lat="45.2429000" lon="6.3109790">
        <ele>1019.8</ele>
        <time>2021-08-19T15:08:49Z</time>
      </trkpt>
      <trkpt lat="45.2429340" lon="6.3110300">
        <ele>1019.4</ele>
        <time>2021-08-19T15:08:50Z</time>
      </trkpt>
      <trkpt lat="45.2429810" lon="6.3110560">
        <ele>1019.2</ele>
        <time>2021-08-19T15:08:51Z</time>
      </trkpt>
      <trkpt lat="45.2430390" lon="6.3110540">
        <ele>1019.0</ele>
        <time>2021-08-19T15:08:52Z</time>
      </trkpt>
      <trkpt lat="45.2431600" lon="6.3109870">
        <ele>1018.8</ele>
        <time>2021-08-19T15:08:54Z</time>
      </trkpt>
      <trkpt lat="45.2432200" lon="6.3109370">
        <ele>1018.6</ele>
        <time>2021-08-19T15:08:55Z</time>
      </trkpt>
      <trkpt lat="45.2433460" lon="6.3108420">
        <ele>1017.0</ele>
        <time>2021-08-19T15:08:57Z</time>
      </trkpt>
      <trkpt lat="45.2434880" lon="6.3107530">
        <ele>1016.4</ele>
        <time>2021-08-19T15:08:59Z</time>
      </trkpt>
      <trkpt lat="45.2435610" lon="6.3107250">
        <ele>1015.8</ele>
        <time>2021-08-19T15:09:00Z</time>
      </trkpt>
      <trkpt lat="45.2436380" lon="6.3107080">
        <ele>1015.6</ele>
        <time>2021-08-19T15:09:01Z</time>
      </trkpt>
      <trkpt lat="45.2437000" lon="6.3107080">
        <ele>1014.8</ele>
        <time>2021-08-19T15:09:02Z</time>
      </trkpt>
      <trkpt lat="45.2437930" lon="6.3107320">
        <ele>1014.4</ele>
        <time>2021-08-19T15:09:03Z</time>
      </trkpt>
      <trkpt lat="45.2438720" lon="6.3107850">
        <ele>1013.6</ele>
        <time>2021-08-19T15:09:04Z</time>
      </trkpt>
      <trkpt lat="45.2439500" lon="6.3108580">
        <ele>1013.2</ele>
        <time>2021-08-19T15:09:05Z</time>
      </trkpt>
      <trkpt lat="45.2440260" lon="6.3109420">
        <ele>1012.2</ele>
        <time>2021-08-19T15:09:06Z</time>
      </trkpt>
      <trkpt lat="45.2441730" lon="6.3111120">
        <ele>1011.0</ele>
        <time>2021-08-19T15:09:08Z</time>
      </trkpt>
      <trkpt lat="45.2443090" lon="6.3112770">
        <ele>1010.0</ele>
        <time>2021-08-19T15:09:10Z</time>
      </trkpt>
      <trkpt lat="45.2444310" lon="6.3114330">
        <ele>1008.2</ele>
        <time>2021-08-19T15:09:12Z</time>
      </trkpt>
      <trkpt lat="45.2444830" lon="6.3115230">
        <ele>1007.4</ele>
        <time>2021-08-19T15:09:13Z</time>
      </trkpt>
      <trkpt lat="45.2445260" lon="6.3116270">
        <ele>1007.2</ele>
        <time>2021-08-19T15:09:14Z</time>
      </trkpt>
      <trkpt lat="45.2445600" lon="6.3117380">
        <ele>1006.8</ele>
        <time>2021-08-19T15:09:15Z</time>
      </trkpt>
      <trkpt lat="45.2446180" lon="6.3119500">
        <ele>1006.2</ele>
        <time>2021-08-19T15:09:17Z</time>
      </trkpt>
      <trkpt lat="45.2446730" lon="6.3121580">
        <ele>1005.4</ele>
        <time>2021-08-19T15:09:19Z</time>
      </trkpt>
      <trkpt lat="45.2447260" lon="6.3123560">
        <ele>1004.0</ele>
        <time>2021-08-19T15:09:21Z</time>
      </trkpt>
      <trkpt lat="45.2447500" lon="6.3124250">
        <ele>1003.4</ele>
        <time>2021-08-19T15:09:22Z</time>
      </trkpt>
      <trkpt lat="45.2447970" lon="6.3125170">
        <ele>1002.4</ele>
        <time>2021-08-19T15:09:23Z</time>
      </trkpt>
      <trkpt lat="45.2448470" lon="6.3125860">
        <ele>1002.2</ele>
        <time>2021-08-19T15:09:24Z</time>
      </trkpt>
      <trkpt lat="45.2449720" lon="6.3126880">
        <ele>1001.8</ele>
        <time>2021-08-19T15:09:26Z</time>
      </trkpt>
      <trkpt lat="45.2450340" lon="6.3127100">
        <ele>1001.2</ele>
        <time>2021-08-19T15:09:27Z</time>
      </trkpt>
      <trkpt lat="45.2452850" lon="6.3127790">
        <ele>999.4</ele>
        <time>2021-08-19T15:09:30Z</time>
      </trkpt>
      <trkpt lat="45.2454470" lon="6.3128280">
        <ele>998.2</ele>
        <time>2021-08-19T15:09:32Z</time>
      </trkpt>
      <trkpt lat="45.2457000" lon="6.3128920">
        <ele>997.2</ele>
        <time>2021-08-19T15:09:35Z</time>
      </trkpt>
      <trkpt lat="45.2458730" lon="6.3129350">
        <ele>996.2</ele>
        <time>2021-08-19T15:09:37Z</time>
      </trkpt>
      <trkpt lat="45.2459580" lon="6.3129500">
        <ele>995.8</ele>
        <time>2021-08-19T15:09:38Z</time>
      </trkpt>
      <trkpt lat="45.2463180" lon="6.3129630">
        <ele>994.4</ele>
        <time>2021-08-19T15:09:42Z</time>
      </trkpt>
      <trkpt lat="45.2464130" lon="6.3129380">
        <ele>993.8</ele>
        <time>2021-08-19T15:09:43Z</time>
      </trkpt>
      <trkpt lat="45.2466110" lon="6.3128670">
        <ele>993.0</ele>
        <time>2021-08-19T15:09:45Z</time>
      </trkpt>
      <trkpt lat="45.2469260" lon="6.3127510">
        <ele>992.0</ele>
        <time>2021-08-19T15:09:48Z</time>
      </trkpt>
      <trkpt lat="45.2471380" lon="6.3126740">
        <ele>990.6</ele>
        <time>2021-08-19T15:09:50Z</time>
      </trkpt>
      <trkpt lat="45.2472440" lon="6.3126350">
        <ele>989.2</ele>
        <time>2021-08-19T15:09:51Z</time>
      </trkpt>
      <trkpt lat="45.2474530" lon="6.3125640">
        <ele>987.4</ele>
        <time>2021-08-19T15:09:53Z</time>
      </trkpt>
      <trkpt lat="45.2476630" lon="6.3125150">
        <ele>985.6</ele>
        <time>2021-08-19T15:09:55Z</time>
      </trkpt>
      <trkpt lat="45.2479920" lon="6.3124900">
        <ele>983.6</ele>
        <time>2021-08-19T15:09:58Z</time>
      </trkpt>
      <trkpt lat="45.2482210" lon="6.3125220">
        <ele>982.0</ele>
        <time>2021-08-19T15:10:00Z</time>
      </trkpt>
      <trkpt lat="45.2484520" lon="6.3125730">
        <ele>981.0</ele>
        <time>2021-08-19T15:10:02Z</time>
      </trkpt>
      <trkpt lat="45.2486700" lon="6.3126290">
        <ele>979.8</ele>
        <time>2021-08-19T15:10:04Z</time>
      </trkpt>
      <trkpt lat="45.2488740" lon="6.3127020">
        <ele>977.8</ele>
        <time>2021-08-19T15:10:06Z</time>
      </trkpt>
      <trkpt lat="45.2490640" lon="6.3128100">
        <ele>976.2</ele>
        <time>2021-08-19T15:10:08Z</time>
      </trkpt>
      <trkpt lat="45.2491540" lon="6.3128710">
        <ele>974.8</ele>
        <time>2021-08-19T15:10:09Z</time>
      </trkpt>
      <trkpt lat="45.2492350" lon="6.3129410">
        <ele>974.2</ele>
        <time>2021-08-19T15:10:10Z</time>
      </trkpt>
      <trkpt lat="45.2493090" lon="6.3130180">
        <ele>973.2</ele>
        <time>2021-08-19T15:10:11Z</time>
      </trkpt>
      <trkpt lat="45.2494360" lon="6.3131710">
        <ele>972.0</ele>
        <time>2021-08-19T15:10:13Z</time>
      </trkpt>
      <trkpt lat="45.2495000" lon="6.3132330">
        <ele>971.6</ele>
        <time>2021-08-19T15:10:14Z</time>
      </trkpt>
      <trkpt lat="45.2495640" lon="6.3132720">
        <ele>970.8</ele>
        <time>2021-08-19T15:10:15Z</time>
      </trkpt>
      <trkpt lat="45.2496360" lon="6.3132860">
        <ele>970.4</ele>
        <time>2021-08-19T15:10:16Z</time>
      </trkpt>
      <trkpt lat="45.2497040" lon="6.3132670">
        <ele>969.6</ele>
        <time>2021-08-19T15:10:17Z</time>
      </trkpt>
      <trkpt lat="45.2497630" lon="6.3132170">
        <ele>969.2</ele>
        <time>2021-08-19T15:10:18Z</time>
      </trkpt>
      <trkpt lat="45.2498210" lon="6.3131500">
        <ele>968.4</ele>
        <time>2021-08-19T15:10:19Z</time>
      </trkpt>
      <trkpt lat="45.2498800" lon="6.3130690">
        <ele>968.2</ele>
        <time>2021-08-19T15:10:20Z</time>
      </trkpt>
      <trkpt lat="45.2499460" lon="6.3129830">
        <ele>967.2</ele>
        <time>2021-08-19T15:10:21Z</time>
      </trkpt>
      <trkpt lat="45.2500070" lon="6.3128970">
        <ele>966.6</ele>
        <time>2021-08-19T15:10:22Z</time>
      </trkpt>
      <trkpt lat="45.2500640" lon="6.3128100">
        <ele>966.2</ele>
        <time>2021-08-19T15:10:23Z</time>
      </trkpt>
      <trkpt lat="45.2501160" lon="6.3127350">
        <ele>965.8</ele>
        <time>2021-08-19T15:10:24Z</time>
      </trkpt>
      <trkpt lat="45.2501710" lon="6.3126730">
        <ele>965.2</ele>
        <time>2021-08-19T15:10:25Z</time>
      </trkpt>
      <trkpt lat="45.2502300" lon="6.3126290">
        <ele>963.8</ele>
        <time>2021-08-19T15:10:26Z</time>
      </trkpt>
      <trkpt lat="45.2503010" lon="6.3126010">
        <ele>963.2</ele>
        <time>2021-08-19T15:10:27Z</time>
      </trkpt>
      <trkpt lat="45.2503790" lon="6.3125950">
        <ele>962.4</ele>
        <time>2021-08-19T15:10:28Z</time>
      </trkpt>
      <trkpt lat="45.2504450" lon="6.3126160">
        <ele>962.2</ele>
        <time>2021-08-19T15:10:29Z</time>
      </trkpt>
      <trkpt lat="45.2504980" lon="6.3126740">
        <ele>961.6</ele>
        <time>2021-08-19T15:10:30Z</time>
      </trkpt>
      <trkpt lat="45.2505190" lon="6.3127620">
        <ele>961.2</ele>
        <time>2021-08-19T15:10:31Z</time>
      </trkpt>
      <trkpt lat="45.2505360" lon="6.3128690">
        <ele>960.4</ele>
        <time>2021-08-19T15:10:32Z</time>
      </trkpt>
      <trkpt lat="45.2505570" lon="6.3129770">
        <ele>960.0</ele>
        <time>2021-08-19T15:10:33Z</time>
      </trkpt>
      <trkpt lat="45.2506290" lon="6.3131860">
        <ele>959.2</ele>
        <time>2021-08-19T15:10:35Z</time>
      </trkpt>
      <trkpt lat="45.2506760" lon="6.3132800">
        <ele>958.8</ele>
        <time>2021-08-19T15:10:36Z</time>
      </trkpt>
      <trkpt lat="45.2507760" lon="6.3134340">
        <ele>957.2</ele>
        <time>2021-08-19T15:10:38Z</time>
      </trkpt>
      <trkpt lat="45.2508260" lon="6.3134970">
        <ele>956.0</ele>
        <time>2021-08-19T15:10:39Z</time>
      </trkpt>
      <trkpt lat="45.2508810" lon="6.3135430">
        <ele>955.4</ele>
        <time>2021-08-19T15:10:40Z</time>
      </trkpt>
      <trkpt lat="45.2509370" lon="6.3135670">
        <ele>954.6</ele>
        <time>2021-08-19T15:10:41Z</time>
      </trkpt>
      <trkpt lat="45.2509910" lon="6.3135660">
        <ele>954.0</ele>
        <time>2021-08-19T15:10:42Z</time>
      </trkpt>
      <trkpt lat="45.2510420" lon="6.3135360">
        <ele>953.6</ele>
        <time>2021-08-19T15:10:43Z</time>
      </trkpt>
      <trkpt lat="45.2510890" lon="6.3134860">
        <ele>953.4</ele>
        <time>2021-08-19T15:10:44Z</time>
      </trkpt>
      <trkpt lat="45.2511340" lon="6.3134310">
        <ele>952.6</ele>
        <time>2021-08-19T15:10:45Z</time>
      </trkpt>
      <trkpt lat="45.2511840" lon="6.3133720">
        <ele>952.2</ele>
        <time>2021-08-19T15:10:46Z</time>
      </trkpt>
      <trkpt lat="45.2513050" lon="6.3133260">
        <ele>951.6</ele>
        <time>2021-08-19T15:10:48Z</time>
      </trkpt>
      <trkpt lat="45.2513670" lon="6.3133580">
        <ele>950.6</ele>
        <time>2021-08-19T15:10:49Z</time>
      </trkpt>
      <trkpt lat="45.2514200" lon="6.3134230">
        <ele>950.0</ele>
        <time>2021-08-19T15:10:50Z</time>
      </trkpt>
      <trkpt lat="45.2514630" lon="6.3135150">
        <ele>949.4</ele>
        <time>2021-08-19T15:10:51Z</time>
      </trkpt>
      <trkpt lat="45.2514950" lon="6.3136270">
        <ele>948.6</ele>
        <time>2021-08-19T15:10:52Z</time>
      </trkpt>
      <trkpt lat="45.2515160" lon="6.3137460">
        <ele>948.4</ele>
        <time>2021-08-19T15:10:53Z</time>
      </trkpt>
      <trkpt lat="45.2515390" lon="6.3138720">
        <ele>947.6</ele>
        <time>2021-08-19T15:10:54Z</time>
      </trkpt>
      <trkpt lat="45.2515550" lon="6.3140010">
        <ele>947.0</ele>
        <time>2021-08-19T15:10:55Z</time>
      </trkpt>
      <trkpt lat="45.2515800" lon="6.3142490">
        <ele>945.8</ele>
        <time>2021-08-19T15:10:57Z</time>
      </trkpt>
      <trkpt lat="45.2516180" lon="6.3144590">
        <ele>944.4</ele>
        <time>2021-08-19T15:10:59Z</time>
      </trkpt>
      <trkpt lat="45.2516510" lon="6.3145520">
        <ele>943.6</ele>
        <time>2021-08-19T15:11:00Z</time>
      </trkpt>
      <trkpt lat="45.2516780" lon="6.3146370">
        <ele>943.2</ele>
        <time>2021-08-19T15:11:01Z</time>
      </trkpt>
      <trkpt lat="45.2517190" lon="6.3147180">
        <ele>941.4</ele>
        <time>2021-08-19T15:11:02Z</time>
      </trkpt>
      <trkpt lat="45.2517620" lon="6.3147870">
        <ele>940.2</ele>
        <time>2021-08-19T15:11:03Z</time>
      </trkpt>
      <trkpt lat="45.2518110" lon="6.3148340">
        <ele>939.8</ele>
        <time>2021-08-19T15:11:04Z</time>
      </trkpt>
      <trkpt lat="45.2518670" lon="6.3148630">
        <ele>939.0</ele>
        <time>2021-08-19T15:11:05Z</time>
      </trkpt>
      <trkpt lat="45.2519310" lon="6.3148650">
        <ele>938.8</ele>
        <time>2021-08-19T15:11:06Z</time>
      </trkpt>
      <trkpt lat="45.2519920" lon="6.3148430">
        <ele>938.4</ele>
        <time>2021-08-19T15:11:07Z</time>
      </trkpt>
      <trkpt lat="45.2520520" lon="6.3148010">
        <ele>938.2</ele>
        <time>2021-08-19T15:11:08Z</time>
      </trkpt>
      <trkpt lat="45.2521120" lon="6.3147560">
        <ele>937.6</ele>
        <time>2021-08-19T15:11:09Z</time>
      </trkpt>
      <trkpt lat="45.2521770" lon="6.3147260">
        <ele>937.4</ele>
        <time>2021-08-19T15:11:10Z</time>
      </trkpt>
      <trkpt lat="45.2522500" lon="6.3147150">
        <ele>936.4</ele>
        <time>2021-08-19T15:11:11Z</time>
      </trkpt>
      <trkpt lat="45.2523330" lon="6.3147300">
        <ele>936.0</ele>
        <time>2021-08-19T15:11:12Z</time>
      </trkpt>
      <trkpt lat="45.2524040" lon="6.3147740">
        <ele>935.4</ele>
        <time>2021-08-19T15:11:13Z</time>
      </trkpt>
      <trkpt lat="45.2524500" lon="6.3148490">
        <ele>935.2</ele>
        <time>2021-08-19T15:11:14Z</time>
      </trkpt>
      <trkpt lat="45.2524760" lon="6.3149440">
        <ele>934.8</ele>
        <time>2021-08-19T15:11:15Z</time>
      </trkpt>
      <trkpt lat="45.2524890" lon="6.3150560">
        <ele>934.2</ele>
        <time>2021-08-19T15:11:16Z</time>
      </trkpt>
      <trkpt lat="45.2525100" lon="6.3152940">
        <ele>932.8</ele>
        <time>2021-08-19T15:11:18Z</time>
      </trkpt>
      <trkpt lat="45.2525310" lon="6.3154120">
        <ele>932.4</ele>
        <time>2021-08-19T15:11:19Z</time>
      </trkpt>
      <trkpt lat="45.2525580" lon="6.3155260">
        <ele>931.0</ele>
        <time>2021-08-19T15:11:20Z</time>
      </trkpt>
      <trkpt lat="45.2526370" lon="6.3157250">
        <ele>929.8</ele>
        <time>2021-08-19T15:11:22Z</time>
      </trkpt>
      <trkpt lat="45.2527410" lon="6.3158710">
        <ele>929.2</ele>
        <time>2021-08-19T15:11:24Z</time>
      </trkpt>
      <trkpt lat="45.2528560" lon="6.3159800">
        <ele>928.4</ele>
        <time>2021-08-19T15:11:26Z</time>
      </trkpt>
      <trkpt lat="45.2529770" lon="6.3160930">
        <ele>926.8</ele>
        <time>2021-08-19T15:11:28Z</time>
      </trkpt>
      <trkpt lat="45.2531830" lon="6.3162620">
        <ele>925.0</ele>
        <time>2021-08-19T15:11:31Z</time>
      </trkpt>
      <trkpt lat="45.2532480" lon="6.3163290">
        <ele>924.4</ele>
        <time>2021-08-19T15:11:32Z</time>
      </trkpt>
      <trkpt lat="45.2533110" lon="6.3164020">
        <ele>924.0</ele>
        <time>2021-08-19T15:11:33Z</time>
      </trkpt>
      <trkpt lat="45.2533670" lon="6.3164830">
        <ele>923.6</ele>
        <time>2021-08-19T15:11:34Z</time>
      </trkpt>
      <trkpt lat="45.2534140" lon="6.3165700">
        <ele>922.6</ele>
        <time>2021-08-19T15:11:35Z</time>
      </trkpt>
      <trkpt lat="45.2534540" lon="6.3166670">
        <ele>922.2</ele>
        <time>2021-08-19T15:11:36Z</time>
      </trkpt>
      <trkpt lat="45.2535020" lon="6.3168660">
        <ele>921.6</ele>
        <time>2021-08-19T15:11:38Z</time>
      </trkpt>
      <trkpt lat="45.2535150" lon="6.3169600">
        <ele>920.2</ele>
        <time>2021-08-19T15:11:39Z</time>
      </trkpt>
      <trkpt lat="45.2535260" lon="6.3170470">
        <ele>919.8</ele>
        <time>2021-08-19T15:11:40Z</time>
      </trkpt>
      <trkpt lat="45.2535510" lon="6.3172140">
        <ele>919.0</ele>
        <time>2021-08-19T15:11:42Z</time>
      </trkpt>
      <trkpt lat="45.2535700" lon="6.3173610">
        <ele>917.2</ele>
        <time>2021-08-19T15:11:44Z</time>
      </trkpt>
      <trkpt lat="45.2535930" lon="6.3175110">
        <ele>916.6</ele>
        <time>2021-08-19T15:11:46Z</time>
      </trkpt>
      <trkpt lat="45.2536270" lon="6.3176550">
        <ele>916.0</ele>
        <time>2021-08-19T15:11:48Z</time>
      </trkpt>
      <trkpt lat="45.2536810" lon="6.3177740">
        <ele>915.4</ele>
        <time>2021-08-19T15:11:50Z</time>
      </trkpt>
      <trkpt lat="45.2539010" lon="6.3180650">
        <ele>915.0</ele>
        <time>2021-08-19T15:11:56Z</time>
      </trkpt>
      <trkpt lat="45.2540170" lon="6.3182120">
        <ele>915.2</ele>
        <time>2021-08-19T15:11:59Z</time>
      </trkpt>
      <trkpt lat="45.2542380" lon="6.3184520">
        <ele>915.4</ele>
        <time>2021-08-19T15:12:05Z</time>
      </trkpt>
      <trkpt lat="45.2544560" lon="6.3186060">
        <ele>915.8</ele>
        <time>2021-08-19T15:12:09Z</time>
      </trkpt>
      <trkpt lat="45.2545180" lon="6.3186240">
        <ele>915.8</ele>
        <time>2021-08-19T15:12:10Z</time>
      </trkpt>
      <trkpt lat="45.2546410" lon="6.3186450">
        <ele>915.8</ele>
        <time>2021-08-19T15:12:12Z</time>
      </trkpt>
      <trkpt lat="45.2548370" lon="6.3186440">
        <ele>915.2</ele>
        <time>2021-08-19T15:12:15Z</time>
      </trkpt>
      <trkpt lat="45.2549030" lon="6.3186270">
        <ele>915.2</ele>
        <time>2021-08-19T15:12:16Z</time>
      </trkpt>
      <trkpt lat="45.2549710" lon="6.3185950">
        <ele>915.0</ele>
        <time>2021-08-19T15:12:17Z</time>
      </trkpt>
      <trkpt lat="45.2550330" lon="6.3185510">
        <ele>914.6</ele>
        <time>2021-08-19T15:12:18Z</time>
      </trkpt>
      <trkpt lat="45.2550940" lon="6.3184970">
        <ele>914.8</ele>
        <time>2021-08-19T15:12:19Z</time>
      </trkpt>
      <trkpt lat="45.2551550" lon="6.3184300">
        <ele>914.6</ele>
        <time>2021-08-19T15:12:20Z</time>
      </trkpt>
      <trkpt lat="45.2552090" lon="6.3183530">
        <ele>914.6</ele>
        <time>2021-08-19T15:12:21Z</time>
      </trkpt>
      <trkpt lat="45.2553760" lon="6.3181170">
        <ele>913.8</ele>
        <time>2021-08-19T15:12:24Z</time>
      </trkpt>
      <trkpt lat="45.2554460" lon="6.3180580">
        <ele>913.6</ele>
        <time>2021-08-19T15:12:25Z</time>
      </trkpt>
      <trkpt lat="45.2555210" lon="6.3180200">
        <ele>912.8</ele>
        <time>2021-08-19T15:12:26Z</time>
      </trkpt>
      <trkpt lat="45.2556730" lon="6.3180530">
        <ele>911.8</ele>
        <time>2021-08-19T15:12:28Z</time>
      </trkpt>
      <trkpt lat="45.2557430" lon="6.3181170">
        <ele>911.6</ele>
        <time>2021-08-19T15:12:29Z</time>
      </trkpt>
      <trkpt lat="45.2557890" lon="6.3182110">
        <ele>911.4</ele>
        <time>2021-08-19T15:12:30Z</time>
      </trkpt>
      <trkpt lat="45.2558520" lon="6.3184370">
        <ele>910.0</ele>
        <time>2021-08-19T15:12:32Z</time>
      </trkpt>
      <trkpt lat="45.2558840" lon="6.3185460">
        <ele>909.6</ele>
        <time>2021-08-19T15:12:33Z</time>
      </trkpt>
      <trkpt lat="45.2559290" lon="6.3186460">
        <ele>909.0</ele>
        <time>2021-08-19T15:12:34Z</time>
      </trkpt>
      <trkpt lat="45.2559840" lon="6.3187390">
        <ele>908.8</ele>
        <time>2021-08-19T15:12:35Z</time>
      </trkpt>
      <trkpt lat="45.2561130" lon="6.3189100">
        <ele>907.2</ele>
        <time>2021-08-19T15:12:37Z</time>
      </trkpt>
      <trkpt lat="45.2561890" lon="6.3189910">
        <ele>907.0</ele>
        <time>2021-08-19T15:12:38Z</time>
      </trkpt>
      <trkpt lat="45.2562680" lon="6.3190730">
        <ele>906.0</ele>
        <time>2021-08-19T15:12:39Z</time>
      </trkpt>
      <trkpt lat="45.2566170" lon="6.3194350">
        <ele>904.2</ele>
        <time>2021-08-19T15:12:43Z</time>
      </trkpt>
      <trkpt lat="45.2567960" lon="6.3196300">
        <ele>902.4</ele>
        <time>2021-08-19T15:12:45Z</time>
      </trkpt>
      <trkpt lat="45.2569670" lon="6.3198170">
        <ele>900.6</ele>
        <time>2021-08-19T15:12:47Z</time>
      </trkpt>
      <trkpt lat="45.2570440" lon="6.3199050">
        <ele>899.8</ele>
        <time>2021-08-19T15:12:48Z</time>
      </trkpt>
      <trkpt lat="45.2571240" lon="6.3199930">
        <ele>899.0</ele>
        <time>2021-08-19T15:12:49Z</time>
      </trkpt>
      <trkpt lat="45.2572040" lon="6.3200780">
        <ele>897.0</ele>
        <time>2021-08-19T15:12:50Z</time>
      </trkpt>
      <trkpt lat="45.2573600" lon="6.3202700">
        <ele>895.4</ele>
        <time>2021-08-19T15:12:52Z</time>
      </trkpt>
      <trkpt lat="45.2574360" lon="6.3203780">
        <ele>894.8</ele>
        <time>2021-08-19T15:12:53Z</time>
      </trkpt>
      <trkpt lat="45.2575110" lon="6.3204950">
        <ele>894.0</ele>
        <time>2021-08-19T15:12:54Z</time>
      </trkpt>
      <trkpt lat="45.2576660" lon="6.3207410">
        <ele>891.4</ele>
        <time>2021-08-19T15:12:56Z</time>
      </trkpt>
      <trkpt lat="45.2578300" lon="6.3209990">
        <ele>889.6</ele>
        <time>2021-08-19T15:12:58Z</time>
      </trkpt>
      <trkpt lat="45.2579920" lon="6.3212500">
        <ele>887.8</ele>
        <time>2021-08-19T15:13:00Z</time>
      </trkpt>
      <trkpt lat="45.2581460" lon="6.3214880">
        <ele>885.4</ele>
        <time>2021-08-19T15:13:02Z</time>
      </trkpt>
      <trkpt lat="45.2582210" lon="6.3215950">
        <ele>883.8</ele>
        <time>2021-08-19T15:13:03Z</time>
      </trkpt>
      <trkpt lat="45.2582950" lon="6.3217010">
        <ele>883.0</ele>
        <time>2021-08-19T15:13:04Z</time>
      </trkpt>
      <trkpt lat="45.2583750" lon="6.3218100">
        <ele>881.0</ele>
        <time>2021-08-19T15:13:05Z</time>
      </trkpt>
      <trkpt lat="45.2585480" lon="6.3220300">
        <ele>878.6</ele>
        <time>2021-08-19T15:13:07Z</time>
      </trkpt>
      <trkpt lat="45.2587270" lon="6.3222480">
        <ele>876.4</ele>
        <time>2021-08-19T15:13:09Z</time>
      </trkpt>
      <trkpt lat="45.2588100" lon="6.3223590">
        <ele>875.6</ele>
        <time>2021-08-19T15:13:10Z</time>
      </trkpt>
      <trkpt lat="45.2588940" lon="6.3224700">
        <ele>874.0</ele>
        <time>2021-08-19T15:13:11Z</time>
      </trkpt>
      <trkpt lat="45.2590630" lon="6.3226870">
        <ele>872.0</ele>
        <time>2021-08-19T15:13:13Z</time>
      </trkpt>
      <trkpt lat="45.2592260" lon="6.3228960">
        <ele>870.4</ele>
        <time>2021-08-19T15:13:15Z</time>
      </trkpt>
      <trkpt lat="45.2593850" lon="6.3230970">
        <ele>868.6</ele>
        <time>2021-08-19T15:13:17Z</time>
      </trkpt>
      <trkpt lat="45.2594630" lon="6.3231960">
        <ele>867.4</ele>
        <time>2021-08-19T15:13:18Z</time>
      </trkpt>
      <trkpt lat="45.2596110" lon="6.3233940">
        <ele>865.6</ele>
        <time>2021-08-19T15:13:20Z</time>
      </trkpt>
      <trkpt lat="45.2597510" lon="6.3236040">
        <ele>863.4</ele>
        <time>2021-08-19T15:13:22Z</time>
      </trkpt>
      <trkpt lat="45.2598150" lon="6.3237090">
        <ele>862.8</ele>
        <time>2021-08-19T15:13:23Z</time>
      </trkpt>
      <trkpt lat="45.2598720" lon="6.3238170">
        <ele>861.8</ele>
        <time>2021-08-19T15:13:24Z</time>
      </trkpt>
      <trkpt lat="45.2599800" lon="6.3240420">
        <ele>860.2</ele>
        <time>2021-08-19T15:13:26Z</time>
      </trkpt>
      <trkpt lat="45.2601070" lon="6.3242680">
        <ele>858.2</ele>
        <time>2021-08-19T15:13:28Z</time>
      </trkpt>
      <trkpt lat="45.2601780" lon="6.3243800">
        <ele>856.6</ele>
        <time>2021-08-19T15:13:29Z</time>
      </trkpt>
      <trkpt lat="45.2603170" lon="6.3245760">
        <ele>854.4</ele>
        <time>2021-08-19T15:13:31Z</time>
      </trkpt>
      <trkpt lat="45.2604860" lon="6.3248100">
        <ele>852.4</ele>
        <time>2021-08-19T15:13:33Z</time>
      </trkpt>
      <trkpt lat="45.2606280" lon="6.3250130">
        <ele>850.4</ele>
        <time>2021-08-19T15:13:35Z</time>
      </trkpt>
      <trkpt lat="45.2607580" lon="6.3252300">
        <ele>849.2</ele>
        <time>2021-08-19T15:13:37Z</time>
      </trkpt>
      <trkpt lat="45.2608210" lon="6.3253460">
        <ele>848.2</ele>
        <time>2021-08-19T15:13:38Z</time>
      </trkpt>
      <trkpt lat="45.2608830" lon="6.3254660">
        <ele>846.8</ele>
        <time>2021-08-19T15:13:39Z</time>
      </trkpt>
      <trkpt lat="45.2610010" lon="6.3257010">
        <ele>845.6</ele>
        <time>2021-08-19T15:13:41Z</time>
      </trkpt>
      <trkpt lat="45.2610600" lon="6.3258100">
        <ele>844.4</ele>
        <time>2021-08-19T15:13:42Z</time>
      </trkpt>
      <trkpt lat="45.2611270" lon="6.3259150">
        <ele>843.4</ele>
        <time>2021-08-19T15:13:43Z</time>
      </trkpt>
      <trkpt lat="45.2612020" lon="6.3260170">
        <ele>841.8</ele>
        <time>2021-08-19T15:13:44Z</time>
      </trkpt>
      <trkpt lat="45.2613630" lon="6.3262020">
        <ele>839.8</ele>
        <time>2021-08-19T15:13:46Z</time>
      </trkpt>
      <trkpt lat="45.2614280" lon="6.3262720">
        <ele>839.0</ele>
        <time>2021-08-19T15:13:47Z</time>
      </trkpt>
      <trkpt lat="45.2615090" lon="6.3263560">
        <ele>837.4</ele>
        <time>2021-08-19T15:13:48Z</time>
      </trkpt>
      <trkpt lat="45.2616890" lon="6.3265370">
        <ele>836.2</ele>
        <time>2021-08-19T15:13:50Z</time>
      </trkpt>
      <trkpt lat="45.2618470" lon="6.3267110">
        <ele>834.4</ele>
        <time>2021-08-19T15:13:52Z</time>
      </trkpt>
      <trkpt lat="45.2620100" lon="6.3269030">
        <ele>832.2</ele>
        <time>2021-08-19T15:13:54Z</time>
      </trkpt>
      <trkpt lat="45.2620920" lon="6.3270060">
        <ele>831.2</ele>
        <time>2021-08-19T15:13:55Z</time>
      </trkpt>
      <trkpt lat="45.2622560" lon="6.3272130">
        <ele>830.0</ele>
        <time>2021-08-19T15:13:57Z</time>
      </trkpt>
      <trkpt lat="45.2624150" lon="6.3274140">
        <ele>828.0</ele>
        <time>2021-08-19T15:13:59Z</time>
      </trkpt>
      <trkpt lat="45.2625730" lon="6.3276120">
        <ele>825.4</ele>
        <time>2021-08-19T15:14:01Z</time>
      </trkpt>
      <trkpt lat="45.2627300" lon="6.3278060">
        <ele>823.6</ele>
        <time>2021-08-19T15:14:03Z</time>
      </trkpt>
      <trkpt lat="45.2628770" lon="6.3279880">
        <ele>822.0</ele>
        <time>2021-08-19T15:14:05Z</time>
      </trkpt>
      <trkpt lat="45.2629740" lon="6.3280820">
        <ele>821.2</ele>
        <time>2021-08-19T15:14:06Z</time>
      </trkpt>
      <trkpt lat="45.2630460" lon="6.3281370">
        <ele>819.8</ele>
        <time>2021-08-19T15:14:07Z</time>
      </trkpt>
      <trkpt lat="45.2632310" lon="6.3282500">
        <ele>817.4</ele>
        <time>2021-08-19T15:14:09Z</time>
      </trkpt>
      <trkpt lat="45.2633310" lon="6.3283000">
        <ele>816.2</ele>
        <time>2021-08-19T15:14:10Z</time>
      </trkpt>
      <trkpt lat="45.2635310" lon="6.3284000">
        <ele>814.2</ele>
        <time>2021-08-19T15:14:12Z</time>
      </trkpt>
      <trkpt lat="45.2636270" lon="6.3284480">
        <ele>813.6</ele>
        <time>2021-08-19T15:14:13Z</time>
      </trkpt>
      <trkpt lat="45.2637220" lon="6.3284990">
        <ele>812.0</ele>
        <time>2021-08-19T15:14:14Z</time>
      </trkpt>
      <trkpt lat="45.2639000" lon="6.3286140">
        <ele>810.2</ele>
        <time>2021-08-19T15:14:16Z</time>
      </trkpt>
      <trkpt lat="45.2640670" lon="6.3287540">
        <ele>808.6</ele>
        <time>2021-08-19T15:14:18Z</time>
      </trkpt>
      <trkpt lat="45.2642380" lon="6.3289230">
        <ele>806.8</ele>
        <time>2021-08-19T15:14:20Z</time>
      </trkpt>
      <trkpt lat="45.2644080" lon="6.3291080">
        <ele>805.4</ele>
        <time>2021-08-19T15:14:22Z</time>
      </trkpt>
      <trkpt lat="45.2645720" lon="6.3292930">
        <ele>804.0</ele>
        <time>2021-08-19T15:14:24Z</time>
      </trkpt>
      <trkpt lat="45.2646490" lon="6.3293850">
        <ele>802.6</ele>
        <time>2021-08-19T15:14:25Z</time>
      </trkpt>
      <trkpt lat="45.2648170" lon="6.3295550">
        <ele>800.4</ele>
        <time>2021-08-19T15:14:27Z</time>
      </trkpt>
      <trkpt lat="45.2649930" lon="6.3297220">
        <ele>798.6</ele>
        <time>2021-08-19T15:14:29Z</time>
      </trkpt>
      <trkpt lat="45.2651590" lon="6.3298820">
        <ele>796.4</ele>
        <time>2021-08-19T15:14:31Z</time>
      </trkpt>
      <trkpt lat="45.2653250" lon="6.3300380">
        <ele>795.0</ele>
        <time>2021-08-19T15:14:33Z</time>
      </trkpt>
      <trkpt lat="45.2654070" lon="6.3301140">
        <ele>793.6</ele>
        <time>2021-08-19T15:14:34Z</time>
      </trkpt>
      <trkpt lat="45.2655620" lon="6.3302640">
        <ele>792.0</ele>
        <time>2021-08-19T15:14:36Z</time>
      </trkpt>
      <trkpt lat="45.2656960" lon="6.3304010">
        <ele>790.2</ele>
        <time>2021-08-19T15:14:38Z</time>
      </trkpt>
      <trkpt lat="45.2657600" lon="6.3304650">
        <ele>789.4</ele>
        <time>2021-08-19T15:14:39Z</time>
      </trkpt>
      <trkpt lat="45.2658310" lon="6.3305190">
        <ele>788.4</ele>
        <time>2021-08-19T15:14:40Z</time>
      </trkpt>
      <trkpt lat="45.2659920" lon="6.3305730">
        <ele>786.8</ele>
        <time>2021-08-19T15:14:42Z</time>
      </trkpt>
      <trkpt lat="45.2661590" lon="6.3305670">
        <ele>784.8</ele>
        <time>2021-08-19T15:14:44Z</time>
      </trkpt>
      <trkpt lat="45.2662510" lon="6.3305670">
        <ele>784.2</ele>
        <time>2021-08-19T15:14:45Z</time>
      </trkpt>
      <trkpt lat="45.2663470" lon="6.3305820">
        <ele>783.4</ele>
        <time>2021-08-19T15:14:46Z</time>
      </trkpt>
      <trkpt lat="45.2664400" lon="6.3306180">
        <ele>782.2</ele>
        <time>2021-08-19T15:14:47Z</time>
      </trkpt>
      <trkpt lat="45.2666170" lon="6.3307240">
        <ele>780.6</ele>
        <time>2021-08-19T15:14:49Z</time>
      </trkpt>
      <trkpt lat="45.2667890" lon="6.3308390">
        <ele>778.8</ele>
        <time>2021-08-19T15:14:51Z</time>
      </trkpt>
      <trkpt lat="45.2669460" lon="6.3309430">
        <ele>777.2</ele>
        <time>2021-08-19T15:14:53Z</time>
      </trkpt>
      <trkpt lat="45.2670010" lon="6.3309860">
        <ele>776.6</ele>
        <time>2021-08-19T15:14:54Z</time>
      </trkpt>
      <trkpt lat="45.2670830" lon="6.3310610">
        <ele>775.6</ele>
        <time>2021-08-19T15:14:55Z</time>
      </trkpt>
      <trkpt lat="45.2672070" lon="6.3312460">
        <ele>774.2</ele>
        <time>2021-08-19T15:14:57Z</time>
      </trkpt>
      <trkpt lat="45.2672940" lon="6.3314990">
        <ele>773.0</ele>
        <time>2021-08-19T15:14:59Z</time>
      </trkpt>
      <trkpt lat="45.2673310" lon="6.3316400">
        <ele>772.2</ele>
        <time>2021-08-19T15:15:00Z</time>
      </trkpt>
      <trkpt lat="45.2673640" lon="6.3317870">
        <ele>771.8</ele>
        <time>2021-08-19T15:15:01Z</time>
      </trkpt>
      <trkpt lat="45.2673970" lon="6.3319380">
        <ele>770.4</ele>
        <time>2021-08-19T15:15:02Z</time>
      </trkpt>
      <trkpt lat="45.2674640" lon="6.3322500">
        <ele>768.6</ele>
        <time>2021-08-19T15:15:04Z</time>
      </trkpt>
      <trkpt lat="45.2675420" lon="6.3325640">
        <ele>767.0</ele>
        <time>2021-08-19T15:15:06Z</time>
      </trkpt>
      <trkpt lat="45.2675860" lon="6.3327190">
        <ele>766.6</ele>
        <time>2021-08-19T15:15:07Z</time>
      </trkpt>
      <trkpt lat="45.2676280" lon="6.3328680">
        <ele>764.6</ele>
        <time>2021-08-19T15:15:08Z</time>
      </trkpt>
      <trkpt lat="45.2677090" lon="6.3331420">
        <ele>763.2</ele>
        <time>2021-08-19T15:15:10Z</time>
      </trkpt>
      <trkpt lat="45.2677870" lon="6.3333960">
        <ele>761.4</ele>
        <time>2021-08-19T15:15:12Z</time>
      </trkpt>
      <trkpt lat="45.2678320" lon="6.3335230">
        <ele>759.6</ele>
        <time>2021-08-19T15:15:13Z</time>
      </trkpt>
      <trkpt lat="45.2679400" lon="6.3337780">
        <ele>758.2</ele>
        <time>2021-08-19T15:15:15Z</time>
      </trkpt>
      <trkpt lat="45.2680020" lon="6.3339020">
        <ele>757.6</ele>
        <time>2021-08-19T15:15:16Z</time>
      </trkpt>
      <trkpt lat="45.2680720" lon="6.3340210">
        <ele>756.6</ele>
        <time>2021-08-19T15:15:17Z</time>
      </trkpt>
      <trkpt lat="45.2682230" lon="6.3342530">
        <ele>754.4</ele>
        <time>2021-08-19T15:15:19Z</time>
      </trkpt>
      <trkpt lat="45.2683030" lon="6.3343730">
        <ele>754.0</ele>
        <time>2021-08-19T15:15:20Z</time>
      </trkpt>
      <trkpt lat="45.2683830" lon="6.3344920">
        <ele>753.0</ele>
        <time>2021-08-19T15:15:21Z</time>
      </trkpt>
      <trkpt lat="45.2685420" lon="6.3347350">
        <ele>751.0</ele>
        <time>2021-08-19T15:15:23Z</time>
      </trkpt>
      <trkpt lat="45.2686760" lon="6.3349840">
        <ele>749.6</ele>
        <time>2021-08-19T15:15:25Z</time>
      </trkpt>
      <trkpt lat="45.2687290" lon="6.3351070">
        <ele>748.8</ele>
        <time>2021-08-19T15:15:26Z</time>
      </trkpt>
      <trkpt lat="45.2687760" lon="6.3352330">
        <ele>748.0</ele>
        <time>2021-08-19T15:15:27Z</time>
      </trkpt>
      <trkpt lat="45.2688590" lon="6.3354860">
        <ele>747.2</ele>
        <time>2021-08-19T15:15:29Z</time>
      </trkpt>
      <trkpt lat="45.2689470" lon="6.3357210">
        <ele>746.6</ele>
        <time>2021-08-19T15:15:31Z</time>
      </trkpt>
      <trkpt lat="45.2690720" lon="6.3359210">
        <ele>746.0</ele>
        <time>2021-08-19T15:15:33Z</time>
      </trkpt>
      <trkpt lat="45.2691440" lon="6.3360050">
        <ele>745.4</ele>
        <time>2021-08-19T15:15:34Z</time>
      </trkpt>
      <trkpt lat="45.2692230" lon="6.3360750">
        <ele>745.2</ele>
        <time>2021-08-19T15:15:35Z</time>
      </trkpt>
      <trkpt lat="45.2693100" lon="6.3361350">
        <ele>744.6</ele>
        <time>2021-08-19T15:15:36Z</time>
      </trkpt>
      <trkpt lat="45.2694960" lon="6.3362260">
        <ele>744.0</ele>
        <time>2021-08-19T15:15:38Z</time>
      </trkpt>
      <trkpt lat="45.2695910" lon="6.3362600">
        <ele>743.6</ele>
        <time>2021-08-19T15:15:39Z</time>
      </trkpt>
      <trkpt lat="45.2698960" lon="6.3363280">
        <ele>742.6</ele>
        <time>2021-08-19T15:15:42Z</time>
      </trkpt>
      <trkpt lat="45.2700000" lon="6.3363500">
        <ele>741.6</ele>
        <time>2021-08-19T15:15:43Z</time>
      </trkpt>
      <trkpt lat="45.2701080" lon="6.3363750">
        <ele>741.2</ele>
        <time>2021-08-19T15:15:44Z</time>
      </trkpt>
      <trkpt lat="45.2703260" lon="6.3364210">
        <ele>740.0</ele>
        <time>2021-08-19T15:15:46Z</time>
      </trkpt>
      <trkpt lat="45.2705360" lon="6.3364680">
        <ele>738.6</ele>
        <time>2021-08-19T15:15:48Z</time>
      </trkpt>
      <trkpt lat="45.2707270" lon="6.3365020">
        <ele>735.8</ele>
        <time>2021-08-19T15:15:50Z</time>
      </trkpt>
      <trkpt lat="45.2708840" lon="6.3365310">
        <ele>734.4</ele>
        <time>2021-08-19T15:15:52Z</time>
      </trkpt>
      <trkpt lat="45.2709490" lon="6.3365600">
        <ele>734.0</ele>
        <time>2021-08-19T15:15:53Z</time>
      </trkpt>
      <trkpt lat="45.2710070" lon="6.3366050">
        <ele>733.4</ele>
        <time>2021-08-19T15:15:54Z</time>
      </trkpt>
      <trkpt lat="45.2710890" lon="6.3367460">
        <ele>731.4</ele>
        <time>2021-08-19T15:15:56Z</time>
      </trkpt>
      <trkpt lat="45.2711130" lon="6.3369580">
        <ele>730.0</ele>
        <time>2021-08-19T15:15:58Z</time>
      </trkpt>
      <trkpt lat="45.2711160" lon="6.3370730">
        <ele>729.6</ele>
        <time>2021-08-19T15:15:59Z</time>
      </trkpt>
      <trkpt lat="45.2711170" lon="6.3371950">
        <ele>728.8</ele>
        <time>2021-08-19T15:16:00Z</time>
      </trkpt>
      <trkpt lat="45.2711030" lon="6.3374350">
        <ele>727.4</ele>
        <time>2021-08-19T15:16:02Z</time>
      </trkpt>
      <trkpt lat="45.2710690" lon="6.3375480">
        <ele>726.2</ele>
        <time>2021-08-19T15:16:03Z</time>
      </trkpt>
      <trkpt lat="45.2709640" lon="6.3377640">
        <ele>724.4</ele>
        <time>2021-08-19T15:16:05Z</time>
      </trkpt>
      <trkpt lat="45.2708550" lon="6.3380020">
        <ele>723.2</ele>
        <time>2021-08-19T15:16:07Z</time>
      </trkpt>
      <trkpt lat="45.2708150" lon="6.3381280">
        <ele>722.6</ele>
        <time>2021-08-19T15:16:08Z</time>
      </trkpt>
      <trkpt lat="45.2707780" lon="6.3382510">
        <ele>721.2</ele>
        <time>2021-08-19T15:16:09Z</time>
      </trkpt>
      <trkpt lat="45.2706910" lon="6.3384800">
        <ele>719.6</ele>
        <time>2021-08-19T15:16:11Z</time>
      </trkpt>
      <trkpt lat="45.2706370" lon="6.3385700">
        <ele>719.0</ele>
        <time>2021-08-19T15:16:12Z</time>
      </trkpt>
      <trkpt lat="45.2705720" lon="6.3386360">
        <ele>717.4</ele>
        <time>2021-08-19T15:16:13Z</time>
      </trkpt>
      <trkpt lat="45.2704210" lon="6.3386940">
        <ele>715.8</ele>
        <time>2021-08-19T15:16:15Z</time>
      </trkpt>
      <trkpt lat="45.2702680" lon="6.3386680">
        <ele>714.6</ele>
        <time>2021-08-19T15:16:17Z</time>
      </trkpt>
      <trkpt lat="45.2701910" lon="6.3386400">
        <ele>713.4</ele>
        <time>2021-08-19T15:16:18Z</time>
      </trkpt>
      <trkpt lat="45.2700550" lon="6.3385860">
        <ele>711.8</ele>
        <time>2021-08-19T15:16:20Z</time>
      </trkpt>
      <trkpt lat="45.2699470" lon="6.3385590">
        <ele>710.6</ele>
        <time>2021-08-19T15:16:22Z</time>
      </trkpt>
      <trkpt lat="45.2698710" lon="6.3386210">
        <ele>709.0</ele>
        <time>2021-08-19T15:16:24Z</time>
      </trkpt>
      <trkpt lat="45.2698550" lon="6.3386820">
        <ele>708.8</ele>
        <time>2021-08-19T15:16:25Z</time>
      </trkpt>
      <trkpt lat="45.2698620" lon="6.3387570">
        <ele>708.2</ele>
        <time>2021-08-19T15:16:26Z</time>
      </trkpt>
      <trkpt lat="45.2699070" lon="6.3388130">
        <ele>707.8</ele>
        <time>2021-08-19T15:16:27Z</time>
      </trkpt>
      <trkpt lat="45.2699600" lon="6.3388560">
        <ele>707.6</ele>
        <time>2021-08-19T15:16:28Z</time>
      </trkpt>
      <trkpt lat="45.2700860" lon="6.3389230">
        <ele>707.0</ele>
        <time>2021-08-19T15:16:30Z</time>
      </trkpt>
      <trkpt lat="45.2702300" lon="6.3390000">
        <ele>706.0</ele>
        <time>2021-08-19T15:16:32Z</time>
      </trkpt>
      <trkpt lat="45.2703090" lon="6.3390420">
        <ele>705.4</ele>
        <time>2021-08-19T15:16:33Z</time>
      </trkpt>
      <trkpt lat="45.2704790" lon="6.3391220">
        <ele>704.4</ele>
        <time>2021-08-19T15:16:35Z</time>
      </trkpt>
      <trkpt lat="45.2706460" lon="6.3392010">
        <ele>702.8</ele>
        <time>2021-08-19T15:16:37Z</time>
      </trkpt>
      <trkpt lat="45.2707250" lon="6.3392440">
        <ele>702.4</ele>
        <time>2021-08-19T15:16:38Z</time>
      </trkpt>
      <trkpt lat="45.2708040" lon="6.3392950">
        <ele>701.2</ele>
        <time>2021-08-19T15:16:39Z</time>
      </trkpt>
      <trkpt lat="45.2708810" lon="6.3393470">
        <ele>699.8</ele>
        <time>2021-08-19T15:16:40Z</time>
      </trkpt>
      <trkpt lat="45.2709560" lon="6.3393940">
        <ele>699.2</ele>
        <time>2021-08-19T15:16:41Z</time>
      </trkpt>
      <trkpt lat="45.2710290" lon="6.3394390">
        <ele>698.0</ele>
        <time>2021-08-19T15:16:42Z</time>
      </trkpt>
      <trkpt lat="45.2711740" lon="6.3395320">
        <ele>697.0</ele>
        <time>2021-08-19T15:16:44Z</time>
      </trkpt>
      <trkpt lat="45.2713300" lon="6.3396210">
        <ele>695.6</ele>
        <time>2021-08-19T15:16:46Z</time>
      </trkpt>
      <trkpt lat="45.2714860" lon="6.3397190">
        <ele>694.8</ele>
        <time>2021-08-19T15:16:48Z</time>
      </trkpt>
      <trkpt lat="45.2716390" lon="6.3398210">
        <ele>693.6</ele>
        <time>2021-08-19T15:16:50Z</time>
      </trkpt>
      <trkpt lat="45.2717110" lon="6.3398690">
        <ele>692.0</ele>
        <time>2021-08-19T15:16:51Z</time>
      </trkpt>
      <trkpt lat="45.2718470" lon="6.3399520">
        <ele>690.6</ele>
        <time>2021-08-19T15:16:53Z</time>
      </trkpt>
      <trkpt lat="45.2719110" lon="6.3399960">
        <ele>690.4</ele>
        <time>2021-08-19T15:16:54Z</time>
      </trkpt>
      <trkpt lat="45.2719720" lon="6.3400390">
        <ele>689.8</ele>
        <time>2021-08-19T15:16:55Z</time>
      </trkpt>
      <trkpt lat="45.2720880" lon="6.3401220">
        <ele>688.6</ele>
        <time>2021-08-19T15:16:57Z</time>
      </trkpt>
      <trkpt lat="45.2721450" lon="6.3401640">
        <ele>688.4</ele>
        <time>2021-08-19T15:16:58Z</time>
      </trkpt>
      <trkpt lat="45.2722000" lon="6.3402210">
        <ele>687.0</ele>
        <time>2021-08-19T15:16:59Z</time>
      </trkpt>
      <trkpt lat="45.2722490" lon="6.3402910">
        <ele>686.6</ele>
        <time>2021-08-19T15:17:00Z</time>
      </trkpt>
      <trkpt lat="45.2722920" lon="6.3403630">
        <ele>685.8</ele>
        <time>2021-08-19T15:17:01Z</time>
      </trkpt>
      <trkpt lat="45.2723690" lon="6.3405170">
        <ele>684.4</ele>
        <time>2021-08-19T15:17:03Z</time>
      </trkpt>
      <trkpt lat="45.2724320" lon="6.3406760">
        <ele>683.4</ele>
        <time>2021-08-19T15:17:05Z</time>
      </trkpt>
      <trkpt lat="45.2724620" lon="6.3408600">
        <ele>682.0</ele>
        <time>2021-08-19T15:17:07Z</time>
      </trkpt>
      <trkpt lat="45.2724610" lon="6.3410760">
        <ele>680.8</ele>
        <time>2021-08-19T15:17:09Z</time>
      </trkpt>
      <trkpt lat="45.2724580" lon="6.3411930">
        <ele>679.4</ele>
        <time>2021-08-19T15:17:10Z</time>
      </trkpt>
      <trkpt lat="45.2724490" lon="6.3413170">
        <ele>678.8</ele>
        <time>2021-08-19T15:17:11Z</time>
      </trkpt>
      <trkpt lat="45.2724390" lon="6.3414510">
        <ele>678.2</ele>
        <time>2021-08-19T15:17:12Z</time>
      </trkpt>
      <trkpt lat="45.2724170" lon="6.3417170">
        <ele>676.2</ele>
        <time>2021-08-19T15:17:14Z</time>
      </trkpt>
      <trkpt lat="45.2724030" lon="6.3418440">
        <ele>675.2</ele>
        <time>2021-08-19T15:17:15Z</time>
      </trkpt>
      <trkpt lat="45.2723910" lon="6.3419650">
        <ele>674.8</ele>
        <time>2021-08-19T15:17:16Z</time>
      </trkpt>
      <trkpt lat="45.2723810" lon="6.3420810">
        <ele>674.0</ele>
        <time>2021-08-19T15:17:17Z</time>
      </trkpt>
      <trkpt lat="45.2723430" lon="6.3425340">
        <ele>671.8</ele>
        <time>2021-08-19T15:17:21Z</time>
      </trkpt>
      <trkpt lat="45.2723260" lon="6.3427510">
        <ele>670.6</ele>
        <time>2021-08-19T15:17:23Z</time>
      </trkpt>
      <trkpt lat="45.2723160" lon="6.3428540">
        <ele>670.2</ele>
        <time>2021-08-19T15:17:24Z</time>
      </trkpt>
      <trkpt lat="45.2723020" lon="6.3429540">
        <ele>668.4</ele>
        <time>2021-08-19T15:17:25Z</time>
      </trkpt>
      <trkpt lat="45.2722700" lon="6.3431470">
        <ele>666.6</ele>
        <time>2021-08-19T15:17:27Z</time>
      </trkpt>
      <trkpt lat="45.2722530" lon="6.3433160">
        <ele>665.4</ele>
        <time>2021-08-19T15:17:29Z</time>
      </trkpt>
      <trkpt lat="45.2722430" lon="6.3434670">
        <ele>664.4</ele>
        <time>2021-08-19T15:17:31Z</time>
      </trkpt>
      <trkpt lat="45.2722260" lon="6.3435420">
        <ele>663.4</ele>
        <time>2021-08-19T15:17:32Z</time>
      </trkpt>
      <trkpt lat="45.2721990" lon="6.3436060">
        <ele>663.0</ele>
        <time>2021-08-19T15:17:33Z</time>
      </trkpt>
      <trkpt lat="45.2721710" lon="6.3436640">
        <ele>662.4</ele>
        <time>2021-08-19T15:17:34Z</time>
      </trkpt>
      <trkpt lat="45.2721490" lon="6.3437280">
        <ele>662.0</ele>
        <time>2021-08-19T15:17:35Z</time>
      </trkpt>
      <trkpt lat="45.2721630" lon="6.3438660">
        <ele>661.0</ele>
        <time>2021-08-19T15:17:37Z</time>
      </trkpt>
      <trkpt lat="45.2721950" lon="6.3439300">
        <ele>660.6</ele>
        <time>2021-08-19T15:17:38Z</time>
      </trkpt>
      <trkpt lat="45.2722780" lon="6.3440490">
        <ele>659.8</ele>
        <time>2021-08-19T15:17:40Z</time>
      </trkpt>
      <trkpt lat="45.2724680" lon="6.3443460">
        <ele>658.8</ele>
        <time>2021-08-19T15:17:44Z</time>
      </trkpt>
      <trkpt lat="45.2725180" lon="6.3444270">
        <ele>658.2</ele>
        <time>2021-08-19T15:17:45Z</time>
      </trkpt>
      <trkpt lat="45.2726120" lon="6.3445860">
        <ele>657.2</ele>
        <time>2021-08-19T15:17:47Z</time>
      </trkpt>
      <trkpt lat="45.2727000" lon="6.3447240">
        <ele>656.0</ele>
        <time>2021-08-19T15:17:49Z</time>
      </trkpt>
      <trkpt lat="45.2727780" lon="6.3448490">
        <ele>655.2</ele>
        <time>2021-08-19T15:17:51Z</time>
      </trkpt>
      <trkpt lat="45.2728050" lon="6.3449130">
        <ele>654.0</ele>
        <time>2021-08-19T15:17:52Z</time>
      </trkpt>
      <trkpt lat="45.2728260" lon="6.3449800">
        <ele>653.6</ele>
        <time>2021-08-19T15:17:53Z</time>
      </trkpt>
      <trkpt lat="45.2728330" lon="6.3451180">
        <ele>653.0</ele>
        <time>2021-08-19T15:17:55Z</time>
      </trkpt>
      <trkpt lat="45.2727870" lon="6.3453210">
        <ele>651.8</ele>
        <time>2021-08-19T15:17:58Z</time>
      </trkpt>
      <trkpt lat="45.2727310" lon="6.3454770">
        <ele>651.2</ele>
        <time>2021-08-19T15:18:00Z</time>
      </trkpt>
      <trkpt lat="45.2726630" lon="6.3456510">
        <ele>650.8</ele>
        <time>2021-08-19T15:18:02Z</time>
      </trkpt>
      <trkpt lat="45.2726240" lon="6.3457450">
        <ele>649.8</ele>
        <time>2021-08-19T15:18:03Z</time>
      </trkpt>
      <trkpt lat="45.2725790" lon="6.3458410">
        <ele>649.4</ele>
        <time>2021-08-19T15:18:04Z</time>
      </trkpt>
      <trkpt lat="45.2724790" lon="6.3460300">
        <ele>648.6</ele>
        <time>2021-08-19T15:18:06Z</time>
      </trkpt>
      <trkpt lat="45.2723000" lon="6.3463070">
        <ele>647.0</ele>
        <time>2021-08-19T15:18:09Z</time>
      </trkpt>
      <trkpt lat="45.2721620" lon="6.3464800">
        <ele>646.0</ele>
        <time>2021-08-19T15:18:11Z</time>
      </trkpt>
      <trkpt lat="45.2719590" lon="6.3467200">
        <ele>644.8</ele>
        <time>2021-08-19T15:18:14Z</time>
      </trkpt>
      <trkpt lat="45.2717820" lon="6.3469240">
        <ele>643.6</ele>
        <time>2021-08-19T15:18:17Z</time>
      </trkpt>
      <trkpt lat="45.2716860" lon="6.3470570">
        <ele>642.8</ele>
        <time>2021-08-19T15:18:19Z</time>
      </trkpt>
      <trkpt lat="45.2716530" lon="6.3471350">
        <ele>642.2</ele>
        <time>2021-08-19T15:18:20Z</time>
      </trkpt>
      <trkpt lat="45.2716360" lon="6.3472220">
        <ele>642.2</ele>
        <time>2021-08-19T15:18:21Z</time>
      </trkpt>
      <trkpt lat="45.2716230" lon="6.3474170">
        <ele>641.6</ele>
        <time>2021-08-19T15:18:23Z</time>
      </trkpt>
      <trkpt lat="45.2716280" lon="6.3475210">
        <ele>641.2</ele>
        <time>2021-08-19T15:18:24Z</time>
      </trkpt>
      <trkpt lat="45.2716390" lon="6.3476260">
        <ele>640.6</ele>
        <time>2021-08-19T15:18:25Z</time>
      </trkpt>
      <trkpt lat="45.2716380" lon="6.3478390">
        <ele>639.8</ele>
        <time>2021-08-19T15:18:27Z</time>
      </trkpt>
      <trkpt lat="45.2716430" lon="6.3481370">
        <ele>638.8</ele>
        <time>2021-08-19T15:18:30Z</time>
      </trkpt>
      <trkpt lat="45.2716490" lon="6.3484370">
        <ele>637.4</ele>
        <time>2021-08-19T15:18:33Z</time>
      </trkpt>
      <trkpt lat="45.2716530" lon="6.3485420">
        <ele>637.0</ele>
        <time>2021-08-19T15:18:34Z</time>
      </trkpt>
      <trkpt lat="45.2716550" lon="6.3486430">
        <ele>636.0</ele>
        <time>2021-08-19T15:18:35Z</time>
      </trkpt>
      <trkpt lat="45.2716740" lon="6.3489390">
        <ele>635.0</ele>
        <time>2021-08-19T15:18:38Z</time>
      </trkpt>
      <trkpt lat="45.2717000" lon="6.3491360">
        <ele>634.0</ele>
        <time>2021-08-19T15:18:40Z</time>
      </trkpt>
      <trkpt lat="45.2717380" lon="6.3493420">
        <ele>632.4</ele>
        <time>2021-08-19T15:18:42Z</time>
      </trkpt>
      <trkpt lat="45.2717660" lon="6.3494380">
        <ele>632.0</ele>
        <time>2021-08-19T15:18:43Z</time>
      </trkpt>
      <trkpt lat="45.2717930" lon="6.3495270">
        <ele>631.2</ele>
        <time>2021-08-19T15:18:44Z</time>
      </trkpt>
      <trkpt lat="45.2718160" lon="6.3496160">
        <ele>631.2</ele>
        <time>2021-08-19T15:18:45Z</time>
      </trkpt>
      <trkpt lat="45.2718410" lon="6.3497130">
        <ele>630.0</ele>
        <time>2021-08-19T15:18:46Z</time>
      </trkpt>
      <trkpt lat="45.2718910" lon="6.3499160">
        <ele>628.8</ele>
        <time>2021-08-19T15:18:48Z</time>
      </trkpt>
      <trkpt lat="45.2719580" lon="6.3502020">
        <ele>626.6</ele>
        <time>2021-08-19T15:18:51Z</time>
      </trkpt>
      <trkpt lat="45.2720000" lon="6.3503660">
        <ele>625.6</ele>
        <time>2021-08-19T15:18:53Z</time>
      </trkpt>
      <trkpt lat="45.2720170" lon="6.3504340">
        <ele>625.2</ele>
        <time>2021-08-19T15:18:54Z</time>
      </trkpt>
      <trkpt lat="45.2720500" lon="6.3505520">
        <ele>624.0</ele>
        <time>2021-08-19T15:18:56Z</time>
      </trkpt>
      <trkpt lat="45.2720670" lon="6.3506070">
        <ele>623.6</ele>
        <time>2021-08-19T15:18:57Z</time>
      </trkpt>
      <trkpt lat="45.2720840" lon="6.3507140">
        <ele>622.6</ele>
        <time>2021-08-19T15:18:59Z</time>
      </trkpt>
      <trkpt lat="45.2720640" lon="6.3508150">
        <ele>621.6</ele>
        <time>2021-08-19T15:19:01Z</time>
      </trkpt>
      <trkpt lat="45.2719000" lon="6.3510380">
        <ele>620.4</ele>
        <time>2021-08-19T15:19:06Z</time>
      </trkpt>
      <trkpt lat="45.2718400" lon="6.3511440">
        <ele>620.0</ele>
        <time>2021-08-19T15:19:08Z</time>
      </trkpt>
      <trkpt lat="45.2717830" lon="6.3512490">
        <ele>619.4</ele>
        <time>2021-08-19T15:19:10Z</time>
      </trkpt>
      <trkpt lat="45.2717580" lon="6.3512960">
        <ele>619.2</ele>
        <time>2021-08-19T15:19:11Z</time>
      </trkpt>
      <trkpt lat="45.2715990" lon="6.3515950">
        <ele>618.4</ele>
        <time>2021-08-19T15:19:16Z</time>
      </trkpt>
      <trkpt lat="45.2715610" lon="6.3516680">
        <ele>618.2</ele>
        <time>2021-08-19T15:19:17Z</time>
      </trkpt>
      <trkpt lat="45.2713460" lon="6.3520570">
        <ele>618.0</ele>
        <time>2021-08-19T15:19:22Z</time>
      </trkpt>
      <trkpt lat="45.2711860" lon="6.3523710">
        <ele>618.2</ele>
        <time>2021-08-19T15:19:26Z</time>
      </trkpt>
      <trkpt lat="45.2711120" lon="6.3525310">
        <ele>618.2</ele>
        <time>2021-08-19T15:19:28Z</time>
      </trkpt>
      <trkpt lat="45.2710120" lon="6.3529370">
        <ele>618.2</ele>
        <time>2021-08-19T15:19:32Z</time>
      </trkpt>
      <trkpt lat="45.2709910" lon="6.3530460">
        <ele>618.2</ele>
        <time>2021-08-19T15:19:33Z</time>
      </trkpt>
      <trkpt lat="45.2709690" lon="6.3531550">
        <ele>617.6</ele>
        <time>2021-08-19T15:19:34Z</time>
      </trkpt>
      <trkpt lat="45.2709520" lon="6.3532600">
        <ele>617.0</ele>
        <time>2021-08-19T15:19:35Z</time>
      </trkpt>
      <trkpt lat="45.2709350" lon="6.3533640">
        <ele>616.8</ele>
        <time>2021-08-19T15:19:36Z</time>
      </trkpt>
      <trkpt lat="45.2709140" lon="6.3534700">
        <ele>616.6</ele>
        <time>2021-08-19T15:19:37Z</time>
      </trkpt>
      <trkpt lat="45.2708750" lon="6.3536750">
        <ele>615.8</ele>
        <time>2021-08-19T15:19:39Z</time>
      </trkpt>
      <trkpt lat="45.2708570" lon="6.3537800">
        <ele>615.6</ele>
        <time>2021-08-19T15:19:40Z</time>
      </trkpt>
      <trkpt lat="45.2708300" lon="6.3538840">
        <ele>615.2</ele>
        <time>2021-08-19T15:19:41Z</time>
      </trkpt>
      <trkpt lat="45.2707510" lon="6.3543170">
        <ele>614.4</ele>
        <time>2021-08-19T15:19:45Z</time>
      </trkpt>
      <trkpt lat="45.2706110" lon="6.3551140">
        <ele>613.6</ele>
        <time>2021-08-19T15:19:52Z</time>
      </trkpt>
      <trkpt lat="45.2705890" lon="6.3552380">
        <ele>613.6</ele>
        <time>2021-08-19T15:19:53Z</time>
      </trkpt>
      <trkpt lat="45.2705680" lon="6.3553620">
        <ele>613.4</ele>
        <time>2021-08-19T15:19:54Z</time>
      </trkpt>
      <trkpt lat="45.2705480" lon="6.3555100">
        <ele>613.4</ele>
        <time>2021-08-19T15:19:55Z</time>
      </trkpt>
      <trkpt lat="45.2705410" lon="6.3556080">
        <ele>613.0</ele>
        <time>2021-08-19T15:19:56Z</time>
      </trkpt>
      <trkpt lat="45.2705260" lon="6.3559740">
        <ele>612.8</ele>
        <time>2021-08-19T15:19:59Z</time>
      </trkpt>
      <trkpt lat="45.2705260" lon="6.3560920">
        <ele>612.8</ele>
        <time>2021-08-19T15:20:00Z</time>
      </trkpt>
      <trkpt lat="45.2705360" lon="6.3563180">
        <ele>612.6</ele>
        <time>2021-08-19T15:20:02Z</time>
      </trkpt>
      <trkpt lat="45.2705470" lon="6.3565320">
        <ele>612.4</ele>
        <time>2021-08-19T15:20:04Z</time>
      </trkpt>
      <trkpt lat="45.2705550" lon="6.3566400">
        <ele>612.6</ele>
        <time>2021-08-19T15:20:05Z</time>
      </trkpt>
      <trkpt lat="45.2705630" lon="6.3567460">
        <ele>612.6</ele>
        <time>2021-08-19T15:20:06Z</time>
      </trkpt>
      <trkpt lat="45.2705710" lon="6.3573060">
        <ele>612.6</ele>
        <time>2021-08-19T15:20:11Z</time>
      </trkpt>
      <trkpt lat="45.2704760" lon="6.3580290">
        <ele>612.2</ele>
        <time>2021-08-19T15:20:17Z</time>
      </trkpt>
      <trkpt lat="45.2704260" lon="6.3582750">
        <ele>612.2</ele>
        <time>2021-08-19T15:20:19Z</time>
      </trkpt>
      <trkpt lat="45.2704020" lon="6.3583960">
        <ele>612.2</ele>
        <time>2021-08-19T15:20:20Z</time>
      </trkpt>
      <trkpt lat="45.2703760" lon="6.3585170">
        <ele>612.2</ele>
        <time>2021-08-19T15:20:21Z</time>
      </trkpt>
      <trkpt lat="45.2703220" lon="6.3587530">
        <ele>611.8</ele>
        <time>2021-08-19T15:20:23Z</time>
      </trkpt>
      <trkpt lat="45.2702940" lon="6.3588670">
        <ele>611.6</ele>
        <time>2021-08-19T15:20:24Z</time>
      </trkpt>
      <trkpt lat="45.2702610" lon="6.3590010">
        <ele>611.4</ele>
        <time>2021-08-19T15:20:25Z</time>
      </trkpt>
      <trkpt lat="45.2702330" lon="6.3591100">
        <ele>611.4</ele>
        <time>2021-08-19T15:20:26Z</time>
      </trkpt>
      <trkpt lat="45.2701870" lon="6.3593010">
        <ele>610.4</ele>
        <time>2021-08-19T15:20:28Z</time>
      </trkpt>
      <trkpt lat="45.2701400" lon="6.3595330">
        <ele>609.8</ele>
        <time>2021-08-19T15:20:30Z</time>
      </trkpt>
      <trkpt lat="45.2701090" lon="6.3597440">
        <ele>609.4</ele>
        <time>2021-08-19T15:20:32Z</time>
      </trkpt>
      <trkpt lat="45.2700830" lon="6.3599290">
        <ele>609.0</ele>
        <time>2021-08-19T15:20:34Z</time>
      </trkpt>
      <trkpt lat="45.2700550" lon="6.3601550">
        <ele>608.8</ele>
        <time>2021-08-19T15:20:36Z</time>
      </trkpt>
      <trkpt lat="45.2700110" lon="6.3603890">
        <ele>608.6</ele>
        <time>2021-08-19T15:20:39Z</time>
      </trkpt>
      <trkpt lat="45.2700010" lon="6.3604440">
        <ele>608.6</ele>
        <time>2021-08-19T15:20:40Z</time>
      </trkpt>
      <trkpt lat="45.2699930" lon="6.3604870">
        <ele>608.6</ele>
        <time>2021-08-19T15:20:41Z</time>
      </trkpt>
      <trkpt lat="45.2699940" lon="6.3604990">
        <ele>608.6</ele>
        <time>2021-08-19T15:20:42Z</time>
      </trkpt>
      <trkpt lat="45.2699940" lon="6.3604990">
        <ele>608.6</ele>
        <time>2021-08-19T15:20:43Z</time>
      </trkpt>
      <trkpt lat="45.2699940" lon="6.3604990">
        <ele>608.6</ele>
        <time>2021-08-19T15:20:44Z</time>
      </trkpt>
      <trkpt lat="45.2700300" lon="6.3604740">
        <ele>609.0</ele>
        <time>2021-08-19T15:21:05Z</time>
      </trkpt>
      <trkpt lat="45.2700540" lon="6.3604300">
        <ele>608.8</ele>
        <time>2021-08-19T15:21:07Z</time>
      </trkpt>
      <trkpt lat="45.2700980" lon="6.3601880">
        <ele>608.8</ele>
        <time>2021-08-19T15:21:12Z</time>
      </trkpt>
      <trkpt lat="45.2701400" lon="6.3598110">
        <ele>609.0</ele>
        <time>2021-08-19T15:21:17Z</time>
      </trkpt>
      <trkpt lat="45.2701840" lon="6.3595270">
        <ele>609.0</ele>
        <time>2021-08-19T15:21:20Z</time>
      </trkpt>
      <trkpt lat="45.2702210" lon="6.3593400">
        <ele>609.2</ele>
        <time>2021-08-19T15:21:22Z</time>
      </trkpt>
      <trkpt lat="45.2702400" lon="6.3592460">
        <ele>609.0</ele>
        <time>2021-08-19T15:21:23Z</time>
      </trkpt>
      <trkpt lat="45.2703900" lon="6.3586080">
        <ele>609.2</ele>
        <time>2021-08-19T15:21:30Z</time>
      </trkpt>
      <trkpt lat="45.2705490" lon="6.3578160">
        <ele>609.8</ele>
        <time>2021-08-19T15:21:39Z</time>
      </trkpt>
      <trkpt lat="45.2705900" lon="6.3574740">
        <ele>610.4</ele>
        <time>2021-08-19T15:21:43Z</time>
      </trkpt>
      <trkpt lat="45.2705980" lon="6.3573900">
        <ele>610.8</ele>
        <time>2021-08-19T15:21:44Z</time>
      </trkpt>
      <trkpt lat="45.2706110" lon="6.3572270">
        <ele>611.2</ele>
        <time>2021-08-19T15:21:46Z</time>
      </trkpt>
      <trkpt lat="45.2706110" lon="6.3571470">
        <ele>611.4</ele>
        <time>2021-08-19T15:21:47Z</time>
      </trkpt>
      <trkpt lat="45.2706100" lon="6.3570670">
        <ele>611.4</ele>
        <time>2021-08-19T15:21:48Z</time>
      </trkpt>
      <trkpt lat="45.2706070" lon="6.3569870">
        <ele>611.6</ele>
        <time>2021-08-19T15:21:49Z</time>
      </trkpt>
      <trkpt lat="45.2706040" lon="6.3568280">
        <ele>612.0</ele>
        <time>2021-08-19T15:21:51Z</time>
      </trkpt>
      <trkpt lat="45.2705930" lon="6.3565890">
        <ele>612.4</ele>
        <time>2021-08-19T15:21:54Z</time>
      </trkpt>
      <trkpt lat="45.2705880" lon="6.3565020">
        <ele>612.4</ele>
        <time>2021-08-19T15:21:55Z</time>
      </trkpt>
      <trkpt lat="45.2705830" lon="6.3564140">
        <ele>612.4</ele>
        <time>2021-08-19T15:21:56Z</time>
      </trkpt>
      <trkpt lat="45.2705770" lon="6.3563250">
        <ele>612.4</ele>
        <time>2021-08-19T15:21:57Z</time>
      </trkpt>
      <trkpt lat="45.2705600" lon="6.3560550">
        <ele>612.4</ele>
        <time>2021-08-19T15:22:00Z</time>
      </trkpt>
      <trkpt lat="45.2705600" lon="6.3558600">
        <ele>612.4</ele>
        <time>2021-08-19T15:22:02Z</time>
      </trkpt>
      <trkpt lat="45.2706050" lon="6.3553620">
        <ele>612.2</ele>
        <time>2021-08-19T15:22:07Z</time>
      </trkpt>
      <trkpt lat="45.2706330" lon="6.3551720">
        <ele>612.0</ele>
        <time>2021-08-19T15:22:09Z</time>
      </trkpt>
      <trkpt lat="45.2706690" lon="6.3549820">
        <ele>612.0</ele>
        <time>2021-08-19T15:22:11Z</time>
      </trkpt>
      <trkpt lat="45.2706870" lon="6.3548860">
        <ele>612.2</ele>
        <time>2021-08-19T15:22:12Z</time>
      </trkpt>
      <trkpt lat="45.2707050" lon="6.3547920">
        <ele>612.2</ele>
        <time>2021-08-19T15:22:13Z</time>
      </trkpt>
      <trkpt lat="45.2707310" lon="6.3546800">
        <ele>612.4</ele>
        <time>2021-08-19T15:22:14Z</time>
      </trkpt>
      <trkpt lat="45.2707680" lon="6.3545180">
        <ele>613.0</ele>
        <time>2021-08-19T15:22:16Z</time>
      </trkpt>
      <trkpt lat="45.2708090" lon="6.3543330">
        <ele>613.4</ele>
        <time>2021-08-19T15:22:18Z</time>
      </trkpt>
      <trkpt lat="45.2709000" lon="6.3537890">
        <ele>613.8</ele>
        <time>2021-08-19T15:22:24Z</time>
      </trkpt>
      <trkpt lat="45.2709710" lon="6.3532570">
        <ele>613.8</ele>
        <time>2021-08-19T15:22:30Z</time>
      </trkpt>
      <trkpt lat="45.2709880" lon="6.3531700">
        <ele>613.8</ele>
        <time>2021-08-19T15:22:31Z</time>
      </trkpt>
      <trkpt lat="45.2710760" lon="6.3527470">
        <ele>614.8</ele>
        <time>2021-08-19T15:22:36Z</time>
      </trkpt>
      <trkpt lat="45.2710890" lon="6.3526680">
        <ele>615.0</ele>
        <time>2021-08-19T15:22:37Z</time>
      </trkpt>
      <trkpt lat="45.2711120" lon="6.3525960">
        <ele>615.4</ele>
        <time>2021-08-19T15:22:38Z</time>
      </trkpt>
      <trkpt lat="45.2711410" lon="6.3525310">
        <ele>615.6</ele>
        <time>2021-08-19T15:22:39Z</time>
      </trkpt>
      <trkpt lat="45.2711700" lon="6.3524700">
        <ele>615.8</ele>
        <time>2021-08-19T15:22:40Z</time>
      </trkpt>
      <trkpt lat="45.2712660" lon="6.3522790">
        <ele>616.4</ele>
        <time>2021-08-19T15:22:43Z</time>
      </trkpt>
      <trkpt lat="45.2713680" lon="6.3520880">
        <ele>616.8</ele>
        <time>2021-08-19T15:22:46Z</time>
      </trkpt>
      <trkpt lat="45.2714010" lon="6.3520230">
        <ele>617.0</ele>
        <time>2021-08-19T15:22:47Z</time>
      </trkpt>
      <trkpt lat="45.2714350" lon="6.3519590">
        <ele>617.0</ele>
        <time>2021-08-19T15:22:48Z</time>
      </trkpt>
      <trkpt lat="45.2716340" lon="6.3515770">
        <ele>617.4</ele>
        <time>2021-08-19T15:22:54Z</time>
      </trkpt>
      <trkpt lat="45.2716930" lon="6.3514590">
        <ele>617.4</ele>
        <time>2021-08-19T15:22:56Z</time>
      </trkpt>
      <trkpt lat="45.2717180" lon="6.3514060">
        <ele>617.6</ele>
        <time>2021-08-19T15:22:57Z</time>
      </trkpt>
      <trkpt lat="45.2717380" lon="6.3513630">
        <ele>617.8</ele>
        <time>2021-08-19T15:22:58Z</time>
      </trkpt>
      <trkpt lat="45.2717480" lon="6.3513310">
        <ele>618.0</ele>
        <time>2021-08-19T15:22:59Z</time>
      </trkpt>
      <trkpt lat="45.2717510" lon="6.3513190">
        <ele>618.0</ele>
        <time>2021-08-19T15:23:00Z</time>
      </trkpt>
      <trkpt lat="45.2717510" lon="6.3513190">
        <ele>618.0</ele>
        <time>2021-08-19T15:23:01Z</time>
      </trkpt>
      <trkpt lat="45.2716480" lon="6.3512090">
        <ele>618.4</ele>
        <time>2021-08-19T15:23:23Z</time>
      </trkpt>
      <trkpt lat="45.2716220" lon="6.3511550">
        <ele>618.4</ele>
        <time>2021-08-19T15:23:25Z</time>
      </trkpt>
      <trkpt lat="45.2716000" lon="6.3511330">
        <ele>618.4</ele>
        <time>2021-08-19T15:23:26Z</time>
      </trkpt>
    </trkseg>
  </trk>
</gpx>
